<?xml version="1.0" encoding="UTF-8" standalone="no" ?>
<gpx xmlns="http://www.topografix.com/GPX/1/1" xmlns:xsi="http://www.w3.org/2001/XMLSchema-instance" xsi:schemaLocation="http://www.topografix.com/GPX/1/1 http://www.topografix.com/GPX/1/1/gpx.xsd" version="1.1" creator="VisuGPX - https://www.visugpx.com">
  <metadata>
    <name>Sortie vélo le matin</name>
  </metadata>
  <trk>
    <name><![CDATA[Sortie vélo le matin_1]]></name>
    <trkseg>
      <trkpt lat="50.45182" lon="4.84383">
        <ele>184</ele>
        <time>2025-04-05T06:07:56Z</time>
      </trkpt>
      <trkpt lat="50.45182" lon="4.84383">
        <ele>184</ele>
        <time>2025-04-05T06:07:57Z</time>
      </trkpt>
      <trkpt lat="50.45182" lon="4.84383">
        <ele>184</ele>
        <time>2025-04-05T06:07:58Z</time>
      </trkpt>
      <trkpt lat="50.45182" lon="4.84383">
        <ele>184</ele>
        <time>2025-04-05T06:07:59Z</time>
      </trkpt>
      <trkpt lat="50.45182" lon="4.84383">
        <ele>184</ele>
        <time>2025-04-05T06:08:00Z</time>
      </trkpt>
      <trkpt lat="50.45182" lon="4.84383">
        <ele>184</ele>
        <time>2025-04-05T06:08:01Z</time>
      </trkpt>
      <trkpt lat="50.45182" lon="4.84383">
        <ele>184</ele>
        <time>2025-04-05T06:08:02Z</time>
      </trkpt>
      <trkpt lat="50.45182" lon="4.84383">
        <ele>184</ele>
        <time>2025-04-05T06:08:03Z</time>
      </trkpt>
      <trkpt lat="50.45182" lon="4.84383">
        <ele>184</ele>
        <time>2025-04-05T06:08:04Z</time>
      </trkpt>
      <trkpt lat="50.45182" lon="4.84383">
        <ele>184</ele>
        <time>2025-04-05T06:08:05Z</time>
      </trkpt>
      <trkpt lat="50.45182" lon="4.84383">
        <ele>184</ele>
        <time>2025-04-05T06:08:06Z</time>
      </trkpt>
      <trkpt lat="50.45182" lon="4.84383">
        <ele>184</ele>
        <time>2025-04-05T06:08:07Z</time>
      </trkpt>
      <trkpt lat="50.45182" lon="4.84382">
        <ele>184</ele>
        <time>2025-04-05T06:08:08Z</time>
      </trkpt>
      <trkpt lat="50.45182" lon="4.84382">
        <ele>184</ele>
        <time>2025-04-05T06:08:09Z</time>
      </trkpt>
      <trkpt lat="50.45182" lon="4.84382">
        <ele>184</ele>
        <time>2025-04-05T06:08:10Z</time>
      </trkpt>
      <trkpt lat="50.45182" lon="4.84382">
        <ele>184</ele>
        <time>2025-04-05T06:08:11Z</time>
      </trkpt>
      <trkpt lat="50.45182" lon="4.84382">
        <ele>184</ele>
        <time>2025-04-05T06:08:12Z</time>
      </trkpt>
      <trkpt lat="50.45182" lon="4.84382">
        <ele>184</ele>
        <time>2025-04-05T06:08:13Z</time>
      </trkpt>
      <trkpt lat="50.45182" lon="4.84382">
        <ele>183.8</ele>
        <time>2025-04-05T06:08:14Z</time>
      </trkpt>
      <trkpt lat="50.45182" lon="4.84382">
        <ele>183.8</ele>
        <time>2025-04-05T06:08:15Z</time>
      </trkpt>
      <trkpt lat="50.45184" lon="4.84382">
        <ele>183.8</ele>
        <time>2025-04-05T06:08:16Z</time>
      </trkpt>
      <trkpt lat="50.45186" lon="4.84383">
        <ele>183.8</ele>
        <time>2025-04-05T06:08:17Z</time>
      </trkpt>
      <trkpt lat="50.45188" lon="4.84383">
        <ele>183.8</ele>
        <time>2025-04-05T06:08:18Z</time>
      </trkpt>
      <trkpt lat="50.4519" lon="4.84384">
        <ele>183.8</ele>
        <time>2025-04-05T06:08:19Z</time>
      </trkpt>
      <trkpt lat="50.45192" lon="4.84385">
        <ele>183.8</ele>
        <time>2025-04-05T06:08:20Z</time>
      </trkpt>
      <trkpt lat="50.45194" lon="4.84386">
        <ele>183.8</ele>
        <time>2025-04-05T06:08:21Z</time>
      </trkpt>
      <trkpt lat="50.45195" lon="4.84387">
        <ele>183.8</ele>
        <time>2025-04-05T06:08:22Z</time>
      </trkpt>
      <trkpt lat="50.45197" lon="4.84387">
        <ele>183.8</ele>
        <time>2025-04-05T06:08:23Z</time>
      </trkpt>
      <trkpt lat="50.45199" lon="4.84387">
        <ele>183.8</ele>
        <time>2025-04-05T06:08:24Z</time>
      </trkpt>
      <trkpt lat="50.45201" lon="4.84387">
        <ele>183.6</ele>
        <time>2025-04-05T06:08:25Z</time>
      </trkpt>
      <trkpt lat="50.45203" lon="4.84388">
        <ele>183.6</ele>
        <time>2025-04-05T06:08:26Z</time>
      </trkpt>
      <trkpt lat="50.45205" lon="4.84388">
        <ele>183.4</ele>
        <time>2025-04-05T06:08:27Z</time>
      </trkpt>
      <trkpt lat="50.45207" lon="4.84389">
        <ele>183.2</ele>
        <time>2025-04-05T06:08:28Z</time>
      </trkpt>
      <trkpt lat="50.45208" lon="4.84388">
        <ele>183</ele>
        <time>2025-04-05T06:08:29Z</time>
      </trkpt>
      <trkpt lat="50.4521" lon="4.84388">
        <ele>182.8</ele>
        <time>2025-04-05T06:08:30Z</time>
      </trkpt>
      <trkpt lat="50.45213" lon="4.84389">
        <ele>182.4</ele>
        <time>2025-04-05T06:08:31Z</time>
      </trkpt>
      <trkpt lat="50.45216" lon="4.84388">
        <ele>182.2</ele>
        <time>2025-04-05T06:08:32Z</time>
      </trkpt>
      <trkpt lat="50.4522" lon="4.84388">
        <ele>181.8</ele>
        <time>2025-04-05T06:08:33Z</time>
      </trkpt>
      <trkpt lat="50.45223" lon="4.8439">
        <ele>181.4</ele>
        <time>2025-04-05T06:08:34Z</time>
      </trkpt>
      <trkpt lat="50.45227" lon="4.84391">
        <ele>181</ele>
        <time>2025-04-05T06:08:35Z</time>
      </trkpt>
      <trkpt lat="50.45231" lon="4.84394">
        <ele>180.8</ele>
        <time>2025-04-05T06:08:36Z</time>
      </trkpt>
      <trkpt lat="50.45235" lon="4.84397">
        <ele>180.4</ele>
        <time>2025-04-05T06:08:37Z</time>
      </trkpt>
      <trkpt lat="50.45239" lon="4.84399">
        <ele>180</ele>
        <time>2025-04-05T06:08:38Z</time>
      </trkpt>
      <trkpt lat="50.45242" lon="4.84401">
        <ele>179.6</ele>
        <time>2025-04-05T06:08:39Z</time>
      </trkpt>
      <trkpt lat="50.45246" lon="4.84402">
        <ele>179.4</ele>
        <time>2025-04-05T06:08:40Z</time>
      </trkpt>
      <trkpt lat="50.4525" lon="4.84403">
        <ele>179</ele>
        <time>2025-04-05T06:08:41Z</time>
      </trkpt>
      <trkpt lat="50.45253" lon="4.84404">
        <ele>178.6</ele>
        <time>2025-04-05T06:08:42Z</time>
      </trkpt>
      <trkpt lat="50.45257" lon="4.84405">
        <ele>178.4</ele>
        <time>2025-04-05T06:08:43Z</time>
      </trkpt>
      <trkpt lat="50.45261" lon="4.84406">
        <ele>178.2</ele>
        <time>2025-04-05T06:08:44Z</time>
      </trkpt>
      <trkpt lat="50.45264" lon="4.84407">
        <ele>177.8</ele>
        <time>2025-04-05T06:08:45Z</time>
      </trkpt>
      <trkpt lat="50.45267" lon="4.84408">
        <ele>177.6</ele>
        <time>2025-04-05T06:08:46Z</time>
      </trkpt>
      <trkpt lat="50.45269" lon="4.84409">
        <ele>177.4</ele>
        <time>2025-04-05T06:08:47Z</time>
      </trkpt>
      <trkpt lat="50.45271" lon="4.84409">
        <ele>177.2</ele>
        <time>2025-04-05T06:08:48Z</time>
      </trkpt>
      <trkpt lat="50.45272" lon="4.8441">
        <ele>177</ele>
        <time>2025-04-05T06:08:49Z</time>
      </trkpt>
      <trkpt lat="50.45274" lon="4.84411">
        <ele>177</ele>
        <time>2025-04-05T06:08:50Z</time>
      </trkpt>
      <trkpt lat="50.45275" lon="4.84413">
        <ele>176.8</ele>
        <time>2025-04-05T06:08:51Z</time>
      </trkpt>
      <trkpt lat="50.45276" lon="4.84416">
        <ele>176.6</ele>
        <time>2025-04-05T06:08:52Z</time>
      </trkpt>
      <trkpt lat="50.45277" lon="4.84419">
        <ele>176.6</ele>
        <time>2025-04-05T06:08:53Z</time>
      </trkpt>
      <trkpt lat="50.45277" lon="4.84422">
        <ele>176.6</ele>
        <time>2025-04-05T06:08:54Z</time>
      </trkpt>
      <trkpt lat="50.45276" lon="4.84425">
        <ele>176.6</ele>
        <time>2025-04-05T06:08:55Z</time>
      </trkpt>
      <trkpt lat="50.45275" lon="4.84428">
        <ele>176.8</ele>
        <time>2025-04-05T06:08:56Z</time>
      </trkpt>
      <trkpt lat="50.45274" lon="4.8443">
        <ele>177</ele>
        <time>2025-04-05T06:08:57Z</time>
      </trkpt>
      <trkpt lat="50.45273" lon="4.84433">
        <ele>177</ele>
        <time>2025-04-05T06:08:58Z</time>
      </trkpt>
      <trkpt lat="50.45272" lon="4.84437">
        <ele>177.2</ele>
        <time>2025-04-05T06:08:59Z</time>
      </trkpt>
      <trkpt lat="50.45271" lon="4.8444">
        <ele>177.4</ele>
        <time>2025-04-05T06:09:00Z</time>
      </trkpt>
      <trkpt lat="50.45271" lon="4.84442">
        <ele>177.6</ele>
        <time>2025-04-05T06:09:01Z</time>
      </trkpt>
      <trkpt lat="50.4527" lon="4.84445">
        <ele>177.8</ele>
        <time>2025-04-05T06:09:02Z</time>
      </trkpt>
      <trkpt lat="50.45269" lon="4.84448">
        <ele>178</ele>
        <time>2025-04-05T06:09:03Z</time>
      </trkpt>
      <trkpt lat="50.45269" lon="4.84452">
        <ele>178.2</ele>
        <time>2025-04-05T06:09:04Z</time>
      </trkpt>
      <trkpt lat="50.45268" lon="4.84456">
        <ele>178.4</ele>
        <time>2025-04-05T06:09:05Z</time>
      </trkpt>
      <trkpt lat="50.45267" lon="4.84461">
        <ele>178.6</ele>
        <time>2025-04-05T06:09:06Z</time>
      </trkpt>
      <trkpt lat="50.45267" lon="4.84465">
        <ele>178.8</ele>
        <time>2025-04-05T06:09:07Z</time>
      </trkpt>
      <trkpt lat="50.45266" lon="4.84469">
        <ele>179</ele>
        <time>2025-04-05T06:09:08Z</time>
      </trkpt>
      <trkpt lat="50.45266" lon="4.84473">
        <ele>179.2</ele>
        <time>2025-04-05T06:09:09Z</time>
      </trkpt>
      <trkpt lat="50.45265" lon="4.84477">
        <ele>179.4</ele>
        <time>2025-04-05T06:09:10Z</time>
      </trkpt>
      <trkpt lat="50.45264" lon="4.84481">
        <ele>179.6</ele>
        <time>2025-04-05T06:09:11Z</time>
      </trkpt>
      <trkpt lat="50.45264" lon="4.84485">
        <ele>179.8</ele>
        <time>2025-04-05T06:09:12Z</time>
      </trkpt>
      <trkpt lat="50.45263" lon="4.84488">
        <ele>180.2</ele>
        <time>2025-04-05T06:09:13Z</time>
      </trkpt>
      <trkpt lat="50.45262" lon="4.84492">
        <ele>180.4</ele>
        <time>2025-04-05T06:09:14Z</time>
      </trkpt>
      <trkpt lat="50.4526" lon="4.84496">
        <ele>180.6</ele>
        <time>2025-04-05T06:09:15Z</time>
      </trkpt>
      <trkpt lat="50.45259" lon="4.84499">
        <ele>180.8</ele>
        <time>2025-04-05T06:09:16Z</time>
      </trkpt>
      <trkpt lat="50.45258" lon="4.84503">
        <ele>181.2</ele>
        <time>2025-04-05T06:09:17Z</time>
      </trkpt>
      <trkpt lat="50.45257" lon="4.84507">
        <ele>181.4</ele>
        <time>2025-04-05T06:09:18Z</time>
      </trkpt>
      <trkpt lat="50.45256" lon="4.84511">
        <ele>181.6</ele>
        <time>2025-04-05T06:09:19Z</time>
      </trkpt>
      <trkpt lat="50.45255" lon="4.84515">
        <ele>182</ele>
        <time>2025-04-05T06:09:20Z</time>
      </trkpt>
      <trkpt lat="50.45255" lon="4.84519">
        <ele>182.2</ele>
        <time>2025-04-05T06:09:21Z</time>
      </trkpt>
      <trkpt lat="50.45254" lon="4.84523">
        <ele>182.4</ele>
        <time>2025-04-05T06:09:22Z</time>
      </trkpt>
      <trkpt lat="50.45253" lon="4.84527">
        <ele>182.8</ele>
        <time>2025-04-05T06:09:23Z</time>
      </trkpt>
      <trkpt lat="50.45253" lon="4.8453">
        <ele>183</ele>
        <time>2025-04-05T06:09:24Z</time>
      </trkpt>
      <trkpt lat="50.45252" lon="4.84533">
        <ele>183.2</ele>
        <time>2025-04-05T06:09:25Z</time>
      </trkpt>
      <trkpt lat="50.45252" lon="4.84535">
        <ele>183.6</ele>
        <time>2025-04-05T06:09:26Z</time>
      </trkpt>
      <trkpt lat="50.45252" lon="4.84537">
        <ele>183.8</ele>
        <time>2025-04-05T06:09:27Z</time>
      </trkpt>
      <trkpt lat="50.45252" lon="4.8454">
        <ele>184</ele>
        <time>2025-04-05T06:09:28Z</time>
      </trkpt>
      <trkpt lat="50.45251" lon="4.84543">
        <ele>184.2</ele>
        <time>2025-04-05T06:09:29Z</time>
      </trkpt>
      <trkpt lat="50.4525" lon="4.84546">
        <ele>184.4</ele>
        <time>2025-04-05T06:09:30Z</time>
      </trkpt>
      <trkpt lat="50.45249" lon="4.84549">
        <ele>184.6</ele>
        <time>2025-04-05T06:09:31Z</time>
      </trkpt>
      <trkpt lat="50.45247" lon="4.84552">
        <ele>184.8</ele>
        <time>2025-04-05T06:09:32Z</time>
      </trkpt>
      <trkpt lat="50.45245" lon="4.84556">
        <ele>185</ele>
        <time>2025-04-05T06:09:33Z</time>
      </trkpt>
      <trkpt lat="50.45243" lon="4.84559">
        <ele>185.2</ele>
        <time>2025-04-05T06:09:34Z</time>
      </trkpt>
      <trkpt lat="50.45241" lon="4.84562">
        <ele>185.4</ele>
        <time>2025-04-05T06:09:35Z</time>
      </trkpt>
      <trkpt lat="50.45238" lon="4.84566">
        <ele>185.6</ele>
        <time>2025-04-05T06:09:36Z</time>
      </trkpt>
      <trkpt lat="50.45236" lon="4.84569">
        <ele>185.8</ele>
        <time>2025-04-05T06:09:37Z</time>
      </trkpt>
      <trkpt lat="50.45233" lon="4.84572">
        <ele>186</ele>
        <time>2025-04-05T06:09:38Z</time>
      </trkpt>
      <trkpt lat="50.45231" lon="4.84575">
        <ele>186.2</ele>
        <time>2025-04-05T06:09:39Z</time>
      </trkpt>
      <trkpt lat="50.45228" lon="4.84578">
        <ele>186.4</ele>
        <time>2025-04-05T06:09:40Z</time>
      </trkpt>
      <trkpt lat="50.45225" lon="4.84581">
        <ele>186.8</ele>
        <time>2025-04-05T06:09:41Z</time>
      </trkpt>
      <trkpt lat="50.45223" lon="4.84584">
        <ele>187</ele>
        <time>2025-04-05T06:09:42Z</time>
      </trkpt>
      <trkpt lat="50.45221" lon="4.84587">
        <ele>187.2</ele>
        <time>2025-04-05T06:09:43Z</time>
      </trkpt>
      <trkpt lat="50.45218" lon="4.8459">
        <ele>187.4</ele>
        <time>2025-04-05T06:09:44Z</time>
      </trkpt>
      <trkpt lat="50.45215" lon="4.84593">
        <ele>187.6</ele>
        <time>2025-04-05T06:09:45Z</time>
      </trkpt>
      <trkpt lat="50.45213" lon="4.84596">
        <ele>187.8</ele>
        <time>2025-04-05T06:09:46Z</time>
      </trkpt>
      <trkpt lat="50.4521" lon="4.84599">
        <ele>188</ele>
        <time>2025-04-05T06:09:47Z</time>
      </trkpt>
      <trkpt lat="50.45207" lon="4.84602">
        <ele>188.2</ele>
        <time>2025-04-05T06:09:48Z</time>
      </trkpt>
      <trkpt lat="50.45205" lon="4.84605">
        <ele>188.6</ele>
        <time>2025-04-05T06:09:49Z</time>
      </trkpt>
      <trkpt lat="50.45202" lon="4.84608">
        <ele>188.8</ele>
        <time>2025-04-05T06:09:50Z</time>
      </trkpt>
      <trkpt lat="50.452" lon="4.84611">
        <ele>189</ele>
        <time>2025-04-05T06:09:51Z</time>
      </trkpt>
      <trkpt lat="50.45198" lon="4.84613">
        <ele>189.2</ele>
        <time>2025-04-05T06:09:52Z</time>
      </trkpt>
      <trkpt lat="50.45195" lon="4.84616">
        <ele>189.4</ele>
        <time>2025-04-05T06:09:53Z</time>
      </trkpt>
      <trkpt lat="50.45193" lon="4.84619">
        <ele>189.6</ele>
        <time>2025-04-05T06:09:54Z</time>
      </trkpt>
      <trkpt lat="50.4519" lon="4.84622">
        <ele>190</ele>
        <time>2025-04-05T06:09:55Z</time>
      </trkpt>
      <trkpt lat="50.45188" lon="4.84625">
        <ele>190.2</ele>
        <time>2025-04-05T06:09:56Z</time>
      </trkpt>
      <trkpt lat="50.45186" lon="4.84628">
        <ele>190.4</ele>
        <time>2025-04-05T06:09:57Z</time>
      </trkpt>
      <trkpt lat="50.45184" lon="4.8463">
        <ele>190.6</ele>
        <time>2025-04-05T06:09:58Z</time>
      </trkpt>
      <trkpt lat="50.45182" lon="4.84632">
        <ele>190.8</ele>
        <time>2025-04-05T06:09:59Z</time>
      </trkpt>
      <trkpt lat="50.4518" lon="4.84636">
        <ele>191</ele>
        <time>2025-04-05T06:10:00Z</time>
      </trkpt>
      <trkpt lat="50.45178" lon="4.84639">
        <ele>191.2</ele>
        <time>2025-04-05T06:10:01Z</time>
      </trkpt>
      <trkpt lat="50.45177" lon="4.84642">
        <ele>191.4</ele>
        <time>2025-04-05T06:10:02Z</time>
      </trkpt>
      <trkpt lat="50.45175" lon="4.84646">
        <ele>191.8</ele>
        <time>2025-04-05T06:10:03Z</time>
      </trkpt>
      <trkpt lat="50.45174" lon="4.84649">
        <ele>192</ele>
        <time>2025-04-05T06:10:04Z</time>
      </trkpt>
      <trkpt lat="50.45172" lon="4.84653">
        <ele>192.2</ele>
        <time>2025-04-05T06:10:05Z</time>
      </trkpt>
      <trkpt lat="50.45171" lon="4.84657">
        <ele>192.4</ele>
        <time>2025-04-05T06:10:06Z</time>
      </trkpt>
      <trkpt lat="50.45169" lon="4.84661">
        <ele>192.6</ele>
        <time>2025-04-05T06:10:07Z</time>
      </trkpt>
      <trkpt lat="50.45167" lon="4.84665">
        <ele>192.8</ele>
        <time>2025-04-05T06:10:08Z</time>
      </trkpt>
      <trkpt lat="50.45166" lon="4.84669">
        <ele>192.8</ele>
        <time>2025-04-05T06:10:09Z</time>
      </trkpt>
      <trkpt lat="50.45166" lon="4.84674">
        <ele>193</ele>
        <time>2025-04-05T06:10:10Z</time>
      </trkpt>
      <trkpt lat="50.45165" lon="4.84679">
        <ele>193.2</ele>
        <time>2025-04-05T06:10:11Z</time>
      </trkpt>
      <trkpt lat="50.45163" lon="4.84683">
        <ele>193.4</ele>
        <time>2025-04-05T06:10:12Z</time>
      </trkpt>
      <trkpt lat="50.45162" lon="4.84688">
        <ele>193.6</ele>
        <time>2025-04-05T06:10:13Z</time>
      </trkpt>
      <trkpt lat="50.45161" lon="4.84693">
        <ele>193.8</ele>
        <time>2025-04-05T06:10:14Z</time>
      </trkpt>
      <trkpt lat="50.4516" lon="4.84698">
        <ele>194</ele>
        <time>2025-04-05T06:10:15Z</time>
      </trkpt>
      <trkpt lat="50.45158" lon="4.84703">
        <ele>194.2</ele>
        <time>2025-04-05T06:10:16Z</time>
      </trkpt>
      <trkpt lat="50.45157" lon="4.84708">
        <ele>194.4</ele>
        <time>2025-04-05T06:10:17Z</time>
      </trkpt>
      <trkpt lat="50.45156" lon="4.84713">
        <ele>194.6</ele>
        <time>2025-04-05T06:10:18Z</time>
      </trkpt>
      <trkpt lat="50.45156" lon="4.84718">
        <ele>194.8</ele>
        <time>2025-04-05T06:10:19Z</time>
      </trkpt>
      <trkpt lat="50.45155" lon="4.84724">
        <ele>195</ele>
        <time>2025-04-05T06:10:20Z</time>
      </trkpt>
      <trkpt lat="50.45154" lon="4.84729">
        <ele>195.2</ele>
        <time>2025-04-05T06:10:21Z</time>
      </trkpt>
      <trkpt lat="50.45153" lon="4.84734">
        <ele>195.2</ele>
        <time>2025-04-05T06:10:22Z</time>
      </trkpt>
      <trkpt lat="50.45153" lon="4.84738">
        <ele>195.4</ele>
        <time>2025-04-05T06:10:23Z</time>
      </trkpt>
      <trkpt lat="50.45153" lon="4.84743">
        <ele>195.6</ele>
        <time>2025-04-05T06:10:24Z</time>
      </trkpt>
      <trkpt lat="50.45152" lon="4.84748">
        <ele>195.8</ele>
        <time>2025-04-05T06:10:25Z</time>
      </trkpt>
      <trkpt lat="50.45152" lon="4.84753">
        <ele>196</ele>
        <time>2025-04-05T06:10:26Z</time>
      </trkpt>
      <trkpt lat="50.45151" lon="4.84758">
        <ele>196.2</ele>
        <time>2025-04-05T06:10:27Z</time>
      </trkpt>
      <trkpt lat="50.4515" lon="4.84762">
        <ele>196.2</ele>
        <time>2025-04-05T06:10:28Z</time>
      </trkpt>
      <trkpt lat="50.45149" lon="4.84766">
        <ele>196.4</ele>
        <time>2025-04-05T06:10:29Z</time>
      </trkpt>
      <trkpt lat="50.45147" lon="4.84769">
        <ele>196.6</ele>
        <time>2025-04-05T06:10:30Z</time>
      </trkpt>
      <trkpt lat="50.45144" lon="4.84771">
        <ele>196.8</ele>
        <time>2025-04-05T06:10:31Z</time>
      </trkpt>
      <trkpt lat="50.45141" lon="4.84771">
        <ele>196.8</ele>
        <time>2025-04-05T06:10:32Z</time>
      </trkpt>
      <trkpt lat="50.45138" lon="4.84771">
        <ele>196.8</ele>
        <time>2025-04-05T06:10:33Z</time>
      </trkpt>
      <trkpt lat="50.45134" lon="4.8477">
        <ele>196.8</ele>
        <time>2025-04-05T06:10:34Z</time>
      </trkpt>
      <trkpt lat="50.45131" lon="4.84769">
        <ele>196.8</ele>
        <time>2025-04-05T06:10:35Z</time>
      </trkpt>
      <trkpt lat="50.45128" lon="4.84768">
        <ele>196.8</ele>
        <time>2025-04-05T06:10:36Z</time>
      </trkpt>
      <trkpt lat="50.45124" lon="4.84768">
        <ele>196.8</ele>
        <time>2025-04-05T06:10:37Z</time>
      </trkpt>
      <trkpt lat="50.45121" lon="4.84767">
        <ele>196.8</ele>
        <time>2025-04-05T06:10:38Z</time>
      </trkpt>
      <trkpt lat="50.45118" lon="4.84766">
        <ele>196.6</ele>
        <time>2025-04-05T06:10:39Z</time>
      </trkpt>
      <trkpt lat="50.45114" lon="4.84765">
        <ele>196.6</ele>
        <time>2025-04-05T06:10:40Z</time>
      </trkpt>
      <trkpt lat="50.45111" lon="4.84764">
        <ele>196.4</ele>
        <time>2025-04-05T06:10:41Z</time>
      </trkpt>
      <trkpt lat="50.45107" lon="4.84762">
        <ele>196.2</ele>
        <time>2025-04-05T06:10:42Z</time>
      </trkpt>
      <trkpt lat="50.45103" lon="4.84761">
        <ele>196.2</ele>
        <time>2025-04-05T06:10:43Z</time>
      </trkpt>
      <trkpt lat="50.45099" lon="4.8476">
        <ele>196</ele>
        <time>2025-04-05T06:10:44Z</time>
      </trkpt>
      <trkpt lat="50.45095" lon="4.84759">
        <ele>195.8</ele>
        <time>2025-04-05T06:10:45Z</time>
      </trkpt>
      <trkpt lat="50.45092" lon="4.84757">
        <ele>195.6</ele>
        <time>2025-04-05T06:10:46Z</time>
      </trkpt>
      <trkpt lat="50.45087" lon="4.84756">
        <ele>195.4</ele>
        <time>2025-04-05T06:10:47Z</time>
      </trkpt>
      <trkpt lat="50.45084" lon="4.84754">
        <ele>195.2</ele>
        <time>2025-04-05T06:10:48Z</time>
      </trkpt>
      <trkpt lat="50.45079" lon="4.84752">
        <ele>195</ele>
        <time>2025-04-05T06:10:49Z</time>
      </trkpt>
      <trkpt lat="50.45076" lon="4.84751">
        <ele>194.8</ele>
        <time>2025-04-05T06:10:50Z</time>
      </trkpt>
      <trkpt lat="50.45073" lon="4.84749">
        <ele>194.6</ele>
        <time>2025-04-05T06:10:51Z</time>
      </trkpt>
      <trkpt lat="50.4507" lon="4.84748">
        <ele>194.4</ele>
        <time>2025-04-05T06:10:52Z</time>
      </trkpt>
      <trkpt lat="50.45068" lon="4.84746">
        <ele>194.2</ele>
        <time>2025-04-05T06:10:53Z</time>
      </trkpt>
      <trkpt lat="50.45065" lon="4.84744">
        <ele>194</ele>
        <time>2025-04-05T06:10:54Z</time>
      </trkpt>
      <trkpt lat="50.45064" lon="4.84743">
        <ele>193.8</ele>
        <time>2025-04-05T06:10:55Z</time>
      </trkpt>
      <trkpt lat="50.45063" lon="4.84741">
        <ele>193.6</ele>
        <time>2025-04-05T06:10:56Z</time>
      </trkpt>
      <trkpt lat="50.45061" lon="4.8474">
        <ele>193.6</ele>
        <time>2025-04-05T06:10:57Z</time>
      </trkpt>
      <trkpt lat="50.45059" lon="4.84739">
        <ele>193.4</ele>
        <time>2025-04-05T06:10:58Z</time>
      </trkpt>
      <trkpt lat="50.45055" lon="4.84739">
        <ele>193.2</ele>
        <time>2025-04-05T06:10:59Z</time>
      </trkpt>
      <trkpt lat="50.45052" lon="4.8474">
        <ele>193</ele>
        <time>2025-04-05T06:11:00Z</time>
      </trkpt>
      <trkpt lat="50.45048" lon="4.84742">
        <ele>193</ele>
        <time>2025-04-05T06:11:01Z</time>
      </trkpt>
      <trkpt lat="50.45044" lon="4.84745">
        <ele>193</ele>
        <time>2025-04-05T06:11:02Z</time>
      </trkpt>
      <trkpt lat="50.4504" lon="4.84749">
        <ele>192.8</ele>
        <time>2025-04-05T06:11:03Z</time>
      </trkpt>
      <trkpt lat="50.45036" lon="4.84753">
        <ele>192.8</ele>
        <time>2025-04-05T06:11:04Z</time>
      </trkpt>
      <trkpt lat="50.45033" lon="4.84758">
        <ele>192.8</ele>
        <time>2025-04-05T06:11:05Z</time>
      </trkpt>
      <trkpt lat="50.45029" lon="4.84763">
        <ele>192.8</ele>
        <time>2025-04-05T06:11:06Z</time>
      </trkpt>
      <trkpt lat="50.45025" lon="4.84769">
        <ele>192.8</ele>
        <time>2025-04-05T06:11:07Z</time>
      </trkpt>
      <trkpt lat="50.45022" lon="4.84775">
        <ele>192.6</ele>
        <time>2025-04-05T06:11:08Z</time>
      </trkpt>
      <trkpt lat="50.45018" lon="4.84782">
        <ele>192.6</ele>
        <time>2025-04-05T06:11:09Z</time>
      </trkpt>
      <trkpt lat="50.45015" lon="4.84789">
        <ele>192.6</ele>
        <time>2025-04-05T06:11:10Z</time>
      </trkpt>
      <trkpt lat="50.4501" lon="4.84795">
        <ele>192.4</ele>
        <time>2025-04-05T06:11:11Z</time>
      </trkpt>
      <trkpt lat="50.45006" lon="4.84802">
        <ele>192.4</ele>
        <time>2025-04-05T06:11:12Z</time>
      </trkpt>
      <trkpt lat="50.45002" lon="4.84809">
        <ele>192.4</ele>
        <time>2025-04-05T06:11:13Z</time>
      </trkpt>
      <trkpt lat="50.44998" lon="4.84816">
        <ele>192.2</ele>
        <time>2025-04-05T06:11:14Z</time>
      </trkpt>
      <trkpt lat="50.44994" lon="4.84822">
        <ele>192.2</ele>
        <time>2025-04-05T06:11:15Z</time>
      </trkpt>
      <trkpt lat="50.4499" lon="4.84828">
        <ele>192.2</ele>
        <time>2025-04-05T06:11:16Z</time>
      </trkpt>
      <trkpt lat="50.44986" lon="4.84834">
        <ele>192.2</ele>
        <time>2025-04-05T06:11:17Z</time>
      </trkpt>
      <trkpt lat="50.44982" lon="4.84841">
        <ele>192.2</ele>
        <time>2025-04-05T06:11:18Z</time>
      </trkpt>
      <trkpt lat="50.44978" lon="4.84847">
        <ele>192</ele>
        <time>2025-04-05T06:11:19Z</time>
      </trkpt>
      <trkpt lat="50.44974" lon="4.84854">
        <ele>192</ele>
        <time>2025-04-05T06:11:20Z</time>
      </trkpt>
      <trkpt lat="50.44971" lon="4.8486">
        <ele>192</ele>
        <time>2025-04-05T06:11:21Z</time>
      </trkpt>
      <trkpt lat="50.44968" lon="4.84867">
        <ele>192</ele>
        <time>2025-04-05T06:11:22Z</time>
      </trkpt>
      <trkpt lat="50.44964" lon="4.84873">
        <ele>192</ele>
        <time>2025-04-05T06:11:23Z</time>
      </trkpt>
      <trkpt lat="50.4496" lon="4.8488">
        <ele>191.8</ele>
        <time>2025-04-05T06:11:24Z</time>
      </trkpt>
      <trkpt lat="50.44956" lon="4.84886">
        <ele>191.8</ele>
        <time>2025-04-05T06:11:25Z</time>
      </trkpt>
      <trkpt lat="50.44953" lon="4.84892">
        <ele>192</ele>
        <time>2025-04-05T06:11:26Z</time>
      </trkpt>
      <trkpt lat="50.44949" lon="4.84899">
        <ele>192</ele>
        <time>2025-04-05T06:11:27Z</time>
      </trkpt>
      <trkpt lat="50.44946" lon="4.84905">
        <ele>192</ele>
        <time>2025-04-05T06:11:28Z</time>
      </trkpt>
      <trkpt lat="50.44942" lon="4.84911">
        <ele>192</ele>
        <time>2025-04-05T06:11:29Z</time>
      </trkpt>
      <trkpt lat="50.44939" lon="4.84918">
        <ele>192</ele>
        <time>2025-04-05T06:11:30Z</time>
      </trkpt>
      <trkpt lat="50.44935" lon="4.84925">
        <ele>192</ele>
        <time>2025-04-05T06:11:31Z</time>
      </trkpt>
      <trkpt lat="50.44931" lon="4.84931">
        <ele>192</ele>
        <time>2025-04-05T06:11:32Z</time>
      </trkpt>
      <trkpt lat="50.44928" lon="4.84936">
        <ele>192.2</ele>
        <time>2025-04-05T06:11:33Z</time>
      </trkpt>
      <trkpt lat="50.44925" lon="4.84942">
        <ele>192.2</ele>
        <time>2025-04-05T06:11:34Z</time>
      </trkpt>
      <trkpt lat="50.44922" lon="4.84948">
        <ele>192.2</ele>
        <time>2025-04-05T06:11:35Z</time>
      </trkpt>
      <trkpt lat="50.44919" lon="4.84953">
        <ele>192.2</ele>
        <time>2025-04-05T06:11:36Z</time>
      </trkpt>
      <trkpt lat="50.44915" lon="4.84959">
        <ele>192.2</ele>
        <time>2025-04-05T06:11:37Z</time>
      </trkpt>
      <trkpt lat="50.4491" lon="4.84966">
        <ele>192.2</ele>
        <time>2025-04-05T06:11:38Z</time>
      </trkpt>
      <trkpt lat="50.44906" lon="4.84973">
        <ele>192.2</ele>
        <time>2025-04-05T06:11:39Z</time>
      </trkpt>
      <trkpt lat="50.44902" lon="4.84978">
        <ele>192</ele>
        <time>2025-04-05T06:11:40Z</time>
      </trkpt>
      <trkpt lat="50.44898" lon="4.84983">
        <ele>192</ele>
        <time>2025-04-05T06:11:41Z</time>
      </trkpt>
      <trkpt lat="50.44893" lon="4.84987">
        <ele>192</ele>
        <time>2025-04-05T06:11:42Z</time>
      </trkpt>
      <trkpt lat="50.44888" lon="4.84991">
        <ele>192</ele>
        <time>2025-04-05T06:11:43Z</time>
      </trkpt>
      <trkpt lat="50.44883" lon="4.84995">
        <ele>192</ele>
        <time>2025-04-05T06:11:44Z</time>
      </trkpt>
      <trkpt lat="50.44878" lon="4.84997">
        <ele>192</ele>
        <time>2025-04-05T06:11:45Z</time>
      </trkpt>
      <trkpt lat="50.44872" lon="4.84999">
        <ele>192</ele>
        <time>2025-04-05T06:11:46Z</time>
      </trkpt>
      <trkpt lat="50.44866" lon="4.85">
        <ele>192</ele>
        <time>2025-04-05T06:11:47Z</time>
      </trkpt>
      <trkpt lat="50.44861" lon="4.85001">
        <ele>192</ele>
        <time>2025-04-05T06:11:48Z</time>
      </trkpt>
      <trkpt lat="50.44854" lon="4.85001">
        <ele>191.8</ele>
        <time>2025-04-05T06:11:49Z</time>
      </trkpt>
      <trkpt lat="50.44849" lon="4.85">
        <ele>191.8</ele>
        <time>2025-04-05T06:11:50Z</time>
      </trkpt>
      <trkpt lat="50.44843" lon="4.84999">
        <ele>191.8</ele>
        <time>2025-04-05T06:11:51Z</time>
      </trkpt>
      <trkpt lat="50.44837" lon="4.84998">
        <ele>191.8</ele>
        <time>2025-04-05T06:11:52Z</time>
      </trkpt>
      <trkpt lat="50.44831" lon="4.84997">
        <ele>192</ele>
        <time>2025-04-05T06:11:53Z</time>
      </trkpt>
      <trkpt lat="50.44826" lon="4.84996">
        <ele>192</ele>
        <time>2025-04-05T06:11:54Z</time>
      </trkpt>
      <trkpt lat="50.44821" lon="4.84994">
        <ele>192.2</ele>
        <time>2025-04-05T06:11:55Z</time>
      </trkpt>
      <trkpt lat="50.44816" lon="4.84993">
        <ele>192.2</ele>
        <time>2025-04-05T06:11:56Z</time>
      </trkpt>
      <trkpt lat="50.44811" lon="4.84991">
        <ele>192.4</ele>
        <time>2025-04-05T06:11:57Z</time>
      </trkpt>
      <trkpt lat="50.44806" lon="4.84989">
        <ele>192.4</ele>
        <time>2025-04-05T06:11:58Z</time>
      </trkpt>
      <trkpt lat="50.44801" lon="4.84987">
        <ele>192.6</ele>
        <time>2025-04-05T06:11:59Z</time>
      </trkpt>
      <trkpt lat="50.44796" lon="4.84985">
        <ele>192.8</ele>
        <time>2025-04-05T06:12:00Z</time>
      </trkpt>
      <trkpt lat="50.44791" lon="4.84983">
        <ele>193</ele>
        <time>2025-04-05T06:12:01Z</time>
      </trkpt>
      <trkpt lat="50.44786" lon="4.84982">
        <ele>193.2</ele>
        <time>2025-04-05T06:12:02Z</time>
      </trkpt>
      <trkpt lat="50.44781" lon="4.8498">
        <ele>193.4</ele>
        <time>2025-04-05T06:12:03Z</time>
      </trkpt>
      <trkpt lat="50.44776" lon="4.84978">
        <ele>193.6</ele>
        <time>2025-04-05T06:12:04Z</time>
      </trkpt>
      <trkpt lat="50.44771" lon="4.84975">
        <ele>193.6</ele>
        <time>2025-04-05T06:12:05Z</time>
      </trkpt>
      <trkpt lat="50.44767" lon="4.84972">
        <ele>193.8</ele>
        <time>2025-04-05T06:12:06Z</time>
      </trkpt>
      <trkpt lat="50.44762" lon="4.84968">
        <ele>194</ele>
        <time>2025-04-05T06:12:07Z</time>
      </trkpt>
      <trkpt lat="50.44758" lon="4.84963">
        <ele>194.2</ele>
        <time>2025-04-05T06:12:08Z</time>
      </trkpt>
      <trkpt lat="50.44753" lon="4.84958">
        <ele>194.4</ele>
        <time>2025-04-05T06:12:09Z</time>
      </trkpt>
      <trkpt lat="50.4475" lon="4.84953">
        <ele>194.6</ele>
        <time>2025-04-05T06:12:10Z</time>
      </trkpt>
      <trkpt lat="50.44745" lon="4.84948">
        <ele>194.8</ele>
        <time>2025-04-05T06:12:11Z</time>
      </trkpt>
      <trkpt lat="50.44741" lon="4.84943">
        <ele>195.2</ele>
        <time>2025-04-05T06:12:12Z</time>
      </trkpt>
      <trkpt lat="50.44738" lon="4.84939">
        <ele>195.4</ele>
        <time>2025-04-05T06:12:13Z</time>
      </trkpt>
      <trkpt lat="50.44736" lon="4.84935">
        <ele>195.6</ele>
        <time>2025-04-05T06:12:14Z</time>
      </trkpt>
      <trkpt lat="50.44733" lon="4.84931">
        <ele>195.8</ele>
        <time>2025-04-05T06:12:15Z</time>
      </trkpt>
      <trkpt lat="50.44731" lon="4.84928">
        <ele>196</ele>
        <time>2025-04-05T06:12:16Z</time>
      </trkpt>
      <trkpt lat="50.44728" lon="4.84923">
        <ele>196.4</ele>
        <time>2025-04-05T06:12:17Z</time>
      </trkpt>
      <trkpt lat="50.44724" lon="4.84917">
        <ele>196.6</ele>
        <time>2025-04-05T06:12:18Z</time>
      </trkpt>
      <trkpt lat="50.4472" lon="4.84913">
        <ele>196.8</ele>
        <time>2025-04-05T06:12:19Z</time>
      </trkpt>
      <trkpt lat="50.44716" lon="4.84907">
        <ele>197</ele>
        <time>2025-04-05T06:12:20Z</time>
      </trkpt>
      <trkpt lat="50.44711" lon="4.84902">
        <ele>197.4</ele>
        <time>2025-04-05T06:12:21Z</time>
      </trkpt>
      <trkpt lat="50.44706" lon="4.84896">
        <ele>197.6</ele>
        <time>2025-04-05T06:12:22Z</time>
      </trkpt>
      <trkpt lat="50.44701" lon="4.84891">
        <ele>197.8</ele>
        <time>2025-04-05T06:12:23Z</time>
      </trkpt>
      <trkpt lat="50.44698" lon="4.84886">
        <ele>198</ele>
        <time>2025-04-05T06:12:24Z</time>
      </trkpt>
      <trkpt lat="50.44694" lon="4.84881">
        <ele>198.2</ele>
        <time>2025-04-05T06:12:25Z</time>
      </trkpt>
      <trkpt lat="50.4469" lon="4.84876">
        <ele>198.6</ele>
        <time>2025-04-05T06:12:26Z</time>
      </trkpt>
      <trkpt lat="50.44686" lon="4.84871">
        <ele>198.8</ele>
        <time>2025-04-05T06:12:27Z</time>
      </trkpt>
      <trkpt lat="50.44682" lon="4.84866">
        <ele>199</ele>
        <time>2025-04-05T06:12:28Z</time>
      </trkpt>
      <trkpt lat="50.44678" lon="4.84859">
        <ele>199.2</ele>
        <time>2025-04-05T06:12:29Z</time>
      </trkpt>
      <trkpt lat="50.44674" lon="4.84853">
        <ele>199.4</ele>
        <time>2025-04-05T06:12:30Z</time>
      </trkpt>
      <trkpt lat="50.44671" lon="4.84847">
        <ele>199.6</ele>
        <time>2025-04-05T06:12:31Z</time>
      </trkpt>
      <trkpt lat="50.44668" lon="4.84841">
        <ele>199.8</ele>
        <time>2025-04-05T06:12:32Z</time>
      </trkpt>
      <trkpt lat="50.44665" lon="4.84836">
        <ele>200</ele>
        <time>2025-04-05T06:12:33Z</time>
      </trkpt>
      <trkpt lat="50.44662" lon="4.8483">
        <ele>200.2</ele>
        <time>2025-04-05T06:12:34Z</time>
      </trkpt>
      <trkpt lat="50.44659" lon="4.84824">
        <ele>200.4</ele>
        <time>2025-04-05T06:12:35Z</time>
      </trkpt>
      <trkpt lat="50.44656" lon="4.84817">
        <ele>200.4</ele>
        <time>2025-04-05T06:12:36Z</time>
      </trkpt>
      <trkpt lat="50.44653" lon="4.8481">
        <ele>200.4</ele>
        <time>2025-04-05T06:12:37Z</time>
      </trkpt>
      <trkpt lat="50.44649" lon="4.84803">
        <ele>200.6</ele>
        <time>2025-04-05T06:12:38Z</time>
      </trkpt>
      <trkpt lat="50.44646" lon="4.84796">
        <ele>200.8</ele>
        <time>2025-04-05T06:12:39Z</time>
      </trkpt>
      <trkpt lat="50.44643" lon="4.84789">
        <ele>200.8</ele>
        <time>2025-04-05T06:12:40Z</time>
      </trkpt>
      <trkpt lat="50.44639" lon="4.84782">
        <ele>200.8</ele>
        <time>2025-04-05T06:12:41Z</time>
      </trkpt>
      <trkpt lat="50.44636" lon="4.84775">
        <ele>201</ele>
        <time>2025-04-05T06:12:42Z</time>
      </trkpt>
      <trkpt lat="50.44634" lon="4.84768">
        <ele>201</ele>
        <time>2025-04-05T06:12:43Z</time>
      </trkpt>
      <trkpt lat="50.44631" lon="4.84761">
        <ele>201</ele>
        <time>2025-04-05T06:12:44Z</time>
      </trkpt>
      <trkpt lat="50.44628" lon="4.84755">
        <ele>201.2</ele>
        <time>2025-04-05T06:12:45Z</time>
      </trkpt>
      <trkpt lat="50.44625" lon="4.84748">
        <ele>201.4</ele>
        <time>2025-04-05T06:12:46Z</time>
      </trkpt>
      <trkpt lat="50.44622" lon="4.84742">
        <ele>201.4</ele>
        <time>2025-04-05T06:12:47Z</time>
      </trkpt>
      <trkpt lat="50.44619" lon="4.84735">
        <ele>201.6</ele>
        <time>2025-04-05T06:12:48Z</time>
      </trkpt>
      <trkpt lat="50.44617" lon="4.84728">
        <ele>201.6</ele>
        <time>2025-04-05T06:12:49Z</time>
      </trkpt>
      <trkpt lat="50.44614" lon="4.84721">
        <ele>201.8</ele>
        <time>2025-04-05T06:12:50Z</time>
      </trkpt>
      <trkpt lat="50.44611" lon="4.84714">
        <ele>202</ele>
        <time>2025-04-05T06:12:51Z</time>
      </trkpt>
      <trkpt lat="50.44607" lon="4.84707">
        <ele>202</ele>
        <time>2025-04-05T06:12:52Z</time>
      </trkpt>
      <trkpt lat="50.44603" lon="4.847">
        <ele>202.2</ele>
        <time>2025-04-05T06:12:53Z</time>
      </trkpt>
      <trkpt lat="50.446" lon="4.84693">
        <ele>202.4</ele>
        <time>2025-04-05T06:12:54Z</time>
      </trkpt>
      <trkpt lat="50.44597" lon="4.84686">
        <ele>202.4</ele>
        <time>2025-04-05T06:12:55Z</time>
      </trkpt>
      <trkpt lat="50.44594" lon="4.8468">
        <ele>202.4</ele>
        <time>2025-04-05T06:12:56Z</time>
      </trkpt>
      <trkpt lat="50.44591" lon="4.84673">
        <ele>202.4</ele>
        <time>2025-04-05T06:12:57Z</time>
      </trkpt>
      <trkpt lat="50.44588" lon="4.84666">
        <ele>202.4</ele>
        <time>2025-04-05T06:12:58Z</time>
      </trkpt>
      <trkpt lat="50.44585" lon="4.84659">
        <ele>202.4</ele>
        <time>2025-04-05T06:12:59Z</time>
      </trkpt>
      <trkpt lat="50.44582" lon="4.84652">
        <ele>202.2</ele>
        <time>2025-04-05T06:13:00Z</time>
      </trkpt>
      <trkpt lat="50.44578" lon="4.84644">
        <ele>202</ele>
        <time>2025-04-05T06:13:01Z</time>
      </trkpt>
      <trkpt lat="50.44573" lon="4.84635">
        <ele>201.8</ele>
        <time>2025-04-05T06:13:02Z</time>
      </trkpt>
      <trkpt lat="50.44568" lon="4.84626">
        <ele>201.6</ele>
        <time>2025-04-05T06:13:03Z</time>
      </trkpt>
      <trkpt lat="50.44564" lon="4.84618">
        <ele>201.2</ele>
        <time>2025-04-05T06:13:04Z</time>
      </trkpt>
      <trkpt lat="50.44562" lon="4.8461">
        <ele>200.8</ele>
        <time>2025-04-05T06:13:05Z</time>
      </trkpt>
      <trkpt lat="50.44559" lon="4.84602">
        <ele>200.6</ele>
        <time>2025-04-05T06:13:06Z</time>
      </trkpt>
      <trkpt lat="50.44556" lon="4.84594">
        <ele>200.2</ele>
        <time>2025-04-05T06:13:07Z</time>
      </trkpt>
      <trkpt lat="50.44552" lon="4.84585">
        <ele>199.8</ele>
        <time>2025-04-05T06:13:08Z</time>
      </trkpt>
      <trkpt lat="50.4455" lon="4.84577">
        <ele>199.4</ele>
        <time>2025-04-05T06:13:09Z</time>
      </trkpt>
      <trkpt lat="50.44548" lon="4.8457">
        <ele>199</ele>
        <time>2025-04-05T06:13:10Z</time>
      </trkpt>
      <trkpt lat="50.44545" lon="4.84563">
        <ele>198.6</ele>
        <time>2025-04-05T06:13:11Z</time>
      </trkpt>
      <trkpt lat="50.44542" lon="4.84554">
        <ele>198.2</ele>
        <time>2025-04-05T06:13:12Z</time>
      </trkpt>
      <trkpt lat="50.44537" lon="4.84544">
        <ele>197.6</ele>
        <time>2025-04-05T06:13:13Z</time>
      </trkpt>
      <trkpt lat="50.44532" lon="4.84533">
        <ele>197.2</ele>
        <time>2025-04-05T06:13:14Z</time>
      </trkpt>
      <trkpt lat="50.44527" lon="4.84522">
        <ele>196.8</ele>
        <time>2025-04-05T06:13:15Z</time>
      </trkpt>
      <trkpt lat="50.44521" lon="4.84511">
        <ele>196.4</ele>
        <time>2025-04-05T06:13:16Z</time>
      </trkpt>
      <trkpt lat="50.44515" lon="4.84501">
        <ele>195.8</ele>
        <time>2025-04-05T06:13:17Z</time>
      </trkpt>
      <trkpt lat="50.4451" lon="4.8449">
        <ele>195.4</ele>
        <time>2025-04-05T06:13:18Z</time>
      </trkpt>
      <trkpt lat="50.44505" lon="4.84479">
        <ele>195</ele>
        <time>2025-04-05T06:13:19Z</time>
      </trkpt>
      <trkpt lat="50.44498" lon="4.84469">
        <ele>194.6</ele>
        <time>2025-04-05T06:13:20Z</time>
      </trkpt>
      <trkpt lat="50.44492" lon="4.84456">
        <ele>194.2</ele>
        <time>2025-04-05T06:13:21Z</time>
      </trkpt>
      <trkpt lat="50.44485" lon="4.84443">
        <ele>193.8</ele>
        <time>2025-04-05T06:13:22Z</time>
      </trkpt>
      <trkpt lat="50.44479" lon="4.84429">
        <ele>193.2</ele>
        <time>2025-04-05T06:13:23Z</time>
      </trkpt>
      <trkpt lat="50.44473" lon="4.84416">
        <ele>192.8</ele>
        <time>2025-04-05T06:13:24Z</time>
      </trkpt>
      <trkpt lat="50.4447" lon="4.84406">
        <ele>192.2</ele>
        <time>2025-04-05T06:13:25Z</time>
      </trkpt>
      <trkpt lat="50.44465" lon="4.84394">
        <ele>191.8</ele>
        <time>2025-04-05T06:13:26Z</time>
      </trkpt>
      <trkpt lat="50.4446" lon="4.84382">
        <ele>191.4</ele>
        <time>2025-04-05T06:13:27Z</time>
      </trkpt>
      <trkpt lat="50.44455" lon="4.84369">
        <ele>191</ele>
        <time>2025-04-05T06:13:28Z</time>
      </trkpt>
      <trkpt lat="50.44449" lon="4.84356">
        <ele>190.6</ele>
        <time>2025-04-05T06:13:29Z</time>
      </trkpt>
      <trkpt lat="50.44443" lon="4.84341">
        <ele>190</ele>
        <time>2025-04-05T06:13:30Z</time>
      </trkpt>
      <trkpt lat="50.44436" lon="4.84328">
        <ele>189.6</ele>
        <time>2025-04-05T06:13:31Z</time>
      </trkpt>
      <trkpt lat="50.44429" lon="4.84315">
        <ele>189.2</ele>
        <time>2025-04-05T06:13:32Z</time>
      </trkpt>
      <trkpt lat="50.44423" lon="4.84303">
        <ele>188.8</ele>
        <time>2025-04-05T06:13:33Z</time>
      </trkpt>
      <trkpt lat="50.44416" lon="4.84291">
        <ele>188.4</ele>
        <time>2025-04-05T06:13:34Z</time>
      </trkpt>
      <trkpt lat="50.44408" lon="4.84278">
        <ele>188.2</ele>
        <time>2025-04-05T06:13:35Z</time>
      </trkpt>
      <trkpt lat="50.444" lon="4.84264">
        <ele>188</ele>
        <time>2025-04-05T06:13:36Z</time>
      </trkpt>
      <trkpt lat="50.44391" lon="4.84251">
        <ele>187.8</ele>
        <time>2025-04-05T06:13:37Z</time>
      </trkpt>
      <trkpt lat="50.44383" lon="4.84238">
        <ele>187.6</ele>
        <time>2025-04-05T06:13:38Z</time>
      </trkpt>
      <trkpt lat="50.44377" lon="4.84225">
        <ele>187.4</ele>
        <time>2025-04-05T06:13:39Z</time>
      </trkpt>
      <trkpt lat="50.44371" lon="4.84212">
        <ele>187.2</ele>
        <time>2025-04-05T06:13:40Z</time>
      </trkpt>
      <trkpt lat="50.44367" lon="4.84202">
        <ele>187.2</ele>
        <time>2025-04-05T06:13:41Z</time>
      </trkpt>
      <trkpt lat="50.44362" lon="4.84192">
        <ele>187</ele>
        <time>2025-04-05T06:13:42Z</time>
      </trkpt>
      <trkpt lat="50.44357" lon="4.8418">
        <ele>187</ele>
        <time>2025-04-05T06:13:43Z</time>
      </trkpt>
      <trkpt lat="50.44352" lon="4.84171">
        <ele>187</ele>
        <time>2025-04-05T06:13:44Z</time>
      </trkpt>
      <trkpt lat="50.44347" lon="4.8416">
        <ele>187</ele>
        <time>2025-04-05T06:13:45Z</time>
      </trkpt>
      <trkpt lat="50.44343" lon="4.8415">
        <ele>186.8</ele>
        <time>2025-04-05T06:13:46Z</time>
      </trkpt>
      <trkpt lat="50.44339" lon="4.84141">
        <ele>186.8</ele>
        <time>2025-04-05T06:13:47Z</time>
      </trkpt>
      <trkpt lat="50.44334" lon="4.84131">
        <ele>186.8</ele>
        <time>2025-04-05T06:13:48Z</time>
      </trkpt>
      <trkpt lat="50.44329" lon="4.84121">
        <ele>186.8</ele>
        <time>2025-04-05T06:13:49Z</time>
      </trkpt>
      <trkpt lat="50.44325" lon="4.84112">
        <ele>186.8</ele>
        <time>2025-04-05T06:13:50Z</time>
      </trkpt>
      <trkpt lat="50.44321" lon="4.84105">
        <ele>186.8</ele>
        <time>2025-04-05T06:13:51Z</time>
      </trkpt>
      <trkpt lat="50.44318" lon="4.84096">
        <ele>186.8</ele>
        <time>2025-04-05T06:13:52Z</time>
      </trkpt>
      <trkpt lat="50.44313" lon="4.84087">
        <ele>186.8</ele>
        <time>2025-04-05T06:13:53Z</time>
      </trkpt>
      <trkpt lat="50.44309" lon="4.84077">
        <ele>186.8</ele>
        <time>2025-04-05T06:13:54Z</time>
      </trkpt>
      <trkpt lat="50.44304" lon="4.84069">
        <ele>186.8</ele>
        <time>2025-04-05T06:13:55Z</time>
      </trkpt>
      <trkpt lat="50.443" lon="4.8406">
        <ele>186.8</ele>
        <time>2025-04-05T06:13:56Z</time>
      </trkpt>
      <trkpt lat="50.44295" lon="4.84052">
        <ele>186.8</ele>
        <time>2025-04-05T06:13:57Z</time>
      </trkpt>
      <trkpt lat="50.44291" lon="4.84044">
        <ele>187</ele>
        <time>2025-04-05T06:13:58Z</time>
      </trkpt>
      <trkpt lat="50.44286" lon="4.84035">
        <ele>187</ele>
        <time>2025-04-05T06:13:59Z</time>
      </trkpt>
      <trkpt lat="50.44281" lon="4.84025">
        <ele>187</ele>
        <time>2025-04-05T06:14:00Z</time>
      </trkpt>
      <trkpt lat="50.44277" lon="4.84018">
        <ele>187</ele>
        <time>2025-04-05T06:14:01Z</time>
      </trkpt>
      <trkpt lat="50.44273" lon="4.84011">
        <ele>187.2</ele>
        <time>2025-04-05T06:14:02Z</time>
      </trkpt>
      <trkpt lat="50.44268" lon="4.84002">
        <ele>187.2</ele>
        <time>2025-04-05T06:14:03Z</time>
      </trkpt>
      <trkpt lat="50.44264" lon="4.83994">
        <ele>187.2</ele>
        <time>2025-04-05T06:14:04Z</time>
      </trkpt>
      <trkpt lat="50.4426" lon="4.83987">
        <ele>187.4</ele>
        <time>2025-04-05T06:14:05Z</time>
      </trkpt>
      <trkpt lat="50.44257" lon="4.8398">
        <ele>187.4</ele>
        <time>2025-04-05T06:14:06Z</time>
      </trkpt>
      <trkpt lat="50.44253" lon="4.83973">
        <ele>187.4</ele>
        <time>2025-04-05T06:14:07Z</time>
      </trkpt>
      <trkpt lat="50.44249" lon="4.83966">
        <ele>187.6</ele>
        <time>2025-04-05T06:14:08Z</time>
      </trkpt>
      <trkpt lat="50.44243" lon="4.83957">
        <ele>187.8</ele>
        <time>2025-04-05T06:14:09Z</time>
      </trkpt>
      <trkpt lat="50.44237" lon="4.83948">
        <ele>187.8</ele>
        <time>2025-04-05T06:14:10Z</time>
      </trkpt>
      <trkpt lat="50.44233" lon="4.8394">
        <ele>188</ele>
        <time>2025-04-05T06:14:11Z</time>
      </trkpt>
      <trkpt lat="50.4423" lon="4.83933">
        <ele>188.2</ele>
        <time>2025-04-05T06:14:12Z</time>
      </trkpt>
      <trkpt lat="50.44227" lon="4.83925">
        <ele>188.4</ele>
        <time>2025-04-05T06:14:13Z</time>
      </trkpt>
      <trkpt lat="50.44224" lon="4.83919">
        <ele>188.6</ele>
        <time>2025-04-05T06:14:14Z</time>
      </trkpt>
      <trkpt lat="50.44222" lon="4.83912">
        <ele>188.8</ele>
        <time>2025-04-05T06:14:15Z</time>
      </trkpt>
      <trkpt lat="50.44219" lon="4.83905">
        <ele>189</ele>
        <time>2025-04-05T06:14:16Z</time>
      </trkpt>
      <trkpt lat="50.44217" lon="4.83898">
        <ele>189.2</ele>
        <time>2025-04-05T06:14:17Z</time>
      </trkpt>
      <trkpt lat="50.44214" lon="4.8389">
        <ele>189.4</ele>
        <time>2025-04-05T06:14:18Z</time>
      </trkpt>
      <trkpt lat="50.4421" lon="4.83882">
        <ele>189.6</ele>
        <time>2025-04-05T06:14:19Z</time>
      </trkpt>
      <trkpt lat="50.44207" lon="4.83876">
        <ele>189.8</ele>
        <time>2025-04-05T06:14:20Z</time>
      </trkpt>
      <trkpt lat="50.44204" lon="4.8387">
        <ele>190</ele>
        <time>2025-04-05T06:14:21Z</time>
      </trkpt>
      <trkpt lat="50.442" lon="4.83863">
        <ele>190</ele>
        <time>2025-04-05T06:14:22Z</time>
      </trkpt>
      <trkpt lat="50.44198" lon="4.83856">
        <ele>190.2</ele>
        <time>2025-04-05T06:14:23Z</time>
      </trkpt>
      <trkpt lat="50.44195" lon="4.8385">
        <ele>190.4</ele>
        <time>2025-04-05T06:14:24Z</time>
      </trkpt>
      <trkpt lat="50.44192" lon="4.83844">
        <ele>190.6</ele>
        <time>2025-04-05T06:14:25Z</time>
      </trkpt>
      <trkpt lat="50.44189" lon="4.83839">
        <ele>190.8</ele>
        <time>2025-04-05T06:14:26Z</time>
      </trkpt>
      <trkpt lat="50.44186" lon="4.83832">
        <ele>190.8</ele>
        <time>2025-04-05T06:14:27Z</time>
      </trkpt>
      <trkpt lat="50.44183" lon="4.83824">
        <ele>190.8</ele>
        <time>2025-04-05T06:14:28Z</time>
      </trkpt>
      <trkpt lat="50.44179" lon="4.83816">
        <ele>191</ele>
        <time>2025-04-05T06:14:29Z</time>
      </trkpt>
      <trkpt lat="50.44176" lon="4.8381">
        <ele>191</ele>
        <time>2025-04-05T06:14:30Z</time>
      </trkpt>
      <trkpt lat="50.44172" lon="4.83802">
        <ele>191</ele>
        <time>2025-04-05T06:14:31Z</time>
      </trkpt>
      <trkpt lat="50.44169" lon="4.83794">
        <ele>191</ele>
        <time>2025-04-05T06:14:32Z</time>
      </trkpt>
      <trkpt lat="50.44164" lon="4.83786">
        <ele>191</ele>
        <time>2025-04-05T06:14:33Z</time>
      </trkpt>
      <trkpt lat="50.4416" lon="4.83779">
        <ele>191.2</ele>
        <time>2025-04-05T06:14:34Z</time>
      </trkpt>
      <trkpt lat="50.44157" lon="4.83772">
        <ele>191.2</ele>
        <time>2025-04-05T06:14:35Z</time>
      </trkpt>
      <trkpt lat="50.44153" lon="4.83764">
        <ele>191.2</ele>
        <time>2025-04-05T06:14:36Z</time>
      </trkpt>
      <trkpt lat="50.44149" lon="4.83757">
        <ele>191.2</ele>
        <time>2025-04-05T06:14:37Z</time>
      </trkpt>
      <trkpt lat="50.44145" lon="4.83749">
        <ele>191.2</ele>
        <time>2025-04-05T06:14:38Z</time>
      </trkpt>
      <trkpt lat="50.44141" lon="4.83742">
        <ele>191.2</ele>
        <time>2025-04-05T06:14:39Z</time>
      </trkpt>
      <trkpt lat="50.44137" lon="4.83735">
        <ele>191</ele>
        <time>2025-04-05T06:14:40Z</time>
      </trkpt>
      <trkpt lat="50.44133" lon="4.83727">
        <ele>191</ele>
        <time>2025-04-05T06:14:41Z</time>
      </trkpt>
      <trkpt lat="50.4413" lon="4.83719">
        <ele>191</ele>
        <time>2025-04-05T06:14:42Z</time>
      </trkpt>
      <trkpt lat="50.44128" lon="4.83711">
        <ele>191</ele>
        <time>2025-04-05T06:14:43Z</time>
      </trkpt>
      <trkpt lat="50.44125" lon="4.83705">
        <ele>191</ele>
        <time>2025-04-05T06:14:44Z</time>
      </trkpt>
      <trkpt lat="50.44123" lon="4.83698">
        <ele>191</ele>
        <time>2025-04-05T06:14:45Z</time>
      </trkpt>
      <trkpt lat="50.4412" lon="4.83692">
        <ele>191</ele>
        <time>2025-04-05T06:14:46Z</time>
      </trkpt>
      <trkpt lat="50.44117" lon="4.83685">
        <ele>191</ele>
        <time>2025-04-05T06:14:47Z</time>
      </trkpt>
      <trkpt lat="50.44113" lon="4.83678">
        <ele>191</ele>
        <time>2025-04-05T06:14:48Z</time>
      </trkpt>
      <trkpt lat="50.4411" lon="4.83671">
        <ele>191</ele>
        <time>2025-04-05T06:14:49Z</time>
      </trkpt>
      <trkpt lat="50.44107" lon="4.83663">
        <ele>191</ele>
        <time>2025-04-05T06:14:50Z</time>
      </trkpt>
      <trkpt lat="50.44103" lon="4.83656">
        <ele>191</ele>
        <time>2025-04-05T06:14:51Z</time>
      </trkpt>
      <trkpt lat="50.44099" lon="4.83648">
        <ele>191</ele>
        <time>2025-04-05T06:14:52Z</time>
      </trkpt>
      <trkpt lat="50.44095" lon="4.83642">
        <ele>190.8</ele>
        <time>2025-04-05T06:14:53Z</time>
      </trkpt>
      <trkpt lat="50.44092" lon="4.83635">
        <ele>190.6</ele>
        <time>2025-04-05T06:14:54Z</time>
      </trkpt>
      <trkpt lat="50.44089" lon="4.83628">
        <ele>190.6</ele>
        <time>2025-04-05T06:14:55Z</time>
      </trkpt>
      <trkpt lat="50.44086" lon="4.8362">
        <ele>190.4</ele>
        <time>2025-04-05T06:14:56Z</time>
      </trkpt>
      <trkpt lat="50.44083" lon="4.83611">
        <ele>190.2</ele>
        <time>2025-04-05T06:14:57Z</time>
      </trkpt>
      <trkpt lat="50.4408" lon="4.83604">
        <ele>190</ele>
        <time>2025-04-05T06:14:58Z</time>
      </trkpt>
      <trkpt lat="50.44077" lon="4.83598">
        <ele>189.6</ele>
        <time>2025-04-05T06:14:59Z</time>
      </trkpt>
      <trkpt lat="50.44073" lon="4.83594">
        <ele>189.4</ele>
        <time>2025-04-05T06:15:00Z</time>
      </trkpt>
      <trkpt lat="50.44069" lon="4.8359">
        <ele>189</ele>
        <time>2025-04-05T06:15:01Z</time>
      </trkpt>
      <trkpt lat="50.44064" lon="4.83578">
        <ele>188.8</ele>
        <time>2025-04-05T06:15:02Z</time>
      </trkpt>
      <trkpt lat="50.44062" lon="4.83564">
        <ele>188.4</ele>
        <time>2025-04-05T06:15:03Z</time>
      </trkpt>
      <trkpt lat="50.44061" lon="4.83555">
        <ele>188</ele>
        <time>2025-04-05T06:15:04Z</time>
      </trkpt>
      <trkpt lat="50.44059" lon="4.83545">
        <ele>187.8</ele>
        <time>2025-04-05T06:15:05Z</time>
      </trkpt>
      <trkpt lat="50.44056" lon="4.83534">
        <ele>187.4</ele>
        <time>2025-04-05T06:15:06Z</time>
      </trkpt>
      <trkpt lat="50.44053" lon="4.83522">
        <ele>187</ele>
        <time>2025-04-05T06:15:07Z</time>
      </trkpt>
      <trkpt lat="50.44051" lon="4.83512">
        <ele>186.6</ele>
        <time>2025-04-05T06:15:08Z</time>
      </trkpt>
      <trkpt lat="50.4405" lon="4.83503">
        <ele>186.2</ele>
        <time>2025-04-05T06:15:09Z</time>
      </trkpt>
      <trkpt lat="50.44046" lon="4.83492">
        <ele>186</ele>
        <time>2025-04-05T06:15:10Z</time>
      </trkpt>
      <trkpt lat="50.4404" lon="4.83478">
        <ele>185.6</ele>
        <time>2025-04-05T06:15:11Z</time>
      </trkpt>
      <trkpt lat="50.44035" lon="4.83462">
        <ele>185.2</ele>
        <time>2025-04-05T06:15:12Z</time>
      </trkpt>
      <trkpt lat="50.44028" lon="4.83446">
        <ele>185</ele>
        <time>2025-04-05T06:15:13Z</time>
      </trkpt>
      <trkpt lat="50.44024" lon="4.83433">
        <ele>184.6</ele>
        <time>2025-04-05T06:15:14Z</time>
      </trkpt>
      <trkpt lat="50.44019" lon="4.8342">
        <ele>184.2</ele>
        <time>2025-04-05T06:15:15Z</time>
      </trkpt>
      <trkpt lat="50.44017" lon="4.83407">
        <ele>184</ele>
        <time>2025-04-05T06:15:16Z</time>
      </trkpt>
      <trkpt lat="50.44014" lon="4.83396">
        <ele>183.6</ele>
        <time>2025-04-05T06:15:17Z</time>
      </trkpt>
      <trkpt lat="50.44012" lon="4.83386">
        <ele>183.4</ele>
        <time>2025-04-05T06:15:18Z</time>
      </trkpt>
      <trkpt lat="50.4401" lon="4.83375">
        <ele>183.2</ele>
        <time>2025-04-05T06:15:19Z</time>
      </trkpt>
      <trkpt lat="50.44009" lon="4.83365">
        <ele>183</ele>
        <time>2025-04-05T06:15:20Z</time>
      </trkpt>
      <trkpt lat="50.44008" lon="4.83357">
        <ele>182.8</ele>
        <time>2025-04-05T06:15:21Z</time>
      </trkpt>
      <trkpt lat="50.44005" lon="4.83345">
        <ele>182.6</ele>
        <time>2025-04-05T06:15:22Z</time>
      </trkpt>
      <trkpt lat="50.44001" lon="4.83334">
        <ele>182.4</ele>
        <time>2025-04-05T06:15:23Z</time>
      </trkpt>
      <trkpt lat="50.43996" lon="4.83323">
        <ele>182.2</ele>
        <time>2025-04-05T06:15:24Z</time>
      </trkpt>
      <trkpt lat="50.43991" lon="4.83311">
        <ele>182.2</ele>
        <time>2025-04-05T06:15:25Z</time>
      </trkpt>
      <trkpt lat="50.43986" lon="4.83299">
        <ele>182.2</ele>
        <time>2025-04-05T06:15:26Z</time>
      </trkpt>
      <trkpt lat="50.43982" lon="4.83288">
        <ele>182</ele>
        <time>2025-04-05T06:15:27Z</time>
      </trkpt>
      <trkpt lat="50.43979" lon="4.83278">
        <ele>182</ele>
        <time>2025-04-05T06:15:28Z</time>
      </trkpt>
      <trkpt lat="50.43977" lon="4.83268">
        <ele>182</ele>
        <time>2025-04-05T06:15:29Z</time>
      </trkpt>
      <trkpt lat="50.43975" lon="4.83257">
        <ele>182</ele>
        <time>2025-04-05T06:15:30Z</time>
      </trkpt>
      <trkpt lat="50.43973" lon="4.83248">
        <ele>182</ele>
        <time>2025-04-05T06:15:31Z</time>
      </trkpt>
      <trkpt lat="50.43971" lon="4.83239">
        <ele>182</ele>
        <time>2025-04-05T06:15:32Z</time>
      </trkpt>
      <trkpt lat="50.43967" lon="4.83229">
        <ele>181.8</ele>
        <time>2025-04-05T06:15:33Z</time>
      </trkpt>
      <trkpt lat="50.43964" lon="4.83218">
        <ele>181.8</ele>
        <time>2025-04-05T06:15:34Z</time>
      </trkpt>
      <trkpt lat="50.4396" lon="4.83209">
        <ele>181.8</ele>
        <time>2025-04-05T06:15:35Z</time>
      </trkpt>
      <trkpt lat="50.43956" lon="4.83198">
        <ele>181.8</ele>
        <time>2025-04-05T06:15:36Z</time>
      </trkpt>
      <trkpt lat="50.43953" lon="4.83189">
        <ele>181.8</ele>
        <time>2025-04-05T06:15:37Z</time>
      </trkpt>
      <trkpt lat="50.43951" lon="4.83179">
        <ele>181.8</ele>
        <time>2025-04-05T06:15:38Z</time>
      </trkpt>
      <trkpt lat="50.43949" lon="4.83171">
        <ele>181.8</ele>
        <time>2025-04-05T06:15:39Z</time>
      </trkpt>
      <trkpt lat="50.43947" lon="4.83163">
        <ele>181.8</ele>
        <time>2025-04-05T06:15:40Z</time>
      </trkpt>
      <trkpt lat="50.43945" lon="4.83155">
        <ele>181.8</ele>
        <time>2025-04-05T06:15:41Z</time>
      </trkpt>
      <trkpt lat="50.43942" lon="4.83148">
        <ele>182</ele>
        <time>2025-04-05T06:15:42Z</time>
      </trkpt>
      <trkpt lat="50.43939" lon="4.8314">
        <ele>182</ele>
        <time>2025-04-05T06:15:43Z</time>
      </trkpt>
      <trkpt lat="50.43938" lon="4.83133">
        <ele>182.2</ele>
        <time>2025-04-05T06:15:44Z</time>
      </trkpt>
      <trkpt lat="50.43936" lon="4.83127">
        <ele>182.4</ele>
        <time>2025-04-05T06:15:45Z</time>
      </trkpt>
      <trkpt lat="50.43934" lon="4.83121">
        <ele>182.6</ele>
        <time>2025-04-05T06:15:46Z</time>
      </trkpt>
      <trkpt lat="50.43932" lon="4.83115">
        <ele>182.6</ele>
        <time>2025-04-05T06:15:47Z</time>
      </trkpt>
      <trkpt lat="50.43929" lon="4.83112">
        <ele>182.8</ele>
        <time>2025-04-05T06:15:48Z</time>
      </trkpt>
      <trkpt lat="50.43926" lon="4.8311">
        <ele>182.8</ele>
        <time>2025-04-05T06:15:49Z</time>
      </trkpt>
      <trkpt lat="50.43923" lon="4.83111">
        <ele>182.8</ele>
        <time>2025-04-05T06:15:50Z</time>
      </trkpt>
      <trkpt lat="50.43919" lon="4.83114">
        <ele>182.8</ele>
        <time>2025-04-05T06:15:51Z</time>
      </trkpt>
      <trkpt lat="50.43916" lon="4.83119">
        <ele>182.6</ele>
        <time>2025-04-05T06:15:52Z</time>
      </trkpt>
      <trkpt lat="50.43914" lon="4.83126">
        <ele>182.6</ele>
        <time>2025-04-05T06:15:53Z</time>
      </trkpt>
      <trkpt lat="50.43913" lon="4.83135">
        <ele>182.4</ele>
        <time>2025-04-05T06:15:54Z</time>
      </trkpt>
      <trkpt lat="50.43912" lon="4.83144">
        <ele>182.2</ele>
        <time>2025-04-05T06:15:55Z</time>
      </trkpt>
      <trkpt lat="50.4391" lon="4.83155">
        <ele>181.8</ele>
        <time>2025-04-05T06:15:56Z</time>
      </trkpt>
      <trkpt lat="50.43908" lon="4.83165">
        <ele>181.6</ele>
        <time>2025-04-05T06:15:57Z</time>
      </trkpt>
      <trkpt lat="50.43906" lon="4.83176">
        <ele>181.2</ele>
        <time>2025-04-05T06:15:58Z</time>
      </trkpt>
      <trkpt lat="50.43904" lon="4.83187">
        <ele>181</ele>
        <time>2025-04-05T06:15:59Z</time>
      </trkpt>
      <trkpt lat="50.43901" lon="4.83198">
        <ele>180.6</ele>
        <time>2025-04-05T06:16:00Z</time>
      </trkpt>
      <trkpt lat="50.43899" lon="4.83209">
        <ele>180.4</ele>
        <time>2025-04-05T06:16:01Z</time>
      </trkpt>
      <trkpt lat="50.43896" lon="4.8322">
        <ele>180</ele>
        <time>2025-04-05T06:16:02Z</time>
      </trkpt>
      <trkpt lat="50.43893" lon="4.83232">
        <ele>179.6</ele>
        <time>2025-04-05T06:16:03Z</time>
      </trkpt>
      <trkpt lat="50.4389" lon="4.83243">
        <ele>179.2</ele>
        <time>2025-04-05T06:16:04Z</time>
      </trkpt>
      <trkpt lat="50.43888" lon="4.83256">
        <ele>178.8</ele>
        <time>2025-04-05T06:16:05Z</time>
      </trkpt>
      <trkpt lat="50.43885" lon="4.83269">
        <ele>178.4</ele>
        <time>2025-04-05T06:16:06Z</time>
      </trkpt>
      <trkpt lat="50.43883" lon="4.8328">
        <ele>178</ele>
        <time>2025-04-05T06:16:07Z</time>
      </trkpt>
      <trkpt lat="50.4388" lon="4.83293">
        <ele>177.6</ele>
        <time>2025-04-05T06:16:08Z</time>
      </trkpt>
      <trkpt lat="50.43877" lon="4.83306">
        <ele>177.2</ele>
        <time>2025-04-05T06:16:09Z</time>
      </trkpt>
      <trkpt lat="50.43874" lon="4.83319">
        <ele>176.8</ele>
        <time>2025-04-05T06:16:10Z</time>
      </trkpt>
      <trkpt lat="50.43872" lon="4.83332">
        <ele>176.6</ele>
        <time>2025-04-05T06:16:11Z</time>
      </trkpt>
      <trkpt lat="50.43869" lon="4.83345">
        <ele>176.2</ele>
        <time>2025-04-05T06:16:12Z</time>
      </trkpt>
      <trkpt lat="50.43866" lon="4.8336">
        <ele>175.8</ele>
        <time>2025-04-05T06:16:13Z</time>
      </trkpt>
      <trkpt lat="50.43863" lon="4.83373">
        <ele>175.4</ele>
        <time>2025-04-05T06:16:14Z</time>
      </trkpt>
      <trkpt lat="50.43861" lon="4.83385">
        <ele>175</ele>
        <time>2025-04-05T06:16:15Z</time>
      </trkpt>
      <trkpt lat="50.43858" lon="4.83398">
        <ele>174.6</ele>
        <time>2025-04-05T06:16:16Z</time>
      </trkpt>
      <trkpt lat="50.43856" lon="4.83411">
        <ele>174.2</ele>
        <time>2025-04-05T06:16:17Z</time>
      </trkpt>
      <trkpt lat="50.43853" lon="4.83424">
        <ele>173.8</ele>
        <time>2025-04-05T06:16:18Z</time>
      </trkpt>
      <trkpt lat="50.43851" lon="4.83436">
        <ele>173.4</ele>
        <time>2025-04-05T06:16:19Z</time>
      </trkpt>
      <trkpt lat="50.43848" lon="4.83449">
        <ele>173</ele>
        <time>2025-04-05T06:16:20Z</time>
      </trkpt>
      <trkpt lat="50.43846" lon="4.83461">
        <ele>172.6</ele>
        <time>2025-04-05T06:16:21Z</time>
      </trkpt>
      <trkpt lat="50.43844" lon="4.83472">
        <ele>172.4</ele>
        <time>2025-04-05T06:16:22Z</time>
      </trkpt>
      <trkpt lat="50.43841" lon="4.83484">
        <ele>172</ele>
        <time>2025-04-05T06:16:23Z</time>
      </trkpt>
      <trkpt lat="50.4384" lon="4.83495">
        <ele>171.6</ele>
        <time>2025-04-05T06:16:24Z</time>
      </trkpt>
      <trkpt lat="50.43839" lon="4.83507">
        <ele>171.4</ele>
        <time>2025-04-05T06:16:25Z</time>
      </trkpt>
      <trkpt lat="50.4384" lon="4.83519">
        <ele>170.8</ele>
        <time>2025-04-05T06:16:26Z</time>
      </trkpt>
      <trkpt lat="50.43841" lon="4.8353">
        <ele>170.4</ele>
        <time>2025-04-05T06:16:27Z</time>
      </trkpt>
      <trkpt lat="50.43844" lon="4.83541">
        <ele>170</ele>
        <time>2025-04-05T06:16:28Z</time>
      </trkpt>
      <trkpt lat="50.43847" lon="4.83553">
        <ele>169.6</ele>
        <time>2025-04-05T06:16:29Z</time>
      </trkpt>
      <trkpt lat="50.43852" lon="4.83564">
        <ele>169.2</ele>
        <time>2025-04-05T06:16:30Z</time>
      </trkpt>
      <trkpt lat="50.43858" lon="4.83575">
        <ele>168.6</ele>
        <time>2025-04-05T06:16:31Z</time>
      </trkpt>
      <trkpt lat="50.43864" lon="4.83585">
        <ele>168.2</ele>
        <time>2025-04-05T06:16:32Z</time>
      </trkpt>
      <trkpt lat="50.43869" lon="4.83593">
        <ele>168</ele>
        <time>2025-04-05T06:16:33Z</time>
      </trkpt>
      <trkpt lat="50.43873" lon="4.836">
        <ele>167.6</ele>
        <time>2025-04-05T06:16:34Z</time>
      </trkpt>
      <trkpt lat="50.43878" lon="4.83606">
        <ele>167.4</ele>
        <time>2025-04-05T06:16:35Z</time>
      </trkpt>
      <trkpt lat="50.43882" lon="4.83612">
        <ele>167.2</ele>
        <time>2025-04-05T06:16:36Z</time>
      </trkpt>
      <trkpt lat="50.43886" lon="4.83618">
        <ele>167</ele>
        <time>2025-04-05T06:16:37Z</time>
      </trkpt>
      <trkpt lat="50.4389" lon="4.83624">
        <ele>166.6</ele>
        <time>2025-04-05T06:16:38Z</time>
      </trkpt>
      <trkpt lat="50.43892" lon="4.8363">
        <ele>166.4</ele>
        <time>2025-04-05T06:16:39Z</time>
      </trkpt>
      <trkpt lat="50.43893" lon="4.83635">
        <ele>166.2</ele>
        <time>2025-04-05T06:16:40Z</time>
      </trkpt>
      <trkpt lat="50.43893" lon="4.8364">
        <ele>166</ele>
        <time>2025-04-05T06:16:41Z</time>
      </trkpt>
      <trkpt lat="50.43892" lon="4.83644">
        <ele>165.8</ele>
        <time>2025-04-05T06:16:42Z</time>
      </trkpt>
      <trkpt lat="50.43889" lon="4.83646">
        <ele>165.6</ele>
        <time>2025-04-05T06:16:43Z</time>
      </trkpt>
      <trkpt lat="50.43885" lon="4.83645">
        <ele>165.6</ele>
        <time>2025-04-05T06:16:44Z</time>
      </trkpt>
      <trkpt lat="50.43882" lon="4.83642">
        <ele>165.6</ele>
        <time>2025-04-05T06:16:45Z</time>
      </trkpt>
      <trkpt lat="50.43879" lon="4.83639">
        <ele>165.6</ele>
        <time>2025-04-05T06:16:46Z</time>
      </trkpt>
      <trkpt lat="50.43874" lon="4.83635">
        <ele>165.6</ele>
        <time>2025-04-05T06:16:47Z</time>
      </trkpt>
      <trkpt lat="50.4387" lon="4.83631">
        <ele>165.6</ele>
        <time>2025-04-05T06:16:48Z</time>
      </trkpt>
      <trkpt lat="50.43866" lon="4.83628">
        <ele>165.8</ele>
        <time>2025-04-05T06:16:49Z</time>
      </trkpt>
      <trkpt lat="50.43861" lon="4.83625">
        <ele>165.8</ele>
        <time>2025-04-05T06:16:50Z</time>
      </trkpt>
      <trkpt lat="50.43857" lon="4.83623">
        <ele>166</ele>
        <time>2025-04-05T06:16:51Z</time>
      </trkpt>
      <trkpt lat="50.43852" lon="4.8362">
        <ele>166.2</ele>
        <time>2025-04-05T06:16:52Z</time>
      </trkpt>
      <trkpt lat="50.43847" lon="4.83616">
        <ele>166.4</ele>
        <time>2025-04-05T06:16:53Z</time>
      </trkpt>
      <trkpt lat="50.43842" lon="4.83613">
        <ele>166.4</ele>
        <time>2025-04-05T06:16:54Z</time>
      </trkpt>
      <trkpt lat="50.43837" lon="4.8361">
        <ele>166.4</ele>
        <time>2025-04-05T06:16:55Z</time>
      </trkpt>
      <trkpt lat="50.43833" lon="4.83606">
        <ele>166.4</ele>
        <time>2025-04-05T06:16:56Z</time>
      </trkpt>
      <trkpt lat="50.43827" lon="4.83601">
        <ele>166.4</ele>
        <time>2025-04-05T06:16:57Z</time>
      </trkpt>
      <trkpt lat="50.43821" lon="4.83596">
        <ele>166.4</ele>
        <time>2025-04-05T06:16:58Z</time>
      </trkpt>
      <trkpt lat="50.43816" lon="4.83591">
        <ele>166.4</ele>
        <time>2025-04-05T06:16:59Z</time>
      </trkpt>
      <trkpt lat="50.43811" lon="4.83588">
        <ele>166.4</ele>
        <time>2025-04-05T06:17:00Z</time>
      </trkpt>
      <trkpt lat="50.43807" lon="4.83584">
        <ele>166.4</ele>
        <time>2025-04-05T06:17:01Z</time>
      </trkpt>
      <trkpt lat="50.43801" lon="4.8358">
        <ele>166.4</ele>
        <time>2025-04-05T06:17:02Z</time>
      </trkpt>
      <trkpt lat="50.43795" lon="4.83575">
        <ele>166.2</ele>
        <time>2025-04-05T06:17:03Z</time>
      </trkpt>
      <trkpt lat="50.43789" lon="4.8357">
        <ele>166.2</ele>
        <time>2025-04-05T06:17:04Z</time>
      </trkpt>
      <trkpt lat="50.43783" lon="4.83565">
        <ele>166.2</ele>
        <time>2025-04-05T06:17:05Z</time>
      </trkpt>
      <trkpt lat="50.43778" lon="4.83561">
        <ele>166.2</ele>
        <time>2025-04-05T06:17:06Z</time>
      </trkpt>
      <trkpt lat="50.43773" lon="4.83558">
        <ele>166.4</ele>
        <time>2025-04-05T06:17:07Z</time>
      </trkpt>
      <trkpt lat="50.43767" lon="4.83555">
        <ele>166.2</ele>
        <time>2025-04-05T06:17:08Z</time>
      </trkpt>
      <trkpt lat="50.43762" lon="4.83552">
        <ele>166.4</ele>
        <time>2025-04-05T06:17:09Z</time>
      </trkpt>
      <trkpt lat="50.43756" lon="4.83549">
        <ele>166.4</ele>
        <time>2025-04-05T06:17:10Z</time>
      </trkpt>
      <trkpt lat="50.4375" lon="4.83546">
        <ele>166.6</ele>
        <time>2025-04-05T06:17:11Z</time>
      </trkpt>
      <trkpt lat="50.43745" lon="4.83545">
        <ele>166.6</ele>
        <time>2025-04-05T06:17:12Z</time>
      </trkpt>
      <trkpt lat="50.43739" lon="4.83543">
        <ele>166.6</ele>
        <time>2025-04-05T06:17:13Z</time>
      </trkpt>
      <trkpt lat="50.43732" lon="4.8354">
        <ele>166.8</ele>
        <time>2025-04-05T06:17:14Z</time>
      </trkpt>
      <trkpt lat="50.43728" lon="4.83539">
        <ele>166.8</ele>
        <time>2025-04-05T06:17:15Z</time>
      </trkpt>
      <trkpt lat="50.43722" lon="4.83537">
        <ele>167</ele>
        <time>2025-04-05T06:17:16Z</time>
      </trkpt>
      <trkpt lat="50.43717" lon="4.83535">
        <ele>167</ele>
        <time>2025-04-05T06:17:17Z</time>
      </trkpt>
      <trkpt lat="50.43712" lon="4.83534">
        <ele>167.2</ele>
        <time>2025-04-05T06:17:18Z</time>
      </trkpt>
      <trkpt lat="50.43706" lon="4.83532">
        <ele>167.4</ele>
        <time>2025-04-05T06:17:19Z</time>
      </trkpt>
      <trkpt lat="50.43701" lon="4.8353">
        <ele>167.6</ele>
        <time>2025-04-05T06:17:20Z</time>
      </trkpt>
      <trkpt lat="50.43695" lon="4.83527">
        <ele>167.8</ele>
        <time>2025-04-05T06:17:21Z</time>
      </trkpt>
      <trkpt lat="50.4369" lon="4.83525">
        <ele>168</ele>
        <time>2025-04-05T06:17:22Z</time>
      </trkpt>
      <trkpt lat="50.43685" lon="4.83523">
        <ele>168.2</ele>
        <time>2025-04-05T06:17:23Z</time>
      </trkpt>
      <trkpt lat="50.4368" lon="4.8352">
        <ele>168.4</ele>
        <time>2025-04-05T06:17:24Z</time>
      </trkpt>
      <trkpt lat="50.43675" lon="4.83518">
        <ele>168.8</ele>
        <time>2025-04-05T06:17:25Z</time>
      </trkpt>
      <trkpt lat="50.43671" lon="4.83516">
        <ele>169.2</ele>
        <time>2025-04-05T06:17:26Z</time>
      </trkpt>
      <trkpt lat="50.43667" lon="4.83513">
        <ele>169.6</ele>
        <time>2025-04-05T06:17:27Z</time>
      </trkpt>
      <trkpt lat="50.43663" lon="4.83511">
        <ele>170</ele>
        <time>2025-04-05T06:17:28Z</time>
      </trkpt>
      <trkpt lat="50.43659" lon="4.83509">
        <ele>170.4</ele>
        <time>2025-04-05T06:17:29Z</time>
      </trkpt>
      <trkpt lat="50.43655" lon="4.83507">
        <ele>170.8</ele>
        <time>2025-04-05T06:17:30Z</time>
      </trkpt>
      <trkpt lat="50.43651" lon="4.83505">
        <ele>171.2</ele>
        <time>2025-04-05T06:17:31Z</time>
      </trkpt>
      <trkpt lat="50.43647" lon="4.83503">
        <ele>171.6</ele>
        <time>2025-04-05T06:17:32Z</time>
      </trkpt>
      <trkpt lat="50.43644" lon="4.83502">
        <ele>171.8</ele>
        <time>2025-04-05T06:17:33Z</time>
      </trkpt>
      <trkpt lat="50.43641" lon="4.83501">
        <ele>172.2</ele>
        <time>2025-04-05T06:17:34Z</time>
      </trkpt>
      <trkpt lat="50.43637" lon="4.835">
        <ele>172.6</ele>
        <time>2025-04-05T06:17:35Z</time>
      </trkpt>
      <trkpt lat="50.43633" lon="4.83499">
        <ele>173</ele>
        <time>2025-04-05T06:17:36Z</time>
      </trkpt>
      <trkpt lat="50.4363" lon="4.83498">
        <ele>173.4</ele>
        <time>2025-04-05T06:17:37Z</time>
      </trkpt>
      <trkpt lat="50.43626" lon="4.83497">
        <ele>173.6</ele>
        <time>2025-04-05T06:17:38Z</time>
      </trkpt>
      <trkpt lat="50.43623" lon="4.83496">
        <ele>174</ele>
        <time>2025-04-05T06:17:39Z</time>
      </trkpt>
      <trkpt lat="50.43619" lon="4.83495">
        <ele>174.4</ele>
        <time>2025-04-05T06:17:40Z</time>
      </trkpt>
      <trkpt lat="50.43616" lon="4.83494">
        <ele>174.8</ele>
        <time>2025-04-05T06:17:41Z</time>
      </trkpt>
      <trkpt lat="50.43612" lon="4.83493">
        <ele>175</ele>
        <time>2025-04-05T06:17:42Z</time>
      </trkpt>
      <trkpt lat="50.43609" lon="4.83492">
        <ele>175.4</ele>
        <time>2025-04-05T06:17:43Z</time>
      </trkpt>
      <trkpt lat="50.43606" lon="4.83491">
        <ele>175.8</ele>
        <time>2025-04-05T06:17:44Z</time>
      </trkpt>
      <trkpt lat="50.43604" lon="4.83491">
        <ele>176</ele>
        <time>2025-04-05T06:17:45Z</time>
      </trkpt>
      <trkpt lat="50.43601" lon="4.8349">
        <ele>176.4</ele>
        <time>2025-04-05T06:17:46Z</time>
      </trkpt>
      <trkpt lat="50.43598" lon="4.83489">
        <ele>176.8</ele>
        <time>2025-04-05T06:17:47Z</time>
      </trkpt>
      <trkpt lat="50.43595" lon="4.83488">
        <ele>177</ele>
        <time>2025-04-05T06:17:48Z</time>
      </trkpt>
      <trkpt lat="50.43592" lon="4.83487">
        <ele>177.4</ele>
        <time>2025-04-05T06:17:49Z</time>
      </trkpt>
      <trkpt lat="50.43589" lon="4.83486">
        <ele>177.6</ele>
        <time>2025-04-05T06:17:50Z</time>
      </trkpt>
      <trkpt lat="50.43586" lon="4.83485">
        <ele>177.8</ele>
        <time>2025-04-05T06:17:51Z</time>
      </trkpt>
      <trkpt lat="50.43583" lon="4.83484">
        <ele>178</ele>
        <time>2025-04-05T06:17:52Z</time>
      </trkpt>
      <trkpt lat="50.4358" lon="4.83483">
        <ele>178.2</ele>
        <time>2025-04-05T06:17:53Z</time>
      </trkpt>
      <trkpt lat="50.43576" lon="4.83483">
        <ele>178.4</ele>
        <time>2025-04-05T06:17:54Z</time>
      </trkpt>
      <trkpt lat="50.43573" lon="4.83481">
        <ele>178.6</ele>
        <time>2025-04-05T06:17:55Z</time>
      </trkpt>
      <trkpt lat="50.4357" lon="4.8348">
        <ele>178.8</ele>
        <time>2025-04-05T06:17:56Z</time>
      </trkpt>
      <trkpt lat="50.43566" lon="4.83479">
        <ele>178.8</ele>
        <time>2025-04-05T06:17:57Z</time>
      </trkpt>
      <trkpt lat="50.43563" lon="4.83478">
        <ele>179</ele>
        <time>2025-04-05T06:17:58Z</time>
      </trkpt>
      <trkpt lat="50.43559" lon="4.83477">
        <ele>179.2</ele>
        <time>2025-04-05T06:17:59Z</time>
      </trkpt>
      <trkpt lat="50.43555" lon="4.83476">
        <ele>179.2</ele>
        <time>2025-04-05T06:18:00Z</time>
      </trkpt>
      <trkpt lat="50.43551" lon="4.83475">
        <ele>179.4</ele>
        <time>2025-04-05T06:18:01Z</time>
      </trkpt>
      <trkpt lat="50.43547" lon="4.83474">
        <ele>179.4</ele>
        <time>2025-04-05T06:18:02Z</time>
      </trkpt>
      <trkpt lat="50.43544" lon="4.83473">
        <ele>179.6</ele>
        <time>2025-04-05T06:18:03Z</time>
      </trkpt>
      <trkpt lat="50.4354" lon="4.83472">
        <ele>179.8</ele>
        <time>2025-04-05T06:18:04Z</time>
      </trkpt>
      <trkpt lat="50.43536" lon="4.83471">
        <ele>179.8</ele>
        <time>2025-04-05T06:18:05Z</time>
      </trkpt>
      <trkpt lat="50.43533" lon="4.8347">
        <ele>180</ele>
        <time>2025-04-05T06:18:06Z</time>
      </trkpt>
      <trkpt lat="50.43529" lon="4.83469">
        <ele>180.2</ele>
        <time>2025-04-05T06:18:07Z</time>
      </trkpt>
      <trkpt lat="50.43525" lon="4.83468">
        <ele>180.2</ele>
        <time>2025-04-05T06:18:08Z</time>
      </trkpt>
      <trkpt lat="50.43521" lon="4.83467">
        <ele>180.4</ele>
        <time>2025-04-05T06:18:09Z</time>
      </trkpt>
      <trkpt lat="50.43517" lon="4.83466">
        <ele>180.4</ele>
        <time>2025-04-05T06:18:10Z</time>
      </trkpt>
      <trkpt lat="50.43513" lon="4.83465">
        <ele>180.6</ele>
        <time>2025-04-05T06:18:11Z</time>
      </trkpt>
      <trkpt lat="50.43509" lon="4.83464">
        <ele>180.8</ele>
        <time>2025-04-05T06:18:12Z</time>
      </trkpt>
      <trkpt lat="50.43506" lon="4.83462">
        <ele>181</ele>
        <time>2025-04-05T06:18:13Z</time>
      </trkpt>
      <trkpt lat="50.43502" lon="4.83461">
        <ele>181</ele>
        <time>2025-04-05T06:18:14Z</time>
      </trkpt>
      <trkpt lat="50.43498" lon="4.8346">
        <ele>181.2</ele>
        <time>2025-04-05T06:18:15Z</time>
      </trkpt>
      <trkpt lat="50.43494" lon="4.83459">
        <ele>181.4</ele>
        <time>2025-04-05T06:18:16Z</time>
      </trkpt>
      <trkpt lat="50.43491" lon="4.83458">
        <ele>181.6</ele>
        <time>2025-04-05T06:18:17Z</time>
      </trkpt>
      <trkpt lat="50.43487" lon="4.83457">
        <ele>182</ele>
        <time>2025-04-05T06:18:18Z</time>
      </trkpt>
      <trkpt lat="50.43484" lon="4.83456">
        <ele>182.2</ele>
        <time>2025-04-05T06:18:19Z</time>
      </trkpt>
      <trkpt lat="50.4348" lon="4.83455">
        <ele>182.4</ele>
        <time>2025-04-05T06:18:20Z</time>
      </trkpt>
      <trkpt lat="50.43477" lon="4.83454">
        <ele>182.8</ele>
        <time>2025-04-05T06:18:21Z</time>
      </trkpt>
      <trkpt lat="50.43473" lon="4.83452">
        <ele>183</ele>
        <time>2025-04-05T06:18:22Z</time>
      </trkpt>
      <trkpt lat="50.4347" lon="4.83451">
        <ele>183.4</ele>
        <time>2025-04-05T06:18:23Z</time>
      </trkpt>
      <trkpt lat="50.43467" lon="4.8345">
        <ele>183.8</ele>
        <time>2025-04-05T06:18:24Z</time>
      </trkpt>
      <trkpt lat="50.43464" lon="4.83449">
        <ele>184</ele>
        <time>2025-04-05T06:18:25Z</time>
      </trkpt>
      <trkpt lat="50.43461" lon="4.83448">
        <ele>184.4</ele>
        <time>2025-04-05T06:18:26Z</time>
      </trkpt>
      <trkpt lat="50.43458" lon="4.83447">
        <ele>184.8</ele>
        <time>2025-04-05T06:18:27Z</time>
      </trkpt>
      <trkpt lat="50.43455" lon="4.83446">
        <ele>185.2</ele>
        <time>2025-04-05T06:18:28Z</time>
      </trkpt>
      <trkpt lat="50.43453" lon="4.83445">
        <ele>185.6</ele>
        <time>2025-04-05T06:18:29Z</time>
      </trkpt>
      <trkpt lat="50.4345" lon="4.83445">
        <ele>186</ele>
        <time>2025-04-05T06:18:30Z</time>
      </trkpt>
      <trkpt lat="50.43448" lon="4.83444">
        <ele>186.4</ele>
        <time>2025-04-05T06:18:31Z</time>
      </trkpt>
      <trkpt lat="50.43445" lon="4.83443">
        <ele>186.6</ele>
        <time>2025-04-05T06:18:32Z</time>
      </trkpt>
      <trkpt lat="50.43443" lon="4.83442">
        <ele>187.2</ele>
        <time>2025-04-05T06:18:33Z</time>
      </trkpt>
      <trkpt lat="50.4344" lon="4.83441">
        <ele>187.6</ele>
        <time>2025-04-05T06:18:34Z</time>
      </trkpt>
      <trkpt lat="50.43438" lon="4.83441">
        <ele>188</ele>
        <time>2025-04-05T06:18:35Z</time>
      </trkpt>
      <trkpt lat="50.43435" lon="4.8344">
        <ele>188.2</ele>
        <time>2025-04-05T06:18:36Z</time>
      </trkpt>
      <trkpt lat="50.43433" lon="4.83439">
        <ele>188.6</ele>
        <time>2025-04-05T06:18:37Z</time>
      </trkpt>
      <trkpt lat="50.43431" lon="4.83439">
        <ele>188.8</ele>
        <time>2025-04-05T06:18:38Z</time>
      </trkpt>
      <trkpt lat="50.43429" lon="4.83438">
        <ele>189.2</ele>
        <time>2025-04-05T06:18:39Z</time>
      </trkpt>
      <trkpt lat="50.43427" lon="4.83437">
        <ele>189.4</ele>
        <time>2025-04-05T06:18:40Z</time>
      </trkpt>
      <trkpt lat="50.43425" lon="4.83436">
        <ele>189.8</ele>
        <time>2025-04-05T06:18:41Z</time>
      </trkpt>
      <trkpt lat="50.43423" lon="4.83436">
        <ele>190.2</ele>
        <time>2025-04-05T06:18:42Z</time>
      </trkpt>
      <trkpt lat="50.43421" lon="4.83435">
        <ele>190.4</ele>
        <time>2025-04-05T06:18:43Z</time>
      </trkpt>
      <trkpt lat="50.43419" lon="4.83434">
        <ele>190.6</ele>
        <time>2025-04-05T06:18:44Z</time>
      </trkpt>
      <trkpt lat="50.43417" lon="4.83434">
        <ele>191</ele>
        <time>2025-04-05T06:18:45Z</time>
      </trkpt>
      <trkpt lat="50.43415" lon="4.83433">
        <ele>191.2</ele>
        <time>2025-04-05T06:18:46Z</time>
      </trkpt>
      <trkpt lat="50.43413" lon="4.83432">
        <ele>191.6</ele>
        <time>2025-04-05T06:18:47Z</time>
      </trkpt>
      <trkpt lat="50.43411" lon="4.83432">
        <ele>191.8</ele>
        <time>2025-04-05T06:18:48Z</time>
      </trkpt>
      <trkpt lat="50.43408" lon="4.83431">
        <ele>192</ele>
        <time>2025-04-05T06:18:49Z</time>
      </trkpt>
      <trkpt lat="50.43406" lon="4.8343">
        <ele>192.4</ele>
        <time>2025-04-05T06:18:50Z</time>
      </trkpt>
      <trkpt lat="50.43404" lon="4.8343">
        <ele>192.6</ele>
        <time>2025-04-05T06:18:51Z</time>
      </trkpt>
      <trkpt lat="50.43401" lon="4.83429">
        <ele>192.8</ele>
        <time>2025-04-05T06:18:52Z</time>
      </trkpt>
      <trkpt lat="50.43399" lon="4.83428">
        <ele>193.2</ele>
        <time>2025-04-05T06:18:53Z</time>
      </trkpt>
      <trkpt lat="50.43397" lon="4.83427">
        <ele>193.4</ele>
        <time>2025-04-05T06:18:54Z</time>
      </trkpt>
      <trkpt lat="50.43395" lon="4.83426">
        <ele>193.8</ele>
        <time>2025-04-05T06:18:55Z</time>
      </trkpt>
      <trkpt lat="50.43392" lon="4.83425">
        <ele>194</ele>
        <time>2025-04-05T06:18:56Z</time>
      </trkpt>
      <trkpt lat="50.4339" lon="4.83425">
        <ele>194.2</ele>
        <time>2025-04-05T06:18:57Z</time>
      </trkpt>
      <trkpt lat="50.43387" lon="4.83424">
        <ele>194.4</ele>
        <time>2025-04-05T06:18:58Z</time>
      </trkpt>
      <trkpt lat="50.43384" lon="4.83423">
        <ele>194.6</ele>
        <time>2025-04-05T06:18:59Z</time>
      </trkpt>
      <trkpt lat="50.43382" lon="4.83423">
        <ele>194.8</ele>
        <time>2025-04-05T06:19:00Z</time>
      </trkpt>
      <trkpt lat="50.43379" lon="4.83422">
        <ele>195</ele>
        <time>2025-04-05T06:19:01Z</time>
      </trkpt>
      <trkpt lat="50.43377" lon="4.83421">
        <ele>195.4</ele>
        <time>2025-04-05T06:19:02Z</time>
      </trkpt>
      <trkpt lat="50.43374" lon="4.8342">
        <ele>195.6</ele>
        <time>2025-04-05T06:19:03Z</time>
      </trkpt>
      <trkpt lat="50.43372" lon="4.8342">
        <ele>195.8</ele>
        <time>2025-04-05T06:19:04Z</time>
      </trkpt>
      <trkpt lat="50.43369" lon="4.83419">
        <ele>196</ele>
        <time>2025-04-05T06:19:05Z</time>
      </trkpt>
      <trkpt lat="50.43366" lon="4.83418">
        <ele>196.2</ele>
        <time>2025-04-05T06:19:06Z</time>
      </trkpt>
      <trkpt lat="50.43363" lon="4.83417">
        <ele>196.4</ele>
        <time>2025-04-05T06:19:07Z</time>
      </trkpt>
      <trkpt lat="50.4336" lon="4.83416">
        <ele>196.8</ele>
        <time>2025-04-05T06:19:08Z</time>
      </trkpt>
      <trkpt lat="50.43357" lon="4.83415">
        <ele>197</ele>
        <time>2025-04-05T06:19:09Z</time>
      </trkpt>
      <trkpt lat="50.43354" lon="4.83414">
        <ele>197.2</ele>
        <time>2025-04-05T06:19:10Z</time>
      </trkpt>
      <trkpt lat="50.43352" lon="4.83413">
        <ele>197.4</ele>
        <time>2025-04-05T06:19:11Z</time>
      </trkpt>
      <trkpt lat="50.43349" lon="4.83412">
        <ele>197.6</ele>
        <time>2025-04-05T06:19:12Z</time>
      </trkpt>
      <trkpt lat="50.43347" lon="4.83411">
        <ele>197.8</ele>
        <time>2025-04-05T06:19:13Z</time>
      </trkpt>
      <trkpt lat="50.43344" lon="4.8341">
        <ele>198.2</ele>
        <time>2025-04-05T06:19:14Z</time>
      </trkpt>
      <trkpt lat="50.43341" lon="4.83409">
        <ele>198.4</ele>
        <time>2025-04-05T06:19:15Z</time>
      </trkpt>
      <trkpt lat="50.43338" lon="4.83409">
        <ele>198.6</ele>
        <time>2025-04-05T06:19:16Z</time>
      </trkpt>
      <trkpt lat="50.43335" lon="4.83408">
        <ele>198.8</ele>
        <time>2025-04-05T06:19:17Z</time>
      </trkpt>
      <trkpt lat="50.43333" lon="4.83407">
        <ele>199</ele>
        <time>2025-04-05T06:19:18Z</time>
      </trkpt>
      <trkpt lat="50.4333" lon="4.83406">
        <ele>199.4</ele>
        <time>2025-04-05T06:19:19Z</time>
      </trkpt>
      <trkpt lat="50.43327" lon="4.83405">
        <ele>199.6</ele>
        <time>2025-04-05T06:19:20Z</time>
      </trkpt>
      <trkpt lat="50.43324" lon="4.83404">
        <ele>199.8</ele>
        <time>2025-04-05T06:19:21Z</time>
      </trkpt>
      <trkpt lat="50.43322" lon="4.83404">
        <ele>200</ele>
        <time>2025-04-05T06:19:22Z</time>
      </trkpt>
      <trkpt lat="50.43319" lon="4.83403">
        <ele>200.2</ele>
        <time>2025-04-05T06:19:23Z</time>
      </trkpt>
      <trkpt lat="50.43317" lon="4.83402">
        <ele>200.6</ele>
        <time>2025-04-05T06:19:24Z</time>
      </trkpt>
      <trkpt lat="50.43314" lon="4.83402">
        <ele>200.8</ele>
        <time>2025-04-05T06:19:25Z</time>
      </trkpt>
      <trkpt lat="50.43312" lon="4.83401">
        <ele>201</ele>
        <time>2025-04-05T06:19:26Z</time>
      </trkpt>
      <trkpt lat="50.43309" lon="4.834">
        <ele>201.2</ele>
        <time>2025-04-05T06:19:27Z</time>
      </trkpt>
      <trkpt lat="50.43306" lon="4.83399">
        <ele>201.4</ele>
        <time>2025-04-05T06:19:28Z</time>
      </trkpt>
      <trkpt lat="50.43303" lon="4.83398">
        <ele>201.4</ele>
        <time>2025-04-05T06:19:29Z</time>
      </trkpt>
      <trkpt lat="50.433" lon="4.83397">
        <ele>201.6</ele>
        <time>2025-04-05T06:19:30Z</time>
      </trkpt>
      <trkpt lat="50.43297" lon="4.83396">
        <ele>201.6</ele>
        <time>2025-04-05T06:19:31Z</time>
      </trkpt>
      <trkpt lat="50.43294" lon="4.83396">
        <ele>201.8</ele>
        <time>2025-04-05T06:19:32Z</time>
      </trkpt>
      <trkpt lat="50.43291" lon="4.83395">
        <ele>201.8</ele>
        <time>2025-04-05T06:19:33Z</time>
      </trkpt>
      <trkpt lat="50.43288" lon="4.83393">
        <ele>202</ele>
        <time>2025-04-05T06:19:34Z</time>
      </trkpt>
      <trkpt lat="50.43284" lon="4.83392">
        <ele>202</ele>
        <time>2025-04-05T06:19:35Z</time>
      </trkpt>
      <trkpt lat="50.43281" lon="4.83391">
        <ele>202.2</ele>
        <time>2025-04-05T06:19:36Z</time>
      </trkpt>
      <trkpt lat="50.43277" lon="4.8339">
        <ele>202.2</ele>
        <time>2025-04-05T06:19:37Z</time>
      </trkpt>
      <trkpt lat="50.43274" lon="4.83389">
        <ele>202.2</ele>
        <time>2025-04-05T06:19:38Z</time>
      </trkpt>
      <trkpt lat="50.43271" lon="4.83388">
        <ele>202.4</ele>
        <time>2025-04-05T06:19:39Z</time>
      </trkpt>
      <trkpt lat="50.43267" lon="4.83387">
        <ele>202.4</ele>
        <time>2025-04-05T06:19:40Z</time>
      </trkpt>
      <trkpt lat="50.43264" lon="4.83386">
        <ele>202.6</ele>
        <time>2025-04-05T06:19:41Z</time>
      </trkpt>
      <trkpt lat="50.4326" lon="4.83384">
        <ele>202.6</ele>
        <time>2025-04-05T06:19:42Z</time>
      </trkpt>
      <trkpt lat="50.43256" lon="4.83383">
        <ele>202.8</ele>
        <time>2025-04-05T06:19:43Z</time>
      </trkpt>
      <trkpt lat="50.43252" lon="4.83382">
        <ele>202.8</ele>
        <time>2025-04-05T06:19:44Z</time>
      </trkpt>
      <trkpt lat="50.43248" lon="4.83381">
        <ele>203</ele>
        <time>2025-04-05T06:19:45Z</time>
      </trkpt>
      <trkpt lat="50.43245" lon="4.8338">
        <ele>203</ele>
        <time>2025-04-05T06:19:46Z</time>
      </trkpt>
      <trkpt lat="50.43241" lon="4.83379">
        <ele>203.2</ele>
        <time>2025-04-05T06:19:47Z</time>
      </trkpt>
      <trkpt lat="50.43237" lon="4.83378">
        <ele>203.2</ele>
        <time>2025-04-05T06:19:48Z</time>
      </trkpt>
      <trkpt lat="50.43234" lon="4.83377">
        <ele>203.4</ele>
        <time>2025-04-05T06:19:49Z</time>
      </trkpt>
      <trkpt lat="50.4323" lon="4.83375">
        <ele>203.6</ele>
        <time>2025-04-05T06:19:50Z</time>
      </trkpt>
      <trkpt lat="50.43226" lon="4.83374">
        <ele>203.6</ele>
        <time>2025-04-05T06:19:51Z</time>
      </trkpt>
      <trkpt lat="50.43222" lon="4.83373">
        <ele>203.8</ele>
        <time>2025-04-05T06:19:52Z</time>
      </trkpt>
      <trkpt lat="50.43218" lon="4.83372">
        <ele>203.8</ele>
        <time>2025-04-05T06:19:53Z</time>
      </trkpt>
      <trkpt lat="50.43214" lon="4.83371">
        <ele>204</ele>
        <time>2025-04-05T06:19:54Z</time>
      </trkpt>
      <trkpt lat="50.43211" lon="4.83369">
        <ele>204</ele>
        <time>2025-04-05T06:19:55Z</time>
      </trkpt>
      <trkpt lat="50.43207" lon="4.83368">
        <ele>204.2</ele>
        <time>2025-04-05T06:19:56Z</time>
      </trkpt>
      <trkpt lat="50.43203" lon="4.83366">
        <ele>204.2</ele>
        <time>2025-04-05T06:19:57Z</time>
      </trkpt>
      <trkpt lat="50.43199" lon="4.83365">
        <ele>204.4</ele>
        <time>2025-04-05T06:19:58Z</time>
      </trkpt>
      <trkpt lat="50.43195" lon="4.83364">
        <ele>204.4</ele>
        <time>2025-04-05T06:19:59Z</time>
      </trkpt>
      <trkpt lat="50.43192" lon="4.83362">
        <ele>204.4</ele>
        <time>2025-04-05T06:20:00Z</time>
      </trkpt>
      <trkpt lat="50.43188" lon="4.83361">
        <ele>204.6</ele>
        <time>2025-04-05T06:20:01Z</time>
      </trkpt>
      <trkpt lat="50.43184" lon="4.83361">
        <ele>204.6</ele>
        <time>2025-04-05T06:20:02Z</time>
      </trkpt>
      <trkpt lat="50.4318" lon="4.8336">
        <ele>204.6</ele>
        <time>2025-04-05T06:20:03Z</time>
      </trkpt>
      <trkpt lat="50.43176" lon="4.83358">
        <ele>204.6</ele>
        <time>2025-04-05T06:20:04Z</time>
      </trkpt>
      <trkpt lat="50.43172" lon="4.83357">
        <ele>204.6</ele>
        <time>2025-04-05T06:20:05Z</time>
      </trkpt>
      <trkpt lat="50.43168" lon="4.83356">
        <ele>204.6</ele>
        <time>2025-04-05T06:20:06Z</time>
      </trkpt>
      <trkpt lat="50.43164" lon="4.83354">
        <ele>204.6</ele>
        <time>2025-04-05T06:20:07Z</time>
      </trkpt>
      <trkpt lat="50.4316" lon="4.83353">
        <ele>204.6</ele>
        <time>2025-04-05T06:20:08Z</time>
      </trkpt>
      <trkpt lat="50.43155" lon="4.83351">
        <ele>204.6</ele>
        <time>2025-04-05T06:20:09Z</time>
      </trkpt>
      <trkpt lat="50.43152" lon="4.83349">
        <ele>204.6</ele>
        <time>2025-04-05T06:20:10Z</time>
      </trkpt>
      <trkpt lat="50.43148" lon="4.83348">
        <ele>204.6</ele>
        <time>2025-04-05T06:20:11Z</time>
      </trkpt>
      <trkpt lat="50.43144" lon="4.83347">
        <ele>204.6</ele>
        <time>2025-04-05T06:20:12Z</time>
      </trkpt>
      <trkpt lat="50.4314" lon="4.83346">
        <ele>204.4</ele>
        <time>2025-04-05T06:20:13Z</time>
      </trkpt>
      <trkpt lat="50.43137" lon="4.83345">
        <ele>204.4</ele>
        <time>2025-04-05T06:20:14Z</time>
      </trkpt>
      <trkpt lat="50.43133" lon="4.83344">
        <ele>204.2</ele>
        <time>2025-04-05T06:20:15Z</time>
      </trkpt>
      <trkpt lat="50.43129" lon="4.83342">
        <ele>204</ele>
        <time>2025-04-05T06:20:16Z</time>
      </trkpt>
      <trkpt lat="50.43125" lon="4.83341">
        <ele>203.8</ele>
        <time>2025-04-05T06:20:17Z</time>
      </trkpt>
      <trkpt lat="50.43121" lon="4.83339">
        <ele>203.4</ele>
        <time>2025-04-05T06:20:18Z</time>
      </trkpt>
      <trkpt lat="50.43116" lon="4.83337">
        <ele>203.2</ele>
        <time>2025-04-05T06:20:19Z</time>
      </trkpt>
      <trkpt lat="50.43111" lon="4.83335">
        <ele>202.8</ele>
        <time>2025-04-05T06:20:20Z</time>
      </trkpt>
      <trkpt lat="50.43107" lon="4.83332">
        <ele>202.6</ele>
        <time>2025-04-05T06:20:21Z</time>
      </trkpt>
      <trkpt lat="50.43101" lon="4.83329">
        <ele>202.4</ele>
        <time>2025-04-05T06:20:22Z</time>
      </trkpt>
      <trkpt lat="50.43096" lon="4.83326">
        <ele>201.8</ele>
        <time>2025-04-05T06:20:23Z</time>
      </trkpt>
      <trkpt lat="50.4309" lon="4.83322">
        <ele>201.4</ele>
        <time>2025-04-05T06:20:24Z</time>
      </trkpt>
      <trkpt lat="50.43084" lon="4.83318">
        <ele>201</ele>
        <time>2025-04-05T06:20:25Z</time>
      </trkpt>
      <trkpt lat="50.43077" lon="4.83314">
        <ele>200.4</ele>
        <time>2025-04-05T06:20:26Z</time>
      </trkpt>
      <trkpt lat="50.4307" lon="4.83309">
        <ele>199.8</ele>
        <time>2025-04-05T06:20:27Z</time>
      </trkpt>
      <trkpt lat="50.43063" lon="4.83305">
        <ele>199.4</ele>
        <time>2025-04-05T06:20:28Z</time>
      </trkpt>
      <trkpt lat="50.43055" lon="4.83299">
        <ele>198.8</ele>
        <time>2025-04-05T06:20:29Z</time>
      </trkpt>
      <trkpt lat="50.43047" lon="4.83294">
        <ele>198.2</ele>
        <time>2025-04-05T06:20:30Z</time>
      </trkpt>
      <trkpt lat="50.43039" lon="4.83288">
        <ele>197.6</ele>
        <time>2025-04-05T06:20:31Z</time>
      </trkpt>
      <trkpt lat="50.43031" lon="4.83283">
        <ele>197.2</ele>
        <time>2025-04-05T06:20:32Z</time>
      </trkpt>
      <trkpt lat="50.43023" lon="4.83278">
        <ele>196.8</ele>
        <time>2025-04-05T06:20:33Z</time>
      </trkpt>
      <trkpt lat="50.43015" lon="4.83273">
        <ele>196.4</ele>
        <time>2025-04-05T06:20:34Z</time>
      </trkpt>
      <trkpt lat="50.43007" lon="4.8327">
        <ele>196.2</ele>
        <time>2025-04-05T06:20:35Z</time>
      </trkpt>
      <trkpt lat="50.42998" lon="4.83268">
        <ele>196.2</ele>
        <time>2025-04-05T06:20:36Z</time>
      </trkpt>
      <trkpt lat="50.4299" lon="4.83267">
        <ele>196.2</ele>
        <time>2025-04-05T06:20:37Z</time>
      </trkpt>
      <trkpt lat="50.42983" lon="4.83267">
        <ele>196.4</ele>
        <time>2025-04-05T06:20:38Z</time>
      </trkpt>
      <trkpt lat="50.42976" lon="4.83268">
        <ele>196.6</ele>
        <time>2025-04-05T06:20:39Z</time>
      </trkpt>
      <trkpt lat="50.4297" lon="4.8327">
        <ele>197</ele>
        <time>2025-04-05T06:20:40Z</time>
      </trkpt>
      <trkpt lat="50.42965" lon="4.83272">
        <ele>197.4</ele>
        <time>2025-04-05T06:20:41Z</time>
      </trkpt>
      <trkpt lat="50.4296" lon="4.83273">
        <ele>197.8</ele>
        <time>2025-04-05T06:20:42Z</time>
      </trkpt>
      <trkpt lat="50.42955" lon="4.83275">
        <ele>198.2</ele>
        <time>2025-04-05T06:20:43Z</time>
      </trkpt>
      <trkpt lat="50.42952" lon="4.83277">
        <ele>198.4</ele>
        <time>2025-04-05T06:20:44Z</time>
      </trkpt>
      <trkpt lat="50.42949" lon="4.83278">
        <ele>198.8</ele>
        <time>2025-04-05T06:20:45Z</time>
      </trkpt>
      <trkpt lat="50.42945" lon="4.8328">
        <ele>199</ele>
        <time>2025-04-05T06:20:46Z</time>
      </trkpt>
      <trkpt lat="50.42941" lon="4.83281">
        <ele>199.2</ele>
        <time>2025-04-05T06:20:47Z</time>
      </trkpt>
      <trkpt lat="50.42937" lon="4.83282">
        <ele>199.6</ele>
        <time>2025-04-05T06:20:48Z</time>
      </trkpt>
      <trkpt lat="50.42933" lon="4.83283">
        <ele>199.8</ele>
        <time>2025-04-05T06:20:49Z</time>
      </trkpt>
      <trkpt lat="50.42929" lon="4.83285">
        <ele>199.8</ele>
        <time>2025-04-05T06:20:50Z</time>
      </trkpt>
      <trkpt lat="50.42925" lon="4.83286">
        <ele>200</ele>
        <time>2025-04-05T06:20:51Z</time>
      </trkpt>
      <trkpt lat="50.42921" lon="4.83287">
        <ele>200.2</ele>
        <time>2025-04-05T06:20:52Z</time>
      </trkpt>
      <trkpt lat="50.42917" lon="4.83289">
        <ele>200.2</ele>
        <time>2025-04-05T06:20:53Z</time>
      </trkpt>
      <trkpt lat="50.42912" lon="4.8329">
        <ele>200.2</ele>
        <time>2025-04-05T06:20:54Z</time>
      </trkpt>
      <trkpt lat="50.42907" lon="4.83292">
        <ele>200.2</ele>
        <time>2025-04-05T06:20:55Z</time>
      </trkpt>
      <trkpt lat="50.42903" lon="4.83293">
        <ele>200.2</ele>
        <time>2025-04-05T06:20:56Z</time>
      </trkpt>
      <trkpt lat="50.42898" lon="4.83295">
        <ele>200.2</ele>
        <time>2025-04-05T06:20:57Z</time>
      </trkpt>
      <trkpt lat="50.42894" lon="4.83296">
        <ele>200.2</ele>
        <time>2025-04-05T06:20:58Z</time>
      </trkpt>
      <trkpt lat="50.42889" lon="4.83297">
        <ele>200.2</ele>
        <time>2025-04-05T06:20:59Z</time>
      </trkpt>
      <trkpt lat="50.42885" lon="4.83298">
        <ele>200.2</ele>
        <time>2025-04-05T06:21:00Z</time>
      </trkpt>
      <trkpt lat="50.4288" lon="4.83299">
        <ele>200</ele>
        <time>2025-04-05T06:21:01Z</time>
      </trkpt>
      <trkpt lat="50.42875" lon="4.83301">
        <ele>200</ele>
        <time>2025-04-05T06:21:02Z</time>
      </trkpt>
      <trkpt lat="50.4287" lon="4.83302">
        <ele>200</ele>
        <time>2025-04-05T06:21:03Z</time>
      </trkpt>
      <trkpt lat="50.42865" lon="4.83304">
        <ele>200</ele>
        <time>2025-04-05T06:21:04Z</time>
      </trkpt>
      <trkpt lat="50.42859" lon="4.83306">
        <ele>199.8</ele>
        <time>2025-04-05T06:21:05Z</time>
      </trkpt>
      <trkpt lat="50.42854" lon="4.83308">
        <ele>199.8</ele>
        <time>2025-04-05T06:21:06Z</time>
      </trkpt>
      <trkpt lat="50.4285" lon="4.83309">
        <ele>199.8</ele>
        <time>2025-04-05T06:21:07Z</time>
      </trkpt>
      <trkpt lat="50.42846" lon="4.83311">
        <ele>199.6</ele>
        <time>2025-04-05T06:21:08Z</time>
      </trkpt>
      <trkpt lat="50.42841" lon="4.83313">
        <ele>199.6</ele>
        <time>2025-04-05T06:21:09Z</time>
      </trkpt>
      <trkpt lat="50.42837" lon="4.83314">
        <ele>199.6</ele>
        <time>2025-04-05T06:21:10Z</time>
      </trkpt>
      <trkpt lat="50.42832" lon="4.83316">
        <ele>199.6</ele>
        <time>2025-04-05T06:21:11Z</time>
      </trkpt>
      <trkpt lat="50.42828" lon="4.83318">
        <ele>199.8</ele>
        <time>2025-04-05T06:21:12Z</time>
      </trkpt>
      <trkpt lat="50.42823" lon="4.8332">
        <ele>199.8</ele>
        <time>2025-04-05T06:21:13Z</time>
      </trkpt>
      <trkpt lat="50.42819" lon="4.83322">
        <ele>199.8</ele>
        <time>2025-04-05T06:21:14Z</time>
      </trkpt>
      <trkpt lat="50.42814" lon="4.83323">
        <ele>199.8</ele>
        <time>2025-04-05T06:21:15Z</time>
      </trkpt>
      <trkpt lat="50.4281" lon="4.83324">
        <ele>199.8</ele>
        <time>2025-04-05T06:21:16Z</time>
      </trkpt>
      <trkpt lat="50.42806" lon="4.83325">
        <ele>200</ele>
        <time>2025-04-05T06:21:17Z</time>
      </trkpt>
      <trkpt lat="50.42802" lon="4.83324">
        <ele>200</ele>
        <time>2025-04-05T06:21:18Z</time>
      </trkpt>
      <trkpt lat="50.42798" lon="4.83323">
        <ele>200.2</ele>
        <time>2025-04-05T06:21:19Z</time>
      </trkpt>
      <trkpt lat="50.42795" lon="4.8332">
        <ele>200.2</ele>
        <time>2025-04-05T06:21:20Z</time>
      </trkpt>
      <trkpt lat="50.42792" lon="4.83317">
        <ele>200.2</ele>
        <time>2025-04-05T06:21:21Z</time>
      </trkpt>
      <trkpt lat="50.42788" lon="4.83314">
        <ele>200.2</ele>
        <time>2025-04-05T06:21:22Z</time>
      </trkpt>
      <trkpt lat="50.42785" lon="4.8331">
        <ele>200.2</ele>
        <time>2025-04-05T06:21:23Z</time>
      </trkpt>
      <trkpt lat="50.42782" lon="4.83306">
        <ele>200</ele>
        <time>2025-04-05T06:21:24Z</time>
      </trkpt>
      <trkpt lat="50.42779" lon="4.83302">
        <ele>200</ele>
        <time>2025-04-05T06:21:25Z</time>
      </trkpt>
      <trkpt lat="50.42776" lon="4.83297">
        <ele>199.8</ele>
        <time>2025-04-05T06:21:26Z</time>
      </trkpt>
      <trkpt lat="50.42772" lon="4.83292">
        <ele>199.8</ele>
        <time>2025-04-05T06:21:27Z</time>
      </trkpt>
      <trkpt lat="50.42768" lon="4.83287">
        <ele>199.6</ele>
        <time>2025-04-05T06:21:28Z</time>
      </trkpt>
      <trkpt lat="50.42764" lon="4.83282">
        <ele>199.4</ele>
        <time>2025-04-05T06:21:29Z</time>
      </trkpt>
      <trkpt lat="50.42761" lon="4.83277">
        <ele>199</ele>
        <time>2025-04-05T06:21:30Z</time>
      </trkpt>
      <trkpt lat="50.42756" lon="4.83271">
        <ele>198.8</ele>
        <time>2025-04-05T06:21:31Z</time>
      </trkpt>
      <trkpt lat="50.42752" lon="4.83265">
        <ele>198.4</ele>
        <time>2025-04-05T06:21:32Z</time>
      </trkpt>
      <trkpt lat="50.42747" lon="4.83259">
        <ele>198</ele>
        <time>2025-04-05T06:21:33Z</time>
      </trkpt>
      <trkpt lat="50.42742" lon="4.83252">
        <ele>197.6</ele>
        <time>2025-04-05T06:21:34Z</time>
      </trkpt>
      <trkpt lat="50.42736" lon="4.83244">
        <ele>197</ele>
        <time>2025-04-05T06:21:35Z</time>
      </trkpt>
      <trkpt lat="50.4273" lon="4.83237">
        <ele>196.6</ele>
        <time>2025-04-05T06:21:36Z</time>
      </trkpt>
      <trkpt lat="50.42724" lon="4.83229">
        <ele>196</ele>
        <time>2025-04-05T06:21:37Z</time>
      </trkpt>
      <trkpt lat="50.42718" lon="4.83221">
        <ele>195.4</ele>
        <time>2025-04-05T06:21:38Z</time>
      </trkpt>
      <trkpt lat="50.42712" lon="4.83214">
        <ele>195</ele>
        <time>2025-04-05T06:21:39Z</time>
      </trkpt>
      <trkpt lat="50.42706" lon="4.83206">
        <ele>194.4</ele>
        <time>2025-04-05T06:21:40Z</time>
      </trkpt>
      <trkpt lat="50.42699" lon="4.83197">
        <ele>193.8</ele>
        <time>2025-04-05T06:21:41Z</time>
      </trkpt>
      <trkpt lat="50.42692" lon="4.83188">
        <ele>193</ele>
        <time>2025-04-05T06:21:42Z</time>
      </trkpt>
      <trkpt lat="50.42685" lon="4.83178">
        <ele>192.4</ele>
        <time>2025-04-05T06:21:43Z</time>
      </trkpt>
      <trkpt lat="50.42677" lon="4.83169">
        <ele>191.8</ele>
        <time>2025-04-05T06:21:44Z</time>
      </trkpt>
      <trkpt lat="50.4267" lon="4.83159">
        <ele>191.2</ele>
        <time>2025-04-05T06:21:45Z</time>
      </trkpt>
      <trkpt lat="50.42663" lon="4.8315">
        <ele>190.6</ele>
        <time>2025-04-05T06:21:46Z</time>
      </trkpt>
      <trkpt lat="50.42656" lon="4.83141">
        <ele>190</ele>
        <time>2025-04-05T06:21:47Z</time>
      </trkpt>
      <trkpt lat="50.42648" lon="4.83132">
        <ele>189.4</ele>
        <time>2025-04-05T06:21:48Z</time>
      </trkpt>
      <trkpt lat="50.42641" lon="4.83122">
        <ele>189</ele>
        <time>2025-04-05T06:21:49Z</time>
      </trkpt>
      <trkpt lat="50.42634" lon="4.83113">
        <ele>188.4</ele>
        <time>2025-04-05T06:21:50Z</time>
      </trkpt>
      <trkpt lat="50.42627" lon="4.83105">
        <ele>188</ele>
        <time>2025-04-05T06:21:51Z</time>
      </trkpt>
      <trkpt lat="50.42621" lon="4.83097">
        <ele>187.6</ele>
        <time>2025-04-05T06:21:52Z</time>
      </trkpt>
      <trkpt lat="50.42615" lon="4.83088">
        <ele>187</ele>
        <time>2025-04-05T06:21:53Z</time>
      </trkpt>
      <trkpt lat="50.42608" lon="4.83079">
        <ele>186.6</ele>
        <time>2025-04-05T06:21:54Z</time>
      </trkpt>
      <trkpt lat="50.42601" lon="4.8307">
        <ele>186.2</ele>
        <time>2025-04-05T06:21:55Z</time>
      </trkpt>
      <trkpt lat="50.42595" lon="4.83061">
        <ele>185.6</ele>
        <time>2025-04-05T06:21:56Z</time>
      </trkpt>
      <trkpt lat="50.42587" lon="4.83052">
        <ele>185.2</ele>
        <time>2025-04-05T06:21:57Z</time>
      </trkpt>
      <trkpt lat="50.4258" lon="4.83044">
        <ele>184.8</ele>
        <time>2025-04-05T06:21:58Z</time>
      </trkpt>
      <trkpt lat="50.42572" lon="4.83036">
        <ele>184.4</ele>
        <time>2025-04-05T06:21:59Z</time>
      </trkpt>
      <trkpt lat="50.42563" lon="4.83028">
        <ele>184.2</ele>
        <time>2025-04-05T06:22:00Z</time>
      </trkpt>
      <trkpt lat="50.42555" lon="4.83022">
        <ele>183.8</ele>
        <time>2025-04-05T06:22:01Z</time>
      </trkpt>
      <trkpt lat="50.42546" lon="4.83016">
        <ele>183.6</ele>
        <time>2025-04-05T06:22:02Z</time>
      </trkpt>
      <trkpt lat="50.42537" lon="4.83011">
        <ele>183.2</ele>
        <time>2025-04-05T06:22:03Z</time>
      </trkpt>
      <trkpt lat="50.42529" lon="4.83005">
        <ele>182.8</ele>
        <time>2025-04-05T06:22:04Z</time>
      </trkpt>
      <trkpt lat="50.42521" lon="4.83">
        <ele>182.6</ele>
        <time>2025-04-05T06:22:05Z</time>
      </trkpt>
      <trkpt lat="50.42512" lon="4.82995">
        <ele>182.4</ele>
        <time>2025-04-05T06:22:06Z</time>
      </trkpt>
      <trkpt lat="50.42504" lon="4.82989">
        <ele>182.2</ele>
        <time>2025-04-05T06:22:07Z</time>
      </trkpt>
      <trkpt lat="50.42496" lon="4.82984">
        <ele>182</ele>
        <time>2025-04-05T06:22:08Z</time>
      </trkpt>
      <trkpt lat="50.42489" lon="4.82978">
        <ele>181.8</ele>
        <time>2025-04-05T06:22:09Z</time>
      </trkpt>
      <trkpt lat="50.42481" lon="4.82972">
        <ele>181.6</ele>
        <time>2025-04-05T06:22:10Z</time>
      </trkpt>
      <trkpt lat="50.42474" lon="4.82966">
        <ele>181.6</ele>
        <time>2025-04-05T06:22:11Z</time>
      </trkpt>
      <trkpt lat="50.42467" lon="4.8296">
        <ele>181.2</ele>
        <time>2025-04-05T06:22:12Z</time>
      </trkpt>
      <trkpt lat="50.4246" lon="4.82953">
        <ele>181</ele>
        <time>2025-04-05T06:22:13Z</time>
      </trkpt>
      <trkpt lat="50.42453" lon="4.82946">
        <ele>180.8</ele>
        <time>2025-04-05T06:22:14Z</time>
      </trkpt>
      <trkpt lat="50.42446" lon="4.82939">
        <ele>180.8</ele>
        <time>2025-04-05T06:22:15Z</time>
      </trkpt>
      <trkpt lat="50.42439" lon="4.82933">
        <ele>180.6</ele>
        <time>2025-04-05T06:22:16Z</time>
      </trkpt>
      <trkpt lat="50.42432" lon="4.82927">
        <ele>180.6</ele>
        <time>2025-04-05T06:22:17Z</time>
      </trkpt>
      <trkpt lat="50.42427" lon="4.82921">
        <ele>180.6</ele>
        <time>2025-04-05T06:22:18Z</time>
      </trkpt>
      <trkpt lat="50.42421" lon="4.82915">
        <ele>180.6</ele>
        <time>2025-04-05T06:22:19Z</time>
      </trkpt>
      <trkpt lat="50.42415" lon="4.82909">
        <ele>180.8</ele>
        <time>2025-04-05T06:22:20Z</time>
      </trkpt>
      <trkpt lat="50.4241" lon="4.82904">
        <ele>180.8</ele>
        <time>2025-04-05T06:22:21Z</time>
      </trkpt>
      <trkpt lat="50.42404" lon="4.82899">
        <ele>181</ele>
        <time>2025-04-05T06:22:22Z</time>
      </trkpt>
      <trkpt lat="50.42399" lon="4.82894">
        <ele>181.2</ele>
        <time>2025-04-05T06:22:23Z</time>
      </trkpt>
      <trkpt lat="50.42394" lon="4.82889">
        <ele>181.2</ele>
        <time>2025-04-05T06:22:24Z</time>
      </trkpt>
      <trkpt lat="50.4239" lon="4.82884">
        <ele>181.6</ele>
        <time>2025-04-05T06:22:25Z</time>
      </trkpt>
      <trkpt lat="50.42386" lon="4.8288">
        <ele>181.8</ele>
        <time>2025-04-05T06:22:26Z</time>
      </trkpt>
      <trkpt lat="50.42381" lon="4.82876">
        <ele>182</ele>
        <time>2025-04-05T06:22:27Z</time>
      </trkpt>
      <trkpt lat="50.42377" lon="4.82872">
        <ele>182.4</ele>
        <time>2025-04-05T06:22:28Z</time>
      </trkpt>
      <trkpt lat="50.42373" lon="4.82868">
        <ele>182.8</ele>
        <time>2025-04-05T06:22:29Z</time>
      </trkpt>
      <trkpt lat="50.42369" lon="4.82864">
        <ele>183</ele>
        <time>2025-04-05T06:22:30Z</time>
      </trkpt>
      <trkpt lat="50.42365" lon="4.8286">
        <ele>183.4</ele>
        <time>2025-04-05T06:22:31Z</time>
      </trkpt>
      <trkpt lat="50.42361" lon="4.82856">
        <ele>183.6</ele>
        <time>2025-04-05T06:22:32Z</time>
      </trkpt>
      <trkpt lat="50.42358" lon="4.82853">
        <ele>183.8</ele>
        <time>2025-04-05T06:22:33Z</time>
      </trkpt>
      <trkpt lat="50.42354" lon="4.82849">
        <ele>184</ele>
        <time>2025-04-05T06:22:34Z</time>
      </trkpt>
      <trkpt lat="50.42351" lon="4.82845">
        <ele>184</ele>
        <time>2025-04-05T06:22:35Z</time>
      </trkpt>
      <trkpt lat="50.42347" lon="4.82841">
        <ele>184.2</ele>
        <time>2025-04-05T06:22:36Z</time>
      </trkpt>
      <trkpt lat="50.42344" lon="4.82837">
        <ele>184.2</ele>
        <time>2025-04-05T06:22:37Z</time>
      </trkpt>
      <trkpt lat="50.42339" lon="4.82833">
        <ele>184.4</ele>
        <time>2025-04-05T06:22:38Z</time>
      </trkpt>
      <trkpt lat="50.42336" lon="4.8283">
        <ele>184.4</ele>
        <time>2025-04-05T06:22:39Z</time>
      </trkpt>
      <trkpt lat="50.42331" lon="4.82825">
        <ele>184.4</ele>
        <time>2025-04-05T06:22:40Z</time>
      </trkpt>
      <trkpt lat="50.42327" lon="4.82821">
        <ele>184.6</ele>
        <time>2025-04-05T06:22:41Z</time>
      </trkpt>
      <trkpt lat="50.42322" lon="4.82816">
        <ele>184.6</ele>
        <time>2025-04-05T06:22:42Z</time>
      </trkpt>
      <trkpt lat="50.42317" lon="4.82812">
        <ele>184.6</ele>
        <time>2025-04-05T06:22:43Z</time>
      </trkpt>
      <trkpt lat="50.42313" lon="4.82807">
        <ele>184.8</ele>
        <time>2025-04-05T06:22:44Z</time>
      </trkpt>
      <trkpt lat="50.42308" lon="4.82803">
        <ele>184.8</ele>
        <time>2025-04-05T06:22:45Z</time>
      </trkpt>
      <trkpt lat="50.42304" lon="4.82799">
        <ele>185</ele>
        <time>2025-04-05T06:22:46Z</time>
      </trkpt>
      <trkpt lat="50.42299" lon="4.82794">
        <ele>185</ele>
        <time>2025-04-05T06:22:47Z</time>
      </trkpt>
      <trkpt lat="50.42295" lon="4.8279">
        <ele>185</ele>
        <time>2025-04-05T06:22:48Z</time>
      </trkpt>
      <trkpt lat="50.42291" lon="4.82785">
        <ele>185.2</ele>
        <time>2025-04-05T06:22:49Z</time>
      </trkpt>
      <trkpt lat="50.42286" lon="4.8278">
        <ele>185.2</ele>
        <time>2025-04-05T06:22:50Z</time>
      </trkpt>
      <trkpt lat="50.42282" lon="4.82776">
        <ele>185.4</ele>
        <time>2025-04-05T06:22:51Z</time>
      </trkpt>
      <trkpt lat="50.42278" lon="4.82771">
        <ele>185.6</ele>
        <time>2025-04-05T06:22:52Z</time>
      </trkpt>
      <trkpt lat="50.42273" lon="4.82766">
        <ele>185.8</ele>
        <time>2025-04-05T06:22:53Z</time>
      </trkpt>
      <trkpt lat="50.42269" lon="4.82762">
        <ele>186</ele>
        <time>2025-04-05T06:22:54Z</time>
      </trkpt>
      <trkpt lat="50.42265" lon="4.82758">
        <ele>186.2</ele>
        <time>2025-04-05T06:22:55Z</time>
      </trkpt>
      <trkpt lat="50.4226" lon="4.82754">
        <ele>186.4</ele>
        <time>2025-04-05T06:22:56Z</time>
      </trkpt>
      <trkpt lat="50.42257" lon="4.8275">
        <ele>186.8</ele>
        <time>2025-04-05T06:22:57Z</time>
      </trkpt>
      <trkpt lat="50.42253" lon="4.82746">
        <ele>187</ele>
        <time>2025-04-05T06:22:58Z</time>
      </trkpt>
      <trkpt lat="50.42249" lon="4.82743">
        <ele>187.4</ele>
        <time>2025-04-05T06:22:59Z</time>
      </trkpt>
      <trkpt lat="50.42245" lon="4.82739">
        <ele>187.6</ele>
        <time>2025-04-05T06:23:00Z</time>
      </trkpt>
      <trkpt lat="50.42242" lon="4.82736">
        <ele>188</ele>
        <time>2025-04-05T06:23:01Z</time>
      </trkpt>
      <trkpt lat="50.42239" lon="4.82732">
        <ele>188.2</ele>
        <time>2025-04-05T06:23:02Z</time>
      </trkpt>
      <trkpt lat="50.42235" lon="4.82728">
        <ele>188.6</ele>
        <time>2025-04-05T06:23:03Z</time>
      </trkpt>
      <trkpt lat="50.42232" lon="4.82725">
        <ele>189</ele>
        <time>2025-04-05T06:23:04Z</time>
      </trkpt>
      <trkpt lat="50.42228" lon="4.82721">
        <ele>189.4</ele>
        <time>2025-04-05T06:23:05Z</time>
      </trkpt>
      <trkpt lat="50.42225" lon="4.82718">
        <ele>189.6</ele>
        <time>2025-04-05T06:23:06Z</time>
      </trkpt>
      <trkpt lat="50.42221" lon="4.82714">
        <ele>190</ele>
        <time>2025-04-05T06:23:07Z</time>
      </trkpt>
      <trkpt lat="50.42218" lon="4.82711">
        <ele>190.4</ele>
        <time>2025-04-05T06:23:08Z</time>
      </trkpt>
      <trkpt lat="50.42214" lon="4.82707">
        <ele>190.8</ele>
        <time>2025-04-05T06:23:09Z</time>
      </trkpt>
      <trkpt lat="50.42211" lon="4.82704">
        <ele>191</ele>
        <time>2025-04-05T06:23:10Z</time>
      </trkpt>
      <trkpt lat="50.42207" lon="4.827">
        <ele>191.4</ele>
        <time>2025-04-05T06:23:11Z</time>
      </trkpt>
      <trkpt lat="50.42204" lon="4.82697">
        <ele>192</ele>
        <time>2025-04-05T06:23:12Z</time>
      </trkpt>
      <trkpt lat="50.42201" lon="4.82694">
        <ele>192.2</ele>
        <time>2025-04-05T06:23:13Z</time>
      </trkpt>
      <trkpt lat="50.42198" lon="4.82691">
        <ele>192.4</ele>
        <time>2025-04-05T06:23:14Z</time>
      </trkpt>
      <trkpt lat="50.42195" lon="4.82689">
        <ele>192.8</ele>
        <time>2025-04-05T06:23:15Z</time>
      </trkpt>
      <trkpt lat="50.42192" lon="4.82686">
        <ele>193</ele>
        <time>2025-04-05T06:23:16Z</time>
      </trkpt>
      <trkpt lat="50.42189" lon="4.82682">
        <ele>193.4</ele>
        <time>2025-04-05T06:23:17Z</time>
      </trkpt>
      <trkpt lat="50.42186" lon="4.8268">
        <ele>193.8</ele>
        <time>2025-04-05T06:23:18Z</time>
      </trkpt>
      <trkpt lat="50.42183" lon="4.82677">
        <ele>194</ele>
        <time>2025-04-05T06:23:19Z</time>
      </trkpt>
      <trkpt lat="50.4218" lon="4.82674">
        <ele>194.4</ele>
        <time>2025-04-05T06:23:20Z</time>
      </trkpt>
      <trkpt lat="50.42177" lon="4.82671">
        <ele>194.6</ele>
        <time>2025-04-05T06:23:21Z</time>
      </trkpt>
      <trkpt lat="50.42174" lon="4.82669">
        <ele>195</ele>
        <time>2025-04-05T06:23:22Z</time>
      </trkpt>
      <trkpt lat="50.42171" lon="4.82666">
        <ele>195.4</ele>
        <time>2025-04-05T06:23:23Z</time>
      </trkpt>
      <trkpt lat="50.42168" lon="4.82663">
        <ele>195.6</ele>
        <time>2025-04-05T06:23:24Z</time>
      </trkpt>
      <trkpt lat="50.42165" lon="4.8266">
        <ele>196</ele>
        <time>2025-04-05T06:23:25Z</time>
      </trkpt>
      <trkpt lat="50.42163" lon="4.82658">
        <ele>196.4</ele>
        <time>2025-04-05T06:23:26Z</time>
      </trkpt>
      <trkpt lat="50.4216" lon="4.82655">
        <ele>196.6</ele>
        <time>2025-04-05T06:23:27Z</time>
      </trkpt>
      <trkpt lat="50.42157" lon="4.82652">
        <ele>197</ele>
        <time>2025-04-05T06:23:28Z</time>
      </trkpt>
      <trkpt lat="50.42154" lon="4.8265">
        <ele>197.2</ele>
        <time>2025-04-05T06:23:29Z</time>
      </trkpt>
      <trkpt lat="50.42152" lon="4.82647">
        <ele>197.6</ele>
        <time>2025-04-05T06:23:30Z</time>
      </trkpt>
      <trkpt lat="50.42149" lon="4.82644">
        <ele>198</ele>
        <time>2025-04-05T06:23:31Z</time>
      </trkpt>
      <trkpt lat="50.42147" lon="4.82642">
        <ele>198.2</ele>
        <time>2025-04-05T06:23:32Z</time>
      </trkpt>
      <trkpt lat="50.42144" lon="4.82639">
        <ele>198.6</ele>
        <time>2025-04-05T06:23:33Z</time>
      </trkpt>
      <trkpt lat="50.42142" lon="4.82637">
        <ele>198.8</ele>
        <time>2025-04-05T06:23:34Z</time>
      </trkpt>
      <trkpt lat="50.4214" lon="4.82634">
        <ele>199.2</ele>
        <time>2025-04-05T06:23:35Z</time>
      </trkpt>
      <trkpt lat="50.42138" lon="4.82632">
        <ele>199.4</ele>
        <time>2025-04-05T06:23:36Z</time>
      </trkpt>
      <trkpt lat="50.42135" lon="4.8263">
        <ele>199.8</ele>
        <time>2025-04-05T06:23:37Z</time>
      </trkpt>
      <trkpt lat="50.42133" lon="4.82628">
        <ele>200</ele>
        <time>2025-04-05T06:23:38Z</time>
      </trkpt>
      <trkpt lat="50.42131" lon="4.82626">
        <ele>200.2</ele>
        <time>2025-04-05T06:23:39Z</time>
      </trkpt>
      <trkpt lat="50.42128" lon="4.82624">
        <ele>200.6</ele>
        <time>2025-04-05T06:23:40Z</time>
      </trkpt>
      <trkpt lat="50.42125" lon="4.82621">
        <ele>200.8</ele>
        <time>2025-04-05T06:23:41Z</time>
      </trkpt>
      <trkpt lat="50.42123" lon="4.82619">
        <ele>201</ele>
        <time>2025-04-05T06:23:42Z</time>
      </trkpt>
      <trkpt lat="50.42121" lon="4.82616">
        <ele>201.4</ele>
        <time>2025-04-05T06:23:43Z</time>
      </trkpt>
      <trkpt lat="50.42119" lon="4.82614">
        <ele>201.6</ele>
        <time>2025-04-05T06:23:44Z</time>
      </trkpt>
      <trkpt lat="50.42117" lon="4.82611">
        <ele>202</ele>
        <time>2025-04-05T06:23:45Z</time>
      </trkpt>
      <trkpt lat="50.42114" lon="4.82609">
        <ele>202.2</ele>
        <time>2025-04-05T06:23:46Z</time>
      </trkpt>
      <trkpt lat="50.42112" lon="4.82606">
        <ele>202.4</ele>
        <time>2025-04-05T06:23:47Z</time>
      </trkpt>
      <trkpt lat="50.4211" lon="4.82604">
        <ele>202.8</ele>
        <time>2025-04-05T06:23:48Z</time>
      </trkpt>
      <trkpt lat="50.42107" lon="4.82602">
        <ele>203</ele>
        <time>2025-04-05T06:23:49Z</time>
      </trkpt>
      <trkpt lat="50.42105" lon="4.826">
        <ele>203.4</ele>
        <time>2025-04-05T06:23:50Z</time>
      </trkpt>
      <trkpt lat="50.42103" lon="4.82598">
        <ele>203.6</ele>
        <time>2025-04-05T06:23:51Z</time>
      </trkpt>
      <trkpt lat="50.42101" lon="4.82596">
        <ele>203.8</ele>
        <time>2025-04-05T06:23:52Z</time>
      </trkpt>
      <trkpt lat="50.42098" lon="4.82594">
        <ele>204.2</ele>
        <time>2025-04-05T06:23:53Z</time>
      </trkpt>
      <trkpt lat="50.42095" lon="4.82591">
        <ele>204.4</ele>
        <time>2025-04-05T06:23:54Z</time>
      </trkpt>
      <trkpt lat="50.42093" lon="4.82589">
        <ele>204.6</ele>
        <time>2025-04-05T06:23:55Z</time>
      </trkpt>
      <trkpt lat="50.4209" lon="4.82587">
        <ele>204.8</ele>
        <time>2025-04-05T06:23:56Z</time>
      </trkpt>
      <trkpt lat="50.42088" lon="4.82584">
        <ele>205.2</ele>
        <time>2025-04-05T06:23:57Z</time>
      </trkpt>
      <trkpt lat="50.42085" lon="4.82582">
        <ele>205.4</ele>
        <time>2025-04-05T06:23:58Z</time>
      </trkpt>
      <trkpt lat="50.42083" lon="4.82579">
        <ele>205.6</ele>
        <time>2025-04-05T06:23:59Z</time>
      </trkpt>
      <trkpt lat="50.4208" lon="4.82577">
        <ele>205.6</ele>
        <time>2025-04-05T06:24:00Z</time>
      </trkpt>
      <trkpt lat="50.42077" lon="4.82574">
        <ele>205.8</ele>
        <time>2025-04-05T06:24:01Z</time>
      </trkpt>
      <trkpt lat="50.42075" lon="4.82571">
        <ele>206</ele>
        <time>2025-04-05T06:24:02Z</time>
      </trkpt>
      <trkpt lat="50.42072" lon="4.82569">
        <ele>206</ele>
        <time>2025-04-05T06:24:03Z</time>
      </trkpt>
      <trkpt lat="50.4207" lon="4.82567">
        <ele>206.2</ele>
        <time>2025-04-05T06:24:04Z</time>
      </trkpt>
      <trkpt lat="50.42067" lon="4.82565">
        <ele>206.2</ele>
        <time>2025-04-05T06:24:05Z</time>
      </trkpt>
      <trkpt lat="50.42065" lon="4.82563">
        <ele>206.2</ele>
        <time>2025-04-05T06:24:06Z</time>
      </trkpt>
      <trkpt lat="50.42062" lon="4.82559">
        <ele>206.4</ele>
        <time>2025-04-05T06:24:07Z</time>
      </trkpt>
      <trkpt lat="50.42059" lon="4.82556">
        <ele>206.4</ele>
        <time>2025-04-05T06:24:08Z</time>
      </trkpt>
      <trkpt lat="50.42056" lon="4.82552">
        <ele>206.4</ele>
        <time>2025-04-05T06:24:09Z</time>
      </trkpt>
      <trkpt lat="50.42052" lon="4.82548">
        <ele>206.4</ele>
        <time>2025-04-05T06:24:10Z</time>
      </trkpt>
      <trkpt lat="50.42049" lon="4.82545">
        <ele>206.6</ele>
        <time>2025-04-05T06:24:11Z</time>
      </trkpt>
      <trkpt lat="50.42046" lon="4.82541">
        <ele>206.6</ele>
        <time>2025-04-05T06:24:12Z</time>
      </trkpt>
      <trkpt lat="50.42042" lon="4.82538">
        <ele>206.6</ele>
        <time>2025-04-05T06:24:13Z</time>
      </trkpt>
      <trkpt lat="50.42039" lon="4.82534">
        <ele>206.6</ele>
        <time>2025-04-05T06:24:14Z</time>
      </trkpt>
      <trkpt lat="50.42035" lon="4.82531">
        <ele>206.6</ele>
        <time>2025-04-05T06:24:15Z</time>
      </trkpt>
      <trkpt lat="50.42032" lon="4.82528">
        <ele>206.6</ele>
        <time>2025-04-05T06:24:16Z</time>
      </trkpt>
      <trkpt lat="50.42028" lon="4.82524">
        <ele>206.6</ele>
        <time>2025-04-05T06:24:17Z</time>
      </trkpt>
      <trkpt lat="50.42025" lon="4.8252">
        <ele>206.6</ele>
        <time>2025-04-05T06:24:18Z</time>
      </trkpt>
      <trkpt lat="50.42021" lon="4.82517">
        <ele>206.6</ele>
        <time>2025-04-05T06:24:19Z</time>
      </trkpt>
      <trkpt lat="50.42018" lon="4.82513">
        <ele>206.6</ele>
        <time>2025-04-05T06:24:20Z</time>
      </trkpt>
      <trkpt lat="50.42015" lon="4.8251">
        <ele>206.6</ele>
        <time>2025-04-05T06:24:21Z</time>
      </trkpt>
      <trkpt lat="50.42012" lon="4.82507">
        <ele>206.6</ele>
        <time>2025-04-05T06:24:22Z</time>
      </trkpt>
      <trkpt lat="50.42008" lon="4.82503">
        <ele>206.8</ele>
        <time>2025-04-05T06:24:23Z</time>
      </trkpt>
      <trkpt lat="50.42006" lon="4.825">
        <ele>206.8</ele>
        <time>2025-04-05T06:24:24Z</time>
      </trkpt>
      <trkpt lat="50.42003" lon="4.82497">
        <ele>206.8</ele>
        <time>2025-04-05T06:24:25Z</time>
      </trkpt>
      <trkpt lat="50.42" lon="4.82495">
        <ele>206.8</ele>
        <time>2025-04-05T06:24:26Z</time>
      </trkpt>
      <trkpt lat="50.41997" lon="4.82493">
        <ele>207</ele>
        <time>2025-04-05T06:24:27Z</time>
      </trkpt>
      <trkpt lat="50.41994" lon="4.8249">
        <ele>207</ele>
        <time>2025-04-05T06:24:28Z</time>
      </trkpt>
      <trkpt lat="50.4199" lon="4.82486">
        <ele>207</ele>
        <time>2025-04-05T06:24:29Z</time>
      </trkpt>
      <trkpt lat="50.41987" lon="4.82481">
        <ele>207.2</ele>
        <time>2025-04-05T06:24:30Z</time>
      </trkpt>
      <trkpt lat="50.41983" lon="4.82477">
        <ele>207.4</ele>
        <time>2025-04-05T06:24:31Z</time>
      </trkpt>
      <trkpt lat="50.41979" lon="4.82473">
        <ele>207.4</ele>
        <time>2025-04-05T06:24:32Z</time>
      </trkpt>
      <trkpt lat="50.41975" lon="4.82468">
        <ele>207.6</ele>
        <time>2025-04-05T06:24:33Z</time>
      </trkpt>
      <trkpt lat="50.41971" lon="4.82464">
        <ele>207.8</ele>
        <time>2025-04-05T06:24:34Z</time>
      </trkpt>
      <trkpt lat="50.41968" lon="4.82461">
        <ele>208</ele>
        <time>2025-04-05T06:24:35Z</time>
      </trkpt>
      <trkpt lat="50.41965" lon="4.82458">
        <ele>208.2</ele>
        <time>2025-04-05T06:24:36Z</time>
      </trkpt>
      <trkpt lat="50.41961" lon="4.82454">
        <ele>208.4</ele>
        <time>2025-04-05T06:24:37Z</time>
      </trkpt>
      <trkpt lat="50.41958" lon="4.82451">
        <ele>208.4</ele>
        <time>2025-04-05T06:24:38Z</time>
      </trkpt>
      <trkpt lat="50.41955" lon="4.82448">
        <ele>208.6</ele>
        <time>2025-04-05T06:24:39Z</time>
      </trkpt>
      <trkpt lat="50.41951" lon="4.82445">
        <ele>208.8</ele>
        <time>2025-04-05T06:24:40Z</time>
      </trkpt>
      <trkpt lat="50.41948" lon="4.82442">
        <ele>209</ele>
        <time>2025-04-05T06:24:41Z</time>
      </trkpt>
      <trkpt lat="50.41945" lon="4.82439">
        <ele>209.2</ele>
        <time>2025-04-05T06:24:42Z</time>
      </trkpt>
      <trkpt lat="50.41941" lon="4.82436">
        <ele>209.2</ele>
        <time>2025-04-05T06:24:43Z</time>
      </trkpt>
      <trkpt lat="50.41938" lon="4.82432">
        <ele>209.4</ele>
        <time>2025-04-05T06:24:44Z</time>
      </trkpt>
      <trkpt lat="50.41934" lon="4.82429">
        <ele>209.6</ele>
        <time>2025-04-05T06:24:45Z</time>
      </trkpt>
      <trkpt lat="50.4193" lon="4.82425">
        <ele>209.8</ele>
        <time>2025-04-05T06:24:46Z</time>
      </trkpt>
      <trkpt lat="50.41927" lon="4.82422">
        <ele>210</ele>
        <time>2025-04-05T06:24:47Z</time>
      </trkpt>
      <trkpt lat="50.41924" lon="4.82419">
        <ele>210.2</ele>
        <time>2025-04-05T06:24:48Z</time>
      </trkpt>
      <trkpt lat="50.41921" lon="4.82415">
        <ele>210.4</ele>
        <time>2025-04-05T06:24:49Z</time>
      </trkpt>
      <trkpt lat="50.41917" lon="4.82412">
        <ele>210.6</ele>
        <time>2025-04-05T06:24:50Z</time>
      </trkpt>
      <trkpt lat="50.41914" lon="4.82409">
        <ele>210.6</ele>
        <time>2025-04-05T06:24:51Z</time>
      </trkpt>
      <trkpt lat="50.41911" lon="4.82405">
        <ele>210.8</ele>
        <time>2025-04-05T06:24:52Z</time>
      </trkpt>
      <trkpt lat="50.41907" lon="4.82402">
        <ele>211</ele>
        <time>2025-04-05T06:24:53Z</time>
      </trkpt>
      <trkpt lat="50.41903" lon="4.82398">
        <ele>211</ele>
        <time>2025-04-05T06:24:54Z</time>
      </trkpt>
      <trkpt lat="50.419" lon="4.82395">
        <ele>211.2</ele>
        <time>2025-04-05T06:24:55Z</time>
      </trkpt>
      <trkpt lat="50.41896" lon="4.82392">
        <ele>211.2</ele>
        <time>2025-04-05T06:24:56Z</time>
      </trkpt>
      <trkpt lat="50.41893" lon="4.82389">
        <ele>211.4</ele>
        <time>2025-04-05T06:24:57Z</time>
      </trkpt>
      <trkpt lat="50.4189" lon="4.82385">
        <ele>211.4</ele>
        <time>2025-04-05T06:24:58Z</time>
      </trkpt>
      <trkpt lat="50.41887" lon="4.82382">
        <ele>211.6</ele>
        <time>2025-04-05T06:24:59Z</time>
      </trkpt>
      <trkpt lat="50.41883" lon="4.82378">
        <ele>211.6</ele>
        <time>2025-04-05T06:25:00Z</time>
      </trkpt>
      <trkpt lat="50.4188" lon="4.82375">
        <ele>211.8</ele>
        <time>2025-04-05T06:25:01Z</time>
      </trkpt>
      <trkpt lat="50.41877" lon="4.82372">
        <ele>211.8</ele>
        <time>2025-04-05T06:25:02Z</time>
      </trkpt>
      <trkpt lat="50.41873" lon="4.82368">
        <ele>212</ele>
        <time>2025-04-05T06:25:03Z</time>
      </trkpt>
      <trkpt lat="50.4187" lon="4.82365">
        <ele>212.2</ele>
        <time>2025-04-05T06:25:04Z</time>
      </trkpt>
      <trkpt lat="50.41867" lon="4.82362">
        <ele>212.2</ele>
        <time>2025-04-05T06:25:05Z</time>
      </trkpt>
      <trkpt lat="50.41863" lon="4.82359">
        <ele>212.4</ele>
        <time>2025-04-05T06:25:06Z</time>
      </trkpt>
      <trkpt lat="50.41859" lon="4.82356">
        <ele>212.4</ele>
        <time>2025-04-05T06:25:07Z</time>
      </trkpt>
      <trkpt lat="50.41856" lon="4.82352">
        <ele>212.6</ele>
        <time>2025-04-05T06:25:08Z</time>
      </trkpt>
      <trkpt lat="50.41853" lon="4.82349">
        <ele>212.8</ele>
        <time>2025-04-05T06:25:09Z</time>
      </trkpt>
      <trkpt lat="50.41849" lon="4.82345">
        <ele>212.8</ele>
        <time>2025-04-05T06:25:10Z</time>
      </trkpt>
      <trkpt lat="50.41845" lon="4.82342">
        <ele>213</ele>
        <time>2025-04-05T06:25:11Z</time>
      </trkpt>
      <trkpt lat="50.41842" lon="4.82338">
        <ele>213.2</ele>
        <time>2025-04-05T06:25:12Z</time>
      </trkpt>
      <trkpt lat="50.41838" lon="4.82335">
        <ele>213.2</ele>
        <time>2025-04-05T06:25:13Z</time>
      </trkpt>
      <trkpt lat="50.41835" lon="4.82331">
        <ele>213.4</ele>
        <time>2025-04-05T06:25:14Z</time>
      </trkpt>
      <trkpt lat="50.41832" lon="4.82328">
        <ele>213.4</ele>
        <time>2025-04-05T06:25:15Z</time>
      </trkpt>
      <trkpt lat="50.41828" lon="4.82324">
        <ele>213.6</ele>
        <time>2025-04-05T06:25:16Z</time>
      </trkpt>
      <trkpt lat="50.41825" lon="4.82321">
        <ele>213.6</ele>
        <time>2025-04-05T06:25:17Z</time>
      </trkpt>
      <trkpt lat="50.41821" lon="4.82318">
        <ele>213.8</ele>
        <time>2025-04-05T06:25:18Z</time>
      </trkpt>
      <trkpt lat="50.41818" lon="4.82314">
        <ele>214</ele>
        <time>2025-04-05T06:25:19Z</time>
      </trkpt>
      <trkpt lat="50.41814" lon="4.82311">
        <ele>214</ele>
        <time>2025-04-05T06:25:20Z</time>
      </trkpt>
      <trkpt lat="50.41811" lon="4.82307">
        <ele>214</ele>
        <time>2025-04-05T06:25:21Z</time>
      </trkpt>
      <trkpt lat="50.41807" lon="4.82303">
        <ele>214.2</ele>
        <time>2025-04-05T06:25:22Z</time>
      </trkpt>
      <trkpt lat="50.41803" lon="4.823">
        <ele>214.2</ele>
        <time>2025-04-05T06:25:23Z</time>
      </trkpt>
      <trkpt lat="50.418" lon="4.82296">
        <ele>214.4</ele>
        <time>2025-04-05T06:25:24Z</time>
      </trkpt>
      <trkpt lat="50.41796" lon="4.82293">
        <ele>214.6</ele>
        <time>2025-04-05T06:25:25Z</time>
      </trkpt>
      <trkpt lat="50.41793" lon="4.82289">
        <ele>214.6</ele>
        <time>2025-04-05T06:25:26Z</time>
      </trkpt>
      <trkpt lat="50.41789" lon="4.82286">
        <ele>214.8</ele>
        <time>2025-04-05T06:25:27Z</time>
      </trkpt>
      <trkpt lat="50.41786" lon="4.82282">
        <ele>214.8</ele>
        <time>2025-04-05T06:25:28Z</time>
      </trkpt>
      <trkpt lat="50.41783" lon="4.82278">
        <ele>215</ele>
        <time>2025-04-05T06:25:29Z</time>
      </trkpt>
      <trkpt lat="50.4178" lon="4.82275">
        <ele>215</ele>
        <time>2025-04-05T06:25:30Z</time>
      </trkpt>
      <trkpt lat="50.41777" lon="4.82272">
        <ele>215</ele>
        <time>2025-04-05T06:25:31Z</time>
      </trkpt>
      <trkpt lat="50.41773" lon="4.82269">
        <ele>215.2</ele>
        <time>2025-04-05T06:25:32Z</time>
      </trkpt>
      <trkpt lat="50.4177" lon="4.82265">
        <ele>215.2</ele>
        <time>2025-04-05T06:25:33Z</time>
      </trkpt>
      <trkpt lat="50.41767" lon="4.82262">
        <ele>215.4</ele>
        <time>2025-04-05T06:25:34Z</time>
      </trkpt>
      <trkpt lat="50.41763" lon="4.82259">
        <ele>215.4</ele>
        <time>2025-04-05T06:25:35Z</time>
      </trkpt>
      <trkpt lat="50.4176" lon="4.82255">
        <ele>215.6</ele>
        <time>2025-04-05T06:25:36Z</time>
      </trkpt>
      <trkpt lat="50.41756" lon="4.82252">
        <ele>215.8</ele>
        <time>2025-04-05T06:25:37Z</time>
      </trkpt>
      <trkpt lat="50.41753" lon="4.82249">
        <ele>215.8</ele>
        <time>2025-04-05T06:25:38Z</time>
      </trkpt>
      <trkpt lat="50.4175" lon="4.82246">
        <ele>216</ele>
        <time>2025-04-05T06:25:39Z</time>
      </trkpt>
      <trkpt lat="50.41746" lon="4.82242">
        <ele>216</ele>
        <time>2025-04-05T06:25:40Z</time>
      </trkpt>
      <trkpt lat="50.41742" lon="4.82238">
        <ele>216.2</ele>
        <time>2025-04-05T06:25:41Z</time>
      </trkpt>
      <trkpt lat="50.41739" lon="4.82235">
        <ele>216.2</ele>
        <time>2025-04-05T06:25:42Z</time>
      </trkpt>
      <trkpt lat="50.41735" lon="4.82232">
        <ele>216.4</ele>
        <time>2025-04-05T06:25:43Z</time>
      </trkpt>
      <trkpt lat="50.41731" lon="4.82228">
        <ele>216.6</ele>
        <time>2025-04-05T06:25:44Z</time>
      </trkpt>
      <trkpt lat="50.41727" lon="4.82225">
        <ele>216.6</ele>
        <time>2025-04-05T06:25:45Z</time>
      </trkpt>
      <trkpt lat="50.41724" lon="4.82222">
        <ele>216.8</ele>
        <time>2025-04-05T06:25:46Z</time>
      </trkpt>
      <trkpt lat="50.4172" lon="4.8222">
        <ele>217</ele>
        <time>2025-04-05T06:25:47Z</time>
      </trkpt>
      <trkpt lat="50.41716" lon="4.82219">
        <ele>217.2</ele>
        <time>2025-04-05T06:25:48Z</time>
      </trkpt>
      <trkpt lat="50.41712" lon="4.82219">
        <ele>217.4</ele>
        <time>2025-04-05T06:25:49Z</time>
      </trkpt>
      <trkpt lat="50.41708" lon="4.8222">
        <ele>217.6</ele>
        <time>2025-04-05T06:25:50Z</time>
      </trkpt>
      <trkpt lat="50.41705" lon="4.82221">
        <ele>218</ele>
        <time>2025-04-05T06:25:51Z</time>
      </trkpt>
      <trkpt lat="50.41701" lon="4.82223">
        <ele>218.2</ele>
        <time>2025-04-05T06:25:52Z</time>
      </trkpt>
      <trkpt lat="50.41698" lon="4.82226">
        <ele>218.4</ele>
        <time>2025-04-05T06:25:53Z</time>
      </trkpt>
      <trkpt lat="50.41695" lon="4.82229">
        <ele>218.6</ele>
        <time>2025-04-05T06:25:54Z</time>
      </trkpt>
      <trkpt lat="50.41691" lon="4.82232">
        <ele>218.8</ele>
        <time>2025-04-05T06:25:55Z</time>
      </trkpt>
      <trkpt lat="50.41689" lon="4.82235">
        <ele>219</ele>
        <time>2025-04-05T06:25:56Z</time>
      </trkpt>
      <trkpt lat="50.41686" lon="4.82238">
        <ele>219.4</ele>
        <time>2025-04-05T06:25:57Z</time>
      </trkpt>
      <trkpt lat="50.41682" lon="4.82242">
        <ele>219.6</ele>
        <time>2025-04-05T06:25:58Z</time>
      </trkpt>
      <trkpt lat="50.41679" lon="4.82245">
        <ele>219.8</ele>
        <time>2025-04-05T06:25:59Z</time>
      </trkpt>
      <trkpt lat="50.41676" lon="4.82248">
        <ele>220</ele>
        <time>2025-04-05T06:26:00Z</time>
      </trkpt>
      <trkpt lat="50.41673" lon="4.82252">
        <ele>220.2</ele>
        <time>2025-04-05T06:26:01Z</time>
      </trkpt>
      <trkpt lat="50.4167" lon="4.82255">
        <ele>220.4</ele>
        <time>2025-04-05T06:26:02Z</time>
      </trkpt>
      <trkpt lat="50.41666" lon="4.82258">
        <ele>220.6</ele>
        <time>2025-04-05T06:26:03Z</time>
      </trkpt>
      <trkpt lat="50.41663" lon="4.82262">
        <ele>220.8</ele>
        <time>2025-04-05T06:26:04Z</time>
      </trkpt>
      <trkpt lat="50.4166" lon="4.82265">
        <ele>221</ele>
        <time>2025-04-05T06:26:05Z</time>
      </trkpt>
      <trkpt lat="50.41657" lon="4.82268">
        <ele>221</ele>
        <time>2025-04-05T06:26:06Z</time>
      </trkpt>
      <trkpt lat="50.41654" lon="4.82271">
        <ele>221.2</ele>
        <time>2025-04-05T06:26:07Z</time>
      </trkpt>
      <trkpt lat="50.4165" lon="4.82275">
        <ele>221.4</ele>
        <time>2025-04-05T06:26:08Z</time>
      </trkpt>
      <trkpt lat="50.41647" lon="4.82278">
        <ele>221.6</ele>
        <time>2025-04-05T06:26:09Z</time>
      </trkpt>
      <trkpt lat="50.41644" lon="4.82281">
        <ele>221.8</ele>
        <time>2025-04-05T06:26:10Z</time>
      </trkpt>
      <trkpt lat="50.41641" lon="4.82284">
        <ele>221.8</ele>
        <time>2025-04-05T06:26:11Z</time>
      </trkpt>
      <trkpt lat="50.41637" lon="4.82288">
        <ele>222</ele>
        <time>2025-04-05T06:26:12Z</time>
      </trkpt>
      <trkpt lat="50.41633" lon="4.82292">
        <ele>222.2</ele>
        <time>2025-04-05T06:26:13Z</time>
      </trkpt>
      <trkpt lat="50.4163" lon="4.82295">
        <ele>222.4</ele>
        <time>2025-04-05T06:26:14Z</time>
      </trkpt>
      <trkpt lat="50.41627" lon="4.82299">
        <ele>222.4</ele>
        <time>2025-04-05T06:26:15Z</time>
      </trkpt>
      <trkpt lat="50.41624" lon="4.82302">
        <ele>222.6</ele>
        <time>2025-04-05T06:26:16Z</time>
      </trkpt>
      <trkpt lat="50.41621" lon="4.82305">
        <ele>222.8</ele>
        <time>2025-04-05T06:26:17Z</time>
      </trkpt>
      <trkpt lat="50.41618" lon="4.82308">
        <ele>223</ele>
        <time>2025-04-05T06:26:18Z</time>
      </trkpt>
      <trkpt lat="50.41615" lon="4.82311">
        <ele>223.2</ele>
        <time>2025-04-05T06:26:19Z</time>
      </trkpt>
      <trkpt lat="50.41612" lon="4.82315">
        <ele>223.2</ele>
        <time>2025-04-05T06:26:20Z</time>
      </trkpt>
      <trkpt lat="50.41608" lon="4.82318">
        <ele>223.4</ele>
        <time>2025-04-05T06:26:21Z</time>
      </trkpt>
      <trkpt lat="50.41605" lon="4.82321">
        <ele>223.6</ele>
        <time>2025-04-05T06:26:22Z</time>
      </trkpt>
      <trkpt lat="50.41602" lon="4.82324">
        <ele>223.8</ele>
        <time>2025-04-05T06:26:23Z</time>
      </trkpt>
      <trkpt lat="50.41598" lon="4.82327">
        <ele>223.8</ele>
        <time>2025-04-05T06:26:24Z</time>
      </trkpt>
      <trkpt lat="50.41595" lon="4.8233">
        <ele>224</ele>
        <time>2025-04-05T06:26:25Z</time>
      </trkpt>
      <trkpt lat="50.41592" lon="4.82333">
        <ele>224.2</ele>
        <time>2025-04-05T06:26:26Z</time>
      </trkpt>
      <trkpt lat="50.41589" lon="4.82336">
        <ele>224.4</ele>
        <time>2025-04-05T06:26:27Z</time>
      </trkpt>
      <trkpt lat="50.41586" lon="4.82339">
        <ele>224.6</ele>
        <time>2025-04-05T06:26:28Z</time>
      </trkpt>
      <trkpt lat="50.41583" lon="4.82342">
        <ele>224.8</ele>
        <time>2025-04-05T06:26:29Z</time>
      </trkpt>
      <trkpt lat="50.41579" lon="4.82346">
        <ele>225</ele>
        <time>2025-04-05T06:26:30Z</time>
      </trkpt>
      <trkpt lat="50.41576" lon="4.82349">
        <ele>225.2</ele>
        <time>2025-04-05T06:26:31Z</time>
      </trkpt>
      <trkpt lat="50.41573" lon="4.82352">
        <ele>225.4</ele>
        <time>2025-04-05T06:26:32Z</time>
      </trkpt>
      <trkpt lat="50.4157" lon="4.82355">
        <ele>225.6</ele>
        <time>2025-04-05T06:26:33Z</time>
      </trkpt>
      <trkpt lat="50.41567" lon="4.82358">
        <ele>225.6</ele>
        <time>2025-04-05T06:26:34Z</time>
      </trkpt>
      <trkpt lat="50.41565" lon="4.82361">
        <ele>225.8</ele>
        <time>2025-04-05T06:26:35Z</time>
      </trkpt>
      <trkpt lat="50.41561" lon="4.82364">
        <ele>226</ele>
        <time>2025-04-05T06:26:36Z</time>
      </trkpt>
      <trkpt lat="50.41559" lon="4.82366">
        <ele>226.2</ele>
        <time>2025-04-05T06:26:37Z</time>
      </trkpt>
      <trkpt lat="50.41555" lon="4.82369">
        <ele>226.6</ele>
        <time>2025-04-05T06:26:38Z</time>
      </trkpt>
      <trkpt lat="50.41552" lon="4.82372">
        <ele>226.8</ele>
        <time>2025-04-05T06:26:39Z</time>
      </trkpt>
      <trkpt lat="50.4155" lon="4.82375">
        <ele>227</ele>
        <time>2025-04-05T06:26:40Z</time>
      </trkpt>
      <trkpt lat="50.41547" lon="4.82378">
        <ele>227.2</ele>
        <time>2025-04-05T06:26:41Z</time>
      </trkpt>
      <trkpt lat="50.41544" lon="4.82381">
        <ele>227.4</ele>
        <time>2025-04-05T06:26:42Z</time>
      </trkpt>
      <trkpt lat="50.41541" lon="4.82384">
        <ele>227.6</ele>
        <time>2025-04-05T06:26:43Z</time>
      </trkpt>
      <trkpt lat="50.41538" lon="4.82387">
        <ele>227.8</ele>
        <time>2025-04-05T06:26:44Z</time>
      </trkpt>
      <trkpt lat="50.41535" lon="4.82389">
        <ele>228</ele>
        <time>2025-04-05T06:26:45Z</time>
      </trkpt>
      <trkpt lat="50.41532" lon="4.82392">
        <ele>228.2</ele>
        <time>2025-04-05T06:26:46Z</time>
      </trkpt>
      <trkpt lat="50.41529" lon="4.82396">
        <ele>228.2</ele>
        <time>2025-04-05T06:26:47Z</time>
      </trkpt>
      <trkpt lat="50.41526" lon="4.82399">
        <ele>228.4</ele>
        <time>2025-04-05T06:26:48Z</time>
      </trkpt>
      <trkpt lat="50.41523" lon="4.82402">
        <ele>228.6</ele>
        <time>2025-04-05T06:26:49Z</time>
      </trkpt>
      <trkpt lat="50.4152" lon="4.82405">
        <ele>228.6</ele>
        <time>2025-04-05T06:26:50Z</time>
      </trkpt>
      <trkpt lat="50.41517" lon="4.82408">
        <ele>228.8</ele>
        <time>2025-04-05T06:26:51Z</time>
      </trkpt>
      <trkpt lat="50.41513" lon="4.82411">
        <ele>228.8</ele>
        <time>2025-04-05T06:26:52Z</time>
      </trkpt>
      <trkpt lat="50.4151" lon="4.82415">
        <ele>229</ele>
        <time>2025-04-05T06:26:53Z</time>
      </trkpt>
      <trkpt lat="50.41507" lon="4.82418">
        <ele>229.2</ele>
        <time>2025-04-05T06:26:54Z</time>
      </trkpt>
      <trkpt lat="50.41504" lon="4.82421">
        <ele>229.4</ele>
        <time>2025-04-05T06:26:55Z</time>
      </trkpt>
      <trkpt lat="50.41501" lon="4.82425">
        <ele>229.6</ele>
        <time>2025-04-05T06:26:56Z</time>
      </trkpt>
      <trkpt lat="50.41498" lon="4.82428">
        <ele>229.6</ele>
        <time>2025-04-05T06:26:57Z</time>
      </trkpt>
      <trkpt lat="50.41496" lon="4.8243">
        <ele>229.8</ele>
        <time>2025-04-05T06:26:58Z</time>
      </trkpt>
      <trkpt lat="50.41493" lon="4.82433">
        <ele>229.8</ele>
        <time>2025-04-05T06:26:59Z</time>
      </trkpt>
      <trkpt lat="50.41489" lon="4.82436">
        <ele>230</ele>
        <time>2025-04-05T06:27:00Z</time>
      </trkpt>
      <trkpt lat="50.41486" lon="4.82439">
        <ele>230</ele>
        <time>2025-04-05T06:27:01Z</time>
      </trkpt>
      <trkpt lat="50.41483" lon="4.82443">
        <ele>230.2</ele>
        <time>2025-04-05T06:27:02Z</time>
      </trkpt>
      <trkpt lat="50.41479" lon="4.82446">
        <ele>230.2</ele>
        <time>2025-04-05T06:27:03Z</time>
      </trkpt>
      <trkpt lat="50.41475" lon="4.8245">
        <ele>230.2</ele>
        <time>2025-04-05T06:27:04Z</time>
      </trkpt>
      <trkpt lat="50.41472" lon="4.82453">
        <ele>230.4</ele>
        <time>2025-04-05T06:27:05Z</time>
      </trkpt>
      <trkpt lat="50.41468" lon="4.82457">
        <ele>230.4</ele>
        <time>2025-04-05T06:27:06Z</time>
      </trkpt>
      <trkpt lat="50.41464" lon="4.8246">
        <ele>230.6</ele>
        <time>2025-04-05T06:27:07Z</time>
      </trkpt>
      <trkpt lat="50.4146" lon="4.82464">
        <ele>230.6</ele>
        <time>2025-04-05T06:27:08Z</time>
      </trkpt>
      <trkpt lat="50.41457" lon="4.82468">
        <ele>230.6</ele>
        <time>2025-04-05T06:27:09Z</time>
      </trkpt>
      <trkpt lat="50.41453" lon="4.82471">
        <ele>230.8</ele>
        <time>2025-04-05T06:27:10Z</time>
      </trkpt>
      <trkpt lat="50.4145" lon="4.82475">
        <ele>230.8</ele>
        <time>2025-04-05T06:27:11Z</time>
      </trkpt>
      <trkpt lat="50.41446" lon="4.82479">
        <ele>230.8</ele>
        <time>2025-04-05T06:27:12Z</time>
      </trkpt>
      <trkpt lat="50.41442" lon="4.82483">
        <ele>230.8</ele>
        <time>2025-04-05T06:27:13Z</time>
      </trkpt>
      <trkpt lat="50.41438" lon="4.82487">
        <ele>231</ele>
        <time>2025-04-05T06:27:14Z</time>
      </trkpt>
      <trkpt lat="50.41435" lon="4.82491">
        <ele>231</ele>
        <time>2025-04-05T06:27:15Z</time>
      </trkpt>
      <trkpt lat="50.41431" lon="4.82495">
        <ele>231</ele>
        <time>2025-04-05T06:27:16Z</time>
      </trkpt>
      <trkpt lat="50.41427" lon="4.82499">
        <ele>231.2</ele>
        <time>2025-04-05T06:27:17Z</time>
      </trkpt>
      <trkpt lat="50.41423" lon="4.82502">
        <ele>231.2</ele>
        <time>2025-04-05T06:27:18Z</time>
      </trkpt>
      <trkpt lat="50.41419" lon="4.82506">
        <ele>231.2</ele>
        <time>2025-04-05T06:27:19Z</time>
      </trkpt>
      <trkpt lat="50.41416" lon="4.8251">
        <ele>231.4</ele>
        <time>2025-04-05T06:27:20Z</time>
      </trkpt>
      <trkpt lat="50.41412" lon="4.82513">
        <ele>231.4</ele>
        <time>2025-04-05T06:27:21Z</time>
      </trkpt>
      <trkpt lat="50.41409" lon="4.82517">
        <ele>231.6</ele>
        <time>2025-04-05T06:27:22Z</time>
      </trkpt>
      <trkpt lat="50.41405" lon="4.8252">
        <ele>231.6</ele>
        <time>2025-04-05T06:27:23Z</time>
      </trkpt>
      <trkpt lat="50.41401" lon="4.82524">
        <ele>231.8</ele>
        <time>2025-04-05T06:27:24Z</time>
      </trkpt>
      <trkpt lat="50.41398" lon="4.82527">
        <ele>231.8</ele>
        <time>2025-04-05T06:27:25Z</time>
      </trkpt>
      <trkpt lat="50.41394" lon="4.82531">
        <ele>232</ele>
        <time>2025-04-05T06:27:26Z</time>
      </trkpt>
      <trkpt lat="50.4139" lon="4.82534">
        <ele>232</ele>
        <time>2025-04-05T06:27:27Z</time>
      </trkpt>
      <trkpt lat="50.41386" lon="4.82538">
        <ele>232.2</ele>
        <time>2025-04-05T06:27:28Z</time>
      </trkpt>
      <trkpt lat="50.41383" lon="4.82541">
        <ele>232.2</ele>
        <time>2025-04-05T06:27:29Z</time>
      </trkpt>
      <trkpt lat="50.41379" lon="4.82545">
        <ele>232.2</ele>
        <time>2025-04-05T06:27:30Z</time>
      </trkpt>
      <trkpt lat="50.41374" lon="4.8255">
        <ele>232.4</ele>
        <time>2025-04-05T06:27:31Z</time>
      </trkpt>
      <trkpt lat="50.4137" lon="4.82553">
        <ele>232.4</ele>
        <time>2025-04-05T06:27:32Z</time>
      </trkpt>
      <trkpt lat="50.41367" lon="4.82557">
        <ele>232.6</ele>
        <time>2025-04-05T06:27:33Z</time>
      </trkpt>
      <trkpt lat="50.41363" lon="4.82561">
        <ele>232.6</ele>
        <time>2025-04-05T06:27:34Z</time>
      </trkpt>
      <trkpt lat="50.41359" lon="4.82564">
        <ele>232.6</ele>
        <time>2025-04-05T06:27:35Z</time>
      </trkpt>
      <trkpt lat="50.41355" lon="4.82568">
        <ele>232.8</ele>
        <time>2025-04-05T06:27:36Z</time>
      </trkpt>
      <trkpt lat="50.4135" lon="4.82573">
        <ele>232.8</ele>
        <time>2025-04-05T06:27:37Z</time>
      </trkpt>
      <trkpt lat="50.41346" lon="4.82577">
        <ele>232.8</ele>
        <time>2025-04-05T06:27:38Z</time>
      </trkpt>
      <trkpt lat="50.41342" lon="4.82581">
        <ele>232.8</ele>
        <time>2025-04-05T06:27:39Z</time>
      </trkpt>
      <trkpt lat="50.41338" lon="4.82585">
        <ele>232.8</ele>
        <time>2025-04-05T06:27:40Z</time>
      </trkpt>
      <trkpt lat="50.41334" lon="4.82589">
        <ele>232.8</ele>
        <time>2025-04-05T06:27:41Z</time>
      </trkpt>
      <trkpt lat="50.4133" lon="4.82593">
        <ele>233</ele>
        <time>2025-04-05T06:27:42Z</time>
      </trkpt>
      <trkpt lat="50.41326" lon="4.82597">
        <ele>233</ele>
        <time>2025-04-05T06:27:43Z</time>
      </trkpt>
      <trkpt lat="50.41322" lon="4.82601">
        <ele>233</ele>
        <time>2025-04-05T06:27:44Z</time>
      </trkpt>
      <trkpt lat="50.41317" lon="4.82605">
        <ele>233</ele>
        <time>2025-04-05T06:27:45Z</time>
      </trkpt>
      <trkpt lat="50.41314" lon="4.8261">
        <ele>233.2</ele>
        <time>2025-04-05T06:27:46Z</time>
      </trkpt>
      <trkpt lat="50.4131" lon="4.82614">
        <ele>233.2</ele>
        <time>2025-04-05T06:27:47Z</time>
      </trkpt>
      <trkpt lat="50.41306" lon="4.82618">
        <ele>233.2</ele>
        <time>2025-04-05T06:27:48Z</time>
      </trkpt>
      <trkpt lat="50.41302" lon="4.82621">
        <ele>233.4</ele>
        <time>2025-04-05T06:27:49Z</time>
      </trkpt>
      <trkpt lat="50.41298" lon="4.82626">
        <ele>233.4</ele>
        <time>2025-04-05T06:27:50Z</time>
      </trkpt>
      <trkpt lat="50.41293" lon="4.82629">
        <ele>233.4</ele>
        <time>2025-04-05T06:27:51Z</time>
      </trkpt>
      <trkpt lat="50.41289" lon="4.82633">
        <ele>233.4</ele>
        <time>2025-04-05T06:27:52Z</time>
      </trkpt>
      <trkpt lat="50.41285" lon="4.82638">
        <ele>233.4</ele>
        <time>2025-04-05T06:27:53Z</time>
      </trkpt>
      <trkpt lat="50.41282" lon="4.82642">
        <ele>233.4</ele>
        <time>2025-04-05T06:27:54Z</time>
      </trkpt>
      <trkpt lat="50.41278" lon="4.82646">
        <ele>233.4</ele>
        <time>2025-04-05T06:27:55Z</time>
      </trkpt>
      <trkpt lat="50.41274" lon="4.8265">
        <ele>233.4</ele>
        <time>2025-04-05T06:27:56Z</time>
      </trkpt>
      <trkpt lat="50.4127" lon="4.82653">
        <ele>233.4</ele>
        <time>2025-04-05T06:27:57Z</time>
      </trkpt>
      <trkpt lat="50.41266" lon="4.82657">
        <ele>233.6</ele>
        <time>2025-04-05T06:27:58Z</time>
      </trkpt>
      <trkpt lat="50.41262" lon="4.82662">
        <ele>233.6</ele>
        <time>2025-04-05T06:27:59Z</time>
      </trkpt>
      <trkpt lat="50.41258" lon="4.82666">
        <ele>233.6</ele>
        <time>2025-04-05T06:28:00Z</time>
      </trkpt>
      <trkpt lat="50.41254" lon="4.82669">
        <ele>233.6</ele>
        <time>2025-04-05T06:28:01Z</time>
      </trkpt>
      <trkpt lat="50.4125" lon="4.82673">
        <ele>233.6</ele>
        <time>2025-04-05T06:28:02Z</time>
      </trkpt>
      <trkpt lat="50.41245" lon="4.82677">
        <ele>233.6</ele>
        <time>2025-04-05T06:28:03Z</time>
      </trkpt>
      <trkpt lat="50.41241" lon="4.82682">
        <ele>233.6</ele>
        <time>2025-04-05T06:28:04Z</time>
      </trkpt>
      <trkpt lat="50.41237" lon="4.82686">
        <ele>233.6</ele>
        <time>2025-04-05T06:28:05Z</time>
      </trkpt>
      <trkpt lat="50.41232" lon="4.82689">
        <ele>233.6</ele>
        <time>2025-04-05T06:28:06Z</time>
      </trkpt>
      <trkpt lat="50.41229" lon="4.82693">
        <ele>233.6</ele>
        <time>2025-04-05T06:28:07Z</time>
      </trkpt>
      <trkpt lat="50.41224" lon="4.82698">
        <ele>233.6</ele>
        <time>2025-04-05T06:28:08Z</time>
      </trkpt>
      <trkpt lat="50.41219" lon="4.82702">
        <ele>233.6</ele>
        <time>2025-04-05T06:28:09Z</time>
      </trkpt>
      <trkpt lat="50.41215" lon="4.82706">
        <ele>233.4</ele>
        <time>2025-04-05T06:28:10Z</time>
      </trkpt>
      <trkpt lat="50.41211" lon="4.8271">
        <ele>233.4</ele>
        <time>2025-04-05T06:28:11Z</time>
      </trkpt>
      <trkpt lat="50.41206" lon="4.82715">
        <ele>233.4</ele>
        <time>2025-04-05T06:28:12Z</time>
      </trkpt>
      <trkpt lat="50.41202" lon="4.82719">
        <ele>233.4</ele>
        <time>2025-04-05T06:28:13Z</time>
      </trkpt>
      <trkpt lat="50.41198" lon="4.82724">
        <ele>233.4</ele>
        <time>2025-04-05T06:28:14Z</time>
      </trkpt>
      <trkpt lat="50.41194" lon="4.82728">
        <ele>233.4</ele>
        <time>2025-04-05T06:28:15Z</time>
      </trkpt>
      <trkpt lat="50.4119" lon="4.82732">
        <ele>233.4</ele>
        <time>2025-04-05T06:28:16Z</time>
      </trkpt>
      <trkpt lat="50.41186" lon="4.82736">
        <ele>233.4</ele>
        <time>2025-04-05T06:28:17Z</time>
      </trkpt>
      <trkpt lat="50.41182" lon="4.82739">
        <ele>233.4</ele>
        <time>2025-04-05T06:28:18Z</time>
      </trkpt>
      <trkpt lat="50.41177" lon="4.82744">
        <ele>233.4</ele>
        <time>2025-04-05T06:28:19Z</time>
      </trkpt>
      <trkpt lat="50.41173" lon="4.82749">
        <ele>233.4</ele>
        <time>2025-04-05T06:28:20Z</time>
      </trkpt>
      <trkpt lat="50.41169" lon="4.82753">
        <ele>233.4</ele>
        <time>2025-04-05T06:28:21Z</time>
      </trkpt>
      <trkpt lat="50.41164" lon="4.82757">
        <ele>233.4</ele>
        <time>2025-04-05T06:28:22Z</time>
      </trkpt>
      <trkpt lat="50.4116" lon="4.82761">
        <ele>233.4</ele>
        <time>2025-04-05T06:28:23Z</time>
      </trkpt>
      <trkpt lat="50.41156" lon="4.82765">
        <ele>233.2</ele>
        <time>2025-04-05T06:28:24Z</time>
      </trkpt>
      <trkpt lat="50.41152" lon="4.82769">
        <ele>233.2</ele>
        <time>2025-04-05T06:28:25Z</time>
      </trkpt>
      <trkpt lat="50.41147" lon="4.82773">
        <ele>233.2</ele>
        <time>2025-04-05T06:28:26Z</time>
      </trkpt>
      <trkpt lat="50.41143" lon="4.82778">
        <ele>233.2</ele>
        <time>2025-04-05T06:28:27Z</time>
      </trkpt>
      <trkpt lat="50.41139" lon="4.82782">
        <ele>233.2</ele>
        <time>2025-04-05T06:28:28Z</time>
      </trkpt>
      <trkpt lat="50.41134" lon="4.82786">
        <ele>233.2</ele>
        <time>2025-04-05T06:28:29Z</time>
      </trkpt>
      <trkpt lat="50.41129" lon="4.82791">
        <ele>233.2</ele>
        <time>2025-04-05T06:28:30Z</time>
      </trkpt>
      <trkpt lat="50.41124" lon="4.82795">
        <ele>233.2</ele>
        <time>2025-04-05T06:28:31Z</time>
      </trkpt>
      <trkpt lat="50.4112" lon="4.82799">
        <ele>233.2</ele>
        <time>2025-04-05T06:28:32Z</time>
      </trkpt>
      <trkpt lat="50.41115" lon="4.82803">
        <ele>233.2</ele>
        <time>2025-04-05T06:28:33Z</time>
      </trkpt>
      <trkpt lat="50.41111" lon="4.82808">
        <ele>233.2</ele>
        <time>2025-04-05T06:28:34Z</time>
      </trkpt>
      <trkpt lat="50.41107" lon="4.82812">
        <ele>233.2</ele>
        <time>2025-04-05T06:28:35Z</time>
      </trkpt>
      <trkpt lat="50.41102" lon="4.82817">
        <ele>233.2</ele>
        <time>2025-04-05T06:28:36Z</time>
      </trkpt>
      <trkpt lat="50.41097" lon="4.82822">
        <ele>233</ele>
        <time>2025-04-05T06:28:37Z</time>
      </trkpt>
      <trkpt lat="50.41093" lon="4.82826">
        <ele>233</ele>
        <time>2025-04-05T06:28:38Z</time>
      </trkpt>
      <trkpt lat="50.41088" lon="4.8283">
        <ele>233</ele>
        <time>2025-04-05T06:28:39Z</time>
      </trkpt>
      <trkpt lat="50.41084" lon="4.82835">
        <ele>233</ele>
        <time>2025-04-05T06:28:40Z</time>
      </trkpt>
      <trkpt lat="50.41079" lon="4.82839">
        <ele>233</ele>
        <time>2025-04-05T06:28:41Z</time>
      </trkpt>
      <trkpt lat="50.41074" lon="4.82843">
        <ele>233</ele>
        <time>2025-04-05T06:28:42Z</time>
      </trkpt>
      <trkpt lat="50.41069" lon="4.82847">
        <ele>233</ele>
        <time>2025-04-05T06:28:43Z</time>
      </trkpt>
      <trkpt lat="50.41065" lon="4.82851">
        <ele>233</ele>
        <time>2025-04-05T06:28:44Z</time>
      </trkpt>
      <trkpt lat="50.4106" lon="4.82854">
        <ele>233</ele>
        <time>2025-04-05T06:28:45Z</time>
      </trkpt>
      <trkpt lat="50.41055" lon="4.82858">
        <ele>233</ele>
        <time>2025-04-05T06:28:46Z</time>
      </trkpt>
      <trkpt lat="50.41051" lon="4.82861">
        <ele>232.8</ele>
        <time>2025-04-05T06:28:47Z</time>
      </trkpt>
      <trkpt lat="50.41046" lon="4.82865">
        <ele>232.8</ele>
        <time>2025-04-05T06:28:48Z</time>
      </trkpt>
      <trkpt lat="50.41041" lon="4.82868">
        <ele>232.8</ele>
        <time>2025-04-05T06:28:49Z</time>
      </trkpt>
      <trkpt lat="50.41037" lon="4.82871">
        <ele>232.8</ele>
        <time>2025-04-05T06:28:50Z</time>
      </trkpt>
      <trkpt lat="50.41032" lon="4.82875">
        <ele>232.8</ele>
        <time>2025-04-05T06:28:51Z</time>
      </trkpt>
      <trkpt lat="50.41026" lon="4.82878">
        <ele>232.8</ele>
        <time>2025-04-05T06:28:52Z</time>
      </trkpt>
      <trkpt lat="50.41021" lon="4.82881">
        <ele>232.6</ele>
        <time>2025-04-05T06:28:53Z</time>
      </trkpt>
      <trkpt lat="50.41017" lon="4.82884">
        <ele>232.6</ele>
        <time>2025-04-05T06:28:54Z</time>
      </trkpt>
      <trkpt lat="50.41012" lon="4.82887">
        <ele>232.8</ele>
        <time>2025-04-05T06:28:55Z</time>
      </trkpt>
      <trkpt lat="50.41007" lon="4.8289">
        <ele>232.6</ele>
        <time>2025-04-05T06:28:56Z</time>
      </trkpt>
      <trkpt lat="50.41002" lon="4.82894">
        <ele>232.8</ele>
        <time>2025-04-05T06:28:57Z</time>
      </trkpt>
      <trkpt lat="50.40997" lon="4.82897">
        <ele>232.8</ele>
        <time>2025-04-05T06:28:58Z</time>
      </trkpt>
      <trkpt lat="50.40992" lon="4.82899">
        <ele>232.8</ele>
        <time>2025-04-05T06:28:59Z</time>
      </trkpt>
      <trkpt lat="50.40987" lon="4.82902">
        <ele>232.8</ele>
        <time>2025-04-05T06:29:00Z</time>
      </trkpt>
      <trkpt lat="50.40982" lon="4.82905">
        <ele>232.8</ele>
        <time>2025-04-05T06:29:01Z</time>
      </trkpt>
      <trkpt lat="50.40977" lon="4.82908">
        <ele>232.8</ele>
        <time>2025-04-05T06:29:02Z</time>
      </trkpt>
      <trkpt lat="50.40972" lon="4.82911">
        <ele>232.8</ele>
        <time>2025-04-05T06:29:03Z</time>
      </trkpt>
      <trkpt lat="50.40967" lon="4.82914">
        <ele>232.8</ele>
        <time>2025-04-05T06:29:04Z</time>
      </trkpt>
      <trkpt lat="50.40962" lon="4.82916">
        <ele>232.8</ele>
        <time>2025-04-05T06:29:05Z</time>
      </trkpt>
      <trkpt lat="50.40957" lon="4.82919">
        <ele>233</ele>
        <time>2025-04-05T06:29:06Z</time>
      </trkpt>
      <trkpt lat="50.40952" lon="4.82922">
        <ele>233</ele>
        <time>2025-04-05T06:29:07Z</time>
      </trkpt>
      <trkpt lat="50.40947" lon="4.82924">
        <ele>233</ele>
        <time>2025-04-05T06:29:08Z</time>
      </trkpt>
      <trkpt lat="50.40942" lon="4.82927">
        <ele>233.2</ele>
        <time>2025-04-05T06:29:09Z</time>
      </trkpt>
      <trkpt lat="50.40937" lon="4.82929">
        <ele>233.2</ele>
        <time>2025-04-05T06:29:10Z</time>
      </trkpt>
      <trkpt lat="50.40933" lon="4.82931">
        <ele>233.4</ele>
        <time>2025-04-05T06:29:11Z</time>
      </trkpt>
      <trkpt lat="50.40928" lon="4.82933">
        <ele>233.4</ele>
        <time>2025-04-05T06:29:12Z</time>
      </trkpt>
      <trkpt lat="50.40924" lon="4.82936">
        <ele>233.6</ele>
        <time>2025-04-05T06:29:13Z</time>
      </trkpt>
      <trkpt lat="50.40919" lon="4.82938">
        <ele>233.6</ele>
        <time>2025-04-05T06:29:14Z</time>
      </trkpt>
      <trkpt lat="50.40914" lon="4.8294">
        <ele>233.8</ele>
        <time>2025-04-05T06:29:15Z</time>
      </trkpt>
      <trkpt lat="50.4091" lon="4.82942">
        <ele>233.8</ele>
        <time>2025-04-05T06:29:16Z</time>
      </trkpt>
      <trkpt lat="50.40905" lon="4.82944">
        <ele>234</ele>
        <time>2025-04-05T06:29:17Z</time>
      </trkpt>
      <trkpt lat="50.40901" lon="4.82947">
        <ele>234.2</ele>
        <time>2025-04-05T06:29:18Z</time>
      </trkpt>
      <trkpt lat="50.40897" lon="4.82949">
        <ele>234.2</ele>
        <time>2025-04-05T06:29:19Z</time>
      </trkpt>
      <trkpt lat="50.40893" lon="4.82951">
        <ele>234.4</ele>
        <time>2025-04-05T06:29:20Z</time>
      </trkpt>
      <trkpt lat="50.40889" lon="4.82953">
        <ele>234.4</ele>
        <time>2025-04-05T06:29:21Z</time>
      </trkpt>
      <trkpt lat="50.40884" lon="4.82956">
        <ele>234.4</ele>
        <time>2025-04-05T06:29:22Z</time>
      </trkpt>
      <trkpt lat="50.40879" lon="4.82958">
        <ele>234.4</ele>
        <time>2025-04-05T06:29:23Z</time>
      </trkpt>
      <trkpt lat="50.40874" lon="4.8296">
        <ele>234.4</ele>
        <time>2025-04-05T06:29:24Z</time>
      </trkpt>
      <trkpt lat="50.40869" lon="4.82962">
        <ele>234.4</ele>
        <time>2025-04-05T06:29:25Z</time>
      </trkpt>
      <trkpt lat="50.40863" lon="4.82964">
        <ele>234.2</ele>
        <time>2025-04-05T06:29:26Z</time>
      </trkpt>
      <trkpt lat="50.40859" lon="4.82966">
        <ele>234.2</ele>
        <time>2025-04-05T06:29:27Z</time>
      </trkpt>
      <trkpt lat="50.40853" lon="4.82967">
        <ele>234.2</ele>
        <time>2025-04-05T06:29:28Z</time>
      </trkpt>
      <trkpt lat="50.40848" lon="4.82968">
        <ele>234.2</ele>
        <time>2025-04-05T06:29:29Z</time>
      </trkpt>
      <trkpt lat="50.40842" lon="4.82967">
        <ele>234.2</ele>
        <time>2025-04-05T06:29:30Z</time>
      </trkpt>
      <trkpt lat="50.40838" lon="4.82966">
        <ele>234.2</ele>
        <time>2025-04-05T06:29:31Z</time>
      </trkpt>
      <trkpt lat="50.40833" lon="4.82965">
        <ele>234.2</ele>
        <time>2025-04-05T06:29:32Z</time>
      </trkpt>
      <trkpt lat="50.40828" lon="4.82964">
        <ele>234.2</ele>
        <time>2025-04-05T06:29:33Z</time>
      </trkpt>
      <trkpt lat="50.40822" lon="4.82962">
        <ele>234.2</ele>
        <time>2025-04-05T06:29:34Z</time>
      </trkpt>
      <trkpt lat="50.40817" lon="4.82961">
        <ele>234.2</ele>
        <time>2025-04-05T06:29:35Z</time>
      </trkpt>
      <trkpt lat="50.40812" lon="4.82959">
        <ele>234.4</ele>
        <time>2025-04-05T06:29:36Z</time>
      </trkpt>
      <trkpt lat="50.40807" lon="4.82958">
        <ele>234.4</ele>
        <time>2025-04-05T06:29:37Z</time>
      </trkpt>
      <trkpt lat="50.40801" lon="4.82957">
        <ele>234.4</ele>
        <time>2025-04-05T06:29:38Z</time>
      </trkpt>
      <trkpt lat="50.40796" lon="4.82956">
        <ele>234.4</ele>
        <time>2025-04-05T06:29:39Z</time>
      </trkpt>
      <trkpt lat="50.40791" lon="4.82956">
        <ele>234.4</ele>
        <time>2025-04-05T06:29:40Z</time>
      </trkpt>
      <trkpt lat="50.40786" lon="4.82955">
        <ele>234.4</ele>
        <time>2025-04-05T06:29:41Z</time>
      </trkpt>
      <trkpt lat="50.40781" lon="4.82955">
        <ele>234.4</ele>
        <time>2025-04-05T06:29:42Z</time>
      </trkpt>
      <trkpt lat="50.40775" lon="4.82955">
        <ele>234.4</ele>
        <time>2025-04-05T06:29:43Z</time>
      </trkpt>
      <trkpt lat="50.4077" lon="4.82956">
        <ele>234.4</ele>
        <time>2025-04-05T06:29:44Z</time>
      </trkpt>
      <trkpt lat="50.40765" lon="4.82956">
        <ele>234.4</ele>
        <time>2025-04-05T06:29:45Z</time>
      </trkpt>
      <trkpt lat="50.4076" lon="4.82956">
        <ele>234.4</ele>
        <time>2025-04-05T06:29:46Z</time>
      </trkpt>
      <trkpt lat="50.40754" lon="4.82956">
        <ele>234.4</ele>
        <time>2025-04-05T06:29:47Z</time>
      </trkpt>
      <trkpt lat="50.40749" lon="4.82956">
        <ele>234.6</ele>
        <time>2025-04-05T06:29:48Z</time>
      </trkpt>
      <trkpt lat="50.40743" lon="4.82956">
        <ele>234.6</ele>
        <time>2025-04-05T06:29:49Z</time>
      </trkpt>
      <trkpt lat="50.40738" lon="4.82956">
        <ele>234.4</ele>
        <time>2025-04-05T06:29:50Z</time>
      </trkpt>
      <trkpt lat="50.40733" lon="4.82956">
        <ele>234.4</ele>
        <time>2025-04-05T06:29:51Z</time>
      </trkpt>
      <trkpt lat="50.40727" lon="4.82955">
        <ele>234.4</ele>
        <time>2025-04-05T06:29:52Z</time>
      </trkpt>
      <trkpt lat="50.40722" lon="4.82955">
        <ele>234.4</ele>
        <time>2025-04-05T06:29:53Z</time>
      </trkpt>
      <trkpt lat="50.40716" lon="4.82955">
        <ele>234.4</ele>
        <time>2025-04-05T06:29:54Z</time>
      </trkpt>
      <trkpt lat="50.40711" lon="4.82955">
        <ele>234.4</ele>
        <time>2025-04-05T06:29:55Z</time>
      </trkpt>
      <trkpt lat="50.40705" lon="4.82955">
        <ele>234.4</ele>
        <time>2025-04-05T06:29:56Z</time>
      </trkpt>
      <trkpt lat="50.40699" lon="4.82955">
        <ele>234.4</ele>
        <time>2025-04-05T06:29:57Z</time>
      </trkpt>
      <trkpt lat="50.40694" lon="4.82955">
        <ele>234.4</ele>
        <time>2025-04-05T06:29:58Z</time>
      </trkpt>
      <trkpt lat="50.40688" lon="4.82955">
        <ele>234.2</ele>
        <time>2025-04-05T06:29:59Z</time>
      </trkpt>
      <trkpt lat="50.40682" lon="4.82955">
        <ele>234.2</ele>
        <time>2025-04-05T06:30:00Z</time>
      </trkpt>
      <trkpt lat="50.40679" lon="4.82956">
        <ele>234.2</ele>
        <time>2025-04-05T06:30:01Z</time>
      </trkpt>
      <trkpt lat="50.40672" lon="4.82956">
        <ele>234</ele>
        <time>2025-04-05T06:30:02Z</time>
      </trkpt>
      <trkpt lat="50.40665" lon="4.82957">
        <ele>233.8</ele>
        <time>2025-04-05T06:30:03Z</time>
      </trkpt>
      <trkpt lat="50.40659" lon="4.82957">
        <ele>233.8</ele>
        <time>2025-04-05T06:30:04Z</time>
      </trkpt>
      <trkpt lat="50.40652" lon="4.82959">
        <ele>233.6</ele>
        <time>2025-04-05T06:30:05Z</time>
      </trkpt>
      <trkpt lat="50.40646" lon="4.82961">
        <ele>233.4</ele>
        <time>2025-04-05T06:30:06Z</time>
      </trkpt>
      <trkpt lat="50.40639" lon="4.82962">
        <ele>233</ele>
        <time>2025-04-05T06:30:07Z</time>
      </trkpt>
      <trkpt lat="50.40632" lon="4.82964">
        <ele>232.8</ele>
        <time>2025-04-05T06:30:08Z</time>
      </trkpt>
      <trkpt lat="50.40625" lon="4.82966">
        <ele>232.6</ele>
        <time>2025-04-05T06:30:09Z</time>
      </trkpt>
      <trkpt lat="50.40619" lon="4.82968">
        <ele>232.2</ele>
        <time>2025-04-05T06:30:10Z</time>
      </trkpt>
      <trkpt lat="50.40613" lon="4.8297">
        <ele>232</ele>
        <time>2025-04-05T06:30:11Z</time>
      </trkpt>
      <trkpt lat="50.40607" lon="4.82972">
        <ele>231.8</ele>
        <time>2025-04-05T06:30:12Z</time>
      </trkpt>
      <trkpt lat="50.40602" lon="4.82973">
        <ele>231.6</ele>
        <time>2025-04-05T06:30:13Z</time>
      </trkpt>
      <trkpt lat="50.40597" lon="4.82975">
        <ele>231.6</ele>
        <time>2025-04-05T06:30:14Z</time>
      </trkpt>
      <trkpt lat="50.40593" lon="4.82976">
        <ele>231.4</ele>
        <time>2025-04-05T06:30:15Z</time>
      </trkpt>
      <trkpt lat="50.40588" lon="4.82976">
        <ele>231.2</ele>
        <time>2025-04-05T06:30:16Z</time>
      </trkpt>
      <trkpt lat="50.40584" lon="4.82976">
        <ele>231.2</ele>
        <time>2025-04-05T06:30:17Z</time>
      </trkpt>
      <trkpt lat="50.4058" lon="4.82975">
        <ele>231</ele>
        <time>2025-04-05T06:30:18Z</time>
      </trkpt>
      <trkpt lat="50.40577" lon="4.82972">
        <ele>230.8</ele>
        <time>2025-04-05T06:30:19Z</time>
      </trkpt>
      <trkpt lat="50.40574" lon="4.82967">
        <ele>230.4</ele>
        <time>2025-04-05T06:30:20Z</time>
      </trkpt>
      <trkpt lat="50.4057" lon="4.82961">
        <ele>230</ele>
        <time>2025-04-05T06:30:21Z</time>
      </trkpt>
      <trkpt lat="50.40567" lon="4.82955">
        <ele>229.6</ele>
        <time>2025-04-05T06:30:22Z</time>
      </trkpt>
      <trkpt lat="50.40563" lon="4.82948">
        <ele>229.2</ele>
        <time>2025-04-05T06:30:23Z</time>
      </trkpt>
      <trkpt lat="50.40559" lon="4.82941">
        <ele>228.8</ele>
        <time>2025-04-05T06:30:24Z</time>
      </trkpt>
      <trkpt lat="50.40555" lon="4.82933">
        <ele>228.4</ele>
        <time>2025-04-05T06:30:25Z</time>
      </trkpt>
      <trkpt lat="50.4055" lon="4.82924">
        <ele>228.2</ele>
        <time>2025-04-05T06:30:26Z</time>
      </trkpt>
      <trkpt lat="50.40546" lon="4.82915">
        <ele>227.8</ele>
        <time>2025-04-05T06:30:27Z</time>
      </trkpt>
      <trkpt lat="50.40542" lon="4.82906">
        <ele>227.2</ele>
        <time>2025-04-05T06:30:28Z</time>
      </trkpt>
      <trkpt lat="50.40538" lon="4.82898">
        <ele>226.8</ele>
        <time>2025-04-05T06:30:29Z</time>
      </trkpt>
      <trkpt lat="50.40535" lon="4.82889">
        <ele>226.4</ele>
        <time>2025-04-05T06:30:30Z</time>
      </trkpt>
      <trkpt lat="50.4053" lon="4.82877">
        <ele>226</ele>
        <time>2025-04-05T06:30:31Z</time>
      </trkpt>
      <trkpt lat="50.40525" lon="4.82865">
        <ele>225.6</ele>
        <time>2025-04-05T06:30:32Z</time>
      </trkpt>
      <trkpt lat="50.40521" lon="4.82855">
        <ele>225.2</ele>
        <time>2025-04-05T06:30:33Z</time>
      </trkpt>
      <trkpt lat="50.40517" lon="4.82845">
        <ele>224.8</ele>
        <time>2025-04-05T06:30:34Z</time>
      </trkpt>
      <trkpt lat="50.40513" lon="4.82835">
        <ele>224.6</ele>
        <time>2025-04-05T06:30:35Z</time>
      </trkpt>
      <trkpt lat="50.40508" lon="4.82823">
        <ele>224.2</ele>
        <time>2025-04-05T06:30:36Z</time>
      </trkpt>
      <trkpt lat="50.40504" lon="4.82813">
        <ele>224</ele>
        <time>2025-04-05T06:30:37Z</time>
      </trkpt>
      <trkpt lat="50.405" lon="4.82802">
        <ele>223.6</ele>
        <time>2025-04-05T06:30:38Z</time>
      </trkpt>
      <trkpt lat="50.40496" lon="4.82791">
        <ele>223.2</ele>
        <time>2025-04-05T06:30:39Z</time>
      </trkpt>
      <trkpt lat="50.40491" lon="4.8278">
        <ele>222.8</ele>
        <time>2025-04-05T06:30:40Z</time>
      </trkpt>
      <trkpt lat="50.40487" lon="4.82768">
        <ele>222.2</ele>
        <time>2025-04-05T06:30:41Z</time>
      </trkpt>
      <trkpt lat="50.40482" lon="4.82755">
        <ele>221.6</ele>
        <time>2025-04-05T06:30:42Z</time>
      </trkpt>
      <trkpt lat="50.40477" lon="4.82743">
        <ele>221</ele>
        <time>2025-04-05T06:30:43Z</time>
      </trkpt>
      <trkpt lat="50.40473" lon="4.8273">
        <ele>220.4</ele>
        <time>2025-04-05T06:30:44Z</time>
      </trkpt>
      <trkpt lat="50.40469" lon="4.82717">
        <ele>219.8</ele>
        <time>2025-04-05T06:30:45Z</time>
      </trkpt>
      <trkpt lat="50.40465" lon="4.82704">
        <ele>219.4</ele>
        <time>2025-04-05T06:30:46Z</time>
      </trkpt>
      <trkpt lat="50.40462" lon="4.82691">
        <ele>218.8</ele>
        <time>2025-04-05T06:30:47Z</time>
      </trkpt>
      <trkpt lat="50.40459" lon="4.82679">
        <ele>218.4</ele>
        <time>2025-04-05T06:30:48Z</time>
      </trkpt>
      <trkpt lat="50.40456" lon="4.82665">
        <ele>218</ele>
        <time>2025-04-05T06:30:49Z</time>
      </trkpt>
      <trkpt lat="50.40453" lon="4.82653">
        <ele>217.6</ele>
        <time>2025-04-05T06:30:50Z</time>
      </trkpt>
      <trkpt lat="50.4045" lon="4.82642">
        <ele>217.2</ele>
        <time>2025-04-05T06:30:51Z</time>
      </trkpt>
      <trkpt lat="50.40448" lon="4.82632">
        <ele>216.8</ele>
        <time>2025-04-05T06:30:52Z</time>
      </trkpt>
      <trkpt lat="50.40445" lon="4.82621">
        <ele>216.6</ele>
        <time>2025-04-05T06:30:53Z</time>
      </trkpt>
      <trkpt lat="50.40442" lon="4.82611">
        <ele>216.2</ele>
        <time>2025-04-05T06:30:54Z</time>
      </trkpt>
      <trkpt lat="50.4044" lon="4.82601">
        <ele>215.8</ele>
        <time>2025-04-05T06:30:55Z</time>
      </trkpt>
      <trkpt lat="50.40437" lon="4.82592">
        <ele>215.4</ele>
        <time>2025-04-05T06:30:56Z</time>
      </trkpt>
      <trkpt lat="50.40435" lon="4.82582">
        <ele>214.8</ele>
        <time>2025-04-05T06:30:57Z</time>
      </trkpt>
      <trkpt lat="50.40432" lon="4.82572">
        <ele>214.2</ele>
        <time>2025-04-05T06:30:58Z</time>
      </trkpt>
      <trkpt lat="50.4043" lon="4.82562">
        <ele>213.6</ele>
        <time>2025-04-05T06:30:59Z</time>
      </trkpt>
      <trkpt lat="50.40428" lon="4.82551">
        <ele>213</ele>
        <time>2025-04-05T06:31:00Z</time>
      </trkpt>
      <trkpt lat="50.40427" lon="4.82539">
        <ele>212.2</ele>
        <time>2025-04-05T06:31:01Z</time>
      </trkpt>
      <trkpt lat="50.40426" lon="4.82526">
        <ele>211.4</ele>
        <time>2025-04-05T06:31:02Z</time>
      </trkpt>
      <trkpt lat="50.40425" lon="4.82514">
        <ele>210.4</ele>
        <time>2025-04-05T06:31:03Z</time>
      </trkpt>
      <trkpt lat="50.40424" lon="4.82503">
        <ele>209.4</ele>
        <time>2025-04-05T06:31:04Z</time>
      </trkpt>
      <trkpt lat="50.40422" lon="4.82487">
        <ele>208.4</ele>
        <time>2025-04-05T06:31:05Z</time>
      </trkpt>
      <trkpt lat="50.40421" lon="4.8247">
        <ele>207.2</ele>
        <time>2025-04-05T06:31:06Z</time>
      </trkpt>
      <trkpt lat="50.4042" lon="4.82454">
        <ele>206.2</ele>
        <time>2025-04-05T06:31:07Z</time>
      </trkpt>
      <trkpt lat="50.4042" lon="4.8244">
        <ele>205</ele>
        <time>2025-04-05T06:31:08Z</time>
      </trkpt>
      <trkpt lat="50.40419" lon="4.82425">
        <ele>204</ele>
        <time>2025-04-05T06:31:09Z</time>
      </trkpt>
      <trkpt lat="50.40418" lon="4.8241">
        <ele>203</ele>
        <time>2025-04-05T06:31:10Z</time>
      </trkpt>
      <trkpt lat="50.40418" lon="4.82396">
        <ele>202</ele>
        <time>2025-04-05T06:31:11Z</time>
      </trkpt>
      <trkpt lat="50.40417" lon="4.82383">
        <ele>201</ele>
        <time>2025-04-05T06:31:12Z</time>
      </trkpt>
      <trkpt lat="50.40416" lon="4.82369">
        <ele>200.2</ele>
        <time>2025-04-05T06:31:13Z</time>
      </trkpt>
      <trkpt lat="50.40415" lon="4.82357">
        <ele>199.4</ele>
        <time>2025-04-05T06:31:14Z</time>
      </trkpt>
      <trkpt lat="50.40414" lon="4.82345">
        <ele>198.4</ele>
        <time>2025-04-05T06:31:15Z</time>
      </trkpt>
      <trkpt lat="50.40412" lon="4.82333">
        <ele>197.6</ele>
        <time>2025-04-05T06:31:16Z</time>
      </trkpt>
      <trkpt lat="50.4041" lon="4.82321">
        <ele>196.8</ele>
        <time>2025-04-05T06:31:17Z</time>
      </trkpt>
      <trkpt lat="50.40407" lon="4.8231">
        <ele>196</ele>
        <time>2025-04-05T06:31:18Z</time>
      </trkpt>
      <trkpt lat="50.40405" lon="4.823">
        <ele>195.2</ele>
        <time>2025-04-05T06:31:19Z</time>
      </trkpt>
      <trkpt lat="50.40401" lon="4.8229">
        <ele>194.4</ele>
        <time>2025-04-05T06:31:20Z</time>
      </trkpt>
      <trkpt lat="50.40398" lon="4.82279">
        <ele>193.8</ele>
        <time>2025-04-05T06:31:21Z</time>
      </trkpt>
      <trkpt lat="50.40395" lon="4.82269">
        <ele>193.2</ele>
        <time>2025-04-05T06:31:22Z</time>
      </trkpt>
      <trkpt lat="50.40393" lon="4.82258">
        <ele>192.6</ele>
        <time>2025-04-05T06:31:23Z</time>
      </trkpt>
      <trkpt lat="50.4039" lon="4.82248">
        <ele>192</ele>
        <time>2025-04-05T06:31:24Z</time>
      </trkpt>
      <trkpt lat="50.40389" lon="4.82238">
        <ele>191.4</ele>
        <time>2025-04-05T06:31:25Z</time>
      </trkpt>
      <trkpt lat="50.40387" lon="4.82229">
        <ele>190.8</ele>
        <time>2025-04-05T06:31:26Z</time>
      </trkpt>
      <trkpt lat="50.40385" lon="4.82221">
        <ele>190.4</ele>
        <time>2025-04-05T06:31:27Z</time>
      </trkpt>
      <trkpt lat="50.40385" lon="4.82213">
        <ele>190</ele>
        <time>2025-04-05T06:31:28Z</time>
      </trkpt>
      <trkpt lat="50.40385" lon="4.82205">
        <ele>189.6</ele>
        <time>2025-04-05T06:31:29Z</time>
      </trkpt>
      <trkpt lat="50.40387" lon="4.82198">
        <ele>189.2</ele>
        <time>2025-04-05T06:31:30Z</time>
      </trkpt>
      <trkpt lat="50.4039" lon="4.82189">
        <ele>189</ele>
        <time>2025-04-05T06:31:31Z</time>
      </trkpt>
      <trkpt lat="50.40393" lon="4.82181">
        <ele>188.6</ele>
        <time>2025-04-05T06:31:32Z</time>
      </trkpt>
      <trkpt lat="50.40396" lon="4.82173">
        <ele>188.4</ele>
        <time>2025-04-05T06:31:33Z</time>
      </trkpt>
      <trkpt lat="50.40399" lon="4.82165">
        <ele>188.2</ele>
        <time>2025-04-05T06:31:34Z</time>
      </trkpt>
      <trkpt lat="50.40402" lon="4.82157">
        <ele>187.8</ele>
        <time>2025-04-05T06:31:35Z</time>
      </trkpt>
      <trkpt lat="50.40406" lon="4.82147">
        <ele>187.4</ele>
        <time>2025-04-05T06:31:36Z</time>
      </trkpt>
      <trkpt lat="50.40408" lon="4.82138">
        <ele>187.2</ele>
        <time>2025-04-05T06:31:37Z</time>
      </trkpt>
      <trkpt lat="50.40412" lon="4.82128">
        <ele>186.8</ele>
        <time>2025-04-05T06:31:38Z</time>
      </trkpt>
      <trkpt lat="50.40415" lon="4.82119">
        <ele>186.6</ele>
        <time>2025-04-05T06:31:39Z</time>
      </trkpt>
      <trkpt lat="50.40418" lon="4.82109">
        <ele>186.2</ele>
        <time>2025-04-05T06:31:40Z</time>
      </trkpt>
      <trkpt lat="50.40422" lon="4.82099">
        <ele>186</ele>
        <time>2025-04-05T06:31:41Z</time>
      </trkpt>
      <trkpt lat="50.40426" lon="4.82089">
        <ele>185.6</ele>
        <time>2025-04-05T06:31:42Z</time>
      </trkpt>
      <trkpt lat="50.40429" lon="4.8208">
        <ele>185.4</ele>
        <time>2025-04-05T06:31:43Z</time>
      </trkpt>
      <trkpt lat="50.40432" lon="4.8207">
        <ele>185</ele>
        <time>2025-04-05T06:31:44Z</time>
      </trkpt>
      <trkpt lat="50.40437" lon="4.82059">
        <ele>184.8</ele>
        <time>2025-04-05T06:31:45Z</time>
      </trkpt>
      <trkpt lat="50.4044" lon="4.82049">
        <ele>184.6</ele>
        <time>2025-04-05T06:31:46Z</time>
      </trkpt>
      <trkpt lat="50.40443" lon="4.8204">
        <ele>184.2</ele>
        <time>2025-04-05T06:31:47Z</time>
      </trkpt>
      <trkpt lat="50.40445" lon="4.82032">
        <ele>184</ele>
        <time>2025-04-05T06:31:48Z</time>
      </trkpt>
      <trkpt lat="50.40448" lon="4.82024">
        <ele>183.8</ele>
        <time>2025-04-05T06:31:49Z</time>
      </trkpt>
      <trkpt lat="50.4045" lon="4.82018">
        <ele>183.8</ele>
        <time>2025-04-05T06:31:50Z</time>
      </trkpt>
      <trkpt lat="50.40452" lon="4.82012">
        <ele>183.6</ele>
        <time>2025-04-05T06:31:51Z</time>
      </trkpt>
      <trkpt lat="50.40454" lon="4.82006">
        <ele>183.6</ele>
        <time>2025-04-05T06:31:52Z</time>
      </trkpt>
      <trkpt lat="50.40457" lon="4.82">
        <ele>183.8</ele>
        <time>2025-04-05T06:31:53Z</time>
      </trkpt>
      <trkpt lat="50.40459" lon="4.81993">
        <ele>183.4</ele>
        <time>2025-04-05T06:31:54Z</time>
      </trkpt>
      <trkpt lat="50.4046" lon="4.81986">
        <ele>183.2</ele>
        <time>2025-04-05T06:31:55Z</time>
      </trkpt>
      <trkpt lat="50.40461" lon="4.8198">
        <ele>182.8</ele>
        <time>2025-04-05T06:31:56Z</time>
      </trkpt>
      <trkpt lat="50.4046" lon="4.81974">
        <ele>182.6</ele>
        <time>2025-04-05T06:31:57Z</time>
      </trkpt>
      <trkpt lat="50.40458" lon="4.81969">
        <ele>182.2</ele>
        <time>2025-04-05T06:31:58Z</time>
      </trkpt>
      <trkpt lat="50.40454" lon="4.81963">
        <ele>181.8</ele>
        <time>2025-04-05T06:31:59Z</time>
      </trkpt>
      <trkpt lat="50.40449" lon="4.81957">
        <ele>181.4</ele>
        <time>2025-04-05T06:32:00Z</time>
      </trkpt>
      <trkpt lat="50.40444" lon="4.81951">
        <ele>181.2</ele>
        <time>2025-04-05T06:32:01Z</time>
      </trkpt>
      <trkpt lat="50.40439" lon="4.81945">
        <ele>181</ele>
        <time>2025-04-05T06:32:02Z</time>
      </trkpt>
      <trkpt lat="50.40434" lon="4.8194">
        <ele>180.6</ele>
        <time>2025-04-05T06:32:03Z</time>
      </trkpt>
      <trkpt lat="50.40429" lon="4.81934">
        <ele>180.4</ele>
        <time>2025-04-05T06:32:04Z</time>
      </trkpt>
      <trkpt lat="50.40424" lon="4.81928">
        <ele>180.2</ele>
        <time>2025-04-05T06:32:05Z</time>
      </trkpt>
      <trkpt lat="50.40419" lon="4.81922">
        <ele>180</ele>
        <time>2025-04-05T06:32:06Z</time>
      </trkpt>
      <trkpt lat="50.40414" lon="4.81915">
        <ele>179.8</ele>
        <time>2025-04-05T06:32:07Z</time>
      </trkpt>
      <trkpt lat="50.40408" lon="4.81909">
        <ele>179.8</ele>
        <time>2025-04-05T06:32:08Z</time>
      </trkpt>
      <trkpt lat="50.40402" lon="4.81903">
        <ele>179.6</ele>
        <time>2025-04-05T06:32:09Z</time>
      </trkpt>
      <trkpt lat="50.40397" lon="4.81899">
        <ele>179.6</ele>
        <time>2025-04-05T06:32:10Z</time>
      </trkpt>
      <trkpt lat="50.40391" lon="4.81895">
        <ele>179.6</ele>
        <time>2025-04-05T06:32:11Z</time>
      </trkpt>
      <trkpt lat="50.40385" lon="4.81892">
        <ele>179.6</ele>
        <time>2025-04-05T06:32:12Z</time>
      </trkpt>
      <trkpt lat="50.40379" lon="4.81891">
        <ele>179.6</ele>
        <time>2025-04-05T06:32:13Z</time>
      </trkpt>
      <trkpt lat="50.40373" lon="4.81889">
        <ele>179.6</ele>
        <time>2025-04-05T06:32:14Z</time>
      </trkpt>
      <trkpt lat="50.40367" lon="4.81888">
        <ele>179.6</ele>
        <time>2025-04-05T06:32:15Z</time>
      </trkpt>
      <trkpt lat="50.40361" lon="4.81887">
        <ele>179.6</ele>
        <time>2025-04-05T06:32:16Z</time>
      </trkpt>
      <trkpt lat="50.40355" lon="4.81886">
        <ele>179.8</ele>
        <time>2025-04-05T06:32:17Z</time>
      </trkpt>
      <trkpt lat="50.40348" lon="4.81885">
        <ele>179.8</ele>
        <time>2025-04-05T06:32:18Z</time>
      </trkpt>
      <trkpt lat="50.40343" lon="4.81884">
        <ele>179.8</ele>
        <time>2025-04-05T06:32:19Z</time>
      </trkpt>
      <trkpt lat="50.40337" lon="4.81883">
        <ele>179.8</ele>
        <time>2025-04-05T06:32:20Z</time>
      </trkpt>
      <trkpt lat="50.40331" lon="4.81882">
        <ele>179.8</ele>
        <time>2025-04-05T06:32:21Z</time>
      </trkpt>
      <trkpt lat="50.40326" lon="4.81879">
        <ele>179.8</ele>
        <time>2025-04-05T06:32:22Z</time>
      </trkpt>
      <trkpt lat="50.4032" lon="4.81876">
        <ele>180</ele>
        <time>2025-04-05T06:32:23Z</time>
      </trkpt>
      <trkpt lat="50.40315" lon="4.81872">
        <ele>180</ele>
        <time>2025-04-05T06:32:24Z</time>
      </trkpt>
      <trkpt lat="50.40309" lon="4.81868">
        <ele>180</ele>
        <time>2025-04-05T06:32:25Z</time>
      </trkpt>
      <trkpt lat="50.40304" lon="4.81864">
        <ele>180</ele>
        <time>2025-04-05T06:32:26Z</time>
      </trkpt>
      <trkpt lat="50.40299" lon="4.8186">
        <ele>180</ele>
        <time>2025-04-05T06:32:27Z</time>
      </trkpt>
      <trkpt lat="50.40294" lon="4.81856">
        <ele>180.2</ele>
        <time>2025-04-05T06:32:28Z</time>
      </trkpt>
      <trkpt lat="50.40288" lon="4.81852">
        <ele>180.2</ele>
        <time>2025-04-05T06:32:29Z</time>
      </trkpt>
      <trkpt lat="50.40283" lon="4.81848">
        <ele>180.2</ele>
        <time>2025-04-05T06:32:30Z</time>
      </trkpt>
      <trkpt lat="50.40279" lon="4.81845">
        <ele>180.4</ele>
        <time>2025-04-05T06:32:31Z</time>
      </trkpt>
      <trkpt lat="50.40274" lon="4.81841">
        <ele>180.4</ele>
        <time>2025-04-05T06:32:32Z</time>
      </trkpt>
      <trkpt lat="50.40269" lon="4.81836">
        <ele>180.6</ele>
        <time>2025-04-05T06:32:33Z</time>
      </trkpt>
      <trkpt lat="50.40264" lon="4.81832">
        <ele>180.6</ele>
        <time>2025-04-05T06:32:34Z</time>
      </trkpt>
      <trkpt lat="50.4026" lon="4.81828">
        <ele>180.6</ele>
        <time>2025-04-05T06:32:35Z</time>
      </trkpt>
      <trkpt lat="50.40256" lon="4.81825">
        <ele>180.8</ele>
        <time>2025-04-05T06:32:36Z</time>
      </trkpt>
      <trkpt lat="50.40252" lon="4.81821">
        <ele>180.8</ele>
        <time>2025-04-05T06:32:37Z</time>
      </trkpt>
      <trkpt lat="50.40247" lon="4.81816">
        <ele>181</ele>
        <time>2025-04-05T06:32:38Z</time>
      </trkpt>
      <trkpt lat="50.40243" lon="4.81811">
        <ele>181.2</ele>
        <time>2025-04-05T06:32:39Z</time>
      </trkpt>
      <trkpt lat="50.40238" lon="4.81806">
        <ele>181.4</ele>
        <time>2025-04-05T06:32:40Z</time>
      </trkpt>
      <trkpt lat="50.40234" lon="4.81801">
        <ele>181.4</ele>
        <time>2025-04-05T06:32:41Z</time>
      </trkpt>
      <trkpt lat="50.40229" lon="4.81795">
        <ele>181.6</ele>
        <time>2025-04-05T06:32:42Z</time>
      </trkpt>
      <trkpt lat="50.40225" lon="4.8179">
        <ele>181.8</ele>
        <time>2025-04-05T06:32:43Z</time>
      </trkpt>
      <trkpt lat="50.40221" lon="4.81785">
        <ele>182</ele>
        <time>2025-04-05T06:32:44Z</time>
      </trkpt>
      <trkpt lat="50.40217" lon="4.81781">
        <ele>182.4</ele>
        <time>2025-04-05T06:32:45Z</time>
      </trkpt>
      <trkpt lat="50.40213" lon="4.81778">
        <ele>182.6</ele>
        <time>2025-04-05T06:32:46Z</time>
      </trkpt>
      <trkpt lat="50.40208" lon="4.81775">
        <ele>182.8</ele>
        <time>2025-04-05T06:32:47Z</time>
      </trkpt>
      <trkpt lat="50.40203" lon="4.81772">
        <ele>183</ele>
        <time>2025-04-05T06:32:48Z</time>
      </trkpt>
      <trkpt lat="50.40198" lon="4.81771">
        <ele>183.2</ele>
        <time>2025-04-05T06:32:49Z</time>
      </trkpt>
      <trkpt lat="50.40193" lon="4.81771">
        <ele>183.6</ele>
        <time>2025-04-05T06:32:50Z</time>
      </trkpt>
      <trkpt lat="50.40189" lon="4.81772">
        <ele>183.8</ele>
        <time>2025-04-05T06:32:51Z</time>
      </trkpt>
      <trkpt lat="50.40185" lon="4.81774">
        <ele>184</ele>
        <time>2025-04-05T06:32:52Z</time>
      </trkpt>
      <trkpt lat="50.40181" lon="4.81777">
        <ele>184.2</ele>
        <time>2025-04-05T06:32:53Z</time>
      </trkpt>
      <trkpt lat="50.40177" lon="4.8178">
        <ele>184.6</ele>
        <time>2025-04-05T06:32:54Z</time>
      </trkpt>
      <trkpt lat="50.40174" lon="4.81784">
        <ele>184.8</ele>
        <time>2025-04-05T06:32:55Z</time>
      </trkpt>
      <trkpt lat="50.4017" lon="4.81789">
        <ele>185</ele>
        <time>2025-04-05T06:32:56Z</time>
      </trkpt>
      <trkpt lat="50.40167" lon="4.81794">
        <ele>185.2</ele>
        <time>2025-04-05T06:32:57Z</time>
      </trkpt>
      <trkpt lat="50.40163" lon="4.81799">
        <ele>185.6</ele>
        <time>2025-04-05T06:32:58Z</time>
      </trkpt>
      <trkpt lat="50.40161" lon="4.81804">
        <ele>185.8</ele>
        <time>2025-04-05T06:32:59Z</time>
      </trkpt>
      <trkpt lat="50.40158" lon="4.81809">
        <ele>186.2</ele>
        <time>2025-04-05T06:33:00Z</time>
      </trkpt>
      <trkpt lat="50.40155" lon="4.81815">
        <ele>186.4</ele>
        <time>2025-04-05T06:33:01Z</time>
      </trkpt>
      <trkpt lat="50.40153" lon="4.8182">
        <ele>186.6</ele>
        <time>2025-04-05T06:33:02Z</time>
      </trkpt>
      <trkpt lat="50.4015" lon="4.81825">
        <ele>186.8</ele>
        <time>2025-04-05T06:33:03Z</time>
      </trkpt>
      <trkpt lat="50.40148" lon="4.8183">
        <ele>187.2</ele>
        <time>2025-04-05T06:33:04Z</time>
      </trkpt>
      <trkpt lat="50.40146" lon="4.81836">
        <ele>187.4</ele>
        <time>2025-04-05T06:33:05Z</time>
      </trkpt>
      <trkpt lat="50.40143" lon="4.81841">
        <ele>187.6</ele>
        <time>2025-04-05T06:33:06Z</time>
      </trkpt>
      <trkpt lat="50.40141" lon="4.81846">
        <ele>187.8</ele>
        <time>2025-04-05T06:33:07Z</time>
      </trkpt>
      <trkpt lat="50.40138" lon="4.8185">
        <ele>188</ele>
        <time>2025-04-05T06:33:08Z</time>
      </trkpt>
      <trkpt lat="50.40135" lon="4.81856">
        <ele>188.4</ele>
        <time>2025-04-05T06:33:09Z</time>
      </trkpt>
      <trkpt lat="50.40133" lon="4.81861">
        <ele>188.6</ele>
        <time>2025-04-05T06:33:10Z</time>
      </trkpt>
      <trkpt lat="50.4013" lon="4.81865">
        <ele>188.8</ele>
        <time>2025-04-05T06:33:11Z</time>
      </trkpt>
      <trkpt lat="50.40128" lon="4.8187">
        <ele>189</ele>
        <time>2025-04-05T06:33:12Z</time>
      </trkpt>
      <trkpt lat="50.40125" lon="4.81876">
        <ele>189.4</ele>
        <time>2025-04-05T06:33:13Z</time>
      </trkpt>
      <trkpt lat="50.40123" lon="4.81881">
        <ele>189.6</ele>
        <time>2025-04-05T06:33:14Z</time>
      </trkpt>
      <trkpt lat="50.40121" lon="4.81886">
        <ele>189.8</ele>
        <time>2025-04-05T06:33:15Z</time>
      </trkpt>
      <trkpt lat="50.40119" lon="4.81889">
        <ele>190</ele>
        <time>2025-04-05T06:33:16Z</time>
      </trkpt>
      <trkpt lat="50.40117" lon="4.81892">
        <ele>190.2</ele>
        <time>2025-04-05T06:33:17Z</time>
      </trkpt>
      <trkpt lat="50.40114" lon="4.81891">
        <ele>190.2</ele>
        <time>2025-04-05T06:33:18Z</time>
      </trkpt>
      <trkpt lat="50.40112" lon="4.81889">
        <ele>190.4</ele>
        <time>2025-04-05T06:33:19Z</time>
      </trkpt>
      <trkpt lat="50.40109" lon="4.81885">
        <ele>190.4</ele>
        <time>2025-04-05T06:33:20Z</time>
      </trkpt>
      <trkpt lat="50.40105" lon="4.8188">
        <ele>190.4</ele>
        <time>2025-04-05T06:33:21Z</time>
      </trkpt>
      <trkpt lat="50.40102" lon="4.81875">
        <ele>190.4</ele>
        <time>2025-04-05T06:33:22Z</time>
      </trkpt>
      <trkpt lat="50.40098" lon="4.81871">
        <ele>190.4</ele>
        <time>2025-04-05T06:33:23Z</time>
      </trkpt>
      <trkpt lat="50.40094" lon="4.81867">
        <ele>190.4</ele>
        <time>2025-04-05T06:33:24Z</time>
      </trkpt>
      <trkpt lat="50.40091" lon="4.81863">
        <ele>190.6</ele>
        <time>2025-04-05T06:33:25Z</time>
      </trkpt>
      <trkpt lat="50.40087" lon="4.81859">
        <ele>190.6</ele>
        <time>2025-04-05T06:33:26Z</time>
      </trkpt>
      <trkpt lat="50.40083" lon="4.81855">
        <ele>190.6</ele>
        <time>2025-04-05T06:33:27Z</time>
      </trkpt>
      <trkpt lat="50.40079" lon="4.81851">
        <ele>190.8</ele>
        <time>2025-04-05T06:33:28Z</time>
      </trkpt>
      <trkpt lat="50.40075" lon="4.81847">
        <ele>190.8</ele>
        <time>2025-04-05T06:33:29Z</time>
      </trkpt>
      <trkpt lat="50.40071" lon="4.81844">
        <ele>190.8</ele>
        <time>2025-04-05T06:33:30Z</time>
      </trkpt>
      <trkpt lat="50.40067" lon="4.81839">
        <ele>191</ele>
        <time>2025-04-05T06:33:31Z</time>
      </trkpt>
      <trkpt lat="50.40064" lon="4.81835">
        <ele>191</ele>
        <time>2025-04-05T06:33:32Z</time>
      </trkpt>
      <trkpt lat="50.40059" lon="4.81831">
        <ele>191.2</ele>
        <time>2025-04-05T06:33:33Z</time>
      </trkpt>
      <trkpt lat="50.40056" lon="4.81827">
        <ele>191.2</ele>
        <time>2025-04-05T06:33:34Z</time>
      </trkpt>
      <trkpt lat="50.40052" lon="4.81823">
        <ele>191.4</ele>
        <time>2025-04-05T06:33:35Z</time>
      </trkpt>
      <trkpt lat="50.40048" lon="4.81819">
        <ele>191.6</ele>
        <time>2025-04-05T06:33:36Z</time>
      </trkpt>
      <trkpt lat="50.40044" lon="4.81815">
        <ele>191.8</ele>
        <time>2025-04-05T06:33:37Z</time>
      </trkpt>
      <trkpt lat="50.40041" lon="4.81812">
        <ele>192</ele>
        <time>2025-04-05T06:33:38Z</time>
      </trkpt>
      <trkpt lat="50.40037" lon="4.81808">
        <ele>192.2</ele>
        <time>2025-04-05T06:33:39Z</time>
      </trkpt>
      <trkpt lat="50.40033" lon="4.81805">
        <ele>192.4</ele>
        <time>2025-04-05T06:33:40Z</time>
      </trkpt>
      <trkpt lat="50.4003" lon="4.81801">
        <ele>192.8</ele>
        <time>2025-04-05T06:33:41Z</time>
      </trkpt>
      <trkpt lat="50.40027" lon="4.81797">
        <ele>193</ele>
        <time>2025-04-05T06:33:42Z</time>
      </trkpt>
      <trkpt lat="50.40024" lon="4.81794">
        <ele>193.2</ele>
        <time>2025-04-05T06:33:43Z</time>
      </trkpt>
      <trkpt lat="50.40021" lon="4.81791">
        <ele>193.6</ele>
        <time>2025-04-05T06:33:44Z</time>
      </trkpt>
      <trkpt lat="50.40018" lon="4.81788">
        <ele>193.8</ele>
        <time>2025-04-05T06:33:45Z</time>
      </trkpt>
      <trkpt lat="50.40015" lon="4.81784">
        <ele>194</ele>
        <time>2025-04-05T06:33:46Z</time>
      </trkpt>
      <trkpt lat="50.40012" lon="4.81781">
        <ele>194.4</ele>
        <time>2025-04-05T06:33:47Z</time>
      </trkpt>
      <trkpt lat="50.40009" lon="4.81777">
        <ele>194.6</ele>
        <time>2025-04-05T06:33:48Z</time>
      </trkpt>
      <trkpt lat="50.40007" lon="4.81774">
        <ele>194.8</ele>
        <time>2025-04-05T06:33:49Z</time>
      </trkpt>
      <trkpt lat="50.40004" lon="4.8177">
        <ele>195</ele>
        <time>2025-04-05T06:33:50Z</time>
      </trkpt>
      <trkpt lat="50.40001" lon="4.81766">
        <ele>195.4</ele>
        <time>2025-04-05T06:33:51Z</time>
      </trkpt>
      <trkpt lat="50.39998" lon="4.81763">
        <ele>195.6</ele>
        <time>2025-04-05T06:33:52Z</time>
      </trkpt>
      <trkpt lat="50.39995" lon="4.81759">
        <ele>195.8</ele>
        <time>2025-04-05T06:33:53Z</time>
      </trkpt>
      <trkpt lat="50.39992" lon="4.81755">
        <ele>196.2</ele>
        <time>2025-04-05T06:33:54Z</time>
      </trkpt>
      <trkpt lat="50.39989" lon="4.81752">
        <ele>196.4</ele>
        <time>2025-04-05T06:33:55Z</time>
      </trkpt>
      <trkpt lat="50.39986" lon="4.81749">
        <ele>196.6</ele>
        <time>2025-04-05T06:33:56Z</time>
      </trkpt>
      <trkpt lat="50.39983" lon="4.81746">
        <ele>196.8</ele>
        <time>2025-04-05T06:33:57Z</time>
      </trkpt>
      <trkpt lat="50.3998" lon="4.81744">
        <ele>197</ele>
        <time>2025-04-05T06:33:58Z</time>
      </trkpt>
      <trkpt lat="50.39977" lon="4.81742">
        <ele>197.2</ele>
        <time>2025-04-05T06:33:59Z</time>
      </trkpt>
      <trkpt lat="50.39974" lon="4.81739">
        <ele>197.6</ele>
        <time>2025-04-05T06:34:00Z</time>
      </trkpt>
      <trkpt lat="50.39971" lon="4.81736">
        <ele>197.8</ele>
        <time>2025-04-05T06:34:01Z</time>
      </trkpt>
      <trkpt lat="50.39969" lon="4.81733">
        <ele>198</ele>
        <time>2025-04-05T06:34:02Z</time>
      </trkpt>
      <trkpt lat="50.39965" lon="4.81729">
        <ele>198.2</ele>
        <time>2025-04-05T06:34:03Z</time>
      </trkpt>
      <trkpt lat="50.39963" lon="4.81727">
        <ele>198.4</ele>
        <time>2025-04-05T06:34:04Z</time>
      </trkpt>
      <trkpt lat="50.3996" lon="4.81724">
        <ele>198.6</ele>
        <time>2025-04-05T06:34:05Z</time>
      </trkpt>
      <trkpt lat="50.39957" lon="4.81722">
        <ele>199</ele>
        <time>2025-04-05T06:34:06Z</time>
      </trkpt>
      <trkpt lat="50.39954" lon="4.8172">
        <ele>199.2</ele>
        <time>2025-04-05T06:34:07Z</time>
      </trkpt>
      <trkpt lat="50.39951" lon="4.81718">
        <ele>199.4</ele>
        <time>2025-04-05T06:34:08Z</time>
      </trkpt>
      <trkpt lat="50.39949" lon="4.81716">
        <ele>199.6</ele>
        <time>2025-04-05T06:34:09Z</time>
      </trkpt>
      <trkpt lat="50.39946" lon="4.81714">
        <ele>199.8</ele>
        <time>2025-04-05T06:34:10Z</time>
      </trkpt>
      <trkpt lat="50.39944" lon="4.81711">
        <ele>200</ele>
        <time>2025-04-05T06:34:11Z</time>
      </trkpt>
      <trkpt lat="50.39941" lon="4.81709">
        <ele>200.2</ele>
        <time>2025-04-05T06:34:12Z</time>
      </trkpt>
      <trkpt lat="50.39938" lon="4.81706">
        <ele>200.6</ele>
        <time>2025-04-05T06:34:13Z</time>
      </trkpt>
      <trkpt lat="50.39935" lon="4.81703">
        <ele>200.8</ele>
        <time>2025-04-05T06:34:14Z</time>
      </trkpt>
      <trkpt lat="50.39933" lon="4.81701">
        <ele>201</ele>
        <time>2025-04-05T06:34:15Z</time>
      </trkpt>
      <trkpt lat="50.3993" lon="4.81698">
        <ele>201.2</ele>
        <time>2025-04-05T06:34:16Z</time>
      </trkpt>
      <trkpt lat="50.39927" lon="4.81695">
        <ele>201.4</ele>
        <time>2025-04-05T06:34:17Z</time>
      </trkpt>
      <trkpt lat="50.39924" lon="4.81693">
        <ele>201.8</ele>
        <time>2025-04-05T06:34:18Z</time>
      </trkpt>
      <trkpt lat="50.39921" lon="4.8169">
        <ele>202</ele>
        <time>2025-04-05T06:34:19Z</time>
      </trkpt>
      <trkpt lat="50.39919" lon="4.81688">
        <ele>202.2</ele>
        <time>2025-04-05T06:34:20Z</time>
      </trkpt>
      <trkpt lat="50.39916" lon="4.81686">
        <ele>202.4</ele>
        <time>2025-04-05T06:34:21Z</time>
      </trkpt>
      <trkpt lat="50.39914" lon="4.81684">
        <ele>202.6</ele>
        <time>2025-04-05T06:34:22Z</time>
      </trkpt>
      <trkpt lat="50.39912" lon="4.81682">
        <ele>203</ele>
        <time>2025-04-05T06:34:23Z</time>
      </trkpt>
      <trkpt lat="50.39908" lon="4.81679">
        <ele>203.2</ele>
        <time>2025-04-05T06:34:24Z</time>
      </trkpt>
      <trkpt lat="50.39906" lon="4.81677">
        <ele>203.4</ele>
        <time>2025-04-05T06:34:25Z</time>
      </trkpt>
      <trkpt lat="50.39903" lon="4.81675">
        <ele>203.8</ele>
        <time>2025-04-05T06:34:26Z</time>
      </trkpt>
      <trkpt lat="50.399" lon="4.81673">
        <ele>204</ele>
        <time>2025-04-05T06:34:27Z</time>
      </trkpt>
      <trkpt lat="50.39898" lon="4.81671">
        <ele>204.2</ele>
        <time>2025-04-05T06:34:28Z</time>
      </trkpt>
      <trkpt lat="50.39895" lon="4.81669">
        <ele>204.6</ele>
        <time>2025-04-05T06:34:29Z</time>
      </trkpt>
      <trkpt lat="50.39892" lon="4.81667">
        <ele>204.8</ele>
        <time>2025-04-05T06:34:30Z</time>
      </trkpt>
      <trkpt lat="50.39889" lon="4.81665">
        <ele>205.2</ele>
        <time>2025-04-05T06:34:31Z</time>
      </trkpt>
      <trkpt lat="50.39887" lon="4.81663">
        <ele>205.4</ele>
        <time>2025-04-05T06:34:32Z</time>
      </trkpt>
      <trkpt lat="50.39884" lon="4.81661">
        <ele>205.8</ele>
        <time>2025-04-05T06:34:33Z</time>
      </trkpt>
      <trkpt lat="50.39882" lon="4.81658">
        <ele>206</ele>
        <time>2025-04-05T06:34:34Z</time>
      </trkpt>
      <trkpt lat="50.3988" lon="4.81656">
        <ele>206.4</ele>
        <time>2025-04-05T06:34:35Z</time>
      </trkpt>
      <trkpt lat="50.39877" lon="4.81654">
        <ele>206.6</ele>
        <time>2025-04-05T06:34:36Z</time>
      </trkpt>
      <trkpt lat="50.39875" lon="4.81652">
        <ele>207</ele>
        <time>2025-04-05T06:34:37Z</time>
      </trkpt>
      <trkpt lat="50.39873" lon="4.8165">
        <ele>207.2</ele>
        <time>2025-04-05T06:34:38Z</time>
      </trkpt>
      <trkpt lat="50.39871" lon="4.81648">
        <ele>207.6</ele>
        <time>2025-04-05T06:34:39Z</time>
      </trkpt>
      <trkpt lat="50.39868" lon="4.81646">
        <ele>208</ele>
        <time>2025-04-05T06:34:40Z</time>
      </trkpt>
      <trkpt lat="50.39865" lon="4.81644">
        <ele>208.2</ele>
        <time>2025-04-05T06:34:41Z</time>
      </trkpt>
      <trkpt lat="50.39862" lon="4.81641">
        <ele>208.6</ele>
        <time>2025-04-05T06:34:42Z</time>
      </trkpt>
      <trkpt lat="50.3986" lon="4.81639">
        <ele>209</ele>
        <time>2025-04-05T06:34:43Z</time>
      </trkpt>
      <trkpt lat="50.39858" lon="4.81636">
        <ele>209.2</ele>
        <time>2025-04-05T06:34:44Z</time>
      </trkpt>
      <trkpt lat="50.39854" lon="4.81633">
        <ele>209.6</ele>
        <time>2025-04-05T06:34:45Z</time>
      </trkpt>
      <trkpt lat="50.39853" lon="4.81631">
        <ele>210</ele>
        <time>2025-04-05T06:34:46Z</time>
      </trkpt>
      <trkpt lat="50.39851" lon="4.81629">
        <ele>210.2</ele>
        <time>2025-04-05T06:34:47Z</time>
      </trkpt>
      <trkpt lat="50.3985" lon="4.81627">
        <ele>210.6</ele>
        <time>2025-04-05T06:34:48Z</time>
      </trkpt>
      <trkpt lat="50.39848" lon="4.81625">
        <ele>211</ele>
        <time>2025-04-05T06:34:49Z</time>
      </trkpt>
      <trkpt lat="50.39846" lon="4.81623">
        <ele>211.2</ele>
        <time>2025-04-05T06:34:50Z</time>
      </trkpt>
      <trkpt lat="50.39844" lon="4.8162">
        <ele>211.6</ele>
        <time>2025-04-05T06:34:51Z</time>
      </trkpt>
      <trkpt lat="50.39842" lon="4.81618">
        <ele>211.8</ele>
        <time>2025-04-05T06:34:52Z</time>
      </trkpt>
      <trkpt lat="50.39841" lon="4.81615">
        <ele>212.2</ele>
        <time>2025-04-05T06:34:53Z</time>
      </trkpt>
      <trkpt lat="50.3984" lon="4.81613">
        <ele>212.4</ele>
        <time>2025-04-05T06:34:54Z</time>
      </trkpt>
      <trkpt lat="50.39838" lon="4.8161">
        <ele>212.6</ele>
        <time>2025-04-05T06:34:55Z</time>
      </trkpt>
      <trkpt lat="50.39837" lon="4.81608">
        <ele>213</ele>
        <time>2025-04-05T06:34:56Z</time>
      </trkpt>
      <trkpt lat="50.39835" lon="4.81606">
        <ele>213.2</ele>
        <time>2025-04-05T06:34:57Z</time>
      </trkpt>
      <trkpt lat="50.39833" lon="4.81603">
        <ele>213.6</ele>
        <time>2025-04-05T06:34:58Z</time>
      </trkpt>
      <trkpt lat="50.39831" lon="4.81601">
        <ele>213.8</ele>
        <time>2025-04-05T06:34:59Z</time>
      </trkpt>
      <trkpt lat="50.3983" lon="4.81599">
        <ele>214.2</ele>
        <time>2025-04-05T06:35:00Z</time>
      </trkpt>
      <trkpt lat="50.39829" lon="4.81598">
        <ele>214.4</ele>
        <time>2025-04-05T06:35:01Z</time>
      </trkpt>
      <trkpt lat="50.39827" lon="4.81596">
        <ele>214.8</ele>
        <time>2025-04-05T06:35:02Z</time>
      </trkpt>
      <trkpt lat="50.39825" lon="4.81594">
        <ele>215</ele>
        <time>2025-04-05T06:35:03Z</time>
      </trkpt>
      <trkpt lat="50.39823" lon="4.81592">
        <ele>215.4</ele>
        <time>2025-04-05T06:35:04Z</time>
      </trkpt>
      <trkpt lat="50.39821" lon="4.81589">
        <ele>215.6</ele>
        <time>2025-04-05T06:35:05Z</time>
      </trkpt>
      <trkpt lat="50.39819" lon="4.81587">
        <ele>216</ele>
        <time>2025-04-05T06:35:06Z</time>
      </trkpt>
      <trkpt lat="50.39817" lon="4.81585">
        <ele>216.2</ele>
        <time>2025-04-05T06:35:07Z</time>
      </trkpt>
      <trkpt lat="50.39816" lon="4.81583">
        <ele>216.6</ele>
        <time>2025-04-05T06:35:08Z</time>
      </trkpt>
      <trkpt lat="50.39814" lon="4.81581">
        <ele>216.8</ele>
        <time>2025-04-05T06:35:09Z</time>
      </trkpt>
      <trkpt lat="50.39813" lon="4.81579">
        <ele>217</ele>
        <time>2025-04-05T06:35:10Z</time>
      </trkpt>
      <trkpt lat="50.39811" lon="4.81577">
        <ele>217.4</ele>
        <time>2025-04-05T06:35:11Z</time>
      </trkpt>
      <trkpt lat="50.3981" lon="4.81575">
        <ele>217.6</ele>
        <time>2025-04-05T06:35:12Z</time>
      </trkpt>
      <trkpt lat="50.39809" lon="4.81573">
        <ele>218</ele>
        <time>2025-04-05T06:35:13Z</time>
      </trkpt>
      <trkpt lat="50.39807" lon="4.81571">
        <ele>218.2</ele>
        <time>2025-04-05T06:35:14Z</time>
      </trkpt>
      <trkpt lat="50.39806" lon="4.81569">
        <ele>218.6</ele>
        <time>2025-04-05T06:35:15Z</time>
      </trkpt>
      <trkpt lat="50.39804" lon="4.81568">
        <ele>218.8</ele>
        <time>2025-04-05T06:35:16Z</time>
      </trkpt>
      <trkpt lat="50.39803" lon="4.81567">
        <ele>219</ele>
        <time>2025-04-05T06:35:17Z</time>
      </trkpt>
      <trkpt lat="50.39801" lon="4.81565">
        <ele>219.2</ele>
        <time>2025-04-05T06:35:18Z</time>
      </trkpt>
      <trkpt lat="50.39799" lon="4.81564">
        <ele>219.6</ele>
        <time>2025-04-05T06:35:19Z</time>
      </trkpt>
      <trkpt lat="50.39797" lon="4.81562">
        <ele>219.8</ele>
        <time>2025-04-05T06:35:20Z</time>
      </trkpt>
      <trkpt lat="50.39795" lon="4.8156">
        <ele>220</ele>
        <time>2025-04-05T06:35:21Z</time>
      </trkpt>
      <trkpt lat="50.39793" lon="4.81558">
        <ele>220.2</ele>
        <time>2025-04-05T06:35:22Z</time>
      </trkpt>
      <trkpt lat="50.39791" lon="4.81557">
        <ele>220.4</ele>
        <time>2025-04-05T06:35:23Z</time>
      </trkpt>
      <trkpt lat="50.39789" lon="4.81555">
        <ele>220.6</ele>
        <time>2025-04-05T06:35:24Z</time>
      </trkpt>
      <trkpt lat="50.39787" lon="4.81553">
        <ele>220.8</ele>
        <time>2025-04-05T06:35:25Z</time>
      </trkpt>
      <trkpt lat="50.39785" lon="4.81551">
        <ele>221</ele>
        <time>2025-04-05T06:35:26Z</time>
      </trkpt>
      <trkpt lat="50.39782" lon="4.81549">
        <ele>221.2</ele>
        <time>2025-04-05T06:35:27Z</time>
      </trkpt>
      <trkpt lat="50.3978" lon="4.81546">
        <ele>221.6</ele>
        <time>2025-04-05T06:35:28Z</time>
      </trkpt>
      <trkpt lat="50.39777" lon="4.81544">
        <ele>221.8</ele>
        <time>2025-04-05T06:35:29Z</time>
      </trkpt>
      <trkpt lat="50.39775" lon="4.81541">
        <ele>222</ele>
        <time>2025-04-05T06:35:30Z</time>
      </trkpt>
      <trkpt lat="50.39773" lon="4.81539">
        <ele>222.2</ele>
        <time>2025-04-05T06:35:31Z</time>
      </trkpt>
      <trkpt lat="50.39771" lon="4.81537">
        <ele>222.4</ele>
        <time>2025-04-05T06:35:32Z</time>
      </trkpt>
      <trkpt lat="50.39769" lon="4.81535">
        <ele>222.6</ele>
        <time>2025-04-05T06:35:33Z</time>
      </trkpt>
      <trkpt lat="50.39767" lon="4.81532">
        <ele>222.8</ele>
        <time>2025-04-05T06:35:34Z</time>
      </trkpt>
      <trkpt lat="50.39764" lon="4.8153">
        <ele>223</ele>
        <time>2025-04-05T06:35:35Z</time>
      </trkpt>
      <trkpt lat="50.39763" lon="4.81528">
        <ele>223.2</ele>
        <time>2025-04-05T06:35:36Z</time>
      </trkpt>
      <trkpt lat="50.39761" lon="4.81526">
        <ele>223.4</ele>
        <time>2025-04-05T06:35:37Z</time>
      </trkpt>
      <trkpt lat="50.39758" lon="4.81524">
        <ele>223.6</ele>
        <time>2025-04-05T06:35:38Z</time>
      </trkpt>
      <trkpt lat="50.39756" lon="4.81522">
        <ele>223.8</ele>
        <time>2025-04-05T06:35:39Z</time>
      </trkpt>
      <trkpt lat="50.39754" lon="4.81519">
        <ele>224</ele>
        <time>2025-04-05T06:35:40Z</time>
      </trkpt>
      <trkpt lat="50.39751" lon="4.81517">
        <ele>224.2</ele>
        <time>2025-04-05T06:35:41Z</time>
      </trkpt>
      <trkpt lat="50.3975" lon="4.81514">
        <ele>224.4</ele>
        <time>2025-04-05T06:35:42Z</time>
      </trkpt>
      <trkpt lat="50.39748" lon="4.81512">
        <ele>224.6</ele>
        <time>2025-04-05T06:35:43Z</time>
      </trkpt>
      <trkpt lat="50.39746" lon="4.8151">
        <ele>224.8</ele>
        <time>2025-04-05T06:35:44Z</time>
      </trkpt>
      <trkpt lat="50.39744" lon="4.81508">
        <ele>225</ele>
        <time>2025-04-05T06:35:45Z</time>
      </trkpt>
      <trkpt lat="50.39742" lon="4.81506">
        <ele>225.2</ele>
        <time>2025-04-05T06:35:46Z</time>
      </trkpt>
      <trkpt lat="50.39739" lon="4.81504">
        <ele>225.4</ele>
        <time>2025-04-05T06:35:47Z</time>
      </trkpt>
      <trkpt lat="50.39737" lon="4.81502">
        <ele>225.6</ele>
        <time>2025-04-05T06:35:48Z</time>
      </trkpt>
      <trkpt lat="50.39735" lon="4.815">
        <ele>225.8</ele>
        <time>2025-04-05T06:35:49Z</time>
      </trkpt>
      <trkpt lat="50.39733" lon="4.81497">
        <ele>226</ele>
        <time>2025-04-05T06:35:50Z</time>
      </trkpt>
      <trkpt lat="50.39731" lon="4.81495">
        <ele>226.2</ele>
        <time>2025-04-05T06:35:51Z</time>
      </trkpt>
      <trkpt lat="50.39729" lon="4.81492">
        <ele>226.4</ele>
        <time>2025-04-05T06:35:52Z</time>
      </trkpt>
      <trkpt lat="50.39727" lon="4.8149">
        <ele>226.6</ele>
        <time>2025-04-05T06:35:53Z</time>
      </trkpt>
      <trkpt lat="50.39725" lon="4.81488">
        <ele>226.8</ele>
        <time>2025-04-05T06:35:54Z</time>
      </trkpt>
      <trkpt lat="50.39722" lon="4.81486">
        <ele>227</ele>
        <time>2025-04-05T06:35:55Z</time>
      </trkpt>
      <trkpt lat="50.39721" lon="4.81483">
        <ele>227.2</ele>
        <time>2025-04-05T06:35:56Z</time>
      </trkpt>
      <trkpt lat="50.39718" lon="4.81481">
        <ele>227.2</ele>
        <time>2025-04-05T06:35:57Z</time>
      </trkpt>
      <trkpt lat="50.39716" lon="4.81479">
        <ele>227.4</ele>
        <time>2025-04-05T06:35:58Z</time>
      </trkpt>
      <trkpt lat="50.39714" lon="4.81476">
        <ele>227.6</ele>
        <time>2025-04-05T06:35:59Z</time>
      </trkpt>
      <trkpt lat="50.39711" lon="4.81474">
        <ele>227.8</ele>
        <time>2025-04-05T06:36:00Z</time>
      </trkpt>
      <trkpt lat="50.39709" lon="4.81471">
        <ele>227.8</ele>
        <time>2025-04-05T06:36:01Z</time>
      </trkpt>
      <trkpt lat="50.39706" lon="4.81469">
        <ele>228</ele>
        <time>2025-04-05T06:36:02Z</time>
      </trkpt>
      <trkpt lat="50.39704" lon="4.81467">
        <ele>228.2</ele>
        <time>2025-04-05T06:36:03Z</time>
      </trkpt>
      <trkpt lat="50.39702" lon="4.81465">
        <ele>228.4</ele>
        <time>2025-04-05T06:36:04Z</time>
      </trkpt>
      <trkpt lat="50.397" lon="4.81462">
        <ele>228.6</ele>
        <time>2025-04-05T06:36:05Z</time>
      </trkpt>
      <trkpt lat="50.39698" lon="4.8146">
        <ele>228.8</ele>
        <time>2025-04-05T06:36:06Z</time>
      </trkpt>
      <trkpt lat="50.39696" lon="4.81458">
        <ele>228.8</ele>
        <time>2025-04-05T06:36:07Z</time>
      </trkpt>
      <trkpt lat="50.39694" lon="4.81455">
        <ele>229</ele>
        <time>2025-04-05T06:36:08Z</time>
      </trkpt>
      <trkpt lat="50.39692" lon="4.81453">
        <ele>229.2</ele>
        <time>2025-04-05T06:36:09Z</time>
      </trkpt>
      <trkpt lat="50.3969" lon="4.81451">
        <ele>229.2</ele>
        <time>2025-04-05T06:36:10Z</time>
      </trkpt>
      <trkpt lat="50.39687" lon="4.81449">
        <ele>229.4</ele>
        <time>2025-04-05T06:36:11Z</time>
      </trkpt>
      <trkpt lat="50.39685" lon="4.81447">
        <ele>229.6</ele>
        <time>2025-04-05T06:36:12Z</time>
      </trkpt>
      <trkpt lat="50.39683" lon="4.81445">
        <ele>229.8</ele>
        <time>2025-04-05T06:36:13Z</time>
      </trkpt>
      <trkpt lat="50.39681" lon="4.81442">
        <ele>230</ele>
        <time>2025-04-05T06:36:14Z</time>
      </trkpt>
      <trkpt lat="50.39679" lon="4.8144">
        <ele>230</ele>
        <time>2025-04-05T06:36:15Z</time>
      </trkpt>
      <trkpt lat="50.39676" lon="4.81438">
        <ele>230.2</ele>
        <time>2025-04-05T06:36:16Z</time>
      </trkpt>
      <trkpt lat="50.39674" lon="4.81435">
        <ele>230.4</ele>
        <time>2025-04-05T06:36:17Z</time>
      </trkpt>
      <trkpt lat="50.39672" lon="4.81433">
        <ele>230.6</ele>
        <time>2025-04-05T06:36:18Z</time>
      </trkpt>
      <trkpt lat="50.39669" lon="4.81431">
        <ele>230.8</ele>
        <time>2025-04-05T06:36:19Z</time>
      </trkpt>
      <trkpt lat="50.39667" lon="4.81429">
        <ele>230.8</ele>
        <time>2025-04-05T06:36:20Z</time>
      </trkpt>
      <trkpt lat="50.39665" lon="4.81427">
        <ele>231</ele>
        <time>2025-04-05T06:36:21Z</time>
      </trkpt>
      <trkpt lat="50.39663" lon="4.81425">
        <ele>231.2</ele>
        <time>2025-04-05T06:36:22Z</time>
      </trkpt>
      <trkpt lat="50.39661" lon="4.81423">
        <ele>231.4</ele>
        <time>2025-04-05T06:36:23Z</time>
      </trkpt>
      <trkpt lat="50.39658" lon="4.81421">
        <ele>231.4</ele>
        <time>2025-04-05T06:36:24Z</time>
      </trkpt>
      <trkpt lat="50.39656" lon="4.81418">
        <ele>231.6</ele>
        <time>2025-04-05T06:36:25Z</time>
      </trkpt>
      <trkpt lat="50.39653" lon="4.81416">
        <ele>231.8</ele>
        <time>2025-04-05T06:36:26Z</time>
      </trkpt>
      <trkpt lat="50.39651" lon="4.81413">
        <ele>231.8</ele>
        <time>2025-04-05T06:36:27Z</time>
      </trkpt>
      <trkpt lat="50.39648" lon="4.81411">
        <ele>232</ele>
        <time>2025-04-05T06:36:28Z</time>
      </trkpt>
      <trkpt lat="50.39646" lon="4.81408">
        <ele>232.2</ele>
        <time>2025-04-05T06:36:29Z</time>
      </trkpt>
      <trkpt lat="50.39644" lon="4.81406">
        <ele>232.2</ele>
        <time>2025-04-05T06:36:30Z</time>
      </trkpt>
      <trkpt lat="50.39641" lon="4.81404">
        <ele>232.4</ele>
        <time>2025-04-05T06:36:31Z</time>
      </trkpt>
      <trkpt lat="50.39639" lon="4.81402">
        <ele>232.4</ele>
        <time>2025-04-05T06:36:32Z</time>
      </trkpt>
      <trkpt lat="50.39637" lon="4.814">
        <ele>232.6</ele>
        <time>2025-04-05T06:36:33Z</time>
      </trkpt>
      <trkpt lat="50.39635" lon="4.81398">
        <ele>232.8</ele>
        <time>2025-04-05T06:36:34Z</time>
      </trkpt>
      <trkpt lat="50.39632" lon="4.81396">
        <ele>232.8</ele>
        <time>2025-04-05T06:36:35Z</time>
      </trkpt>
      <trkpt lat="50.3963" lon="4.81393">
        <ele>233</ele>
        <time>2025-04-05T06:36:36Z</time>
      </trkpt>
      <trkpt lat="50.39628" lon="4.81391">
        <ele>233.2</ele>
        <time>2025-04-05T06:36:37Z</time>
      </trkpt>
      <trkpt lat="50.39625" lon="4.81389">
        <ele>233.2</ele>
        <time>2025-04-05T06:36:38Z</time>
      </trkpt>
      <trkpt lat="50.39623" lon="4.81386">
        <ele>233.4</ele>
        <time>2025-04-05T06:36:39Z</time>
      </trkpt>
      <trkpt lat="50.3962" lon="4.81384">
        <ele>233.6</ele>
        <time>2025-04-05T06:36:40Z</time>
      </trkpt>
      <trkpt lat="50.39618" lon="4.81382">
        <ele>233.8</ele>
        <time>2025-04-05T06:36:41Z</time>
      </trkpt>
      <trkpt lat="50.39616" lon="4.81379">
        <ele>234</ele>
        <time>2025-04-05T06:36:42Z</time>
      </trkpt>
      <trkpt lat="50.39613" lon="4.81377">
        <ele>234</ele>
        <time>2025-04-05T06:36:43Z</time>
      </trkpt>
      <trkpt lat="50.39611" lon="4.81374">
        <ele>234.2</ele>
        <time>2025-04-05T06:36:44Z</time>
      </trkpt>
      <trkpt lat="50.39608" lon="4.81372">
        <ele>234.4</ele>
        <time>2025-04-05T06:36:45Z</time>
      </trkpt>
      <trkpt lat="50.39606" lon="4.8137">
        <ele>234.4</ele>
        <time>2025-04-05T06:36:46Z</time>
      </trkpt>
      <trkpt lat="50.39603" lon="4.81367">
        <ele>234.6</ele>
        <time>2025-04-05T06:36:47Z</time>
      </trkpt>
      <trkpt lat="50.39601" lon="4.81365">
        <ele>234.8</ele>
        <time>2025-04-05T06:36:48Z</time>
      </trkpt>
      <trkpt lat="50.39598" lon="4.81363">
        <ele>234.8</ele>
        <time>2025-04-05T06:36:49Z</time>
      </trkpt>
      <trkpt lat="50.39596" lon="4.8136">
        <ele>235</ele>
        <time>2025-04-05T06:36:50Z</time>
      </trkpt>
      <trkpt lat="50.39593" lon="4.81358">
        <ele>235.2</ele>
        <time>2025-04-05T06:36:51Z</time>
      </trkpt>
      <trkpt lat="50.39591" lon="4.81355">
        <ele>235.4</ele>
        <time>2025-04-05T06:36:52Z</time>
      </trkpt>
      <trkpt lat="50.39588" lon="4.81353">
        <ele>235.4</ele>
        <time>2025-04-05T06:36:53Z</time>
      </trkpt>
      <trkpt lat="50.39586" lon="4.81351">
        <ele>235.6</ele>
        <time>2025-04-05T06:36:54Z</time>
      </trkpt>
      <trkpt lat="50.39583" lon="4.81348">
        <ele>235.6</ele>
        <time>2025-04-05T06:36:55Z</time>
      </trkpt>
      <trkpt lat="50.39581" lon="4.81346">
        <ele>235.8</ele>
        <time>2025-04-05T06:36:56Z</time>
      </trkpt>
      <trkpt lat="50.39578" lon="4.81345">
        <ele>235.8</ele>
        <time>2025-04-05T06:36:57Z</time>
      </trkpt>
      <trkpt lat="50.39576" lon="4.81343">
        <ele>236</ele>
        <time>2025-04-05T06:36:58Z</time>
      </trkpt>
      <trkpt lat="50.39574" lon="4.8134">
        <ele>236.2</ele>
        <time>2025-04-05T06:36:59Z</time>
      </trkpt>
      <trkpt lat="50.39571" lon="4.81338">
        <ele>236.2</ele>
        <time>2025-04-05T06:37:00Z</time>
      </trkpt>
      <trkpt lat="50.39569" lon="4.81336">
        <ele>236.4</ele>
        <time>2025-04-05T06:37:01Z</time>
      </trkpt>
      <trkpt lat="50.39566" lon="4.81334">
        <ele>236.4</ele>
        <time>2025-04-05T06:37:02Z</time>
      </trkpt>
      <trkpt lat="50.39563" lon="4.81331">
        <ele>236.6</ele>
        <time>2025-04-05T06:37:03Z</time>
      </trkpt>
      <trkpt lat="50.39561" lon="4.81329">
        <ele>236.6</ele>
        <time>2025-04-05T06:37:04Z</time>
      </trkpt>
      <trkpt lat="50.39558" lon="4.81326">
        <ele>236.8</ele>
        <time>2025-04-05T06:37:05Z</time>
      </trkpt>
      <trkpt lat="50.39555" lon="4.81323">
        <ele>236.8</ele>
        <time>2025-04-05T06:37:06Z</time>
      </trkpt>
      <trkpt lat="50.39553" lon="4.81321">
        <ele>237</ele>
        <time>2025-04-05T06:37:07Z</time>
      </trkpt>
      <trkpt lat="50.3955" lon="4.81318">
        <ele>237</ele>
        <time>2025-04-05T06:37:08Z</time>
      </trkpt>
      <trkpt lat="50.39547" lon="4.81315">
        <ele>237.2</ele>
        <time>2025-04-05T06:37:09Z</time>
      </trkpt>
      <trkpt lat="50.39544" lon="4.81313">
        <ele>237.2</ele>
        <time>2025-04-05T06:37:10Z</time>
      </trkpt>
      <trkpt lat="50.39541" lon="4.8131">
        <ele>237.4</ele>
        <time>2025-04-05T06:37:11Z</time>
      </trkpt>
      <trkpt lat="50.39538" lon="4.81307">
        <ele>237.4</ele>
        <time>2025-04-05T06:37:12Z</time>
      </trkpt>
      <trkpt lat="50.39536" lon="4.81304">
        <ele>237.6</ele>
        <time>2025-04-05T06:37:13Z</time>
      </trkpt>
      <trkpt lat="50.39533" lon="4.81302">
        <ele>237.6</ele>
        <time>2025-04-05T06:37:14Z</time>
      </trkpt>
      <trkpt lat="50.3953" lon="4.81299">
        <ele>237.8</ele>
        <time>2025-04-05T06:37:15Z</time>
      </trkpt>
      <trkpt lat="50.39528" lon="4.81297">
        <ele>237.8</ele>
        <time>2025-04-05T06:37:16Z</time>
      </trkpt>
      <trkpt lat="50.39525" lon="4.81294">
        <ele>238</ele>
        <time>2025-04-05T06:37:17Z</time>
      </trkpt>
      <trkpt lat="50.39523" lon="4.81292">
        <ele>238</ele>
        <time>2025-04-05T06:37:18Z</time>
      </trkpt>
      <trkpt lat="50.3952" lon="4.8129">
        <ele>238.2</ele>
        <time>2025-04-05T06:37:19Z</time>
      </trkpt>
      <trkpt lat="50.39517" lon="4.81287">
        <ele>238.2</ele>
        <time>2025-04-05T06:37:20Z</time>
      </trkpt>
      <trkpt lat="50.39515" lon="4.81285">
        <ele>238.4</ele>
        <time>2025-04-05T06:37:21Z</time>
      </trkpt>
      <trkpt lat="50.39512" lon="4.81282">
        <ele>238.4</ele>
        <time>2025-04-05T06:37:22Z</time>
      </trkpt>
      <trkpt lat="50.39509" lon="4.8128">
        <ele>238.6</ele>
        <time>2025-04-05T06:37:23Z</time>
      </trkpt>
      <trkpt lat="50.39507" lon="4.81277">
        <ele>238.6</ele>
        <time>2025-04-05T06:37:24Z</time>
      </trkpt>
      <trkpt lat="50.39504" lon="4.81275">
        <ele>238.8</ele>
        <time>2025-04-05T06:37:25Z</time>
      </trkpt>
      <trkpt lat="50.39502" lon="4.81273">
        <ele>238.8</ele>
        <time>2025-04-05T06:37:26Z</time>
      </trkpt>
      <trkpt lat="50.395" lon="4.8127">
        <ele>238.8</ele>
        <time>2025-04-05T06:37:27Z</time>
      </trkpt>
      <trkpt lat="50.39497" lon="4.81268">
        <ele>239</ele>
        <time>2025-04-05T06:37:28Z</time>
      </trkpt>
      <trkpt lat="50.39494" lon="4.81266">
        <ele>239</ele>
        <time>2025-04-05T06:37:29Z</time>
      </trkpt>
      <trkpt lat="50.39491" lon="4.81263">
        <ele>239</ele>
        <time>2025-04-05T06:37:30Z</time>
      </trkpt>
      <trkpt lat="50.39488" lon="4.81261">
        <ele>239.2</ele>
        <time>2025-04-05T06:37:31Z</time>
      </trkpt>
      <trkpt lat="50.39486" lon="4.81258">
        <ele>239.2</ele>
        <time>2025-04-05T06:37:32Z</time>
      </trkpt>
      <trkpt lat="50.39483" lon="4.81255">
        <ele>239.4</ele>
        <time>2025-04-05T06:37:33Z</time>
      </trkpt>
      <trkpt lat="50.3948" lon="4.81253">
        <ele>239.4</ele>
        <time>2025-04-05T06:37:34Z</time>
      </trkpt>
      <trkpt lat="50.39478" lon="4.8125">
        <ele>239.4</ele>
        <time>2025-04-05T06:37:35Z</time>
      </trkpt>
      <trkpt lat="50.39475" lon="4.81248">
        <ele>239.6</ele>
        <time>2025-04-05T06:37:36Z</time>
      </trkpt>
      <trkpt lat="50.39472" lon="4.81245">
        <ele>239.6</ele>
        <time>2025-04-05T06:37:37Z</time>
      </trkpt>
      <trkpt lat="50.39468" lon="4.81243">
        <ele>239.8</ele>
        <time>2025-04-05T06:37:38Z</time>
      </trkpt>
      <trkpt lat="50.39466" lon="4.8124">
        <ele>239.8</ele>
        <time>2025-04-05T06:37:39Z</time>
      </trkpt>
      <trkpt lat="50.39463" lon="4.81238">
        <ele>240</ele>
        <time>2025-04-05T06:37:40Z</time>
      </trkpt>
      <trkpt lat="50.3946" lon="4.81235">
        <ele>240</ele>
        <time>2025-04-05T06:37:41Z</time>
      </trkpt>
      <trkpt lat="50.39458" lon="4.81233">
        <ele>240.2</ele>
        <time>2025-04-05T06:37:42Z</time>
      </trkpt>
      <trkpt lat="50.39455" lon="4.81229">
        <ele>240.2</ele>
        <time>2025-04-05T06:37:43Z</time>
      </trkpt>
      <trkpt lat="50.39452" lon="4.81227">
        <ele>240.4</ele>
        <time>2025-04-05T06:37:44Z</time>
      </trkpt>
      <trkpt lat="50.39449" lon="4.81224">
        <ele>240.4</ele>
        <time>2025-04-05T06:37:45Z</time>
      </trkpt>
      <trkpt lat="50.39446" lon="4.81221">
        <ele>240.6</ele>
        <time>2025-04-05T06:37:46Z</time>
      </trkpt>
      <trkpt lat="50.39443" lon="4.81219">
        <ele>240.6</ele>
        <time>2025-04-05T06:37:47Z</time>
      </trkpt>
      <trkpt lat="50.3944" lon="4.81216">
        <ele>240.8</ele>
        <time>2025-04-05T06:37:48Z</time>
      </trkpt>
      <trkpt lat="50.39438" lon="4.81213">
        <ele>240.8</ele>
        <time>2025-04-05T06:37:49Z</time>
      </trkpt>
      <trkpt lat="50.39434" lon="4.81211">
        <ele>241</ele>
        <time>2025-04-05T06:37:50Z</time>
      </trkpt>
      <trkpt lat="50.39432" lon="4.81208">
        <ele>241</ele>
        <time>2025-04-05T06:37:51Z</time>
      </trkpt>
      <trkpt lat="50.3943" lon="4.81206">
        <ele>241</ele>
        <time>2025-04-05T06:37:52Z</time>
      </trkpt>
      <trkpt lat="50.39427" lon="4.81203">
        <ele>241.2</ele>
        <time>2025-04-05T06:37:53Z</time>
      </trkpt>
      <trkpt lat="50.39424" lon="4.81201">
        <ele>241.2</ele>
        <time>2025-04-05T06:37:54Z</time>
      </trkpt>
      <trkpt lat="50.39421" lon="4.81198">
        <ele>241.4</ele>
        <time>2025-04-05T06:37:55Z</time>
      </trkpt>
      <trkpt lat="50.39418" lon="4.81195">
        <ele>241.4</ele>
        <time>2025-04-05T06:37:56Z</time>
      </trkpt>
      <trkpt lat="50.39416" lon="4.81193">
        <ele>241.6</ele>
        <time>2025-04-05T06:37:57Z</time>
      </trkpt>
      <trkpt lat="50.39413" lon="4.81191">
        <ele>241.6</ele>
        <time>2025-04-05T06:37:58Z</time>
      </trkpt>
      <trkpt lat="50.39411" lon="4.81189">
        <ele>241.8</ele>
        <time>2025-04-05T06:37:59Z</time>
      </trkpt>
      <trkpt lat="50.39409" lon="4.81186">
        <ele>241.8</ele>
        <time>2025-04-05T06:38:00Z</time>
      </trkpt>
      <trkpt lat="50.39407" lon="4.81184">
        <ele>241.8</ele>
        <time>2025-04-05T06:38:01Z</time>
      </trkpt>
      <trkpt lat="50.39404" lon="4.81182">
        <ele>242</ele>
        <time>2025-04-05T06:38:02Z</time>
      </trkpt>
      <trkpt lat="50.39402" lon="4.8118">
        <ele>242</ele>
        <time>2025-04-05T06:38:03Z</time>
      </trkpt>
      <trkpt lat="50.39399" lon="4.81178">
        <ele>242</ele>
        <time>2025-04-05T06:38:04Z</time>
      </trkpt>
      <trkpt lat="50.39397" lon="4.81176">
        <ele>242</ele>
        <time>2025-04-05T06:38:05Z</time>
      </trkpt>
      <trkpt lat="50.39394" lon="4.81173">
        <ele>242</ele>
        <time>2025-04-05T06:38:06Z</time>
      </trkpt>
      <trkpt lat="50.39391" lon="4.81171">
        <ele>242.2</ele>
        <time>2025-04-05T06:38:07Z</time>
      </trkpt>
      <trkpt lat="50.39389" lon="4.81168">
        <ele>242.2</ele>
        <time>2025-04-05T06:38:08Z</time>
      </trkpt>
      <trkpt lat="50.39386" lon="4.81166">
        <ele>242.2</ele>
        <time>2025-04-05T06:38:09Z</time>
      </trkpt>
      <trkpt lat="50.39385" lon="4.81164">
        <ele>242.4</ele>
        <time>2025-04-05T06:38:10Z</time>
      </trkpt>
      <trkpt lat="50.39382" lon="4.81161">
        <ele>242.4</ele>
        <time>2025-04-05T06:38:11Z</time>
      </trkpt>
      <trkpt lat="50.3938" lon="4.81159">
        <ele>242.6</ele>
        <time>2025-04-05T06:38:12Z</time>
      </trkpt>
      <trkpt lat="50.39377" lon="4.81157">
        <ele>242.6</ele>
        <time>2025-04-05T06:38:13Z</time>
      </trkpt>
      <trkpt lat="50.39375" lon="4.81155">
        <ele>242.6</ele>
        <time>2025-04-05T06:38:14Z</time>
      </trkpt>
      <trkpt lat="50.39373" lon="4.81152">
        <ele>242.8</ele>
        <time>2025-04-05T06:38:15Z</time>
      </trkpt>
      <trkpt lat="50.3937" lon="4.81149">
        <ele>242.8</ele>
        <time>2025-04-05T06:38:16Z</time>
      </trkpt>
      <trkpt lat="50.39367" lon="4.81147">
        <ele>243</ele>
        <time>2025-04-05T06:38:17Z</time>
      </trkpt>
      <trkpt lat="50.39365" lon="4.81144">
        <ele>243</ele>
        <time>2025-04-05T06:38:18Z</time>
      </trkpt>
      <trkpt lat="50.39363" lon="4.81142">
        <ele>243.2</ele>
        <time>2025-04-05T06:38:19Z</time>
      </trkpt>
      <trkpt lat="50.3936" lon="4.8114">
        <ele>243.2</ele>
        <time>2025-04-05T06:38:20Z</time>
      </trkpt>
      <trkpt lat="50.39358" lon="4.81137">
        <ele>243.4</ele>
        <time>2025-04-05T06:38:21Z</time>
      </trkpt>
      <trkpt lat="50.39356" lon="4.81135">
        <ele>243.4</ele>
        <time>2025-04-05T06:38:22Z</time>
      </trkpt>
      <trkpt lat="50.39354" lon="4.81133">
        <ele>243.4</ele>
        <time>2025-04-05T06:38:23Z</time>
      </trkpt>
      <trkpt lat="50.39352" lon="4.8113">
        <ele>243.6</ele>
        <time>2025-04-05T06:38:24Z</time>
      </trkpt>
      <trkpt lat="50.39349" lon="4.81128">
        <ele>243.6</ele>
        <time>2025-04-05T06:38:25Z</time>
      </trkpt>
      <trkpt lat="50.39347" lon="4.81126">
        <ele>243.8</ele>
        <time>2025-04-05T06:38:26Z</time>
      </trkpt>
      <trkpt lat="50.39344" lon="4.81124">
        <ele>243.8</ele>
        <time>2025-04-05T06:38:27Z</time>
      </trkpt>
      <trkpt lat="50.39342" lon="4.81121">
        <ele>243.8</ele>
        <time>2025-04-05T06:38:28Z</time>
      </trkpt>
      <trkpt lat="50.39339" lon="4.81119">
        <ele>244</ele>
        <time>2025-04-05T06:38:29Z</time>
      </trkpt>
      <trkpt lat="50.39337" lon="4.81116">
        <ele>244</ele>
        <time>2025-04-05T06:38:30Z</time>
      </trkpt>
      <trkpt lat="50.39335" lon="4.81114">
        <ele>244</ele>
        <time>2025-04-05T06:38:31Z</time>
      </trkpt>
      <trkpt lat="50.39332" lon="4.81112">
        <ele>244.2</ele>
        <time>2025-04-05T06:38:32Z</time>
      </trkpt>
      <trkpt lat="50.3933" lon="4.81109">
        <ele>244.2</ele>
        <time>2025-04-05T06:38:33Z</time>
      </trkpt>
      <trkpt lat="50.39328" lon="4.81107">
        <ele>244.4</ele>
        <time>2025-04-05T06:38:34Z</time>
      </trkpt>
      <trkpt lat="50.39325" lon="4.81105">
        <ele>244.4</ele>
        <time>2025-04-05T06:38:35Z</time>
      </trkpt>
      <trkpt lat="50.39322" lon="4.81102">
        <ele>244.6</ele>
        <time>2025-04-05T06:38:36Z</time>
      </trkpt>
      <trkpt lat="50.3932" lon="4.81099">
        <ele>244.6</ele>
        <time>2025-04-05T06:38:37Z</time>
      </trkpt>
      <trkpt lat="50.39317" lon="4.81097">
        <ele>244.6</ele>
        <time>2025-04-05T06:38:38Z</time>
      </trkpt>
      <trkpt lat="50.39314" lon="4.81095">
        <ele>244.8</ele>
        <time>2025-04-05T06:38:39Z</time>
      </trkpt>
      <trkpt lat="50.39312" lon="4.81092">
        <ele>244.8</ele>
        <time>2025-04-05T06:38:40Z</time>
      </trkpt>
      <trkpt lat="50.39309" lon="4.81089">
        <ele>244.8</ele>
        <time>2025-04-05T06:38:41Z</time>
      </trkpt>
      <trkpt lat="50.39306" lon="4.81086">
        <ele>245</ele>
        <time>2025-04-05T06:38:42Z</time>
      </trkpt>
      <trkpt lat="50.39304" lon="4.81084">
        <ele>245</ele>
        <time>2025-04-05T06:38:43Z</time>
      </trkpt>
      <trkpt lat="50.39301" lon="4.81081">
        <ele>245.2</ele>
        <time>2025-04-05T06:38:44Z</time>
      </trkpt>
      <trkpt lat="50.39298" lon="4.81078">
        <ele>245.2</ele>
        <time>2025-04-05T06:38:45Z</time>
      </trkpt>
      <trkpt lat="50.39295" lon="4.81075">
        <ele>245.2</ele>
        <time>2025-04-05T06:38:46Z</time>
      </trkpt>
      <trkpt lat="50.39293" lon="4.81073">
        <ele>245.4</ele>
        <time>2025-04-05T06:38:47Z</time>
      </trkpt>
      <trkpt lat="50.3929" lon="4.81071">
        <ele>245.4</ele>
        <time>2025-04-05T06:38:48Z</time>
      </trkpt>
      <trkpt lat="50.39288" lon="4.81068">
        <ele>245.4</ele>
        <time>2025-04-05T06:38:49Z</time>
      </trkpt>
      <trkpt lat="50.39285" lon="4.81066">
        <ele>245.4</ele>
        <time>2025-04-05T06:38:50Z</time>
      </trkpt>
      <trkpt lat="50.39282" lon="4.81063">
        <ele>245.6</ele>
        <time>2025-04-05T06:38:51Z</time>
      </trkpt>
      <trkpt lat="50.3928" lon="4.8106">
        <ele>245.6</ele>
        <time>2025-04-05T06:38:52Z</time>
      </trkpt>
      <trkpt lat="50.39277" lon="4.81057">
        <ele>245.6</ele>
        <time>2025-04-05T06:38:53Z</time>
      </trkpt>
      <trkpt lat="50.39274" lon="4.81055">
        <ele>245.6</ele>
        <time>2025-04-05T06:38:54Z</time>
      </trkpt>
      <trkpt lat="50.39271" lon="4.81052">
        <ele>245.6</ele>
        <time>2025-04-05T06:38:55Z</time>
      </trkpt>
      <trkpt lat="50.39268" lon="4.81049">
        <ele>245.8</ele>
        <time>2025-04-05T06:38:56Z</time>
      </trkpt>
      <trkpt lat="50.39265" lon="4.81047">
        <ele>245.8</ele>
        <time>2025-04-05T06:38:57Z</time>
      </trkpt>
      <trkpt lat="50.39262" lon="4.81043">
        <ele>245.8</ele>
        <time>2025-04-05T06:38:58Z</time>
      </trkpt>
      <trkpt lat="50.39258" lon="4.8104">
        <ele>245.8</ele>
        <time>2025-04-05T06:38:59Z</time>
      </trkpt>
      <trkpt lat="50.39256" lon="4.81037">
        <ele>245.8</ele>
        <time>2025-04-05T06:39:00Z</time>
      </trkpt>
      <trkpt lat="50.39253" lon="4.81033">
        <ele>245.8</ele>
        <time>2025-04-05T06:39:01Z</time>
      </trkpt>
      <trkpt lat="50.39249" lon="4.8103">
        <ele>246</ele>
        <time>2025-04-05T06:39:02Z</time>
      </trkpt>
      <trkpt lat="50.39246" lon="4.81027">
        <ele>246</ele>
        <time>2025-04-05T06:39:03Z</time>
      </trkpt>
      <trkpt lat="50.39243" lon="4.81024">
        <ele>246</ele>
        <time>2025-04-05T06:39:04Z</time>
      </trkpt>
      <trkpt lat="50.39239" lon="4.8102">
        <ele>246</ele>
        <time>2025-04-05T06:39:05Z</time>
      </trkpt>
      <trkpt lat="50.39236" lon="4.81017">
        <ele>246</ele>
        <time>2025-04-05T06:39:06Z</time>
      </trkpt>
      <trkpt lat="50.39233" lon="4.81015">
        <ele>246.2</ele>
        <time>2025-04-05T06:39:07Z</time>
      </trkpt>
      <trkpt lat="50.39229" lon="4.81012">
        <ele>246.2</ele>
        <time>2025-04-05T06:39:08Z</time>
      </trkpt>
      <trkpt lat="50.39226" lon="4.81008">
        <ele>246.2</ele>
        <time>2025-04-05T06:39:09Z</time>
      </trkpt>
      <trkpt lat="50.39223" lon="4.81005">
        <ele>246.2</ele>
        <time>2025-04-05T06:39:10Z</time>
      </trkpt>
      <trkpt lat="50.39219" lon="4.81002">
        <ele>246.2</ele>
        <time>2025-04-05T06:39:11Z</time>
      </trkpt>
      <trkpt lat="50.39216" lon="4.80999">
        <ele>246.2</ele>
        <time>2025-04-05T06:39:12Z</time>
      </trkpt>
      <trkpt lat="50.39213" lon="4.80995">
        <ele>246.4</ele>
        <time>2025-04-05T06:39:13Z</time>
      </trkpt>
      <trkpt lat="50.39209" lon="4.80992">
        <ele>246.4</ele>
        <time>2025-04-05T06:39:14Z</time>
      </trkpt>
      <trkpt lat="50.39206" lon="4.80989">
        <ele>246.4</ele>
        <time>2025-04-05T06:39:15Z</time>
      </trkpt>
      <trkpt lat="50.39203" lon="4.80985">
        <ele>246.4</ele>
        <time>2025-04-05T06:39:16Z</time>
      </trkpt>
      <trkpt lat="50.39199" lon="4.80982">
        <ele>246.4</ele>
        <time>2025-04-05T06:39:17Z</time>
      </trkpt>
      <trkpt lat="50.39196" lon="4.80978">
        <ele>246.4</ele>
        <time>2025-04-05T06:39:18Z</time>
      </trkpt>
      <trkpt lat="50.39193" lon="4.80975">
        <ele>246.4</ele>
        <time>2025-04-05T06:39:19Z</time>
      </trkpt>
      <trkpt lat="50.39189" lon="4.80972">
        <ele>246.4</ele>
        <time>2025-04-05T06:39:20Z</time>
      </trkpt>
      <trkpt lat="50.39186" lon="4.80968">
        <ele>246.4</ele>
        <time>2025-04-05T06:39:21Z</time>
      </trkpt>
      <trkpt lat="50.39182" lon="4.80964">
        <ele>246.6</ele>
        <time>2025-04-05T06:39:22Z</time>
      </trkpt>
      <trkpt lat="50.39179" lon="4.80961">
        <ele>246.6</ele>
        <time>2025-04-05T06:39:23Z</time>
      </trkpt>
      <trkpt lat="50.39175" lon="4.80957">
        <ele>246.6</ele>
        <time>2025-04-05T06:39:24Z</time>
      </trkpt>
      <trkpt lat="50.39172" lon="4.80954">
        <ele>246.6</ele>
        <time>2025-04-05T06:39:25Z</time>
      </trkpt>
      <trkpt lat="50.39169" lon="4.8095">
        <ele>246.8</ele>
        <time>2025-04-05T06:39:26Z</time>
      </trkpt>
      <trkpt lat="50.39166" lon="4.80947">
        <ele>246.8</ele>
        <time>2025-04-05T06:39:27Z</time>
      </trkpt>
      <trkpt lat="50.39163" lon="4.80944">
        <ele>246.8</ele>
        <time>2025-04-05T06:39:28Z</time>
      </trkpt>
      <trkpt lat="50.3916" lon="4.80941">
        <ele>246.8</ele>
        <time>2025-04-05T06:39:29Z</time>
      </trkpt>
      <trkpt lat="50.39156" lon="4.80937">
        <ele>246.8</ele>
        <time>2025-04-05T06:39:30Z</time>
      </trkpt>
      <trkpt lat="50.39153" lon="4.80934">
        <ele>247</ele>
        <time>2025-04-05T06:39:31Z</time>
      </trkpt>
      <trkpt lat="50.3915" lon="4.8093">
        <ele>247</ele>
        <time>2025-04-05T06:39:32Z</time>
      </trkpt>
      <trkpt lat="50.39146" lon="4.80927">
        <ele>247</ele>
        <time>2025-04-05T06:39:33Z</time>
      </trkpt>
      <trkpt lat="50.39143" lon="4.80923">
        <ele>247</ele>
        <time>2025-04-05T06:39:34Z</time>
      </trkpt>
      <trkpt lat="50.39139" lon="4.8092">
        <ele>247</ele>
        <time>2025-04-05T06:39:35Z</time>
      </trkpt>
      <trkpt lat="50.39136" lon="4.80917">
        <ele>247</ele>
        <time>2025-04-05T06:39:36Z</time>
      </trkpt>
      <trkpt lat="50.39132" lon="4.80913">
        <ele>247.2</ele>
        <time>2025-04-05T06:39:37Z</time>
      </trkpt>
      <trkpt lat="50.39129" lon="4.80911">
        <ele>247.2</ele>
        <time>2025-04-05T06:39:38Z</time>
      </trkpt>
      <trkpt lat="50.39125" lon="4.80908">
        <ele>247.2</ele>
        <time>2025-04-05T06:39:39Z</time>
      </trkpt>
      <trkpt lat="50.39122" lon="4.80905">
        <ele>247.4</ele>
        <time>2025-04-05T06:39:40Z</time>
      </trkpt>
      <trkpt lat="50.39119" lon="4.80902">
        <ele>247.4</ele>
        <time>2025-04-05T06:39:41Z</time>
      </trkpt>
      <trkpt lat="50.39115" lon="4.80899">
        <ele>247.4</ele>
        <time>2025-04-05T06:39:42Z</time>
      </trkpt>
      <trkpt lat="50.39112" lon="4.80895">
        <ele>247.4</ele>
        <time>2025-04-05T06:39:43Z</time>
      </trkpt>
      <trkpt lat="50.39109" lon="4.80892">
        <ele>247.6</ele>
        <time>2025-04-05T06:39:44Z</time>
      </trkpt>
      <trkpt lat="50.39106" lon="4.80888">
        <ele>247.6</ele>
        <time>2025-04-05T06:39:45Z</time>
      </trkpt>
      <trkpt lat="50.39102" lon="4.80884">
        <ele>247.6</ele>
        <time>2025-04-05T06:39:46Z</time>
      </trkpt>
      <trkpt lat="50.39098" lon="4.80881">
        <ele>247.6</ele>
        <time>2025-04-05T06:39:47Z</time>
      </trkpt>
      <trkpt lat="50.39094" lon="4.80877">
        <ele>247.8</ele>
        <time>2025-04-05T06:39:48Z</time>
      </trkpt>
      <trkpt lat="50.39091" lon="4.80874">
        <ele>247.8</ele>
        <time>2025-04-05T06:39:49Z</time>
      </trkpt>
      <trkpt lat="50.39087" lon="4.8087">
        <ele>247.8</ele>
        <time>2025-04-05T06:39:50Z</time>
      </trkpt>
      <trkpt lat="50.39084" lon="4.80867">
        <ele>247.8</ele>
        <time>2025-04-05T06:39:51Z</time>
      </trkpt>
      <trkpt lat="50.3908" lon="4.80863">
        <ele>248</ele>
        <time>2025-04-05T06:39:52Z</time>
      </trkpt>
      <trkpt lat="50.39076" lon="4.80859">
        <ele>248</ele>
        <time>2025-04-05T06:39:53Z</time>
      </trkpt>
      <trkpt lat="50.39073" lon="4.80855">
        <ele>248</ele>
        <time>2025-04-05T06:39:54Z</time>
      </trkpt>
      <trkpt lat="50.39069" lon="4.80852">
        <ele>248</ele>
        <time>2025-04-05T06:39:55Z</time>
      </trkpt>
      <trkpt lat="50.39065" lon="4.80848">
        <ele>248</ele>
        <time>2025-04-05T06:39:56Z</time>
      </trkpt>
      <trkpt lat="50.39061" lon="4.80844">
        <ele>248</ele>
        <time>2025-04-05T06:39:57Z</time>
      </trkpt>
      <trkpt lat="50.39058" lon="4.80841">
        <ele>248</ele>
        <time>2025-04-05T06:39:58Z</time>
      </trkpt>
      <trkpt lat="50.39054" lon="4.80837">
        <ele>248</ele>
        <time>2025-04-05T06:39:59Z</time>
      </trkpt>
      <trkpt lat="50.3905" lon="4.80833">
        <ele>248</ele>
        <time>2025-04-05T06:40:00Z</time>
      </trkpt>
      <trkpt lat="50.39046" lon="4.80829">
        <ele>248.2</ele>
        <time>2025-04-05T06:40:01Z</time>
      </trkpt>
      <trkpt lat="50.39042" lon="4.80825">
        <ele>248.2</ele>
        <time>2025-04-05T06:40:02Z</time>
      </trkpt>
      <trkpt lat="50.39039" lon="4.80821">
        <ele>248.2</ele>
        <time>2025-04-05T06:40:03Z</time>
      </trkpt>
      <trkpt lat="50.39035" lon="4.80818">
        <ele>248.4</ele>
        <time>2025-04-05T06:40:04Z</time>
      </trkpt>
      <trkpt lat="50.39031" lon="4.80815">
        <ele>248.4</ele>
        <time>2025-04-05T06:40:05Z</time>
      </trkpt>
      <trkpt lat="50.39027" lon="4.80811">
        <ele>248.4</ele>
        <time>2025-04-05T06:40:06Z</time>
      </trkpt>
      <trkpt lat="50.39024" lon="4.80808">
        <ele>248.6</ele>
        <time>2025-04-05T06:40:07Z</time>
      </trkpt>
      <trkpt lat="50.3902" lon="4.80804">
        <ele>248.6</ele>
        <time>2025-04-05T06:40:08Z</time>
      </trkpt>
      <trkpt lat="50.39016" lon="4.80801">
        <ele>248.6</ele>
        <time>2025-04-05T06:40:09Z</time>
      </trkpt>
      <trkpt lat="50.39012" lon="4.80797">
        <ele>248.6</ele>
        <time>2025-04-05T06:40:10Z</time>
      </trkpt>
      <trkpt lat="50.39008" lon="4.80794">
        <ele>248.8</ele>
        <time>2025-04-05T06:40:11Z</time>
      </trkpt>
      <trkpt lat="50.39005" lon="4.8079">
        <ele>248.8</ele>
        <time>2025-04-05T06:40:12Z</time>
      </trkpt>
      <trkpt lat="50.39001" lon="4.80787">
        <ele>248.8</ele>
        <time>2025-04-05T06:40:13Z</time>
      </trkpt>
      <trkpt lat="50.38998" lon="4.80783">
        <ele>249</ele>
        <time>2025-04-05T06:40:14Z</time>
      </trkpt>
      <trkpt lat="50.38994" lon="4.8078">
        <ele>249</ele>
        <time>2025-04-05T06:40:15Z</time>
      </trkpt>
      <trkpt lat="50.3899" lon="4.80777">
        <ele>249</ele>
        <time>2025-04-05T06:40:16Z</time>
      </trkpt>
      <trkpt lat="50.38987" lon="4.80773">
        <ele>249</ele>
        <time>2025-04-05T06:40:17Z</time>
      </trkpt>
      <trkpt lat="50.38983" lon="4.8077">
        <ele>249</ele>
        <time>2025-04-05T06:40:18Z</time>
      </trkpt>
      <trkpt lat="50.3898" lon="4.80767">
        <ele>249.2</ele>
        <time>2025-04-05T06:40:19Z</time>
      </trkpt>
      <trkpt lat="50.38976" lon="4.80764">
        <ele>249.2</ele>
        <time>2025-04-05T06:40:20Z</time>
      </trkpt>
      <trkpt lat="50.38972" lon="4.80761">
        <ele>249.2</ele>
        <time>2025-04-05T06:40:21Z</time>
      </trkpt>
      <trkpt lat="50.38968" lon="4.80758">
        <ele>249.2</ele>
        <time>2025-04-05T06:40:22Z</time>
      </trkpt>
      <trkpt lat="50.38965" lon="4.80754">
        <ele>249.2</ele>
        <time>2025-04-05T06:40:23Z</time>
      </trkpt>
      <trkpt lat="50.38961" lon="4.80751">
        <ele>249.4</ele>
        <time>2025-04-05T06:40:24Z</time>
      </trkpt>
      <trkpt lat="50.38957" lon="4.80748">
        <ele>249.4</ele>
        <time>2025-04-05T06:40:25Z</time>
      </trkpt>
      <trkpt lat="50.38953" lon="4.80745">
        <ele>249.4</ele>
        <time>2025-04-05T06:40:26Z</time>
      </trkpt>
      <trkpt lat="50.38949" lon="4.80741">
        <ele>249.4</ele>
        <time>2025-04-05T06:40:27Z</time>
      </trkpt>
      <trkpt lat="50.38945" lon="4.80738">
        <ele>249.4</ele>
        <time>2025-04-05T06:40:28Z</time>
      </trkpt>
      <trkpt lat="50.38942" lon="4.80734">
        <ele>249.6</ele>
        <time>2025-04-05T06:40:29Z</time>
      </trkpt>
      <trkpt lat="50.38937" lon="4.80731">
        <ele>249.6</ele>
        <time>2025-04-05T06:40:30Z</time>
      </trkpt>
      <trkpt lat="50.38934" lon="4.80727">
        <ele>249.6</ele>
        <time>2025-04-05T06:40:31Z</time>
      </trkpt>
      <trkpt lat="50.3893" lon="4.80724">
        <ele>249.6</ele>
        <time>2025-04-05T06:40:32Z</time>
      </trkpt>
      <trkpt lat="50.38926" lon="4.8072">
        <ele>249.6</ele>
        <time>2025-04-05T06:40:33Z</time>
      </trkpt>
      <trkpt lat="50.38922" lon="4.80717">
        <ele>249.8</ele>
        <time>2025-04-05T06:40:34Z</time>
      </trkpt>
      <trkpt lat="50.38918" lon="4.80713">
        <ele>249.8</ele>
        <time>2025-04-05T06:40:35Z</time>
      </trkpt>
      <trkpt lat="50.38914" lon="4.8071">
        <ele>249.8</ele>
        <time>2025-04-05T06:40:36Z</time>
      </trkpt>
      <trkpt lat="50.38911" lon="4.80706">
        <ele>249.8</ele>
        <time>2025-04-05T06:40:37Z</time>
      </trkpt>
      <trkpt lat="50.38907" lon="4.80703">
        <ele>249.8</ele>
        <time>2025-04-05T06:40:38Z</time>
      </trkpt>
      <trkpt lat="50.38903" lon="4.807">
        <ele>250</ele>
        <time>2025-04-05T06:40:39Z</time>
      </trkpt>
      <trkpt lat="50.389" lon="4.80697">
        <ele>250</ele>
        <time>2025-04-05T06:40:40Z</time>
      </trkpt>
      <trkpt lat="50.38896" lon="4.80695">
        <ele>250</ele>
        <time>2025-04-05T06:40:41Z</time>
      </trkpt>
      <trkpt lat="50.38892" lon="4.80692">
        <ele>250.2</ele>
        <time>2025-04-05T06:40:42Z</time>
      </trkpt>
      <trkpt lat="50.38889" lon="4.80689">
        <ele>250.2</ele>
        <time>2025-04-05T06:40:43Z</time>
      </trkpt>
      <trkpt lat="50.38886" lon="4.80686">
        <ele>250.2</ele>
        <time>2025-04-05T06:40:44Z</time>
      </trkpt>
      <trkpt lat="50.38882" lon="4.80683">
        <ele>250.4</ele>
        <time>2025-04-05T06:40:45Z</time>
      </trkpt>
      <trkpt lat="50.38878" lon="4.8068">
        <ele>250.4</ele>
        <time>2025-04-05T06:40:46Z</time>
      </trkpt>
      <trkpt lat="50.38874" lon="4.80677">
        <ele>250.4</ele>
        <time>2025-04-05T06:40:47Z</time>
      </trkpt>
      <trkpt lat="50.38871" lon="4.80675">
        <ele>250.6</ele>
        <time>2025-04-05T06:40:48Z</time>
      </trkpt>
      <trkpt lat="50.38867" lon="4.80672">
        <ele>250.6</ele>
        <time>2025-04-05T06:40:49Z</time>
      </trkpt>
      <trkpt lat="50.38863" lon="4.80669">
        <ele>250.8</ele>
        <time>2025-04-05T06:40:50Z</time>
      </trkpt>
      <trkpt lat="50.38861" lon="4.80666">
        <ele>250.8</ele>
        <time>2025-04-05T06:40:51Z</time>
      </trkpt>
      <trkpt lat="50.38858" lon="4.80662">
        <ele>251</ele>
        <time>2025-04-05T06:40:52Z</time>
      </trkpt>
      <trkpt lat="50.38855" lon="4.80657">
        <ele>251</ele>
        <time>2025-04-05T06:40:53Z</time>
      </trkpt>
      <trkpt lat="50.38853" lon="4.80652">
        <ele>251</ele>
        <time>2025-04-05T06:40:54Z</time>
      </trkpt>
      <trkpt lat="50.3885" lon="4.80646">
        <ele>251.2</ele>
        <time>2025-04-05T06:40:55Z</time>
      </trkpt>
      <trkpt lat="50.38848" lon="4.80641">
        <ele>251.2</ele>
        <time>2025-04-05T06:40:56Z</time>
      </trkpt>
      <trkpt lat="50.38845" lon="4.80635">
        <ele>251.2</ele>
        <time>2025-04-05T06:40:57Z</time>
      </trkpt>
      <trkpt lat="50.38842" lon="4.80629">
        <ele>251.2</ele>
        <time>2025-04-05T06:40:58Z</time>
      </trkpt>
      <trkpt lat="50.3884" lon="4.80622">
        <ele>251.2</ele>
        <time>2025-04-05T06:40:59Z</time>
      </trkpt>
      <trkpt lat="50.38837" lon="4.80616">
        <ele>251.2</ele>
        <time>2025-04-05T06:41:00Z</time>
      </trkpt>
      <trkpt lat="50.38834" lon="4.80609">
        <ele>251.2</ele>
        <time>2025-04-05T06:41:01Z</time>
      </trkpt>
      <trkpt lat="50.38831" lon="4.80603">
        <ele>251.2</ele>
        <time>2025-04-05T06:41:02Z</time>
      </trkpt>
      <trkpt lat="50.38828" lon="4.80597">
        <ele>251.2</ele>
        <time>2025-04-05T06:41:03Z</time>
      </trkpt>
      <trkpt lat="50.38825" lon="4.8059">
        <ele>251.2</ele>
        <time>2025-04-05T06:41:04Z</time>
      </trkpt>
      <trkpt lat="50.38822" lon="4.80584">
        <ele>251.2</ele>
        <time>2025-04-05T06:41:05Z</time>
      </trkpt>
      <trkpt lat="50.3882" lon="4.80577">
        <ele>251.2</ele>
        <time>2025-04-05T06:41:06Z</time>
      </trkpt>
      <trkpt lat="50.38816" lon="4.8057">
        <ele>251.2</ele>
        <time>2025-04-05T06:41:07Z</time>
      </trkpt>
      <trkpt lat="50.38813" lon="4.80564">
        <ele>251.2</ele>
        <time>2025-04-05T06:41:08Z</time>
      </trkpt>
      <trkpt lat="50.3881" lon="4.80558">
        <ele>251.2</ele>
        <time>2025-04-05T06:41:09Z</time>
      </trkpt>
      <trkpt lat="50.38808" lon="4.80551">
        <ele>251.2</ele>
        <time>2025-04-05T06:41:10Z</time>
      </trkpt>
      <trkpt lat="50.38804" lon="4.80545">
        <ele>251.2</ele>
        <time>2025-04-05T06:41:11Z</time>
      </trkpt>
      <trkpt lat="50.38802" lon="4.80539">
        <ele>251.2</ele>
        <time>2025-04-05T06:41:12Z</time>
      </trkpt>
      <trkpt lat="50.38799" lon="4.80533">
        <ele>251.2</ele>
        <time>2025-04-05T06:41:13Z</time>
      </trkpt>
      <trkpt lat="50.38796" lon="4.80526">
        <ele>251</ele>
        <time>2025-04-05T06:41:14Z</time>
      </trkpt>
      <trkpt lat="50.38793" lon="4.80519">
        <ele>251</ele>
        <time>2025-04-05T06:41:15Z</time>
      </trkpt>
      <trkpt lat="50.3879" lon="4.80513">
        <ele>251</ele>
        <time>2025-04-05T06:41:16Z</time>
      </trkpt>
      <trkpt lat="50.38787" lon="4.80507">
        <ele>250.8</ele>
        <time>2025-04-05T06:41:17Z</time>
      </trkpt>
      <trkpt lat="50.38785" lon="4.80499">
        <ele>250.8</ele>
        <time>2025-04-05T06:41:18Z</time>
      </trkpt>
      <trkpt lat="50.38783" lon="4.80492">
        <ele>250.8</ele>
        <time>2025-04-05T06:41:19Z</time>
      </trkpt>
      <trkpt lat="50.38782" lon="4.80484">
        <ele>250.8</ele>
        <time>2025-04-05T06:41:20Z</time>
      </trkpt>
      <trkpt lat="50.38782" lon="4.80476">
        <ele>250.8</ele>
        <time>2025-04-05T06:41:21Z</time>
      </trkpt>
      <trkpt lat="50.38781" lon="4.80468">
        <ele>250.8</ele>
        <time>2025-04-05T06:41:22Z</time>
      </trkpt>
      <trkpt lat="50.38781" lon="4.80461">
        <ele>250.8</ele>
        <time>2025-04-05T06:41:23Z</time>
      </trkpt>
      <trkpt lat="50.38782" lon="4.80454">
        <ele>250.8</ele>
        <time>2025-04-05T06:41:24Z</time>
      </trkpt>
      <trkpt lat="50.38782" lon="4.80446">
        <ele>250.8</ele>
        <time>2025-04-05T06:41:25Z</time>
      </trkpt>
      <trkpt lat="50.38783" lon="4.80438">
        <ele>251</ele>
        <time>2025-04-05T06:41:26Z</time>
      </trkpt>
      <trkpt lat="50.38782" lon="4.80431">
        <ele>251</ele>
        <time>2025-04-05T06:41:27Z</time>
      </trkpt>
      <trkpt lat="50.3878" lon="4.80423">
        <ele>250.8</ele>
        <time>2025-04-05T06:41:28Z</time>
      </trkpt>
      <trkpt lat="50.38776" lon="4.80417">
        <ele>250.8</ele>
        <time>2025-04-05T06:41:29Z</time>
      </trkpt>
      <trkpt lat="50.38772" lon="4.80412">
        <ele>250.8</ele>
        <time>2025-04-05T06:41:30Z</time>
      </trkpt>
      <trkpt lat="50.38767" lon="4.80409">
        <ele>250.6</ele>
        <time>2025-04-05T06:41:31Z</time>
      </trkpt>
      <trkpt lat="50.38762" lon="4.80407">
        <ele>250.6</ele>
        <time>2025-04-05T06:41:32Z</time>
      </trkpt>
      <trkpt lat="50.38757" lon="4.80404">
        <ele>250.6</ele>
        <time>2025-04-05T06:41:33Z</time>
      </trkpt>
      <trkpt lat="50.38752" lon="4.80401">
        <ele>250.4</ele>
        <time>2025-04-05T06:41:34Z</time>
      </trkpt>
      <trkpt lat="50.38748" lon="4.80397">
        <ele>250.4</ele>
        <time>2025-04-05T06:41:35Z</time>
      </trkpt>
      <trkpt lat="50.38745" lon="4.8039">
        <ele>250.2</ele>
        <time>2025-04-05T06:41:36Z</time>
      </trkpt>
      <trkpt lat="50.38742" lon="4.80383">
        <ele>250.2</ele>
        <time>2025-04-05T06:41:37Z</time>
      </trkpt>
      <trkpt lat="50.38739" lon="4.80374">
        <ele>250</ele>
        <time>2025-04-05T06:41:38Z</time>
      </trkpt>
      <trkpt lat="50.38737" lon="4.80365">
        <ele>250</ele>
        <time>2025-04-05T06:41:39Z</time>
      </trkpt>
      <trkpt lat="50.38735" lon="4.80356">
        <ele>249.8</ele>
        <time>2025-04-05T06:41:40Z</time>
      </trkpt>
      <trkpt lat="50.38733" lon="4.80347">
        <ele>249.8</ele>
        <time>2025-04-05T06:41:41Z</time>
      </trkpt>
      <trkpt lat="50.38731" lon="4.80338">
        <ele>249.8</ele>
        <time>2025-04-05T06:41:42Z</time>
      </trkpt>
      <trkpt lat="50.38729" lon="4.80329">
        <ele>249.8</ele>
        <time>2025-04-05T06:41:43Z</time>
      </trkpt>
      <trkpt lat="50.38727" lon="4.8032">
        <ele>249.8</ele>
        <time>2025-04-05T06:41:44Z</time>
      </trkpt>
      <trkpt lat="50.38725" lon="4.8031">
        <ele>249.6</ele>
        <time>2025-04-05T06:41:45Z</time>
      </trkpt>
      <trkpt lat="50.38723" lon="4.80301">
        <ele>249.6</ele>
        <time>2025-04-05T06:41:46Z</time>
      </trkpt>
      <trkpt lat="50.38721" lon="4.80291">
        <ele>249.6</ele>
        <time>2025-04-05T06:41:47Z</time>
      </trkpt>
      <trkpt lat="50.38718" lon="4.80282">
        <ele>249.6</ele>
        <time>2025-04-05T06:41:48Z</time>
      </trkpt>
      <trkpt lat="50.38717" lon="4.80273">
        <ele>249.4</ele>
        <time>2025-04-05T06:41:49Z</time>
      </trkpt>
      <trkpt lat="50.38715" lon="4.80263">
        <ele>249.4</ele>
        <time>2025-04-05T06:41:50Z</time>
      </trkpt>
      <trkpt lat="50.38713" lon="4.80254">
        <ele>249.4</ele>
        <time>2025-04-05T06:41:51Z</time>
      </trkpt>
      <trkpt lat="50.38711" lon="4.80244">
        <ele>249.2</ele>
        <time>2025-04-05T06:41:52Z</time>
      </trkpt>
      <trkpt lat="50.38709" lon="4.80235">
        <ele>249.2</ele>
        <time>2025-04-05T06:41:53Z</time>
      </trkpt>
      <trkpt lat="50.38707" lon="4.80225">
        <ele>249.2</ele>
        <time>2025-04-05T06:41:54Z</time>
      </trkpt>
      <trkpt lat="50.38705" lon="4.80215">
        <ele>249</ele>
        <time>2025-04-05T06:41:55Z</time>
      </trkpt>
      <trkpt lat="50.38703" lon="4.80205">
        <ele>249</ele>
        <time>2025-04-05T06:41:56Z</time>
      </trkpt>
      <trkpt lat="50.38701" lon="4.80195">
        <ele>248.8</ele>
        <time>2025-04-05T06:41:57Z</time>
      </trkpt>
      <trkpt lat="50.38699" lon="4.80185">
        <ele>248.8</ele>
        <time>2025-04-05T06:41:58Z</time>
      </trkpt>
      <trkpt lat="50.38696" lon="4.80174">
        <ele>248.8</ele>
        <time>2025-04-05T06:41:59Z</time>
      </trkpt>
      <trkpt lat="50.38694" lon="4.80165">
        <ele>248.6</ele>
        <time>2025-04-05T06:42:00Z</time>
      </trkpt>
      <trkpt lat="50.38692" lon="4.80154">
        <ele>248.4</ele>
        <time>2025-04-05T06:42:01Z</time>
      </trkpt>
      <trkpt lat="50.3869" lon="4.80144">
        <ele>248.4</ele>
        <time>2025-04-05T06:42:02Z</time>
      </trkpt>
      <trkpt lat="50.38688" lon="4.80134">
        <ele>248.2</ele>
        <time>2025-04-05T06:42:03Z</time>
      </trkpt>
      <trkpt lat="50.38686" lon="4.80123">
        <ele>248.2</ele>
        <time>2025-04-05T06:42:04Z</time>
      </trkpt>
      <trkpt lat="50.38684" lon="4.80113">
        <ele>248</ele>
        <time>2025-04-05T06:42:05Z</time>
      </trkpt>
      <trkpt lat="50.38682" lon="4.80103">
        <ele>248</ele>
        <time>2025-04-05T06:42:06Z</time>
      </trkpt>
      <trkpt lat="50.3868" lon="4.80092">
        <ele>247.8</ele>
        <time>2025-04-05T06:42:07Z</time>
      </trkpt>
      <trkpt lat="50.38677" lon="4.80082">
        <ele>247.8</ele>
        <time>2025-04-05T06:42:08Z</time>
      </trkpt>
      <trkpt lat="50.38675" lon="4.80072">
        <ele>247.6</ele>
        <time>2025-04-05T06:42:09Z</time>
      </trkpt>
      <trkpt lat="50.38672" lon="4.80062">
        <ele>247.4</ele>
        <time>2025-04-05T06:42:10Z</time>
      </trkpt>
      <trkpt lat="50.3867" lon="4.80051">
        <ele>247.2</ele>
        <time>2025-04-05T06:42:11Z</time>
      </trkpt>
      <trkpt lat="50.38668" lon="4.80041">
        <ele>247.2</ele>
        <time>2025-04-05T06:42:12Z</time>
      </trkpt>
      <trkpt lat="50.38665" lon="4.8003">
        <ele>247</ele>
        <time>2025-04-05T06:42:13Z</time>
      </trkpt>
      <trkpt lat="50.38663" lon="4.80019">
        <ele>246.8</ele>
        <time>2025-04-05T06:42:14Z</time>
      </trkpt>
      <trkpt lat="50.38661" lon="4.80008">
        <ele>246.6</ele>
        <time>2025-04-05T06:42:15Z</time>
      </trkpt>
      <trkpt lat="50.38659" lon="4.79998">
        <ele>246.6</ele>
        <time>2025-04-05T06:42:16Z</time>
      </trkpt>
      <trkpt lat="50.38656" lon="4.79987">
        <ele>246.4</ele>
        <time>2025-04-05T06:42:17Z</time>
      </trkpt>
      <trkpt lat="50.38654" lon="4.79976">
        <ele>246.4</ele>
        <time>2025-04-05T06:42:18Z</time>
      </trkpt>
      <trkpt lat="50.38651" lon="4.79965">
        <ele>246.4</ele>
        <time>2025-04-05T06:42:19Z</time>
      </trkpt>
      <trkpt lat="50.38649" lon="4.79954">
        <ele>246.2</ele>
        <time>2025-04-05T06:42:20Z</time>
      </trkpt>
      <trkpt lat="50.38646" lon="4.79944">
        <ele>246</ele>
        <time>2025-04-05T06:42:21Z</time>
      </trkpt>
      <trkpt lat="50.38644" lon="4.79933">
        <ele>245.8</ele>
        <time>2025-04-05T06:42:22Z</time>
      </trkpt>
      <trkpt lat="50.38641" lon="4.79922">
        <ele>245.8</ele>
        <time>2025-04-05T06:42:23Z</time>
      </trkpt>
      <trkpt lat="50.38639" lon="4.79911">
        <ele>245.6</ele>
        <time>2025-04-05T06:42:24Z</time>
      </trkpt>
      <trkpt lat="50.38636" lon="4.799">
        <ele>245.4</ele>
        <time>2025-04-05T06:42:25Z</time>
      </trkpt>
      <trkpt lat="50.38634" lon="4.79889">
        <ele>245.2</ele>
        <time>2025-04-05T06:42:26Z</time>
      </trkpt>
      <trkpt lat="50.38631" lon="4.79878">
        <ele>245.2</ele>
        <time>2025-04-05T06:42:27Z</time>
      </trkpt>
      <trkpt lat="50.38629" lon="4.79867">
        <ele>245</ele>
        <time>2025-04-05T06:42:28Z</time>
      </trkpt>
      <trkpt lat="50.38627" lon="4.79856">
        <ele>245</ele>
        <time>2025-04-05T06:42:29Z</time>
      </trkpt>
      <trkpt lat="50.38624" lon="4.79844">
        <ele>244.8</ele>
        <time>2025-04-05T06:42:30Z</time>
      </trkpt>
      <trkpt lat="50.38622" lon="4.79833">
        <ele>244.8</ele>
        <time>2025-04-05T06:42:31Z</time>
      </trkpt>
      <trkpt lat="50.38619" lon="4.79822">
        <ele>244.6</ele>
        <time>2025-04-05T06:42:32Z</time>
      </trkpt>
      <trkpt lat="50.38617" lon="4.7981">
        <ele>244.2</ele>
        <time>2025-04-05T06:42:33Z</time>
      </trkpt>
      <trkpt lat="50.38614" lon="4.79799">
        <ele>244</ele>
        <time>2025-04-05T06:42:34Z</time>
      </trkpt>
      <trkpt lat="50.38611" lon="4.79788">
        <ele>243.8</ele>
        <time>2025-04-05T06:42:35Z</time>
      </trkpt>
      <trkpt lat="50.38609" lon="4.79777">
        <ele>243.8</ele>
        <time>2025-04-05T06:42:36Z</time>
      </trkpt>
      <trkpt lat="50.38606" lon="4.79765">
        <ele>243.6</ele>
        <time>2025-04-05T06:42:37Z</time>
      </trkpt>
      <trkpt lat="50.38604" lon="4.79754">
        <ele>243.4</ele>
        <time>2025-04-05T06:42:38Z</time>
      </trkpt>
      <trkpt lat="50.38601" lon="4.79743">
        <ele>243.2</ele>
        <time>2025-04-05T06:42:39Z</time>
      </trkpt>
      <trkpt lat="50.38599" lon="4.79732">
        <ele>243</ele>
        <time>2025-04-05T06:42:40Z</time>
      </trkpt>
      <trkpt lat="50.38596" lon="4.79718">
        <ele>242.6</ele>
        <time>2025-04-05T06:42:41Z</time>
      </trkpt>
      <trkpt lat="50.38594" lon="4.79706">
        <ele>242.4</ele>
        <time>2025-04-05T06:42:42Z</time>
      </trkpt>
      <trkpt lat="50.38591" lon="4.79694">
        <ele>242.2</ele>
        <time>2025-04-05T06:42:43Z</time>
      </trkpt>
      <trkpt lat="50.38588" lon="4.79682">
        <ele>242</ele>
        <time>2025-04-05T06:42:44Z</time>
      </trkpt>
      <trkpt lat="50.38585" lon="4.7967">
        <ele>241.8</ele>
        <time>2025-04-05T06:42:45Z</time>
      </trkpt>
      <trkpt lat="50.38583" lon="4.79658">
        <ele>241.4</ele>
        <time>2025-04-05T06:42:46Z</time>
      </trkpt>
      <trkpt lat="50.3858" lon="4.79646">
        <ele>241</ele>
        <time>2025-04-05T06:42:47Z</time>
      </trkpt>
      <trkpt lat="50.38577" lon="4.79634">
        <ele>240.8</ele>
        <time>2025-04-05T06:42:48Z</time>
      </trkpt>
      <trkpt lat="50.38575" lon="4.79621">
        <ele>240.4</ele>
        <time>2025-04-05T06:42:49Z</time>
      </trkpt>
      <trkpt lat="50.38572" lon="4.79609">
        <ele>240.2</ele>
        <time>2025-04-05T06:42:50Z</time>
      </trkpt>
      <trkpt lat="50.38569" lon="4.79596">
        <ele>239.8</ele>
        <time>2025-04-05T06:42:51Z</time>
      </trkpt>
      <trkpt lat="50.38567" lon="4.79584">
        <ele>239.4</ele>
        <time>2025-04-05T06:42:52Z</time>
      </trkpt>
      <trkpt lat="50.38564" lon="4.79571">
        <ele>239.2</ele>
        <time>2025-04-05T06:42:53Z</time>
      </trkpt>
      <trkpt lat="50.38561" lon="4.79558">
        <ele>238.8</ele>
        <time>2025-04-05T06:42:54Z</time>
      </trkpt>
      <trkpt lat="50.38558" lon="4.79545">
        <ele>238.4</ele>
        <time>2025-04-05T06:42:55Z</time>
      </trkpt>
      <trkpt lat="50.38555" lon="4.79531">
        <ele>238.2</ele>
        <time>2025-04-05T06:42:56Z</time>
      </trkpt>
      <trkpt lat="50.38552" lon="4.79518">
        <ele>238</ele>
        <time>2025-04-05T06:42:57Z</time>
      </trkpt>
      <trkpt lat="50.38549" lon="4.79504">
        <ele>237.6</ele>
        <time>2025-04-05T06:42:58Z</time>
      </trkpt>
      <trkpt lat="50.38546" lon="4.7949">
        <ele>237.2</ele>
        <time>2025-04-05T06:42:59Z</time>
      </trkpt>
      <trkpt lat="50.38543" lon="4.79477">
        <ele>236.8</ele>
        <time>2025-04-05T06:43:00Z</time>
      </trkpt>
      <trkpt lat="50.3854" lon="4.79463">
        <ele>236.6</ele>
        <time>2025-04-05T06:43:01Z</time>
      </trkpt>
      <trkpt lat="50.38538" lon="4.79449">
        <ele>236.2</ele>
        <time>2025-04-05T06:43:02Z</time>
      </trkpt>
      <trkpt lat="50.38535" lon="4.79435">
        <ele>236</ele>
        <time>2025-04-05T06:43:03Z</time>
      </trkpt>
      <trkpt lat="50.38532" lon="4.79422">
        <ele>235.6</ele>
        <time>2025-04-05T06:43:04Z</time>
      </trkpt>
      <trkpt lat="50.38529" lon="4.79409">
        <ele>235.2</ele>
        <time>2025-04-05T06:43:05Z</time>
      </trkpt>
      <trkpt lat="50.38527" lon="4.79396">
        <ele>235</ele>
        <time>2025-04-05T06:43:06Z</time>
      </trkpt>
      <trkpt lat="50.38524" lon="4.79382">
        <ele>234.6</ele>
        <time>2025-04-05T06:43:07Z</time>
      </trkpt>
      <trkpt lat="50.3852" lon="4.79369">
        <ele>234.2</ele>
        <time>2025-04-05T06:43:08Z</time>
      </trkpt>
      <trkpt lat="50.38518" lon="4.79356">
        <ele>234</ele>
        <time>2025-04-05T06:43:09Z</time>
      </trkpt>
      <trkpt lat="50.38515" lon="4.79342">
        <ele>233.8</ele>
        <time>2025-04-05T06:43:10Z</time>
      </trkpt>
      <trkpt lat="50.38512" lon="4.79329">
        <ele>233.6</ele>
        <time>2025-04-05T06:43:11Z</time>
      </trkpt>
      <trkpt lat="50.38509" lon="4.79315">
        <ele>233.2</ele>
        <time>2025-04-05T06:43:12Z</time>
      </trkpt>
      <trkpt lat="50.38506" lon="4.79302">
        <ele>232.8</ele>
        <time>2025-04-05T06:43:13Z</time>
      </trkpt>
      <trkpt lat="50.38503" lon="4.79288">
        <ele>232.4</ele>
        <time>2025-04-05T06:43:14Z</time>
      </trkpt>
      <trkpt lat="50.385" lon="4.79274">
        <ele>231.8</ele>
        <time>2025-04-05T06:43:15Z</time>
      </trkpt>
      <trkpt lat="50.38497" lon="4.7926">
        <ele>231.4</ele>
        <time>2025-04-05T06:43:16Z</time>
      </trkpt>
      <trkpt lat="50.38494" lon="4.79246">
        <ele>230.8</ele>
        <time>2025-04-05T06:43:17Z</time>
      </trkpt>
      <trkpt lat="50.38491" lon="4.79231">
        <ele>230.4</ele>
        <time>2025-04-05T06:43:18Z</time>
      </trkpt>
      <trkpt lat="50.38488" lon="4.79217">
        <ele>230</ele>
        <time>2025-04-05T06:43:19Z</time>
      </trkpt>
      <trkpt lat="50.38484" lon="4.79203">
        <ele>229.6</ele>
        <time>2025-04-05T06:43:20Z</time>
      </trkpt>
      <trkpt lat="50.38481" lon="4.79188">
        <ele>229.2</ele>
        <time>2025-04-05T06:43:21Z</time>
      </trkpt>
      <trkpt lat="50.38478" lon="4.79173">
        <ele>228.6</ele>
        <time>2025-04-05T06:43:22Z</time>
      </trkpt>
      <trkpt lat="50.38475" lon="4.79158">
        <ele>228.2</ele>
        <time>2025-04-05T06:43:23Z</time>
      </trkpt>
      <trkpt lat="50.38471" lon="4.79143">
        <ele>227.8</ele>
        <time>2025-04-05T06:43:24Z</time>
      </trkpt>
      <trkpt lat="50.38468" lon="4.79128">
        <ele>227.2</ele>
        <time>2025-04-05T06:43:25Z</time>
      </trkpt>
      <trkpt lat="50.38465" lon="4.79113">
        <ele>226.8</ele>
        <time>2025-04-05T06:43:26Z</time>
      </trkpt>
      <trkpt lat="50.38462" lon="4.79097">
        <ele>226.2</ele>
        <time>2025-04-05T06:43:27Z</time>
      </trkpt>
      <trkpt lat="50.38458" lon="4.79082">
        <ele>225.8</ele>
        <time>2025-04-05T06:43:28Z</time>
      </trkpt>
      <trkpt lat="50.38455" lon="4.79066">
        <ele>225.2</ele>
        <time>2025-04-05T06:43:29Z</time>
      </trkpt>
      <trkpt lat="50.38451" lon="4.7905">
        <ele>224.8</ele>
        <time>2025-04-05T06:43:30Z</time>
      </trkpt>
      <trkpt lat="50.38448" lon="4.79034">
        <ele>224.2</ele>
        <time>2025-04-05T06:43:31Z</time>
      </trkpt>
      <trkpt lat="50.38444" lon="4.79018">
        <ele>223.6</ele>
        <time>2025-04-05T06:43:32Z</time>
      </trkpt>
      <trkpt lat="50.38441" lon="4.79002">
        <ele>222.8</ele>
        <time>2025-04-05T06:43:33Z</time>
      </trkpt>
      <trkpt lat="50.38437" lon="4.78986">
        <ele>222.2</ele>
        <time>2025-04-05T06:43:34Z</time>
      </trkpt>
      <trkpt lat="50.38434" lon="4.7897">
        <ele>221.6</ele>
        <time>2025-04-05T06:43:35Z</time>
      </trkpt>
      <trkpt lat="50.3843" lon="4.78954">
        <ele>221.2</ele>
        <time>2025-04-05T06:43:36Z</time>
      </trkpt>
      <trkpt lat="50.38427" lon="4.78938">
        <ele>220.8</ele>
        <time>2025-04-05T06:43:37Z</time>
      </trkpt>
      <trkpt lat="50.38424" lon="4.78922">
        <ele>220.2</ele>
        <time>2025-04-05T06:43:38Z</time>
      </trkpt>
      <trkpt lat="50.3842" lon="4.78906">
        <ele>219.8</ele>
        <time>2025-04-05T06:43:39Z</time>
      </trkpt>
      <trkpt lat="50.38417" lon="4.7889">
        <ele>219.4</ele>
        <time>2025-04-05T06:43:40Z</time>
      </trkpt>
      <trkpt lat="50.38413" lon="4.78874">
        <ele>219.2</ele>
        <time>2025-04-05T06:43:41Z</time>
      </trkpt>
      <trkpt lat="50.3841" lon="4.78859">
        <ele>218.6</ele>
        <time>2025-04-05T06:43:42Z</time>
      </trkpt>
      <trkpt lat="50.38406" lon="4.78844">
        <ele>218</ele>
        <time>2025-04-05T06:43:43Z</time>
      </trkpt>
      <trkpt lat="50.38403" lon="4.78829">
        <ele>217.4</ele>
        <time>2025-04-05T06:43:44Z</time>
      </trkpt>
      <trkpt lat="50.384" lon="4.78815">
        <ele>217</ele>
        <time>2025-04-05T06:43:45Z</time>
      </trkpt>
      <trkpt lat="50.38397" lon="4.78801">
        <ele>216.6</ele>
        <time>2025-04-05T06:43:46Z</time>
      </trkpt>
      <trkpt lat="50.38393" lon="4.78786">
        <ele>216</ele>
        <time>2025-04-05T06:43:47Z</time>
      </trkpt>
      <trkpt lat="50.3839" lon="4.78772">
        <ele>215.6</ele>
        <time>2025-04-05T06:43:48Z</time>
      </trkpt>
      <trkpt lat="50.38387" lon="4.78757">
        <ele>215</ele>
        <time>2025-04-05T06:43:49Z</time>
      </trkpt>
      <trkpt lat="50.38384" lon="4.78742">
        <ele>214.6</ele>
        <time>2025-04-05T06:43:50Z</time>
      </trkpt>
      <trkpt lat="50.38381" lon="4.78728">
        <ele>214.2</ele>
        <time>2025-04-05T06:43:51Z</time>
      </trkpt>
      <trkpt lat="50.38377" lon="4.78713">
        <ele>213.6</ele>
        <time>2025-04-05T06:43:52Z</time>
      </trkpt>
      <trkpt lat="50.38373" lon="4.78699">
        <ele>213.2</ele>
        <time>2025-04-05T06:43:53Z</time>
      </trkpt>
      <trkpt lat="50.38368" lon="4.78685">
        <ele>212.6</ele>
        <time>2025-04-05T06:43:54Z</time>
      </trkpt>
      <trkpt lat="50.38363" lon="4.78671">
        <ele>212.2</ele>
        <time>2025-04-05T06:43:55Z</time>
      </trkpt>
      <trkpt lat="50.38358" lon="4.78658">
        <ele>211.6</ele>
        <time>2025-04-05T06:43:56Z</time>
      </trkpt>
      <trkpt lat="50.38352" lon="4.78646">
        <ele>211</ele>
        <time>2025-04-05T06:43:57Z</time>
      </trkpt>
      <trkpt lat="50.38346" lon="4.78634">
        <ele>210.6</ele>
        <time>2025-04-05T06:43:58Z</time>
      </trkpt>
      <trkpt lat="50.38339" lon="4.78622">
        <ele>210</ele>
        <time>2025-04-05T06:43:59Z</time>
      </trkpt>
      <trkpt lat="50.38331" lon="4.7861">
        <ele>209.4</ele>
        <time>2025-04-05T06:44:00Z</time>
      </trkpt>
      <trkpt lat="50.38322" lon="4.78599">
        <ele>208.8</ele>
        <time>2025-04-05T06:44:01Z</time>
      </trkpt>
      <trkpt lat="50.38314" lon="4.78589">
        <ele>208.2</ele>
        <time>2025-04-05T06:44:02Z</time>
      </trkpt>
      <trkpt lat="50.38305" lon="4.78578">
        <ele>207.6</ele>
        <time>2025-04-05T06:44:03Z</time>
      </trkpt>
      <trkpt lat="50.38297" lon="4.78568">
        <ele>207.2</ele>
        <time>2025-04-05T06:44:04Z</time>
      </trkpt>
      <trkpt lat="50.38289" lon="4.78559">
        <ele>206.8</ele>
        <time>2025-04-05T06:44:05Z</time>
      </trkpt>
      <trkpt lat="50.38282" lon="4.78549">
        <ele>206.6</ele>
        <time>2025-04-05T06:44:06Z</time>
      </trkpt>
      <trkpt lat="50.38273" lon="4.78539">
        <ele>206.4</ele>
        <time>2025-04-05T06:44:07Z</time>
      </trkpt>
      <trkpt lat="50.38265" lon="4.7853">
        <ele>206.2</ele>
        <time>2025-04-05T06:44:08Z</time>
      </trkpt>
      <trkpt lat="50.38257" lon="4.78521">
        <ele>206</ele>
        <time>2025-04-05T06:44:09Z</time>
      </trkpt>
      <trkpt lat="50.3825" lon="4.78512">
        <ele>206</ele>
        <time>2025-04-05T06:44:10Z</time>
      </trkpt>
      <trkpt lat="50.38243" lon="4.78503">
        <ele>206</ele>
        <time>2025-04-05T06:44:11Z</time>
      </trkpt>
      <trkpt lat="50.38236" lon="4.78495">
        <ele>206.2</ele>
        <time>2025-04-05T06:44:12Z</time>
      </trkpt>
      <trkpt lat="50.38229" lon="4.78488">
        <ele>206.2</ele>
        <time>2025-04-05T06:44:13Z</time>
      </trkpt>
      <trkpt lat="50.38223" lon="4.7848">
        <ele>206.6</ele>
        <time>2025-04-05T06:44:14Z</time>
      </trkpt>
      <trkpt lat="50.38216" lon="4.78473">
        <ele>206.8</ele>
        <time>2025-04-05T06:44:15Z</time>
      </trkpt>
      <trkpt lat="50.38211" lon="4.78467">
        <ele>207.2</ele>
        <time>2025-04-05T06:44:16Z</time>
      </trkpt>
      <trkpt lat="50.38205" lon="4.7846">
        <ele>207.6</ele>
        <time>2025-04-05T06:44:17Z</time>
      </trkpt>
      <trkpt lat="50.382" lon="4.78454">
        <ele>208</ele>
        <time>2025-04-05T06:44:18Z</time>
      </trkpt>
      <trkpt lat="50.38195" lon="4.78449">
        <ele>208.2</ele>
        <time>2025-04-05T06:44:19Z</time>
      </trkpt>
      <trkpt lat="50.38191" lon="4.78443">
        <ele>208.6</ele>
        <time>2025-04-05T06:44:20Z</time>
      </trkpt>
      <trkpt lat="50.38186" lon="4.78438">
        <ele>209</ele>
        <time>2025-04-05T06:44:21Z</time>
      </trkpt>
      <trkpt lat="50.38181" lon="4.78433">
        <ele>209.2</ele>
        <time>2025-04-05T06:44:22Z</time>
      </trkpt>
      <trkpt lat="50.38177" lon="4.78428">
        <ele>209.6</ele>
        <time>2025-04-05T06:44:23Z</time>
      </trkpt>
      <trkpt lat="50.38173" lon="4.78423">
        <ele>210</ele>
        <time>2025-04-05T06:44:24Z</time>
      </trkpt>
      <trkpt lat="50.3817" lon="4.78418">
        <ele>210.2</ele>
        <time>2025-04-05T06:44:25Z</time>
      </trkpt>
      <trkpt lat="50.38166" lon="4.78413">
        <ele>210.6</ele>
        <time>2025-04-05T06:44:26Z</time>
      </trkpt>
      <trkpt lat="50.38162" lon="4.78409">
        <ele>211</ele>
        <time>2025-04-05T06:44:27Z</time>
      </trkpt>
      <trkpt lat="50.38158" lon="4.78405">
        <ele>211.2</ele>
        <time>2025-04-05T06:44:28Z</time>
      </trkpt>
      <trkpt lat="50.38154" lon="4.78399">
        <ele>211.6</ele>
        <time>2025-04-05T06:44:29Z</time>
      </trkpt>
      <trkpt lat="50.3815" lon="4.78395">
        <ele>211.8</ele>
        <time>2025-04-05T06:44:30Z</time>
      </trkpt>
      <trkpt lat="50.38145" lon="4.7839">
        <ele>212</ele>
        <time>2025-04-05T06:44:31Z</time>
      </trkpt>
      <trkpt lat="50.38142" lon="4.78386">
        <ele>212.4</ele>
        <time>2025-04-05T06:44:32Z</time>
      </trkpt>
      <trkpt lat="50.38138" lon="4.78381">
        <ele>212.6</ele>
        <time>2025-04-05T06:44:33Z</time>
      </trkpt>
      <trkpt lat="50.38134" lon="4.78377">
        <ele>213</ele>
        <time>2025-04-05T06:44:34Z</time>
      </trkpt>
      <trkpt lat="50.3813" lon="4.78373">
        <ele>213.2</ele>
        <time>2025-04-05T06:44:35Z</time>
      </trkpt>
      <trkpt lat="50.38126" lon="4.78369">
        <ele>213.4</ele>
        <time>2025-04-05T06:44:36Z</time>
      </trkpt>
      <trkpt lat="50.38123" lon="4.78365">
        <ele>213.8</ele>
        <time>2025-04-05T06:44:37Z</time>
      </trkpt>
      <trkpt lat="50.3812" lon="4.78361">
        <ele>214</ele>
        <time>2025-04-05T06:44:38Z</time>
      </trkpt>
      <trkpt lat="50.38116" lon="4.78357">
        <ele>214.2</ele>
        <time>2025-04-05T06:44:39Z</time>
      </trkpt>
      <trkpt lat="50.38113" lon="4.78353">
        <ele>214.4</ele>
        <time>2025-04-05T06:44:40Z</time>
      </trkpt>
      <trkpt lat="50.38109" lon="4.78349">
        <ele>214.6</ele>
        <time>2025-04-05T06:44:41Z</time>
      </trkpt>
      <trkpt lat="50.38106" lon="4.78345">
        <ele>214.8</ele>
        <time>2025-04-05T06:44:42Z</time>
      </trkpt>
      <trkpt lat="50.38103" lon="4.78341">
        <ele>215</ele>
        <time>2025-04-05T06:44:43Z</time>
      </trkpt>
      <trkpt lat="50.38099" lon="4.78337">
        <ele>215.2</ele>
        <time>2025-04-05T06:44:44Z</time>
      </trkpt>
      <trkpt lat="50.38096" lon="4.78332">
        <ele>215.6</ele>
        <time>2025-04-05T06:44:45Z</time>
      </trkpt>
      <trkpt lat="50.38092" lon="4.78328">
        <ele>215.8</ele>
        <time>2025-04-05T06:44:46Z</time>
      </trkpt>
      <trkpt lat="50.38089" lon="4.78323">
        <ele>216</ele>
        <time>2025-04-05T06:44:47Z</time>
      </trkpt>
      <trkpt lat="50.38086" lon="4.78318">
        <ele>216.4</ele>
        <time>2025-04-05T06:44:48Z</time>
      </trkpt>
      <trkpt lat="50.38083" lon="4.78313">
        <ele>216.6</ele>
        <time>2025-04-05T06:44:49Z</time>
      </trkpt>
      <trkpt lat="50.3808" lon="4.78307">
        <ele>216.8</ele>
        <time>2025-04-05T06:44:50Z</time>
      </trkpt>
      <trkpt lat="50.38076" lon="4.78301">
        <ele>217</ele>
        <time>2025-04-05T06:44:51Z</time>
      </trkpt>
      <trkpt lat="50.38074" lon="4.78294">
        <ele>217.2</ele>
        <time>2025-04-05T06:44:52Z</time>
      </trkpt>
      <trkpt lat="50.38072" lon="4.78288">
        <ele>217.4</ele>
        <time>2025-04-05T06:44:53Z</time>
      </trkpt>
      <trkpt lat="50.3807" lon="4.78283">
        <ele>217.8</ele>
        <time>2025-04-05T06:44:54Z</time>
      </trkpt>
      <trkpt lat="50.38068" lon="4.78276">
        <ele>218</ele>
        <time>2025-04-05T06:44:55Z</time>
      </trkpt>
      <trkpt lat="50.38067" lon="4.78269">
        <ele>218.2</ele>
        <time>2025-04-05T06:44:56Z</time>
      </trkpt>
      <trkpt lat="50.38065" lon="4.78262">
        <ele>218.6</ele>
        <time>2025-04-05T06:44:57Z</time>
      </trkpt>
      <trkpt lat="50.38063" lon="4.78256">
        <ele>218.8</ele>
        <time>2025-04-05T06:44:58Z</time>
      </trkpt>
      <trkpt lat="50.38062" lon="4.78249">
        <ele>219</ele>
        <time>2025-04-05T06:44:59Z</time>
      </trkpt>
      <trkpt lat="50.3806" lon="4.78242">
        <ele>219.2</ele>
        <time>2025-04-05T06:45:00Z</time>
      </trkpt>
      <trkpt lat="50.38058" lon="4.78236">
        <ele>219.4</ele>
        <time>2025-04-05T06:45:01Z</time>
      </trkpt>
      <trkpt lat="50.38057" lon="4.78229">
        <ele>219.8</ele>
        <time>2025-04-05T06:45:02Z</time>
      </trkpt>
      <trkpt lat="50.38055" lon="4.78223">
        <ele>220</ele>
        <time>2025-04-05T06:45:03Z</time>
      </trkpt>
      <trkpt lat="50.38054" lon="4.78216">
        <ele>220.2</ele>
        <time>2025-04-05T06:45:04Z</time>
      </trkpt>
      <trkpt lat="50.38054" lon="4.7821">
        <ele>220.4</ele>
        <time>2025-04-05T06:45:05Z</time>
      </trkpt>
      <trkpt lat="50.38052" lon="4.78203">
        <ele>220.6</ele>
        <time>2025-04-05T06:45:06Z</time>
      </trkpt>
      <trkpt lat="50.38051" lon="4.78197">
        <ele>220.8</ele>
        <time>2025-04-05T06:45:07Z</time>
      </trkpt>
      <trkpt lat="50.38051" lon="4.7819">
        <ele>221</ele>
        <time>2025-04-05T06:45:08Z</time>
      </trkpt>
      <trkpt lat="50.38049" lon="4.78184">
        <ele>221.2</ele>
        <time>2025-04-05T06:45:09Z</time>
      </trkpt>
      <trkpt lat="50.38049" lon="4.78177">
        <ele>221.4</ele>
        <time>2025-04-05T06:45:10Z</time>
      </trkpt>
      <trkpt lat="50.38048" lon="4.78171">
        <ele>221.6</ele>
        <time>2025-04-05T06:45:11Z</time>
      </trkpt>
      <trkpt lat="50.38047" lon="4.78164">
        <ele>221.8</ele>
        <time>2025-04-05T06:45:12Z</time>
      </trkpt>
      <trkpt lat="50.38047" lon="4.78158">
        <ele>222</ele>
        <time>2025-04-05T06:45:13Z</time>
      </trkpt>
      <trkpt lat="50.38046" lon="4.78151">
        <ele>222.2</ele>
        <time>2025-04-05T06:45:14Z</time>
      </trkpt>
      <trkpt lat="50.38046" lon="4.78145">
        <ele>222.4</ele>
        <time>2025-04-05T06:45:15Z</time>
      </trkpt>
      <trkpt lat="50.38045" lon="4.78138">
        <ele>222.6</ele>
        <time>2025-04-05T06:45:16Z</time>
      </trkpt>
      <trkpt lat="50.38044" lon="4.78131">
        <ele>222.8</ele>
        <time>2025-04-05T06:45:17Z</time>
      </trkpt>
      <trkpt lat="50.38044" lon="4.78125">
        <ele>223.2</ele>
        <time>2025-04-05T06:45:18Z</time>
      </trkpt>
      <trkpt lat="50.38044" lon="4.78118">
        <ele>223.4</ele>
        <time>2025-04-05T06:45:19Z</time>
      </trkpt>
      <trkpt lat="50.38044" lon="4.78111">
        <ele>223.6</ele>
        <time>2025-04-05T06:45:20Z</time>
      </trkpt>
      <trkpt lat="50.38044" lon="4.78104">
        <ele>223.8</ele>
        <time>2025-04-05T06:45:21Z</time>
      </trkpt>
      <trkpt lat="50.38044" lon="4.78098">
        <ele>224</ele>
        <time>2025-04-05T06:45:22Z</time>
      </trkpt>
      <trkpt lat="50.38044" lon="4.78091">
        <ele>224.2</ele>
        <time>2025-04-05T06:45:23Z</time>
      </trkpt>
      <trkpt lat="50.38044" lon="4.78085">
        <ele>224.4</ele>
        <time>2025-04-05T06:45:24Z</time>
      </trkpt>
      <trkpt lat="50.38045" lon="4.78079">
        <ele>224.6</ele>
        <time>2025-04-05T06:45:25Z</time>
      </trkpt>
      <trkpt lat="50.38046" lon="4.78074">
        <ele>224.8</ele>
        <time>2025-04-05T06:45:26Z</time>
      </trkpt>
      <trkpt lat="50.38046" lon="4.78067">
        <ele>225</ele>
        <time>2025-04-05T06:45:27Z</time>
      </trkpt>
      <trkpt lat="50.38046" lon="4.78062">
        <ele>225.2</ele>
        <time>2025-04-05T06:45:28Z</time>
      </trkpt>
      <trkpt lat="50.38046" lon="4.78056">
        <ele>225.6</ele>
        <time>2025-04-05T06:45:29Z</time>
      </trkpt>
      <trkpt lat="50.38047" lon="4.7805">
        <ele>225.8</ele>
        <time>2025-04-05T06:45:30Z</time>
      </trkpt>
      <trkpt lat="50.38047" lon="4.78044">
        <ele>226</ele>
        <time>2025-04-05T06:45:31Z</time>
      </trkpt>
      <trkpt lat="50.38047" lon="4.78038">
        <ele>226.2</ele>
        <time>2025-04-05T06:45:32Z</time>
      </trkpt>
      <trkpt lat="50.38047" lon="4.78032">
        <ele>226.4</ele>
        <time>2025-04-05T06:45:33Z</time>
      </trkpt>
      <trkpt lat="50.38047" lon="4.78027">
        <ele>226.6</ele>
        <time>2025-04-05T06:45:34Z</time>
      </trkpt>
      <trkpt lat="50.38047" lon="4.78021">
        <ele>226.8</ele>
        <time>2025-04-05T06:45:35Z</time>
      </trkpt>
      <trkpt lat="50.38047" lon="4.78015">
        <ele>227</ele>
        <time>2025-04-05T06:45:36Z</time>
      </trkpt>
      <trkpt lat="50.38047" lon="4.7801">
        <ele>227.2</ele>
        <time>2025-04-05T06:45:37Z</time>
      </trkpt>
      <trkpt lat="50.38048" lon="4.78005">
        <ele>227.4</ele>
        <time>2025-04-05T06:45:38Z</time>
      </trkpt>
      <trkpt lat="50.38047" lon="4.77999">
        <ele>227.6</ele>
        <time>2025-04-05T06:45:39Z</time>
      </trkpt>
      <trkpt lat="50.38047" lon="4.77993">
        <ele>227.8</ele>
        <time>2025-04-05T06:45:40Z</time>
      </trkpt>
      <trkpt lat="50.38047" lon="4.77987">
        <ele>228</ele>
        <time>2025-04-05T06:45:41Z</time>
      </trkpt>
      <trkpt lat="50.38047" lon="4.77982">
        <ele>228.2</ele>
        <time>2025-04-05T06:45:42Z</time>
      </trkpt>
      <trkpt lat="50.38047" lon="4.77977">
        <ele>228.4</ele>
        <time>2025-04-05T06:45:43Z</time>
      </trkpt>
      <trkpt lat="50.38046" lon="4.77971">
        <ele>228.6</ele>
        <time>2025-04-05T06:45:44Z</time>
      </trkpt>
      <trkpt lat="50.38046" lon="4.77965">
        <ele>228.8</ele>
        <time>2025-04-05T06:45:45Z</time>
      </trkpt>
      <trkpt lat="50.38045" lon="4.77959">
        <ele>229</ele>
        <time>2025-04-05T06:45:46Z</time>
      </trkpt>
      <trkpt lat="50.38044" lon="4.77954">
        <ele>229.2</ele>
        <time>2025-04-05T06:45:47Z</time>
      </trkpt>
      <trkpt lat="50.38044" lon="4.77948">
        <ele>229.4</ele>
        <time>2025-04-05T06:45:48Z</time>
      </trkpt>
      <trkpt lat="50.38043" lon="4.77943">
        <ele>229.6</ele>
        <time>2025-04-05T06:45:49Z</time>
      </trkpt>
      <trkpt lat="50.38042" lon="4.77938">
        <ele>229.8</ele>
        <time>2025-04-05T06:45:50Z</time>
      </trkpt>
      <trkpt lat="50.38042" lon="4.77932">
        <ele>230</ele>
        <time>2025-04-05T06:45:51Z</time>
      </trkpt>
      <trkpt lat="50.38041" lon="4.77927">
        <ele>230.2</ele>
        <time>2025-04-05T06:45:52Z</time>
      </trkpt>
      <trkpt lat="50.38041" lon="4.77922">
        <ele>230.4</ele>
        <time>2025-04-05T06:45:53Z</time>
      </trkpt>
      <trkpt lat="50.38039" lon="4.77916">
        <ele>230.6</ele>
        <time>2025-04-05T06:45:54Z</time>
      </trkpt>
      <trkpt lat="50.38039" lon="4.7791">
        <ele>230.8</ele>
        <time>2025-04-05T06:45:55Z</time>
      </trkpt>
      <trkpt lat="50.38037" lon="4.77905">
        <ele>231</ele>
        <time>2025-04-05T06:45:56Z</time>
      </trkpt>
      <trkpt lat="50.38036" lon="4.779">
        <ele>231.2</ele>
        <time>2025-04-05T06:45:57Z</time>
      </trkpt>
      <trkpt lat="50.38034" lon="4.77894">
        <ele>231.2</ele>
        <time>2025-04-05T06:45:58Z</time>
      </trkpt>
      <trkpt lat="50.38034" lon="4.77889">
        <ele>231.4</ele>
        <time>2025-04-05T06:45:59Z</time>
      </trkpt>
      <trkpt lat="50.38033" lon="4.77884">
        <ele>231.6</ele>
        <time>2025-04-05T06:46:00Z</time>
      </trkpt>
      <trkpt lat="50.38032" lon="4.77879">
        <ele>231.8</ele>
        <time>2025-04-05T06:46:01Z</time>
      </trkpt>
      <trkpt lat="50.38031" lon="4.77874">
        <ele>232</ele>
        <time>2025-04-05T06:46:02Z</time>
      </trkpt>
      <trkpt lat="50.3803" lon="4.77869">
        <ele>232.2</ele>
        <time>2025-04-05T06:46:03Z</time>
      </trkpt>
      <trkpt lat="50.38029" lon="4.77864">
        <ele>232.4</ele>
        <time>2025-04-05T06:46:04Z</time>
      </trkpt>
      <trkpt lat="50.38027" lon="4.77858">
        <ele>232.6</ele>
        <time>2025-04-05T06:46:05Z</time>
      </trkpt>
      <trkpt lat="50.38025" lon="4.77853">
        <ele>232.8</ele>
        <time>2025-04-05T06:46:06Z</time>
      </trkpt>
      <trkpt lat="50.38023" lon="4.77848">
        <ele>232.8</ele>
        <time>2025-04-05T06:46:07Z</time>
      </trkpt>
      <trkpt lat="50.38022" lon="4.77843">
        <ele>233</ele>
        <time>2025-04-05T06:46:08Z</time>
      </trkpt>
      <trkpt lat="50.3802" lon="4.77838">
        <ele>233.2</ele>
        <time>2025-04-05T06:46:09Z</time>
      </trkpt>
      <trkpt lat="50.38019" lon="4.77833">
        <ele>233.4</ele>
        <time>2025-04-05T06:46:10Z</time>
      </trkpt>
      <trkpt lat="50.38018" lon="4.77828">
        <ele>233.6</ele>
        <time>2025-04-05T06:46:11Z</time>
      </trkpt>
      <trkpt lat="50.38017" lon="4.77823">
        <ele>233.8</ele>
        <time>2025-04-05T06:46:12Z</time>
      </trkpt>
      <trkpt lat="50.38016" lon="4.77818">
        <ele>234</ele>
        <time>2025-04-05T06:46:13Z</time>
      </trkpt>
      <trkpt lat="50.38015" lon="4.77813">
        <ele>234</ele>
        <time>2025-04-05T06:46:14Z</time>
      </trkpt>
      <trkpt lat="50.38013" lon="4.77809">
        <ele>234.2</ele>
        <time>2025-04-05T06:46:15Z</time>
      </trkpt>
      <trkpt lat="50.38012" lon="4.77804">
        <ele>234.4</ele>
        <time>2025-04-05T06:46:16Z</time>
      </trkpt>
      <trkpt lat="50.3801" lon="4.77799">
        <ele>234.6</ele>
        <time>2025-04-05T06:46:17Z</time>
      </trkpt>
      <trkpt lat="50.38009" lon="4.77794">
        <ele>234.8</ele>
        <time>2025-04-05T06:46:18Z</time>
      </trkpt>
      <trkpt lat="50.38008" lon="4.77789">
        <ele>234.8</ele>
        <time>2025-04-05T06:46:19Z</time>
      </trkpt>
      <trkpt lat="50.38006" lon="4.77784">
        <ele>235</ele>
        <time>2025-04-05T06:46:20Z</time>
      </trkpt>
      <trkpt lat="50.38005" lon="4.77779">
        <ele>235.2</ele>
        <time>2025-04-05T06:46:21Z</time>
      </trkpt>
      <trkpt lat="50.38003" lon="4.77774">
        <ele>235.4</ele>
        <time>2025-04-05T06:46:22Z</time>
      </trkpt>
      <trkpt lat="50.38002" lon="4.77769">
        <ele>235.4</ele>
        <time>2025-04-05T06:46:23Z</time>
      </trkpt>
      <trkpt lat="50.38001" lon="4.77764">
        <ele>235.6</ele>
        <time>2025-04-05T06:46:24Z</time>
      </trkpt>
      <trkpt lat="50.37999" lon="4.77759">
        <ele>235.8</ele>
        <time>2025-04-05T06:46:25Z</time>
      </trkpt>
      <trkpt lat="50.37998" lon="4.77754">
        <ele>236</ele>
        <time>2025-04-05T06:46:26Z</time>
      </trkpt>
      <trkpt lat="50.37997" lon="4.7775">
        <ele>236.2</ele>
        <time>2025-04-05T06:46:27Z</time>
      </trkpt>
      <trkpt lat="50.37996" lon="4.77745">
        <ele>236.4</ele>
        <time>2025-04-05T06:46:28Z</time>
      </trkpt>
      <trkpt lat="50.37994" lon="4.7774">
        <ele>236.6</ele>
        <time>2025-04-05T06:46:29Z</time>
      </trkpt>
      <trkpt lat="50.37993" lon="4.77735">
        <ele>236.8</ele>
        <time>2025-04-05T06:46:30Z</time>
      </trkpt>
      <trkpt lat="50.37992" lon="4.77731">
        <ele>237</ele>
        <time>2025-04-05T06:46:31Z</time>
      </trkpt>
      <trkpt lat="50.37991" lon="4.77725">
        <ele>237.2</ele>
        <time>2025-04-05T06:46:32Z</time>
      </trkpt>
      <trkpt lat="50.3799" lon="4.7772">
        <ele>237.4</ele>
        <time>2025-04-05T06:46:33Z</time>
      </trkpt>
      <trkpt lat="50.37989" lon="4.77715">
        <ele>237.4</ele>
        <time>2025-04-05T06:46:34Z</time>
      </trkpt>
      <trkpt lat="50.37989" lon="4.7771">
        <ele>237.6</ele>
        <time>2025-04-05T06:46:35Z</time>
      </trkpt>
      <trkpt lat="50.37988" lon="4.77705">
        <ele>237.8</ele>
        <time>2025-04-05T06:46:36Z</time>
      </trkpt>
      <trkpt lat="50.37988" lon="4.77701">
        <ele>238</ele>
        <time>2025-04-05T06:46:37Z</time>
      </trkpt>
      <trkpt lat="50.37988" lon="4.77696">
        <ele>238.2</ele>
        <time>2025-04-05T06:46:38Z</time>
      </trkpt>
      <trkpt lat="50.37988" lon="4.77691">
        <ele>238.4</ele>
        <time>2025-04-05T06:46:39Z</time>
      </trkpt>
      <trkpt lat="50.37987" lon="4.77686">
        <ele>238.6</ele>
        <time>2025-04-05T06:46:40Z</time>
      </trkpt>
      <trkpt lat="50.37985" lon="4.77681">
        <ele>238.8</ele>
        <time>2025-04-05T06:46:41Z</time>
      </trkpt>
      <trkpt lat="50.37985" lon="4.77676">
        <ele>239</ele>
        <time>2025-04-05T06:46:42Z</time>
      </trkpt>
      <trkpt lat="50.37985" lon="4.77671">
        <ele>239.2</ele>
        <time>2025-04-05T06:46:43Z</time>
      </trkpt>
      <trkpt lat="50.37984" lon="4.77666">
        <ele>239.4</ele>
        <time>2025-04-05T06:46:44Z</time>
      </trkpt>
      <trkpt lat="50.37983" lon="4.77661">
        <ele>239.6</ele>
        <time>2025-04-05T06:46:45Z</time>
      </trkpt>
      <trkpt lat="50.37983" lon="4.77656">
        <ele>239.8</ele>
        <time>2025-04-05T06:46:46Z</time>
      </trkpt>
      <trkpt lat="50.37982" lon="4.77651">
        <ele>240.2</ele>
        <time>2025-04-05T06:46:47Z</time>
      </trkpt>
      <trkpt lat="50.37981" lon="4.77645">
        <ele>240.4</ele>
        <time>2025-04-05T06:46:48Z</time>
      </trkpt>
      <trkpt lat="50.3798" lon="4.7764">
        <ele>240.6</ele>
        <time>2025-04-05T06:46:49Z</time>
      </trkpt>
      <trkpt lat="50.3798" lon="4.77635">
        <ele>241</ele>
        <time>2025-04-05T06:46:50Z</time>
      </trkpt>
      <trkpt lat="50.37979" lon="4.77629">
        <ele>241</ele>
        <time>2025-04-05T06:46:51Z</time>
      </trkpt>
      <trkpt lat="50.37978" lon="4.77624">
        <ele>241.2</ele>
        <time>2025-04-05T06:46:52Z</time>
      </trkpt>
      <trkpt lat="50.37976" lon="4.77619">
        <ele>241.2</ele>
        <time>2025-04-05T06:46:53Z</time>
      </trkpt>
      <trkpt lat="50.37975" lon="4.77613">
        <ele>241.4</ele>
        <time>2025-04-05T06:46:54Z</time>
      </trkpt>
      <trkpt lat="50.37973" lon="4.77608">
        <ele>241.6</ele>
        <time>2025-04-05T06:46:55Z</time>
      </trkpt>
      <trkpt lat="50.37972" lon="4.77603">
        <ele>241.8</ele>
        <time>2025-04-05T06:46:56Z</time>
      </trkpt>
      <trkpt lat="50.37971" lon="4.77598">
        <ele>242.2</ele>
        <time>2025-04-05T06:46:57Z</time>
      </trkpt>
      <trkpt lat="50.37969" lon="4.77594">
        <ele>242.4</ele>
        <time>2025-04-05T06:46:58Z</time>
      </trkpt>
      <trkpt lat="50.37968" lon="4.77589">
        <ele>242.6</ele>
        <time>2025-04-05T06:46:59Z</time>
      </trkpt>
      <trkpt lat="50.37967" lon="4.77585">
        <ele>242.8</ele>
        <time>2025-04-05T06:47:00Z</time>
      </trkpt>
      <trkpt lat="50.37966" lon="4.7758">
        <ele>242.8</ele>
        <time>2025-04-05T06:47:01Z</time>
      </trkpt>
      <trkpt lat="50.37965" lon="4.77575">
        <ele>243</ele>
        <time>2025-04-05T06:47:02Z</time>
      </trkpt>
      <trkpt lat="50.37963" lon="4.7757">
        <ele>243.2</ele>
        <time>2025-04-05T06:47:03Z</time>
      </trkpt>
      <trkpt lat="50.37962" lon="4.77566">
        <ele>243.4</ele>
        <time>2025-04-05T06:47:04Z</time>
      </trkpt>
      <trkpt lat="50.37962" lon="4.77563">
        <ele>243.6</ele>
        <time>2025-04-05T06:47:05Z</time>
      </trkpt>
      <trkpt lat="50.3796" lon="4.77559">
        <ele>243.8</ele>
        <time>2025-04-05T06:47:06Z</time>
      </trkpt>
      <trkpt lat="50.37959" lon="4.77556">
        <ele>244</ele>
        <time>2025-04-05T06:47:07Z</time>
      </trkpt>
      <trkpt lat="50.37957" lon="4.77553">
        <ele>244.2</ele>
        <time>2025-04-05T06:47:08Z</time>
      </trkpt>
      <trkpt lat="50.37956" lon="4.77549">
        <ele>244.4</ele>
        <time>2025-04-05T06:47:09Z</time>
      </trkpt>
      <trkpt lat="50.37954" lon="4.77545">
        <ele>244.6</ele>
        <time>2025-04-05T06:47:10Z</time>
      </trkpt>
      <trkpt lat="50.37952" lon="4.77541">
        <ele>244.8</ele>
        <time>2025-04-05T06:47:11Z</time>
      </trkpt>
      <trkpt lat="50.37949" lon="4.77537">
        <ele>245</ele>
        <time>2025-04-05T06:47:12Z</time>
      </trkpt>
      <trkpt lat="50.37948" lon="4.77534">
        <ele>245.2</ele>
        <time>2025-04-05T06:47:13Z</time>
      </trkpt>
      <trkpt lat="50.37946" lon="4.77531">
        <ele>245.4</ele>
        <time>2025-04-05T06:47:14Z</time>
      </trkpt>
      <trkpt lat="50.37944" lon="4.77527">
        <ele>245.4</ele>
        <time>2025-04-05T06:47:15Z</time>
      </trkpt>
      <trkpt lat="50.37941" lon="4.77523">
        <ele>245.6</ele>
        <time>2025-04-05T06:47:16Z</time>
      </trkpt>
      <trkpt lat="50.37938" lon="4.77519">
        <ele>245.8</ele>
        <time>2025-04-05T06:47:17Z</time>
      </trkpt>
      <trkpt lat="50.37936" lon="4.77515">
        <ele>246</ele>
        <time>2025-04-05T06:47:18Z</time>
      </trkpt>
      <trkpt lat="50.37933" lon="4.77511">
        <ele>246.2</ele>
        <time>2025-04-05T06:47:19Z</time>
      </trkpt>
      <trkpt lat="50.3793" lon="4.77508">
        <ele>246.2</ele>
        <time>2025-04-05T06:47:20Z</time>
      </trkpt>
      <trkpt lat="50.37927" lon="4.77505">
        <ele>246.4</ele>
        <time>2025-04-05T06:47:21Z</time>
      </trkpt>
      <trkpt lat="50.37924" lon="4.77503">
        <ele>246.6</ele>
        <time>2025-04-05T06:47:22Z</time>
      </trkpt>
      <trkpt lat="50.37921" lon="4.77502">
        <ele>246.8</ele>
        <time>2025-04-05T06:47:23Z</time>
      </trkpt>
      <trkpt lat="50.37918" lon="4.775">
        <ele>247</ele>
        <time>2025-04-05T06:47:24Z</time>
      </trkpt>
      <trkpt lat="50.37915" lon="4.77498">
        <ele>247.2</ele>
        <time>2025-04-05T06:47:25Z</time>
      </trkpt>
      <trkpt lat="50.37912" lon="4.77496">
        <ele>247.4</ele>
        <time>2025-04-05T06:47:26Z</time>
      </trkpt>
      <trkpt lat="50.37909" lon="4.77495">
        <ele>247.6</ele>
        <time>2025-04-05T06:47:27Z</time>
      </trkpt>
      <trkpt lat="50.37906" lon="4.77494">
        <ele>247.8</ele>
        <time>2025-04-05T06:47:28Z</time>
      </trkpt>
      <trkpt lat="50.37903" lon="4.77494">
        <ele>247.8</ele>
        <time>2025-04-05T06:47:29Z</time>
      </trkpt>
      <trkpt lat="50.379" lon="4.77494">
        <ele>248</ele>
        <time>2025-04-05T06:47:30Z</time>
      </trkpt>
      <trkpt lat="50.37897" lon="4.77494">
        <ele>248.2</ele>
        <time>2025-04-05T06:47:31Z</time>
      </trkpt>
      <trkpt lat="50.37894" lon="4.77494">
        <ele>248.4</ele>
        <time>2025-04-05T06:47:32Z</time>
      </trkpt>
      <trkpt lat="50.37891" lon="4.77495">
        <ele>248.6</ele>
        <time>2025-04-05T06:47:33Z</time>
      </trkpt>
      <trkpt lat="50.37886" lon="4.77496">
        <ele>248.6</ele>
        <time>2025-04-05T06:47:34Z</time>
      </trkpt>
      <trkpt lat="50.37882" lon="4.77497">
        <ele>249</ele>
        <time>2025-04-05T06:47:35Z</time>
      </trkpt>
      <trkpt lat="50.37879" lon="4.77499">
        <ele>249</ele>
        <time>2025-04-05T06:47:36Z</time>
      </trkpt>
      <trkpt lat="50.37875" lon="4.77501">
        <ele>249.2</ele>
        <time>2025-04-05T06:47:37Z</time>
      </trkpt>
      <trkpt lat="50.37873" lon="4.77504">
        <ele>249.4</ele>
        <time>2025-04-05T06:47:38Z</time>
      </trkpt>
      <trkpt lat="50.3787" lon="4.77507">
        <ele>249.4</ele>
        <time>2025-04-05T06:47:39Z</time>
      </trkpt>
      <trkpt lat="50.37867" lon="4.7751">
        <ele>249.6</ele>
        <time>2025-04-05T06:47:40Z</time>
      </trkpt>
      <trkpt lat="50.37865" lon="4.77513">
        <ele>249.8</ele>
        <time>2025-04-05T06:47:41Z</time>
      </trkpt>
      <trkpt lat="50.37862" lon="4.77516">
        <ele>250</ele>
        <time>2025-04-05T06:47:42Z</time>
      </trkpt>
      <trkpt lat="50.37859" lon="4.77518">
        <ele>250.2</ele>
        <time>2025-04-05T06:47:43Z</time>
      </trkpt>
      <trkpt lat="50.37856" lon="4.77521">
        <ele>250.2</ele>
        <time>2025-04-05T06:47:44Z</time>
      </trkpt>
      <trkpt lat="50.37853" lon="4.77524">
        <ele>250.4</ele>
        <time>2025-04-05T06:47:45Z</time>
      </trkpt>
      <trkpt lat="50.37851" lon="4.77527">
        <ele>250.6</ele>
        <time>2025-04-05T06:47:46Z</time>
      </trkpt>
      <trkpt lat="50.37848" lon="4.7753">
        <ele>250.8</ele>
        <time>2025-04-05T06:47:47Z</time>
      </trkpt>
      <trkpt lat="50.37845" lon="4.77533">
        <ele>251</ele>
        <time>2025-04-05T06:47:48Z</time>
      </trkpt>
      <trkpt lat="50.37842" lon="4.77536">
        <ele>251.2</ele>
        <time>2025-04-05T06:47:49Z</time>
      </trkpt>
      <trkpt lat="50.37839" lon="4.77539">
        <ele>251.4</ele>
        <time>2025-04-05T06:47:50Z</time>
      </trkpt>
      <trkpt lat="50.37837" lon="4.77542">
        <ele>251.6</ele>
        <time>2025-04-05T06:47:51Z</time>
      </trkpt>
      <trkpt lat="50.37834" lon="4.77545">
        <ele>251.8</ele>
        <time>2025-04-05T06:47:52Z</time>
      </trkpt>
      <trkpt lat="50.37832" lon="4.77548">
        <ele>252</ele>
        <time>2025-04-05T06:47:53Z</time>
      </trkpt>
      <trkpt lat="50.37829" lon="4.77551">
        <ele>252</ele>
        <time>2025-04-05T06:47:54Z</time>
      </trkpt>
      <trkpt lat="50.37827" lon="4.77553">
        <ele>252.2</ele>
        <time>2025-04-05T06:47:55Z</time>
      </trkpt>
      <trkpt lat="50.37824" lon="4.77556">
        <ele>252.4</ele>
        <time>2025-04-05T06:47:56Z</time>
      </trkpt>
      <trkpt lat="50.37821" lon="4.77559">
        <ele>252.4</ele>
        <time>2025-04-05T06:47:57Z</time>
      </trkpt>
      <trkpt lat="50.37818" lon="4.77561">
        <ele>252.6</ele>
        <time>2025-04-05T06:47:58Z</time>
      </trkpt>
      <trkpt lat="50.37815" lon="4.77564">
        <ele>252.6</ele>
        <time>2025-04-05T06:47:59Z</time>
      </trkpt>
      <trkpt lat="50.37812" lon="4.77567">
        <ele>252.8</ele>
        <time>2025-04-05T06:48:00Z</time>
      </trkpt>
      <trkpt lat="50.37809" lon="4.7757">
        <ele>252.8</ele>
        <time>2025-04-05T06:48:01Z</time>
      </trkpt>
      <trkpt lat="50.37806" lon="4.77574">
        <ele>253</ele>
        <time>2025-04-05T06:48:02Z</time>
      </trkpt>
      <trkpt lat="50.37803" lon="4.77577">
        <ele>253</ele>
        <time>2025-04-05T06:48:03Z</time>
      </trkpt>
      <trkpt lat="50.378" lon="4.7758">
        <ele>253</ele>
        <time>2025-04-05T06:48:04Z</time>
      </trkpt>
      <trkpt lat="50.37796" lon="4.77584">
        <ele>253</ele>
        <time>2025-04-05T06:48:05Z</time>
      </trkpt>
      <trkpt lat="50.37793" lon="4.77587">
        <ele>253.2</ele>
        <time>2025-04-05T06:48:06Z</time>
      </trkpt>
      <trkpt lat="50.3779" lon="4.77591">
        <ele>253.2</ele>
        <time>2025-04-05T06:48:07Z</time>
      </trkpt>
      <trkpt lat="50.37787" lon="4.77595">
        <ele>253.2</ele>
        <time>2025-04-05T06:48:08Z</time>
      </trkpt>
      <trkpt lat="50.37785" lon="4.77599">
        <ele>253.2</ele>
        <time>2025-04-05T06:48:09Z</time>
      </trkpt>
      <trkpt lat="50.37782" lon="4.77604">
        <ele>253.2</ele>
        <time>2025-04-05T06:48:10Z</time>
      </trkpt>
      <trkpt lat="50.37779" lon="4.77609">
        <ele>253.2</ele>
        <time>2025-04-05T06:48:11Z</time>
      </trkpt>
      <trkpt lat="50.37775" lon="4.77614">
        <ele>253.4</ele>
        <time>2025-04-05T06:48:12Z</time>
      </trkpt>
      <trkpt lat="50.37773" lon="4.77619">
        <ele>253.4</ele>
        <time>2025-04-05T06:48:13Z</time>
      </trkpt>
      <trkpt lat="50.3777" lon="4.77624">
        <ele>253.4</ele>
        <time>2025-04-05T06:48:14Z</time>
      </trkpt>
      <trkpt lat="50.37767" lon="4.77629">
        <ele>253.2</ele>
        <time>2025-04-05T06:48:15Z</time>
      </trkpt>
      <trkpt lat="50.37765" lon="4.77634">
        <ele>253.2</ele>
        <time>2025-04-05T06:48:16Z</time>
      </trkpt>
      <trkpt lat="50.37762" lon="4.77639">
        <ele>253.2</ele>
        <time>2025-04-05T06:48:17Z</time>
      </trkpt>
      <trkpt lat="50.3776" lon="4.77645">
        <ele>253</ele>
        <time>2025-04-05T06:48:18Z</time>
      </trkpt>
      <trkpt lat="50.37758" lon="4.7765">
        <ele>253</ele>
        <time>2025-04-05T06:48:19Z</time>
      </trkpt>
      <trkpt lat="50.37755" lon="4.77655">
        <ele>253</ele>
        <time>2025-04-05T06:48:20Z</time>
      </trkpt>
      <trkpt lat="50.37753" lon="4.77661">
        <ele>253</ele>
        <time>2025-04-05T06:48:21Z</time>
      </trkpt>
      <trkpt lat="50.3775" lon="4.77666">
        <ele>252.8</ele>
        <time>2025-04-05T06:48:22Z</time>
      </trkpt>
      <trkpt lat="50.37748" lon="4.77671">
        <ele>252.8</ele>
        <time>2025-04-05T06:48:23Z</time>
      </trkpt>
      <trkpt lat="50.37745" lon="4.77677">
        <ele>252.6</ele>
        <time>2025-04-05T06:48:24Z</time>
      </trkpt>
      <trkpt lat="50.37742" lon="4.77682">
        <ele>252.6</ele>
        <time>2025-04-05T06:48:25Z</time>
      </trkpt>
      <trkpt lat="50.37739" lon="4.77688">
        <ele>252.4</ele>
        <time>2025-04-05T06:48:26Z</time>
      </trkpt>
      <trkpt lat="50.37736" lon="4.77693">
        <ele>252.4</ele>
        <time>2025-04-05T06:48:27Z</time>
      </trkpt>
      <trkpt lat="50.37732" lon="4.777">
        <ele>252.2</ele>
        <time>2025-04-05T06:48:28Z</time>
      </trkpt>
      <trkpt lat="50.3773" lon="4.77706">
        <ele>252.2</ele>
        <time>2025-04-05T06:48:29Z</time>
      </trkpt>
      <trkpt lat="50.37727" lon="4.77712">
        <ele>252.2</ele>
        <time>2025-04-05T06:48:30Z</time>
      </trkpt>
      <trkpt lat="50.37724" lon="4.77717">
        <ele>252</ele>
        <time>2025-04-05T06:48:31Z</time>
      </trkpt>
      <trkpt lat="50.37721" lon="4.77722">
        <ele>252</ele>
        <time>2025-04-05T06:48:32Z</time>
      </trkpt>
      <trkpt lat="50.37717" lon="4.77729">
        <ele>251.8</ele>
        <time>2025-04-05T06:48:33Z</time>
      </trkpt>
      <trkpt lat="50.37714" lon="4.77734">
        <ele>251.6</ele>
        <time>2025-04-05T06:48:34Z</time>
      </trkpt>
      <trkpt lat="50.37711" lon="4.7774">
        <ele>251.4</ele>
        <time>2025-04-05T06:48:35Z</time>
      </trkpt>
      <trkpt lat="50.37708" lon="4.77746">
        <ele>251</ele>
        <time>2025-04-05T06:48:36Z</time>
      </trkpt>
      <trkpt lat="50.37705" lon="4.77753">
        <ele>250.6</ele>
        <time>2025-04-05T06:48:37Z</time>
      </trkpt>
      <trkpt lat="50.37701" lon="4.7776">
        <ele>250.4</ele>
        <time>2025-04-05T06:48:38Z</time>
      </trkpt>
      <trkpt lat="50.37698" lon="4.77767">
        <ele>250</ele>
        <time>2025-04-05T06:48:39Z</time>
      </trkpt>
      <trkpt lat="50.37694" lon="4.77774">
        <ele>250</ele>
        <time>2025-04-05T06:48:40Z</time>
      </trkpt>
      <trkpt lat="50.37691" lon="4.7778">
        <ele>249.8</ele>
        <time>2025-04-05T06:48:41Z</time>
      </trkpt>
      <trkpt lat="50.37688" lon="4.77786">
        <ele>249.4</ele>
        <time>2025-04-05T06:48:42Z</time>
      </trkpt>
      <trkpt lat="50.37685" lon="4.77793">
        <ele>249.2</ele>
        <time>2025-04-05T06:48:43Z</time>
      </trkpt>
      <trkpt lat="50.37681" lon="4.77799">
        <ele>249</ele>
        <time>2025-04-05T06:48:44Z</time>
      </trkpt>
      <trkpt lat="50.37677" lon="4.77804">
        <ele>248.8</ele>
        <time>2025-04-05T06:48:45Z</time>
      </trkpt>
      <trkpt lat="50.37673" lon="4.77809">
        <ele>248.4</ele>
        <time>2025-04-05T06:48:46Z</time>
      </trkpt>
      <trkpt lat="50.37669" lon="4.77813">
        <ele>248.2</ele>
        <time>2025-04-05T06:48:47Z</time>
      </trkpt>
      <trkpt lat="50.37664" lon="4.77816">
        <ele>248</ele>
        <time>2025-04-05T06:48:48Z</time>
      </trkpt>
      <trkpt lat="50.37658" lon="4.77819">
        <ele>247.8</ele>
        <time>2025-04-05T06:48:49Z</time>
      </trkpt>
      <trkpt lat="50.37651" lon="4.77819">
        <ele>247.6</ele>
        <time>2025-04-05T06:48:50Z</time>
      </trkpt>
      <trkpt lat="50.37645" lon="4.77817">
        <ele>247.4</ele>
        <time>2025-04-05T06:48:51Z</time>
      </trkpt>
      <trkpt lat="50.37639" lon="4.77814">
        <ele>247.2</ele>
        <time>2025-04-05T06:48:52Z</time>
      </trkpt>
      <trkpt lat="50.37634" lon="4.77811">
        <ele>247</ele>
        <time>2025-04-05T06:48:53Z</time>
      </trkpt>
      <trkpt lat="50.37628" lon="4.77806">
        <ele>246.8</ele>
        <time>2025-04-05T06:48:54Z</time>
      </trkpt>
      <trkpt lat="50.37623" lon="4.778">
        <ele>246.6</ele>
        <time>2025-04-05T06:48:55Z</time>
      </trkpt>
      <trkpt lat="50.37618" lon="4.77793">
        <ele>246.2</ele>
        <time>2025-04-05T06:48:56Z</time>
      </trkpt>
      <trkpt lat="50.37613" lon="4.77786">
        <ele>246</ele>
        <time>2025-04-05T06:48:57Z</time>
      </trkpt>
      <trkpt lat="50.37608" lon="4.77777">
        <ele>245.8</ele>
        <time>2025-04-05T06:48:58Z</time>
      </trkpt>
      <trkpt lat="50.37602" lon="4.77769">
        <ele>245.4</ele>
        <time>2025-04-05T06:48:59Z</time>
      </trkpt>
      <trkpt lat="50.37595" lon="4.77762">
        <ele>245</ele>
        <time>2025-04-05T06:49:00Z</time>
      </trkpt>
      <trkpt lat="50.37589" lon="4.77753">
        <ele>244.6</ele>
        <time>2025-04-05T06:49:01Z</time>
      </trkpt>
      <trkpt lat="50.37583" lon="4.77743">
        <ele>244.2</ele>
        <time>2025-04-05T06:49:02Z</time>
      </trkpt>
      <trkpt lat="50.37576" lon="4.77733">
        <ele>243.8</ele>
        <time>2025-04-05T06:49:03Z</time>
      </trkpt>
      <trkpt lat="50.3757" lon="4.77724">
        <ele>243.2</ele>
        <time>2025-04-05T06:49:04Z</time>
      </trkpt>
      <trkpt lat="50.37564" lon="4.77715">
        <ele>242.8</ele>
        <time>2025-04-05T06:49:05Z</time>
      </trkpt>
      <trkpt lat="50.37558" lon="4.77705">
        <ele>242.4</ele>
        <time>2025-04-05T06:49:06Z</time>
      </trkpt>
      <trkpt lat="50.37552" lon="4.77695">
        <ele>242</ele>
        <time>2025-04-05T06:49:07Z</time>
      </trkpt>
      <trkpt lat="50.37546" lon="4.77685">
        <ele>241.6</ele>
        <time>2025-04-05T06:49:08Z</time>
      </trkpt>
      <trkpt lat="50.3754" lon="4.77676">
        <ele>241.2</ele>
        <time>2025-04-05T06:49:09Z</time>
      </trkpt>
      <trkpt lat="50.37535" lon="4.77663">
        <ele>240.8</ele>
        <time>2025-04-05T06:49:10Z</time>
      </trkpt>
      <trkpt lat="50.37529" lon="4.77651">
        <ele>240.4</ele>
        <time>2025-04-05T06:49:11Z</time>
      </trkpt>
      <trkpt lat="50.37524" lon="4.77639">
        <ele>240</ele>
        <time>2025-04-05T06:49:12Z</time>
      </trkpt>
      <trkpt lat="50.37519" lon="4.77627">
        <ele>239.6</ele>
        <time>2025-04-05T06:49:13Z</time>
      </trkpt>
      <trkpt lat="50.37514" lon="4.77616">
        <ele>239.4</ele>
        <time>2025-04-05T06:49:14Z</time>
      </trkpt>
      <trkpt lat="50.37509" lon="4.77605">
        <ele>238.8</ele>
        <time>2025-04-05T06:49:15Z</time>
      </trkpt>
      <trkpt lat="50.37503" lon="4.77594">
        <ele>238.4</ele>
        <time>2025-04-05T06:49:16Z</time>
      </trkpt>
      <trkpt lat="50.37498" lon="4.77582">
        <ele>238</ele>
        <time>2025-04-05T06:49:17Z</time>
      </trkpt>
      <trkpt lat="50.37493" lon="4.77571">
        <ele>237.6</ele>
        <time>2025-04-05T06:49:18Z</time>
      </trkpt>
      <trkpt lat="50.37488" lon="4.7756">
        <ele>237.2</ele>
        <time>2025-04-05T06:49:19Z</time>
      </trkpt>
      <trkpt lat="50.37483" lon="4.77549">
        <ele>237</ele>
        <time>2025-04-05T06:49:20Z</time>
      </trkpt>
      <trkpt lat="50.37478" lon="4.77539">
        <ele>236.6</ele>
        <time>2025-04-05T06:49:21Z</time>
      </trkpt>
      <trkpt lat="50.37473" lon="4.77527">
        <ele>236.2</ele>
        <time>2025-04-05T06:49:22Z</time>
      </trkpt>
      <trkpt lat="50.37468" lon="4.77516">
        <ele>235.8</ele>
        <time>2025-04-05T06:49:23Z</time>
      </trkpt>
      <trkpt lat="50.37464" lon="4.77505">
        <ele>235.4</ele>
        <time>2025-04-05T06:49:24Z</time>
      </trkpt>
      <trkpt lat="50.37459" lon="4.77494">
        <ele>235</ele>
        <time>2025-04-05T06:49:25Z</time>
      </trkpt>
      <trkpt lat="50.37454" lon="4.77483">
        <ele>234.6</ele>
        <time>2025-04-05T06:49:26Z</time>
      </trkpt>
      <trkpt lat="50.37449" lon="4.77471">
        <ele>234.4</ele>
        <time>2025-04-05T06:49:27Z</time>
      </trkpt>
      <trkpt lat="50.37444" lon="4.7746">
        <ele>234</ele>
        <time>2025-04-05T06:49:28Z</time>
      </trkpt>
      <trkpt lat="50.3744" lon="4.7745">
        <ele>233.8</ele>
        <time>2025-04-05T06:49:29Z</time>
      </trkpt>
      <trkpt lat="50.37436" lon="4.77441">
        <ele>233.6</ele>
        <time>2025-04-05T06:49:30Z</time>
      </trkpt>
      <trkpt lat="50.37432" lon="4.77434">
        <ele>233.4</ele>
        <time>2025-04-05T06:49:31Z</time>
      </trkpt>
      <trkpt lat="50.37429" lon="4.77427">
        <ele>233.2</ele>
        <time>2025-04-05T06:49:32Z</time>
      </trkpt>
      <trkpt lat="50.37426" lon="4.77421">
        <ele>233</ele>
        <time>2025-04-05T06:49:33Z</time>
      </trkpt>
      <trkpt lat="50.37423" lon="4.77417">
        <ele>232.8</ele>
        <time>2025-04-05T06:49:34Z</time>
      </trkpt>
      <trkpt lat="50.37421" lon="4.77414">
        <ele>232.8</ele>
        <time>2025-04-05T06:49:35Z</time>
      </trkpt>
      <trkpt lat="50.37418" lon="4.77412">
        <ele>232.6</ele>
        <time>2025-04-05T06:49:36Z</time>
      </trkpt>
      <trkpt lat="50.37416" lon="4.7741">
        <ele>232.4</ele>
        <time>2025-04-05T06:49:37Z</time>
      </trkpt>
      <trkpt lat="50.37413" lon="4.77411">
        <ele>232.4</ele>
        <time>2025-04-05T06:49:38Z</time>
      </trkpt>
      <trkpt lat="50.37411" lon="4.77414">
        <ele>232.2</ele>
        <time>2025-04-05T06:49:39Z</time>
      </trkpt>
      <trkpt lat="50.37408" lon="4.77419">
        <ele>232</ele>
        <time>2025-04-05T06:49:40Z</time>
      </trkpt>
      <trkpt lat="50.37406" lon="4.77424">
        <ele>231.8</ele>
        <time>2025-04-05T06:49:41Z</time>
      </trkpt>
      <trkpt lat="50.37404" lon="4.77431">
        <ele>231.6</ele>
        <time>2025-04-05T06:49:42Z</time>
      </trkpt>
      <trkpt lat="50.37402" lon="4.77437">
        <ele>231.4</ele>
        <time>2025-04-05T06:49:43Z</time>
      </trkpt>
      <trkpt lat="50.374" lon="4.77443">
        <ele>231.2</ele>
        <time>2025-04-05T06:49:44Z</time>
      </trkpt>
      <trkpt lat="50.37397" lon="4.7745">
        <ele>231.2</ele>
        <time>2025-04-05T06:49:45Z</time>
      </trkpt>
      <trkpt lat="50.37396" lon="4.77457">
        <ele>231</ele>
        <time>2025-04-05T06:49:46Z</time>
      </trkpt>
      <trkpt lat="50.37393" lon="4.77464">
        <ele>230.8</ele>
        <time>2025-04-05T06:49:47Z</time>
      </trkpt>
      <trkpt lat="50.37391" lon="4.77471">
        <ele>230.6</ele>
        <time>2025-04-05T06:49:48Z</time>
      </trkpt>
      <trkpt lat="50.37389" lon="4.77479">
        <ele>230.6</ele>
        <time>2025-04-05T06:49:49Z</time>
      </trkpt>
      <trkpt lat="50.37387" lon="4.77486">
        <ele>230.4</ele>
        <time>2025-04-05T06:49:50Z</time>
      </trkpt>
      <trkpt lat="50.37385" lon="4.77493">
        <ele>230.2</ele>
        <time>2025-04-05T06:49:51Z</time>
      </trkpt>
      <trkpt lat="50.37383" lon="4.775">
        <ele>230</ele>
        <time>2025-04-05T06:49:52Z</time>
      </trkpt>
      <trkpt lat="50.3738" lon="4.77508">
        <ele>229.8</ele>
        <time>2025-04-05T06:49:53Z</time>
      </trkpt>
      <trkpt lat="50.37378" lon="4.77516">
        <ele>229.8</ele>
        <time>2025-04-05T06:49:54Z</time>
      </trkpt>
      <trkpt lat="50.37376" lon="4.77523">
        <ele>229.6</ele>
        <time>2025-04-05T06:49:55Z</time>
      </trkpt>
      <trkpt lat="50.37374" lon="4.77531">
        <ele>229.4</ele>
        <time>2025-04-05T06:49:56Z</time>
      </trkpt>
      <trkpt lat="50.37371" lon="4.77538">
        <ele>229.4</ele>
        <time>2025-04-05T06:49:57Z</time>
      </trkpt>
      <trkpt lat="50.37369" lon="4.77547">
        <ele>229.2</ele>
        <time>2025-04-05T06:49:58Z</time>
      </trkpt>
      <trkpt lat="50.37367" lon="4.77555">
        <ele>229</ele>
        <time>2025-04-05T06:49:59Z</time>
      </trkpt>
      <trkpt lat="50.37365" lon="4.77563">
        <ele>229</ele>
        <time>2025-04-05T06:50:00Z</time>
      </trkpt>
      <trkpt lat="50.37363" lon="4.7757">
        <ele>228.8</ele>
        <time>2025-04-05T06:50:01Z</time>
      </trkpt>
      <trkpt lat="50.37362" lon="4.77578">
        <ele>228.6</ele>
        <time>2025-04-05T06:50:02Z</time>
      </trkpt>
      <trkpt lat="50.3736" lon="4.77586">
        <ele>228.6</ele>
        <time>2025-04-05T06:50:03Z</time>
      </trkpt>
      <trkpt lat="50.37358" lon="4.77594">
        <ele>228.4</ele>
        <time>2025-04-05T06:50:04Z</time>
      </trkpt>
      <trkpt lat="50.37356" lon="4.77602">
        <ele>228.2</ele>
        <time>2025-04-05T06:50:05Z</time>
      </trkpt>
      <trkpt lat="50.37355" lon="4.77611">
        <ele>228.2</ele>
        <time>2025-04-05T06:50:06Z</time>
      </trkpt>
      <trkpt lat="50.37355" lon="4.7762">
        <ele>228</ele>
        <time>2025-04-05T06:50:07Z</time>
      </trkpt>
      <trkpt lat="50.37353" lon="4.77628">
        <ele>228</ele>
        <time>2025-04-05T06:50:08Z</time>
      </trkpt>
      <trkpt lat="50.37352" lon="4.77636">
        <ele>227.8</ele>
        <time>2025-04-05T06:50:09Z</time>
      </trkpt>
      <trkpt lat="50.37352" lon="4.77645">
        <ele>227.8</ele>
        <time>2025-04-05T06:50:10Z</time>
      </trkpt>
      <trkpt lat="50.37352" lon="4.77653">
        <ele>227.8</ele>
        <time>2025-04-05T06:50:11Z</time>
      </trkpt>
      <trkpt lat="50.37352" lon="4.77661">
        <ele>227.6</ele>
        <time>2025-04-05T06:50:12Z</time>
      </trkpt>
      <trkpt lat="50.37351" lon="4.77669">
        <ele>227.6</ele>
        <time>2025-04-05T06:50:13Z</time>
      </trkpt>
      <trkpt lat="50.37351" lon="4.77676">
        <ele>227.6</ele>
        <time>2025-04-05T06:50:14Z</time>
      </trkpt>
      <trkpt lat="50.37351" lon="4.77683">
        <ele>227.6</ele>
        <time>2025-04-05T06:50:15Z</time>
      </trkpt>
      <trkpt lat="50.37351" lon="4.77691">
        <ele>227.4</ele>
        <time>2025-04-05T06:50:16Z</time>
      </trkpt>
      <trkpt lat="50.37351" lon="4.777">
        <ele>227.4</ele>
        <time>2025-04-05T06:50:17Z</time>
      </trkpt>
      <trkpt lat="50.37351" lon="4.77706">
        <ele>227.4</ele>
        <time>2025-04-05T06:50:18Z</time>
      </trkpt>
      <trkpt lat="50.37351" lon="4.77713">
        <ele>227.4</ele>
        <time>2025-04-05T06:50:19Z</time>
      </trkpt>
      <trkpt lat="50.37351" lon="4.77719">
        <ele>227.6</ele>
        <time>2025-04-05T06:50:20Z</time>
      </trkpt>
      <trkpt lat="50.37351" lon="4.77726">
        <ele>227.6</ele>
        <time>2025-04-05T06:50:21Z</time>
      </trkpt>
      <trkpt lat="50.37352" lon="4.77733">
        <ele>227.6</ele>
        <time>2025-04-05T06:50:22Z</time>
      </trkpt>
      <trkpt lat="50.37352" lon="4.7774">
        <ele>227.6</ele>
        <time>2025-04-05T06:50:23Z</time>
      </trkpt>
      <trkpt lat="50.37353" lon="4.77745">
        <ele>227.6</ele>
        <time>2025-04-05T06:50:24Z</time>
      </trkpt>
      <trkpt lat="50.37354" lon="4.7775">
        <ele>227.8</ele>
        <time>2025-04-05T06:50:25Z</time>
      </trkpt>
      <trkpt lat="50.37354" lon="4.77756">
        <ele>227.8</ele>
        <time>2025-04-05T06:50:26Z</time>
      </trkpt>
      <trkpt lat="50.37355" lon="4.77761">
        <ele>227.8</ele>
        <time>2025-04-05T06:50:27Z</time>
      </trkpt>
      <trkpt lat="50.37356" lon="4.77766">
        <ele>228</ele>
        <time>2025-04-05T06:50:28Z</time>
      </trkpt>
      <trkpt lat="50.37357" lon="4.77772">
        <ele>228</ele>
        <time>2025-04-05T06:50:29Z</time>
      </trkpt>
      <trkpt lat="50.37358" lon="4.77777">
        <ele>228.2</ele>
        <time>2025-04-05T06:50:30Z</time>
      </trkpt>
      <trkpt lat="50.37359" lon="4.77782">
        <ele>228.2</ele>
        <time>2025-04-05T06:50:31Z</time>
      </trkpt>
      <trkpt lat="50.3736" lon="4.77788">
        <ele>228.4</ele>
        <time>2025-04-05T06:50:32Z</time>
      </trkpt>
      <trkpt lat="50.3736" lon="4.77793">
        <ele>228.4</ele>
        <time>2025-04-05T06:50:33Z</time>
      </trkpt>
      <trkpt lat="50.37361" lon="4.77798">
        <ele>228.4</ele>
        <time>2025-04-05T06:50:34Z</time>
      </trkpt>
      <trkpt lat="50.37362" lon="4.77804">
        <ele>228.6</ele>
        <time>2025-04-05T06:50:35Z</time>
      </trkpt>
      <trkpt lat="50.37363" lon="4.77809">
        <ele>228.6</ele>
        <time>2025-04-05T06:50:36Z</time>
      </trkpt>
      <trkpt lat="50.37363" lon="4.77815">
        <ele>228.6</ele>
        <time>2025-04-05T06:50:37Z</time>
      </trkpt>
      <trkpt lat="50.37364" lon="4.77821">
        <ele>228.8</ele>
        <time>2025-04-05T06:50:38Z</time>
      </trkpt>
      <trkpt lat="50.37365" lon="4.77827">
        <ele>228.8</ele>
        <time>2025-04-05T06:50:39Z</time>
      </trkpt>
      <trkpt lat="50.37366" lon="4.77834">
        <ele>228.8</ele>
        <time>2025-04-05T06:50:40Z</time>
      </trkpt>
      <trkpt lat="50.37367" lon="4.7784">
        <ele>229</ele>
        <time>2025-04-05T06:50:41Z</time>
      </trkpt>
      <trkpt lat="50.37368" lon="4.77845">
        <ele>229</ele>
        <time>2025-04-05T06:50:42Z</time>
      </trkpt>
      <trkpt lat="50.37368" lon="4.77851">
        <ele>229.2</ele>
        <time>2025-04-05T06:50:43Z</time>
      </trkpt>
      <trkpt lat="50.3737" lon="4.77856">
        <ele>229.2</ele>
        <time>2025-04-05T06:50:44Z</time>
      </trkpt>
      <trkpt lat="50.37371" lon="4.77861">
        <ele>229.4</ele>
        <time>2025-04-05T06:50:45Z</time>
      </trkpt>
      <trkpt lat="50.37373" lon="4.77865">
        <ele>229.4</ele>
        <time>2025-04-05T06:50:46Z</time>
      </trkpt>
      <trkpt lat="50.37374" lon="4.7787">
        <ele>229.4</ele>
        <time>2025-04-05T06:50:47Z</time>
      </trkpt>
      <trkpt lat="50.37374" lon="4.77876">
        <ele>229.6</ele>
        <time>2025-04-05T06:50:48Z</time>
      </trkpt>
      <trkpt lat="50.37375" lon="4.77881">
        <ele>229.6</ele>
        <time>2025-04-05T06:50:49Z</time>
      </trkpt>
      <trkpt lat="50.37376" lon="4.77886">
        <ele>229.6</ele>
        <time>2025-04-05T06:50:50Z</time>
      </trkpt>
      <trkpt lat="50.37377" lon="4.77892">
        <ele>229.6</ele>
        <time>2025-04-05T06:50:51Z</time>
      </trkpt>
      <trkpt lat="50.37379" lon="4.77898">
        <ele>229.6</ele>
        <time>2025-04-05T06:50:52Z</time>
      </trkpt>
      <trkpt lat="50.3738" lon="4.77903">
        <ele>229.8</ele>
        <time>2025-04-05T06:50:53Z</time>
      </trkpt>
      <trkpt lat="50.37378" lon="4.77909">
        <ele>229.8</ele>
        <time>2025-04-05T06:50:54Z</time>
      </trkpt>
      <trkpt lat="50.37376" lon="4.77913">
        <ele>229.6</ele>
        <time>2025-04-05T06:50:55Z</time>
      </trkpt>
      <trkpt lat="50.37373" lon="4.77918">
        <ele>229.6</ele>
        <time>2025-04-05T06:50:56Z</time>
      </trkpt>
      <trkpt lat="50.3737" lon="4.77923">
        <ele>229.6</ele>
        <time>2025-04-05T06:50:57Z</time>
      </trkpt>
      <trkpt lat="50.37367" lon="4.77928">
        <ele>229.4</ele>
        <time>2025-04-05T06:50:58Z</time>
      </trkpt>
      <trkpt lat="50.37364" lon="4.77933">
        <ele>229.4</ele>
        <time>2025-04-05T06:50:59Z</time>
      </trkpt>
      <trkpt lat="50.37362" lon="4.77939">
        <ele>229.2</ele>
        <time>2025-04-05T06:51:00Z</time>
      </trkpt>
      <trkpt lat="50.3736" lon="4.77943">
        <ele>229.2</ele>
        <time>2025-04-05T06:51:01Z</time>
      </trkpt>
      <trkpt lat="50.3736" lon="4.77948">
        <ele>229.2</ele>
        <time>2025-04-05T06:51:02Z</time>
      </trkpt>
      <trkpt lat="50.37361" lon="4.77953">
        <ele>229.2</ele>
        <time>2025-04-05T06:51:03Z</time>
      </trkpt>
      <trkpt lat="50.37363" lon="4.77956">
        <ele>229.2</ele>
        <time>2025-04-05T06:51:04Z</time>
      </trkpt>
      <trkpt lat="50.37366" lon="4.77959">
        <ele>229.2</ele>
        <time>2025-04-05T06:51:05Z</time>
      </trkpt>
      <trkpt lat="50.3737" lon="4.77961">
        <ele>229.4</ele>
        <time>2025-04-05T06:51:06Z</time>
      </trkpt>
      <trkpt lat="50.37373" lon="4.77962">
        <ele>229.4</ele>
        <time>2025-04-05T06:51:07Z</time>
      </trkpt>
      <trkpt lat="50.37376" lon="4.77965">
        <ele>229.4</ele>
        <time>2025-04-05T06:51:08Z</time>
      </trkpt>
      <trkpt lat="50.37379" lon="4.77967">
        <ele>229.4</ele>
        <time>2025-04-05T06:51:09Z</time>
      </trkpt>
      <trkpt lat="50.37382" lon="4.77969">
        <ele>229.4</ele>
        <time>2025-04-05T06:51:10Z</time>
      </trkpt>
      <trkpt lat="50.37385" lon="4.77971">
        <ele>229.4</ele>
        <time>2025-04-05T06:51:11Z</time>
      </trkpt>
      <trkpt lat="50.37388" lon="4.77974">
        <ele>229.2</ele>
        <time>2025-04-05T06:51:12Z</time>
      </trkpt>
      <trkpt lat="50.3739" lon="4.77977">
        <ele>229</ele>
        <time>2025-04-05T06:51:13Z</time>
      </trkpt>
      <trkpt lat="50.37392" lon="4.7798">
        <ele>228.8</ele>
        <time>2025-04-05T06:51:14Z</time>
      </trkpt>
      <trkpt lat="50.37395" lon="4.77983">
        <ele>228.6</ele>
        <time>2025-04-05T06:51:15Z</time>
      </trkpt>
      <trkpt lat="50.37397" lon="4.77986">
        <ele>228.4</ele>
        <time>2025-04-05T06:51:16Z</time>
      </trkpt>
      <trkpt lat="50.374" lon="4.77989">
        <ele>228.2</ele>
        <time>2025-04-05T06:51:17Z</time>
      </trkpt>
      <trkpt lat="50.37404" lon="4.77993">
        <ele>228</ele>
        <time>2025-04-05T06:51:18Z</time>
      </trkpt>
      <trkpt lat="50.37407" lon="4.77996">
        <ele>227.8</ele>
        <time>2025-04-05T06:51:19Z</time>
      </trkpt>
      <trkpt lat="50.3741" lon="4.78">
        <ele>227.4</ele>
        <time>2025-04-05T06:51:20Z</time>
      </trkpt>
      <trkpt lat="50.37412" lon="4.78005">
        <ele>227.2</ele>
        <time>2025-04-05T06:51:21Z</time>
      </trkpt>
      <trkpt lat="50.37414" lon="4.7801">
        <ele>226.8</ele>
        <time>2025-04-05T06:51:22Z</time>
      </trkpt>
      <trkpt lat="50.37415" lon="4.78015">
        <ele>226.4</ele>
        <time>2025-04-05T06:51:23Z</time>
      </trkpt>
      <trkpt lat="50.37413" lon="4.78022">
        <ele>226</ele>
        <time>2025-04-05T06:51:24Z</time>
      </trkpt>
      <trkpt lat="50.37412" lon="4.78028">
        <ele>225.6</ele>
        <time>2025-04-05T06:51:25Z</time>
      </trkpt>
      <trkpt lat="50.37409" lon="4.78035">
        <ele>225</ele>
        <time>2025-04-05T06:51:26Z</time>
      </trkpt>
      <trkpt lat="50.37407" lon="4.78043">
        <ele>224.6</ele>
        <time>2025-04-05T06:51:27Z</time>
      </trkpt>
      <trkpt lat="50.37405" lon="4.7805">
        <ele>224.2</ele>
        <time>2025-04-05T06:51:28Z</time>
      </trkpt>
      <trkpt lat="50.37402" lon="4.78057">
        <ele>223.8</ele>
        <time>2025-04-05T06:51:29Z</time>
      </trkpt>
      <trkpt lat="50.37401" lon="4.78064">
        <ele>223.4</ele>
        <time>2025-04-05T06:51:30Z</time>
      </trkpt>
      <trkpt lat="50.37399" lon="4.78069">
        <ele>223</ele>
        <time>2025-04-05T06:51:31Z</time>
      </trkpt>
      <trkpt lat="50.37395" lon="4.78076">
        <ele>222.6</ele>
        <time>2025-04-05T06:51:32Z</time>
      </trkpt>
      <trkpt lat="50.37392" lon="4.78082">
        <ele>222.2</ele>
        <time>2025-04-05T06:51:33Z</time>
      </trkpt>
      <trkpt lat="50.37389" lon="4.78089">
        <ele>221.8</ele>
        <time>2025-04-05T06:51:34Z</time>
      </trkpt>
      <trkpt lat="50.37386" lon="4.78096">
        <ele>221.4</ele>
        <time>2025-04-05T06:51:35Z</time>
      </trkpt>
      <trkpt lat="50.37383" lon="4.78102">
        <ele>221</ele>
        <time>2025-04-05T06:51:36Z</time>
      </trkpt>
      <trkpt lat="50.3738" lon="4.78107">
        <ele>220.4</ele>
        <time>2025-04-05T06:51:37Z</time>
      </trkpt>
      <trkpt lat="50.37378" lon="4.78112">
        <ele>220</ele>
        <time>2025-04-05T06:51:38Z</time>
      </trkpt>
      <trkpt lat="50.37376" lon="4.78115">
        <ele>219.6</ele>
        <time>2025-04-05T06:51:39Z</time>
      </trkpt>
      <trkpt lat="50.37374" lon="4.78118">
        <ele>219.2</ele>
        <time>2025-04-05T06:51:40Z</time>
      </trkpt>
      <trkpt lat="50.37371" lon="4.7812">
        <ele>218.8</ele>
        <time>2025-04-05T06:51:41Z</time>
      </trkpt>
      <trkpt lat="50.37369" lon="4.78121">
        <ele>218.6</ele>
        <time>2025-04-05T06:51:42Z</time>
      </trkpt>
      <trkpt lat="50.37367" lon="4.78121">
        <ele>218.2</ele>
        <time>2025-04-05T06:51:43Z</time>
      </trkpt>
      <trkpt lat="50.37365" lon="4.78122">
        <ele>218</ele>
        <time>2025-04-05T06:51:44Z</time>
      </trkpt>
      <trkpt lat="50.37363" lon="4.78121">
        <ele>217.6</ele>
        <time>2025-04-05T06:51:45Z</time>
      </trkpt>
      <trkpt lat="50.3736" lon="4.7812">
        <ele>217.4</ele>
        <time>2025-04-05T06:51:46Z</time>
      </trkpt>
      <trkpt lat="50.37357" lon="4.78119">
        <ele>217</ele>
        <time>2025-04-05T06:51:47Z</time>
      </trkpt>
      <trkpt lat="50.37354" lon="4.78116">
        <ele>216.8</ele>
        <time>2025-04-05T06:51:48Z</time>
      </trkpt>
      <trkpt lat="50.37351" lon="4.78114">
        <ele>216.4</ele>
        <time>2025-04-05T06:51:49Z</time>
      </trkpt>
      <trkpt lat="50.37347" lon="4.78111">
        <ele>216.2</ele>
        <time>2025-04-05T06:51:50Z</time>
      </trkpt>
      <trkpt lat="50.37344" lon="4.78108">
        <ele>215.8</ele>
        <time>2025-04-05T06:51:51Z</time>
      </trkpt>
      <trkpt lat="50.3734" lon="4.78105">
        <ele>215.4</ele>
        <time>2025-04-05T06:51:52Z</time>
      </trkpt>
      <trkpt lat="50.37336" lon="4.78102">
        <ele>215</ele>
        <time>2025-04-05T06:51:53Z</time>
      </trkpt>
      <trkpt lat="50.37333" lon="4.781">
        <ele>214.8</ele>
        <time>2025-04-05T06:51:54Z</time>
      </trkpt>
      <trkpt lat="50.37329" lon="4.78098">
        <ele>214.4</ele>
        <time>2025-04-05T06:51:55Z</time>
      </trkpt>
      <trkpt lat="50.37325" lon="4.78095">
        <ele>214</ele>
        <time>2025-04-05T06:51:56Z</time>
      </trkpt>
      <trkpt lat="50.37322" lon="4.78092">
        <ele>213.6</ele>
        <time>2025-04-05T06:51:57Z</time>
      </trkpt>
      <trkpt lat="50.37318" lon="4.7809">
        <ele>213.2</ele>
        <time>2025-04-05T06:51:58Z</time>
      </trkpt>
      <trkpt lat="50.37314" lon="4.78087">
        <ele>212.8</ele>
        <time>2025-04-05T06:51:59Z</time>
      </trkpt>
      <trkpt lat="50.37309" lon="4.78084">
        <ele>212.4</ele>
        <time>2025-04-05T06:52:00Z</time>
      </trkpt>
      <trkpt lat="50.37304" lon="4.78081">
        <ele>211.8</ele>
        <time>2025-04-05T06:52:01Z</time>
      </trkpt>
      <trkpt lat="50.373" lon="4.78078">
        <ele>211.4</ele>
        <time>2025-04-05T06:52:02Z</time>
      </trkpt>
      <trkpt lat="50.37295" lon="4.78074">
        <ele>211</ele>
        <time>2025-04-05T06:52:03Z</time>
      </trkpt>
      <trkpt lat="50.37289" lon="4.78071">
        <ele>210.6</ele>
        <time>2025-04-05T06:52:04Z</time>
      </trkpt>
      <trkpt lat="50.37284" lon="4.78067">
        <ele>210.2</ele>
        <time>2025-04-05T06:52:05Z</time>
      </trkpt>
      <trkpt lat="50.37278" lon="4.78065">
        <ele>209.8</ele>
        <time>2025-04-05T06:52:06Z</time>
      </trkpt>
      <trkpt lat="50.37273" lon="4.78062">
        <ele>209.6</ele>
        <time>2025-04-05T06:52:07Z</time>
      </trkpt>
      <trkpt lat="50.37268" lon="4.78059">
        <ele>209.4</ele>
        <time>2025-04-05T06:52:08Z</time>
      </trkpt>
      <trkpt lat="50.37265" lon="4.78056">
        <ele>209.2</ele>
        <time>2025-04-05T06:52:09Z</time>
      </trkpt>
      <trkpt lat="50.37262" lon="4.78054">
        <ele>209.2</ele>
        <time>2025-04-05T06:52:10Z</time>
      </trkpt>
      <trkpt lat="50.37259" lon="4.78054">
        <ele>209</ele>
        <time>2025-04-05T06:52:11Z</time>
      </trkpt>
      <trkpt lat="50.37256" lon="4.78055">
        <ele>209</ele>
        <time>2025-04-05T06:52:12Z</time>
      </trkpt>
      <trkpt lat="50.37254" lon="4.78056">
        <ele>209</ele>
        <time>2025-04-05T06:52:13Z</time>
      </trkpt>
      <trkpt lat="50.37252" lon="4.78057">
        <ele>208.8</ele>
        <time>2025-04-05T06:52:14Z</time>
      </trkpt>
      <trkpt lat="50.37251" lon="4.78059">
        <ele>208.8</ele>
        <time>2025-04-05T06:52:15Z</time>
      </trkpt>
      <trkpt lat="50.37249" lon="4.78062">
        <ele>208.8</ele>
        <time>2025-04-05T06:52:16Z</time>
      </trkpt>
      <trkpt lat="50.37247" lon="4.78066">
        <ele>208.8</ele>
        <time>2025-04-05T06:52:17Z</time>
      </trkpt>
      <trkpt lat="50.37246" lon="4.7807">
        <ele>208.8</ele>
        <time>2025-04-05T06:52:18Z</time>
      </trkpt>
      <trkpt lat="50.37244" lon="4.78074">
        <ele>208.8</ele>
        <time>2025-04-05T06:52:19Z</time>
      </trkpt>
      <trkpt lat="50.37242" lon="4.78078">
        <ele>208.8</ele>
        <time>2025-04-05T06:52:20Z</time>
      </trkpt>
      <trkpt lat="50.3724" lon="4.78084">
        <ele>209</ele>
        <time>2025-04-05T06:52:21Z</time>
      </trkpt>
      <trkpt lat="50.37237" lon="4.78089">
        <ele>209</ele>
        <time>2025-04-05T06:52:22Z</time>
      </trkpt>
      <trkpt lat="50.37235" lon="4.78094">
        <ele>209.2</ele>
        <time>2025-04-05T06:52:23Z</time>
      </trkpt>
      <trkpt lat="50.37232" lon="4.78099">
        <ele>209.2</ele>
        <time>2025-04-05T06:52:24Z</time>
      </trkpt>
      <trkpt lat="50.37229" lon="4.78103">
        <ele>209.4</ele>
        <time>2025-04-05T06:52:25Z</time>
      </trkpt>
      <trkpt lat="50.37227" lon="4.78109">
        <ele>209.4</ele>
        <time>2025-04-05T06:52:26Z</time>
      </trkpt>
      <trkpt lat="50.37223" lon="4.78114">
        <ele>209.6</ele>
        <time>2025-04-05T06:52:27Z</time>
      </trkpt>
      <trkpt lat="50.37221" lon="4.78119">
        <ele>209.6</ele>
        <time>2025-04-05T06:52:28Z</time>
      </trkpt>
      <trkpt lat="50.37218" lon="4.78124">
        <ele>209.8</ele>
        <time>2025-04-05T06:52:29Z</time>
      </trkpt>
      <trkpt lat="50.37215" lon="4.78129">
        <ele>209.8</ele>
        <time>2025-04-05T06:52:30Z</time>
      </trkpt>
      <trkpt lat="50.37212" lon="4.78134">
        <ele>209.8</ele>
        <time>2025-04-05T06:52:31Z</time>
      </trkpt>
      <trkpt lat="50.37209" lon="4.7814">
        <ele>210</ele>
        <time>2025-04-05T06:52:32Z</time>
      </trkpt>
      <trkpt lat="50.37207" lon="4.78145">
        <ele>210</ele>
        <time>2025-04-05T06:52:33Z</time>
      </trkpt>
      <trkpt lat="50.37204" lon="4.7815">
        <ele>210</ele>
        <time>2025-04-05T06:52:34Z</time>
      </trkpt>
      <trkpt lat="50.37201" lon="4.78156">
        <ele>209.8</ele>
        <time>2025-04-05T06:52:35Z</time>
      </trkpt>
      <trkpt lat="50.37197" lon="4.78162">
        <ele>209.8</ele>
        <time>2025-04-05T06:52:36Z</time>
      </trkpt>
      <trkpt lat="50.37193" lon="4.78169">
        <ele>209.6</ele>
        <time>2025-04-05T06:52:37Z</time>
      </trkpt>
      <trkpt lat="50.3719" lon="4.78175">
        <ele>209.6</ele>
        <time>2025-04-05T06:52:38Z</time>
      </trkpt>
      <trkpt lat="50.37186" lon="4.78182">
        <ele>209.6</ele>
        <time>2025-04-05T06:52:39Z</time>
      </trkpt>
      <trkpt lat="50.37183" lon="4.78188">
        <ele>209.6</ele>
        <time>2025-04-05T06:52:40Z</time>
      </trkpt>
      <trkpt lat="50.3718" lon="4.78194">
        <ele>209.4</ele>
        <time>2025-04-05T06:52:41Z</time>
      </trkpt>
      <trkpt lat="50.37176" lon="4.782">
        <ele>209.4</ele>
        <time>2025-04-05T06:52:42Z</time>
      </trkpt>
      <trkpt lat="50.37172" lon="4.78207">
        <ele>209.2</ele>
        <time>2025-04-05T06:52:43Z</time>
      </trkpt>
      <trkpt lat="50.37169" lon="4.78214">
        <ele>209</ele>
        <time>2025-04-05T06:52:44Z</time>
      </trkpt>
      <trkpt lat="50.37165" lon="4.7822">
        <ele>208.8</ele>
        <time>2025-04-05T06:52:45Z</time>
      </trkpt>
      <trkpt lat="50.37161" lon="4.78227">
        <ele>208.8</ele>
        <time>2025-04-05T06:52:46Z</time>
      </trkpt>
      <trkpt lat="50.37157" lon="4.78234">
        <ele>208.6</ele>
        <time>2025-04-05T06:52:47Z</time>
      </trkpt>
      <trkpt lat="50.37153" lon="4.78241">
        <ele>208.4</ele>
        <time>2025-04-05T06:52:48Z</time>
      </trkpt>
      <trkpt lat="50.37149" lon="4.78248">
        <ele>208</ele>
        <time>2025-04-05T06:52:49Z</time>
      </trkpt>
      <trkpt lat="50.37145" lon="4.78255">
        <ele>207.6</ele>
        <time>2025-04-05T06:52:50Z</time>
      </trkpt>
      <trkpt lat="50.37141" lon="4.78262">
        <ele>207.2</ele>
        <time>2025-04-05T06:52:51Z</time>
      </trkpt>
      <trkpt lat="50.37136" lon="4.78269">
        <ele>207</ele>
        <time>2025-04-05T06:52:52Z</time>
      </trkpt>
      <trkpt lat="50.37131" lon="4.78276">
        <ele>206.4</ele>
        <time>2025-04-05T06:52:53Z</time>
      </trkpt>
      <trkpt lat="50.37126" lon="4.78282">
        <ele>206</ele>
        <time>2025-04-05T06:52:54Z</time>
      </trkpt>
      <trkpt lat="50.3712" lon="4.7829">
        <ele>205.6</ele>
        <time>2025-04-05T06:52:55Z</time>
      </trkpt>
      <trkpt lat="50.37114" lon="4.78298">
        <ele>205.2</ele>
        <time>2025-04-05T06:52:56Z</time>
      </trkpt>
      <trkpt lat="50.37108" lon="4.78305">
        <ele>204.6</ele>
        <time>2025-04-05T06:52:57Z</time>
      </trkpt>
      <trkpt lat="50.37101" lon="4.78313">
        <ele>204</ele>
        <time>2025-04-05T06:52:58Z</time>
      </trkpt>
      <trkpt lat="50.37095" lon="4.78321">
        <ele>203.4</ele>
        <time>2025-04-05T06:52:59Z</time>
      </trkpt>
      <trkpt lat="50.37089" lon="4.78328">
        <ele>202.8</ele>
        <time>2025-04-05T06:53:00Z</time>
      </trkpt>
      <trkpt lat="50.37086" lon="4.78332">
        <ele>202</ele>
        <time>2025-04-05T06:53:01Z</time>
      </trkpt>
      <trkpt lat="50.37076" lon="4.78343">
        <ele>201.4</ele>
        <time>2025-04-05T06:53:02Z</time>
      </trkpt>
      <trkpt lat="50.37066" lon="4.78356">
        <ele>200.6</ele>
        <time>2025-04-05T06:53:03Z</time>
      </trkpt>
      <trkpt lat="50.37058" lon="4.78365">
        <ele>199.8</ele>
        <time>2025-04-05T06:53:04Z</time>
      </trkpt>
      <trkpt lat="50.3705" lon="4.78375">
        <ele>199</ele>
        <time>2025-04-05T06:53:05Z</time>
      </trkpt>
      <trkpt lat="50.37042" lon="4.78385">
        <ele>198</ele>
        <time>2025-04-05T06:53:06Z</time>
      </trkpt>
      <trkpt lat="50.37035" lon="4.78394">
        <ele>197.2</ele>
        <time>2025-04-05T06:53:07Z</time>
      </trkpt>
      <trkpt lat="50.37027" lon="4.78404">
        <ele>196.2</ele>
        <time>2025-04-05T06:53:08Z</time>
      </trkpt>
      <trkpt lat="50.37019" lon="4.78414">
        <ele>195.2</ele>
        <time>2025-04-05T06:53:09Z</time>
      </trkpt>
      <trkpt lat="50.3701" lon="4.78425">
        <ele>194.4</ele>
        <time>2025-04-05T06:53:10Z</time>
      </trkpt>
      <trkpt lat="50.37002" lon="4.78435">
        <ele>193.4</ele>
        <time>2025-04-05T06:53:11Z</time>
      </trkpt>
      <trkpt lat="50.36994" lon="4.78444">
        <ele>192.4</ele>
        <time>2025-04-05T06:53:12Z</time>
      </trkpt>
      <trkpt lat="50.36985" lon="4.78455">
        <ele>191.4</ele>
        <time>2025-04-05T06:53:13Z</time>
      </trkpt>
      <trkpt lat="50.36977" lon="4.78467">
        <ele>190.4</ele>
        <time>2025-04-05T06:53:14Z</time>
      </trkpt>
      <trkpt lat="50.36968" lon="4.78478">
        <ele>189.4</ele>
        <time>2025-04-05T06:53:15Z</time>
      </trkpt>
      <trkpt lat="50.36959" lon="4.78489">
        <ele>188.6</ele>
        <time>2025-04-05T06:53:16Z</time>
      </trkpt>
      <trkpt lat="50.36951" lon="4.78501">
        <ele>188.2</ele>
        <time>2025-04-05T06:53:17Z</time>
      </trkpt>
      <trkpt lat="50.36944" lon="4.78514">
        <ele>187.6</ele>
        <time>2025-04-05T06:53:18Z</time>
      </trkpt>
      <trkpt lat="50.36937" lon="4.78526">
        <ele>187.4</ele>
        <time>2025-04-05T06:53:19Z</time>
      </trkpt>
      <trkpt lat="50.36932" lon="4.78538">
        <ele>187.2</ele>
        <time>2025-04-05T06:53:20Z</time>
      </trkpt>
      <trkpt lat="50.36927" lon="4.7855">
        <ele>187</ele>
        <time>2025-04-05T06:53:21Z</time>
      </trkpt>
      <trkpt lat="50.36923" lon="4.78562">
        <ele>187.2</ele>
        <time>2025-04-05T06:53:22Z</time>
      </trkpt>
      <trkpt lat="50.36919" lon="4.78575">
        <ele>187.2</ele>
        <time>2025-04-05T06:53:23Z</time>
      </trkpt>
      <trkpt lat="50.36915" lon="4.78587">
        <ele>187.2</ele>
        <time>2025-04-05T06:53:24Z</time>
      </trkpt>
      <trkpt lat="50.36911" lon="4.78598">
        <ele>187.4</ele>
        <time>2025-04-05T06:53:25Z</time>
      </trkpt>
      <trkpt lat="50.36907" lon="4.78609">
        <ele>187.6</ele>
        <time>2025-04-05T06:53:26Z</time>
      </trkpt>
      <trkpt lat="50.36902" lon="4.78619">
        <ele>187.6</ele>
        <time>2025-04-05T06:53:27Z</time>
      </trkpt>
      <trkpt lat="50.36896" lon="4.78628">
        <ele>187.8</ele>
        <time>2025-04-05T06:53:28Z</time>
      </trkpt>
      <trkpt lat="50.3689" lon="4.78637">
        <ele>187.6</ele>
        <time>2025-04-05T06:53:29Z</time>
      </trkpt>
      <trkpt lat="50.36884" lon="4.78645">
        <ele>187.6</ele>
        <time>2025-04-05T06:53:30Z</time>
      </trkpt>
      <trkpt lat="50.36877" lon="4.78652">
        <ele>187.4</ele>
        <time>2025-04-05T06:53:31Z</time>
      </trkpt>
      <trkpt lat="50.3687" lon="4.7866">
        <ele>187.2</ele>
        <time>2025-04-05T06:53:32Z</time>
      </trkpt>
      <trkpt lat="50.36863" lon="4.78669">
        <ele>186.8</ele>
        <time>2025-04-05T06:53:33Z</time>
      </trkpt>
      <trkpt lat="50.36856" lon="4.78678">
        <ele>186.6</ele>
        <time>2025-04-05T06:53:34Z</time>
      </trkpt>
      <trkpt lat="50.36848" lon="4.78687">
        <ele>186.2</ele>
        <time>2025-04-05T06:53:35Z</time>
      </trkpt>
      <trkpt lat="50.36842" lon="4.78696">
        <ele>186</ele>
        <time>2025-04-05T06:53:36Z</time>
      </trkpt>
      <trkpt lat="50.36836" lon="4.78704">
        <ele>185.8</ele>
        <time>2025-04-05T06:53:37Z</time>
      </trkpt>
      <trkpt lat="50.36831" lon="4.78715">
        <ele>185.6</ele>
        <time>2025-04-05T06:53:38Z</time>
      </trkpt>
      <trkpt lat="50.36825" lon="4.78727">
        <ele>185.6</ele>
        <time>2025-04-05T06:53:39Z</time>
      </trkpt>
      <trkpt lat="50.36821" lon="4.78737">
        <ele>185.4</ele>
        <time>2025-04-05T06:53:40Z</time>
      </trkpt>
      <trkpt lat="50.36817" lon="4.78747">
        <ele>185.4</ele>
        <time>2025-04-05T06:53:41Z</time>
      </trkpt>
      <trkpt lat="50.36813" lon="4.78756">
        <ele>185.4</ele>
        <time>2025-04-05T06:53:42Z</time>
      </trkpt>
      <trkpt lat="50.36808" lon="4.78768">
        <ele>185.2</ele>
        <time>2025-04-05T06:53:43Z</time>
      </trkpt>
      <trkpt lat="50.36803" lon="4.7878">
        <ele>185.2</ele>
        <time>2025-04-05T06:53:44Z</time>
      </trkpt>
      <trkpt lat="50.36799" lon="4.78791">
        <ele>185</ele>
        <time>2025-04-05T06:53:45Z</time>
      </trkpt>
      <trkpt lat="50.36795" lon="4.78801">
        <ele>184.8</ele>
        <time>2025-04-05T06:53:46Z</time>
      </trkpt>
      <trkpt lat="50.36791" lon="4.78811">
        <ele>184.6</ele>
        <time>2025-04-05T06:53:47Z</time>
      </trkpt>
      <trkpt lat="50.36788" lon="4.78821">
        <ele>184.6</ele>
        <time>2025-04-05T06:53:48Z</time>
      </trkpt>
      <trkpt lat="50.36784" lon="4.78833">
        <ele>184.2</ele>
        <time>2025-04-05T06:53:49Z</time>
      </trkpt>
      <trkpt lat="50.36779" lon="4.78846">
        <ele>184</ele>
        <time>2025-04-05T06:53:50Z</time>
      </trkpt>
      <trkpt lat="50.36774" lon="4.78858">
        <ele>183.8</ele>
        <time>2025-04-05T06:53:51Z</time>
      </trkpt>
      <trkpt lat="50.3677" lon="4.78869">
        <ele>183.6</ele>
        <time>2025-04-05T06:53:52Z</time>
      </trkpt>
      <trkpt lat="50.36765" lon="4.7888">
        <ele>183.4</ele>
        <time>2025-04-05T06:53:53Z</time>
      </trkpt>
      <trkpt lat="50.36761" lon="4.78892">
        <ele>183.2</ele>
        <time>2025-04-05T06:53:54Z</time>
      </trkpt>
      <trkpt lat="50.36755" lon="4.78903">
        <ele>183</ele>
        <time>2025-04-05T06:53:55Z</time>
      </trkpt>
      <trkpt lat="50.36749" lon="4.78914">
        <ele>182.8</ele>
        <time>2025-04-05T06:53:56Z</time>
      </trkpt>
      <trkpt lat="50.36742" lon="4.78923">
        <ele>182.8</ele>
        <time>2025-04-05T06:53:57Z</time>
      </trkpt>
      <trkpt lat="50.36736" lon="4.78933">
        <ele>182.6</ele>
        <time>2025-04-05T06:53:58Z</time>
      </trkpt>
      <trkpt lat="50.3673" lon="4.78943">
        <ele>182.4</ele>
        <time>2025-04-05T06:53:59Z</time>
      </trkpt>
      <trkpt lat="50.36723" lon="4.78952">
        <ele>182.4</ele>
        <time>2025-04-05T06:54:00Z</time>
      </trkpt>
      <trkpt lat="50.36717" lon="4.78961">
        <ele>182.2</ele>
        <time>2025-04-05T06:54:01Z</time>
      </trkpt>
      <trkpt lat="50.36712" lon="4.78969">
        <ele>181.8</ele>
        <time>2025-04-05T06:54:02Z</time>
      </trkpt>
      <trkpt lat="50.36705" lon="4.78977">
        <ele>181.6</ele>
        <time>2025-04-05T06:54:03Z</time>
      </trkpt>
      <trkpt lat="50.36699" lon="4.78987">
        <ele>181.4</ele>
        <time>2025-04-05T06:54:04Z</time>
      </trkpt>
      <trkpt lat="50.36694" lon="4.78997">
        <ele>181.2</ele>
        <time>2025-04-05T06:54:05Z</time>
      </trkpt>
      <trkpt lat="50.36688" lon="4.79008">
        <ele>180.8</ele>
        <time>2025-04-05T06:54:06Z</time>
      </trkpt>
      <trkpt lat="50.36684" lon="4.79017">
        <ele>180.6</ele>
        <time>2025-04-05T06:54:07Z</time>
      </trkpt>
      <trkpt lat="50.3668" lon="4.79026">
        <ele>180.2</ele>
        <time>2025-04-05T06:54:08Z</time>
      </trkpt>
      <trkpt lat="50.36675" lon="4.79036">
        <ele>180</ele>
        <time>2025-04-05T06:54:09Z</time>
      </trkpt>
      <trkpt lat="50.36669" lon="4.79045">
        <ele>179.6</ele>
        <time>2025-04-05T06:54:10Z</time>
      </trkpt>
      <trkpt lat="50.36663" lon="4.79054">
        <ele>179.4</ele>
        <time>2025-04-05T06:54:11Z</time>
      </trkpt>
      <trkpt lat="50.36656" lon="4.79064">
        <ele>179</ele>
        <time>2025-04-05T06:54:12Z</time>
      </trkpt>
      <trkpt lat="50.36649" lon="4.79074">
        <ele>178.8</ele>
        <time>2025-04-05T06:54:13Z</time>
      </trkpt>
      <trkpt lat="50.36642" lon="4.79083">
        <ele>178.6</ele>
        <time>2025-04-05T06:54:14Z</time>
      </trkpt>
      <trkpt lat="50.36634" lon="4.79092">
        <ele>178.4</ele>
        <time>2025-04-05T06:54:15Z</time>
      </trkpt>
      <trkpt lat="50.36628" lon="4.79099">
        <ele>178.2</ele>
        <time>2025-04-05T06:54:16Z</time>
      </trkpt>
      <trkpt lat="50.36621" lon="4.79104">
        <ele>177.8</ele>
        <time>2025-04-05T06:54:17Z</time>
      </trkpt>
      <trkpt lat="50.36614" lon="4.79111">
        <ele>177.4</ele>
        <time>2025-04-05T06:54:18Z</time>
      </trkpt>
      <trkpt lat="50.36605" lon="4.79118">
        <ele>177</ele>
        <time>2025-04-05T06:54:19Z</time>
      </trkpt>
      <trkpt lat="50.36596" lon="4.79127">
        <ele>176.4</ele>
        <time>2025-04-05T06:54:20Z</time>
      </trkpt>
      <trkpt lat="50.36588" lon="4.79132">
        <ele>176</ele>
        <time>2025-04-05T06:54:21Z</time>
      </trkpt>
      <trkpt lat="50.3658" lon="4.79139">
        <ele>175.8</ele>
        <time>2025-04-05T06:54:22Z</time>
      </trkpt>
      <trkpt lat="50.3657" lon="4.79145">
        <ele>175.6</ele>
        <time>2025-04-05T06:54:23Z</time>
      </trkpt>
      <trkpt lat="50.3656" lon="4.79152">
        <ele>175.4</ele>
        <time>2025-04-05T06:54:24Z</time>
      </trkpt>
      <trkpt lat="50.36552" lon="4.79156">
        <ele>175.2</ele>
        <time>2025-04-05T06:54:25Z</time>
      </trkpt>
      <trkpt lat="50.36543" lon="4.79162">
        <ele>175.2</ele>
        <time>2025-04-05T06:54:26Z</time>
      </trkpt>
      <trkpt lat="50.36537" lon="4.79167">
        <ele>175</ele>
        <time>2025-04-05T06:54:27Z</time>
      </trkpt>
      <trkpt lat="50.36527" lon="4.79173">
        <ele>175</ele>
        <time>2025-04-05T06:54:28Z</time>
      </trkpt>
      <trkpt lat="50.3652" lon="4.79179">
        <ele>174.8</ele>
        <time>2025-04-05T06:54:29Z</time>
      </trkpt>
      <trkpt lat="50.36513" lon="4.79184">
        <ele>174.6</ele>
        <time>2025-04-05T06:54:30Z</time>
      </trkpt>
      <trkpt lat="50.36507" lon="4.79189">
        <ele>174.4</ele>
        <time>2025-04-05T06:54:31Z</time>
      </trkpt>
      <trkpt lat="50.365" lon="4.79194">
        <ele>174.2</ele>
        <time>2025-04-05T06:54:32Z</time>
      </trkpt>
      <trkpt lat="50.36492" lon="4.79198">
        <ele>173.8</ele>
        <time>2025-04-05T06:54:33Z</time>
      </trkpt>
      <trkpt lat="50.36483" lon="4.79204">
        <ele>173.6</ele>
        <time>2025-04-05T06:54:34Z</time>
      </trkpt>
      <trkpt lat="50.36476" lon="4.7921">
        <ele>173.4</ele>
        <time>2025-04-05T06:54:35Z</time>
      </trkpt>
      <trkpt lat="50.36468" lon="4.79215">
        <ele>173.2</ele>
        <time>2025-04-05T06:54:36Z</time>
      </trkpt>
      <trkpt lat="50.36461" lon="4.79222">
        <ele>172.8</ele>
        <time>2025-04-05T06:54:37Z</time>
      </trkpt>
      <trkpt lat="50.36453" lon="4.79228">
        <ele>172.4</ele>
        <time>2025-04-05T06:54:38Z</time>
      </trkpt>
      <trkpt lat="50.36446" lon="4.79235">
        <ele>171.8</ele>
        <time>2025-04-05T06:54:39Z</time>
      </trkpt>
      <trkpt lat="50.36439" lon="4.79242">
        <ele>171.4</ele>
        <time>2025-04-05T06:54:40Z</time>
      </trkpt>
      <trkpt lat="50.36432" lon="4.79251">
        <ele>171.2</ele>
        <time>2025-04-05T06:54:41Z</time>
      </trkpt>
      <trkpt lat="50.36426" lon="4.7926">
        <ele>171.2</ele>
        <time>2025-04-05T06:54:42Z</time>
      </trkpt>
      <trkpt lat="50.3642" lon="4.7927">
        <ele>171</ele>
        <time>2025-04-05T06:54:43Z</time>
      </trkpt>
      <trkpt lat="50.36416" lon="4.7928">
        <ele>171</ele>
        <time>2025-04-05T06:54:44Z</time>
      </trkpt>
      <trkpt lat="50.36413" lon="4.79289">
        <ele>171.2</ele>
        <time>2025-04-05T06:54:45Z</time>
      </trkpt>
      <trkpt lat="50.36411" lon="4.793">
        <ele>171.2</ele>
        <time>2025-04-05T06:54:46Z</time>
      </trkpt>
      <trkpt lat="50.36408" lon="4.79312">
        <ele>171</ele>
        <time>2025-04-05T06:54:47Z</time>
      </trkpt>
      <trkpt lat="50.36406" lon="4.79324">
        <ele>170.8</ele>
        <time>2025-04-05T06:54:48Z</time>
      </trkpt>
      <trkpt lat="50.36403" lon="4.79336">
        <ele>170.6</ele>
        <time>2025-04-05T06:54:49Z</time>
      </trkpt>
      <trkpt lat="50.364" lon="4.79346">
        <ele>170.4</ele>
        <time>2025-04-05T06:54:50Z</time>
      </trkpt>
      <trkpt lat="50.36395" lon="4.79358">
        <ele>170.4</ele>
        <time>2025-04-05T06:54:51Z</time>
      </trkpt>
      <trkpt lat="50.36391" lon="4.7937">
        <ele>170.4</ele>
        <time>2025-04-05T06:54:52Z</time>
      </trkpt>
      <trkpt lat="50.36387" lon="4.79381">
        <ele>170.6</ele>
        <time>2025-04-05T06:54:53Z</time>
      </trkpt>
      <trkpt lat="50.36383" lon="4.79391">
        <ele>170.6</ele>
        <time>2025-04-05T06:54:54Z</time>
      </trkpt>
      <trkpt lat="50.3638" lon="4.794">
        <ele>170.6</ele>
        <time>2025-04-05T06:54:55Z</time>
      </trkpt>
      <trkpt lat="50.36376" lon="4.79409">
        <ele>170.6</ele>
        <time>2025-04-05T06:54:56Z</time>
      </trkpt>
      <trkpt lat="50.36371" lon="4.79418">
        <ele>170.4</ele>
        <time>2025-04-05T06:54:57Z</time>
      </trkpt>
      <trkpt lat="50.36367" lon="4.79425">
        <ele>170</ele>
        <time>2025-04-05T06:54:58Z</time>
      </trkpt>
      <trkpt lat="50.36364" lon="4.79434">
        <ele>169.8</ele>
        <time>2025-04-05T06:54:59Z</time>
      </trkpt>
      <trkpt lat="50.36359" lon="4.79444">
        <ele>169.4</ele>
        <time>2025-04-05T06:55:00Z</time>
      </trkpt>
      <trkpt lat="50.36354" lon="4.79454">
        <ele>169</ele>
        <time>2025-04-05T06:55:01Z</time>
      </trkpt>
      <trkpt lat="50.36349" lon="4.79464">
        <ele>168.4</ele>
        <time>2025-04-05T06:55:02Z</time>
      </trkpt>
      <trkpt lat="50.36343" lon="4.79475">
        <ele>167.8</ele>
        <time>2025-04-05T06:55:03Z</time>
      </trkpt>
      <trkpt lat="50.36336" lon="4.79487">
        <ele>167.2</ele>
        <time>2025-04-05T06:55:04Z</time>
      </trkpt>
      <trkpt lat="50.36329" lon="4.79498">
        <ele>166.6</ele>
        <time>2025-04-05T06:55:05Z</time>
      </trkpt>
      <trkpt lat="50.36323" lon="4.7951">
        <ele>166</ele>
        <time>2025-04-05T06:55:06Z</time>
      </trkpt>
      <trkpt lat="50.36317" lon="4.79521">
        <ele>165.2</ele>
        <time>2025-04-05T06:55:07Z</time>
      </trkpt>
      <trkpt lat="50.3631" lon="4.79533">
        <ele>164.6</ele>
        <time>2025-04-05T06:55:08Z</time>
      </trkpt>
      <trkpt lat="50.36303" lon="4.79545">
        <ele>163.8</ele>
        <time>2025-04-05T06:55:09Z</time>
      </trkpt>
      <trkpt lat="50.36296" lon="4.79557">
        <ele>163</ele>
        <time>2025-04-05T06:55:10Z</time>
      </trkpt>
      <trkpt lat="50.36288" lon="4.79569">
        <ele>162.4</ele>
        <time>2025-04-05T06:55:11Z</time>
      </trkpt>
      <trkpt lat="50.36281" lon="4.7958">
        <ele>161.8</ele>
        <time>2025-04-05T06:55:12Z</time>
      </trkpt>
      <trkpt lat="50.36273" lon="4.79591">
        <ele>161.4</ele>
        <time>2025-04-05T06:55:13Z</time>
      </trkpt>
      <trkpt lat="50.36266" lon="4.79601">
        <ele>161</ele>
        <time>2025-04-05T06:55:14Z</time>
      </trkpt>
      <trkpt lat="50.36258" lon="4.79611">
        <ele>160.6</ele>
        <time>2025-04-05T06:55:15Z</time>
      </trkpt>
      <trkpt lat="50.36251" lon="4.7962">
        <ele>160.4</ele>
        <time>2025-04-05T06:55:16Z</time>
      </trkpt>
      <trkpt lat="50.36245" lon="4.7963">
        <ele>160.2</ele>
        <time>2025-04-05T06:55:17Z</time>
      </trkpt>
      <trkpt lat="50.36239" lon="4.7964">
        <ele>160</ele>
        <time>2025-04-05T06:55:18Z</time>
      </trkpt>
      <trkpt lat="50.36234" lon="4.7965">
        <ele>159.8</ele>
        <time>2025-04-05T06:55:19Z</time>
      </trkpt>
      <trkpt lat="50.36228" lon="4.79659">
        <ele>159.6</ele>
        <time>2025-04-05T06:55:20Z</time>
      </trkpt>
      <trkpt lat="50.36223" lon="4.79669">
        <ele>159.6</ele>
        <time>2025-04-05T06:55:21Z</time>
      </trkpt>
      <trkpt lat="50.36218" lon="4.79679">
        <ele>159.4</ele>
        <time>2025-04-05T06:55:22Z</time>
      </trkpt>
      <trkpt lat="50.36213" lon="4.79689">
        <ele>159</ele>
        <time>2025-04-05T06:55:23Z</time>
      </trkpt>
      <trkpt lat="50.36207" lon="4.79699">
        <ele>158.8</ele>
        <time>2025-04-05T06:55:24Z</time>
      </trkpt>
      <trkpt lat="50.36202" lon="4.79709">
        <ele>158.4</ele>
        <time>2025-04-05T06:55:25Z</time>
      </trkpt>
      <trkpt lat="50.36196" lon="4.79719">
        <ele>158.2</ele>
        <time>2025-04-05T06:55:26Z</time>
      </trkpt>
      <trkpt lat="50.3619" lon="4.79728">
        <ele>157.8</ele>
        <time>2025-04-05T06:55:27Z</time>
      </trkpt>
      <trkpt lat="50.36186" lon="4.79739">
        <ele>157.6</ele>
        <time>2025-04-05T06:55:28Z</time>
      </trkpt>
      <trkpt lat="50.36181" lon="4.79751">
        <ele>157.4</ele>
        <time>2025-04-05T06:55:29Z</time>
      </trkpt>
      <trkpt lat="50.36178" lon="4.79763">
        <ele>157</ele>
        <time>2025-04-05T06:55:30Z</time>
      </trkpt>
      <trkpt lat="50.36174" lon="4.79776">
        <ele>156.8</ele>
        <time>2025-04-05T06:55:31Z</time>
      </trkpt>
      <trkpt lat="50.36171" lon="4.79788">
        <ele>156.6</ele>
        <time>2025-04-05T06:55:32Z</time>
      </trkpt>
      <trkpt lat="50.36169" lon="4.798">
        <ele>156.4</ele>
        <time>2025-04-05T06:55:33Z</time>
      </trkpt>
      <trkpt lat="50.36166" lon="4.79813">
        <ele>156</ele>
        <time>2025-04-05T06:55:34Z</time>
      </trkpt>
      <trkpt lat="50.36162" lon="4.79824">
        <ele>155.8</ele>
        <time>2025-04-05T06:55:35Z</time>
      </trkpt>
      <trkpt lat="50.36159" lon="4.79835">
        <ele>155.6</ele>
        <time>2025-04-05T06:55:36Z</time>
      </trkpt>
      <trkpt lat="50.36155" lon="4.79847">
        <ele>155.4</ele>
        <time>2025-04-05T06:55:37Z</time>
      </trkpt>
      <trkpt lat="50.36152" lon="4.79858">
        <ele>155.2</ele>
        <time>2025-04-05T06:55:38Z</time>
      </trkpt>
      <trkpt lat="50.36149" lon="4.7987">
        <ele>155</ele>
        <time>2025-04-05T06:55:39Z</time>
      </trkpt>
      <trkpt lat="50.36146" lon="4.79882">
        <ele>154.8</ele>
        <time>2025-04-05T06:55:40Z</time>
      </trkpt>
      <trkpt lat="50.36143" lon="4.79894">
        <ele>154.4</ele>
        <time>2025-04-05T06:55:41Z</time>
      </trkpt>
      <trkpt lat="50.3614" lon="4.79906">
        <ele>154.2</ele>
        <time>2025-04-05T06:55:42Z</time>
      </trkpt>
      <trkpt lat="50.36137" lon="4.79917">
        <ele>154</ele>
        <time>2025-04-05T06:55:43Z</time>
      </trkpt>
      <trkpt lat="50.36134" lon="4.79928">
        <ele>153.8</ele>
        <time>2025-04-05T06:55:44Z</time>
      </trkpt>
      <trkpt lat="50.36129" lon="4.79939">
        <ele>153.6</ele>
        <time>2025-04-05T06:55:45Z</time>
      </trkpt>
      <trkpt lat="50.36124" lon="4.7995">
        <ele>153.2</ele>
        <time>2025-04-05T06:55:46Z</time>
      </trkpt>
      <trkpt lat="50.3612" lon="4.79961">
        <ele>153</ele>
        <time>2025-04-05T06:55:47Z</time>
      </trkpt>
      <trkpt lat="50.36116" lon="4.79972">
        <ele>152.8</ele>
        <time>2025-04-05T06:55:48Z</time>
      </trkpt>
      <trkpt lat="50.36112" lon="4.79982">
        <ele>152.4</ele>
        <time>2025-04-05T06:55:49Z</time>
      </trkpt>
      <trkpt lat="50.36109" lon="4.79991">
        <ele>152.2</ele>
        <time>2025-04-05T06:55:50Z</time>
      </trkpt>
      <trkpt lat="50.36105" lon="4.80002">
        <ele>152</ele>
        <time>2025-04-05T06:55:51Z</time>
      </trkpt>
      <trkpt lat="50.36102" lon="4.80012">
        <ele>151.8</ele>
        <time>2025-04-05T06:55:52Z</time>
      </trkpt>
      <trkpt lat="50.361" lon="4.80023">
        <ele>151.4</ele>
        <time>2025-04-05T06:55:53Z</time>
      </trkpt>
      <trkpt lat="50.36098" lon="4.80034">
        <ele>151.2</ele>
        <time>2025-04-05T06:55:54Z</time>
      </trkpt>
      <trkpt lat="50.36096" lon="4.80046">
        <ele>151</ele>
        <time>2025-04-05T06:55:55Z</time>
      </trkpt>
      <trkpt lat="50.36095" lon="4.80057">
        <ele>150.8</ele>
        <time>2025-04-05T06:55:56Z</time>
      </trkpt>
      <trkpt lat="50.36094" lon="4.80068">
        <ele>150.6</ele>
        <time>2025-04-05T06:55:57Z</time>
      </trkpt>
      <trkpt lat="50.36092" lon="4.8008">
        <ele>150.4</ele>
        <time>2025-04-05T06:55:58Z</time>
      </trkpt>
      <trkpt lat="50.36092" lon="4.80091">
        <ele>150</ele>
        <time>2025-04-05T06:55:59Z</time>
      </trkpt>
      <trkpt lat="50.36091" lon="4.80102">
        <ele>149.8</ele>
        <time>2025-04-05T06:56:00Z</time>
      </trkpt>
      <trkpt lat="50.36092" lon="4.80112">
        <ele>149.6</ele>
        <time>2025-04-05T06:56:01Z</time>
      </trkpt>
      <trkpt lat="50.36091" lon="4.80122">
        <ele>149.4</ele>
        <time>2025-04-05T06:56:02Z</time>
      </trkpt>
      <trkpt lat="50.36089" lon="4.80132">
        <ele>149.2</ele>
        <time>2025-04-05T06:56:03Z</time>
      </trkpt>
      <trkpt lat="50.36087" lon="4.80141">
        <ele>149</ele>
        <time>2025-04-05T06:56:04Z</time>
      </trkpt>
      <trkpt lat="50.36086" lon="4.80149">
        <ele>148.8</ele>
        <time>2025-04-05T06:56:05Z</time>
      </trkpt>
      <trkpt lat="50.36085" lon="4.80156">
        <ele>148.6</ele>
        <time>2025-04-05T06:56:06Z</time>
      </trkpt>
      <trkpt lat="50.36083" lon="4.80163">
        <ele>148.4</ele>
        <time>2025-04-05T06:56:07Z</time>
      </trkpt>
      <trkpt lat="50.36081" lon="4.80174">
        <ele>148</ele>
        <time>2025-04-05T06:56:08Z</time>
      </trkpt>
      <trkpt lat="50.36079" lon="4.80185">
        <ele>147.8</ele>
        <time>2025-04-05T06:56:09Z</time>
      </trkpt>
      <trkpt lat="50.36077" lon="4.80197">
        <ele>147.6</ele>
        <time>2025-04-05T06:56:10Z</time>
      </trkpt>
      <trkpt lat="50.36074" lon="4.80208">
        <ele>147.6</ele>
        <time>2025-04-05T06:56:11Z</time>
      </trkpt>
      <trkpt lat="50.36072" lon="4.80218">
        <ele>147.4</ele>
        <time>2025-04-05T06:56:12Z</time>
      </trkpt>
      <trkpt lat="50.3607" lon="4.80229">
        <ele>147</ele>
        <time>2025-04-05T06:56:13Z</time>
      </trkpt>
      <trkpt lat="50.36069" lon="4.8024">
        <ele>146.8</ele>
        <time>2025-04-05T06:56:14Z</time>
      </trkpt>
      <trkpt lat="50.36066" lon="4.80252">
        <ele>146.6</ele>
        <time>2025-04-05T06:56:15Z</time>
      </trkpt>
      <trkpt lat="50.36063" lon="4.80263">
        <ele>146.4</ele>
        <time>2025-04-05T06:56:16Z</time>
      </trkpt>
      <trkpt lat="50.3606" lon="4.80274">
        <ele>146</ele>
        <time>2025-04-05T06:56:17Z</time>
      </trkpt>
      <trkpt lat="50.36057" lon="4.80285">
        <ele>145.8</ele>
        <time>2025-04-05T06:56:18Z</time>
      </trkpt>
      <trkpt lat="50.36054" lon="4.80296">
        <ele>145.6</ele>
        <time>2025-04-05T06:56:19Z</time>
      </trkpt>
      <trkpt lat="50.36051" lon="4.80308">
        <ele>145.4</ele>
        <time>2025-04-05T06:56:20Z</time>
      </trkpt>
      <trkpt lat="50.36049" lon="4.80319">
        <ele>145.2</ele>
        <time>2025-04-05T06:56:21Z</time>
      </trkpt>
      <trkpt lat="50.36046" lon="4.8033">
        <ele>145</ele>
        <time>2025-04-05T06:56:22Z</time>
      </trkpt>
      <trkpt lat="50.36044" lon="4.80342">
        <ele>144.8</ele>
        <time>2025-04-05T06:56:23Z</time>
      </trkpt>
      <trkpt lat="50.3604" lon="4.80352">
        <ele>144.6</ele>
        <time>2025-04-05T06:56:24Z</time>
      </trkpt>
      <trkpt lat="50.36034" lon="4.80364">
        <ele>144.4</ele>
        <time>2025-04-05T06:56:25Z</time>
      </trkpt>
      <trkpt lat="50.36025" lon="4.80377">
        <ele>144.2</ele>
        <time>2025-04-05T06:56:26Z</time>
      </trkpt>
      <trkpt lat="50.36019" lon="4.80388">
        <ele>144</ele>
        <time>2025-04-05T06:56:27Z</time>
      </trkpt>
      <trkpt lat="50.36013" lon="4.80399">
        <ele>143.8</ele>
        <time>2025-04-05T06:56:28Z</time>
      </trkpt>
      <trkpt lat="50.36008" lon="4.80411">
        <ele>143.8</ele>
        <time>2025-04-05T06:56:29Z</time>
      </trkpt>
      <trkpt lat="50.36004" lon="4.80421">
        <ele>143.8</ele>
        <time>2025-04-05T06:56:30Z</time>
      </trkpt>
      <trkpt lat="50.36004" lon="4.8043">
        <ele>143.8</ele>
        <time>2025-04-05T06:56:31Z</time>
      </trkpt>
      <trkpt lat="50.36004" lon="4.80438">
        <ele>144</ele>
        <time>2025-04-05T06:56:32Z</time>
      </trkpt>
      <trkpt lat="50.36003" lon="4.80445">
        <ele>144</ele>
        <time>2025-04-05T06:56:33Z</time>
      </trkpt>
      <trkpt lat="50.36002" lon="4.80451">
        <ele>144</ele>
        <time>2025-04-05T06:56:34Z</time>
      </trkpt>
      <trkpt lat="50.36" lon="4.80457">
        <ele>144</ele>
        <time>2025-04-05T06:56:35Z</time>
      </trkpt>
      <trkpt lat="50.35999" lon="4.80462">
        <ele>144.2</ele>
        <time>2025-04-05T06:56:36Z</time>
      </trkpt>
      <trkpt lat="50.35997" lon="4.80467">
        <ele>144.2</ele>
        <time>2025-04-05T06:56:37Z</time>
      </trkpt>
      <trkpt lat="50.35995" lon="4.80472">
        <ele>144</ele>
        <time>2025-04-05T06:56:38Z</time>
      </trkpt>
      <trkpt lat="50.35991" lon="4.80475">
        <ele>144</ele>
        <time>2025-04-05T06:56:39Z</time>
      </trkpt>
      <trkpt lat="50.35987" lon="4.80476">
        <ele>144</ele>
        <time>2025-04-05T06:56:40Z</time>
      </trkpt>
      <trkpt lat="50.35982" lon="4.80476">
        <ele>144</ele>
        <time>2025-04-05T06:56:41Z</time>
      </trkpt>
      <trkpt lat="50.35977" lon="4.80477">
        <ele>144</ele>
        <time>2025-04-05T06:56:42Z</time>
      </trkpt>
      <trkpt lat="50.35971" lon="4.80479">
        <ele>144</ele>
        <time>2025-04-05T06:56:43Z</time>
      </trkpt>
      <trkpt lat="50.35965" lon="4.80483">
        <ele>144</ele>
        <time>2025-04-05T06:56:44Z</time>
      </trkpt>
      <trkpt lat="50.3596" lon="4.80487">
        <ele>144</ele>
        <time>2025-04-05T06:56:45Z</time>
      </trkpt>
      <trkpt lat="50.35954" lon="4.80493">
        <ele>143.8</ele>
        <time>2025-04-05T06:56:46Z</time>
      </trkpt>
      <trkpt lat="50.35949" lon="4.80499">
        <ele>143.8</ele>
        <time>2025-04-05T06:56:47Z</time>
      </trkpt>
      <trkpt lat="50.35945" lon="4.80505">
        <ele>143.8</ele>
        <time>2025-04-05T06:56:48Z</time>
      </trkpt>
      <trkpt lat="50.35941" lon="4.80511">
        <ele>144</ele>
        <time>2025-04-05T06:56:49Z</time>
      </trkpt>
      <trkpt lat="50.35937" lon="4.80517">
        <ele>144</ele>
        <time>2025-04-05T06:56:50Z</time>
      </trkpt>
      <trkpt lat="50.35933" lon="4.80523">
        <ele>144</ele>
        <time>2025-04-05T06:56:51Z</time>
      </trkpt>
      <trkpt lat="50.35929" lon="4.80528">
        <ele>144.2</ele>
        <time>2025-04-05T06:56:52Z</time>
      </trkpt>
      <trkpt lat="50.35925" lon="4.80533">
        <ele>144.2</ele>
        <time>2025-04-05T06:56:53Z</time>
      </trkpt>
      <trkpt lat="50.35922" lon="4.80536">
        <ele>144.4</ele>
        <time>2025-04-05T06:56:54Z</time>
      </trkpt>
      <trkpt lat="50.35919" lon="4.80542">
        <ele>144.4</ele>
        <time>2025-04-05T06:56:55Z</time>
      </trkpt>
      <trkpt lat="50.35915" lon="4.80549">
        <ele>144.6</ele>
        <time>2025-04-05T06:56:56Z</time>
      </trkpt>
      <trkpt lat="50.35911" lon="4.80555">
        <ele>144.6</ele>
        <time>2025-04-05T06:56:57Z</time>
      </trkpt>
      <trkpt lat="50.35907" lon="4.80561">
        <ele>144.6</ele>
        <time>2025-04-05T06:56:58Z</time>
      </trkpt>
      <trkpt lat="50.35902" lon="4.80567">
        <ele>144.8</ele>
        <time>2025-04-05T06:56:59Z</time>
      </trkpt>
      <trkpt lat="50.35899" lon="4.80571">
        <ele>144.8</ele>
        <time>2025-04-05T06:57:00Z</time>
      </trkpt>
      <trkpt lat="50.35895" lon="4.80577">
        <ele>145</ele>
        <time>2025-04-05T06:57:01Z</time>
      </trkpt>
      <trkpt lat="50.35892" lon="4.80583">
        <ele>145.2</ele>
        <time>2025-04-05T06:57:02Z</time>
      </trkpt>
      <trkpt lat="50.35888" lon="4.80589">
        <ele>145.2</ele>
        <time>2025-04-05T06:57:03Z</time>
      </trkpt>
      <trkpt lat="50.35884" lon="4.80594">
        <ele>145.4</ele>
        <time>2025-04-05T06:57:04Z</time>
      </trkpt>
      <trkpt lat="50.3588" lon="4.806">
        <ele>145.4</ele>
        <time>2025-04-05T06:57:05Z</time>
      </trkpt>
      <trkpt lat="50.35877" lon="4.80605">
        <ele>145.6</ele>
        <time>2025-04-05T06:57:06Z</time>
      </trkpt>
      <trkpt lat="50.35873" lon="4.80611">
        <ele>145.8</ele>
        <time>2025-04-05T06:57:07Z</time>
      </trkpt>
      <trkpt lat="50.35869" lon="4.80617">
        <ele>145.8</ele>
        <time>2025-04-05T06:57:08Z</time>
      </trkpt>
      <trkpt lat="50.35866" lon="4.80623">
        <ele>146</ele>
        <time>2025-04-05T06:57:09Z</time>
      </trkpt>
      <trkpt lat="50.35862" lon="4.80628">
        <ele>146.2</ele>
        <time>2025-04-05T06:57:10Z</time>
      </trkpt>
      <trkpt lat="50.35859" lon="4.80633">
        <ele>146.2</ele>
        <time>2025-04-05T06:57:11Z</time>
      </trkpt>
      <trkpt lat="50.35854" lon="4.80638">
        <ele>146.4</ele>
        <time>2025-04-05T06:57:12Z</time>
      </trkpt>
      <trkpt lat="50.3585" lon="4.80643">
        <ele>146.6</ele>
        <time>2025-04-05T06:57:13Z</time>
      </trkpt>
      <trkpt lat="50.35847" lon="4.80648">
        <ele>146.8</ele>
        <time>2025-04-05T06:57:14Z</time>
      </trkpt>
      <trkpt lat="50.35844" lon="4.80653">
        <ele>146.8</ele>
        <time>2025-04-05T06:57:15Z</time>
      </trkpt>
      <trkpt lat="50.35841" lon="4.80657">
        <ele>147</ele>
        <time>2025-04-05T06:57:16Z</time>
      </trkpt>
      <trkpt lat="50.35838" lon="4.80663">
        <ele>147.2</ele>
        <time>2025-04-05T06:57:17Z</time>
      </trkpt>
      <trkpt lat="50.35834" lon="4.80667">
        <ele>147.2</ele>
        <time>2025-04-05T06:57:18Z</time>
      </trkpt>
      <trkpt lat="50.35831" lon="4.80672">
        <ele>147.4</ele>
        <time>2025-04-05T06:57:19Z</time>
      </trkpt>
      <trkpt lat="50.35827" lon="4.80677">
        <ele>147.6</ele>
        <time>2025-04-05T06:57:20Z</time>
      </trkpt>
      <trkpt lat="50.35824" lon="4.80681">
        <ele>147.8</ele>
        <time>2025-04-05T06:57:21Z</time>
      </trkpt>
      <trkpt lat="50.3582" lon="4.80686">
        <ele>148</ele>
        <time>2025-04-05T06:57:22Z</time>
      </trkpt>
      <trkpt lat="50.35817" lon="4.80691">
        <ele>148.2</ele>
        <time>2025-04-05T06:57:23Z</time>
      </trkpt>
      <trkpt lat="50.35813" lon="4.80697">
        <ele>148.4</ele>
        <time>2025-04-05T06:57:24Z</time>
      </trkpt>
      <trkpt lat="50.3581" lon="4.80702">
        <ele>148.4</ele>
        <time>2025-04-05T06:57:25Z</time>
      </trkpt>
      <trkpt lat="50.35806" lon="4.80707">
        <ele>148.6</ele>
        <time>2025-04-05T06:57:26Z</time>
      </trkpt>
      <trkpt lat="50.35802" lon="4.80713">
        <ele>148.8</ele>
        <time>2025-04-05T06:57:27Z</time>
      </trkpt>
      <trkpt lat="50.35799" lon="4.80718">
        <ele>149</ele>
        <time>2025-04-05T06:57:28Z</time>
      </trkpt>
      <trkpt lat="50.35796" lon="4.80722">
        <ele>149</ele>
        <time>2025-04-05T06:57:29Z</time>
      </trkpt>
      <trkpt lat="50.35792" lon="4.80727">
        <ele>149.2</ele>
        <time>2025-04-05T06:57:30Z</time>
      </trkpt>
      <trkpt lat="50.35789" lon="4.80732">
        <ele>149.4</ele>
        <time>2025-04-05T06:57:31Z</time>
      </trkpt>
      <trkpt lat="50.35786" lon="4.80737">
        <ele>149.6</ele>
        <time>2025-04-05T06:57:32Z</time>
      </trkpt>
      <trkpt lat="50.35782" lon="4.80742">
        <ele>149.6</ele>
        <time>2025-04-05T06:57:33Z</time>
      </trkpt>
      <trkpt lat="50.35779" lon="4.80747">
        <ele>149.8</ele>
        <time>2025-04-05T06:57:34Z</time>
      </trkpt>
      <trkpt lat="50.35775" lon="4.80752">
        <ele>150</ele>
        <time>2025-04-05T06:57:35Z</time>
      </trkpt>
      <trkpt lat="50.35772" lon="4.80756">
        <ele>150.2</ele>
        <time>2025-04-05T06:57:36Z</time>
      </trkpt>
      <trkpt lat="50.35768" lon="4.80761">
        <ele>150.2</ele>
        <time>2025-04-05T06:57:37Z</time>
      </trkpt>
      <trkpt lat="50.35764" lon="4.80765">
        <ele>150.4</ele>
        <time>2025-04-05T06:57:38Z</time>
      </trkpt>
      <trkpt lat="50.3576" lon="4.80769">
        <ele>150.6</ele>
        <time>2025-04-05T06:57:39Z</time>
      </trkpt>
      <trkpt lat="50.35756" lon="4.80774">
        <ele>150.8</ele>
        <time>2025-04-05T06:57:40Z</time>
      </trkpt>
      <trkpt lat="50.35753" lon="4.80778">
        <ele>150.8</ele>
        <time>2025-04-05T06:57:41Z</time>
      </trkpt>
      <trkpt lat="50.3575" lon="4.80782">
        <ele>151</ele>
        <time>2025-04-05T06:57:42Z</time>
      </trkpt>
      <trkpt lat="50.35747" lon="4.80787">
        <ele>151.2</ele>
        <time>2025-04-05T06:57:43Z</time>
      </trkpt>
      <trkpt lat="50.35745" lon="4.80792">
        <ele>151.4</ele>
        <time>2025-04-05T06:57:44Z</time>
      </trkpt>
      <trkpt lat="50.35743" lon="4.80798">
        <ele>151.6</ele>
        <time>2025-04-05T06:57:45Z</time>
      </trkpt>
      <trkpt lat="50.3574" lon="4.80802">
        <ele>151.8</ele>
        <time>2025-04-05T06:57:46Z</time>
      </trkpt>
      <trkpt lat="50.35737" lon="4.80806">
        <ele>152</ele>
        <time>2025-04-05T06:57:47Z</time>
      </trkpt>
      <trkpt lat="50.35735" lon="4.8081">
        <ele>152.2</ele>
        <time>2025-04-05T06:57:48Z</time>
      </trkpt>
      <trkpt lat="50.35732" lon="4.80814">
        <ele>152.4</ele>
        <time>2025-04-05T06:57:49Z</time>
      </trkpt>
      <trkpt lat="50.3573" lon="4.80819">
        <ele>152.6</ele>
        <time>2025-04-05T06:57:50Z</time>
      </trkpt>
      <trkpt lat="50.35727" lon="4.80824">
        <ele>152.6</ele>
        <time>2025-04-05T06:57:51Z</time>
      </trkpt>
      <trkpt lat="50.35725" lon="4.80829">
        <ele>153</ele>
        <time>2025-04-05T06:57:52Z</time>
      </trkpt>
      <trkpt lat="50.35723" lon="4.80832">
        <ele>153.2</ele>
        <time>2025-04-05T06:57:53Z</time>
      </trkpt>
      <trkpt lat="50.3572" lon="4.80836">
        <ele>153.4</ele>
        <time>2025-04-05T06:57:54Z</time>
      </trkpt>
      <trkpt lat="50.35717" lon="4.80839">
        <ele>153.6</ele>
        <time>2025-04-05T06:57:55Z</time>
      </trkpt>
      <trkpt lat="50.35715" lon="4.80843">
        <ele>153.8</ele>
        <time>2025-04-05T06:57:56Z</time>
      </trkpt>
      <trkpt lat="50.35712" lon="4.80846">
        <ele>154.2</ele>
        <time>2025-04-05T06:57:57Z</time>
      </trkpt>
      <trkpt lat="50.35709" lon="4.80851">
        <ele>154.4</ele>
        <time>2025-04-05T06:57:58Z</time>
      </trkpt>
      <trkpt lat="50.35706" lon="4.80855">
        <ele>154.6</ele>
        <time>2025-04-05T06:57:59Z</time>
      </trkpt>
      <trkpt lat="50.35702" lon="4.80858">
        <ele>155</ele>
        <time>2025-04-05T06:58:00Z</time>
      </trkpt>
      <trkpt lat="50.35699" lon="4.80862">
        <ele>155.2</ele>
        <time>2025-04-05T06:58:01Z</time>
      </trkpt>
      <trkpt lat="50.35696" lon="4.80865">
        <ele>155.4</ele>
        <time>2025-04-05T06:58:02Z</time>
      </trkpt>
      <trkpt lat="50.35693" lon="4.80868">
        <ele>155.6</ele>
        <time>2025-04-05T06:58:03Z</time>
      </trkpt>
      <trkpt lat="50.35689" lon="4.80871">
        <ele>156</ele>
        <time>2025-04-05T06:58:04Z</time>
      </trkpt>
      <trkpt lat="50.35686" lon="4.80872">
        <ele>156.2</ele>
        <time>2025-04-05T06:58:05Z</time>
      </trkpt>
      <trkpt lat="50.35682" lon="4.80875">
        <ele>156.4</ele>
        <time>2025-04-05T06:58:06Z</time>
      </trkpt>
      <trkpt lat="50.35678" lon="4.80878">
        <ele>156.6</ele>
        <time>2025-04-05T06:58:07Z</time>
      </trkpt>
      <trkpt lat="50.35674" lon="4.80881">
        <ele>156.8</ele>
        <time>2025-04-05T06:58:08Z</time>
      </trkpt>
      <trkpt lat="50.35671" lon="4.80883">
        <ele>157</ele>
        <time>2025-04-05T06:58:09Z</time>
      </trkpt>
      <trkpt lat="50.35668" lon="4.80886">
        <ele>157</ele>
        <time>2025-04-05T06:58:10Z</time>
      </trkpt>
      <trkpt lat="50.35665" lon="4.80888">
        <ele>157</ele>
        <time>2025-04-05T06:58:11Z</time>
      </trkpt>
      <trkpt lat="50.35662" lon="4.80891">
        <ele>157</ele>
        <time>2025-04-05T06:58:12Z</time>
      </trkpt>
      <trkpt lat="50.35659" lon="4.80894">
        <ele>157.2</ele>
        <time>2025-04-05T06:58:13Z</time>
      </trkpt>
      <trkpt lat="50.35657" lon="4.80896">
        <ele>157.2</ele>
        <time>2025-04-05T06:58:14Z</time>
      </trkpt>
      <trkpt lat="50.35654" lon="4.80899">
        <ele>157.2</ele>
        <time>2025-04-05T06:58:15Z</time>
      </trkpt>
      <trkpt lat="50.35651" lon="4.80902">
        <ele>157.2</ele>
        <time>2025-04-05T06:58:16Z</time>
      </trkpt>
      <trkpt lat="50.35648" lon="4.80904">
        <ele>157.2</ele>
        <time>2025-04-05T06:58:17Z</time>
      </trkpt>
      <trkpt lat="50.35645" lon="4.80909">
        <ele>157.2</ele>
        <time>2025-04-05T06:58:18Z</time>
      </trkpt>
      <trkpt lat="50.35643" lon="4.80913">
        <ele>157.2</ele>
        <time>2025-04-05T06:58:19Z</time>
      </trkpt>
      <trkpt lat="50.35641" lon="4.80918">
        <ele>157</ele>
        <time>2025-04-05T06:58:20Z</time>
      </trkpt>
      <trkpt lat="50.35638" lon="4.80922">
        <ele>156.8</ele>
        <time>2025-04-05T06:58:21Z</time>
      </trkpt>
      <trkpt lat="50.35634" lon="4.80928">
        <ele>156.8</ele>
        <time>2025-04-05T06:58:22Z</time>
      </trkpt>
      <trkpt lat="50.35631" lon="4.80934">
        <ele>156.6</ele>
        <time>2025-04-05T06:58:23Z</time>
      </trkpt>
      <trkpt lat="50.35627" lon="4.8094">
        <ele>156.4</ele>
        <time>2025-04-05T06:58:24Z</time>
      </trkpt>
      <trkpt lat="50.35624" lon="4.80946">
        <ele>156</ele>
        <time>2025-04-05T06:58:25Z</time>
      </trkpt>
      <trkpt lat="50.3562" lon="4.80952">
        <ele>155.8</ele>
        <time>2025-04-05T06:58:26Z</time>
      </trkpt>
      <trkpt lat="50.35616" lon="4.80958">
        <ele>155.4</ele>
        <time>2025-04-05T06:58:27Z</time>
      </trkpt>
      <trkpt lat="50.3561" lon="4.80963">
        <ele>155</ele>
        <time>2025-04-05T06:58:28Z</time>
      </trkpt>
      <trkpt lat="50.35605" lon="4.80967">
        <ele>154.6</ele>
        <time>2025-04-05T06:58:29Z</time>
      </trkpt>
      <trkpt lat="50.356" lon="4.80969">
        <ele>154.4</ele>
        <time>2025-04-05T06:58:30Z</time>
      </trkpt>
      <trkpt lat="50.35593" lon="4.80971">
        <ele>154</ele>
        <time>2025-04-05T06:58:31Z</time>
      </trkpt>
      <trkpt lat="50.35586" lon="4.80971">
        <ele>153.8</ele>
        <time>2025-04-05T06:58:32Z</time>
      </trkpt>
      <trkpt lat="50.35579" lon="4.8097">
        <ele>153.4</ele>
        <time>2025-04-05T06:58:33Z</time>
      </trkpt>
      <trkpt lat="50.3557" lon="4.80968">
        <ele>153.4</ele>
        <time>2025-04-05T06:58:34Z</time>
      </trkpt>
      <trkpt lat="50.35564" lon="4.80966">
        <ele>153.2</ele>
        <time>2025-04-05T06:58:35Z</time>
      </trkpt>
      <trkpt lat="50.35558" lon="4.80965">
        <ele>153</ele>
        <time>2025-04-05T06:58:36Z</time>
      </trkpt>
      <trkpt lat="50.35551" lon="4.80964">
        <ele>153</ele>
        <time>2025-04-05T06:58:37Z</time>
      </trkpt>
      <trkpt lat="50.35545" lon="4.80963">
        <ele>152.8</ele>
        <time>2025-04-05T06:58:38Z</time>
      </trkpt>
      <trkpt lat="50.3554" lon="4.80962">
        <ele>152.8</ele>
        <time>2025-04-05T06:58:39Z</time>
      </trkpt>
      <trkpt lat="50.35534" lon="4.8096">
        <ele>152.6</ele>
        <time>2025-04-05T06:58:40Z</time>
      </trkpt>
      <trkpt lat="50.35528" lon="4.80958">
        <ele>152.6</ele>
        <time>2025-04-05T06:58:41Z</time>
      </trkpt>
      <trkpt lat="50.35523" lon="4.80957">
        <ele>152.6</ele>
        <time>2025-04-05T06:58:42Z</time>
      </trkpt>
      <trkpt lat="50.35518" lon="4.80956">
        <ele>152.6</ele>
        <time>2025-04-05T06:58:43Z</time>
      </trkpt>
      <trkpt lat="50.35514" lon="4.80954">
        <ele>152.6</ele>
        <time>2025-04-05T06:58:44Z</time>
      </trkpt>
      <trkpt lat="50.35511" lon="4.80954">
        <ele>152.6</ele>
        <time>2025-04-05T06:58:45Z</time>
      </trkpt>
      <trkpt lat="50.35507" lon="4.80952">
        <ele>152.6</ele>
        <time>2025-04-05T06:58:46Z</time>
      </trkpt>
      <trkpt lat="50.35503" lon="4.80949">
        <ele>152.6</ele>
        <time>2025-04-05T06:58:47Z</time>
      </trkpt>
      <trkpt lat="50.35499" lon="4.80946">
        <ele>152.8</ele>
        <time>2025-04-05T06:58:48Z</time>
      </trkpt>
      <trkpt lat="50.35496" lon="4.80943">
        <ele>152.8</ele>
        <time>2025-04-05T06:58:49Z</time>
      </trkpt>
      <trkpt lat="50.35491" lon="4.80938">
        <ele>153</ele>
        <time>2025-04-05T06:58:50Z</time>
      </trkpt>
      <trkpt lat="50.35487" lon="4.80933">
        <ele>153.2</ele>
        <time>2025-04-05T06:58:51Z</time>
      </trkpt>
      <trkpt lat="50.35482" lon="4.80928">
        <ele>153.4</ele>
        <time>2025-04-05T06:58:52Z</time>
      </trkpt>
      <trkpt lat="50.35477" lon="4.80924">
        <ele>153.6</ele>
        <time>2025-04-05T06:58:53Z</time>
      </trkpt>
      <trkpt lat="50.35474" lon="4.8092">
        <ele>153.6</ele>
        <time>2025-04-05T06:58:54Z</time>
      </trkpt>
      <trkpt lat="50.3547" lon="4.80914">
        <ele>153.8</ele>
        <time>2025-04-05T06:58:55Z</time>
      </trkpt>
      <trkpt lat="50.35467" lon="4.8091">
        <ele>154</ele>
        <time>2025-04-05T06:58:56Z</time>
      </trkpt>
      <trkpt lat="50.35464" lon="4.80904">
        <ele>154.4</ele>
        <time>2025-04-05T06:58:57Z</time>
      </trkpt>
      <trkpt lat="50.3546" lon="4.809">
        <ele>154.4</ele>
        <time>2025-04-05T06:58:58Z</time>
      </trkpt>
      <trkpt lat="50.35457" lon="4.80895">
        <ele>154.6</ele>
        <time>2025-04-05T06:58:59Z</time>
      </trkpt>
      <trkpt lat="50.35451" lon="4.80889">
        <ele>154.8</ele>
        <time>2025-04-05T06:59:00Z</time>
      </trkpt>
      <trkpt lat="50.35446" lon="4.80882">
        <ele>154.8</ele>
        <time>2025-04-05T06:59:01Z</time>
      </trkpt>
      <trkpt lat="50.35443" lon="4.80876">
        <ele>155</ele>
        <time>2025-04-05T06:59:02Z</time>
      </trkpt>
      <trkpt lat="50.3544" lon="4.80869">
        <ele>155.2</ele>
        <time>2025-04-05T06:59:03Z</time>
      </trkpt>
      <trkpt lat="50.35436" lon="4.80863">
        <ele>155.2</ele>
        <time>2025-04-05T06:59:04Z</time>
      </trkpt>
      <trkpt lat="50.35432" lon="4.80856">
        <ele>155.4</ele>
        <time>2025-04-05T06:59:05Z</time>
      </trkpt>
      <trkpt lat="50.35426" lon="4.80849">
        <ele>155.4</ele>
        <time>2025-04-05T06:59:06Z</time>
      </trkpt>
      <trkpt lat="50.35422" lon="4.80843">
        <ele>155.4</ele>
        <time>2025-04-05T06:59:07Z</time>
      </trkpt>
      <trkpt lat="50.35419" lon="4.80838">
        <ele>155.6</ele>
        <time>2025-04-05T06:59:08Z</time>
      </trkpt>
      <trkpt lat="50.35415" lon="4.8083">
        <ele>155.6</ele>
        <time>2025-04-05T06:59:09Z</time>
      </trkpt>
      <trkpt lat="50.35411" lon="4.80823">
        <ele>155.6</ele>
        <time>2025-04-05T06:59:10Z</time>
      </trkpt>
      <trkpt lat="50.35407" lon="4.80815">
        <ele>155.6</ele>
        <time>2025-04-05T06:59:11Z</time>
      </trkpt>
      <trkpt lat="50.35403" lon="4.80808">
        <ele>155.6</ele>
        <time>2025-04-05T06:59:12Z</time>
      </trkpt>
      <trkpt lat="50.35399" lon="4.80801">
        <ele>155.6</ele>
        <time>2025-04-05T06:59:13Z</time>
      </trkpt>
      <trkpt lat="50.35393" lon="4.80794">
        <ele>155.6</ele>
        <time>2025-04-05T06:59:14Z</time>
      </trkpt>
      <trkpt lat="50.35383" lon="4.80784">
        <ele>155.6</ele>
        <time>2025-04-05T06:59:15Z</time>
      </trkpt>
      <trkpt lat="50.35374" lon="4.80776">
        <ele>155.6</ele>
        <time>2025-04-05T06:59:16Z</time>
      </trkpt>
      <trkpt lat="50.35366" lon="4.8077">
        <ele>155.6</ele>
        <time>2025-04-05T06:59:17Z</time>
      </trkpt>
      <trkpt lat="50.3536" lon="4.80764">
        <ele>155.8</ele>
        <time>2025-04-05T06:59:18Z</time>
      </trkpt>
      <trkpt lat="50.35354" lon="4.80758">
        <ele>155.8</ele>
        <time>2025-04-05T06:59:19Z</time>
      </trkpt>
      <trkpt lat="50.35347" lon="4.80752">
        <ele>155.8</ele>
        <time>2025-04-05T06:59:20Z</time>
      </trkpt>
      <trkpt lat="50.3534" lon="4.80747">
        <ele>156</ele>
        <time>2025-04-05T06:59:21Z</time>
      </trkpt>
      <trkpt lat="50.35334" lon="4.80743">
        <ele>156</ele>
        <time>2025-04-05T06:59:22Z</time>
      </trkpt>
      <trkpt lat="50.35329" lon="4.8074">
        <ele>156</ele>
        <time>2025-04-05T06:59:23Z</time>
      </trkpt>
      <trkpt lat="50.35324" lon="4.80737">
        <ele>156.2</ele>
        <time>2025-04-05T06:59:24Z</time>
      </trkpt>
      <trkpt lat="50.35318" lon="4.80733">
        <ele>156.2</ele>
        <time>2025-04-05T06:59:25Z</time>
      </trkpt>
      <trkpt lat="50.35311" lon="4.80728">
        <ele>156.2</ele>
        <time>2025-04-05T06:59:26Z</time>
      </trkpt>
      <trkpt lat="50.35304" lon="4.80723">
        <ele>156.4</ele>
        <time>2025-04-05T06:59:27Z</time>
      </trkpt>
      <trkpt lat="50.35298" lon="4.80722">
        <ele>156.4</ele>
        <time>2025-04-05T06:59:28Z</time>
      </trkpt>
      <trkpt lat="50.35292" lon="4.80722">
        <ele>156.4</ele>
        <time>2025-04-05T06:59:29Z</time>
      </trkpt>
      <trkpt lat="50.35287" lon="4.8072">
        <ele>156.6</ele>
        <time>2025-04-05T06:59:30Z</time>
      </trkpt>
      <trkpt lat="50.35281" lon="4.80718">
        <ele>156.6</ele>
        <time>2025-04-05T06:59:31Z</time>
      </trkpt>
      <trkpt lat="50.35276" lon="4.80717">
        <ele>156.8</ele>
        <time>2025-04-05T06:59:32Z</time>
      </trkpt>
      <trkpt lat="50.35272" lon="4.80716">
        <ele>156.8</ele>
        <time>2025-04-05T06:59:33Z</time>
      </trkpt>
      <trkpt lat="50.35268" lon="4.80716">
        <ele>157</ele>
        <time>2025-04-05T06:59:34Z</time>
      </trkpt>
      <trkpt lat="50.35264" lon="4.80715">
        <ele>157</ele>
        <time>2025-04-05T06:59:35Z</time>
      </trkpt>
      <trkpt lat="50.3526" lon="4.80714">
        <ele>157.2</ele>
        <time>2025-04-05T06:59:36Z</time>
      </trkpt>
      <trkpt lat="50.35256" lon="4.80713">
        <ele>157.2</ele>
        <time>2025-04-05T06:59:37Z</time>
      </trkpt>
      <trkpt lat="50.35252" lon="4.80712">
        <ele>157.4</ele>
        <time>2025-04-05T06:59:38Z</time>
      </trkpt>
      <trkpt lat="50.35247" lon="4.80711">
        <ele>157.6</ele>
        <time>2025-04-05T06:59:39Z</time>
      </trkpt>
      <trkpt lat="50.35242" lon="4.8071">
        <ele>157.6</ele>
        <time>2025-04-05T06:59:40Z</time>
      </trkpt>
      <trkpt lat="50.35237" lon="4.80709">
        <ele>157.6</ele>
        <time>2025-04-05T06:59:41Z</time>
      </trkpt>
      <trkpt lat="50.35233" lon="4.80708">
        <ele>157.6</ele>
        <time>2025-04-05T06:59:42Z</time>
      </trkpt>
      <trkpt lat="50.35229" lon="4.80708">
        <ele>157.6</ele>
        <time>2025-04-05T06:59:43Z</time>
      </trkpt>
      <trkpt lat="50.35224" lon="4.80708">
        <ele>157.8</ele>
        <time>2025-04-05T06:59:44Z</time>
      </trkpt>
      <trkpt lat="50.35218" lon="4.80707">
        <ele>157.8</ele>
        <time>2025-04-05T06:59:45Z</time>
      </trkpt>
      <trkpt lat="50.35213" lon="4.80707">
        <ele>158</ele>
        <time>2025-04-05T06:59:46Z</time>
      </trkpt>
      <trkpt lat="50.35209" lon="4.80706">
        <ele>158</ele>
        <time>2025-04-05T06:59:47Z</time>
      </trkpt>
      <trkpt lat="50.35204" lon="4.80705">
        <ele>158.2</ele>
        <time>2025-04-05T06:59:48Z</time>
      </trkpt>
      <trkpt lat="50.352" lon="4.80705">
        <ele>158.4</ele>
        <time>2025-04-05T06:59:49Z</time>
      </trkpt>
      <trkpt lat="50.35196" lon="4.80705">
        <ele>158.4</ele>
        <time>2025-04-05T06:59:50Z</time>
      </trkpt>
      <trkpt lat="50.35191" lon="4.80705">
        <ele>158.4</ele>
        <time>2025-04-05T06:59:51Z</time>
      </trkpt>
      <trkpt lat="50.35187" lon="4.80705">
        <ele>158.6</ele>
        <time>2025-04-05T06:59:52Z</time>
      </trkpt>
      <trkpt lat="50.35183" lon="4.80705">
        <ele>158.6</ele>
        <time>2025-04-05T06:59:53Z</time>
      </trkpt>
      <trkpt lat="50.35179" lon="4.80705">
        <ele>158.6</ele>
        <time>2025-04-05T06:59:54Z</time>
      </trkpt>
      <trkpt lat="50.35175" lon="4.80704">
        <ele>158.8</ele>
        <time>2025-04-05T06:59:55Z</time>
      </trkpt>
      <trkpt lat="50.3517" lon="4.80703">
        <ele>158.8</ele>
        <time>2025-04-05T06:59:56Z</time>
      </trkpt>
      <trkpt lat="50.35166" lon="4.80702">
        <ele>158.8</ele>
        <time>2025-04-05T06:59:57Z</time>
      </trkpt>
      <trkpt lat="50.35162" lon="4.80703">
        <ele>159</ele>
        <time>2025-04-05T06:59:58Z</time>
      </trkpt>
      <trkpt lat="50.35156" lon="4.80703">
        <ele>159</ele>
        <time>2025-04-05T06:59:59Z</time>
      </trkpt>
      <trkpt lat="50.35148" lon="4.80704">
        <ele>159</ele>
        <time>2025-04-05T07:00:00Z</time>
      </trkpt>
      <trkpt lat="50.35137" lon="4.80706">
        <ele>159</ele>
        <time>2025-04-05T07:00:01Z</time>
      </trkpt>
      <trkpt lat="50.35129" lon="4.80709">
        <ele>159.2</ele>
        <time>2025-04-05T07:00:02Z</time>
      </trkpt>
      <trkpt lat="50.35121" lon="4.80713">
        <ele>159.2</ele>
        <time>2025-04-05T07:00:03Z</time>
      </trkpt>
      <trkpt lat="50.35116" lon="4.80716">
        <ele>159.4</ele>
        <time>2025-04-05T07:00:04Z</time>
      </trkpt>
      <trkpt lat="50.35111" lon="4.80719">
        <ele>159.4</ele>
        <time>2025-04-05T07:00:05Z</time>
      </trkpt>
      <trkpt lat="50.35106" lon="4.80722">
        <ele>159.4</ele>
        <time>2025-04-05T07:00:06Z</time>
      </trkpt>
      <trkpt lat="50.35101" lon="4.80726">
        <ele>159.6</ele>
        <time>2025-04-05T07:00:07Z</time>
      </trkpt>
      <trkpt lat="50.35096" lon="4.8073">
        <ele>159.6</ele>
        <time>2025-04-05T07:00:08Z</time>
      </trkpt>
      <trkpt lat="50.35091" lon="4.80733">
        <ele>159.6</ele>
        <time>2025-04-05T07:00:09Z</time>
      </trkpt>
      <trkpt lat="50.35088" lon="4.80736">
        <ele>159.6</ele>
        <time>2025-04-05T07:00:10Z</time>
      </trkpt>
      <trkpt lat="50.35083" lon="4.8074">
        <ele>159.6</ele>
        <time>2025-04-05T07:00:11Z</time>
      </trkpt>
      <trkpt lat="50.35078" lon="4.80742">
        <ele>159.6</ele>
        <time>2025-04-05T07:00:12Z</time>
      </trkpt>
      <trkpt lat="50.35074" lon="4.80743">
        <ele>159.6</ele>
        <time>2025-04-05T07:00:13Z</time>
      </trkpt>
      <trkpt lat="50.35069" lon="4.80742">
        <ele>159.8</ele>
        <time>2025-04-05T07:00:14Z</time>
      </trkpt>
      <trkpt lat="50.35064" lon="4.80742">
        <ele>159.8</ele>
        <time>2025-04-05T07:00:15Z</time>
      </trkpt>
      <trkpt lat="50.3506" lon="4.8074">
        <ele>160</ele>
        <time>2025-04-05T07:00:16Z</time>
      </trkpt>
      <trkpt lat="50.35055" lon="4.80738">
        <ele>160</ele>
        <time>2025-04-05T07:00:17Z</time>
      </trkpt>
      <trkpt lat="50.35049" lon="4.80735">
        <ele>160.2</ele>
        <time>2025-04-05T07:00:18Z</time>
      </trkpt>
      <trkpt lat="50.35045" lon="4.80733">
        <ele>160.2</ele>
        <time>2025-04-05T07:00:19Z</time>
      </trkpt>
      <trkpt lat="50.3504" lon="4.80729">
        <ele>160.4</ele>
        <time>2025-04-05T07:00:20Z</time>
      </trkpt>
      <trkpt lat="50.35037" lon="4.80724">
        <ele>160.6</ele>
        <time>2025-04-05T07:00:21Z</time>
      </trkpt>
      <trkpt lat="50.35033" lon="4.80718">
        <ele>160.6</ele>
        <time>2025-04-05T07:00:22Z</time>
      </trkpt>
      <trkpt lat="50.35029" lon="4.80713">
        <ele>160.8</ele>
        <time>2025-04-05T07:00:23Z</time>
      </trkpt>
      <trkpt lat="50.35025" lon="4.80709">
        <ele>160.8</ele>
        <time>2025-04-05T07:00:24Z</time>
      </trkpt>
      <trkpt lat="50.35022" lon="4.80705">
        <ele>161</ele>
        <time>2025-04-05T07:00:25Z</time>
      </trkpt>
      <trkpt lat="50.35017" lon="4.80702">
        <ele>161.2</ele>
        <time>2025-04-05T07:00:26Z</time>
      </trkpt>
      <trkpt lat="50.35012" lon="4.80699">
        <ele>161.2</ele>
        <time>2025-04-05T07:00:27Z</time>
      </trkpt>
      <trkpt lat="50.35009" lon="4.80694">
        <ele>161.4</ele>
        <time>2025-04-05T07:00:28Z</time>
      </trkpt>
      <trkpt lat="50.35007" lon="4.8069">
        <ele>161.4</ele>
        <time>2025-04-05T07:00:29Z</time>
      </trkpt>
      <trkpt lat="50.35004" lon="4.80685">
        <ele>161.6</ele>
        <time>2025-04-05T07:00:30Z</time>
      </trkpt>
      <trkpt lat="50.35001" lon="4.80679">
        <ele>161.6</ele>
        <time>2025-04-05T07:00:31Z</time>
      </trkpt>
      <trkpt lat="50.34999" lon="4.80673">
        <ele>161.8</ele>
        <time>2025-04-05T07:00:32Z</time>
      </trkpt>
      <trkpt lat="50.34997" lon="4.80667">
        <ele>161.8</ele>
        <time>2025-04-05T07:00:33Z</time>
      </trkpt>
      <trkpt lat="50.34995" lon="4.80661">
        <ele>162</ele>
        <time>2025-04-05T07:00:34Z</time>
      </trkpt>
      <trkpt lat="50.34993" lon="4.80654">
        <ele>162</ele>
        <time>2025-04-05T07:00:35Z</time>
      </trkpt>
      <trkpt lat="50.34991" lon="4.80646">
        <ele>162</ele>
        <time>2025-04-05T07:00:36Z</time>
      </trkpt>
      <trkpt lat="50.34988" lon="4.80638">
        <ele>162</ele>
        <time>2025-04-05T07:00:37Z</time>
      </trkpt>
      <trkpt lat="50.34987" lon="4.8063">
        <ele>162</ele>
        <time>2025-04-05T07:00:38Z</time>
      </trkpt>
      <trkpt lat="50.34985" lon="4.80622">
        <ele>162.2</ele>
        <time>2025-04-05T07:00:39Z</time>
      </trkpt>
      <trkpt lat="50.34985" lon="4.80615">
        <ele>162.2</ele>
        <time>2025-04-05T07:00:40Z</time>
      </trkpt>
      <trkpt lat="50.34984" lon="4.80607">
        <ele>162.2</ele>
        <time>2025-04-05T07:00:41Z</time>
      </trkpt>
      <trkpt lat="50.34983" lon="4.80599">
        <ele>162.4</ele>
        <time>2025-04-05T07:00:42Z</time>
      </trkpt>
      <trkpt lat="50.34982" lon="4.8059">
        <ele>162.6</ele>
        <time>2025-04-05T07:00:43Z</time>
      </trkpt>
      <trkpt lat="50.34981" lon="4.80582">
        <ele>162.6</ele>
        <time>2025-04-05T07:00:44Z</time>
      </trkpt>
      <trkpt lat="50.34981" lon="4.80575">
        <ele>162.8</ele>
        <time>2025-04-05T07:00:45Z</time>
      </trkpt>
      <trkpt lat="50.34982" lon="4.80567">
        <ele>163</ele>
        <time>2025-04-05T07:00:46Z</time>
      </trkpt>
      <trkpt lat="50.34983" lon="4.8056">
        <ele>163.2</ele>
        <time>2025-04-05T07:00:47Z</time>
      </trkpt>
      <trkpt lat="50.34983" lon="4.80552">
        <ele>163.4</ele>
        <time>2025-04-05T07:00:48Z</time>
      </trkpt>
      <trkpt lat="50.34984" lon="4.80544">
        <ele>163.6</ele>
        <time>2025-04-05T07:00:49Z</time>
      </trkpt>
      <trkpt lat="50.34985" lon="4.80536">
        <ele>163.8</ele>
        <time>2025-04-05T07:00:50Z</time>
      </trkpt>
      <trkpt lat="50.34987" lon="4.80529">
        <ele>163.8</ele>
        <time>2025-04-05T07:00:51Z</time>
      </trkpt>
      <trkpt lat="50.34989" lon="4.80523">
        <ele>164</ele>
        <time>2025-04-05T07:00:52Z</time>
      </trkpt>
      <trkpt lat="50.34991" lon="4.80516">
        <ele>164.2</ele>
        <time>2025-04-05T07:00:53Z</time>
      </trkpt>
      <trkpt lat="50.34994" lon="4.80509">
        <ele>164.4</ele>
        <time>2025-04-05T07:00:54Z</time>
      </trkpt>
      <trkpt lat="50.34996" lon="4.80501">
        <ele>164.4</ele>
        <time>2025-04-05T07:00:55Z</time>
      </trkpt>
      <trkpt lat="50.34998" lon="4.80492">
        <ele>164.6</ele>
        <time>2025-04-05T07:00:56Z</time>
      </trkpt>
      <trkpt lat="50.35" lon="4.80484">
        <ele>164.6</ele>
        <time>2025-04-05T07:00:57Z</time>
      </trkpt>
      <trkpt lat="50.35002" lon="4.80475">
        <ele>164.8</ele>
        <time>2025-04-05T07:00:58Z</time>
      </trkpt>
      <trkpt lat="50.35002" lon="4.80467">
        <ele>164.8</ele>
        <time>2025-04-05T07:00:59Z</time>
      </trkpt>
      <trkpt lat="50.35003" lon="4.8046">
        <ele>165</ele>
        <time>2025-04-05T07:01:00Z</time>
      </trkpt>
      <trkpt lat="50.35005" lon="4.80453">
        <ele>165</ele>
        <time>2025-04-05T07:01:01Z</time>
      </trkpt>
      <trkpt lat="50.35008" lon="4.80447">
        <ele>165.2</ele>
        <time>2025-04-05T07:01:02Z</time>
      </trkpt>
      <trkpt lat="50.35011" lon="4.80439">
        <ele>165.2</ele>
        <time>2025-04-05T07:01:03Z</time>
      </trkpt>
      <trkpt lat="50.35014" lon="4.80431">
        <ele>165.4</ele>
        <time>2025-04-05T07:01:04Z</time>
      </trkpt>
      <trkpt lat="50.35016" lon="4.80423">
        <ele>165.4</ele>
        <time>2025-04-05T07:01:05Z</time>
      </trkpt>
      <trkpt lat="50.35016" lon="4.80416">
        <ele>165.4</ele>
        <time>2025-04-05T07:01:06Z</time>
      </trkpt>
      <trkpt lat="50.35016" lon="4.80407">
        <ele>165.6</ele>
        <time>2025-04-05T07:01:07Z</time>
      </trkpt>
      <trkpt lat="50.35016" lon="4.80399">
        <ele>165.6</ele>
        <time>2025-04-05T07:01:08Z</time>
      </trkpt>
      <trkpt lat="50.35017" lon="4.80391">
        <ele>165.8</ele>
        <time>2025-04-05T07:01:09Z</time>
      </trkpt>
      <trkpt lat="50.35018" lon="4.80382">
        <ele>165.8</ele>
        <time>2025-04-05T07:01:10Z</time>
      </trkpt>
      <trkpt lat="50.3502" lon="4.80373">
        <ele>166</ele>
        <time>2025-04-05T07:01:11Z</time>
      </trkpt>
      <trkpt lat="50.35023" lon="4.80365">
        <ele>166</ele>
        <time>2025-04-05T07:01:12Z</time>
      </trkpt>
      <trkpt lat="50.35027" lon="4.80358">
        <ele>166</ele>
        <time>2025-04-05T07:01:13Z</time>
      </trkpt>
      <trkpt lat="50.35032" lon="4.80353">
        <ele>166.2</ele>
        <time>2025-04-05T07:01:14Z</time>
      </trkpt>
      <trkpt lat="50.35035" lon="4.80346">
        <ele>166.2</ele>
        <time>2025-04-05T07:01:15Z</time>
      </trkpt>
      <trkpt lat="50.35039" lon="4.80338">
        <ele>166.2</ele>
        <time>2025-04-05T07:01:16Z</time>
      </trkpt>
      <trkpt lat="50.35041" lon="4.8033">
        <ele>166.2</ele>
        <time>2025-04-05T07:01:17Z</time>
      </trkpt>
      <trkpt lat="50.35043" lon="4.80323">
        <ele>166.2</ele>
        <time>2025-04-05T07:01:18Z</time>
      </trkpt>
      <trkpt lat="50.35046" lon="4.80315">
        <ele>166.2</ele>
        <time>2025-04-05T07:01:19Z</time>
      </trkpt>
      <trkpt lat="50.35048" lon="4.80308">
        <ele>166.2</ele>
        <time>2025-04-05T07:01:20Z</time>
      </trkpt>
      <trkpt lat="50.35051" lon="4.803">
        <ele>166.2</ele>
        <time>2025-04-05T07:01:21Z</time>
      </trkpt>
      <trkpt lat="50.35051" lon="4.80292">
        <ele>166.4</ele>
        <time>2025-04-05T07:01:22Z</time>
      </trkpt>
      <trkpt lat="50.35053" lon="4.80284">
        <ele>166.4</ele>
        <time>2025-04-05T07:01:23Z</time>
      </trkpt>
      <trkpt lat="50.35053" lon="4.80276">
        <ele>166.4</ele>
        <time>2025-04-05T07:01:24Z</time>
      </trkpt>
      <trkpt lat="50.35053" lon="4.80267">
        <ele>166.4</ele>
        <time>2025-04-05T07:01:25Z</time>
      </trkpt>
      <trkpt lat="50.35053" lon="4.8026">
        <ele>166.4</ele>
        <time>2025-04-05T07:01:26Z</time>
      </trkpt>
      <trkpt lat="50.35053" lon="4.80251">
        <ele>166.4</ele>
        <time>2025-04-05T07:01:27Z</time>
      </trkpt>
      <trkpt lat="50.35053" lon="4.80243">
        <ele>166.4</ele>
        <time>2025-04-05T07:01:28Z</time>
      </trkpt>
      <trkpt lat="50.35051" lon="4.80235">
        <ele>166.4</ele>
        <time>2025-04-05T07:01:29Z</time>
      </trkpt>
      <trkpt lat="50.35049" lon="4.80227">
        <ele>166.4</ele>
        <time>2025-04-05T07:01:30Z</time>
      </trkpt>
      <trkpt lat="50.35047" lon="4.8022">
        <ele>166.4</ele>
        <time>2025-04-05T07:01:31Z</time>
      </trkpt>
      <trkpt lat="50.35045" lon="4.80212">
        <ele>166.4</ele>
        <time>2025-04-05T07:01:32Z</time>
      </trkpt>
      <trkpt lat="50.35043" lon="4.80206">
        <ele>166.6</ele>
        <time>2025-04-05T07:01:33Z</time>
      </trkpt>
      <trkpt lat="50.35041" lon="4.80201">
        <ele>166.6</ele>
        <time>2025-04-05T07:01:34Z</time>
      </trkpt>
      <trkpt lat="50.3504" lon="4.80195">
        <ele>166.6</ele>
        <time>2025-04-05T07:01:35Z</time>
      </trkpt>
      <trkpt lat="50.35039" lon="4.80188">
        <ele>166.6</ele>
        <time>2025-04-05T07:01:36Z</time>
      </trkpt>
      <trkpt lat="50.35037" lon="4.80182">
        <ele>166.6</ele>
        <time>2025-04-05T07:01:37Z</time>
      </trkpt>
      <trkpt lat="50.35032" lon="4.80176">
        <ele>166.6</ele>
        <time>2025-04-05T07:01:38Z</time>
      </trkpt>
      <trkpt lat="50.35028" lon="4.80171">
        <ele>166.4</ele>
        <time>2025-04-05T07:01:39Z</time>
      </trkpt>
      <trkpt lat="50.35023" lon="4.80165">
        <ele>166.4</ele>
        <time>2025-04-05T07:01:40Z</time>
      </trkpt>
      <trkpt lat="50.35018" lon="4.80159">
        <ele>166.6</ele>
        <time>2025-04-05T07:01:41Z</time>
      </trkpt>
      <trkpt lat="50.35014" lon="4.80153">
        <ele>166.6</ele>
        <time>2025-04-05T07:01:42Z</time>
      </trkpt>
      <trkpt lat="50.3501" lon="4.80148">
        <ele>166.6</ele>
        <time>2025-04-05T07:01:43Z</time>
      </trkpt>
      <trkpt lat="50.35006" lon="4.80144">
        <ele>166.6</ele>
        <time>2025-04-05T07:01:44Z</time>
      </trkpt>
      <trkpt lat="50.35001" lon="4.80138">
        <ele>166.8</ele>
        <time>2025-04-05T07:01:45Z</time>
      </trkpt>
      <trkpt lat="50.34996" lon="4.8013">
        <ele>166.8</ele>
        <time>2025-04-05T07:01:46Z</time>
      </trkpt>
      <trkpt lat="50.3499" lon="4.80122">
        <ele>167</ele>
        <time>2025-04-05T07:01:47Z</time>
      </trkpt>
      <trkpt lat="50.34985" lon="4.80115">
        <ele>167.2</ele>
        <time>2025-04-05T07:01:48Z</time>
      </trkpt>
      <trkpt lat="50.3498" lon="4.80109">
        <ele>167.4</ele>
        <time>2025-04-05T07:01:49Z</time>
      </trkpt>
      <trkpt lat="50.34975" lon="4.80102">
        <ele>167.6</ele>
        <time>2025-04-05T07:01:50Z</time>
      </trkpt>
      <trkpt lat="50.3497" lon="4.80094">
        <ele>167.8</ele>
        <time>2025-04-05T07:01:51Z</time>
      </trkpt>
      <trkpt lat="50.34965" lon="4.80086">
        <ele>168</ele>
        <time>2025-04-05T07:01:52Z</time>
      </trkpt>
      <trkpt lat="50.34961" lon="4.80079">
        <ele>168.2</ele>
        <time>2025-04-05T07:01:53Z</time>
      </trkpt>
      <trkpt lat="50.34958" lon="4.80072">
        <ele>168.4</ele>
        <time>2025-04-05T07:01:54Z</time>
      </trkpt>
      <trkpt lat="50.34954" lon="4.80065">
        <ele>168.6</ele>
        <time>2025-04-05T07:01:55Z</time>
      </trkpt>
      <trkpt lat="50.3495" lon="4.80059">
        <ele>168.8</ele>
        <time>2025-04-05T07:01:56Z</time>
      </trkpt>
      <trkpt lat="50.34944" lon="4.80051">
        <ele>169</ele>
        <time>2025-04-05T07:01:57Z</time>
      </trkpt>
      <trkpt lat="50.34941" lon="4.80045">
        <ele>169.2</ele>
        <time>2025-04-05T07:01:58Z</time>
      </trkpt>
      <trkpt lat="50.34938" lon="4.8004">
        <ele>169.4</ele>
        <time>2025-04-05T07:01:59Z</time>
      </trkpt>
      <trkpt lat="50.34935" lon="4.80035">
        <ele>169.6</ele>
        <time>2025-04-05T07:02:00Z</time>
      </trkpt>
      <trkpt lat="50.3493" lon="4.80029">
        <ele>169.8</ele>
        <time>2025-04-05T07:02:01Z</time>
      </trkpt>
      <trkpt lat="50.34925" lon="4.80023">
        <ele>169.8</ele>
        <time>2025-04-05T07:02:02Z</time>
      </trkpt>
      <trkpt lat="50.34921" lon="4.80018">
        <ele>170</ele>
        <time>2025-04-05T07:02:03Z</time>
      </trkpt>
      <trkpt lat="50.34918" lon="4.80013">
        <ele>170</ele>
        <time>2025-04-05T07:02:04Z</time>
      </trkpt>
      <trkpt lat="50.34915" lon="4.80009">
        <ele>170.2</ele>
        <time>2025-04-05T07:02:05Z</time>
      </trkpt>
      <trkpt lat="50.34911" lon="4.80003">
        <ele>170.2</ele>
        <time>2025-04-05T07:02:06Z</time>
      </trkpt>
      <trkpt lat="50.34906" lon="4.79996">
        <ele>170.2</ele>
        <time>2025-04-05T07:02:07Z</time>
      </trkpt>
      <trkpt lat="50.34902" lon="4.7999">
        <ele>170.2</ele>
        <time>2025-04-05T07:02:08Z</time>
      </trkpt>
      <trkpt lat="50.34898" lon="4.79985">
        <ele>170.4</ele>
        <time>2025-04-05T07:02:09Z</time>
      </trkpt>
      <trkpt lat="50.34894" lon="4.79981">
        <ele>170.4</ele>
        <time>2025-04-05T07:02:10Z</time>
      </trkpt>
      <trkpt lat="50.34889" lon="4.79975">
        <ele>170.2</ele>
        <time>2025-04-05T07:02:11Z</time>
      </trkpt>
      <trkpt lat="50.34884" lon="4.7997">
        <ele>170.2</ele>
        <time>2025-04-05T07:02:12Z</time>
      </trkpt>
      <trkpt lat="50.34879" lon="4.79965">
        <ele>170.4</ele>
        <time>2025-04-05T07:02:13Z</time>
      </trkpt>
      <trkpt lat="50.34874" lon="4.79961">
        <ele>170.4</ele>
        <time>2025-04-05T07:02:14Z</time>
      </trkpt>
      <trkpt lat="50.34869" lon="4.79956">
        <ele>170.4</ele>
        <time>2025-04-05T07:02:15Z</time>
      </trkpt>
      <trkpt lat="50.34863" lon="4.79952">
        <ele>170.4</ele>
        <time>2025-04-05T07:02:16Z</time>
      </trkpt>
      <trkpt lat="50.34858" lon="4.79948">
        <ele>170.4</ele>
        <time>2025-04-05T07:02:17Z</time>
      </trkpt>
      <trkpt lat="50.34854" lon="4.79944">
        <ele>170.4</ele>
        <time>2025-04-05T07:02:18Z</time>
      </trkpt>
      <trkpt lat="50.3485" lon="4.79941">
        <ele>170.2</ele>
        <time>2025-04-05T07:02:19Z</time>
      </trkpt>
      <trkpt lat="50.34845" lon="4.79937">
        <ele>170.2</ele>
        <time>2025-04-05T07:02:20Z</time>
      </trkpt>
      <trkpt lat="50.34841" lon="4.79933">
        <ele>170.2</ele>
        <time>2025-04-05T07:02:21Z</time>
      </trkpt>
      <trkpt lat="50.34836" lon="4.79929">
        <ele>170.2</ele>
        <time>2025-04-05T07:02:22Z</time>
      </trkpt>
      <trkpt lat="50.34831" lon="4.79924">
        <ele>170.2</ele>
        <time>2025-04-05T07:02:23Z</time>
      </trkpt>
      <trkpt lat="50.34827" lon="4.7992">
        <ele>170.2</ele>
        <time>2025-04-05T07:02:24Z</time>
      </trkpt>
      <trkpt lat="50.34821" lon="4.79916">
        <ele>170</ele>
        <time>2025-04-05T07:02:25Z</time>
      </trkpt>
      <trkpt lat="50.34815" lon="4.79911">
        <ele>170.2</ele>
        <time>2025-04-05T07:02:26Z</time>
      </trkpt>
      <trkpt lat="50.3481" lon="4.79908">
        <ele>170</ele>
        <time>2025-04-05T07:02:27Z</time>
      </trkpt>
      <trkpt lat="50.34805" lon="4.79904">
        <ele>170</ele>
        <time>2025-04-05T07:02:28Z</time>
      </trkpt>
      <trkpt lat="50.348" lon="4.799">
        <ele>170.2</ele>
        <time>2025-04-05T07:02:29Z</time>
      </trkpt>
      <trkpt lat="50.34795" lon="4.79896">
        <ele>170.2</ele>
        <time>2025-04-05T07:02:30Z</time>
      </trkpt>
      <trkpt lat="50.3479" lon="4.79892">
        <ele>170.2</ele>
        <time>2025-04-05T07:02:31Z</time>
      </trkpt>
      <trkpt lat="50.34786" lon="4.79888">
        <ele>170.2</ele>
        <time>2025-04-05T07:02:32Z</time>
      </trkpt>
      <trkpt lat="50.34781" lon="4.79885">
        <ele>170.2</ele>
        <time>2025-04-05T07:02:33Z</time>
      </trkpt>
      <trkpt lat="50.34777" lon="4.79881">
        <ele>170.2</ele>
        <time>2025-04-05T07:02:34Z</time>
      </trkpt>
      <trkpt lat="50.34773" lon="4.79878">
        <ele>170.2</ele>
        <time>2025-04-05T07:02:35Z</time>
      </trkpt>
      <trkpt lat="50.34768" lon="4.79875">
        <ele>170.2</ele>
        <time>2025-04-05T07:02:36Z</time>
      </trkpt>
      <trkpt lat="50.34763" lon="4.79871">
        <ele>170.2</ele>
        <time>2025-04-05T07:02:37Z</time>
      </trkpt>
      <trkpt lat="50.34759" lon="4.79867">
        <ele>170.4</ele>
        <time>2025-04-05T07:02:38Z</time>
      </trkpt>
      <trkpt lat="50.34754" lon="4.79863">
        <ele>170.4</ele>
        <time>2025-04-05T07:02:39Z</time>
      </trkpt>
      <trkpt lat="50.34749" lon="4.7986">
        <ele>170.4</ele>
        <time>2025-04-05T07:02:40Z</time>
      </trkpt>
      <trkpt lat="50.34745" lon="4.79857">
        <ele>170.4</ele>
        <time>2025-04-05T07:02:41Z</time>
      </trkpt>
      <trkpt lat="50.3474" lon="4.79853">
        <ele>170.4</ele>
        <time>2025-04-05T07:02:42Z</time>
      </trkpt>
      <trkpt lat="50.34735" lon="4.79849">
        <ele>170.4</ele>
        <time>2025-04-05T07:02:43Z</time>
      </trkpt>
      <trkpt lat="50.3473" lon="4.79845">
        <ele>170.4</ele>
        <time>2025-04-05T07:02:44Z</time>
      </trkpt>
      <trkpt lat="50.34725" lon="4.79842">
        <ele>170.4</ele>
        <time>2025-04-05T07:02:45Z</time>
      </trkpt>
      <trkpt lat="50.3472" lon="4.79838">
        <ele>170.4</ele>
        <time>2025-04-05T07:02:46Z</time>
      </trkpt>
      <trkpt lat="50.34715" lon="4.79835">
        <ele>170.6</ele>
        <time>2025-04-05T07:02:47Z</time>
      </trkpt>
      <trkpt lat="50.34711" lon="4.79832">
        <ele>170.6</ele>
        <time>2025-04-05T07:02:48Z</time>
      </trkpt>
      <trkpt lat="50.34706" lon="4.7983">
        <ele>170.6</ele>
        <time>2025-04-05T07:02:49Z</time>
      </trkpt>
      <trkpt lat="50.347" lon="4.79828">
        <ele>170.8</ele>
        <time>2025-04-05T07:02:50Z</time>
      </trkpt>
      <trkpt lat="50.34695" lon="4.79826">
        <ele>170.8</ele>
        <time>2025-04-05T07:02:51Z</time>
      </trkpt>
      <trkpt lat="50.3469" lon="4.79824">
        <ele>171</ele>
        <time>2025-04-05T07:02:52Z</time>
      </trkpt>
      <trkpt lat="50.34685" lon="4.79823">
        <ele>171</ele>
        <time>2025-04-05T07:02:53Z</time>
      </trkpt>
      <trkpt lat="50.3468" lon="4.79822">
        <ele>171</ele>
        <time>2025-04-05T07:02:54Z</time>
      </trkpt>
      <trkpt lat="50.34675" lon="4.7982">
        <ele>171.2</ele>
        <time>2025-04-05T07:02:55Z</time>
      </trkpt>
      <trkpt lat="50.3467" lon="4.79819">
        <ele>171.2</ele>
        <time>2025-04-05T07:02:56Z</time>
      </trkpt>
      <trkpt lat="50.34665" lon="4.79817">
        <ele>171.2</ele>
        <time>2025-04-05T07:02:57Z</time>
      </trkpt>
      <trkpt lat="50.34661" lon="4.79815">
        <ele>171.2</ele>
        <time>2025-04-05T07:02:58Z</time>
      </trkpt>
      <trkpt lat="50.34656" lon="4.79813">
        <ele>171.4</ele>
        <time>2025-04-05T07:02:59Z</time>
      </trkpt>
      <trkpt lat="50.34652" lon="4.79812">
        <ele>171.4</ele>
        <time>2025-04-05T07:03:00Z</time>
      </trkpt>
      <trkpt lat="50.34647" lon="4.7981">
        <ele>171.4</ele>
        <time>2025-04-05T07:03:01Z</time>
      </trkpt>
      <trkpt lat="50.34642" lon="4.79809">
        <ele>171.4</ele>
        <time>2025-04-05T07:03:02Z</time>
      </trkpt>
      <trkpt lat="50.34636" lon="4.79808">
        <ele>171.4</ele>
        <time>2025-04-05T07:03:03Z</time>
      </trkpt>
      <trkpt lat="50.3463" lon="4.79807">
        <ele>171.4</ele>
        <time>2025-04-05T07:03:04Z</time>
      </trkpt>
      <trkpt lat="50.34624" lon="4.79805">
        <ele>171.4</ele>
        <time>2025-04-05T07:03:05Z</time>
      </trkpt>
      <trkpt lat="50.34618" lon="4.79803">
        <ele>171.4</ele>
        <time>2025-04-05T07:03:06Z</time>
      </trkpt>
      <trkpt lat="50.34613" lon="4.79802">
        <ele>171.4</ele>
        <time>2025-04-05T07:03:07Z</time>
      </trkpt>
      <trkpt lat="50.34607" lon="4.798">
        <ele>171.4</ele>
        <time>2025-04-05T07:03:08Z</time>
      </trkpt>
      <trkpt lat="50.34602" lon="4.79798">
        <ele>171.4</ele>
        <time>2025-04-05T07:03:09Z</time>
      </trkpt>
      <trkpt lat="50.34597" lon="4.79797">
        <ele>171.4</ele>
        <time>2025-04-05T07:03:10Z</time>
      </trkpt>
      <trkpt lat="50.34591" lon="4.79795">
        <ele>171.4</ele>
        <time>2025-04-05T07:03:11Z</time>
      </trkpt>
      <trkpt lat="50.34586" lon="4.79793">
        <ele>171.4</ele>
        <time>2025-04-05T07:03:12Z</time>
      </trkpt>
      <trkpt lat="50.3458" lon="4.79792">
        <ele>171.4</ele>
        <time>2025-04-05T07:03:13Z</time>
      </trkpt>
      <trkpt lat="50.34575" lon="4.79791">
        <ele>171.4</ele>
        <time>2025-04-05T07:03:14Z</time>
      </trkpt>
      <trkpt lat="50.34569" lon="4.7979">
        <ele>171.4</ele>
        <time>2025-04-05T07:03:15Z</time>
      </trkpt>
      <trkpt lat="50.34564" lon="4.79789">
        <ele>171.4</ele>
        <time>2025-04-05T07:03:16Z</time>
      </trkpt>
      <trkpt lat="50.34558" lon="4.79789">
        <ele>171.6</ele>
        <time>2025-04-05T07:03:17Z</time>
      </trkpt>
      <trkpt lat="50.34552" lon="4.79788">
        <ele>171.6</ele>
        <time>2025-04-05T07:03:18Z</time>
      </trkpt>
      <trkpt lat="50.34547" lon="4.79789">
        <ele>171.6</ele>
        <time>2025-04-05T07:03:19Z</time>
      </trkpt>
      <trkpt lat="50.34542" lon="4.7979">
        <ele>171.8</ele>
        <time>2025-04-05T07:03:20Z</time>
      </trkpt>
      <trkpt lat="50.34538" lon="4.79791">
        <ele>171.8</ele>
        <time>2025-04-05T07:03:21Z</time>
      </trkpt>
      <trkpt lat="50.34533" lon="4.79792">
        <ele>172</ele>
        <time>2025-04-05T07:03:22Z</time>
      </trkpt>
      <trkpt lat="50.34529" lon="4.79793">
        <ele>172</ele>
        <time>2025-04-05T07:03:23Z</time>
      </trkpt>
      <trkpt lat="50.34525" lon="4.79794">
        <ele>172.2</ele>
        <time>2025-04-05T07:03:24Z</time>
      </trkpt>
      <trkpt lat="50.34521" lon="4.79795">
        <ele>172.4</ele>
        <time>2025-04-05T07:03:25Z</time>
      </trkpt>
      <trkpt lat="50.34515" lon="4.79797">
        <ele>172.4</ele>
        <time>2025-04-05T07:03:26Z</time>
      </trkpt>
      <trkpt lat="50.3451" lon="4.798">
        <ele>172.6</ele>
        <time>2025-04-05T07:03:27Z</time>
      </trkpt>
      <trkpt lat="50.34506" lon="4.79804">
        <ele>172.8</ele>
        <time>2025-04-05T07:03:28Z</time>
      </trkpt>
      <trkpt lat="50.34502" lon="4.7981">
        <ele>173</ele>
        <time>2025-04-05T07:03:29Z</time>
      </trkpt>
      <trkpt lat="50.34499" lon="4.79816">
        <ele>173</ele>
        <time>2025-04-05T07:03:30Z</time>
      </trkpt>
      <trkpt lat="50.34496" lon="4.79822">
        <ele>173.2</ele>
        <time>2025-04-05T07:03:31Z</time>
      </trkpt>
      <trkpt lat="50.34493" lon="4.79829">
        <ele>173.4</ele>
        <time>2025-04-05T07:03:32Z</time>
      </trkpt>
      <trkpt lat="50.34491" lon="4.79836">
        <ele>173.6</ele>
        <time>2025-04-05T07:03:33Z</time>
      </trkpt>
      <trkpt lat="50.34489" lon="4.79843">
        <ele>173.8</ele>
        <time>2025-04-05T07:03:34Z</time>
      </trkpt>
      <trkpt lat="50.34486" lon="4.7985">
        <ele>173.8</ele>
        <time>2025-04-05T07:03:35Z</time>
      </trkpt>
      <trkpt lat="50.34483" lon="4.79857">
        <ele>174</ele>
        <time>2025-04-05T07:03:36Z</time>
      </trkpt>
      <trkpt lat="50.34481" lon="4.79865">
        <ele>174.2</ele>
        <time>2025-04-05T07:03:37Z</time>
      </trkpt>
      <trkpt lat="50.34478" lon="4.79872">
        <ele>174.4</ele>
        <time>2025-04-05T07:03:38Z</time>
      </trkpt>
      <trkpt lat="50.34476" lon="4.7988">
        <ele>174.6</ele>
        <time>2025-04-05T07:03:39Z</time>
      </trkpt>
      <trkpt lat="50.34473" lon="4.79887">
        <ele>174.6</ele>
        <time>2025-04-05T07:03:40Z</time>
      </trkpt>
      <trkpt lat="50.34471" lon="4.79894">
        <ele>174.8</ele>
        <time>2025-04-05T07:03:41Z</time>
      </trkpt>
      <trkpt lat="50.34469" lon="4.79901">
        <ele>175</ele>
        <time>2025-04-05T07:03:42Z</time>
      </trkpt>
      <trkpt lat="50.34467" lon="4.79908">
        <ele>175.2</ele>
        <time>2025-04-05T07:03:43Z</time>
      </trkpt>
      <trkpt lat="50.34465" lon="4.79915">
        <ele>175.4</ele>
        <time>2025-04-05T07:03:44Z</time>
      </trkpt>
      <trkpt lat="50.34462" lon="4.79922">
        <ele>175.4</ele>
        <time>2025-04-05T07:03:45Z</time>
      </trkpt>
      <trkpt lat="50.3446" lon="4.79929">
        <ele>175.6</ele>
        <time>2025-04-05T07:03:46Z</time>
      </trkpt>
      <trkpt lat="50.34457" lon="4.79936">
        <ele>175.8</ele>
        <time>2025-04-05T07:03:47Z</time>
      </trkpt>
      <trkpt lat="50.34455" lon="4.79943">
        <ele>176</ele>
        <time>2025-04-05T07:03:48Z</time>
      </trkpt>
      <trkpt lat="50.34452" lon="4.7995">
        <ele>176.2</ele>
        <time>2025-04-05T07:03:49Z</time>
      </trkpt>
      <trkpt lat="50.3445" lon="4.79957">
        <ele>176.2</ele>
        <time>2025-04-05T07:03:50Z</time>
      </trkpt>
      <trkpt lat="50.34448" lon="4.79964">
        <ele>176.4</ele>
        <time>2025-04-05T07:03:51Z</time>
      </trkpt>
      <trkpt lat="50.34446" lon="4.79971">
        <ele>176.6</ele>
        <time>2025-04-05T07:03:52Z</time>
      </trkpt>
      <trkpt lat="50.34444" lon="4.79978">
        <ele>176.8</ele>
        <time>2025-04-05T07:03:53Z</time>
      </trkpt>
      <trkpt lat="50.34442" lon="4.79985">
        <ele>177</ele>
        <time>2025-04-05T07:03:54Z</time>
      </trkpt>
      <trkpt lat="50.3444" lon="4.79991">
        <ele>177.2</ele>
        <time>2025-04-05T07:03:55Z</time>
      </trkpt>
      <trkpt lat="50.34438" lon="4.79998">
        <ele>177.4</ele>
        <time>2025-04-05T07:03:56Z</time>
      </trkpt>
      <trkpt lat="50.34436" lon="4.80004">
        <ele>177.6</ele>
        <time>2025-04-05T07:03:57Z</time>
      </trkpt>
      <trkpt lat="50.34433" lon="4.8001">
        <ele>177.8</ele>
        <time>2025-04-05T07:03:58Z</time>
      </trkpt>
      <trkpt lat="50.34432" lon="4.80016">
        <ele>178</ele>
        <time>2025-04-05T07:03:59Z</time>
      </trkpt>
      <trkpt lat="50.3443" lon="4.80021">
        <ele>178.4</ele>
        <time>2025-04-05T07:04:00Z</time>
      </trkpt>
      <trkpt lat="50.34428" lon="4.80027">
        <ele>178.6</ele>
        <time>2025-04-05T07:04:01Z</time>
      </trkpt>
      <trkpt lat="50.34426" lon="4.80033">
        <ele>178.8</ele>
        <time>2025-04-05T07:04:02Z</time>
      </trkpt>
      <trkpt lat="50.34424" lon="4.80039">
        <ele>178.8</ele>
        <time>2025-04-05T07:04:03Z</time>
      </trkpt>
      <trkpt lat="50.34422" lon="4.80045">
        <ele>179</ele>
        <time>2025-04-05T07:04:04Z</time>
      </trkpt>
      <trkpt lat="50.3442" lon="4.80051">
        <ele>179.2</ele>
        <time>2025-04-05T07:04:05Z</time>
      </trkpt>
      <trkpt lat="50.34419" lon="4.80057">
        <ele>179.4</ele>
        <time>2025-04-05T07:04:06Z</time>
      </trkpt>
      <trkpt lat="50.34417" lon="4.80063">
        <ele>179.6</ele>
        <time>2025-04-05T07:04:07Z</time>
      </trkpt>
      <trkpt lat="50.34415" lon="4.80068">
        <ele>179.8</ele>
        <time>2025-04-05T07:04:08Z</time>
      </trkpt>
      <trkpt lat="50.34413" lon="4.80076">
        <ele>180</ele>
        <time>2025-04-05T07:04:09Z</time>
      </trkpt>
      <trkpt lat="50.34411" lon="4.80083">
        <ele>180.2</ele>
        <time>2025-04-05T07:04:10Z</time>
      </trkpt>
      <trkpt lat="50.34409" lon="4.8009">
        <ele>180.4</ele>
        <time>2025-04-05T07:04:11Z</time>
      </trkpt>
      <trkpt lat="50.34408" lon="4.80097">
        <ele>180.6</ele>
        <time>2025-04-05T07:04:12Z</time>
      </trkpt>
      <trkpt lat="50.34407" lon="4.80104">
        <ele>180.8</ele>
        <time>2025-04-05T07:04:13Z</time>
      </trkpt>
      <trkpt lat="50.34406" lon="4.80112">
        <ele>181.2</ele>
        <time>2025-04-05T07:04:14Z</time>
      </trkpt>
      <trkpt lat="50.34405" lon="4.80119">
        <ele>181.4</ele>
        <time>2025-04-05T07:04:15Z</time>
      </trkpt>
      <trkpt lat="50.34404" lon="4.80126">
        <ele>181.6</ele>
        <time>2025-04-05T07:04:16Z</time>
      </trkpt>
      <trkpt lat="50.34404" lon="4.80133">
        <ele>181.8</ele>
        <time>2025-04-05T07:04:17Z</time>
      </trkpt>
      <trkpt lat="50.34403" lon="4.8014">
        <ele>182</ele>
        <time>2025-04-05T07:04:18Z</time>
      </trkpt>
      <trkpt lat="50.34403" lon="4.80147">
        <ele>182.2</ele>
        <time>2025-04-05T07:04:19Z</time>
      </trkpt>
      <trkpt lat="50.34402" lon="4.80154">
        <ele>182.4</ele>
        <time>2025-04-05T07:04:20Z</time>
      </trkpt>
      <trkpt lat="50.34402" lon="4.8016">
        <ele>182.6</ele>
        <time>2025-04-05T07:04:21Z</time>
      </trkpt>
      <trkpt lat="50.34401" lon="4.80167">
        <ele>182.8</ele>
        <time>2025-04-05T07:04:22Z</time>
      </trkpt>
      <trkpt lat="50.344" lon="4.80174">
        <ele>183</ele>
        <time>2025-04-05T07:04:23Z</time>
      </trkpt>
      <trkpt lat="50.34399" lon="4.8018">
        <ele>183.2</ele>
        <time>2025-04-05T07:04:24Z</time>
      </trkpt>
      <trkpt lat="50.34399" lon="4.80187">
        <ele>183.4</ele>
        <time>2025-04-05T07:04:25Z</time>
      </trkpt>
      <trkpt lat="50.34399" lon="4.80193">
        <ele>183.6</ele>
        <time>2025-04-05T07:04:26Z</time>
      </trkpt>
      <trkpt lat="50.34398" lon="4.80199">
        <ele>183.8</ele>
        <time>2025-04-05T07:04:27Z</time>
      </trkpt>
      <trkpt lat="50.34397" lon="4.80205">
        <ele>184.2</ele>
        <time>2025-04-05T07:04:28Z</time>
      </trkpt>
      <trkpt lat="50.34396" lon="4.80211">
        <ele>184.4</ele>
        <time>2025-04-05T07:04:29Z</time>
      </trkpt>
      <trkpt lat="50.34396" lon="4.80217">
        <ele>184.6</ele>
        <time>2025-04-05T07:04:30Z</time>
      </trkpt>
      <trkpt lat="50.34396" lon="4.80223">
        <ele>184.8</ele>
        <time>2025-04-05T07:04:31Z</time>
      </trkpt>
      <trkpt lat="50.34395" lon="4.8023">
        <ele>185</ele>
        <time>2025-04-05T07:04:32Z</time>
      </trkpt>
      <trkpt lat="50.34395" lon="4.80235">
        <ele>185.2</ele>
        <time>2025-04-05T07:04:33Z</time>
      </trkpt>
      <trkpt lat="50.34395" lon="4.80243">
        <ele>185.2</ele>
        <time>2025-04-05T07:04:34Z</time>
      </trkpt>
      <trkpt lat="50.34394" lon="4.80251">
        <ele>185.4</ele>
        <time>2025-04-05T07:04:35Z</time>
      </trkpt>
      <trkpt lat="50.34394" lon="4.80257">
        <ele>185.6</ele>
        <time>2025-04-05T07:04:36Z</time>
      </trkpt>
      <trkpt lat="50.34394" lon="4.80264">
        <ele>185.6</ele>
        <time>2025-04-05T07:04:37Z</time>
      </trkpt>
      <trkpt lat="50.34395" lon="4.80272">
        <ele>185.6</ele>
        <time>2025-04-05T07:04:38Z</time>
      </trkpt>
      <trkpt lat="50.34396" lon="4.80278">
        <ele>185.8</ele>
        <time>2025-04-05T07:04:39Z</time>
      </trkpt>
      <trkpt lat="50.34396" lon="4.80285">
        <ele>185.8</ele>
        <time>2025-04-05T07:04:40Z</time>
      </trkpt>
      <trkpt lat="50.34397" lon="4.80291">
        <ele>185.8</ele>
        <time>2025-04-05T07:04:41Z</time>
      </trkpt>
      <trkpt lat="50.34398" lon="4.80297">
        <ele>186</ele>
        <time>2025-04-05T07:04:42Z</time>
      </trkpt>
      <trkpt lat="50.34399" lon="4.80305">
        <ele>186</ele>
        <time>2025-04-05T07:04:43Z</time>
      </trkpt>
      <trkpt lat="50.34401" lon="4.80311">
        <ele>186</ele>
        <time>2025-04-05T07:04:44Z</time>
      </trkpt>
      <trkpt lat="50.34402" lon="4.80316">
        <ele>186</ele>
        <time>2025-04-05T07:04:45Z</time>
      </trkpt>
      <trkpt lat="50.34402" lon="4.80323">
        <ele>186</ele>
        <time>2025-04-05T07:04:46Z</time>
      </trkpt>
      <trkpt lat="50.34401" lon="4.80329">
        <ele>186</ele>
        <time>2025-04-05T07:04:47Z</time>
      </trkpt>
      <trkpt lat="50.344" lon="4.80336">
        <ele>186</ele>
        <time>2025-04-05T07:04:48Z</time>
      </trkpt>
      <trkpt lat="50.34396" lon="4.80342">
        <ele>185.8</ele>
        <time>2025-04-05T07:04:49Z</time>
      </trkpt>
      <trkpt lat="50.34393" lon="4.80347">
        <ele>185.8</ele>
        <time>2025-04-05T07:04:50Z</time>
      </trkpt>
      <trkpt lat="50.34389" lon="4.80351">
        <ele>185.8</ele>
        <time>2025-04-05T07:04:51Z</time>
      </trkpt>
      <trkpt lat="50.34385" lon="4.80355">
        <ele>185.8</ele>
        <time>2025-04-05T07:04:52Z</time>
      </trkpt>
      <trkpt lat="50.34381" lon="4.8036">
        <ele>185.8</ele>
        <time>2025-04-05T07:04:53Z</time>
      </trkpt>
      <trkpt lat="50.34376" lon="4.80364">
        <ele>185.8</ele>
        <time>2025-04-05T07:04:54Z</time>
      </trkpt>
      <trkpt lat="50.34372" lon="4.80368">
        <ele>185.8</ele>
        <time>2025-04-05T07:04:55Z</time>
      </trkpt>
      <trkpt lat="50.34368" lon="4.80371">
        <ele>185.8</ele>
        <time>2025-04-05T07:04:56Z</time>
      </trkpt>
      <trkpt lat="50.34362" lon="4.80374">
        <ele>185.8</ele>
        <time>2025-04-05T07:04:57Z</time>
      </trkpt>
      <trkpt lat="50.34357" lon="4.80376">
        <ele>185.8</ele>
        <time>2025-04-05T07:04:58Z</time>
      </trkpt>
      <trkpt lat="50.34353" lon="4.80378">
        <ele>185.8</ele>
        <time>2025-04-05T07:04:59Z</time>
      </trkpt>
      <trkpt lat="50.34348" lon="4.8038">
        <ele>185.8</ele>
        <time>2025-04-05T07:05:00Z</time>
      </trkpt>
      <trkpt lat="50.34343" lon="4.80383">
        <ele>185.8</ele>
        <time>2025-04-05T07:05:01Z</time>
      </trkpt>
      <trkpt lat="50.34337" lon="4.80386">
        <ele>185.8</ele>
        <time>2025-04-05T07:05:02Z</time>
      </trkpt>
      <trkpt lat="50.34331" lon="4.80389">
        <ele>185.8</ele>
        <time>2025-04-05T07:05:03Z</time>
      </trkpt>
      <trkpt lat="50.34326" lon="4.80391">
        <ele>186</ele>
        <time>2025-04-05T07:05:04Z</time>
      </trkpt>
      <trkpt lat="50.34321" lon="4.80393">
        <ele>186</ele>
        <time>2025-04-05T07:05:05Z</time>
      </trkpt>
      <trkpt lat="50.34316" lon="4.80395">
        <ele>186</ele>
        <time>2025-04-05T07:05:06Z</time>
      </trkpt>
      <trkpt lat="50.34311" lon="4.80397">
        <ele>186</ele>
        <time>2025-04-05T07:05:07Z</time>
      </trkpt>
      <trkpt lat="50.34306" lon="4.80399">
        <ele>186.2</ele>
        <time>2025-04-05T07:05:08Z</time>
      </trkpt>
      <trkpt lat="50.343" lon="4.804">
        <ele>186.2</ele>
        <time>2025-04-05T07:05:09Z</time>
      </trkpt>
      <trkpt lat="50.34295" lon="4.804">
        <ele>186.2</ele>
        <time>2025-04-05T07:05:10Z</time>
      </trkpt>
      <trkpt lat="50.3429" lon="4.80401">
        <ele>186.4</ele>
        <time>2025-04-05T07:05:11Z</time>
      </trkpt>
      <trkpt lat="50.34285" lon="4.80401">
        <ele>186.4</ele>
        <time>2025-04-05T07:05:12Z</time>
      </trkpt>
      <trkpt lat="50.3428" lon="4.804">
        <ele>186.6</ele>
        <time>2025-04-05T07:05:13Z</time>
      </trkpt>
      <trkpt lat="50.34274" lon="4.80399">
        <ele>186.6</ele>
        <time>2025-04-05T07:05:14Z</time>
      </trkpt>
      <trkpt lat="50.34269" lon="4.80398">
        <ele>186.8</ele>
        <time>2025-04-05T07:05:15Z</time>
      </trkpt>
      <trkpt lat="50.34264" lon="4.80398">
        <ele>186.8</ele>
        <time>2025-04-05T07:05:16Z</time>
      </trkpt>
      <trkpt lat="50.34259" lon="4.80396">
        <ele>187</ele>
        <time>2025-04-05T07:05:17Z</time>
      </trkpt>
      <trkpt lat="50.34255" lon="4.80395">
        <ele>187</ele>
        <time>2025-04-05T07:05:18Z</time>
      </trkpt>
      <trkpt lat="50.34249" lon="4.80394">
        <ele>187.2</ele>
        <time>2025-04-05T07:05:19Z</time>
      </trkpt>
      <trkpt lat="50.34243" lon="4.80392">
        <ele>187.2</ele>
        <time>2025-04-05T07:05:20Z</time>
      </trkpt>
      <trkpt lat="50.34238" lon="4.8039">
        <ele>187.4</ele>
        <time>2025-04-05T07:05:21Z</time>
      </trkpt>
      <trkpt lat="50.34234" lon="4.80388">
        <ele>187.4</ele>
        <time>2025-04-05T07:05:22Z</time>
      </trkpt>
      <trkpt lat="50.34229" lon="4.80385">
        <ele>187.6</ele>
        <time>2025-04-05T07:05:23Z</time>
      </trkpt>
      <trkpt lat="50.34223" lon="4.80381">
        <ele>187.6</ele>
        <time>2025-04-05T07:05:24Z</time>
      </trkpt>
      <trkpt lat="50.34219" lon="4.80377">
        <ele>187.8</ele>
        <time>2025-04-05T07:05:25Z</time>
      </trkpt>
      <trkpt lat="50.34215" lon="4.80374">
        <ele>187.8</ele>
        <time>2025-04-05T07:05:26Z</time>
      </trkpt>
      <trkpt lat="50.34211" lon="4.80369">
        <ele>188</ele>
        <time>2025-04-05T07:05:27Z</time>
      </trkpt>
      <trkpt lat="50.34207" lon="4.80364">
        <ele>188.2</ele>
        <time>2025-04-05T07:05:28Z</time>
      </trkpt>
      <trkpt lat="50.34203" lon="4.80359">
        <ele>188.2</ele>
        <time>2025-04-05T07:05:29Z</time>
      </trkpt>
      <trkpt lat="50.34199" lon="4.80354">
        <ele>188.4</ele>
        <time>2025-04-05T07:05:30Z</time>
      </trkpt>
      <trkpt lat="50.34196" lon="4.80349">
        <ele>188.6</ele>
        <time>2025-04-05T07:05:31Z</time>
      </trkpt>
      <trkpt lat="50.34192" lon="4.80344">
        <ele>188.8</ele>
        <time>2025-04-05T07:05:32Z</time>
      </trkpt>
      <trkpt lat="50.34188" lon="4.80338">
        <ele>188.8</ele>
        <time>2025-04-05T07:05:33Z</time>
      </trkpt>
      <trkpt lat="50.34185" lon="4.80334">
        <ele>189</ele>
        <time>2025-04-05T07:05:34Z</time>
      </trkpt>
      <trkpt lat="50.34181" lon="4.80329">
        <ele>189.2</ele>
        <time>2025-04-05T07:05:35Z</time>
      </trkpt>
      <trkpt lat="50.34177" lon="4.80324">
        <ele>189.2</ele>
        <time>2025-04-05T07:05:36Z</time>
      </trkpt>
      <trkpt lat="50.34173" lon="4.80319">
        <ele>189.4</ele>
        <time>2025-04-05T07:05:37Z</time>
      </trkpt>
      <trkpt lat="50.34169" lon="4.80313">
        <ele>189.4</ele>
        <time>2025-04-05T07:05:38Z</time>
      </trkpt>
      <trkpt lat="50.34165" lon="4.80308">
        <ele>189.6</ele>
        <time>2025-04-05T07:05:39Z</time>
      </trkpt>
      <trkpt lat="50.34161" lon="4.80302">
        <ele>189.8</ele>
        <time>2025-04-05T07:05:40Z</time>
      </trkpt>
      <trkpt lat="50.34158" lon="4.80298">
        <ele>189.8</ele>
        <time>2025-04-05T07:05:41Z</time>
      </trkpt>
      <trkpt lat="50.34154" lon="4.80293">
        <ele>190</ele>
        <time>2025-04-05T07:05:42Z</time>
      </trkpt>
      <trkpt lat="50.3415" lon="4.80288">
        <ele>190</ele>
        <time>2025-04-05T07:05:43Z</time>
      </trkpt>
      <trkpt lat="50.34146" lon="4.80282">
        <ele>190.2</ele>
        <time>2025-04-05T07:05:44Z</time>
      </trkpt>
      <trkpt lat="50.34142" lon="4.80276">
        <ele>190.4</ele>
        <time>2025-04-05T07:05:45Z</time>
      </trkpt>
      <trkpt lat="50.34138" lon="4.80271">
        <ele>190.4</ele>
        <time>2025-04-05T07:05:46Z</time>
      </trkpt>
      <trkpt lat="50.34134" lon="4.80265">
        <ele>190.6</ele>
        <time>2025-04-05T07:05:47Z</time>
      </trkpt>
      <trkpt lat="50.34129" lon="4.8026">
        <ele>190.8</ele>
        <time>2025-04-05T07:05:48Z</time>
      </trkpt>
      <trkpt lat="50.34125" lon="4.80255">
        <ele>190.8</ele>
        <time>2025-04-05T07:05:49Z</time>
      </trkpt>
      <trkpt lat="50.34121" lon="4.80251">
        <ele>191</ele>
        <time>2025-04-05T07:05:50Z</time>
      </trkpt>
      <trkpt lat="50.34118" lon="4.80247">
        <ele>191.2</ele>
        <time>2025-04-05T07:05:51Z</time>
      </trkpt>
      <trkpt lat="50.34113" lon="4.80242">
        <ele>191.2</ele>
        <time>2025-04-05T07:05:52Z</time>
      </trkpt>
      <trkpt lat="50.34109" lon="4.80238">
        <ele>191.4</ele>
        <time>2025-04-05T07:05:53Z</time>
      </trkpt>
      <trkpt lat="50.34105" lon="4.80235">
        <ele>191.6</ele>
        <time>2025-04-05T07:05:54Z</time>
      </trkpt>
      <trkpt lat="50.34102" lon="4.80232">
        <ele>191.6</ele>
        <time>2025-04-05T07:05:55Z</time>
      </trkpt>
      <trkpt lat="50.34097" lon="4.80228">
        <ele>191.8</ele>
        <time>2025-04-05T07:05:56Z</time>
      </trkpt>
      <trkpt lat="50.34092" lon="4.80224">
        <ele>192</ele>
        <time>2025-04-05T07:05:57Z</time>
      </trkpt>
      <trkpt lat="50.34087" lon="4.8022">
        <ele>192.2</ele>
        <time>2025-04-05T07:05:58Z</time>
      </trkpt>
      <trkpt lat="50.34084" lon="4.80217">
        <ele>192.4</ele>
        <time>2025-04-05T07:05:59Z</time>
      </trkpt>
      <trkpt lat="50.34079" lon="4.80213">
        <ele>192.4</ele>
        <time>2025-04-05T07:06:00Z</time>
      </trkpt>
      <trkpt lat="50.34075" lon="4.80209">
        <ele>192.6</ele>
        <time>2025-04-05T07:06:01Z</time>
      </trkpt>
      <trkpt lat="50.3407" lon="4.80205">
        <ele>192.6</ele>
        <time>2025-04-05T07:06:02Z</time>
      </trkpt>
      <trkpt lat="50.34066" lon="4.80202">
        <ele>192.8</ele>
        <time>2025-04-05T07:06:03Z</time>
      </trkpt>
      <trkpt lat="50.34061" lon="4.80198">
        <ele>192.8</ele>
        <time>2025-04-05T07:06:04Z</time>
      </trkpt>
      <trkpt lat="50.34056" lon="4.80194">
        <ele>192.8</ele>
        <time>2025-04-05T07:06:05Z</time>
      </trkpt>
      <trkpt lat="50.34052" lon="4.8019">
        <ele>193</ele>
        <time>2025-04-05T07:06:06Z</time>
      </trkpt>
      <trkpt lat="50.34047" lon="4.80187">
        <ele>193</ele>
        <time>2025-04-05T07:06:07Z</time>
      </trkpt>
      <trkpt lat="50.34044" lon="4.80184">
        <ele>193</ele>
        <time>2025-04-05T07:06:08Z</time>
      </trkpt>
      <trkpt lat="50.34039" lon="4.8018">
        <ele>193.2</ele>
        <time>2025-04-05T07:06:09Z</time>
      </trkpt>
      <trkpt lat="50.34034" lon="4.80177">
        <ele>193.2</ele>
        <time>2025-04-05T07:06:10Z</time>
      </trkpt>
      <trkpt lat="50.34029" lon="4.80173">
        <ele>193.2</ele>
        <time>2025-04-05T07:06:11Z</time>
      </trkpt>
      <trkpt lat="50.34026" lon="4.80169">
        <ele>193.4</ele>
        <time>2025-04-05T07:06:12Z</time>
      </trkpt>
      <trkpt lat="50.34021" lon="4.80166">
        <ele>193.4</ele>
        <time>2025-04-05T07:06:13Z</time>
      </trkpt>
      <trkpt lat="50.34016" lon="4.80161">
        <ele>193.6</ele>
        <time>2025-04-05T07:06:14Z</time>
      </trkpt>
      <trkpt lat="50.34012" lon="4.80157">
        <ele>193.6</ele>
        <time>2025-04-05T07:06:15Z</time>
      </trkpt>
      <trkpt lat="50.34008" lon="4.80154">
        <ele>193.8</ele>
        <time>2025-04-05T07:06:16Z</time>
      </trkpt>
      <trkpt lat="50.34004" lon="4.8015">
        <ele>193.8</ele>
        <time>2025-04-05T07:06:17Z</time>
      </trkpt>
      <trkpt lat="50.34" lon="4.80146">
        <ele>194</ele>
        <time>2025-04-05T07:06:18Z</time>
      </trkpt>
      <trkpt lat="50.33997" lon="4.80143">
        <ele>194</ele>
        <time>2025-04-05T07:06:19Z</time>
      </trkpt>
      <trkpt lat="50.33992" lon="4.80138">
        <ele>194.2</ele>
        <time>2025-04-05T07:06:20Z</time>
      </trkpt>
      <trkpt lat="50.3399" lon="4.80134">
        <ele>194.4</ele>
        <time>2025-04-05T07:06:21Z</time>
      </trkpt>
      <trkpt lat="50.33986" lon="4.80129">
        <ele>194.4</ele>
        <time>2025-04-05T07:06:22Z</time>
      </trkpt>
      <trkpt lat="50.33983" lon="4.80124">
        <ele>194.6</ele>
        <time>2025-04-05T07:06:23Z</time>
      </trkpt>
      <trkpt lat="50.3398" lon="4.80118">
        <ele>194.8</ele>
        <time>2025-04-05T07:06:24Z</time>
      </trkpt>
      <trkpt lat="50.33976" lon="4.80112">
        <ele>194.8</ele>
        <time>2025-04-05T07:06:25Z</time>
      </trkpt>
      <trkpt lat="50.33974" lon="4.80106">
        <ele>195</ele>
        <time>2025-04-05T07:06:26Z</time>
      </trkpt>
      <trkpt lat="50.3397" lon="4.80101">
        <ele>195.2</ele>
        <time>2025-04-05T07:06:27Z</time>
      </trkpt>
      <trkpt lat="50.33967" lon="4.80095">
        <ele>195.2</ele>
        <time>2025-04-05T07:06:28Z</time>
      </trkpt>
      <trkpt lat="50.33964" lon="4.80089">
        <ele>195.4</ele>
        <time>2025-04-05T07:06:29Z</time>
      </trkpt>
      <trkpt lat="50.33961" lon="4.80083">
        <ele>195.6</ele>
        <time>2025-04-05T07:06:30Z</time>
      </trkpt>
      <trkpt lat="50.33958" lon="4.80077">
        <ele>195.6</ele>
        <time>2025-04-05T07:06:31Z</time>
      </trkpt>
      <trkpt lat="50.33955" lon="4.80071">
        <ele>195.8</ele>
        <time>2025-04-05T07:06:32Z</time>
      </trkpt>
      <trkpt lat="50.33953" lon="4.80065">
        <ele>195.8</ele>
        <time>2025-04-05T07:06:33Z</time>
      </trkpt>
      <trkpt lat="50.3395" lon="4.80059">
        <ele>196</ele>
        <time>2025-04-05T07:06:34Z</time>
      </trkpt>
      <trkpt lat="50.33948" lon="4.80053">
        <ele>196</ele>
        <time>2025-04-05T07:06:35Z</time>
      </trkpt>
      <trkpt lat="50.33946" lon="4.80045">
        <ele>196.2</ele>
        <time>2025-04-05T07:06:36Z</time>
      </trkpt>
      <trkpt lat="50.33944" lon="4.80036">
        <ele>196.4</ele>
        <time>2025-04-05T07:06:37Z</time>
      </trkpt>
      <trkpt lat="50.33942" lon="4.80029">
        <ele>196.4</ele>
        <time>2025-04-05T07:06:38Z</time>
      </trkpt>
      <trkpt lat="50.33941" lon="4.80022">
        <ele>196.6</ele>
        <time>2025-04-05T07:06:39Z</time>
      </trkpt>
      <trkpt lat="50.3394" lon="4.80015">
        <ele>196.8</ele>
        <time>2025-04-05T07:06:40Z</time>
      </trkpt>
      <trkpt lat="50.33938" lon="4.80006">
        <ele>196.8</ele>
        <time>2025-04-05T07:06:41Z</time>
      </trkpt>
      <trkpt lat="50.33937" lon="4.79998">
        <ele>197</ele>
        <time>2025-04-05T07:06:42Z</time>
      </trkpt>
      <trkpt lat="50.33937" lon="4.7999">
        <ele>197</ele>
        <time>2025-04-05T07:06:43Z</time>
      </trkpt>
      <trkpt lat="50.33936" lon="4.79982">
        <ele>197.2</ele>
        <time>2025-04-05T07:06:44Z</time>
      </trkpt>
      <trkpt lat="50.33936" lon="4.79975">
        <ele>197.2</ele>
        <time>2025-04-05T07:06:45Z</time>
      </trkpt>
      <trkpt lat="50.33934" lon="4.79968">
        <ele>197.2</ele>
        <time>2025-04-05T07:06:46Z</time>
      </trkpt>
      <trkpt lat="50.33932" lon="4.7996">
        <ele>197.4</ele>
        <time>2025-04-05T07:06:47Z</time>
      </trkpt>
      <trkpt lat="50.3393" lon="4.79951">
        <ele>197.4</ele>
        <time>2025-04-05T07:06:48Z</time>
      </trkpt>
      <trkpt lat="50.33927" lon="4.79943">
        <ele>197.4</ele>
        <time>2025-04-05T07:06:49Z</time>
      </trkpt>
      <trkpt lat="50.33925" lon="4.79937">
        <ele>197.4</ele>
        <time>2025-04-05T07:06:50Z</time>
      </trkpt>
      <trkpt lat="50.33922" lon="4.7993">
        <ele>197.6</ele>
        <time>2025-04-05T07:06:51Z</time>
      </trkpt>
      <trkpt lat="50.3392" lon="4.79924">
        <ele>197.6</ele>
        <time>2025-04-05T07:06:52Z</time>
      </trkpt>
      <trkpt lat="50.33918" lon="4.79918">
        <ele>197.6</ele>
        <time>2025-04-05T07:06:53Z</time>
      </trkpt>
      <trkpt lat="50.33915" lon="4.79912">
        <ele>197.6</ele>
        <time>2025-04-05T07:06:54Z</time>
      </trkpt>
      <trkpt lat="50.33912" lon="4.79906">
        <ele>197.8</ele>
        <time>2025-04-05T07:06:55Z</time>
      </trkpt>
      <trkpt lat="50.33909" lon="4.79901">
        <ele>197.8</ele>
        <time>2025-04-05T07:06:56Z</time>
      </trkpt>
      <trkpt lat="50.33905" lon="4.79896">
        <ele>197.8</ele>
        <time>2025-04-05T07:06:57Z</time>
      </trkpt>
      <trkpt lat="50.33902" lon="4.79891">
        <ele>197.8</ele>
        <time>2025-04-05T07:06:58Z</time>
      </trkpt>
      <trkpt lat="50.33899" lon="4.79888">
        <ele>198</ele>
        <time>2025-04-05T07:06:59Z</time>
      </trkpt>
      <trkpt lat="50.33894" lon="4.79884">
        <ele>198</ele>
        <time>2025-04-05T07:07:00Z</time>
      </trkpt>
      <trkpt lat="50.33889" lon="4.79881">
        <ele>198</ele>
        <time>2025-04-05T07:07:01Z</time>
      </trkpt>
      <trkpt lat="50.33884" lon="4.79879">
        <ele>198</ele>
        <time>2025-04-05T07:07:02Z</time>
      </trkpt>
      <trkpt lat="50.33879" lon="4.79878">
        <ele>198</ele>
        <time>2025-04-05T07:07:03Z</time>
      </trkpt>
      <trkpt lat="50.33874" lon="4.79877">
        <ele>198.2</ele>
        <time>2025-04-05T07:07:04Z</time>
      </trkpt>
      <trkpt lat="50.33868" lon="4.79877">
        <ele>198.4</ele>
        <time>2025-04-05T07:07:05Z</time>
      </trkpt>
      <trkpt lat="50.33863" lon="4.79877">
        <ele>198.4</ele>
        <time>2025-04-05T07:07:06Z</time>
      </trkpt>
      <trkpt lat="50.33859" lon="4.79877">
        <ele>198.6</ele>
        <time>2025-04-05T07:07:07Z</time>
      </trkpt>
      <trkpt lat="50.33854" lon="4.79877">
        <ele>199</ele>
        <time>2025-04-05T07:07:08Z</time>
      </trkpt>
      <trkpt lat="50.33849" lon="4.79877">
        <ele>199.2</ele>
        <time>2025-04-05T07:07:09Z</time>
      </trkpt>
      <trkpt lat="50.33844" lon="4.79877">
        <ele>199.4</ele>
        <time>2025-04-05T07:07:10Z</time>
      </trkpt>
      <trkpt lat="50.3384" lon="4.79877">
        <ele>199.6</ele>
        <time>2025-04-05T07:07:11Z</time>
      </trkpt>
      <trkpt lat="50.33836" lon="4.79877">
        <ele>199.6</ele>
        <time>2025-04-05T07:07:12Z</time>
      </trkpt>
      <trkpt lat="50.33831" lon="4.79878">
        <ele>199.8</ele>
        <time>2025-04-05T07:07:13Z</time>
      </trkpt>
      <trkpt lat="50.33826" lon="4.79878">
        <ele>199.8</ele>
        <time>2025-04-05T07:07:14Z</time>
      </trkpt>
      <trkpt lat="50.33821" lon="4.79879">
        <ele>200</ele>
        <time>2025-04-05T07:07:15Z</time>
      </trkpt>
      <trkpt lat="50.33817" lon="4.7988">
        <ele>200</ele>
        <time>2025-04-05T07:07:16Z</time>
      </trkpt>
      <trkpt lat="50.33812" lon="4.79881">
        <ele>200</ele>
        <time>2025-04-05T07:07:17Z</time>
      </trkpt>
      <trkpt lat="50.33807" lon="4.79883">
        <ele>200</ele>
        <time>2025-04-05T07:07:18Z</time>
      </trkpt>
      <trkpt lat="50.33802" lon="4.79884">
        <ele>200.2</ele>
        <time>2025-04-05T07:07:19Z</time>
      </trkpt>
      <trkpt lat="50.33798" lon="4.79885">
        <ele>200.2</ele>
        <time>2025-04-05T07:07:20Z</time>
      </trkpt>
      <trkpt lat="50.33792" lon="4.79886">
        <ele>200.2</ele>
        <time>2025-04-05T07:07:21Z</time>
      </trkpt>
      <trkpt lat="50.33787" lon="4.79886">
        <ele>200.2</ele>
        <time>2025-04-05T07:07:22Z</time>
      </trkpt>
      <trkpt lat="50.33782" lon="4.79887">
        <ele>200.2</ele>
        <time>2025-04-05T07:07:23Z</time>
      </trkpt>
      <trkpt lat="50.33777" lon="4.79886">
        <ele>200.2</ele>
        <time>2025-04-05T07:07:24Z</time>
      </trkpt>
      <trkpt lat="50.33772" lon="4.79886">
        <ele>200.2</ele>
        <time>2025-04-05T07:07:25Z</time>
      </trkpt>
      <trkpt lat="50.33767" lon="4.79886">
        <ele>200.2</ele>
        <time>2025-04-05T07:07:26Z</time>
      </trkpt>
      <trkpt lat="50.33761" lon="4.79885">
        <ele>200.2</ele>
        <time>2025-04-05T07:07:27Z</time>
      </trkpt>
      <trkpt lat="50.33756" lon="4.79883">
        <ele>200.2</ele>
        <time>2025-04-05T07:07:28Z</time>
      </trkpt>
      <trkpt lat="50.33752" lon="4.7988">
        <ele>200.4</ele>
        <time>2025-04-05T07:07:29Z</time>
      </trkpt>
      <trkpt lat="50.33746" lon="4.79877">
        <ele>200.4</ele>
        <time>2025-04-05T07:07:30Z</time>
      </trkpt>
      <trkpt lat="50.33742" lon="4.79874">
        <ele>200.4</ele>
        <time>2025-04-05T07:07:31Z</time>
      </trkpt>
      <trkpt lat="50.33738" lon="4.79871">
        <ele>200.6</ele>
        <time>2025-04-05T07:07:32Z</time>
      </trkpt>
      <trkpt lat="50.33734" lon="4.79868">
        <ele>200.6</ele>
        <time>2025-04-05T07:07:33Z</time>
      </trkpt>
      <trkpt lat="50.3373" lon="4.79864">
        <ele>200.8</ele>
        <time>2025-04-05T07:07:34Z</time>
      </trkpt>
      <trkpt lat="50.33727" lon="4.79861">
        <ele>200.8</ele>
        <time>2025-04-05T07:07:35Z</time>
      </trkpt>
      <trkpt lat="50.33722" lon="4.79856">
        <ele>201</ele>
        <time>2025-04-05T07:07:36Z</time>
      </trkpt>
      <trkpt lat="50.33719" lon="4.79852">
        <ele>201.2</ele>
        <time>2025-04-05T07:07:37Z</time>
      </trkpt>
      <trkpt lat="50.33714" lon="4.79848">
        <ele>201.4</ele>
        <time>2025-04-05T07:07:38Z</time>
      </trkpt>
      <trkpt lat="50.3371" lon="4.79844">
        <ele>201.6</ele>
        <time>2025-04-05T07:07:39Z</time>
      </trkpt>
      <trkpt lat="50.33706" lon="4.7984">
        <ele>201.8</ele>
        <time>2025-04-05T07:07:40Z</time>
      </trkpt>
      <trkpt lat="50.33703" lon="4.79837">
        <ele>202</ele>
        <time>2025-04-05T07:07:41Z</time>
      </trkpt>
      <trkpt lat="50.337" lon="4.79834">
        <ele>202.2</ele>
        <time>2025-04-05T07:07:42Z</time>
      </trkpt>
      <trkpt lat="50.33696" lon="4.79829">
        <ele>202.4</ele>
        <time>2025-04-05T07:07:43Z</time>
      </trkpt>
      <trkpt lat="50.33692" lon="4.79826">
        <ele>202.6</ele>
        <time>2025-04-05T07:07:44Z</time>
      </trkpt>
      <trkpt lat="50.33689" lon="4.79822">
        <ele>202.8</ele>
        <time>2025-04-05T07:07:45Z</time>
      </trkpt>
      <trkpt lat="50.33686" lon="4.79819">
        <ele>203.2</ele>
        <time>2025-04-05T07:07:46Z</time>
      </trkpt>
      <trkpt lat="50.33682" lon="4.79815">
        <ele>203.4</ele>
        <time>2025-04-05T07:07:47Z</time>
      </trkpt>
      <trkpt lat="50.33678" lon="4.79811">
        <ele>203.6</ele>
        <time>2025-04-05T07:07:48Z</time>
      </trkpt>
      <trkpt lat="50.33674" lon="4.79808">
        <ele>203.8</ele>
        <time>2025-04-05T07:07:49Z</time>
      </trkpt>
      <trkpt lat="50.3367" lon="4.79805">
        <ele>204</ele>
        <time>2025-04-05T07:07:50Z</time>
      </trkpt>
      <trkpt lat="50.33667" lon="4.79802">
        <ele>204.2</ele>
        <time>2025-04-05T07:07:51Z</time>
      </trkpt>
      <trkpt lat="50.33664" lon="4.79798">
        <ele>204.4</ele>
        <time>2025-04-05T07:07:52Z</time>
      </trkpt>
      <trkpt lat="50.33659" lon="4.79795">
        <ele>204.6</ele>
        <time>2025-04-05T07:07:53Z</time>
      </trkpt>
      <trkpt lat="50.33656" lon="4.79791">
        <ele>204.8</ele>
        <time>2025-04-05T07:07:54Z</time>
      </trkpt>
      <trkpt lat="50.33652" lon="4.79787">
        <ele>205</ele>
        <time>2025-04-05T07:07:55Z</time>
      </trkpt>
      <trkpt lat="50.33649" lon="4.79784">
        <ele>205.2</ele>
        <time>2025-04-05T07:07:56Z</time>
      </trkpt>
      <trkpt lat="50.33645" lon="4.79781">
        <ele>205.6</ele>
        <time>2025-04-05T07:07:57Z</time>
      </trkpt>
      <trkpt lat="50.33641" lon="4.79778">
        <ele>205.8</ele>
        <time>2025-04-05T07:07:58Z</time>
      </trkpt>
      <trkpt lat="50.33638" lon="4.79775">
        <ele>206</ele>
        <time>2025-04-05T07:07:59Z</time>
      </trkpt>
      <trkpt lat="50.33635" lon="4.79772">
        <ele>206.2</ele>
        <time>2025-04-05T07:08:00Z</time>
      </trkpt>
      <trkpt lat="50.33632" lon="4.79768">
        <ele>206.4</ele>
        <time>2025-04-05T07:08:01Z</time>
      </trkpt>
      <trkpt lat="50.33629" lon="4.79765">
        <ele>206.6</ele>
        <time>2025-04-05T07:08:02Z</time>
      </trkpt>
      <trkpt lat="50.33625" lon="4.79761">
        <ele>206.8</ele>
        <time>2025-04-05T07:08:03Z</time>
      </trkpt>
      <trkpt lat="50.33622" lon="4.79758">
        <ele>207</ele>
        <time>2025-04-05T07:08:04Z</time>
      </trkpt>
      <trkpt lat="50.33618" lon="4.79754">
        <ele>207.4</ele>
        <time>2025-04-05T07:08:05Z</time>
      </trkpt>
      <trkpt lat="50.33614" lon="4.7975">
        <ele>207.6</ele>
        <time>2025-04-05T07:08:06Z</time>
      </trkpt>
      <trkpt lat="50.3361" lon="4.79746">
        <ele>207.8</ele>
        <time>2025-04-05T07:08:07Z</time>
      </trkpt>
      <trkpt lat="50.33606" lon="4.79742">
        <ele>208</ele>
        <time>2025-04-05T07:08:08Z</time>
      </trkpt>
      <trkpt lat="50.33603" lon="4.79738">
        <ele>208.2</ele>
        <time>2025-04-05T07:08:09Z</time>
      </trkpt>
      <trkpt lat="50.336" lon="4.79734">
        <ele>208.4</ele>
        <time>2025-04-05T07:08:10Z</time>
      </trkpt>
      <trkpt lat="50.33596" lon="4.79731">
        <ele>208.6</ele>
        <time>2025-04-05T07:08:11Z</time>
      </trkpt>
      <trkpt lat="50.33593" lon="4.79728">
        <ele>208.8</ele>
        <time>2025-04-05T07:08:12Z</time>
      </trkpt>
      <trkpt lat="50.3359" lon="4.79724">
        <ele>209</ele>
        <time>2025-04-05T07:08:13Z</time>
      </trkpt>
      <trkpt lat="50.33587" lon="4.79721">
        <ele>209.4</ele>
        <time>2025-04-05T07:08:14Z</time>
      </trkpt>
      <trkpt lat="50.33582" lon="4.79718">
        <ele>209.6</ele>
        <time>2025-04-05T07:08:15Z</time>
      </trkpt>
      <trkpt lat="50.33579" lon="4.79714">
        <ele>209.8</ele>
        <time>2025-04-05T07:08:16Z</time>
      </trkpt>
      <trkpt lat="50.33575" lon="4.79711">
        <ele>209.8</ele>
        <time>2025-04-05T07:08:17Z</time>
      </trkpt>
      <trkpt lat="50.33571" lon="4.79708">
        <ele>210</ele>
        <time>2025-04-05T07:08:18Z</time>
      </trkpt>
      <trkpt lat="50.33567" lon="4.79706">
        <ele>210.2</ele>
        <time>2025-04-05T07:08:19Z</time>
      </trkpt>
      <trkpt lat="50.33563" lon="4.79704">
        <ele>210.6</ele>
        <time>2025-04-05T07:08:20Z</time>
      </trkpt>
      <trkpt lat="50.33559" lon="4.79703">
        <ele>210.8</ele>
        <time>2025-04-05T07:08:21Z</time>
      </trkpt>
      <trkpt lat="50.33556" lon="4.79702">
        <ele>210.8</ele>
        <time>2025-04-05T07:08:22Z</time>
      </trkpt>
      <trkpt lat="50.33551" lon="4.79701">
        <ele>211</ele>
        <time>2025-04-05T07:08:23Z</time>
      </trkpt>
      <trkpt lat="50.33547" lon="4.797">
        <ele>211.2</ele>
        <time>2025-04-05T07:08:24Z</time>
      </trkpt>
      <trkpt lat="50.33543" lon="4.797">
        <ele>211.2</ele>
        <time>2025-04-05T07:08:25Z</time>
      </trkpt>
      <trkpt lat="50.3354" lon="4.797">
        <ele>211.4</ele>
        <time>2025-04-05T07:08:26Z</time>
      </trkpt>
      <trkpt lat="50.33535" lon="4.79699">
        <ele>211.4</ele>
        <time>2025-04-05T07:08:27Z</time>
      </trkpt>
      <trkpt lat="50.33531" lon="4.79699">
        <ele>211.6</ele>
        <time>2025-04-05T07:08:28Z</time>
      </trkpt>
      <trkpt lat="50.33526" lon="4.79698">
        <ele>211.6</ele>
        <time>2025-04-05T07:08:29Z</time>
      </trkpt>
      <trkpt lat="50.33522" lon="4.79698">
        <ele>211.8</ele>
        <time>2025-04-05T07:08:30Z</time>
      </trkpt>
      <trkpt lat="50.33518" lon="4.79698">
        <ele>211.8</ele>
        <time>2025-04-05T07:08:31Z</time>
      </trkpt>
      <trkpt lat="50.33513" lon="4.79697">
        <ele>212</ele>
        <time>2025-04-05T07:08:32Z</time>
      </trkpt>
      <trkpt lat="50.33509" lon="4.79697">
        <ele>212</ele>
        <time>2025-04-05T07:08:33Z</time>
      </trkpt>
      <trkpt lat="50.33505" lon="4.79696">
        <ele>212</ele>
        <time>2025-04-05T07:08:34Z</time>
      </trkpt>
      <trkpt lat="50.33501" lon="4.79696">
        <ele>212</ele>
        <time>2025-04-05T07:08:35Z</time>
      </trkpt>
      <trkpt lat="50.33497" lon="4.79695">
        <ele>212.2</ele>
        <time>2025-04-05T07:08:36Z</time>
      </trkpt>
      <trkpt lat="50.33492" lon="4.79695">
        <ele>212.2</ele>
        <time>2025-04-05T07:08:37Z</time>
      </trkpt>
      <trkpt lat="50.33487" lon="4.79694">
        <ele>212.4</ele>
        <time>2025-04-05T07:08:38Z</time>
      </trkpt>
      <trkpt lat="50.33483" lon="4.79694">
        <ele>212.4</ele>
        <time>2025-04-05T07:08:39Z</time>
      </trkpt>
      <trkpt lat="50.33479" lon="4.79693">
        <ele>212.4</ele>
        <time>2025-04-05T07:08:40Z</time>
      </trkpt>
      <trkpt lat="50.33475" lon="4.79692">
        <ele>212.6</ele>
        <time>2025-04-05T07:08:41Z</time>
      </trkpt>
      <trkpt lat="50.33471" lon="4.79691">
        <ele>212.6</ele>
        <time>2025-04-05T07:08:42Z</time>
      </trkpt>
      <trkpt lat="50.33466" lon="4.79691">
        <ele>212.8</ele>
        <time>2025-04-05T07:08:43Z</time>
      </trkpt>
      <trkpt lat="50.33462" lon="4.7969">
        <ele>212.8</ele>
        <time>2025-04-05T07:08:44Z</time>
      </trkpt>
      <trkpt lat="50.33457" lon="4.79689">
        <ele>213</ele>
        <time>2025-04-05T07:08:45Z</time>
      </trkpt>
      <trkpt lat="50.33453" lon="4.79687">
        <ele>213</ele>
        <time>2025-04-05T07:08:46Z</time>
      </trkpt>
      <trkpt lat="50.33449" lon="4.79685">
        <ele>213</ele>
        <time>2025-04-05T07:08:47Z</time>
      </trkpt>
      <trkpt lat="50.33445" lon="4.79684">
        <ele>213.2</ele>
        <time>2025-04-05T07:08:48Z</time>
      </trkpt>
      <trkpt lat="50.3344" lon="4.79684">
        <ele>213.2</ele>
        <time>2025-04-05T07:08:49Z</time>
      </trkpt>
      <trkpt lat="50.33436" lon="4.79684">
        <ele>213.4</ele>
        <time>2025-04-05T07:08:50Z</time>
      </trkpt>
      <trkpt lat="50.33432" lon="4.79684">
        <ele>213.6</ele>
        <time>2025-04-05T07:08:51Z</time>
      </trkpt>
      <trkpt lat="50.33428" lon="4.79684">
        <ele>213.6</ele>
        <time>2025-04-05T07:08:52Z</time>
      </trkpt>
      <trkpt lat="50.33426" lon="4.79684">
        <ele>213.6</ele>
        <time>2025-04-05T07:08:53Z</time>
      </trkpt>
      <trkpt lat="50.33422" lon="4.79684">
        <ele>213.8</ele>
        <time>2025-04-05T07:08:54Z</time>
      </trkpt>
      <trkpt lat="50.33419" lon="4.79684">
        <ele>214</ele>
        <time>2025-04-05T07:08:55Z</time>
      </trkpt>
      <trkpt lat="50.33415" lon="4.79684">
        <ele>214</ele>
        <time>2025-04-05T07:08:56Z</time>
      </trkpt>
      <trkpt lat="50.33411" lon="4.79684">
        <ele>214.2</ele>
        <time>2025-04-05T07:08:57Z</time>
      </trkpt>
      <trkpt lat="50.33408" lon="4.79684">
        <ele>214.2</ele>
        <time>2025-04-05T07:08:58Z</time>
      </trkpt>
      <trkpt lat="50.33405" lon="4.79684">
        <ele>214.4</ele>
        <time>2025-04-05T07:08:59Z</time>
      </trkpt>
      <trkpt lat="50.33401" lon="4.79683">
        <ele>214.4</ele>
        <time>2025-04-05T07:09:00Z</time>
      </trkpt>
      <trkpt lat="50.33398" lon="4.79682">
        <ele>214.4</ele>
        <time>2025-04-05T07:09:01Z</time>
      </trkpt>
      <trkpt lat="50.33395" lon="4.79681">
        <ele>214.6</ele>
        <time>2025-04-05T07:09:02Z</time>
      </trkpt>
      <trkpt lat="50.33392" lon="4.79678">
        <ele>214.6</ele>
        <time>2025-04-05T07:09:03Z</time>
      </trkpt>
      <trkpt lat="50.33389" lon="4.79674">
        <ele>214.6</ele>
        <time>2025-04-05T07:09:04Z</time>
      </trkpt>
      <trkpt lat="50.33387" lon="4.79669">
        <ele>214.6</ele>
        <time>2025-04-05T07:09:05Z</time>
      </trkpt>
      <trkpt lat="50.33384" lon="4.79665">
        <ele>214.6</ele>
        <time>2025-04-05T07:09:06Z</time>
      </trkpt>
      <trkpt lat="50.33382" lon="4.7966">
        <ele>214.6</ele>
        <time>2025-04-05T07:09:07Z</time>
      </trkpt>
      <trkpt lat="50.33379" lon="4.79654">
        <ele>214.6</ele>
        <time>2025-04-05T07:09:08Z</time>
      </trkpt>
      <trkpt lat="50.33377" lon="4.79649">
        <ele>214.8</ele>
        <time>2025-04-05T07:09:09Z</time>
      </trkpt>
      <trkpt lat="50.33374" lon="4.79643">
        <ele>214.8</ele>
        <time>2025-04-05T07:09:10Z</time>
      </trkpt>
      <trkpt lat="50.33371" lon="4.79637">
        <ele>214.8</ele>
        <time>2025-04-05T07:09:11Z</time>
      </trkpt>
      <trkpt lat="50.33369" lon="4.79631">
        <ele>214.8</ele>
        <time>2025-04-05T07:09:12Z</time>
      </trkpt>
      <trkpt lat="50.33366" lon="4.79625">
        <ele>215</ele>
        <time>2025-04-05T07:09:13Z</time>
      </trkpt>
      <trkpt lat="50.33364" lon="4.79618">
        <ele>215</ele>
        <time>2025-04-05T07:09:14Z</time>
      </trkpt>
      <trkpt lat="50.33362" lon="4.79611">
        <ele>215.2</ele>
        <time>2025-04-05T07:09:15Z</time>
      </trkpt>
      <trkpt lat="50.33361" lon="4.79604">
        <ele>215.2</ele>
        <time>2025-04-05T07:09:16Z</time>
      </trkpt>
      <trkpt lat="50.3336" lon="4.79596">
        <ele>215.2</ele>
        <time>2025-04-05T07:09:17Z</time>
      </trkpt>
      <trkpt lat="50.33358" lon="4.79588">
        <ele>215.4</ele>
        <time>2025-04-05T07:09:18Z</time>
      </trkpt>
      <trkpt lat="50.33358" lon="4.79583">
        <ele>215.6</ele>
        <time>2025-04-05T07:09:19Z</time>
      </trkpt>
      <trkpt lat="50.33357" lon="4.79579">
        <ele>215.6</ele>
        <time>2025-04-05T07:09:20Z</time>
      </trkpt>
      <trkpt lat="50.33356" lon="4.79574">
        <ele>215.8</ele>
        <time>2025-04-05T07:09:21Z</time>
      </trkpt>
      <trkpt lat="50.33355" lon="4.7957">
        <ele>215.8</ele>
        <time>2025-04-05T07:09:22Z</time>
      </trkpt>
      <trkpt lat="50.33355" lon="4.79566">
        <ele>215.8</ele>
        <time>2025-04-05T07:09:23Z</time>
      </trkpt>
      <trkpt lat="50.33355" lon="4.79561">
        <ele>216</ele>
        <time>2025-04-05T07:09:24Z</time>
      </trkpt>
      <trkpt lat="50.33352" lon="4.79556">
        <ele>216</ele>
        <time>2025-04-05T07:09:25Z</time>
      </trkpt>
      <trkpt lat="50.33348" lon="4.79553">
        <ele>216</ele>
        <time>2025-04-05T07:09:26Z</time>
      </trkpt>
      <trkpt lat="50.33344" lon="4.79553">
        <ele>216.2</ele>
        <time>2025-04-05T07:09:27Z</time>
      </trkpt>
      <trkpt lat="50.3334" lon="4.79554">
        <ele>216.2</ele>
        <time>2025-04-05T07:09:28Z</time>
      </trkpt>
      <trkpt lat="50.33337" lon="4.79556">
        <ele>216.2</ele>
        <time>2025-04-05T07:09:29Z</time>
      </trkpt>
      <trkpt lat="50.33333" lon="4.79557">
        <ele>216.2</ele>
        <time>2025-04-05T07:09:30Z</time>
      </trkpt>
      <trkpt lat="50.33329" lon="4.79559">
        <ele>216</ele>
        <time>2025-04-05T07:09:31Z</time>
      </trkpt>
      <trkpt lat="50.33324" lon="4.79561">
        <ele>215.8</ele>
        <time>2025-04-05T07:09:32Z</time>
      </trkpt>
      <trkpt lat="50.33321" lon="4.79563">
        <ele>215.6</ele>
        <time>2025-04-05T07:09:33Z</time>
      </trkpt>
      <trkpt lat="50.33316" lon="4.79565">
        <ele>215.4</ele>
        <time>2025-04-05T07:09:34Z</time>
      </trkpt>
      <trkpt lat="50.33312" lon="4.79567">
        <ele>215</ele>
        <time>2025-04-05T07:09:35Z</time>
      </trkpt>
      <trkpt lat="50.33308" lon="4.7957">
        <ele>214.6</ele>
        <time>2025-04-05T07:09:36Z</time>
      </trkpt>
      <trkpt lat="50.33302" lon="4.79573">
        <ele>214.2</ele>
        <time>2025-04-05T07:09:37Z</time>
      </trkpt>
      <trkpt lat="50.33297" lon="4.79576">
        <ele>213.8</ele>
        <time>2025-04-05T07:09:38Z</time>
      </trkpt>
      <trkpt lat="50.33291" lon="4.79579">
        <ele>213.4</ele>
        <time>2025-04-05T07:09:39Z</time>
      </trkpt>
      <trkpt lat="50.33284" lon="4.79581">
        <ele>212.8</ele>
        <time>2025-04-05T07:09:40Z</time>
      </trkpt>
      <trkpt lat="50.33278" lon="4.79583">
        <ele>212.2</ele>
        <time>2025-04-05T07:09:41Z</time>
      </trkpt>
      <trkpt lat="50.33272" lon="4.79586">
        <ele>211.6</ele>
        <time>2025-04-05T07:09:42Z</time>
      </trkpt>
      <trkpt lat="50.33266" lon="4.79588">
        <ele>211</ele>
        <time>2025-04-05T07:09:43Z</time>
      </trkpt>
      <trkpt lat="50.3326" lon="4.79591">
        <ele>210.4</ele>
        <time>2025-04-05T07:09:44Z</time>
      </trkpt>
      <trkpt lat="50.33254" lon="4.79593">
        <ele>209.8</ele>
        <time>2025-04-05T07:09:45Z</time>
      </trkpt>
      <trkpt lat="50.33247" lon="4.79596">
        <ele>209.2</ele>
        <time>2025-04-05T07:09:46Z</time>
      </trkpt>
      <trkpt lat="50.3324" lon="4.79599">
        <ele>208.6</ele>
        <time>2025-04-05T07:09:47Z</time>
      </trkpt>
      <trkpt lat="50.33233" lon="4.79602">
        <ele>208</ele>
        <time>2025-04-05T07:09:48Z</time>
      </trkpt>
      <trkpt lat="50.33226" lon="4.79604">
        <ele>207.8</ele>
        <time>2025-04-05T07:09:49Z</time>
      </trkpt>
      <trkpt lat="50.33219" lon="4.79606">
        <ele>207.4</ele>
        <time>2025-04-05T07:09:50Z</time>
      </trkpt>
      <trkpt lat="50.33212" lon="4.79607">
        <ele>207.2</ele>
        <time>2025-04-05T07:09:51Z</time>
      </trkpt>
      <trkpt lat="50.33204" lon="4.79608">
        <ele>207</ele>
        <time>2025-04-05T07:09:52Z</time>
      </trkpt>
      <trkpt lat="50.33197" lon="4.79608">
        <ele>206.8</ele>
        <time>2025-04-05T07:09:53Z</time>
      </trkpt>
      <trkpt lat="50.33192" lon="4.79608">
        <ele>206.6</ele>
        <time>2025-04-05T07:09:54Z</time>
      </trkpt>
      <trkpt lat="50.33185" lon="4.79608">
        <ele>206.6</ele>
        <time>2025-04-05T07:09:55Z</time>
      </trkpt>
      <trkpt lat="50.33178" lon="4.79608">
        <ele>206.6</ele>
        <time>2025-04-05T07:09:56Z</time>
      </trkpt>
      <trkpt lat="50.33171" lon="4.79608">
        <ele>206.6</ele>
        <time>2025-04-05T07:09:57Z</time>
      </trkpt>
      <trkpt lat="50.33165" lon="4.79609">
        <ele>206.6</ele>
        <time>2025-04-05T07:09:58Z</time>
      </trkpt>
      <trkpt lat="50.33159" lon="4.7961">
        <ele>206.8</ele>
        <time>2025-04-05T07:09:59Z</time>
      </trkpt>
      <trkpt lat="50.33153" lon="4.7961">
        <ele>206.8</ele>
        <time>2025-04-05T07:10:00Z</time>
      </trkpt>
      <trkpt lat="50.33147" lon="4.79611">
        <ele>207</ele>
        <time>2025-04-05T07:10:01Z</time>
      </trkpt>
      <trkpt lat="50.33142" lon="4.79611">
        <ele>207</ele>
        <time>2025-04-05T07:10:02Z</time>
      </trkpt>
      <trkpt lat="50.33137" lon="4.79611">
        <ele>207.2</ele>
        <time>2025-04-05T07:10:03Z</time>
      </trkpt>
      <trkpt lat="50.33132" lon="4.79611">
        <ele>207.4</ele>
        <time>2025-04-05T07:10:04Z</time>
      </trkpt>
      <trkpt lat="50.33128" lon="4.79611">
        <ele>207.8</ele>
        <time>2025-04-05T07:10:05Z</time>
      </trkpt>
      <trkpt lat="50.33123" lon="4.79611">
        <ele>208</ele>
        <time>2025-04-05T07:10:06Z</time>
      </trkpt>
      <trkpt lat="50.33117" lon="4.79613">
        <ele>208.4</ele>
        <time>2025-04-05T07:10:07Z</time>
      </trkpt>
      <trkpt lat="50.33113" lon="4.79613">
        <ele>208.6</ele>
        <time>2025-04-05T07:10:08Z</time>
      </trkpt>
      <trkpt lat="50.33109" lon="4.79613">
        <ele>209</ele>
        <time>2025-04-05T07:10:09Z</time>
      </trkpt>
      <trkpt lat="50.33105" lon="4.79612">
        <ele>209.2</ele>
        <time>2025-04-05T07:10:10Z</time>
      </trkpt>
      <trkpt lat="50.33102" lon="4.79612">
        <ele>209.6</ele>
        <time>2025-04-05T07:10:11Z</time>
      </trkpt>
      <trkpt lat="50.33098" lon="4.79612">
        <ele>210</ele>
        <time>2025-04-05T07:10:12Z</time>
      </trkpt>
      <trkpt lat="50.33095" lon="4.79611">
        <ele>210.2</ele>
        <time>2025-04-05T07:10:13Z</time>
      </trkpt>
      <trkpt lat="50.33092" lon="4.79611">
        <ele>210.6</ele>
        <time>2025-04-05T07:10:14Z</time>
      </trkpt>
      <trkpt lat="50.33088" lon="4.79611">
        <ele>211</ele>
        <time>2025-04-05T07:10:15Z</time>
      </trkpt>
      <trkpt lat="50.33085" lon="4.79611">
        <ele>211.2</ele>
        <time>2025-04-05T07:10:16Z</time>
      </trkpt>
      <trkpt lat="50.33082" lon="4.79611">
        <ele>211.6</ele>
        <time>2025-04-05T07:10:17Z</time>
      </trkpt>
      <trkpt lat="50.33078" lon="4.79612">
        <ele>212</ele>
        <time>2025-04-05T07:10:18Z</time>
      </trkpt>
      <trkpt lat="50.33075" lon="4.79612">
        <ele>212.2</ele>
        <time>2025-04-05T07:10:19Z</time>
      </trkpt>
      <trkpt lat="50.33071" lon="4.79613">
        <ele>212.6</ele>
        <time>2025-04-05T07:10:20Z</time>
      </trkpt>
      <trkpt lat="50.33068" lon="4.79614">
        <ele>213</ele>
        <time>2025-04-05T07:10:21Z</time>
      </trkpt>
      <trkpt lat="50.33064" lon="4.79615">
        <ele>213.2</ele>
        <time>2025-04-05T07:10:22Z</time>
      </trkpt>
      <trkpt lat="50.33062" lon="4.79616">
        <ele>213.6</ele>
        <time>2025-04-05T07:10:23Z</time>
      </trkpt>
      <trkpt lat="50.33059" lon="4.79616">
        <ele>213.8</ele>
        <time>2025-04-05T07:10:24Z</time>
      </trkpt>
      <trkpt lat="50.33056" lon="4.79617">
        <ele>214.2</ele>
        <time>2025-04-05T07:10:25Z</time>
      </trkpt>
      <trkpt lat="50.33052" lon="4.79618">
        <ele>214.4</ele>
        <time>2025-04-05T07:10:26Z</time>
      </trkpt>
      <trkpt lat="50.33049" lon="4.79618">
        <ele>214.6</ele>
        <time>2025-04-05T07:10:27Z</time>
      </trkpt>
      <trkpt lat="50.33046" lon="4.79619">
        <ele>214.8</ele>
        <time>2025-04-05T07:10:28Z</time>
      </trkpt>
      <trkpt lat="50.33043" lon="4.79619">
        <ele>215</ele>
        <time>2025-04-05T07:10:29Z</time>
      </trkpt>
      <trkpt lat="50.33039" lon="4.7962">
        <ele>215.2</ele>
        <time>2025-04-05T07:10:30Z</time>
      </trkpt>
      <trkpt lat="50.33036" lon="4.79621">
        <ele>215.6</ele>
        <time>2025-04-05T07:10:31Z</time>
      </trkpt>
      <trkpt lat="50.33033" lon="4.79622">
        <ele>215.8</ele>
        <time>2025-04-05T07:10:32Z</time>
      </trkpt>
      <trkpt lat="50.3303" lon="4.79622">
        <ele>216</ele>
        <time>2025-04-05T07:10:33Z</time>
      </trkpt>
      <trkpt lat="50.33027" lon="4.79623">
        <ele>216.4</ele>
        <time>2025-04-05T07:10:34Z</time>
      </trkpt>
      <trkpt lat="50.33024" lon="4.79623">
        <ele>216.6</ele>
        <time>2025-04-05T07:10:35Z</time>
      </trkpt>
      <trkpt lat="50.33021" lon="4.79623">
        <ele>216.8</ele>
        <time>2025-04-05T07:10:36Z</time>
      </trkpt>
      <trkpt lat="50.33018" lon="4.79624">
        <ele>217.2</ele>
        <time>2025-04-05T07:10:37Z</time>
      </trkpt>
      <trkpt lat="50.33015" lon="4.79625">
        <ele>217.4</ele>
        <time>2025-04-05T07:10:38Z</time>
      </trkpt>
      <trkpt lat="50.33012" lon="4.79626">
        <ele>217.8</ele>
        <time>2025-04-05T07:10:39Z</time>
      </trkpt>
      <trkpt lat="50.33009" lon="4.79627">
        <ele>218.2</ele>
        <time>2025-04-05T07:10:40Z</time>
      </trkpt>
      <trkpt lat="50.33006" lon="4.79629">
        <ele>218.4</ele>
        <time>2025-04-05T07:10:41Z</time>
      </trkpt>
      <trkpt lat="50.33003" lon="4.79631">
        <ele>218.8</ele>
        <time>2025-04-05T07:10:42Z</time>
      </trkpt>
      <trkpt lat="50.33001" lon="4.79633">
        <ele>219.2</ele>
        <time>2025-04-05T07:10:43Z</time>
      </trkpt>
      <trkpt lat="50.32998" lon="4.79634">
        <ele>219.4</ele>
        <time>2025-04-05T07:10:44Z</time>
      </trkpt>
      <trkpt lat="50.32996" lon="4.79636">
        <ele>219.8</ele>
        <time>2025-04-05T07:10:45Z</time>
      </trkpt>
      <trkpt lat="50.32993" lon="4.79638">
        <ele>220.2</ele>
        <time>2025-04-05T07:10:46Z</time>
      </trkpt>
      <trkpt lat="50.3299" lon="4.79641">
        <ele>220.4</ele>
        <time>2025-04-05T07:10:47Z</time>
      </trkpt>
      <trkpt lat="50.32987" lon="4.79644">
        <ele>220.8</ele>
        <time>2025-04-05T07:10:48Z</time>
      </trkpt>
      <trkpt lat="50.32985" lon="4.79646">
        <ele>221</ele>
        <time>2025-04-05T07:10:49Z</time>
      </trkpt>
      <trkpt lat="50.32982" lon="4.79649">
        <ele>221.2</ele>
        <time>2025-04-05T07:10:50Z</time>
      </trkpt>
      <trkpt lat="50.3298" lon="4.7965">
        <ele>221.6</ele>
        <time>2025-04-05T07:10:51Z</time>
      </trkpt>
      <trkpt lat="50.32977" lon="4.79652">
        <ele>221.8</ele>
        <time>2025-04-05T07:10:52Z</time>
      </trkpt>
      <trkpt lat="50.32974" lon="4.79654">
        <ele>222</ele>
        <time>2025-04-05T07:10:53Z</time>
      </trkpt>
      <trkpt lat="50.3297" lon="4.79655">
        <ele>222.4</ele>
        <time>2025-04-05T07:10:54Z</time>
      </trkpt>
      <trkpt lat="50.32968" lon="4.79657">
        <ele>222.6</ele>
        <time>2025-04-05T07:10:55Z</time>
      </trkpt>
      <trkpt lat="50.32965" lon="4.79659">
        <ele>222.8</ele>
        <time>2025-04-05T07:10:56Z</time>
      </trkpt>
      <trkpt lat="50.32962" lon="4.7966">
        <ele>223</ele>
        <time>2025-04-05T07:10:57Z</time>
      </trkpt>
      <trkpt lat="50.3296" lon="4.79662">
        <ele>223.2</ele>
        <time>2025-04-05T07:10:58Z</time>
      </trkpt>
      <trkpt lat="50.32957" lon="4.79663">
        <ele>223.4</ele>
        <time>2025-04-05T07:10:59Z</time>
      </trkpt>
      <trkpt lat="50.32954" lon="4.79664">
        <ele>223.6</ele>
        <time>2025-04-05T07:11:00Z</time>
      </trkpt>
      <trkpt lat="50.32951" lon="4.79666">
        <ele>223.8</ele>
        <time>2025-04-05T07:11:01Z</time>
      </trkpt>
      <trkpt lat="50.32948" lon="4.79667">
        <ele>224</ele>
        <time>2025-04-05T07:11:02Z</time>
      </trkpt>
      <trkpt lat="50.32946" lon="4.79668">
        <ele>224.2</ele>
        <time>2025-04-05T07:11:03Z</time>
      </trkpt>
      <trkpt lat="50.32943" lon="4.7967">
        <ele>224.4</ele>
        <time>2025-04-05T07:11:04Z</time>
      </trkpt>
      <trkpt lat="50.3294" lon="4.79671">
        <ele>224.6</ele>
        <time>2025-04-05T07:11:05Z</time>
      </trkpt>
      <trkpt lat="50.32937" lon="4.79672">
        <ele>224.8</ele>
        <time>2025-04-05T07:11:06Z</time>
      </trkpt>
      <trkpt lat="50.32934" lon="4.79674">
        <ele>225</ele>
        <time>2025-04-05T07:11:07Z</time>
      </trkpt>
      <trkpt lat="50.32932" lon="4.79675">
        <ele>225.2</ele>
        <time>2025-04-05T07:11:08Z</time>
      </trkpt>
      <trkpt lat="50.32928" lon="4.79676">
        <ele>225.4</ele>
        <time>2025-04-05T07:11:09Z</time>
      </trkpt>
      <trkpt lat="50.32925" lon="4.79678">
        <ele>225.6</ele>
        <time>2025-04-05T07:11:10Z</time>
      </trkpt>
      <trkpt lat="50.32922" lon="4.7968">
        <ele>225.6</ele>
        <time>2025-04-05T07:11:11Z</time>
      </trkpt>
      <trkpt lat="50.32919" lon="4.79681">
        <ele>225.8</ele>
        <time>2025-04-05T07:11:12Z</time>
      </trkpt>
      <trkpt lat="50.32916" lon="4.79683">
        <ele>226</ele>
        <time>2025-04-05T07:11:13Z</time>
      </trkpt>
      <trkpt lat="50.32913" lon="4.79684">
        <ele>226.2</ele>
        <time>2025-04-05T07:11:14Z</time>
      </trkpt>
      <trkpt lat="50.3291" lon="4.79686">
        <ele>226.4</ele>
        <time>2025-04-05T07:11:15Z</time>
      </trkpt>
      <trkpt lat="50.32908" lon="4.79687">
        <ele>226.6</ele>
        <time>2025-04-05T07:11:16Z</time>
      </trkpt>
      <trkpt lat="50.32904" lon="4.79688">
        <ele>226.8</ele>
        <time>2025-04-05T07:11:17Z</time>
      </trkpt>
      <trkpt lat="50.32901" lon="4.7969">
        <ele>226.8</ele>
        <time>2025-04-05T07:11:18Z</time>
      </trkpt>
      <trkpt lat="50.32898" lon="4.79692">
        <ele>227</ele>
        <time>2025-04-05T07:11:19Z</time>
      </trkpt>
      <trkpt lat="50.32895" lon="4.79693">
        <ele>227.2</ele>
        <time>2025-04-05T07:11:20Z</time>
      </trkpt>
      <trkpt lat="50.32892" lon="4.79695">
        <ele>227.2</ele>
        <time>2025-04-05T07:11:21Z</time>
      </trkpt>
      <trkpt lat="50.32889" lon="4.79696">
        <ele>227.4</ele>
        <time>2025-04-05T07:11:22Z</time>
      </trkpt>
      <trkpt lat="50.32886" lon="4.79698">
        <ele>227.6</ele>
        <time>2025-04-05T07:11:23Z</time>
      </trkpt>
      <trkpt lat="50.32882" lon="4.797">
        <ele>227.6</ele>
        <time>2025-04-05T07:11:24Z</time>
      </trkpt>
      <trkpt lat="50.32879" lon="4.79701">
        <ele>227.8</ele>
        <time>2025-04-05T07:11:25Z</time>
      </trkpt>
      <trkpt lat="50.32876" lon="4.79703">
        <ele>227.8</ele>
        <time>2025-04-05T07:11:26Z</time>
      </trkpt>
      <trkpt lat="50.32872" lon="4.79704">
        <ele>228</ele>
        <time>2025-04-05T07:11:27Z</time>
      </trkpt>
      <trkpt lat="50.32869" lon="4.79706">
        <ele>228</ele>
        <time>2025-04-05T07:11:28Z</time>
      </trkpt>
      <trkpt lat="50.32866" lon="4.79707">
        <ele>228.2</ele>
        <time>2025-04-05T07:11:29Z</time>
      </trkpt>
      <trkpt lat="50.32863" lon="4.79708">
        <ele>228.2</ele>
        <time>2025-04-05T07:11:30Z</time>
      </trkpt>
      <trkpt lat="50.3286" lon="4.79709">
        <ele>228.4</ele>
        <time>2025-04-05T07:11:31Z</time>
      </trkpt>
      <trkpt lat="50.32857" lon="4.7971">
        <ele>228.4</ele>
        <time>2025-04-05T07:11:32Z</time>
      </trkpt>
      <trkpt lat="50.32854" lon="4.79711">
        <ele>228.6</ele>
        <time>2025-04-05T07:11:33Z</time>
      </trkpt>
      <trkpt lat="50.3285" lon="4.79711">
        <ele>228.6</ele>
        <time>2025-04-05T07:11:34Z</time>
      </trkpt>
      <trkpt lat="50.32846" lon="4.79711">
        <ele>228.8</ele>
        <time>2025-04-05T07:11:35Z</time>
      </trkpt>
      <trkpt lat="50.32842" lon="4.79712">
        <ele>228.8</ele>
        <time>2025-04-05T07:11:36Z</time>
      </trkpt>
      <trkpt lat="50.32838" lon="4.79714">
        <ele>228.8</ele>
        <time>2025-04-05T07:11:37Z</time>
      </trkpt>
      <trkpt lat="50.32834" lon="4.79714">
        <ele>228.8</ele>
        <time>2025-04-05T07:11:38Z</time>
      </trkpt>
      <trkpt lat="50.3283" lon="4.79715">
        <ele>229</ele>
        <time>2025-04-05T07:11:39Z</time>
      </trkpt>
      <trkpt lat="50.32826" lon="4.79715">
        <ele>229</ele>
        <time>2025-04-05T07:11:40Z</time>
      </trkpt>
      <trkpt lat="50.32822" lon="4.79716">
        <ele>229</ele>
        <time>2025-04-05T07:11:41Z</time>
      </trkpt>
      <trkpt lat="50.32818" lon="4.79717">
        <ele>229.2</ele>
        <time>2025-04-05T07:11:42Z</time>
      </trkpt>
      <trkpt lat="50.32815" lon="4.79718">
        <ele>229.4</ele>
        <time>2025-04-05T07:11:43Z</time>
      </trkpt>
      <trkpt lat="50.32811" lon="4.79719">
        <ele>229.4</ele>
        <time>2025-04-05T07:11:44Z</time>
      </trkpt>
      <trkpt lat="50.32808" lon="4.7972">
        <ele>229.6</ele>
        <time>2025-04-05T07:11:45Z</time>
      </trkpt>
      <trkpt lat="50.32804" lon="4.79721">
        <ele>229.8</ele>
        <time>2025-04-05T07:11:46Z</time>
      </trkpt>
      <trkpt lat="50.328" lon="4.79722">
        <ele>229.8</ele>
        <time>2025-04-05T07:11:47Z</time>
      </trkpt>
      <trkpt lat="50.32796" lon="4.79723">
        <ele>230</ele>
        <time>2025-04-05T07:11:48Z</time>
      </trkpt>
      <trkpt lat="50.32792" lon="4.79723">
        <ele>230.2</ele>
        <time>2025-04-05T07:11:49Z</time>
      </trkpt>
      <trkpt lat="50.32789" lon="4.79724">
        <ele>230.4</ele>
        <time>2025-04-05T07:11:50Z</time>
      </trkpt>
      <trkpt lat="50.32784" lon="4.79725">
        <ele>230.6</ele>
        <time>2025-04-05T07:11:51Z</time>
      </trkpt>
      <trkpt lat="50.3278" lon="4.79725">
        <ele>230.6</ele>
        <time>2025-04-05T07:11:52Z</time>
      </trkpt>
      <trkpt lat="50.32776" lon="4.79726">
        <ele>230.8</ele>
        <time>2025-04-05T07:11:53Z</time>
      </trkpt>
      <trkpt lat="50.32772" lon="4.79727">
        <ele>231</ele>
        <time>2025-04-05T07:11:54Z</time>
      </trkpt>
      <trkpt lat="50.32769" lon="4.79728">
        <ele>231.2</ele>
        <time>2025-04-05T07:11:55Z</time>
      </trkpt>
      <trkpt lat="50.32765" lon="4.79729">
        <ele>231.4</ele>
        <time>2025-04-05T07:11:56Z</time>
      </trkpt>
      <trkpt lat="50.32761" lon="4.79729">
        <ele>231.4</ele>
        <time>2025-04-05T07:11:57Z</time>
      </trkpt>
      <trkpt lat="50.32758" lon="4.7973">
        <ele>231.6</ele>
        <time>2025-04-05T07:11:58Z</time>
      </trkpt>
      <trkpt lat="50.32754" lon="4.79732">
        <ele>231.8</ele>
        <time>2025-04-05T07:11:59Z</time>
      </trkpt>
      <trkpt lat="50.32751" lon="4.79732">
        <ele>232</ele>
        <time>2025-04-05T07:12:00Z</time>
      </trkpt>
      <trkpt lat="50.32747" lon="4.79733">
        <ele>232</ele>
        <time>2025-04-05T07:12:01Z</time>
      </trkpt>
      <trkpt lat="50.32743" lon="4.79734">
        <ele>232.2</ele>
        <time>2025-04-05T07:12:02Z</time>
      </trkpt>
      <trkpt lat="50.32739" lon="4.79736">
        <ele>232.4</ele>
        <time>2025-04-05T07:12:03Z</time>
      </trkpt>
      <trkpt lat="50.32735" lon="4.79737">
        <ele>232.4</ele>
        <time>2025-04-05T07:12:04Z</time>
      </trkpt>
      <trkpt lat="50.32731" lon="4.79738">
        <ele>232.6</ele>
        <time>2025-04-05T07:12:05Z</time>
      </trkpt>
      <trkpt lat="50.32727" lon="4.79738">
        <ele>232.8</ele>
        <time>2025-04-05T07:12:06Z</time>
      </trkpt>
      <trkpt lat="50.32723" lon="4.79739">
        <ele>232.8</ele>
        <time>2025-04-05T07:12:07Z</time>
      </trkpt>
      <trkpt lat="50.32719" lon="4.7974">
        <ele>233</ele>
        <time>2025-04-05T07:12:08Z</time>
      </trkpt>
      <trkpt lat="50.32715" lon="4.79741">
        <ele>233.2</ele>
        <time>2025-04-05T07:12:09Z</time>
      </trkpt>
      <trkpt lat="50.32711" lon="4.79742">
        <ele>233.4</ele>
        <time>2025-04-05T07:12:10Z</time>
      </trkpt>
      <trkpt lat="50.32707" lon="4.79743">
        <ele>233.4</ele>
        <time>2025-04-05T07:12:11Z</time>
      </trkpt>
      <trkpt lat="50.32704" lon="4.79744">
        <ele>233.6</ele>
        <time>2025-04-05T07:12:12Z</time>
      </trkpt>
      <trkpt lat="50.327" lon="4.79744">
        <ele>233.8</ele>
        <time>2025-04-05T07:12:13Z</time>
      </trkpt>
      <trkpt lat="50.32697" lon="4.79745">
        <ele>234</ele>
        <time>2025-04-05T07:12:14Z</time>
      </trkpt>
      <trkpt lat="50.32693" lon="4.79746">
        <ele>234.2</ele>
        <time>2025-04-05T07:12:15Z</time>
      </trkpt>
      <trkpt lat="50.32689" lon="4.79747">
        <ele>234.4</ele>
        <time>2025-04-05T07:12:16Z</time>
      </trkpt>
      <trkpt lat="50.32686" lon="4.79748">
        <ele>234.4</ele>
        <time>2025-04-05T07:12:17Z</time>
      </trkpt>
      <trkpt lat="50.32681" lon="4.79749">
        <ele>234.6</ele>
        <time>2025-04-05T07:12:18Z</time>
      </trkpt>
      <trkpt lat="50.32678" lon="4.7975">
        <ele>234.6</ele>
        <time>2025-04-05T07:12:19Z</time>
      </trkpt>
      <trkpt lat="50.32673" lon="4.79751">
        <ele>234.6</ele>
        <time>2025-04-05T07:12:20Z</time>
      </trkpt>
      <trkpt lat="50.32669" lon="4.79752">
        <ele>234.8</ele>
        <time>2025-04-05T07:12:21Z</time>
      </trkpt>
      <trkpt lat="50.32665" lon="4.79753">
        <ele>234.6</ele>
        <time>2025-04-05T07:12:22Z</time>
      </trkpt>
      <trkpt lat="50.32659" lon="4.79754">
        <ele>234.6</ele>
        <time>2025-04-05T07:12:23Z</time>
      </trkpt>
      <trkpt lat="50.32654" lon="4.79754">
        <ele>234.6</ele>
        <time>2025-04-05T07:12:24Z</time>
      </trkpt>
      <trkpt lat="50.32649" lon="4.79754">
        <ele>234.4</ele>
        <time>2025-04-05T07:12:25Z</time>
      </trkpt>
      <trkpt lat="50.32645" lon="4.79755">
        <ele>234.4</ele>
        <time>2025-04-05T07:12:26Z</time>
      </trkpt>
      <trkpt lat="50.32639" lon="4.79756">
        <ele>234.4</ele>
        <time>2025-04-05T07:12:27Z</time>
      </trkpt>
      <trkpt lat="50.32634" lon="4.79756">
        <ele>234.4</ele>
        <time>2025-04-05T07:12:28Z</time>
      </trkpt>
      <trkpt lat="50.32629" lon="4.79757">
        <ele>234.2</ele>
        <time>2025-04-05T07:12:29Z</time>
      </trkpt>
      <trkpt lat="50.32624" lon="4.79757">
        <ele>234.2</ele>
        <time>2025-04-05T07:12:30Z</time>
      </trkpt>
      <trkpt lat="50.32619" lon="4.79758">
        <ele>234</ele>
        <time>2025-04-05T07:12:31Z</time>
      </trkpt>
      <trkpt lat="50.32615" lon="4.79758">
        <ele>234</ele>
        <time>2025-04-05T07:12:32Z</time>
      </trkpt>
      <trkpt lat="50.3261" lon="4.79758">
        <ele>234</ele>
        <time>2025-04-05T07:12:33Z</time>
      </trkpt>
      <trkpt lat="50.32606" lon="4.79758">
        <ele>234</ele>
        <time>2025-04-05T07:12:34Z</time>
      </trkpt>
      <trkpt lat="50.32601" lon="4.79759">
        <ele>234</ele>
        <time>2025-04-05T07:12:35Z</time>
      </trkpt>
      <trkpt lat="50.32596" lon="4.79759">
        <ele>234</ele>
        <time>2025-04-05T07:12:36Z</time>
      </trkpt>
      <trkpt lat="50.32591" lon="4.79759">
        <ele>234.2</ele>
        <time>2025-04-05T07:12:37Z</time>
      </trkpt>
      <trkpt lat="50.32586" lon="4.7976">
        <ele>234.2</ele>
        <time>2025-04-05T07:12:38Z</time>
      </trkpt>
      <trkpt lat="50.3258" lon="4.79761">
        <ele>234.2</ele>
        <time>2025-04-05T07:12:39Z</time>
      </trkpt>
      <trkpt lat="50.32575" lon="4.79762">
        <ele>234.2</ele>
        <time>2025-04-05T07:12:40Z</time>
      </trkpt>
      <trkpt lat="50.3257" lon="4.79763">
        <ele>234.2</ele>
        <time>2025-04-05T07:12:41Z</time>
      </trkpt>
      <trkpt lat="50.32566" lon="4.79764">
        <ele>234.4</ele>
        <time>2025-04-05T07:12:42Z</time>
      </trkpt>
      <trkpt lat="50.3256" lon="4.79765">
        <ele>234.4</ele>
        <time>2025-04-05T07:12:43Z</time>
      </trkpt>
      <trkpt lat="50.32555" lon="4.79766">
        <ele>234.4</ele>
        <time>2025-04-05T07:12:44Z</time>
      </trkpt>
      <trkpt lat="50.3255" lon="4.79767">
        <ele>234.6</ele>
        <time>2025-04-05T07:12:45Z</time>
      </trkpt>
      <trkpt lat="50.32546" lon="4.79768">
        <ele>234.8</ele>
        <time>2025-04-05T07:12:46Z</time>
      </trkpt>
      <trkpt lat="50.32542" lon="4.79769">
        <ele>234.8</ele>
        <time>2025-04-05T07:12:47Z</time>
      </trkpt>
      <trkpt lat="50.32538" lon="4.7977">
        <ele>235</ele>
        <time>2025-04-05T07:12:48Z</time>
      </trkpt>
      <trkpt lat="50.32533" lon="4.79771">
        <ele>235.2</ele>
        <time>2025-04-05T07:12:49Z</time>
      </trkpt>
      <trkpt lat="50.32529" lon="4.79772">
        <ele>235.4</ele>
        <time>2025-04-05T07:12:50Z</time>
      </trkpt>
      <trkpt lat="50.32525" lon="4.79772">
        <ele>235.4</ele>
        <time>2025-04-05T07:12:51Z</time>
      </trkpt>
      <trkpt lat="50.3252" lon="4.79773">
        <ele>235.6</ele>
        <time>2025-04-05T07:12:52Z</time>
      </trkpt>
      <trkpt lat="50.32515" lon="4.79774">
        <ele>235.8</ele>
        <time>2025-04-05T07:12:53Z</time>
      </trkpt>
      <trkpt lat="50.3251" lon="4.79775">
        <ele>235.8</ele>
        <time>2025-04-05T07:12:54Z</time>
      </trkpt>
      <trkpt lat="50.32505" lon="4.79775">
        <ele>236</ele>
        <time>2025-04-05T07:12:55Z</time>
      </trkpt>
      <trkpt lat="50.32499" lon="4.79777">
        <ele>236.2</ele>
        <time>2025-04-05T07:12:56Z</time>
      </trkpt>
      <trkpt lat="50.32494" lon="4.79778">
        <ele>236.2</ele>
        <time>2025-04-05T07:12:57Z</time>
      </trkpt>
      <trkpt lat="50.32489" lon="4.79779">
        <ele>236.4</ele>
        <time>2025-04-05T07:12:58Z</time>
      </trkpt>
      <trkpt lat="50.32484" lon="4.7978">
        <ele>236.4</ele>
        <time>2025-04-05T07:12:59Z</time>
      </trkpt>
      <trkpt lat="50.32479" lon="4.79781">
        <ele>236.4</ele>
        <time>2025-04-05T07:13:00Z</time>
      </trkpt>
      <trkpt lat="50.32474" lon="4.79782">
        <ele>236.4</ele>
        <time>2025-04-05T07:13:01Z</time>
      </trkpt>
      <trkpt lat="50.32468" lon="4.79783">
        <ele>236.2</ele>
        <time>2025-04-05T07:13:02Z</time>
      </trkpt>
      <trkpt lat="50.32462" lon="4.79784">
        <ele>236.2</ele>
        <time>2025-04-05T07:13:03Z</time>
      </trkpt>
      <trkpt lat="50.32456" lon="4.79785">
        <ele>235.8</ele>
        <time>2025-04-05T07:13:04Z</time>
      </trkpt>
      <trkpt lat="50.32449" lon="4.79786">
        <ele>235.6</ele>
        <time>2025-04-05T07:13:05Z</time>
      </trkpt>
      <trkpt lat="50.32443" lon="4.79787">
        <ele>235.4</ele>
        <time>2025-04-05T07:13:06Z</time>
      </trkpt>
      <trkpt lat="50.32435" lon="4.79789">
        <ele>235.2</ele>
        <time>2025-04-05T07:13:07Z</time>
      </trkpt>
      <trkpt lat="50.32427" lon="4.79791">
        <ele>234.8</ele>
        <time>2025-04-05T07:13:08Z</time>
      </trkpt>
      <trkpt lat="50.3242" lon="4.79792">
        <ele>234.6</ele>
        <time>2025-04-05T07:13:09Z</time>
      </trkpt>
      <trkpt lat="50.32413" lon="4.79794">
        <ele>234.2</ele>
        <time>2025-04-05T07:13:10Z</time>
      </trkpt>
      <trkpt lat="50.32405" lon="4.79795">
        <ele>233.8</ele>
        <time>2025-04-05T07:13:11Z</time>
      </trkpt>
      <trkpt lat="50.32396" lon="4.79796">
        <ele>233.2</ele>
        <time>2025-04-05T07:13:12Z</time>
      </trkpt>
      <trkpt lat="50.32388" lon="4.79797">
        <ele>232.6</ele>
        <time>2025-04-05T07:13:13Z</time>
      </trkpt>
      <trkpt lat="50.3238" lon="4.79798">
        <ele>232.2</ele>
        <time>2025-04-05T07:13:14Z</time>
      </trkpt>
      <trkpt lat="50.32372" lon="4.79799">
        <ele>231.8</ele>
        <time>2025-04-05T07:13:15Z</time>
      </trkpt>
      <trkpt lat="50.32364" lon="4.798">
        <ele>231.2</ele>
        <time>2025-04-05T07:13:16Z</time>
      </trkpt>
      <trkpt lat="50.32356" lon="4.79801">
        <ele>230.8</ele>
        <time>2025-04-05T07:13:17Z</time>
      </trkpt>
      <trkpt lat="50.32348" lon="4.79802">
        <ele>230.2</ele>
        <time>2025-04-05T07:13:18Z</time>
      </trkpt>
      <trkpt lat="50.32341" lon="4.79803">
        <ele>229.6</ele>
        <time>2025-04-05T07:13:19Z</time>
      </trkpt>
      <trkpt lat="50.32334" lon="4.79804">
        <ele>229.2</ele>
        <time>2025-04-05T07:13:20Z</time>
      </trkpt>
      <trkpt lat="50.32325" lon="4.79804">
        <ele>228.8</ele>
        <time>2025-04-05T07:13:21Z</time>
      </trkpt>
      <trkpt lat="50.32319" lon="4.79805">
        <ele>228.4</ele>
        <time>2025-04-05T07:13:22Z</time>
      </trkpt>
      <trkpt lat="50.32312" lon="4.79806">
        <ele>228</ele>
        <time>2025-04-05T07:13:23Z</time>
      </trkpt>
      <trkpt lat="50.32304" lon="4.79806">
        <ele>227.6</ele>
        <time>2025-04-05T07:13:24Z</time>
      </trkpt>
      <trkpt lat="50.32299" lon="4.79807">
        <ele>227.2</ele>
        <time>2025-04-05T07:13:25Z</time>
      </trkpt>
      <trkpt lat="50.32292" lon="4.79807">
        <ele>226.8</ele>
        <time>2025-04-05T07:13:26Z</time>
      </trkpt>
      <trkpt lat="50.32285" lon="4.79808">
        <ele>226.6</ele>
        <time>2025-04-05T07:13:27Z</time>
      </trkpt>
      <trkpt lat="50.32278" lon="4.79808">
        <ele>226.2</ele>
        <time>2025-04-05T07:13:28Z</time>
      </trkpt>
      <trkpt lat="50.32272" lon="4.7981">
        <ele>226</ele>
        <time>2025-04-05T07:13:29Z</time>
      </trkpt>
      <trkpt lat="50.32266" lon="4.79812">
        <ele>225.6</ele>
        <time>2025-04-05T07:13:30Z</time>
      </trkpt>
      <trkpt lat="50.32261" lon="4.79817">
        <ele>225.4</ele>
        <time>2025-04-05T07:13:31Z</time>
      </trkpt>
      <trkpt lat="50.32257" lon="4.79823">
        <ele>225</ele>
        <time>2025-04-05T07:13:32Z</time>
      </trkpt>
      <trkpt lat="50.32253" lon="4.79833">
        <ele>224.6</ele>
        <time>2025-04-05T07:13:33Z</time>
      </trkpt>
      <trkpt lat="50.3225" lon="4.79845">
        <ele>224.2</ele>
        <time>2025-04-05T07:13:34Z</time>
      </trkpt>
      <trkpt lat="50.32249" lon="4.79854">
        <ele>223.8</ele>
        <time>2025-04-05T07:13:35Z</time>
      </trkpt>
      <trkpt lat="50.32248" lon="4.79866">
        <ele>223.6</ele>
        <time>2025-04-05T07:13:36Z</time>
      </trkpt>
      <trkpt lat="50.32248" lon="4.79878">
        <ele>223.4</ele>
        <time>2025-04-05T07:13:37Z</time>
      </trkpt>
      <trkpt lat="50.32248" lon="4.79891">
        <ele>223.2</ele>
        <time>2025-04-05T07:13:38Z</time>
      </trkpt>
      <trkpt lat="50.32248" lon="4.79903">
        <ele>223.2</ele>
        <time>2025-04-05T07:13:39Z</time>
      </trkpt>
      <trkpt lat="50.32248" lon="4.79914">
        <ele>223</ele>
        <time>2025-04-05T07:13:40Z</time>
      </trkpt>
      <trkpt lat="50.32249" lon="4.79926">
        <ele>222.8</ele>
        <time>2025-04-05T07:13:41Z</time>
      </trkpt>
      <trkpt lat="50.32248" lon="4.79936">
        <ele>222.6</ele>
        <time>2025-04-05T07:13:42Z</time>
      </trkpt>
      <trkpt lat="50.32248" lon="4.79949">
        <ele>222.4</ele>
        <time>2025-04-05T07:13:43Z</time>
      </trkpt>
      <trkpt lat="50.32248" lon="4.7996">
        <ele>222.4</ele>
        <time>2025-04-05T07:13:44Z</time>
      </trkpt>
      <trkpt lat="50.32248" lon="4.7997">
        <ele>222.2</ele>
        <time>2025-04-05T07:13:45Z</time>
      </trkpt>
      <trkpt lat="50.32247" lon="4.79981">
        <ele>222.2</ele>
        <time>2025-04-05T07:13:46Z</time>
      </trkpt>
      <trkpt lat="50.32247" lon="4.79993">
        <ele>222</ele>
        <time>2025-04-05T07:13:47Z</time>
      </trkpt>
      <trkpt lat="50.32246" lon="4.80005">
        <ele>222</ele>
        <time>2025-04-05T07:13:48Z</time>
      </trkpt>
      <trkpt lat="50.32246" lon="4.80017">
        <ele>222</ele>
        <time>2025-04-05T07:13:49Z</time>
      </trkpt>
      <trkpt lat="50.32246" lon="4.80029">
        <ele>222</ele>
        <time>2025-04-05T07:13:50Z</time>
      </trkpt>
      <trkpt lat="50.32245" lon="4.8004">
        <ele>222</ele>
        <time>2025-04-05T07:13:51Z</time>
      </trkpt>
      <trkpt lat="50.32245" lon="4.80052">
        <ele>222</ele>
        <time>2025-04-05T07:13:52Z</time>
      </trkpt>
      <trkpt lat="50.32244" lon="4.80061">
        <ele>222</ele>
        <time>2025-04-05T07:13:53Z</time>
      </trkpt>
      <trkpt lat="50.32243" lon="4.80072">
        <ele>222</ele>
        <time>2025-04-05T07:13:54Z</time>
      </trkpt>
      <trkpt lat="50.32243" lon="4.80084">
        <ele>222.2</ele>
        <time>2025-04-05T07:13:55Z</time>
      </trkpt>
      <trkpt lat="50.32242" lon="4.80093">
        <ele>222.2</ele>
        <time>2025-04-05T07:13:56Z</time>
      </trkpt>
      <trkpt lat="50.32241" lon="4.80102">
        <ele>222.2</ele>
        <time>2025-04-05T07:13:57Z</time>
      </trkpt>
      <trkpt lat="50.3224" lon="4.80112">
        <ele>222.4</ele>
        <time>2025-04-05T07:13:58Z</time>
      </trkpt>
      <trkpt lat="50.32239" lon="4.80121">
        <ele>222.4</ele>
        <time>2025-04-05T07:13:59Z</time>
      </trkpt>
      <trkpt lat="50.32237" lon="4.80127">
        <ele>222.4</ele>
        <time>2025-04-05T07:14:00Z</time>
      </trkpt>
      <trkpt lat="50.32233" lon="4.80135">
        <ele>222.4</ele>
        <time>2025-04-05T07:14:01Z</time>
      </trkpt>
      <trkpt lat="50.32229" lon="4.80141">
        <ele>222.2</ele>
        <time>2025-04-05T07:14:02Z</time>
      </trkpt>
      <trkpt lat="50.32223" lon="4.80145">
        <ele>222.2</ele>
        <time>2025-04-05T07:14:03Z</time>
      </trkpt>
      <trkpt lat="50.32217" lon="4.80148">
        <ele>222</ele>
        <time>2025-04-05T07:14:04Z</time>
      </trkpt>
      <trkpt lat="50.32211" lon="4.8015">
        <ele>221.8</ele>
        <time>2025-04-05T07:14:05Z</time>
      </trkpt>
      <trkpt lat="50.32203" lon="4.80152">
        <ele>221.6</ele>
        <time>2025-04-05T07:14:06Z</time>
      </trkpt>
      <trkpt lat="50.32195" lon="4.80155">
        <ele>221.4</ele>
        <time>2025-04-05T07:14:07Z</time>
      </trkpt>
      <trkpt lat="50.32189" lon="4.80156">
        <ele>221.2</ele>
        <time>2025-04-05T07:14:08Z</time>
      </trkpt>
      <trkpt lat="50.32182" lon="4.80157">
        <ele>221.2</ele>
        <time>2025-04-05T07:14:09Z</time>
      </trkpt>
      <trkpt lat="50.32175" lon="4.80158">
        <ele>221</ele>
        <time>2025-04-05T07:14:10Z</time>
      </trkpt>
      <trkpt lat="50.32169" lon="4.8016">
        <ele>221</ele>
        <time>2025-04-05T07:14:11Z</time>
      </trkpt>
      <trkpt lat="50.32161" lon="4.80162">
        <ele>220.8</ele>
        <time>2025-04-05T07:14:12Z</time>
      </trkpt>
      <trkpt lat="50.32154" lon="4.80163">
        <ele>220.8</ele>
        <time>2025-04-05T07:14:13Z</time>
      </trkpt>
      <trkpt lat="50.32148" lon="4.80164">
        <ele>220.6</ele>
        <time>2025-04-05T07:14:14Z</time>
      </trkpt>
      <trkpt lat="50.32142" lon="4.80165">
        <ele>220.2</ele>
        <time>2025-04-05T07:14:15Z</time>
      </trkpt>
      <trkpt lat="50.32134" lon="4.80168">
        <ele>220</ele>
        <time>2025-04-05T07:14:16Z</time>
      </trkpt>
      <trkpt lat="50.32128" lon="4.80169">
        <ele>219.8</ele>
        <time>2025-04-05T07:14:17Z</time>
      </trkpt>
      <trkpt lat="50.32121" lon="4.80172">
        <ele>219.4</ele>
        <time>2025-04-05T07:14:18Z</time>
      </trkpt>
      <trkpt lat="50.32112" lon="4.80175">
        <ele>219.2</ele>
        <time>2025-04-05T07:14:19Z</time>
      </trkpt>
      <trkpt lat="50.32106" lon="4.80178">
        <ele>219</ele>
        <time>2025-04-05T07:14:20Z</time>
      </trkpt>
      <trkpt lat="50.321" lon="4.80183">
        <ele>218.6</ele>
        <time>2025-04-05T07:14:21Z</time>
      </trkpt>
      <trkpt lat="50.32092" lon="4.80188">
        <ele>218.2</ele>
        <time>2025-04-05T07:14:22Z</time>
      </trkpt>
      <trkpt lat="50.32087" lon="4.80193">
        <ele>218</ele>
        <time>2025-04-05T07:14:23Z</time>
      </trkpt>
      <trkpt lat="50.32079" lon="4.80197">
        <ele>217.6</ele>
        <time>2025-04-05T07:14:24Z</time>
      </trkpt>
      <trkpt lat="50.32072" lon="4.80201">
        <ele>217.2</ele>
        <time>2025-04-05T07:14:25Z</time>
      </trkpt>
      <trkpt lat="50.32063" lon="4.80204">
        <ele>216.8</ele>
        <time>2025-04-05T07:14:26Z</time>
      </trkpt>
      <trkpt lat="50.32055" lon="4.80207">
        <ele>216.6</ele>
        <time>2025-04-05T07:14:27Z</time>
      </trkpt>
      <trkpt lat="50.32047" lon="4.80208">
        <ele>216.2</ele>
        <time>2025-04-05T07:14:28Z</time>
      </trkpt>
      <trkpt lat="50.32038" lon="4.80209">
        <ele>216</ele>
        <time>2025-04-05T07:14:29Z</time>
      </trkpt>
      <trkpt lat="50.32031" lon="4.8021">
        <ele>215.8</ele>
        <time>2025-04-05T07:14:30Z</time>
      </trkpt>
      <trkpt lat="50.32023" lon="4.8021">
        <ele>215.6</ele>
        <time>2025-04-05T07:14:31Z</time>
      </trkpt>
      <trkpt lat="50.32013" lon="4.8021">
        <ele>215.2</ele>
        <time>2025-04-05T07:14:32Z</time>
      </trkpt>
      <trkpt lat="50.32005" lon="4.8021">
        <ele>215</ele>
        <time>2025-04-05T07:14:33Z</time>
      </trkpt>
      <trkpt lat="50.31998" lon="4.8021">
        <ele>214.6</ele>
        <time>2025-04-05T07:14:34Z</time>
      </trkpt>
      <trkpt lat="50.3199" lon="4.8021">
        <ele>214.4</ele>
        <time>2025-04-05T07:14:35Z</time>
      </trkpt>
      <trkpt lat="50.31983" lon="4.80211">
        <ele>214</ele>
        <time>2025-04-05T07:14:36Z</time>
      </trkpt>
      <trkpt lat="50.31976" lon="4.80211">
        <ele>213.6</ele>
        <time>2025-04-05T07:14:37Z</time>
      </trkpt>
      <trkpt lat="50.31969" lon="4.80211">
        <ele>213</ele>
        <time>2025-04-05T07:14:38Z</time>
      </trkpt>
      <trkpt lat="50.31961" lon="4.80212">
        <ele>212.6</ele>
        <time>2025-04-05T07:14:39Z</time>
      </trkpt>
      <trkpt lat="50.31955" lon="4.80216">
        <ele>212.2</ele>
        <time>2025-04-05T07:14:40Z</time>
      </trkpt>
      <trkpt lat="50.31949" lon="4.80222">
        <ele>211.6</ele>
        <time>2025-04-05T07:14:41Z</time>
      </trkpt>
      <trkpt lat="50.31944" lon="4.8023">
        <ele>211</ele>
        <time>2025-04-05T07:14:42Z</time>
      </trkpt>
      <trkpt lat="50.31939" lon="4.80241">
        <ele>210.6</ele>
        <time>2025-04-05T07:14:43Z</time>
      </trkpt>
      <trkpt lat="50.31935" lon="4.80252">
        <ele>210</ele>
        <time>2025-04-05T07:14:44Z</time>
      </trkpt>
      <trkpt lat="50.31932" lon="4.80264">
        <ele>209.4</ele>
        <time>2025-04-05T07:14:45Z</time>
      </trkpt>
      <trkpt lat="50.31928" lon="4.80276">
        <ele>209</ele>
        <time>2025-04-05T07:14:46Z</time>
      </trkpt>
      <trkpt lat="50.31926" lon="4.80288">
        <ele>208.4</ele>
        <time>2025-04-05T07:14:47Z</time>
      </trkpt>
      <trkpt lat="50.31923" lon="4.803">
        <ele>208</ele>
        <time>2025-04-05T07:14:48Z</time>
      </trkpt>
      <trkpt lat="50.3192" lon="4.80311">
        <ele>207.6</ele>
        <time>2025-04-05T07:14:49Z</time>
      </trkpt>
      <trkpt lat="50.31916" lon="4.80321">
        <ele>207</ele>
        <time>2025-04-05T07:14:50Z</time>
      </trkpt>
      <trkpt lat="50.31913" lon="4.8033">
        <ele>206.6</ele>
        <time>2025-04-05T07:14:51Z</time>
      </trkpt>
      <trkpt lat="50.31909" lon="4.80337">
        <ele>206.2</ele>
        <time>2025-04-05T07:14:52Z</time>
      </trkpt>
      <trkpt lat="50.31904" lon="4.80341">
        <ele>205.6</ele>
        <time>2025-04-05T07:14:53Z</time>
      </trkpt>
      <trkpt lat="50.31898" lon="4.80342">
        <ele>205</ele>
        <time>2025-04-05T07:14:54Z</time>
      </trkpt>
      <trkpt lat="50.31892" lon="4.80341">
        <ele>204.4</ele>
        <time>2025-04-05T07:14:55Z</time>
      </trkpt>
      <trkpt lat="50.31886" lon="4.80337">
        <ele>203.8</ele>
        <time>2025-04-05T07:14:56Z</time>
      </trkpt>
      <trkpt lat="50.31878" lon="4.80331">
        <ele>203.2</ele>
        <time>2025-04-05T07:14:57Z</time>
      </trkpt>
      <trkpt lat="50.31871" lon="4.80325">
        <ele>202.6</ele>
        <time>2025-04-05T07:14:58Z</time>
      </trkpt>
      <trkpt lat="50.31865" lon="4.80318">
        <ele>201.8</ele>
        <time>2025-04-05T07:14:59Z</time>
      </trkpt>
      <trkpt lat="50.31859" lon="4.80312">
        <ele>201.2</ele>
        <time>2025-04-05T07:15:00Z</time>
      </trkpt>
      <trkpt lat="50.31854" lon="4.80306">
        <ele>200.6</ele>
        <time>2025-04-05T07:15:01Z</time>
      </trkpt>
      <trkpt lat="50.31847" lon="4.80301">
        <ele>200</ele>
        <time>2025-04-05T07:15:02Z</time>
      </trkpt>
      <trkpt lat="50.31839" lon="4.80295">
        <ele>199.2</ele>
        <time>2025-04-05T07:15:03Z</time>
      </trkpt>
      <trkpt lat="50.31832" lon="4.80289">
        <ele>198.6</ele>
        <time>2025-04-05T07:15:04Z</time>
      </trkpt>
      <trkpt lat="50.31824" lon="4.80284">
        <ele>197.8</ele>
        <time>2025-04-05T07:15:05Z</time>
      </trkpt>
      <trkpt lat="50.31815" lon="4.80281">
        <ele>197.2</ele>
        <time>2025-04-05T07:15:06Z</time>
      </trkpt>
      <trkpt lat="50.31807" lon="4.80277">
        <ele>196.6</ele>
        <time>2025-04-05T07:15:07Z</time>
      </trkpt>
      <trkpt lat="50.31797" lon="4.80275">
        <ele>196.2</ele>
        <time>2025-04-05T07:15:08Z</time>
      </trkpt>
      <trkpt lat="50.31789" lon="4.80276">
        <ele>195.8</ele>
        <time>2025-04-05T07:15:09Z</time>
      </trkpt>
      <trkpt lat="50.3178" lon="4.80278">
        <ele>195.4</ele>
        <time>2025-04-05T07:15:10Z</time>
      </trkpt>
      <trkpt lat="50.31772" lon="4.80282">
        <ele>195.2</ele>
        <time>2025-04-05T07:15:11Z</time>
      </trkpt>
      <trkpt lat="50.31764" lon="4.80288">
        <ele>195</ele>
        <time>2025-04-05T07:15:12Z</time>
      </trkpt>
      <trkpt lat="50.31756" lon="4.80295">
        <ele>194.8</ele>
        <time>2025-04-05T07:15:13Z</time>
      </trkpt>
      <trkpt lat="50.31749" lon="4.80303">
        <ele>194.6</ele>
        <time>2025-04-05T07:15:14Z</time>
      </trkpt>
      <trkpt lat="50.31743" lon="4.80311">
        <ele>194.4</ele>
        <time>2025-04-05T07:15:15Z</time>
      </trkpt>
      <trkpt lat="50.31736" lon="4.80319">
        <ele>194.2</ele>
        <time>2025-04-05T07:15:16Z</time>
      </trkpt>
      <trkpt lat="50.3173" lon="4.80328">
        <ele>194.2</ele>
        <time>2025-04-05T07:15:17Z</time>
      </trkpt>
      <trkpt lat="50.31724" lon="4.80336">
        <ele>194</ele>
        <time>2025-04-05T07:15:18Z</time>
      </trkpt>
      <trkpt lat="50.31719" lon="4.80344">
        <ele>193.8</ele>
        <time>2025-04-05T07:15:19Z</time>
      </trkpt>
      <trkpt lat="50.31714" lon="4.80352">
        <ele>193.8</ele>
        <time>2025-04-05T07:15:20Z</time>
      </trkpt>
      <trkpt lat="50.3171" lon="4.80359">
        <ele>193.6</ele>
        <time>2025-04-05T07:15:21Z</time>
      </trkpt>
      <trkpt lat="50.31704" lon="4.80368">
        <ele>193.6</ele>
        <time>2025-04-05T07:15:22Z</time>
      </trkpt>
      <trkpt lat="50.31699" lon="4.80377">
        <ele>193.6</ele>
        <time>2025-04-05T07:15:23Z</time>
      </trkpt>
      <trkpt lat="50.31695" lon="4.80386">
        <ele>193.4</ele>
        <time>2025-04-05T07:15:24Z</time>
      </trkpt>
      <trkpt lat="50.31691" lon="4.80395">
        <ele>193.4</ele>
        <time>2025-04-05T07:15:25Z</time>
      </trkpt>
      <trkpt lat="50.31686" lon="4.80404">
        <ele>193.2</ele>
        <time>2025-04-05T07:15:26Z</time>
      </trkpt>
      <trkpt lat="50.31683" lon="4.80413">
        <ele>193.2</ele>
        <time>2025-04-05T07:15:27Z</time>
      </trkpt>
      <trkpt lat="50.31679" lon="4.80422">
        <ele>193.2</ele>
        <time>2025-04-05T07:15:28Z</time>
      </trkpt>
      <trkpt lat="50.31676" lon="4.80431">
        <ele>193.2</ele>
        <time>2025-04-05T07:15:29Z</time>
      </trkpt>
      <trkpt lat="50.31673" lon="4.80441">
        <ele>193.2</ele>
        <time>2025-04-05T07:15:30Z</time>
      </trkpt>
      <trkpt lat="50.3167" lon="4.8045">
        <ele>193</ele>
        <time>2025-04-05T07:15:31Z</time>
      </trkpt>
      <trkpt lat="50.31667" lon="4.80461">
        <ele>192.8</ele>
        <time>2025-04-05T07:15:32Z</time>
      </trkpt>
      <trkpt lat="50.31664" lon="4.80471">
        <ele>192.6</ele>
        <time>2025-04-05T07:15:33Z</time>
      </trkpt>
      <trkpt lat="50.31661" lon="4.80482">
        <ele>192.4</ele>
        <time>2025-04-05T07:15:34Z</time>
      </trkpt>
      <trkpt lat="50.31658" lon="4.80492">
        <ele>192.4</ele>
        <time>2025-04-05T07:15:35Z</time>
      </trkpt>
      <trkpt lat="50.31655" lon="4.80503">
        <ele>192.2</ele>
        <time>2025-04-05T07:15:36Z</time>
      </trkpt>
      <trkpt lat="50.31652" lon="4.80513">
        <ele>192</ele>
        <time>2025-04-05T07:15:37Z</time>
      </trkpt>
      <trkpt lat="50.31649" lon="4.80524">
        <ele>191.8</ele>
        <time>2025-04-05T07:15:38Z</time>
      </trkpt>
      <trkpt lat="50.31646" lon="4.80536">
        <ele>191.6</ele>
        <time>2025-04-05T07:15:39Z</time>
      </trkpt>
      <trkpt lat="50.31644" lon="4.80547">
        <ele>191.2</ele>
        <time>2025-04-05T07:15:40Z</time>
      </trkpt>
      <trkpt lat="50.31642" lon="4.8056">
        <ele>191</ele>
        <time>2025-04-05T07:15:41Z</time>
      </trkpt>
      <trkpt lat="50.31641" lon="4.80572">
        <ele>191</ele>
        <time>2025-04-05T07:15:42Z</time>
      </trkpt>
      <trkpt lat="50.3164" lon="4.80583">
        <ele>190.8</ele>
        <time>2025-04-05T07:15:43Z</time>
      </trkpt>
      <trkpt lat="50.31638" lon="4.80595">
        <ele>190.6</ele>
        <time>2025-04-05T07:15:44Z</time>
      </trkpt>
      <trkpt lat="50.31636" lon="4.80607">
        <ele>190.6</ele>
        <time>2025-04-05T07:15:45Z</time>
      </trkpt>
      <trkpt lat="50.31635" lon="4.80618">
        <ele>190.6</ele>
        <time>2025-04-05T07:15:46Z</time>
      </trkpt>
      <trkpt lat="50.31633" lon="4.8063">
        <ele>190.4</ele>
        <time>2025-04-05T07:15:47Z</time>
      </trkpt>
      <trkpt lat="50.31632" lon="4.80641">
        <ele>190.4</ele>
        <time>2025-04-05T07:15:48Z</time>
      </trkpt>
      <trkpt lat="50.31631" lon="4.80652">
        <ele>190.4</ele>
        <time>2025-04-05T07:15:49Z</time>
      </trkpt>
      <trkpt lat="50.3163" lon="4.80663">
        <ele>190.4</ele>
        <time>2025-04-05T07:15:50Z</time>
      </trkpt>
      <trkpt lat="50.3163" lon="4.80674">
        <ele>190.2</ele>
        <time>2025-04-05T07:15:51Z</time>
      </trkpt>
      <trkpt lat="50.31628" lon="4.80685">
        <ele>190.2</ele>
        <time>2025-04-05T07:15:52Z</time>
      </trkpt>
      <trkpt lat="50.31627" lon="4.80697">
        <ele>190.2</ele>
        <time>2025-04-05T07:15:53Z</time>
      </trkpt>
      <trkpt lat="50.31625" lon="4.80709">
        <ele>190.2</ele>
        <time>2025-04-05T07:15:54Z</time>
      </trkpt>
      <trkpt lat="50.31624" lon="4.8072">
        <ele>190</ele>
        <time>2025-04-05T07:15:55Z</time>
      </trkpt>
      <trkpt lat="50.31624" lon="4.80732">
        <ele>190</ele>
        <time>2025-04-05T07:15:56Z</time>
      </trkpt>
      <trkpt lat="50.31624" lon="4.80745">
        <ele>189.8</ele>
        <time>2025-04-05T07:15:57Z</time>
      </trkpt>
      <trkpt lat="50.31623" lon="4.80757">
        <ele>189.6</ele>
        <time>2025-04-05T07:15:58Z</time>
      </trkpt>
      <trkpt lat="50.31623" lon="4.80768">
        <ele>189.6</ele>
        <time>2025-04-05T07:15:59Z</time>
      </trkpt>
      <trkpt lat="50.31623" lon="4.8078">
        <ele>189.4</ele>
        <time>2025-04-05T07:16:00Z</time>
      </trkpt>
      <trkpt lat="50.31622" lon="4.80792">
        <ele>189.4</ele>
        <time>2025-04-05T07:16:01Z</time>
      </trkpt>
      <trkpt lat="50.31622" lon="4.80804">
        <ele>189.2</ele>
        <time>2025-04-05T07:16:02Z</time>
      </trkpt>
      <trkpt lat="50.31622" lon="4.80815">
        <ele>189</ele>
        <time>2025-04-05T07:16:03Z</time>
      </trkpt>
      <trkpt lat="50.31622" lon="4.80827">
        <ele>189</ele>
        <time>2025-04-05T07:16:04Z</time>
      </trkpt>
      <trkpt lat="50.31621" lon="4.80838">
        <ele>188.8</ele>
        <time>2025-04-05T07:16:05Z</time>
      </trkpt>
      <trkpt lat="50.3162" lon="4.80848">
        <ele>188.8</ele>
        <time>2025-04-05T07:16:06Z</time>
      </trkpt>
      <trkpt lat="50.31617" lon="4.80858">
        <ele>188.8</ele>
        <time>2025-04-05T07:16:07Z</time>
      </trkpt>
      <trkpt lat="50.31614" lon="4.80865">
        <ele>188.8</ele>
        <time>2025-04-05T07:16:08Z</time>
      </trkpt>
      <trkpt lat="50.31608" lon="4.80872">
        <ele>188.8</ele>
        <time>2025-04-05T07:16:09Z</time>
      </trkpt>
      <trkpt lat="50.31603" lon="4.80876">
        <ele>189</ele>
        <time>2025-04-05T07:16:10Z</time>
      </trkpt>
      <trkpt lat="50.31596" lon="4.80878">
        <ele>189</ele>
        <time>2025-04-05T07:16:11Z</time>
      </trkpt>
      <trkpt lat="50.31591" lon="4.80879">
        <ele>189.2</ele>
        <time>2025-04-05T07:16:12Z</time>
      </trkpt>
      <trkpt lat="50.31584" lon="4.80881">
        <ele>189.4</ele>
        <time>2025-04-05T07:16:13Z</time>
      </trkpt>
      <trkpt lat="50.31578" lon="4.80883">
        <ele>189.6</ele>
        <time>2025-04-05T07:16:14Z</time>
      </trkpt>
      <trkpt lat="50.31573" lon="4.80885">
        <ele>190</ele>
        <time>2025-04-05T07:16:15Z</time>
      </trkpt>
      <trkpt lat="50.31568" lon="4.80888">
        <ele>190.2</ele>
        <time>2025-04-05T07:16:16Z</time>
      </trkpt>
      <trkpt lat="50.31563" lon="4.80892">
        <ele>190.6</ele>
        <time>2025-04-05T07:16:17Z</time>
      </trkpt>
      <trkpt lat="50.31559" lon="4.80896">
        <ele>191</ele>
        <time>2025-04-05T07:16:18Z</time>
      </trkpt>
      <trkpt lat="50.31556" lon="4.809">
        <ele>191.6</ele>
        <time>2025-04-05T07:16:19Z</time>
      </trkpt>
      <trkpt lat="50.31553" lon="4.80904">
        <ele>192</ele>
        <time>2025-04-05T07:16:20Z</time>
      </trkpt>
      <trkpt lat="50.3155" lon="4.80908">
        <ele>192.6</ele>
        <time>2025-04-05T07:16:21Z</time>
      </trkpt>
      <trkpt lat="50.31547" lon="4.80912">
        <ele>193</ele>
        <time>2025-04-05T07:16:22Z</time>
      </trkpt>
      <trkpt lat="50.31544" lon="4.80915">
        <ele>193.4</ele>
        <time>2025-04-05T07:16:23Z</time>
      </trkpt>
      <trkpt lat="50.31541" lon="4.80919">
        <ele>193.8</ele>
        <time>2025-04-05T07:16:24Z</time>
      </trkpt>
      <trkpt lat="50.31539" lon="4.80922">
        <ele>194.2</ele>
        <time>2025-04-05T07:16:25Z</time>
      </trkpt>
      <trkpt lat="50.31536" lon="4.80926">
        <ele>194.6</ele>
        <time>2025-04-05T07:16:26Z</time>
      </trkpt>
      <trkpt lat="50.31534" lon="4.8093">
        <ele>195</ele>
        <time>2025-04-05T07:16:27Z</time>
      </trkpt>
      <trkpt lat="50.31532" lon="4.80934">
        <ele>195.4</ele>
        <time>2025-04-05T07:16:28Z</time>
      </trkpt>
      <trkpt lat="50.31529" lon="4.80938">
        <ele>195.8</ele>
        <time>2025-04-05T07:16:29Z</time>
      </trkpt>
      <trkpt lat="50.31527" lon="4.80942">
        <ele>196.2</ele>
        <time>2025-04-05T07:16:30Z</time>
      </trkpt>
      <trkpt lat="50.31525" lon="4.80945">
        <ele>196.6</ele>
        <time>2025-04-05T07:16:31Z</time>
      </trkpt>
      <trkpt lat="50.31522" lon="4.80949">
        <ele>197</ele>
        <time>2025-04-05T07:16:32Z</time>
      </trkpt>
      <trkpt lat="50.31519" lon="4.80953">
        <ele>197.2</ele>
        <time>2025-04-05T07:16:33Z</time>
      </trkpt>
      <trkpt lat="50.31517" lon="4.80957">
        <ele>197.6</ele>
        <time>2025-04-05T07:16:34Z</time>
      </trkpt>
      <trkpt lat="50.31515" lon="4.80961">
        <ele>198</ele>
        <time>2025-04-05T07:16:35Z</time>
      </trkpt>
      <trkpt lat="50.31513" lon="4.80965">
        <ele>198.2</ele>
        <time>2025-04-05T07:16:36Z</time>
      </trkpt>
      <trkpt lat="50.31511" lon="4.80968">
        <ele>198.6</ele>
        <time>2025-04-05T07:16:37Z</time>
      </trkpt>
      <trkpt lat="50.31509" lon="4.80973">
        <ele>199</ele>
        <time>2025-04-05T07:16:38Z</time>
      </trkpt>
      <trkpt lat="50.31506" lon="4.80977">
        <ele>199.2</ele>
        <time>2025-04-05T07:16:39Z</time>
      </trkpt>
      <trkpt lat="50.31504" lon="4.80981">
        <ele>199.6</ele>
        <time>2025-04-05T07:16:40Z</time>
      </trkpt>
      <trkpt lat="50.31502" lon="4.80986">
        <ele>200</ele>
        <time>2025-04-05T07:16:41Z</time>
      </trkpt>
      <trkpt lat="50.315" lon="4.8099">
        <ele>200.2</ele>
        <time>2025-04-05T07:16:42Z</time>
      </trkpt>
      <trkpt lat="50.31498" lon="4.80994">
        <ele>200.6</ele>
        <time>2025-04-05T07:16:43Z</time>
      </trkpt>
      <trkpt lat="50.31496" lon="4.80998">
        <ele>200.8</ele>
        <time>2025-04-05T07:16:44Z</time>
      </trkpt>
      <trkpt lat="50.31494" lon="4.81002">
        <ele>201.2</ele>
        <time>2025-04-05T07:16:45Z</time>
      </trkpt>
      <trkpt lat="50.31492" lon="4.81006">
        <ele>201.4</ele>
        <time>2025-04-05T07:16:46Z</time>
      </trkpt>
      <trkpt lat="50.3149" lon="4.81011">
        <ele>201.6</ele>
        <time>2025-04-05T07:16:47Z</time>
      </trkpt>
      <trkpt lat="50.31488" lon="4.81015">
        <ele>202</ele>
        <time>2025-04-05T07:16:48Z</time>
      </trkpt>
      <trkpt lat="50.31487" lon="4.81019">
        <ele>202.2</ele>
        <time>2025-04-05T07:16:49Z</time>
      </trkpt>
      <trkpt lat="50.31485" lon="4.81023">
        <ele>202.4</ele>
        <time>2025-04-05T07:16:50Z</time>
      </trkpt>
      <trkpt lat="50.31482" lon="4.81028">
        <ele>202.8</ele>
        <time>2025-04-05T07:16:51Z</time>
      </trkpt>
      <trkpt lat="50.3148" lon="4.81032">
        <ele>203</ele>
        <time>2025-04-05T07:16:52Z</time>
      </trkpt>
      <trkpt lat="50.31479" lon="4.81037">
        <ele>203.4</ele>
        <time>2025-04-05T07:16:53Z</time>
      </trkpt>
      <trkpt lat="50.31477" lon="4.81041">
        <ele>203.6</ele>
        <time>2025-04-05T07:16:54Z</time>
      </trkpt>
      <trkpt lat="50.31475" lon="4.81045">
        <ele>204</ele>
        <time>2025-04-05T07:16:55Z</time>
      </trkpt>
      <trkpt lat="50.31473" lon="4.81048">
        <ele>204.2</ele>
        <time>2025-04-05T07:16:56Z</time>
      </trkpt>
      <trkpt lat="50.31471" lon="4.81052">
        <ele>204.4</ele>
        <time>2025-04-05T07:16:57Z</time>
      </trkpt>
      <trkpt lat="50.31469" lon="4.81055">
        <ele>204.6</ele>
        <time>2025-04-05T07:16:58Z</time>
      </trkpt>
      <trkpt lat="50.31467" lon="4.81059">
        <ele>205</ele>
        <time>2025-04-05T07:16:59Z</time>
      </trkpt>
      <trkpt lat="50.31465" lon="4.81062">
        <ele>205.2</ele>
        <time>2025-04-05T07:17:00Z</time>
      </trkpt>
      <trkpt lat="50.31463" lon="4.81065">
        <ele>205.4</ele>
        <time>2025-04-05T07:17:01Z</time>
      </trkpt>
      <trkpt lat="50.31461" lon="4.81069">
        <ele>205.6</ele>
        <time>2025-04-05T07:17:02Z</time>
      </trkpt>
      <trkpt lat="50.31459" lon="4.81072">
        <ele>205.8</ele>
        <time>2025-04-05T07:17:03Z</time>
      </trkpt>
      <trkpt lat="50.31457" lon="4.81076">
        <ele>206</ele>
        <time>2025-04-05T07:17:04Z</time>
      </trkpt>
      <trkpt lat="50.31455" lon="4.81079">
        <ele>206.4</ele>
        <time>2025-04-05T07:17:05Z</time>
      </trkpt>
      <trkpt lat="50.31452" lon="4.81082">
        <ele>206.6</ele>
        <time>2025-04-05T07:17:06Z</time>
      </trkpt>
      <trkpt lat="50.3145" lon="4.81086">
        <ele>206.8</ele>
        <time>2025-04-05T07:17:07Z</time>
      </trkpt>
      <trkpt lat="50.31448" lon="4.81089">
        <ele>207</ele>
        <time>2025-04-05T07:17:08Z</time>
      </trkpt>
      <trkpt lat="50.31446" lon="4.81092">
        <ele>207.2</ele>
        <time>2025-04-05T07:17:09Z</time>
      </trkpt>
      <trkpt lat="50.31444" lon="4.81095">
        <ele>207.4</ele>
        <time>2025-04-05T07:17:10Z</time>
      </trkpt>
      <trkpt lat="50.31442" lon="4.81099">
        <ele>207.8</ele>
        <time>2025-04-05T07:17:11Z</time>
      </trkpt>
      <trkpt lat="50.31439" lon="4.81102">
        <ele>208</ele>
        <time>2025-04-05T07:17:12Z</time>
      </trkpt>
      <trkpt lat="50.31437" lon="4.81105">
        <ele>208.2</ele>
        <time>2025-04-05T07:17:13Z</time>
      </trkpt>
      <trkpt lat="50.31435" lon="4.81109">
        <ele>208.4</ele>
        <time>2025-04-05T07:17:14Z</time>
      </trkpt>
      <trkpt lat="50.31434" lon="4.81112">
        <ele>208.6</ele>
        <time>2025-04-05T07:17:15Z</time>
      </trkpt>
      <trkpt lat="50.31432" lon="4.81115">
        <ele>208.8</ele>
        <time>2025-04-05T07:17:16Z</time>
      </trkpt>
      <trkpt lat="50.31429" lon="4.81118">
        <ele>209</ele>
        <time>2025-04-05T07:17:17Z</time>
      </trkpt>
      <trkpt lat="50.31427" lon="4.81121">
        <ele>209.2</ele>
        <time>2025-04-05T07:17:18Z</time>
      </trkpt>
      <trkpt lat="50.31425" lon="4.81124">
        <ele>209.4</ele>
        <time>2025-04-05T07:17:19Z</time>
      </trkpt>
      <trkpt lat="50.31423" lon="4.81127">
        <ele>209.6</ele>
        <time>2025-04-05T07:17:20Z</time>
      </trkpt>
      <trkpt lat="50.31421" lon="4.8113">
        <ele>209.8</ele>
        <time>2025-04-05T07:17:21Z</time>
      </trkpt>
      <trkpt lat="50.31419" lon="4.81134">
        <ele>210</ele>
        <time>2025-04-05T07:17:22Z</time>
      </trkpt>
      <trkpt lat="50.31416" lon="4.81137">
        <ele>210.2</ele>
        <time>2025-04-05T07:17:23Z</time>
      </trkpt>
      <trkpt lat="50.31414" lon="4.8114">
        <ele>210.4</ele>
        <time>2025-04-05T07:17:24Z</time>
      </trkpt>
      <trkpt lat="50.31412" lon="4.81143">
        <ele>210.6</ele>
        <time>2025-04-05T07:17:25Z</time>
      </trkpt>
      <trkpt lat="50.3141" lon="4.81146">
        <ele>211</ele>
        <time>2025-04-05T07:17:26Z</time>
      </trkpt>
      <trkpt lat="50.31408" lon="4.81149">
        <ele>211.2</ele>
        <time>2025-04-05T07:17:27Z</time>
      </trkpt>
      <trkpt lat="50.31406" lon="4.81153">
        <ele>211.4</ele>
        <time>2025-04-05T07:17:28Z</time>
      </trkpt>
      <trkpt lat="50.31404" lon="4.81156">
        <ele>211.6</ele>
        <time>2025-04-05T07:17:29Z</time>
      </trkpt>
      <trkpt lat="50.31402" lon="4.81159">
        <ele>211.8</ele>
        <time>2025-04-05T07:17:30Z</time>
      </trkpt>
      <trkpt lat="50.314" lon="4.81163">
        <ele>212</ele>
        <time>2025-04-05T07:17:31Z</time>
      </trkpt>
      <trkpt lat="50.31398" lon="4.81166">
        <ele>212.2</ele>
        <time>2025-04-05T07:17:32Z</time>
      </trkpt>
      <trkpt lat="50.31396" lon="4.81169">
        <ele>212.4</ele>
        <time>2025-04-05T07:17:33Z</time>
      </trkpt>
      <trkpt lat="50.31393" lon="4.81172">
        <ele>212.6</ele>
        <time>2025-04-05T07:17:34Z</time>
      </trkpt>
      <trkpt lat="50.31392" lon="4.81175">
        <ele>212.8</ele>
        <time>2025-04-05T07:17:35Z</time>
      </trkpt>
      <trkpt lat="50.3139" lon="4.81179">
        <ele>213</ele>
        <time>2025-04-05T07:17:36Z</time>
      </trkpt>
      <trkpt lat="50.31387" lon="4.81182">
        <ele>213.4</ele>
        <time>2025-04-05T07:17:37Z</time>
      </trkpt>
      <trkpt lat="50.31385" lon="4.81185">
        <ele>213.6</ele>
        <time>2025-04-05T07:17:38Z</time>
      </trkpt>
      <trkpt lat="50.31383" lon="4.81188">
        <ele>213.8</ele>
        <time>2025-04-05T07:17:39Z</time>
      </trkpt>
      <trkpt lat="50.31381" lon="4.81191">
        <ele>214</ele>
        <time>2025-04-05T07:17:40Z</time>
      </trkpt>
      <trkpt lat="50.31379" lon="4.81194">
        <ele>214.2</ele>
        <time>2025-04-05T07:17:41Z</time>
      </trkpt>
      <trkpt lat="50.31377" lon="4.81196">
        <ele>214.6</ele>
        <time>2025-04-05T07:17:42Z</time>
      </trkpt>
      <trkpt lat="50.31375" lon="4.81199">
        <ele>214.8</ele>
        <time>2025-04-05T07:17:43Z</time>
      </trkpt>
      <trkpt lat="50.31373" lon="4.81202">
        <ele>215</ele>
        <time>2025-04-05T07:17:44Z</time>
      </trkpt>
      <trkpt lat="50.31371" lon="4.81204">
        <ele>215.2</ele>
        <time>2025-04-05T07:17:45Z</time>
      </trkpt>
      <trkpt lat="50.31369" lon="4.81207">
        <ele>215.4</ele>
        <time>2025-04-05T07:17:46Z</time>
      </trkpt>
      <trkpt lat="50.31367" lon="4.81209">
        <ele>215.6</ele>
        <time>2025-04-05T07:17:47Z</time>
      </trkpt>
      <trkpt lat="50.31365" lon="4.81212">
        <ele>216</ele>
        <time>2025-04-05T07:17:48Z</time>
      </trkpt>
      <trkpt lat="50.31363" lon="4.81215">
        <ele>216</ele>
        <time>2025-04-05T07:17:49Z</time>
      </trkpt>
      <trkpt lat="50.3136" lon="4.81217">
        <ele>216.2</ele>
        <time>2025-04-05T07:17:50Z</time>
      </trkpt>
      <trkpt lat="50.31358" lon="4.81219">
        <ele>216.4</ele>
        <time>2025-04-05T07:17:51Z</time>
      </trkpt>
      <trkpt lat="50.31355" lon="4.81222">
        <ele>216.4</ele>
        <time>2025-04-05T07:17:52Z</time>
      </trkpt>
      <trkpt lat="50.31352" lon="4.81225">
        <ele>216.4</ele>
        <time>2025-04-05T07:17:53Z</time>
      </trkpt>
      <trkpt lat="50.31348" lon="4.81228">
        <ele>216.4</ele>
        <time>2025-04-05T07:17:54Z</time>
      </trkpt>
      <trkpt lat="50.31344" lon="4.81232">
        <ele>216.2</ele>
        <time>2025-04-05T07:17:55Z</time>
      </trkpt>
      <trkpt lat="50.31339" lon="4.81236">
        <ele>216.2</ele>
        <time>2025-04-05T07:17:56Z</time>
      </trkpt>
      <trkpt lat="50.31335" lon="4.81239">
        <ele>216</ele>
        <time>2025-04-05T07:17:57Z</time>
      </trkpt>
      <trkpt lat="50.31331" lon="4.81244">
        <ele>215.8</ele>
        <time>2025-04-05T07:17:58Z</time>
      </trkpt>
      <trkpt lat="50.31326" lon="4.81248">
        <ele>215.6</ele>
        <time>2025-04-05T07:17:59Z</time>
      </trkpt>
      <trkpt lat="50.31321" lon="4.81253">
        <ele>215.4</ele>
        <time>2025-04-05T07:18:00Z</time>
      </trkpt>
      <trkpt lat="50.31316" lon="4.81257">
        <ele>215.2</ele>
        <time>2025-04-05T07:18:01Z</time>
      </trkpt>
      <trkpt lat="50.31311" lon="4.81263">
        <ele>215</ele>
        <time>2025-04-05T07:18:02Z</time>
      </trkpt>
      <trkpt lat="50.31307" lon="4.81269">
        <ele>215</ele>
        <time>2025-04-05T07:18:03Z</time>
      </trkpt>
      <trkpt lat="50.31302" lon="4.81275">
        <ele>214.8</ele>
        <time>2025-04-05T07:18:04Z</time>
      </trkpt>
      <trkpt lat="50.31298" lon="4.8128">
        <ele>214.6</ele>
        <time>2025-04-05T07:18:05Z</time>
      </trkpt>
      <trkpt lat="50.31294" lon="4.81286">
        <ele>214.6</ele>
        <time>2025-04-05T07:18:06Z</time>
      </trkpt>
      <trkpt lat="50.31289" lon="4.81293">
        <ele>214.4</ele>
        <time>2025-04-05T07:18:07Z</time>
      </trkpt>
      <trkpt lat="50.31286" lon="4.81299">
        <ele>214.4</ele>
        <time>2025-04-05T07:18:08Z</time>
      </trkpt>
      <trkpt lat="50.31282" lon="4.81305">
        <ele>214.4</ele>
        <time>2025-04-05T07:18:09Z</time>
      </trkpt>
      <trkpt lat="50.31278" lon="4.81311">
        <ele>214.4</ele>
        <time>2025-04-05T07:18:10Z</time>
      </trkpt>
      <trkpt lat="50.31274" lon="4.81317">
        <ele>214.2</ele>
        <time>2025-04-05T07:18:11Z</time>
      </trkpt>
      <trkpt lat="50.31271" lon="4.81323">
        <ele>214.2</ele>
        <time>2025-04-05T07:18:12Z</time>
      </trkpt>
      <trkpt lat="50.31267" lon="4.8133">
        <ele>214.2</ele>
        <time>2025-04-05T07:18:13Z</time>
      </trkpt>
      <trkpt lat="50.31264" lon="4.81336">
        <ele>214.2</ele>
        <time>2025-04-05T07:18:14Z</time>
      </trkpt>
      <trkpt lat="50.3126" lon="4.81343">
        <ele>214.2</ele>
        <time>2025-04-05T07:18:15Z</time>
      </trkpt>
      <trkpt lat="50.31257" lon="4.81349">
        <ele>214.2</ele>
        <time>2025-04-05T07:18:16Z</time>
      </trkpt>
      <trkpt lat="50.31253" lon="4.81355">
        <ele>214.4</ele>
        <time>2025-04-05T07:18:17Z</time>
      </trkpt>
      <trkpt lat="50.31249" lon="4.81361">
        <ele>214.4</ele>
        <time>2025-04-05T07:18:18Z</time>
      </trkpt>
      <trkpt lat="50.31245" lon="4.81367">
        <ele>214.6</ele>
        <time>2025-04-05T07:18:19Z</time>
      </trkpt>
      <trkpt lat="50.31241" lon="4.81373">
        <ele>214.6</ele>
        <time>2025-04-05T07:18:20Z</time>
      </trkpt>
      <trkpt lat="50.31237" lon="4.81379">
        <ele>214.6</ele>
        <time>2025-04-05T07:18:21Z</time>
      </trkpt>
      <trkpt lat="50.31234" lon="4.81385">
        <ele>214.8</ele>
        <time>2025-04-05T07:18:22Z</time>
      </trkpt>
      <trkpt lat="50.31229" lon="4.81391">
        <ele>214.8</ele>
        <time>2025-04-05T07:18:23Z</time>
      </trkpt>
      <trkpt lat="50.31226" lon="4.81397">
        <ele>214.8</ele>
        <time>2025-04-05T07:18:24Z</time>
      </trkpt>
      <trkpt lat="50.31221" lon="4.81402">
        <ele>214.8</ele>
        <time>2025-04-05T07:18:25Z</time>
      </trkpt>
      <trkpt lat="50.31217" lon="4.81408">
        <ele>214.8</ele>
        <time>2025-04-05T07:18:26Z</time>
      </trkpt>
      <trkpt lat="50.31213" lon="4.81413">
        <ele>214.8</ele>
        <time>2025-04-05T07:18:27Z</time>
      </trkpt>
      <trkpt lat="50.31208" lon="4.81419">
        <ele>214.8</ele>
        <time>2025-04-05T07:18:28Z</time>
      </trkpt>
      <trkpt lat="50.31204" lon="4.81425">
        <ele>214.8</ele>
        <time>2025-04-05T07:18:29Z</time>
      </trkpt>
      <trkpt lat="50.31199" lon="4.81431">
        <ele>214.8</ele>
        <time>2025-04-05T07:18:30Z</time>
      </trkpt>
      <trkpt lat="50.31194" lon="4.81437">
        <ele>214.6</ele>
        <time>2025-04-05T07:18:31Z</time>
      </trkpt>
      <trkpt lat="50.3119" lon="4.81443">
        <ele>214.6</ele>
        <time>2025-04-05T07:18:32Z</time>
      </trkpt>
      <trkpt lat="50.31186" lon="4.8145">
        <ele>214.6</ele>
        <time>2025-04-05T07:18:33Z</time>
      </trkpt>
      <trkpt lat="50.31181" lon="4.81456">
        <ele>214.6</ele>
        <time>2025-04-05T07:18:34Z</time>
      </trkpt>
      <trkpt lat="50.31178" lon="4.81463">
        <ele>214.6</ele>
        <time>2025-04-05T07:18:35Z</time>
      </trkpt>
      <trkpt lat="50.31174" lon="4.8147">
        <ele>214.6</ele>
        <time>2025-04-05T07:18:36Z</time>
      </trkpt>
      <trkpt lat="50.3117" lon="4.81478">
        <ele>214.6</ele>
        <time>2025-04-05T07:18:37Z</time>
      </trkpt>
      <trkpt lat="50.31167" lon="4.81485">
        <ele>214.6</ele>
        <time>2025-04-05T07:18:38Z</time>
      </trkpt>
      <trkpt lat="50.31163" lon="4.81493">
        <ele>214.8</ele>
        <time>2025-04-05T07:18:39Z</time>
      </trkpt>
      <trkpt lat="50.3116" lon="4.815">
        <ele>214.8</ele>
        <time>2025-04-05T07:18:40Z</time>
      </trkpt>
      <trkpt lat="50.31157" lon="4.81508">
        <ele>214.8</ele>
        <time>2025-04-05T07:18:41Z</time>
      </trkpt>
      <trkpt lat="50.31154" lon="4.81516">
        <ele>214.8</ele>
        <time>2025-04-05T07:18:42Z</time>
      </trkpt>
      <trkpt lat="50.31152" lon="4.81524">
        <ele>214.6</ele>
        <time>2025-04-05T07:18:43Z</time>
      </trkpt>
      <trkpt lat="50.31149" lon="4.81532">
        <ele>214.6</ele>
        <time>2025-04-05T07:18:44Z</time>
      </trkpt>
      <trkpt lat="50.31146" lon="4.81539">
        <ele>214.6</ele>
        <time>2025-04-05T07:18:45Z</time>
      </trkpt>
      <trkpt lat="50.31142" lon="4.81547">
        <ele>214.6</ele>
        <time>2025-04-05T07:18:46Z</time>
      </trkpt>
      <trkpt lat="50.31139" lon="4.81555">
        <ele>214.6</ele>
        <time>2025-04-05T07:18:47Z</time>
      </trkpt>
      <trkpt lat="50.31136" lon="4.81563">
        <ele>214.4</ele>
        <time>2025-04-05T07:18:48Z</time>
      </trkpt>
      <trkpt lat="50.31133" lon="4.81572">
        <ele>214.2</ele>
        <time>2025-04-05T07:18:49Z</time>
      </trkpt>
      <trkpt lat="50.3113" lon="4.8158">
        <ele>214</ele>
        <time>2025-04-05T07:18:50Z</time>
      </trkpt>
      <trkpt lat="50.31126" lon="4.8159">
        <ele>213.8</ele>
        <time>2025-04-05T07:18:51Z</time>
      </trkpt>
      <trkpt lat="50.31123" lon="4.81599">
        <ele>213.6</ele>
        <time>2025-04-05T07:18:52Z</time>
      </trkpt>
      <trkpt lat="50.31121" lon="4.81609">
        <ele>213.4</ele>
        <time>2025-04-05T07:18:53Z</time>
      </trkpt>
      <trkpt lat="50.31118" lon="4.81619">
        <ele>213</ele>
        <time>2025-04-05T07:18:54Z</time>
      </trkpt>
      <trkpt lat="50.31116" lon="4.81628">
        <ele>212.6</ele>
        <time>2025-04-05T07:18:55Z</time>
      </trkpt>
      <trkpt lat="50.31114" lon="4.81639">
        <ele>212.4</ele>
        <time>2025-04-05T07:18:56Z</time>
      </trkpt>
      <trkpt lat="50.31112" lon="4.81649">
        <ele>212.2</ele>
        <time>2025-04-05T07:18:57Z</time>
      </trkpt>
      <trkpt lat="50.31109" lon="4.81659">
        <ele>212</ele>
        <time>2025-04-05T07:18:58Z</time>
      </trkpt>
      <trkpt lat="50.31107" lon="4.81668">
        <ele>211.8</ele>
        <time>2025-04-05T07:18:59Z</time>
      </trkpt>
      <trkpt lat="50.31105" lon="4.81677">
        <ele>211.8</ele>
        <time>2025-04-05T07:19:00Z</time>
      </trkpt>
      <trkpt lat="50.31103" lon="4.81686">
        <ele>211.6</ele>
        <time>2025-04-05T07:19:01Z</time>
      </trkpt>
      <trkpt lat="50.31101" lon="4.81695">
        <ele>211.4</ele>
        <time>2025-04-05T07:19:02Z</time>
      </trkpt>
      <trkpt lat="50.31099" lon="4.81702">
        <ele>211.4</ele>
        <time>2025-04-05T07:19:03Z</time>
      </trkpt>
      <trkpt lat="50.31097" lon="4.8171">
        <ele>211.2</ele>
        <time>2025-04-05T07:19:04Z</time>
      </trkpt>
      <trkpt lat="50.31095" lon="4.81718">
        <ele>211.2</ele>
        <time>2025-04-05T07:19:05Z</time>
      </trkpt>
      <trkpt lat="50.31093" lon="4.81726">
        <ele>211</ele>
        <time>2025-04-05T07:19:06Z</time>
      </trkpt>
      <trkpt lat="50.31091" lon="4.81734">
        <ele>211</ele>
        <time>2025-04-05T07:19:07Z</time>
      </trkpt>
      <trkpt lat="50.31088" lon="4.81741">
        <ele>211</ele>
        <time>2025-04-05T07:19:08Z</time>
      </trkpt>
      <trkpt lat="50.31086" lon="4.81748">
        <ele>210.8</ele>
        <time>2025-04-05T07:19:09Z</time>
      </trkpt>
      <trkpt lat="50.31083" lon="4.81755">
        <ele>210.8</ele>
        <time>2025-04-05T07:19:10Z</time>
      </trkpt>
      <trkpt lat="50.31079" lon="4.81762">
        <ele>210.6</ele>
        <time>2025-04-05T07:19:11Z</time>
      </trkpt>
      <trkpt lat="50.31076" lon="4.8177">
        <ele>210.6</ele>
        <time>2025-04-05T07:19:12Z</time>
      </trkpt>
      <trkpt lat="50.31073" lon="4.81778">
        <ele>210.4</ele>
        <time>2025-04-05T07:19:13Z</time>
      </trkpt>
      <trkpt lat="50.3107" lon="4.81786">
        <ele>210.4</ele>
        <time>2025-04-05T07:19:14Z</time>
      </trkpt>
      <trkpt lat="50.31066" lon="4.81794">
        <ele>210.2</ele>
        <time>2025-04-05T07:19:15Z</time>
      </trkpt>
      <trkpt lat="50.31063" lon="4.81801">
        <ele>210</ele>
        <time>2025-04-05T07:19:16Z</time>
      </trkpt>
      <trkpt lat="50.3106" lon="4.81809">
        <ele>210</ele>
        <time>2025-04-05T07:19:17Z</time>
      </trkpt>
      <trkpt lat="50.31056" lon="4.81817">
        <ele>210</ele>
        <time>2025-04-05T07:19:18Z</time>
      </trkpt>
      <trkpt lat="50.31052" lon="4.81825">
        <ele>209.8</ele>
        <time>2025-04-05T07:19:19Z</time>
      </trkpt>
      <trkpt lat="50.3105" lon="4.81833">
        <ele>209.8</ele>
        <time>2025-04-05T07:19:20Z</time>
      </trkpt>
      <trkpt lat="50.31046" lon="4.8184">
        <ele>209.6</ele>
        <time>2025-04-05T07:19:21Z</time>
      </trkpt>
      <trkpt lat="50.31042" lon="4.81847">
        <ele>209.6</ele>
        <time>2025-04-05T07:19:22Z</time>
      </trkpt>
      <trkpt lat="50.31038" lon="4.81854">
        <ele>209.4</ele>
        <time>2025-04-05T07:19:23Z</time>
      </trkpt>
      <trkpt lat="50.31034" lon="4.8186">
        <ele>209.4</ele>
        <time>2025-04-05T07:19:24Z</time>
      </trkpt>
      <trkpt lat="50.3103" lon="4.81867">
        <ele>209.4</ele>
        <time>2025-04-05T07:19:25Z</time>
      </trkpt>
      <trkpt lat="50.31026" lon="4.81874">
        <ele>209.2</ele>
        <time>2025-04-05T07:19:26Z</time>
      </trkpt>
      <trkpt lat="50.31022" lon="4.8188">
        <ele>209.2</ele>
        <time>2025-04-05T07:19:27Z</time>
      </trkpt>
      <trkpt lat="50.31018" lon="4.81886">
        <ele>209</ele>
        <time>2025-04-05T07:19:28Z</time>
      </trkpt>
      <trkpt lat="50.31015" lon="4.81892">
        <ele>209</ele>
        <time>2025-04-05T07:19:29Z</time>
      </trkpt>
      <trkpt lat="50.31012" lon="4.81898">
        <ele>208.8</ele>
        <time>2025-04-05T07:19:30Z</time>
      </trkpt>
      <trkpt lat="50.31008" lon="4.81904">
        <ele>208.6</ele>
        <time>2025-04-05T07:19:31Z</time>
      </trkpt>
      <trkpt lat="50.31004" lon="4.8191">
        <ele>208.4</ele>
        <time>2025-04-05T07:19:32Z</time>
      </trkpt>
      <trkpt lat="50.31" lon="4.81915">
        <ele>208</ele>
        <time>2025-04-05T07:19:33Z</time>
      </trkpt>
      <trkpt lat="50.30995" lon="4.81919">
        <ele>207.6</ele>
        <time>2025-04-05T07:19:34Z</time>
      </trkpt>
      <trkpt lat="50.30991" lon="4.81923">
        <ele>207.4</ele>
        <time>2025-04-05T07:19:35Z</time>
      </trkpt>
      <trkpt lat="50.30988" lon="4.81926">
        <ele>207</ele>
        <time>2025-04-05T07:19:36Z</time>
      </trkpt>
      <trkpt lat="50.30984" lon="4.81927">
        <ele>206.8</ele>
        <time>2025-04-05T07:19:37Z</time>
      </trkpt>
      <trkpt lat="50.30981" lon="4.81928">
        <ele>206.4</ele>
        <time>2025-04-05T07:19:38Z</time>
      </trkpt>
      <trkpt lat="50.30977" lon="4.81928">
        <ele>206</ele>
        <time>2025-04-05T07:19:39Z</time>
      </trkpt>
      <trkpt lat="50.30974" lon="4.81927">
        <ele>205.8</ele>
        <time>2025-04-05T07:19:40Z</time>
      </trkpt>
      <trkpt lat="50.30971" lon="4.81923">
        <ele>205.4</ele>
        <time>2025-04-05T07:19:41Z</time>
      </trkpt>
      <trkpt lat="50.30968" lon="4.81919">
        <ele>205</ele>
        <time>2025-04-05T07:19:42Z</time>
      </trkpt>
      <trkpt lat="50.30966" lon="4.81915">
        <ele>204.8</ele>
        <time>2025-04-05T07:19:43Z</time>
      </trkpt>
      <trkpt lat="50.30964" lon="4.81912">
        <ele>204.4</ele>
        <time>2025-04-05T07:19:44Z</time>
      </trkpt>
      <trkpt lat="50.30961" lon="4.81909">
        <ele>204</ele>
        <time>2025-04-05T07:19:45Z</time>
      </trkpt>
      <trkpt lat="50.30959" lon="4.81906">
        <ele>203.8</ele>
        <time>2025-04-05T07:19:46Z</time>
      </trkpt>
      <trkpt lat="50.30956" lon="4.81905">
        <ele>203.4</ele>
        <time>2025-04-05T07:19:47Z</time>
      </trkpt>
      <trkpt lat="50.30953" lon="4.81903">
        <ele>203.2</ele>
        <time>2025-04-05T07:19:48Z</time>
      </trkpt>
      <trkpt lat="50.30949" lon="4.81902">
        <ele>202.8</ele>
        <time>2025-04-05T07:19:49Z</time>
      </trkpt>
      <trkpt lat="50.30945" lon="4.81901">
        <ele>202.4</ele>
        <time>2025-04-05T07:19:50Z</time>
      </trkpt>
      <trkpt lat="50.30941" lon="4.819">
        <ele>201.8</ele>
        <time>2025-04-05T07:19:51Z</time>
      </trkpt>
      <trkpt lat="50.30936" lon="4.81899">
        <ele>201.4</ele>
        <time>2025-04-05T07:19:52Z</time>
      </trkpt>
      <trkpt lat="50.30931" lon="4.81899">
        <ele>200.8</ele>
        <time>2025-04-05T07:19:53Z</time>
      </trkpt>
      <trkpt lat="50.30925" lon="4.81899">
        <ele>200.4</ele>
        <time>2025-04-05T07:19:54Z</time>
      </trkpt>
      <trkpt lat="50.3092" lon="4.81899">
        <ele>199.8</ele>
        <time>2025-04-05T07:19:55Z</time>
      </trkpt>
      <trkpt lat="50.30915" lon="4.819">
        <ele>199.4</ele>
        <time>2025-04-05T07:19:56Z</time>
      </trkpt>
      <trkpt lat="50.30912" lon="4.819">
        <ele>199</ele>
        <time>2025-04-05T07:19:57Z</time>
      </trkpt>
      <trkpt lat="50.30909" lon="4.819">
        <ele>198.6</ele>
        <time>2025-04-05T07:19:58Z</time>
      </trkpt>
      <trkpt lat="50.30906" lon="4.81901">
        <ele>198.4</ele>
        <time>2025-04-05T07:19:59Z</time>
      </trkpt>
      <trkpt lat="50.30903" lon="4.81902">
        <ele>198</ele>
        <time>2025-04-05T07:20:00Z</time>
      </trkpt>
      <trkpt lat="50.30901" lon="4.81904">
        <ele>197.8</ele>
        <time>2025-04-05T07:20:01Z</time>
      </trkpt>
      <trkpt lat="50.30898" lon="4.81907">
        <ele>197.4</ele>
        <time>2025-04-05T07:20:02Z</time>
      </trkpt>
      <trkpt lat="50.30894" lon="4.81909">
        <ele>197.2</ele>
        <time>2025-04-05T07:20:03Z</time>
      </trkpt>
      <trkpt lat="50.3089" lon="4.8191">
        <ele>196.8</ele>
        <time>2025-04-05T07:20:04Z</time>
      </trkpt>
      <trkpt lat="50.30887" lon="4.81909">
        <ele>196.6</ele>
        <time>2025-04-05T07:20:05Z</time>
      </trkpt>
      <trkpt lat="50.30883" lon="4.81906">
        <ele>196.2</ele>
        <time>2025-04-05T07:20:06Z</time>
      </trkpt>
      <trkpt lat="50.30879" lon="4.81902">
        <ele>195.8</ele>
        <time>2025-04-05T07:20:07Z</time>
      </trkpt>
      <trkpt lat="50.30875" lon="4.81896">
        <ele>195.4</ele>
        <time>2025-04-05T07:20:08Z</time>
      </trkpt>
      <trkpt lat="50.30872" lon="4.81889">
        <ele>195.2</ele>
        <time>2025-04-05T07:20:09Z</time>
      </trkpt>
      <trkpt lat="50.3087" lon="4.8188">
        <ele>194.8</ele>
        <time>2025-04-05T07:20:10Z</time>
      </trkpt>
      <trkpt lat="50.30868" lon="4.8187">
        <ele>194.6</ele>
        <time>2025-04-05T07:20:11Z</time>
      </trkpt>
      <trkpt lat="50.30867" lon="4.81861">
        <ele>194.2</ele>
        <time>2025-04-05T07:20:12Z</time>
      </trkpt>
      <trkpt lat="50.30867" lon="4.81851">
        <ele>194</ele>
        <time>2025-04-05T07:20:13Z</time>
      </trkpt>
      <trkpt lat="50.30867" lon="4.81841">
        <ele>193.8</ele>
        <time>2025-04-05T07:20:14Z</time>
      </trkpt>
      <trkpt lat="50.30867" lon="4.8183">
        <ele>193.6</ele>
        <time>2025-04-05T07:20:15Z</time>
      </trkpt>
      <trkpt lat="50.30867" lon="4.8182">
        <ele>193.4</ele>
        <time>2025-04-05T07:20:16Z</time>
      </trkpt>
      <trkpt lat="50.30867" lon="4.81809">
        <ele>193.2</ele>
        <time>2025-04-05T07:20:17Z</time>
      </trkpt>
      <trkpt lat="50.30867" lon="4.81799">
        <ele>193</ele>
        <time>2025-04-05T07:20:18Z</time>
      </trkpt>
      <trkpt lat="50.30867" lon="4.81789">
        <ele>193</ele>
        <time>2025-04-05T07:20:19Z</time>
      </trkpt>
      <trkpt lat="50.30868" lon="4.81779">
        <ele>192.8</ele>
        <time>2025-04-05T07:20:20Z</time>
      </trkpt>
      <trkpt lat="50.30868" lon="4.81768">
        <ele>192.6</ele>
        <time>2025-04-05T07:20:21Z</time>
      </trkpt>
      <trkpt lat="50.30868" lon="4.81757">
        <ele>192.6</ele>
        <time>2025-04-05T07:20:22Z</time>
      </trkpt>
      <trkpt lat="50.30868" lon="4.81747">
        <ele>192.4</ele>
        <time>2025-04-05T07:20:23Z</time>
      </trkpt>
      <trkpt lat="50.30868" lon="4.81737">
        <ele>192.2</ele>
        <time>2025-04-05T07:20:24Z</time>
      </trkpt>
      <trkpt lat="50.30868" lon="4.81726">
        <ele>192</ele>
        <time>2025-04-05T07:20:25Z</time>
      </trkpt>
      <trkpt lat="50.30869" lon="4.81716">
        <ele>192</ele>
        <time>2025-04-05T07:20:26Z</time>
      </trkpt>
      <trkpt lat="50.30869" lon="4.81706">
        <ele>191.8</ele>
        <time>2025-04-05T07:20:27Z</time>
      </trkpt>
      <trkpt lat="50.30869" lon="4.81695">
        <ele>191.6</ele>
        <time>2025-04-05T07:20:28Z</time>
      </trkpt>
      <trkpt lat="50.30869" lon="4.81685">
        <ele>191.4</ele>
        <time>2025-04-05T07:20:29Z</time>
      </trkpt>
      <trkpt lat="50.30869" lon="4.81675">
        <ele>191.2</ele>
        <time>2025-04-05T07:20:30Z</time>
      </trkpt>
      <trkpt lat="50.30869" lon="4.81665">
        <ele>191</ele>
        <time>2025-04-05T07:20:31Z</time>
      </trkpt>
      <trkpt lat="50.30869" lon="4.81655">
        <ele>190.8</ele>
        <time>2025-04-05T07:20:32Z</time>
      </trkpt>
      <trkpt lat="50.30869" lon="4.81644">
        <ele>190.4</ele>
        <time>2025-04-05T07:20:33Z</time>
      </trkpt>
      <trkpt lat="50.30869" lon="4.81633">
        <ele>190.2</ele>
        <time>2025-04-05T07:20:34Z</time>
      </trkpt>
      <trkpt lat="50.30868" lon="4.81622">
        <ele>189.8</ele>
        <time>2025-04-05T07:20:35Z</time>
      </trkpt>
      <trkpt lat="50.30867" lon="4.81611">
        <ele>189.6</ele>
        <time>2025-04-05T07:20:36Z</time>
      </trkpt>
      <trkpt lat="50.30866" lon="4.81599">
        <ele>189.2</ele>
        <time>2025-04-05T07:20:37Z</time>
      </trkpt>
      <trkpt lat="50.30864" lon="4.81587">
        <ele>188.8</ele>
        <time>2025-04-05T07:20:38Z</time>
      </trkpt>
      <trkpt lat="50.30862" lon="4.81575">
        <ele>188.4</ele>
        <time>2025-04-05T07:20:39Z</time>
      </trkpt>
      <trkpt lat="50.30859" lon="4.81563">
        <ele>187.8</ele>
        <time>2025-04-05T07:20:40Z</time>
      </trkpt>
      <trkpt lat="50.30856" lon="4.81552">
        <ele>187.4</ele>
        <time>2025-04-05T07:20:41Z</time>
      </trkpt>
      <trkpt lat="50.30851" lon="4.81541">
        <ele>187</ele>
        <time>2025-04-05T07:20:42Z</time>
      </trkpt>
      <trkpt lat="50.30847" lon="4.8153">
        <ele>186.4</ele>
        <time>2025-04-05T07:20:43Z</time>
      </trkpt>
      <trkpt lat="50.30842" lon="4.81519">
        <ele>185.8</ele>
        <time>2025-04-05T07:20:44Z</time>
      </trkpt>
      <trkpt lat="50.30837" lon="4.81507">
        <ele>185.2</ele>
        <time>2025-04-05T07:20:45Z</time>
      </trkpt>
      <trkpt lat="50.30832" lon="4.81495">
        <ele>184.6</ele>
        <time>2025-04-05T07:20:46Z</time>
      </trkpt>
      <trkpt lat="50.30826" lon="4.81483">
        <ele>184</ele>
        <time>2025-04-05T07:20:47Z</time>
      </trkpt>
      <trkpt lat="50.3082" lon="4.81471">
        <ele>183.6</ele>
        <time>2025-04-05T07:20:48Z</time>
      </trkpt>
      <trkpt lat="50.30814" lon="4.81459">
        <ele>183</ele>
        <time>2025-04-05T07:20:49Z</time>
      </trkpt>
      <trkpt lat="50.30809" lon="4.81447">
        <ele>182.6</ele>
        <time>2025-04-05T07:20:50Z</time>
      </trkpt>
      <trkpt lat="50.30803" lon="4.81434">
        <ele>182</ele>
        <time>2025-04-05T07:20:51Z</time>
      </trkpt>
      <trkpt lat="50.30797" lon="4.81423">
        <ele>181.4</ele>
        <time>2025-04-05T07:20:52Z</time>
      </trkpt>
      <trkpt lat="50.30791" lon="4.81411">
        <ele>180.6</ele>
        <time>2025-04-05T07:20:53Z</time>
      </trkpt>
      <trkpt lat="50.30785" lon="4.81399">
        <ele>179.8</ele>
        <time>2025-04-05T07:20:54Z</time>
      </trkpt>
      <trkpt lat="50.30779" lon="4.81386">
        <ele>179</ele>
        <time>2025-04-05T07:20:55Z</time>
      </trkpt>
      <trkpt lat="50.30772" lon="4.81374">
        <ele>178.4</ele>
        <time>2025-04-05T07:20:56Z</time>
      </trkpt>
      <trkpt lat="50.30766" lon="4.81361">
        <ele>177.8</ele>
        <time>2025-04-05T07:20:57Z</time>
      </trkpt>
      <trkpt lat="50.30759" lon="4.81349">
        <ele>177.4</ele>
        <time>2025-04-05T07:20:58Z</time>
      </trkpt>
      <trkpt lat="50.30753" lon="4.81336">
        <ele>177</ele>
        <time>2025-04-05T07:20:59Z</time>
      </trkpt>
      <trkpt lat="50.30747" lon="4.81324">
        <ele>176.8</ele>
        <time>2025-04-05T07:21:00Z</time>
      </trkpt>
      <trkpt lat="50.3074" lon="4.81313">
        <ele>176.6</ele>
        <time>2025-04-05T07:21:01Z</time>
      </trkpt>
      <trkpt lat="50.30734" lon="4.81301">
        <ele>176.6</ele>
        <time>2025-04-05T07:21:02Z</time>
      </trkpt>
      <trkpt lat="50.30727" lon="4.8129">
        <ele>176.4</ele>
        <time>2025-04-05T07:21:03Z</time>
      </trkpt>
      <trkpt lat="50.30722" lon="4.81281">
        <ele>176.4</ele>
        <time>2025-04-05T07:21:04Z</time>
      </trkpt>
      <trkpt lat="50.30716" lon="4.81272">
        <ele>176.4</ele>
        <time>2025-04-05T07:21:05Z</time>
      </trkpt>
      <trkpt lat="50.30711" lon="4.81264">
        <ele>176.6</ele>
        <time>2025-04-05T07:21:06Z</time>
      </trkpt>
      <trkpt lat="50.30705" lon="4.81256">
        <ele>176.6</ele>
        <time>2025-04-05T07:21:07Z</time>
      </trkpt>
      <trkpt lat="50.30699" lon="4.81249">
        <ele>176.8</ele>
        <time>2025-04-05T07:21:08Z</time>
      </trkpt>
      <trkpt lat="50.30694" lon="4.81242">
        <ele>177</ele>
        <time>2025-04-05T07:21:09Z</time>
      </trkpt>
      <trkpt lat="50.30689" lon="4.81235">
        <ele>177.2</ele>
        <time>2025-04-05T07:21:10Z</time>
      </trkpt>
      <trkpt lat="50.30684" lon="4.81229">
        <ele>177.4</ele>
        <time>2025-04-05T07:21:11Z</time>
      </trkpt>
      <trkpt lat="50.30679" lon="4.81222">
        <ele>177.8</ele>
        <time>2025-04-05T07:21:12Z</time>
      </trkpt>
      <trkpt lat="50.30674" lon="4.81216">
        <ele>178</ele>
        <time>2025-04-05T07:21:13Z</time>
      </trkpt>
      <trkpt lat="50.30669" lon="4.81209">
        <ele>178.2</ele>
        <time>2025-04-05T07:21:14Z</time>
      </trkpt>
      <trkpt lat="50.30665" lon="4.81203">
        <ele>178.6</ele>
        <time>2025-04-05T07:21:15Z</time>
      </trkpt>
      <trkpt lat="50.30661" lon="4.81197">
        <ele>178.8</ele>
        <time>2025-04-05T07:21:16Z</time>
      </trkpt>
      <trkpt lat="50.30657" lon="4.8119">
        <ele>179.2</ele>
        <time>2025-04-05T07:21:17Z</time>
      </trkpt>
      <trkpt lat="50.30653" lon="4.81183">
        <ele>179.4</ele>
        <time>2025-04-05T07:21:18Z</time>
      </trkpt>
      <trkpt lat="50.3065" lon="4.81176">
        <ele>179.8</ele>
        <time>2025-04-05T07:21:19Z</time>
      </trkpt>
      <trkpt lat="50.30647" lon="4.81169">
        <ele>180</ele>
        <time>2025-04-05T07:21:20Z</time>
      </trkpt>
      <trkpt lat="50.30645" lon="4.81161">
        <ele>180.2</ele>
        <time>2025-04-05T07:21:21Z</time>
      </trkpt>
      <trkpt lat="50.30642" lon="4.81154">
        <ele>180.4</ele>
        <time>2025-04-05T07:21:22Z</time>
      </trkpt>
      <trkpt lat="50.3064" lon="4.81146">
        <ele>180.6</ele>
        <time>2025-04-05T07:21:23Z</time>
      </trkpt>
      <trkpt lat="50.30637" lon="4.81139">
        <ele>180.8</ele>
        <time>2025-04-05T07:21:24Z</time>
      </trkpt>
      <trkpt lat="50.30635" lon="4.81132">
        <ele>181</ele>
        <time>2025-04-05T07:21:25Z</time>
      </trkpt>
      <trkpt lat="50.30633" lon="4.81125">
        <ele>181.2</ele>
        <time>2025-04-05T07:21:26Z</time>
      </trkpt>
      <trkpt lat="50.30631" lon="4.81117">
        <ele>181.4</ele>
        <time>2025-04-05T07:21:27Z</time>
      </trkpt>
      <trkpt lat="50.30628" lon="4.8111">
        <ele>181.4</ele>
        <time>2025-04-05T07:21:28Z</time>
      </trkpt>
      <trkpt lat="50.30626" lon="4.81102">
        <ele>181.6</ele>
        <time>2025-04-05T07:21:29Z</time>
      </trkpt>
      <trkpt lat="50.30623" lon="4.81095">
        <ele>181.8</ele>
        <time>2025-04-05T07:21:30Z</time>
      </trkpt>
      <trkpt lat="50.30621" lon="4.81088">
        <ele>181.8</ele>
        <time>2025-04-05T07:21:31Z</time>
      </trkpt>
      <trkpt lat="50.30618" lon="4.81081">
        <ele>182</ele>
        <time>2025-04-05T07:21:32Z</time>
      </trkpt>
      <trkpt lat="50.30616" lon="4.81074">
        <ele>182.2</ele>
        <time>2025-04-05T07:21:33Z</time>
      </trkpt>
      <trkpt lat="50.30613" lon="4.81067">
        <ele>182.2</ele>
        <time>2025-04-05T07:21:34Z</time>
      </trkpt>
      <trkpt lat="50.30611" lon="4.8106">
        <ele>182.4</ele>
        <time>2025-04-05T07:21:35Z</time>
      </trkpt>
      <trkpt lat="50.30608" lon="4.81053">
        <ele>182.6</ele>
        <time>2025-04-05T07:21:36Z</time>
      </trkpt>
      <trkpt lat="50.30605" lon="4.81045">
        <ele>182.6</ele>
        <time>2025-04-05T07:21:37Z</time>
      </trkpt>
      <trkpt lat="50.30603" lon="4.81039">
        <ele>182.8</ele>
        <time>2025-04-05T07:21:38Z</time>
      </trkpt>
      <trkpt lat="50.306" lon="4.81032">
        <ele>183</ele>
        <time>2025-04-05T07:21:39Z</time>
      </trkpt>
      <trkpt lat="50.30597" lon="4.81025">
        <ele>183.2</ele>
        <time>2025-04-05T07:21:40Z</time>
      </trkpt>
      <trkpt lat="50.30595" lon="4.81018">
        <ele>183.2</ele>
        <time>2025-04-05T07:21:41Z</time>
      </trkpt>
      <trkpt lat="50.30593" lon="4.81011">
        <ele>183.4</ele>
        <time>2025-04-05T07:21:42Z</time>
      </trkpt>
      <trkpt lat="50.3059" lon="4.81005">
        <ele>183.6</ele>
        <time>2025-04-05T07:21:43Z</time>
      </trkpt>
      <trkpt lat="50.30588" lon="4.80998">
        <ele>183.6</ele>
        <time>2025-04-05T07:21:44Z</time>
      </trkpt>
      <trkpt lat="50.30586" lon="4.80991">
        <ele>183.8</ele>
        <time>2025-04-05T07:21:45Z</time>
      </trkpt>
      <trkpt lat="50.30584" lon="4.80983">
        <ele>184</ele>
        <time>2025-04-05T07:21:46Z</time>
      </trkpt>
      <trkpt lat="50.30581" lon="4.80976">
        <ele>184.2</ele>
        <time>2025-04-05T07:21:47Z</time>
      </trkpt>
      <trkpt lat="50.30579" lon="4.80968">
        <ele>184.4</ele>
        <time>2025-04-05T07:21:48Z</time>
      </trkpt>
      <trkpt lat="50.30578" lon="4.80961">
        <ele>184.6</ele>
        <time>2025-04-05T07:21:49Z</time>
      </trkpt>
      <trkpt lat="50.30576" lon="4.80954">
        <ele>185</ele>
        <time>2025-04-05T07:21:50Z</time>
      </trkpt>
      <trkpt lat="50.30574" lon="4.80948">
        <ele>185.2</ele>
        <time>2025-04-05T07:21:51Z</time>
      </trkpt>
      <trkpt lat="50.30572" lon="4.80941">
        <ele>185.6</ele>
        <time>2025-04-05T07:21:52Z</time>
      </trkpt>
      <trkpt lat="50.30571" lon="4.80935">
        <ele>185.8</ele>
        <time>2025-04-05T07:21:53Z</time>
      </trkpt>
      <trkpt lat="50.30569" lon="4.80929">
        <ele>186</ele>
        <time>2025-04-05T07:21:54Z</time>
      </trkpt>
      <trkpt lat="50.30567" lon="4.80923">
        <ele>186.2</ele>
        <time>2025-04-05T07:21:55Z</time>
      </trkpt>
      <trkpt lat="50.30565" lon="4.80917">
        <ele>186.4</ele>
        <time>2025-04-05T07:21:56Z</time>
      </trkpt>
      <trkpt lat="50.30563" lon="4.80911">
        <ele>186.6</ele>
        <time>2025-04-05T07:21:57Z</time>
      </trkpt>
      <trkpt lat="50.30561" lon="4.80904">
        <ele>186.6</ele>
        <time>2025-04-05T07:21:58Z</time>
      </trkpt>
      <trkpt lat="50.3056" lon="4.80897">
        <ele>186.8</ele>
        <time>2025-04-05T07:21:59Z</time>
      </trkpt>
      <trkpt lat="50.30558" lon="4.8089">
        <ele>186.8</ele>
        <time>2025-04-05T07:22:00Z</time>
      </trkpt>
      <trkpt lat="50.30556" lon="4.80883">
        <ele>187</ele>
        <time>2025-04-05T07:22:01Z</time>
      </trkpt>
      <trkpt lat="50.30555" lon="4.80875">
        <ele>187</ele>
        <time>2025-04-05T07:22:02Z</time>
      </trkpt>
      <trkpt lat="50.30553" lon="4.80868">
        <ele>187.2</ele>
        <time>2025-04-05T07:22:03Z</time>
      </trkpt>
      <trkpt lat="50.30551" lon="4.8086">
        <ele>187.2</ele>
        <time>2025-04-05T07:22:04Z</time>
      </trkpt>
      <trkpt lat="50.30549" lon="4.80853">
        <ele>187.2</ele>
        <time>2025-04-05T07:22:05Z</time>
      </trkpt>
      <trkpt lat="50.30547" lon="4.80846">
        <ele>187.4</ele>
        <time>2025-04-05T07:22:06Z</time>
      </trkpt>
      <trkpt lat="50.30546" lon="4.8084">
        <ele>187.4</ele>
        <time>2025-04-05T07:22:07Z</time>
      </trkpt>
      <trkpt lat="50.30544" lon="4.80833">
        <ele>187.4</ele>
        <time>2025-04-05T07:22:08Z</time>
      </trkpt>
      <trkpt lat="50.30542" lon="4.80826">
        <ele>187.6</ele>
        <time>2025-04-05T07:22:09Z</time>
      </trkpt>
      <trkpt lat="50.30541" lon="4.80819">
        <ele>187.8</ele>
        <time>2025-04-05T07:22:10Z</time>
      </trkpt>
      <trkpt lat="50.30539" lon="4.80811">
        <ele>187.8</ele>
        <time>2025-04-05T07:22:11Z</time>
      </trkpt>
      <trkpt lat="50.30537" lon="4.80804">
        <ele>187.8</ele>
        <time>2025-04-05T07:22:12Z</time>
      </trkpt>
      <trkpt lat="50.30535" lon="4.80797">
        <ele>188</ele>
        <time>2025-04-05T07:22:13Z</time>
      </trkpt>
      <trkpt lat="50.30533" lon="4.8079">
        <ele>188</ele>
        <time>2025-04-05T07:22:14Z</time>
      </trkpt>
      <trkpt lat="50.30531" lon="4.80782">
        <ele>188.2</ele>
        <time>2025-04-05T07:22:15Z</time>
      </trkpt>
      <trkpt lat="50.30529" lon="4.80775">
        <ele>188.4</ele>
        <time>2025-04-05T07:22:16Z</time>
      </trkpt>
      <trkpt lat="50.30528" lon="4.8077">
        <ele>188.4</ele>
        <time>2025-04-05T07:22:17Z</time>
      </trkpt>
      <trkpt lat="50.30526" lon="4.80762">
        <ele>188.6</ele>
        <time>2025-04-05T07:22:18Z</time>
      </trkpt>
      <trkpt lat="50.30524" lon="4.80755">
        <ele>188.8</ele>
        <time>2025-04-05T07:22:19Z</time>
      </trkpt>
      <trkpt lat="50.30523" lon="4.80748">
        <ele>188.8</ele>
        <time>2025-04-05T07:22:20Z</time>
      </trkpt>
      <trkpt lat="50.30521" lon="4.80741">
        <ele>189</ele>
        <time>2025-04-05T07:22:21Z</time>
      </trkpt>
      <trkpt lat="50.3052" lon="4.80734">
        <ele>189</ele>
        <time>2025-04-05T07:22:22Z</time>
      </trkpt>
      <trkpt lat="50.30518" lon="4.80726">
        <ele>189.2</ele>
        <time>2025-04-05T07:22:23Z</time>
      </trkpt>
      <trkpt lat="50.30515" lon="4.80718">
        <ele>189.2</ele>
        <time>2025-04-05T07:22:24Z</time>
      </trkpt>
      <trkpt lat="50.30514" lon="4.80711">
        <ele>189.2</ele>
        <time>2025-04-05T07:22:25Z</time>
      </trkpt>
      <trkpt lat="50.30512" lon="4.80705">
        <ele>189.4</ele>
        <time>2025-04-05T07:22:26Z</time>
      </trkpt>
      <trkpt lat="50.3051" lon="4.80697">
        <ele>189.4</ele>
        <time>2025-04-05T07:22:27Z</time>
      </trkpt>
      <trkpt lat="50.30508" lon="4.8069">
        <ele>189.4</ele>
        <time>2025-04-05T07:22:28Z</time>
      </trkpt>
      <trkpt lat="50.30506" lon="4.80684">
        <ele>189.6</ele>
        <time>2025-04-05T07:22:29Z</time>
      </trkpt>
      <trkpt lat="50.30504" lon="4.80677">
        <ele>189.6</ele>
        <time>2025-04-05T07:22:30Z</time>
      </trkpt>
      <trkpt lat="50.30502" lon="4.80669">
        <ele>189.8</ele>
        <time>2025-04-05T07:22:31Z</time>
      </trkpt>
      <trkpt lat="50.305" lon="4.8066">
        <ele>189.8</ele>
        <time>2025-04-05T07:22:32Z</time>
      </trkpt>
      <trkpt lat="50.30498" lon="4.80653">
        <ele>190</ele>
        <time>2025-04-05T07:22:33Z</time>
      </trkpt>
      <trkpt lat="50.30496" lon="4.80645">
        <ele>190</ele>
        <time>2025-04-05T07:22:34Z</time>
      </trkpt>
      <trkpt lat="50.30494" lon="4.80638">
        <ele>190.2</ele>
        <time>2025-04-05T07:22:35Z</time>
      </trkpt>
      <trkpt lat="50.30493" lon="4.80631">
        <ele>190.2</ele>
        <time>2025-04-05T07:22:36Z</time>
      </trkpt>
      <trkpt lat="50.30491" lon="4.80623">
        <ele>190.4</ele>
        <time>2025-04-05T07:22:37Z</time>
      </trkpt>
      <trkpt lat="50.30489" lon="4.80616">
        <ele>190.4</ele>
        <time>2025-04-05T07:22:38Z</time>
      </trkpt>
      <trkpt lat="50.30487" lon="4.80609">
        <ele>190.6</ele>
        <time>2025-04-05T07:22:39Z</time>
      </trkpt>
      <trkpt lat="50.30485" lon="4.80601">
        <ele>190.6</ele>
        <time>2025-04-05T07:22:40Z</time>
      </trkpt>
      <trkpt lat="50.30483" lon="4.80593">
        <ele>190.8</ele>
        <time>2025-04-05T07:22:41Z</time>
      </trkpt>
      <trkpt lat="50.30481" lon="4.80586">
        <ele>190.8</ele>
        <time>2025-04-05T07:22:42Z</time>
      </trkpt>
      <trkpt lat="50.30479" lon="4.80579">
        <ele>191</ele>
        <time>2025-04-05T07:22:43Z</time>
      </trkpt>
      <trkpt lat="50.30478" lon="4.80571">
        <ele>191.2</ele>
        <time>2025-04-05T07:22:44Z</time>
      </trkpt>
      <trkpt lat="50.30476" lon="4.80564">
        <ele>191.2</ele>
        <time>2025-04-05T07:22:45Z</time>
      </trkpt>
      <trkpt lat="50.30474" lon="4.80557">
        <ele>191.4</ele>
        <time>2025-04-05T07:22:46Z</time>
      </trkpt>
      <trkpt lat="50.30472" lon="4.80549">
        <ele>191.6</ele>
        <time>2025-04-05T07:22:47Z</time>
      </trkpt>
      <trkpt lat="50.3047" lon="4.80542">
        <ele>191.8</ele>
        <time>2025-04-05T07:22:48Z</time>
      </trkpt>
      <trkpt lat="50.30468" lon="4.80535">
        <ele>192</ele>
        <time>2025-04-05T07:22:49Z</time>
      </trkpt>
      <trkpt lat="50.30467" lon="4.80529">
        <ele>192.2</ele>
        <time>2025-04-05T07:22:50Z</time>
      </trkpt>
      <trkpt lat="50.30465" lon="4.80523">
        <ele>192.6</ele>
        <time>2025-04-05T07:22:51Z</time>
      </trkpt>
      <trkpt lat="50.30463" lon="4.80516">
        <ele>192.8</ele>
        <time>2025-04-05T07:22:52Z</time>
      </trkpt>
      <trkpt lat="50.30462" lon="4.8051">
        <ele>193.2</ele>
        <time>2025-04-05T07:22:53Z</time>
      </trkpt>
      <trkpt lat="50.3046" lon="4.80504">
        <ele>193.4</ele>
        <time>2025-04-05T07:22:54Z</time>
      </trkpt>
      <trkpt lat="50.30459" lon="4.80498">
        <ele>193.6</ele>
        <time>2025-04-05T07:22:55Z</time>
      </trkpt>
      <trkpt lat="50.30458" lon="4.80492">
        <ele>194</ele>
        <time>2025-04-05T07:22:56Z</time>
      </trkpt>
      <trkpt lat="50.30457" lon="4.80485">
        <ele>194.2</ele>
        <time>2025-04-05T07:22:57Z</time>
      </trkpt>
      <trkpt lat="50.30455" lon="4.80478">
        <ele>194.4</ele>
        <time>2025-04-05T07:22:58Z</time>
      </trkpt>
      <trkpt lat="50.30454" lon="4.80472">
        <ele>194.4</ele>
        <time>2025-04-05T07:22:59Z</time>
      </trkpt>
      <trkpt lat="50.30452" lon="4.80465">
        <ele>194.6</ele>
        <time>2025-04-05T07:23:00Z</time>
      </trkpt>
      <trkpt lat="50.3045" lon="4.80458">
        <ele>194.8</ele>
        <time>2025-04-05T07:23:01Z</time>
      </trkpt>
      <trkpt lat="50.30448" lon="4.80451">
        <ele>194.8</ele>
        <time>2025-04-05T07:23:02Z</time>
      </trkpt>
      <trkpt lat="50.30446" lon="4.80445">
        <ele>195</ele>
        <time>2025-04-05T07:23:03Z</time>
      </trkpt>
      <trkpt lat="50.30445" lon="4.80439">
        <ele>195</ele>
        <time>2025-04-05T07:23:04Z</time>
      </trkpt>
      <trkpt lat="50.30443" lon="4.80432">
        <ele>195.2</ele>
        <time>2025-04-05T07:23:05Z</time>
      </trkpt>
      <trkpt lat="50.30441" lon="4.80424">
        <ele>195.4</ele>
        <time>2025-04-05T07:23:06Z</time>
      </trkpt>
      <trkpt lat="50.30439" lon="4.80417">
        <ele>195.4</ele>
        <time>2025-04-05T07:23:07Z</time>
      </trkpt>
      <trkpt lat="50.30438" lon="4.80411">
        <ele>195.6</ele>
        <time>2025-04-05T07:23:08Z</time>
      </trkpt>
      <trkpt lat="50.30437" lon="4.80405">
        <ele>195.6</ele>
        <time>2025-04-05T07:23:09Z</time>
      </trkpt>
      <trkpt lat="50.30436" lon="4.80399">
        <ele>195.8</ele>
        <time>2025-04-05T07:23:10Z</time>
      </trkpt>
      <trkpt lat="50.30434" lon="4.80393">
        <ele>195.8</ele>
        <time>2025-04-05T07:23:11Z</time>
      </trkpt>
      <trkpt lat="50.30433" lon="4.80387">
        <ele>196</ele>
        <time>2025-04-05T07:23:12Z</time>
      </trkpt>
      <trkpt lat="50.30432" lon="4.80382">
        <ele>196</ele>
        <time>2025-04-05T07:23:13Z</time>
      </trkpt>
      <trkpt lat="50.30431" lon="4.80378">
        <ele>196.2</ele>
        <time>2025-04-05T07:23:14Z</time>
      </trkpt>
      <trkpt lat="50.30431" lon="4.80374">
        <ele>196.2</ele>
        <time>2025-04-05T07:23:15Z</time>
      </trkpt>
      <trkpt lat="50.3043" lon="4.8037">
        <ele>196.2</ele>
        <time>2025-04-05T07:23:16Z</time>
      </trkpt>
      <trkpt lat="50.30429" lon="4.80367">
        <ele>196.2</ele>
        <time>2025-04-05T07:23:17Z</time>
      </trkpt>
      <trkpt lat="50.30428" lon="4.80364">
        <ele>196.2</ele>
        <time>2025-04-05T07:23:18Z</time>
      </trkpt>
      <trkpt lat="50.30427" lon="4.8036">
        <ele>196.2</ele>
        <time>2025-04-05T07:23:19Z</time>
      </trkpt>
      <trkpt lat="50.30426" lon="4.80354">
        <ele>196</ele>
        <time>2025-04-05T07:23:20Z</time>
      </trkpt>
      <trkpt lat="50.30425" lon="4.80349">
        <ele>196</ele>
        <time>2025-04-05T07:23:21Z</time>
      </trkpt>
      <trkpt lat="50.30424" lon="4.80344">
        <ele>196</ele>
        <time>2025-04-05T07:23:22Z</time>
      </trkpt>
      <trkpt lat="50.30422" lon="4.80338">
        <ele>196</ele>
        <time>2025-04-05T07:23:23Z</time>
      </trkpt>
      <trkpt lat="50.30421" lon="4.80333">
        <ele>196.2</ele>
        <time>2025-04-05T07:23:24Z</time>
      </trkpt>
      <trkpt lat="50.3042" lon="4.80327">
        <ele>196.2</ele>
        <time>2025-04-05T07:23:25Z</time>
      </trkpt>
      <trkpt lat="50.30419" lon="4.80321">
        <ele>196.2</ele>
        <time>2025-04-05T07:23:26Z</time>
      </trkpt>
      <trkpt lat="50.30418" lon="4.80315">
        <ele>196.2</ele>
        <time>2025-04-05T07:23:27Z</time>
      </trkpt>
      <trkpt lat="50.30416" lon="4.80309">
        <ele>196.2</ele>
        <time>2025-04-05T07:23:28Z</time>
      </trkpt>
      <trkpt lat="50.30415" lon="4.80303">
        <ele>196.2</ele>
        <time>2025-04-05T07:23:29Z</time>
      </trkpt>
      <trkpt lat="50.30413" lon="4.80297">
        <ele>196.4</ele>
        <time>2025-04-05T07:23:30Z</time>
      </trkpt>
      <trkpt lat="50.30412" lon="4.80291">
        <ele>196.4</ele>
        <time>2025-04-05T07:23:31Z</time>
      </trkpt>
      <trkpt lat="50.3041" lon="4.80284">
        <ele>196.4</ele>
        <time>2025-04-05T07:23:32Z</time>
      </trkpt>
      <trkpt lat="50.30408" lon="4.80278">
        <ele>196.6</ele>
        <time>2025-04-05T07:23:33Z</time>
      </trkpt>
      <trkpt lat="50.30407" lon="4.80273">
        <ele>196.6</ele>
        <time>2025-04-05T07:23:34Z</time>
      </trkpt>
      <trkpt lat="50.30405" lon="4.80267">
        <ele>196.6</ele>
        <time>2025-04-05T07:23:35Z</time>
      </trkpt>
      <trkpt lat="50.30404" lon="4.8026">
        <ele>196.8</ele>
        <time>2025-04-05T07:23:36Z</time>
      </trkpt>
      <trkpt lat="50.30402" lon="4.80254">
        <ele>197</ele>
        <time>2025-04-05T07:23:37Z</time>
      </trkpt>
      <trkpt lat="50.30401" lon="4.80247">
        <ele>197</ele>
        <time>2025-04-05T07:23:38Z</time>
      </trkpt>
      <trkpt lat="50.30399" lon="4.80241">
        <ele>197.2</ele>
        <time>2025-04-05T07:23:39Z</time>
      </trkpt>
      <trkpt lat="50.30398" lon="4.80235">
        <ele>197.4</ele>
        <time>2025-04-05T07:23:40Z</time>
      </trkpt>
      <trkpt lat="50.30396" lon="4.80228">
        <ele>197.6</ele>
        <time>2025-04-05T07:23:41Z</time>
      </trkpt>
      <trkpt lat="50.30395" lon="4.80222">
        <ele>197.8</ele>
        <time>2025-04-05T07:23:42Z</time>
      </trkpt>
      <trkpt lat="50.30394" lon="4.80216">
        <ele>198</ele>
        <time>2025-04-05T07:23:43Z</time>
      </trkpt>
      <trkpt lat="50.30393" lon="4.8021">
        <ele>198</ele>
        <time>2025-04-05T07:23:44Z</time>
      </trkpt>
      <trkpt lat="50.30391" lon="4.80204">
        <ele>198.2</ele>
        <time>2025-04-05T07:23:45Z</time>
      </trkpt>
      <trkpt lat="50.3039" lon="4.80198">
        <ele>198.4</ele>
        <time>2025-04-05T07:23:46Z</time>
      </trkpt>
      <trkpt lat="50.30389" lon="4.80192">
        <ele>198.4</ele>
        <time>2025-04-05T07:23:47Z</time>
      </trkpt>
      <trkpt lat="50.30388" lon="4.80186">
        <ele>198.6</ele>
        <time>2025-04-05T07:23:48Z</time>
      </trkpt>
      <trkpt lat="50.30387" lon="4.80181">
        <ele>198.8</ele>
        <time>2025-04-05T07:23:49Z</time>
      </trkpt>
      <trkpt lat="50.30385" lon="4.80174">
        <ele>198.8</ele>
        <time>2025-04-05T07:23:50Z</time>
      </trkpt>
      <trkpt lat="50.30384" lon="4.80168">
        <ele>199</ele>
        <time>2025-04-05T07:23:51Z</time>
      </trkpt>
      <trkpt lat="50.30383" lon="4.80162">
        <ele>199.2</ele>
        <time>2025-04-05T07:23:52Z</time>
      </trkpt>
      <trkpt lat="50.30381" lon="4.80156">
        <ele>199.4</ele>
        <time>2025-04-05T07:23:53Z</time>
      </trkpt>
      <trkpt lat="50.3038" lon="4.8015">
        <ele>199.4</ele>
        <time>2025-04-05T07:23:54Z</time>
      </trkpt>
      <trkpt lat="50.30379" lon="4.80144">
        <ele>199.6</ele>
        <time>2025-04-05T07:23:55Z</time>
      </trkpt>
      <trkpt lat="50.30378" lon="4.80139">
        <ele>199.8</ele>
        <time>2025-04-05T07:23:56Z</time>
      </trkpt>
      <trkpt lat="50.30376" lon="4.80133">
        <ele>200</ele>
        <time>2025-04-05T07:23:57Z</time>
      </trkpt>
      <trkpt lat="50.30374" lon="4.80127">
        <ele>200.4</ele>
        <time>2025-04-05T07:23:58Z</time>
      </trkpt>
      <trkpt lat="50.30372" lon="4.80121">
        <ele>200.4</ele>
        <time>2025-04-05T07:23:59Z</time>
      </trkpt>
      <trkpt lat="50.3037" lon="4.80115">
        <ele>200.6</ele>
        <time>2025-04-05T07:24:00Z</time>
      </trkpt>
      <trkpt lat="50.30368" lon="4.80109">
        <ele>200.8</ele>
        <time>2025-04-05T07:24:01Z</time>
      </trkpt>
      <trkpt lat="50.30367" lon="4.80103">
        <ele>200.8</ele>
        <time>2025-04-05T07:24:02Z</time>
      </trkpt>
      <trkpt lat="50.30365" lon="4.80097">
        <ele>200.8</ele>
        <time>2025-04-05T07:24:03Z</time>
      </trkpt>
      <trkpt lat="50.30363" lon="4.8009">
        <ele>201</ele>
        <time>2025-04-05T07:24:04Z</time>
      </trkpt>
      <trkpt lat="50.30361" lon="4.80084">
        <ele>201</ele>
        <time>2025-04-05T07:24:05Z</time>
      </trkpt>
      <trkpt lat="50.30359" lon="4.80077">
        <ele>201</ele>
        <time>2025-04-05T07:24:06Z</time>
      </trkpt>
      <trkpt lat="50.30357" lon="4.8007">
        <ele>201.2</ele>
        <time>2025-04-05T07:24:07Z</time>
      </trkpt>
      <trkpt lat="50.30356" lon="4.80064">
        <ele>201.2</ele>
        <time>2025-04-05T07:24:08Z</time>
      </trkpt>
      <trkpt lat="50.30354" lon="4.80057">
        <ele>201.2</ele>
        <time>2025-04-05T07:24:09Z</time>
      </trkpt>
      <trkpt lat="50.30352" lon="4.8005">
        <ele>201.4</ele>
        <time>2025-04-05T07:24:10Z</time>
      </trkpt>
      <trkpt lat="50.30351" lon="4.80044">
        <ele>201.4</ele>
        <time>2025-04-05T07:24:11Z</time>
      </trkpt>
      <trkpt lat="50.30349" lon="4.80037">
        <ele>201.4</ele>
        <time>2025-04-05T07:24:12Z</time>
      </trkpt>
      <trkpt lat="50.30347" lon="4.8003">
        <ele>201.6</ele>
        <time>2025-04-05T07:24:13Z</time>
      </trkpt>
      <trkpt lat="50.30346" lon="4.80024">
        <ele>201.6</ele>
        <time>2025-04-05T07:24:14Z</time>
      </trkpt>
      <trkpt lat="50.30344" lon="4.80019">
        <ele>201.8</ele>
        <time>2025-04-05T07:24:15Z</time>
      </trkpt>
      <trkpt lat="50.30343" lon="4.80011">
        <ele>202</ele>
        <time>2025-04-05T07:24:16Z</time>
      </trkpt>
      <trkpt lat="50.30341" lon="4.80005">
        <ele>202.2</ele>
        <time>2025-04-05T07:24:17Z</time>
      </trkpt>
      <trkpt lat="50.30339" lon="4.79999">
        <ele>202.4</ele>
        <time>2025-04-05T07:24:18Z</time>
      </trkpt>
      <trkpt lat="50.30338" lon="4.79994">
        <ele>202.6</ele>
        <time>2025-04-05T07:24:19Z</time>
      </trkpt>
      <trkpt lat="50.30337" lon="4.79987">
        <ele>202.8</ele>
        <time>2025-04-05T07:24:20Z</time>
      </trkpt>
      <trkpt lat="50.30335" lon="4.79981">
        <ele>202.8</ele>
        <time>2025-04-05T07:24:21Z</time>
      </trkpt>
      <trkpt lat="50.30334" lon="4.79975">
        <ele>203</ele>
        <time>2025-04-05T07:24:22Z</time>
      </trkpt>
      <trkpt lat="50.30333" lon="4.79968">
        <ele>203.2</ele>
        <time>2025-04-05T07:24:23Z</time>
      </trkpt>
      <trkpt lat="50.30331" lon="4.79961">
        <ele>203.4</ele>
        <time>2025-04-05T07:24:24Z</time>
      </trkpt>
      <trkpt lat="50.3033" lon="4.79955">
        <ele>203.6</ele>
        <time>2025-04-05T07:24:25Z</time>
      </trkpt>
      <trkpt lat="50.30329" lon="4.79949">
        <ele>203.8</ele>
        <time>2025-04-05T07:24:26Z</time>
      </trkpt>
      <trkpt lat="50.30327" lon="4.79943">
        <ele>204</ele>
        <time>2025-04-05T07:24:27Z</time>
      </trkpt>
      <trkpt lat="50.30326" lon="4.79937">
        <ele>204.2</ele>
        <time>2025-04-05T07:24:28Z</time>
      </trkpt>
      <trkpt lat="50.30324" lon="4.79932">
        <ele>204.6</ele>
        <time>2025-04-05T07:24:29Z</time>
      </trkpt>
      <trkpt lat="50.30323" lon="4.79926">
        <ele>204.8</ele>
        <time>2025-04-05T07:24:30Z</time>
      </trkpt>
      <trkpt lat="50.30322" lon="4.7992">
        <ele>205</ele>
        <time>2025-04-05T07:24:31Z</time>
      </trkpt>
      <trkpt lat="50.3032" lon="4.79915">
        <ele>205.2</ele>
        <time>2025-04-05T07:24:32Z</time>
      </trkpt>
      <trkpt lat="50.30319" lon="4.79909">
        <ele>205.2</ele>
        <time>2025-04-05T07:24:33Z</time>
      </trkpt>
      <trkpt lat="50.30318" lon="4.79903">
        <ele>205.4</ele>
        <time>2025-04-05T07:24:34Z</time>
      </trkpt>
      <trkpt lat="50.30317" lon="4.79898">
        <ele>205.6</ele>
        <time>2025-04-05T07:24:35Z</time>
      </trkpt>
      <trkpt lat="50.30315" lon="4.79892">
        <ele>205.8</ele>
        <time>2025-04-05T07:24:36Z</time>
      </trkpt>
      <trkpt lat="50.30314" lon="4.79886">
        <ele>206</ele>
        <time>2025-04-05T07:24:37Z</time>
      </trkpt>
      <trkpt lat="50.30312" lon="4.7988">
        <ele>206</ele>
        <time>2025-04-05T07:24:38Z</time>
      </trkpt>
      <trkpt lat="50.30311" lon="4.79875">
        <ele>206.2</ele>
        <time>2025-04-05T07:24:39Z</time>
      </trkpt>
      <trkpt lat="50.30309" lon="4.79869">
        <ele>206.4</ele>
        <time>2025-04-05T07:24:40Z</time>
      </trkpt>
      <trkpt lat="50.30308" lon="4.79863">
        <ele>206.4</ele>
        <time>2025-04-05T07:24:41Z</time>
      </trkpt>
      <trkpt lat="50.30306" lon="4.79857">
        <ele>206.6</ele>
        <time>2025-04-05T07:24:42Z</time>
      </trkpt>
      <trkpt lat="50.30305" lon="4.79851">
        <ele>206.6</ele>
        <time>2025-04-05T07:24:43Z</time>
      </trkpt>
      <trkpt lat="50.30304" lon="4.79845">
        <ele>206.6</ele>
        <time>2025-04-05T07:24:44Z</time>
      </trkpt>
      <trkpt lat="50.30302" lon="4.79839">
        <ele>206.8</ele>
        <time>2025-04-05T07:24:45Z</time>
      </trkpt>
      <trkpt lat="50.303" lon="4.79832">
        <ele>206.8</ele>
        <time>2025-04-05T07:24:46Z</time>
      </trkpt>
      <trkpt lat="50.30299" lon="4.79825">
        <ele>206.8</ele>
        <time>2025-04-05T07:24:47Z</time>
      </trkpt>
      <trkpt lat="50.30297" lon="4.79817">
        <ele>206.6</ele>
        <time>2025-04-05T07:24:48Z</time>
      </trkpt>
      <trkpt lat="50.30295" lon="4.7981">
        <ele>206.6</ele>
        <time>2025-04-05T07:24:49Z</time>
      </trkpt>
      <trkpt lat="50.30293" lon="4.79803">
        <ele>206.6</ele>
        <time>2025-04-05T07:24:50Z</time>
      </trkpt>
      <trkpt lat="50.30291" lon="4.79795">
        <ele>206.6</ele>
        <time>2025-04-05T07:24:51Z</time>
      </trkpt>
      <trkpt lat="50.3029" lon="4.79789">
        <ele>206.6</ele>
        <time>2025-04-05T07:24:52Z</time>
      </trkpt>
      <trkpt lat="50.30288" lon="4.79782">
        <ele>206.6</ele>
        <time>2025-04-05T07:24:53Z</time>
      </trkpt>
      <trkpt lat="50.30285" lon="4.79775">
        <ele>206.6</ele>
        <time>2025-04-05T07:24:54Z</time>
      </trkpt>
      <trkpt lat="50.30283" lon="4.79769">
        <ele>206.6</ele>
        <time>2025-04-05T07:24:55Z</time>
      </trkpt>
      <trkpt lat="50.30281" lon="4.79763">
        <ele>206.6</ele>
        <time>2025-04-05T07:24:56Z</time>
      </trkpt>
      <trkpt lat="50.30279" lon="4.79756">
        <ele>206.6</ele>
        <time>2025-04-05T07:24:57Z</time>
      </trkpt>
      <trkpt lat="50.30276" lon="4.79751">
        <ele>206.6</ele>
        <time>2025-04-05T07:24:58Z</time>
      </trkpt>
      <trkpt lat="50.30273" lon="4.79745">
        <ele>206.6</ele>
        <time>2025-04-05T07:24:59Z</time>
      </trkpt>
      <trkpt lat="50.30269" lon="4.79741">
        <ele>206.6</ele>
        <time>2025-04-05T07:25:00Z</time>
      </trkpt>
      <trkpt lat="50.30265" lon="4.79739">
        <ele>206.8</ele>
        <time>2025-04-05T07:25:01Z</time>
      </trkpt>
      <trkpt lat="50.30261" lon="4.79739">
        <ele>206.8</ele>
        <time>2025-04-05T07:25:02Z</time>
      </trkpt>
      <trkpt lat="50.30257" lon="4.79742">
        <ele>206.8</ele>
        <time>2025-04-05T07:25:03Z</time>
      </trkpt>
      <trkpt lat="50.30254" lon="4.79746">
        <ele>207</ele>
        <time>2025-04-05T07:25:04Z</time>
      </trkpt>
      <trkpt lat="50.30251" lon="4.79752">
        <ele>207.2</ele>
        <time>2025-04-05T07:25:05Z</time>
      </trkpt>
      <trkpt lat="50.30248" lon="4.79758">
        <ele>207.4</ele>
        <time>2025-04-05T07:25:06Z</time>
      </trkpt>
      <trkpt lat="50.30246" lon="4.79764">
        <ele>207.6</ele>
        <time>2025-04-05T07:25:07Z</time>
      </trkpt>
      <trkpt lat="50.30243" lon="4.7977">
        <ele>207.8</ele>
        <time>2025-04-05T07:25:08Z</time>
      </trkpt>
      <trkpt lat="50.3024" lon="4.79776">
        <ele>207.8</ele>
        <time>2025-04-05T07:25:09Z</time>
      </trkpt>
      <trkpt lat="50.30238" lon="4.79781">
        <ele>208</ele>
        <time>2025-04-05T07:25:10Z</time>
      </trkpt>
      <trkpt lat="50.30235" lon="4.79787">
        <ele>208</ele>
        <time>2025-04-05T07:25:11Z</time>
      </trkpt>
      <trkpt lat="50.30233" lon="4.79793">
        <ele>208.2</ele>
        <time>2025-04-05T07:25:12Z</time>
      </trkpt>
      <trkpt lat="50.3023" lon="4.79798">
        <ele>208.4</ele>
        <time>2025-04-05T07:25:13Z</time>
      </trkpt>
      <trkpt lat="50.30227" lon="4.79804">
        <ele>208.4</ele>
        <time>2025-04-05T07:25:14Z</time>
      </trkpt>
      <trkpt lat="50.30224" lon="4.7981">
        <ele>208.6</ele>
        <time>2025-04-05T07:25:15Z</time>
      </trkpt>
      <trkpt lat="50.30221" lon="4.79816">
        <ele>208.8</ele>
        <time>2025-04-05T07:25:16Z</time>
      </trkpt>
      <trkpt lat="50.30218" lon="4.79821">
        <ele>209</ele>
        <time>2025-04-05T07:25:17Z</time>
      </trkpt>
      <trkpt lat="50.30215" lon="4.79826">
        <ele>209</ele>
        <time>2025-04-05T07:25:18Z</time>
      </trkpt>
      <trkpt lat="50.30212" lon="4.79832">
        <ele>209.2</ele>
        <time>2025-04-05T07:25:19Z</time>
      </trkpt>
      <trkpt lat="50.30209" lon="4.79837">
        <ele>209.4</ele>
        <time>2025-04-05T07:25:20Z</time>
      </trkpt>
      <trkpt lat="50.30206" lon="4.79842">
        <ele>209.6</ele>
        <time>2025-04-05T07:25:21Z</time>
      </trkpt>
      <trkpt lat="50.30203" lon="4.79847">
        <ele>209.6</ele>
        <time>2025-04-05T07:25:22Z</time>
      </trkpt>
      <trkpt lat="50.30199" lon="4.79852">
        <ele>209.8</ele>
        <time>2025-04-05T07:25:23Z</time>
      </trkpt>
      <trkpt lat="50.30196" lon="4.79857">
        <ele>209.8</ele>
        <time>2025-04-05T07:25:24Z</time>
      </trkpt>
      <trkpt lat="50.30193" lon="4.79861">
        <ele>209.8</ele>
        <time>2025-04-05T07:25:25Z</time>
      </trkpt>
      <trkpt lat="50.3019" lon="4.79867">
        <ele>209.8</ele>
        <time>2025-04-05T07:25:26Z</time>
      </trkpt>
      <trkpt lat="50.30186" lon="4.79872">
        <ele>209.8</ele>
        <time>2025-04-05T07:25:27Z</time>
      </trkpt>
      <trkpt lat="50.30183" lon="4.79877">
        <ele>209.6</ele>
        <time>2025-04-05T07:25:28Z</time>
      </trkpt>
      <trkpt lat="50.30179" lon="4.79883">
        <ele>209.6</ele>
        <time>2025-04-05T07:25:29Z</time>
      </trkpt>
      <trkpt lat="50.30175" lon="4.79888">
        <ele>209.6</ele>
        <time>2025-04-05T07:25:30Z</time>
      </trkpt>
      <trkpt lat="50.3017" lon="4.79894">
        <ele>209.4</ele>
        <time>2025-04-05T07:25:31Z</time>
      </trkpt>
      <trkpt lat="50.30166" lon="4.79899">
        <ele>209.4</ele>
        <time>2025-04-05T07:25:32Z</time>
      </trkpt>
      <trkpt lat="50.30162" lon="4.79905">
        <ele>209.4</ele>
        <time>2025-04-05T07:25:33Z</time>
      </trkpt>
      <trkpt lat="50.30158" lon="4.79909">
        <ele>209.2</ele>
        <time>2025-04-05T07:25:34Z</time>
      </trkpt>
      <trkpt lat="50.30153" lon="4.79915">
        <ele>209</ele>
        <time>2025-04-05T07:25:35Z</time>
      </trkpt>
      <trkpt lat="50.30148" lon="4.7992">
        <ele>209</ele>
        <time>2025-04-05T07:25:36Z</time>
      </trkpt>
      <trkpt lat="50.30144" lon="4.79926">
        <ele>208.8</ele>
        <time>2025-04-05T07:25:37Z</time>
      </trkpt>
      <trkpt lat="50.30139" lon="4.79931">
        <ele>208.6</ele>
        <time>2025-04-05T07:25:38Z</time>
      </trkpt>
      <trkpt lat="50.30135" lon="4.79936">
        <ele>208.6</ele>
        <time>2025-04-05T07:25:39Z</time>
      </trkpt>
      <trkpt lat="50.3013" lon="4.79941">
        <ele>208.6</ele>
        <time>2025-04-05T07:25:40Z</time>
      </trkpt>
      <trkpt lat="50.30125" lon="4.79947">
        <ele>208.6</ele>
        <time>2025-04-05T07:25:41Z</time>
      </trkpt>
      <trkpt lat="50.30121" lon="4.79952">
        <ele>208.4</ele>
        <time>2025-04-05T07:25:42Z</time>
      </trkpt>
      <trkpt lat="50.30117" lon="4.79957">
        <ele>208.4</ele>
        <time>2025-04-05T07:25:43Z</time>
      </trkpt>
      <trkpt lat="50.30113" lon="4.79963">
        <ele>208.2</ele>
        <time>2025-04-05T07:25:44Z</time>
      </trkpt>
      <trkpt lat="50.30108" lon="4.7997">
        <ele>208.2</ele>
        <time>2025-04-05T07:25:45Z</time>
      </trkpt>
      <trkpt lat="50.30104" lon="4.79976">
        <ele>208.2</ele>
        <time>2025-04-05T07:25:46Z</time>
      </trkpt>
      <trkpt lat="50.301" lon="4.79982">
        <ele>208.2</ele>
        <time>2025-04-05T07:25:47Z</time>
      </trkpt>
      <trkpt lat="50.30095" lon="4.79988">
        <ele>208</ele>
        <time>2025-04-05T07:25:48Z</time>
      </trkpt>
      <trkpt lat="50.30091" lon="4.79995">
        <ele>208</ele>
        <time>2025-04-05T07:25:49Z</time>
      </trkpt>
      <trkpt lat="50.30087" lon="4.80001">
        <ele>208</ele>
        <time>2025-04-05T07:25:50Z</time>
      </trkpt>
      <trkpt lat="50.30083" lon="4.80007">
        <ele>207.8</ele>
        <time>2025-04-05T07:25:51Z</time>
      </trkpt>
      <trkpt lat="50.30079" lon="4.80013">
        <ele>207.8</ele>
        <time>2025-04-05T07:25:52Z</time>
      </trkpt>
      <trkpt lat="50.30074" lon="4.8002">
        <ele>207.6</ele>
        <time>2025-04-05T07:25:53Z</time>
      </trkpt>
      <trkpt lat="50.3007" lon="4.80026">
        <ele>207.4</ele>
        <time>2025-04-05T07:25:54Z</time>
      </trkpt>
      <trkpt lat="50.30065" lon="4.80033">
        <ele>207.2</ele>
        <time>2025-04-05T07:25:55Z</time>
      </trkpt>
      <trkpt lat="50.30061" lon="4.80039">
        <ele>207.2</ele>
        <time>2025-04-05T07:25:56Z</time>
      </trkpt>
      <trkpt lat="50.30056" lon="4.80046">
        <ele>207</ele>
        <time>2025-04-05T07:25:57Z</time>
      </trkpt>
      <trkpt lat="50.30051" lon="4.80052">
        <ele>206.8</ele>
        <time>2025-04-05T07:25:58Z</time>
      </trkpt>
      <trkpt lat="50.30047" lon="4.80059">
        <ele>206.6</ele>
        <time>2025-04-05T07:25:59Z</time>
      </trkpt>
      <trkpt lat="50.30042" lon="4.80065">
        <ele>206.6</ele>
        <time>2025-04-05T07:26:00Z</time>
      </trkpt>
      <trkpt lat="50.30037" lon="4.80071">
        <ele>206.4</ele>
        <time>2025-04-05T07:26:01Z</time>
      </trkpt>
      <trkpt lat="50.30031" lon="4.80078">
        <ele>206.2</ele>
        <time>2025-04-05T07:26:02Z</time>
      </trkpt>
      <trkpt lat="50.30026" lon="4.80084">
        <ele>206</ele>
        <time>2025-04-05T07:26:03Z</time>
      </trkpt>
      <trkpt lat="50.30021" lon="4.8009">
        <ele>205.8</ele>
        <time>2025-04-05T07:26:04Z</time>
      </trkpt>
      <trkpt lat="50.30016" lon="4.80096">
        <ele>205.6</ele>
        <time>2025-04-05T07:26:05Z</time>
      </trkpt>
      <trkpt lat="50.30011" lon="4.80103">
        <ele>205.4</ele>
        <time>2025-04-05T07:26:06Z</time>
      </trkpt>
      <trkpt lat="50.30005" lon="4.80109">
        <ele>205.2</ele>
        <time>2025-04-05T07:26:07Z</time>
      </trkpt>
      <trkpt lat="50.3" lon="4.80114">
        <ele>205</ele>
        <time>2025-04-05T07:26:08Z</time>
      </trkpt>
      <trkpt lat="50.29995" lon="4.80119">
        <ele>204.6</ele>
        <time>2025-04-05T07:26:09Z</time>
      </trkpt>
      <trkpt lat="50.29989" lon="4.80125">
        <ele>204.2</ele>
        <time>2025-04-05T07:26:10Z</time>
      </trkpt>
      <trkpt lat="50.29982" lon="4.80132">
        <ele>203.8</ele>
        <time>2025-04-05T07:26:11Z</time>
      </trkpt>
      <trkpt lat="50.29976" lon="4.80138">
        <ele>203.4</ele>
        <time>2025-04-05T07:26:12Z</time>
      </trkpt>
      <trkpt lat="50.29969" lon="4.80145">
        <ele>203</ele>
        <time>2025-04-05T07:26:13Z</time>
      </trkpt>
      <trkpt lat="50.29963" lon="4.80151">
        <ele>202.6</ele>
        <time>2025-04-05T07:26:14Z</time>
      </trkpt>
      <trkpt lat="50.29956" lon="4.80157">
        <ele>202.2</ele>
        <time>2025-04-05T07:26:15Z</time>
      </trkpt>
      <trkpt lat="50.2995" lon="4.80163">
        <ele>201.8</ele>
        <time>2025-04-05T07:26:16Z</time>
      </trkpt>
      <trkpt lat="50.29944" lon="4.80169">
        <ele>201.2</ele>
        <time>2025-04-05T07:26:17Z</time>
      </trkpt>
      <trkpt lat="50.29937" lon="4.80176">
        <ele>200.8</ele>
        <time>2025-04-05T07:26:18Z</time>
      </trkpt>
      <trkpt lat="50.29931" lon="4.80181">
        <ele>200.4</ele>
        <time>2025-04-05T07:26:19Z</time>
      </trkpt>
      <trkpt lat="50.29923" lon="4.80189">
        <ele>199.8</ele>
        <time>2025-04-05T07:26:20Z</time>
      </trkpt>
      <trkpt lat="50.29915" lon="4.80196">
        <ele>199.4</ele>
        <time>2025-04-05T07:26:21Z</time>
      </trkpt>
      <trkpt lat="50.29908" lon="4.80202">
        <ele>198.8</ele>
        <time>2025-04-05T07:26:22Z</time>
      </trkpt>
      <trkpt lat="50.29901" lon="4.80209">
        <ele>198.2</ele>
        <time>2025-04-05T07:26:23Z</time>
      </trkpt>
      <trkpt lat="50.29894" lon="4.80216">
        <ele>197.6</ele>
        <time>2025-04-05T07:26:24Z</time>
      </trkpt>
      <trkpt lat="50.29887" lon="4.80223">
        <ele>197.2</ele>
        <time>2025-04-05T07:26:25Z</time>
      </trkpt>
      <trkpt lat="50.29881" lon="4.80228">
        <ele>196.4</ele>
        <time>2025-04-05T07:26:26Z</time>
      </trkpt>
      <trkpt lat="50.29874" lon="4.80235">
        <ele>196</ele>
        <time>2025-04-05T07:26:27Z</time>
      </trkpt>
      <trkpt lat="50.29867" lon="4.80243">
        <ele>195.4</ele>
        <time>2025-04-05T07:26:28Z</time>
      </trkpt>
      <trkpt lat="50.29858" lon="4.80252">
        <ele>194.8</ele>
        <time>2025-04-05T07:26:29Z</time>
      </trkpt>
      <trkpt lat="50.29851" lon="4.8026">
        <ele>194.2</ele>
        <time>2025-04-05T07:26:30Z</time>
      </trkpt>
      <trkpt lat="50.29844" lon="4.80268">
        <ele>193.6</ele>
        <time>2025-04-05T07:26:31Z</time>
      </trkpt>
      <trkpt lat="50.29837" lon="4.80276">
        <ele>193</ele>
        <time>2025-04-05T07:26:32Z</time>
      </trkpt>
      <trkpt lat="50.29829" lon="4.80285">
        <ele>192.2</ele>
        <time>2025-04-05T07:26:33Z</time>
      </trkpt>
      <trkpt lat="50.2982" lon="4.80296">
        <ele>191.4</ele>
        <time>2025-04-05T07:26:34Z</time>
      </trkpt>
      <trkpt lat="50.29812" lon="4.80305">
        <ele>190.8</ele>
        <time>2025-04-05T07:26:35Z</time>
      </trkpt>
      <trkpt lat="50.29805" lon="4.80315">
        <ele>190.4</ele>
        <time>2025-04-05T07:26:36Z</time>
      </trkpt>
      <trkpt lat="50.29798" lon="4.80323">
        <ele>189.8</ele>
        <time>2025-04-05T07:26:37Z</time>
      </trkpt>
      <trkpt lat="50.2979" lon="4.80334">
        <ele>189.2</ele>
        <time>2025-04-05T07:26:38Z</time>
      </trkpt>
      <trkpt lat="50.29781" lon="4.80348">
        <ele>188.6</ele>
        <time>2025-04-05T07:26:39Z</time>
      </trkpt>
      <trkpt lat="50.29774" lon="4.80359">
        <ele>187.8</ele>
        <time>2025-04-05T07:26:40Z</time>
      </trkpt>
      <trkpt lat="50.29766" lon="4.80372">
        <ele>187.2</ele>
        <time>2025-04-05T07:26:41Z</time>
      </trkpt>
      <trkpt lat="50.29759" lon="4.80384">
        <ele>186.6</ele>
        <time>2025-04-05T07:26:42Z</time>
      </trkpt>
      <trkpt lat="50.29752" lon="4.80396">
        <ele>186</ele>
        <time>2025-04-05T07:26:43Z</time>
      </trkpt>
      <trkpt lat="50.29745" lon="4.80408">
        <ele>185.2</ele>
        <time>2025-04-05T07:26:44Z</time>
      </trkpt>
      <trkpt lat="50.29738" lon="4.8042">
        <ele>184.6</ele>
        <time>2025-04-05T07:26:45Z</time>
      </trkpt>
      <trkpt lat="50.29732" lon="4.8043">
        <ele>184.2</ele>
        <time>2025-04-05T07:26:46Z</time>
      </trkpt>
      <trkpt lat="50.29725" lon="4.80443">
        <ele>183.6</ele>
        <time>2025-04-05T07:26:47Z</time>
      </trkpt>
      <trkpt lat="50.29717" lon="4.80456">
        <ele>183.2</ele>
        <time>2025-04-05T07:26:48Z</time>
      </trkpt>
      <trkpt lat="50.29709" lon="4.80468">
        <ele>182.6</ele>
        <time>2025-04-05T07:26:49Z</time>
      </trkpt>
      <trkpt lat="50.29702" lon="4.80479">
        <ele>182.2</ele>
        <time>2025-04-05T07:26:50Z</time>
      </trkpt>
      <trkpt lat="50.29694" lon="4.8049">
        <ele>181.8</ele>
        <time>2025-04-05T07:26:51Z</time>
      </trkpt>
      <trkpt lat="50.29687" lon="4.805">
        <ele>181.6</ele>
        <time>2025-04-05T07:26:52Z</time>
      </trkpt>
      <trkpt lat="50.2968" lon="4.8051">
        <ele>181.2</ele>
        <time>2025-04-05T07:26:53Z</time>
      </trkpt>
      <trkpt lat="50.29673" lon="4.80519">
        <ele>180.8</ele>
        <time>2025-04-05T07:26:54Z</time>
      </trkpt>
      <trkpt lat="50.29666" lon="4.80528">
        <ele>180.6</ele>
        <time>2025-04-05T07:26:55Z</time>
      </trkpt>
      <trkpt lat="50.29659" lon="4.80538">
        <ele>180.2</ele>
        <time>2025-04-05T07:26:56Z</time>
      </trkpt>
      <trkpt lat="50.29652" lon="4.80547">
        <ele>179.8</ele>
        <time>2025-04-05T07:26:57Z</time>
      </trkpt>
      <trkpt lat="50.29645" lon="4.80555">
        <ele>179.4</ele>
        <time>2025-04-05T07:26:58Z</time>
      </trkpt>
      <trkpt lat="50.29638" lon="4.80564">
        <ele>179</ele>
        <time>2025-04-05T07:26:59Z</time>
      </trkpt>
      <trkpt lat="50.29632" lon="4.80572">
        <ele>178.6</ele>
        <time>2025-04-05T07:27:00Z</time>
      </trkpt>
      <trkpt lat="50.29627" lon="4.80578">
        <ele>178.4</ele>
        <time>2025-04-05T07:27:01Z</time>
      </trkpt>
      <trkpt lat="50.29619" lon="4.80588">
        <ele>178.2</ele>
        <time>2025-04-05T07:27:02Z</time>
      </trkpt>
      <trkpt lat="50.29611" lon="4.80598">
        <ele>178</ele>
        <time>2025-04-05T07:27:03Z</time>
      </trkpt>
      <trkpt lat="50.29604" lon="4.80605">
        <ele>177.8</ele>
        <time>2025-04-05T07:27:04Z</time>
      </trkpt>
      <trkpt lat="50.29597" lon="4.80612">
        <ele>177.6</ele>
        <time>2025-04-05T07:27:05Z</time>
      </trkpt>
      <trkpt lat="50.2959" lon="4.80619">
        <ele>177.4</ele>
        <time>2025-04-05T07:27:06Z</time>
      </trkpt>
      <trkpt lat="50.29583" lon="4.80626">
        <ele>177.2</ele>
        <time>2025-04-05T07:27:07Z</time>
      </trkpt>
      <trkpt lat="50.29576" lon="4.80632">
        <ele>177</ele>
        <time>2025-04-05T07:27:08Z</time>
      </trkpt>
      <trkpt lat="50.29569" lon="4.80638">
        <ele>176.8</ele>
        <time>2025-04-05T07:27:09Z</time>
      </trkpt>
      <trkpt lat="50.29562" lon="4.80644">
        <ele>176.6</ele>
        <time>2025-04-05T07:27:10Z</time>
      </trkpt>
      <trkpt lat="50.29556" lon="4.80649">
        <ele>176.6</ele>
        <time>2025-04-05T07:27:11Z</time>
      </trkpt>
      <trkpt lat="50.29549" lon="4.80655">
        <ele>176.6</ele>
        <time>2025-04-05T07:27:12Z</time>
      </trkpt>
      <trkpt lat="50.29541" lon="4.80662">
        <ele>176.4</ele>
        <time>2025-04-05T07:27:13Z</time>
      </trkpt>
      <trkpt lat="50.29534" lon="4.80667">
        <ele>176.4</ele>
        <time>2025-04-05T07:27:14Z</time>
      </trkpt>
      <trkpt lat="50.29528" lon="4.80673">
        <ele>176.4</ele>
        <time>2025-04-05T07:27:15Z</time>
      </trkpt>
      <trkpt lat="50.29522" lon="4.80678">
        <ele>176.4</ele>
        <time>2025-04-05T07:27:16Z</time>
      </trkpt>
      <trkpt lat="50.29516" lon="4.80683">
        <ele>176.4</ele>
        <time>2025-04-05T07:27:17Z</time>
      </trkpt>
      <trkpt lat="50.29511" lon="4.80688">
        <ele>176.2</ele>
        <time>2025-04-05T07:27:18Z</time>
      </trkpt>
      <trkpt lat="50.29505" lon="4.80693">
        <ele>176.2</ele>
        <time>2025-04-05T07:27:19Z</time>
      </trkpt>
      <trkpt lat="50.295" lon="4.80697">
        <ele>176</ele>
        <time>2025-04-05T07:27:20Z</time>
      </trkpt>
      <trkpt lat="50.29495" lon="4.80702">
        <ele>176</ele>
        <time>2025-04-05T07:27:21Z</time>
      </trkpt>
      <trkpt lat="50.29489" lon="4.80708">
        <ele>175.8</ele>
        <time>2025-04-05T07:27:22Z</time>
      </trkpt>
      <trkpt lat="50.29483" lon="4.80712">
        <ele>175.8</ele>
        <time>2025-04-05T07:27:23Z</time>
      </trkpt>
      <trkpt lat="50.29478" lon="4.80716">
        <ele>175.6</ele>
        <time>2025-04-05T07:27:24Z</time>
      </trkpt>
      <trkpt lat="50.29472" lon="4.8072">
        <ele>175.4</ele>
        <time>2025-04-05T07:27:25Z</time>
      </trkpt>
      <trkpt lat="50.29466" lon="4.80723">
        <ele>175.4</ele>
        <time>2025-04-05T07:27:26Z</time>
      </trkpt>
      <trkpt lat="50.2946" lon="4.80726">
        <ele>175.2</ele>
        <time>2025-04-05T07:27:27Z</time>
      </trkpt>
      <trkpt lat="50.29454" lon="4.80727">
        <ele>175</ele>
        <time>2025-04-05T07:27:28Z</time>
      </trkpt>
      <trkpt lat="50.29448" lon="4.80729">
        <ele>174.8</ele>
        <time>2025-04-05T07:27:29Z</time>
      </trkpt>
      <trkpt lat="50.29442" lon="4.80729">
        <ele>174.6</ele>
        <time>2025-04-05T07:27:30Z</time>
      </trkpt>
      <trkpt lat="50.29436" lon="4.8073">
        <ele>174.4</ele>
        <time>2025-04-05T07:27:31Z</time>
      </trkpt>
      <trkpt lat="50.2943" lon="4.80731">
        <ele>174.2</ele>
        <time>2025-04-05T07:27:32Z</time>
      </trkpt>
      <trkpt lat="50.29426" lon="4.80732">
        <ele>174</ele>
        <time>2025-04-05T07:27:33Z</time>
      </trkpt>
      <trkpt lat="50.29421" lon="4.80733">
        <ele>173.8</ele>
        <time>2025-04-05T07:27:34Z</time>
      </trkpt>
      <trkpt lat="50.29416" lon="4.80734">
        <ele>173.6</ele>
        <time>2025-04-05T07:27:35Z</time>
      </trkpt>
      <trkpt lat="50.29409" lon="4.80735">
        <ele>173.2</ele>
        <time>2025-04-05T07:27:36Z</time>
      </trkpt>
      <trkpt lat="50.29405" lon="4.80734">
        <ele>172.8</ele>
        <time>2025-04-05T07:27:37Z</time>
      </trkpt>
      <trkpt lat="50.294" lon="4.80733">
        <ele>172.4</ele>
        <time>2025-04-05T07:27:38Z</time>
      </trkpt>
      <trkpt lat="50.29394" lon="4.80732">
        <ele>172</ele>
        <time>2025-04-05T07:27:39Z</time>
      </trkpt>
      <trkpt lat="50.29389" lon="4.8073">
        <ele>171.6</ele>
        <time>2025-04-05T07:27:40Z</time>
      </trkpt>
      <trkpt lat="50.29385" lon="4.80729">
        <ele>171</ele>
        <time>2025-04-05T07:27:41Z</time>
      </trkpt>
      <trkpt lat="50.2938" lon="4.80728">
        <ele>170.6</ele>
        <time>2025-04-05T07:27:42Z</time>
      </trkpt>
      <trkpt lat="50.29375" lon="4.80726">
        <ele>170</ele>
        <time>2025-04-05T07:27:43Z</time>
      </trkpt>
      <trkpt lat="50.2937" lon="4.80724">
        <ele>169.4</ele>
        <time>2025-04-05T07:27:44Z</time>
      </trkpt>
      <trkpt lat="50.29366" lon="4.80721">
        <ele>168.8</ele>
        <time>2025-04-05T07:27:45Z</time>
      </trkpt>
      <trkpt lat="50.29362" lon="4.80718">
        <ele>168.2</ele>
        <time>2025-04-05T07:27:46Z</time>
      </trkpt>
      <trkpt lat="50.29358" lon="4.80712">
        <ele>167.6</ele>
        <time>2025-04-05T07:27:47Z</time>
      </trkpt>
      <trkpt lat="50.29354" lon="4.80705">
        <ele>167</ele>
        <time>2025-04-05T07:27:48Z</time>
      </trkpt>
      <trkpt lat="50.29351" lon="4.80697">
        <ele>166.4</ele>
        <time>2025-04-05T07:27:49Z</time>
      </trkpt>
      <trkpt lat="50.29348" lon="4.80688">
        <ele>165.8</ele>
        <time>2025-04-05T07:27:50Z</time>
      </trkpt>
      <trkpt lat="50.29345" lon="4.80678">
        <ele>165.2</ele>
        <time>2025-04-05T07:27:51Z</time>
      </trkpt>
      <trkpt lat="50.29342" lon="4.80668">
        <ele>164.6</ele>
        <time>2025-04-05T07:27:52Z</time>
      </trkpt>
      <trkpt lat="50.29337" lon="4.80659">
        <ele>164</ele>
        <time>2025-04-05T07:27:53Z</time>
      </trkpt>
      <trkpt lat="50.29333" lon="4.80649">
        <ele>163.4</ele>
        <time>2025-04-05T07:27:54Z</time>
      </trkpt>
      <trkpt lat="50.2933" lon="4.80641">
        <ele>162.8</ele>
        <time>2025-04-05T07:27:55Z</time>
      </trkpt>
      <trkpt lat="50.29326" lon="4.80631">
        <ele>162.2</ele>
        <time>2025-04-05T07:27:56Z</time>
      </trkpt>
      <trkpt lat="50.29321" lon="4.8062">
        <ele>161.4</ele>
        <time>2025-04-05T07:27:57Z</time>
      </trkpt>
      <trkpt lat="50.29318" lon="4.80611">
        <ele>161</ele>
        <time>2025-04-05T07:27:58Z</time>
      </trkpt>
      <trkpt lat="50.29315" lon="4.80602">
        <ele>160.4</ele>
        <time>2025-04-05T07:27:59Z</time>
      </trkpt>
      <trkpt lat="50.29314" lon="4.80593">
        <ele>159.8</ele>
        <time>2025-04-05T07:28:00Z</time>
      </trkpt>
      <trkpt lat="50.29313" lon="4.80584">
        <ele>159.2</ele>
        <time>2025-04-05T07:28:01Z</time>
      </trkpt>
      <trkpt lat="50.29314" lon="4.80576">
        <ele>158.4</ele>
        <time>2025-04-05T07:28:02Z</time>
      </trkpt>
      <trkpt lat="50.29318" lon="4.80568">
        <ele>157.8</ele>
        <time>2025-04-05T07:28:03Z</time>
      </trkpt>
      <trkpt lat="50.29322" lon="4.80561">
        <ele>157.2</ele>
        <time>2025-04-05T07:28:04Z</time>
      </trkpt>
      <trkpt lat="50.29326" lon="4.80557">
        <ele>156.4</ele>
        <time>2025-04-05T07:28:05Z</time>
      </trkpt>
      <trkpt lat="50.29334" lon="4.80553">
        <ele>155.8</ele>
        <time>2025-04-05T07:28:06Z</time>
      </trkpt>
      <trkpt lat="50.29341" lon="4.80551">
        <ele>155.2</ele>
        <time>2025-04-05T07:28:07Z</time>
      </trkpt>
      <trkpt lat="50.29348" lon="4.8055">
        <ele>154.6</ele>
        <time>2025-04-05T07:28:08Z</time>
      </trkpt>
      <trkpt lat="50.29354" lon="4.80549">
        <ele>154.2</ele>
        <time>2025-04-05T07:28:09Z</time>
      </trkpt>
      <trkpt lat="50.2936" lon="4.80548">
        <ele>153.8</ele>
        <time>2025-04-05T07:28:10Z</time>
      </trkpt>
      <trkpt lat="50.29367" lon="4.80547">
        <ele>153.4</ele>
        <time>2025-04-05T07:28:11Z</time>
      </trkpt>
      <trkpt lat="50.29372" lon="4.80545">
        <ele>152.8</ele>
        <time>2025-04-05T07:28:12Z</time>
      </trkpt>
      <trkpt lat="50.29377" lon="4.80542">
        <ele>152.4</ele>
        <time>2025-04-05T07:28:13Z</time>
      </trkpt>
      <trkpt lat="50.2938" lon="4.80538">
        <ele>152</ele>
        <time>2025-04-05T07:28:14Z</time>
      </trkpt>
      <trkpt lat="50.29384" lon="4.80532">
        <ele>151.2</ele>
        <time>2025-04-05T07:28:15Z</time>
      </trkpt>
      <trkpt lat="50.29385" lon="4.80525">
        <ele>150.6</ele>
        <time>2025-04-05T07:28:16Z</time>
      </trkpt>
      <trkpt lat="50.29383" lon="4.80517">
        <ele>149.8</ele>
        <time>2025-04-05T07:28:17Z</time>
      </trkpt>
      <trkpt lat="50.29379" lon="4.8051">
        <ele>149</ele>
        <time>2025-04-05T07:28:18Z</time>
      </trkpt>
      <trkpt lat="50.29373" lon="4.80504">
        <ele>148</ele>
        <time>2025-04-05T07:28:19Z</time>
      </trkpt>
      <trkpt lat="50.29366" lon="4.805">
        <ele>147</ele>
        <time>2025-04-05T07:28:20Z</time>
      </trkpt>
      <trkpt lat="50.29358" lon="4.80496">
        <ele>146</ele>
        <time>2025-04-05T07:28:21Z</time>
      </trkpt>
      <trkpt lat="50.29351" lon="4.8049">
        <ele>144.8</ele>
        <time>2025-04-05T07:28:22Z</time>
      </trkpt>
      <trkpt lat="50.29344" lon="4.80483">
        <ele>143.8</ele>
        <time>2025-04-05T07:28:23Z</time>
      </trkpt>
      <trkpt lat="50.29337" lon="4.80477">
        <ele>142.8</ele>
        <time>2025-04-05T07:28:24Z</time>
      </trkpt>
      <trkpt lat="50.2933" lon="4.80471">
        <ele>141.6</ele>
        <time>2025-04-05T07:28:25Z</time>
      </trkpt>
      <trkpt lat="50.29323" lon="4.80467">
        <ele>140.6</ele>
        <time>2025-04-05T07:28:26Z</time>
      </trkpt>
      <trkpt lat="50.29316" lon="4.80466">
        <ele>139.6</ele>
        <time>2025-04-05T07:28:27Z</time>
      </trkpt>
      <trkpt lat="50.2931" lon="4.80465">
        <ele>138.6</ele>
        <time>2025-04-05T07:28:28Z</time>
      </trkpt>
      <trkpt lat="50.29303" lon="4.80464">
        <ele>137.6</ele>
        <time>2025-04-05T07:28:29Z</time>
      </trkpt>
      <trkpt lat="50.29295" lon="4.80466">
        <ele>136.8</ele>
        <time>2025-04-05T07:28:30Z</time>
      </trkpt>
      <trkpt lat="50.29289" lon="4.80468">
        <ele>135.8</ele>
        <time>2025-04-05T07:28:31Z</time>
      </trkpt>
      <trkpt lat="50.29282" lon="4.8047">
        <ele>134.8</ele>
        <time>2025-04-05T07:28:32Z</time>
      </trkpt>
      <trkpt lat="50.29276" lon="4.80472">
        <ele>134</ele>
        <time>2025-04-05T07:28:33Z</time>
      </trkpt>
      <trkpt lat="50.29271" lon="4.80474">
        <ele>133.2</ele>
        <time>2025-04-05T07:28:34Z</time>
      </trkpt>
      <trkpt lat="50.29265" lon="4.80474">
        <ele>132.4</ele>
        <time>2025-04-05T07:28:35Z</time>
      </trkpt>
      <trkpt lat="50.2926" lon="4.80474">
        <ele>131.6</ele>
        <time>2025-04-05T07:28:36Z</time>
      </trkpt>
      <trkpt lat="50.29255" lon="4.80474">
        <ele>130.8</ele>
        <time>2025-04-05T07:28:37Z</time>
      </trkpt>
      <trkpt lat="50.2925" lon="4.80474">
        <ele>130</ele>
        <time>2025-04-05T07:28:38Z</time>
      </trkpt>
      <trkpt lat="50.29245" lon="4.80473">
        <ele>129.2</ele>
        <time>2025-04-05T07:28:39Z</time>
      </trkpt>
      <trkpt lat="50.2924" lon="4.80471">
        <ele>128.2</ele>
        <time>2025-04-05T07:28:40Z</time>
      </trkpt>
      <trkpt lat="50.29234" lon="4.80469">
        <ele>127.4</ele>
        <time>2025-04-05T07:28:41Z</time>
      </trkpt>
      <trkpt lat="50.29229" lon="4.80466">
        <ele>126.4</ele>
        <time>2025-04-05T07:28:42Z</time>
      </trkpt>
      <trkpt lat="50.29225" lon="4.80461">
        <ele>125.6</ele>
        <time>2025-04-05T07:28:43Z</time>
      </trkpt>
      <trkpt lat="50.29221" lon="4.80457">
        <ele>124.8</ele>
        <time>2025-04-05T07:28:44Z</time>
      </trkpt>
      <trkpt lat="50.29218" lon="4.80452">
        <ele>124</ele>
        <time>2025-04-05T07:28:45Z</time>
      </trkpt>
      <trkpt lat="50.29214" lon="4.80447">
        <ele>123.4</ele>
        <time>2025-04-05T07:28:46Z</time>
      </trkpt>
      <trkpt lat="50.2921" lon="4.80441">
        <ele>122.6</ele>
        <time>2025-04-05T07:28:47Z</time>
      </trkpt>
      <trkpt lat="50.29207" lon="4.80435">
        <ele>122</ele>
        <time>2025-04-05T07:28:48Z</time>
      </trkpt>
      <trkpt lat="50.29203" lon="4.80428">
        <ele>121.4</ele>
        <time>2025-04-05T07:28:49Z</time>
      </trkpt>
      <trkpt lat="50.292" lon="4.8042">
        <ele>121</ele>
        <time>2025-04-05T07:28:50Z</time>
      </trkpt>
      <trkpt lat="50.29197" lon="4.80412">
        <ele>120.6</ele>
        <time>2025-04-05T07:28:51Z</time>
      </trkpt>
      <trkpt lat="50.29196" lon="4.80404">
        <ele>120.2</ele>
        <time>2025-04-05T07:28:52Z</time>
      </trkpt>
      <trkpt lat="50.29194" lon="4.80395">
        <ele>120</ele>
        <time>2025-04-05T07:28:53Z</time>
      </trkpt>
      <trkpt lat="50.29193" lon="4.80386">
        <ele>119.8</ele>
        <time>2025-04-05T07:28:54Z</time>
      </trkpt>
      <trkpt lat="50.29192" lon="4.80378">
        <ele>119.8</ele>
        <time>2025-04-05T07:28:55Z</time>
      </trkpt>
      <trkpt lat="50.2919" lon="4.8037">
        <ele>119.8</ele>
        <time>2025-04-05T07:28:56Z</time>
      </trkpt>
      <trkpt lat="50.29187" lon="4.80362">
        <ele>119.8</ele>
        <time>2025-04-05T07:28:57Z</time>
      </trkpt>
      <trkpt lat="50.29185" lon="4.80355">
        <ele>119.8</ele>
        <time>2025-04-05T07:28:58Z</time>
      </trkpt>
      <trkpt lat="50.29182" lon="4.80348">
        <ele>119.8</ele>
        <time>2025-04-05T07:28:59Z</time>
      </trkpt>
      <trkpt lat="50.29179" lon="4.80342">
        <ele>119.8</ele>
        <time>2025-04-05T07:29:00Z</time>
      </trkpt>
      <trkpt lat="50.29176" lon="4.80335">
        <ele>120</ele>
        <time>2025-04-05T07:29:01Z</time>
      </trkpt>
      <trkpt lat="50.29173" lon="4.80327">
        <ele>120</ele>
        <time>2025-04-05T07:29:02Z</time>
      </trkpt>
      <trkpt lat="50.29171" lon="4.8032">
        <ele>120.2</ele>
        <time>2025-04-05T07:29:03Z</time>
      </trkpt>
      <trkpt lat="50.29168" lon="4.80312">
        <ele>120.4</ele>
        <time>2025-04-05T07:29:04Z</time>
      </trkpt>
      <trkpt lat="50.29167" lon="4.80303">
        <ele>120.6</ele>
        <time>2025-04-05T07:29:05Z</time>
      </trkpt>
      <trkpt lat="50.29166" lon="4.80295">
        <ele>121</ele>
        <time>2025-04-05T07:29:06Z</time>
      </trkpt>
      <trkpt lat="50.29166" lon="4.80286">
        <ele>121.2</ele>
        <time>2025-04-05T07:29:07Z</time>
      </trkpt>
      <trkpt lat="50.29167" lon="4.80278">
        <ele>121.4</ele>
        <time>2025-04-05T07:29:08Z</time>
      </trkpt>
      <trkpt lat="50.29168" lon="4.8027">
        <ele>121.6</ele>
        <time>2025-04-05T07:29:09Z</time>
      </trkpt>
      <trkpt lat="50.29168" lon="4.80262">
        <ele>121.8</ele>
        <time>2025-04-05T07:29:10Z</time>
      </trkpt>
      <trkpt lat="50.29169" lon="4.80253">
        <ele>122.2</ele>
        <time>2025-04-05T07:29:11Z</time>
      </trkpt>
      <trkpt lat="50.2917" lon="4.80246">
        <ele>122.4</ele>
        <time>2025-04-05T07:29:12Z</time>
      </trkpt>
      <trkpt lat="50.29171" lon="4.80237">
        <ele>122.6</ele>
        <time>2025-04-05T07:29:13Z</time>
      </trkpt>
      <trkpt lat="50.29171" lon="4.80229">
        <ele>122.8</ele>
        <time>2025-04-05T07:29:14Z</time>
      </trkpt>
      <trkpt lat="50.29171" lon="4.80222">
        <ele>123</ele>
        <time>2025-04-05T07:29:15Z</time>
      </trkpt>
      <trkpt lat="50.29172" lon="4.80214">
        <ele>123.2</ele>
        <time>2025-04-05T07:29:16Z</time>
      </trkpt>
      <trkpt lat="50.29173" lon="4.80207">
        <ele>123.6</ele>
        <time>2025-04-05T07:29:17Z</time>
      </trkpt>
      <trkpt lat="50.29171" lon="4.80201">
        <ele>123.8</ele>
        <time>2025-04-05T07:29:18Z</time>
      </trkpt>
      <trkpt lat="50.29169" lon="4.80195">
        <ele>124</ele>
        <time>2025-04-05T07:29:19Z</time>
      </trkpt>
      <trkpt lat="50.29164" lon="4.80189">
        <ele>124.2</ele>
        <time>2025-04-05T07:29:20Z</time>
      </trkpt>
      <trkpt lat="50.2916" lon="4.80185">
        <ele>124.2</ele>
        <time>2025-04-05T07:29:21Z</time>
      </trkpt>
      <trkpt lat="50.29156" lon="4.80185">
        <ele>124.4</ele>
        <time>2025-04-05T07:29:22Z</time>
      </trkpt>
      <trkpt lat="50.29152" lon="4.80182">
        <ele>124.4</ele>
        <time>2025-04-05T07:29:23Z</time>
      </trkpt>
      <trkpt lat="50.29149" lon="4.80181">
        <ele>124.6</ele>
        <time>2025-04-05T07:29:24Z</time>
      </trkpt>
      <trkpt lat="50.29145" lon="4.8018">
        <ele>124.6</ele>
        <time>2025-04-05T07:29:25Z</time>
      </trkpt>
      <trkpt lat="50.29141" lon="4.8018">
        <ele>124.8</ele>
        <time>2025-04-05T07:29:26Z</time>
      </trkpt>
      <trkpt lat="50.29137" lon="4.80179">
        <ele>124.8</ele>
        <time>2025-04-05T07:29:27Z</time>
      </trkpt>
      <trkpt lat="50.29133" lon="4.80179">
        <ele>125</ele>
        <time>2025-04-05T07:29:28Z</time>
      </trkpt>
      <trkpt lat="50.29129" lon="4.80179">
        <ele>125</ele>
        <time>2025-04-05T07:29:29Z</time>
      </trkpt>
      <trkpt lat="50.29125" lon="4.80179">
        <ele>125.2</ele>
        <time>2025-04-05T07:29:30Z</time>
      </trkpt>
      <trkpt lat="50.2912" lon="4.80179">
        <ele>125.2</ele>
        <time>2025-04-05T07:29:31Z</time>
      </trkpt>
      <trkpt lat="50.29115" lon="4.80179">
        <ele>125.4</ele>
        <time>2025-04-05T07:29:32Z</time>
      </trkpt>
      <trkpt lat="50.29111" lon="4.80179">
        <ele>125.6</ele>
        <time>2025-04-05T07:29:33Z</time>
      </trkpt>
      <trkpt lat="50.29107" lon="4.80179">
        <ele>125.8</ele>
        <time>2025-04-05T07:29:34Z</time>
      </trkpt>
      <trkpt lat="50.29103" lon="4.80179">
        <ele>126</ele>
        <time>2025-04-05T07:29:35Z</time>
      </trkpt>
      <trkpt lat="50.29099" lon="4.80178">
        <ele>126.2</ele>
        <time>2025-04-05T07:29:36Z</time>
      </trkpt>
      <trkpt lat="50.29096" lon="4.80178">
        <ele>126.4</ele>
        <time>2025-04-05T07:29:37Z</time>
      </trkpt>
      <trkpt lat="50.29092" lon="4.80177">
        <ele>126.6</ele>
        <time>2025-04-05T07:29:38Z</time>
      </trkpt>
      <trkpt lat="50.29089" lon="4.80176">
        <ele>126.8</ele>
        <time>2025-04-05T07:29:39Z</time>
      </trkpt>
      <trkpt lat="50.29086" lon="4.80174">
        <ele>127</ele>
        <time>2025-04-05T07:29:40Z</time>
      </trkpt>
      <trkpt lat="50.29083" lon="4.80171">
        <ele>127.4</ele>
        <time>2025-04-05T07:29:41Z</time>
      </trkpt>
      <trkpt lat="50.29081" lon="4.80168">
        <ele>127.6</ele>
        <time>2025-04-05T07:29:42Z</time>
      </trkpt>
      <trkpt lat="50.29078" lon="4.80165">
        <ele>127.8</ele>
        <time>2025-04-05T07:29:43Z</time>
      </trkpt>
      <trkpt lat="50.29076" lon="4.80162">
        <ele>128.2</ele>
        <time>2025-04-05T07:29:44Z</time>
      </trkpt>
      <trkpt lat="50.29075" lon="4.80158">
        <ele>128.4</ele>
        <time>2025-04-05T07:29:45Z</time>
      </trkpt>
      <trkpt lat="50.29073" lon="4.80154">
        <ele>128.6</ele>
        <time>2025-04-05T07:29:46Z</time>
      </trkpt>
      <trkpt lat="50.2907" lon="4.80151">
        <ele>129</ele>
        <time>2025-04-05T07:29:47Z</time>
      </trkpt>
      <trkpt lat="50.29068" lon="4.80147">
        <ele>129.2</ele>
        <time>2025-04-05T07:29:48Z</time>
      </trkpt>
      <trkpt lat="50.29066" lon="4.80143">
        <ele>129.4</ele>
        <time>2025-04-05T07:29:49Z</time>
      </trkpt>
      <trkpt lat="50.29064" lon="4.80139">
        <ele>129.6</ele>
        <time>2025-04-05T07:29:50Z</time>
      </trkpt>
      <trkpt lat="50.29062" lon="4.80135">
        <ele>129.8</ele>
        <time>2025-04-05T07:29:51Z</time>
      </trkpt>
      <trkpt lat="50.2906" lon="4.80132">
        <ele>130</ele>
        <time>2025-04-05T07:29:52Z</time>
      </trkpt>
      <trkpt lat="50.29057" lon="4.80129">
        <ele>130.2</ele>
        <time>2025-04-05T07:29:53Z</time>
      </trkpt>
      <trkpt lat="50.29054" lon="4.80126">
        <ele>130.6</ele>
        <time>2025-04-05T07:29:54Z</time>
      </trkpt>
      <trkpt lat="50.29051" lon="4.80123">
        <ele>130.8</ele>
        <time>2025-04-05T07:29:55Z</time>
      </trkpt>
      <trkpt lat="50.29049" lon="4.80119">
        <ele>131</ele>
        <time>2025-04-05T07:29:56Z</time>
      </trkpt>
      <trkpt lat="50.29047" lon="4.80115">
        <ele>131.2</ele>
        <time>2025-04-05T07:29:57Z</time>
      </trkpt>
      <trkpt lat="50.29045" lon="4.8011">
        <ele>131.2</ele>
        <time>2025-04-05T07:29:58Z</time>
      </trkpt>
      <trkpt lat="50.29042" lon="4.80105">
        <ele>131.4</ele>
        <time>2025-04-05T07:29:59Z</time>
      </trkpt>
      <trkpt lat="50.2904" lon="4.801">
        <ele>131.6</ele>
        <time>2025-04-05T07:30:00Z</time>
      </trkpt>
      <trkpt lat="50.29038" lon="4.80095">
        <ele>131.8</ele>
        <time>2025-04-05T07:30:01Z</time>
      </trkpt>
      <trkpt lat="50.29036" lon="4.8009">
        <ele>132</ele>
        <time>2025-04-05T07:30:02Z</time>
      </trkpt>
      <trkpt lat="50.29036" lon="4.80083">
        <ele>132.2</ele>
        <time>2025-04-05T07:30:03Z</time>
      </trkpt>
      <trkpt lat="50.29034" lon="4.80077">
        <ele>132.4</ele>
        <time>2025-04-05T07:30:04Z</time>
      </trkpt>
      <trkpt lat="50.29031" lon="4.80072">
        <ele>132.8</ele>
        <time>2025-04-05T07:30:05Z</time>
      </trkpt>
      <trkpt lat="50.2903" lon="4.80067">
        <ele>133</ele>
        <time>2025-04-05T07:30:06Z</time>
      </trkpt>
      <trkpt lat="50.29028" lon="4.80062">
        <ele>133.2</ele>
        <time>2025-04-05T07:30:07Z</time>
      </trkpt>
      <trkpt lat="50.29026" lon="4.80057">
        <ele>133.4</ele>
        <time>2025-04-05T07:30:08Z</time>
      </trkpt>
      <trkpt lat="50.29025" lon="4.80052">
        <ele>133.6</ele>
        <time>2025-04-05T07:30:09Z</time>
      </trkpt>
      <trkpt lat="50.29024" lon="4.80047">
        <ele>133.8</ele>
        <time>2025-04-05T07:30:10Z</time>
      </trkpt>
      <trkpt lat="50.29023" lon="4.80043">
        <ele>134</ele>
        <time>2025-04-05T07:30:11Z</time>
      </trkpt>
      <trkpt lat="50.2902" lon="4.80039">
        <ele>134.2</ele>
        <time>2025-04-05T07:30:12Z</time>
      </trkpt>
      <trkpt lat="50.29016" lon="4.80037">
        <ele>134.4</ele>
        <time>2025-04-05T07:30:13Z</time>
      </trkpt>
      <trkpt lat="50.29014" lon="4.80034">
        <ele>134.6</ele>
        <time>2025-04-05T07:30:14Z</time>
      </trkpt>
      <trkpt lat="50.29011" lon="4.8003">
        <ele>135</ele>
        <time>2025-04-05T07:30:15Z</time>
      </trkpt>
      <trkpt lat="50.29009" lon="4.80023">
        <ele>135.2</ele>
        <time>2025-04-05T07:30:16Z</time>
      </trkpt>
      <trkpt lat="50.29008" lon="4.80017">
        <ele>135.4</ele>
        <time>2025-04-05T07:30:17Z</time>
      </trkpt>
      <trkpt lat="50.29007" lon="4.80013">
        <ele>135.6</ele>
        <time>2025-04-05T07:30:18Z</time>
      </trkpt>
      <trkpt lat="50.29007" lon="4.80008">
        <ele>135.8</ele>
        <time>2025-04-05T07:30:19Z</time>
      </trkpt>
      <trkpt lat="50.29003" lon="4.80004">
        <ele>136</ele>
        <time>2025-04-05T07:30:20Z</time>
      </trkpt>
      <trkpt lat="50.28997" lon="4.8">
        <ele>136.2</ele>
        <time>2025-04-05T07:30:21Z</time>
      </trkpt>
      <trkpt lat="50.28994" lon="4.79996">
        <ele>136.6</ele>
        <time>2025-04-05T07:30:22Z</time>
      </trkpt>
      <trkpt lat="50.28992" lon="4.79993">
        <ele>136.8</ele>
        <time>2025-04-05T07:30:23Z</time>
      </trkpt>
      <trkpt lat="50.28991" lon="4.79991">
        <ele>137</ele>
        <time>2025-04-05T07:30:24Z</time>
      </trkpt>
      <trkpt lat="50.28989" lon="4.79989">
        <ele>137.2</ele>
        <time>2025-04-05T07:30:25Z</time>
      </trkpt>
      <trkpt lat="50.28985" lon="4.79986">
        <ele>137.4</ele>
        <time>2025-04-05T07:30:26Z</time>
      </trkpt>
      <trkpt lat="50.28983" lon="4.79984">
        <ele>137.6</ele>
        <time>2025-04-05T07:30:27Z</time>
      </trkpt>
      <trkpt lat="50.2898" lon="4.79981">
        <ele>138</ele>
        <time>2025-04-05T07:30:28Z</time>
      </trkpt>
      <trkpt lat="50.28979" lon="4.79979">
        <ele>138.2</ele>
        <time>2025-04-05T07:30:29Z</time>
      </trkpt>
      <trkpt lat="50.28977" lon="4.79978">
        <ele>138.4</ele>
        <time>2025-04-05T07:30:30Z</time>
      </trkpt>
      <trkpt lat="50.28975" lon="4.79976">
        <ele>138.6</ele>
        <time>2025-04-05T07:30:31Z</time>
      </trkpt>
      <trkpt lat="50.28973" lon="4.79975">
        <ele>138.8</ele>
        <time>2025-04-05T07:30:32Z</time>
      </trkpt>
      <trkpt lat="50.28971" lon="4.79973">
        <ele>139</ele>
        <time>2025-04-05T07:30:33Z</time>
      </trkpt>
      <trkpt lat="50.2897" lon="4.7997">
        <ele>139</ele>
        <time>2025-04-05T07:30:34Z</time>
      </trkpt>
      <trkpt lat="50.28968" lon="4.79967">
        <ele>139.2</ele>
        <time>2025-04-05T07:30:35Z</time>
      </trkpt>
      <trkpt lat="50.28965" lon="4.79963">
        <ele>139.4</ele>
        <time>2025-04-05T07:30:36Z</time>
      </trkpt>
      <trkpt lat="50.28962" lon="4.7996">
        <ele>139.6</ele>
        <time>2025-04-05T07:30:37Z</time>
      </trkpt>
      <trkpt lat="50.28959" lon="4.79958">
        <ele>140</ele>
        <time>2025-04-05T07:30:38Z</time>
      </trkpt>
      <trkpt lat="50.28957" lon="4.79956">
        <ele>140.2</ele>
        <time>2025-04-05T07:30:39Z</time>
      </trkpt>
      <trkpt lat="50.28955" lon="4.79953">
        <ele>140.4</ele>
        <time>2025-04-05T07:30:40Z</time>
      </trkpt>
      <trkpt lat="50.28952" lon="4.79951">
        <ele>140.6</ele>
        <time>2025-04-05T07:30:41Z</time>
      </trkpt>
      <trkpt lat="50.2895" lon="4.79948">
        <ele>140.8</ele>
        <time>2025-04-05T07:30:42Z</time>
      </trkpt>
      <trkpt lat="50.28947" lon="4.79945">
        <ele>141</ele>
        <time>2025-04-05T07:30:43Z</time>
      </trkpt>
      <trkpt lat="50.28945" lon="4.79941">
        <ele>141.2</ele>
        <time>2025-04-05T07:30:44Z</time>
      </trkpt>
      <trkpt lat="50.28942" lon="4.79938">
        <ele>141.4</ele>
        <time>2025-04-05T07:30:45Z</time>
      </trkpt>
      <trkpt lat="50.28939" lon="4.79935">
        <ele>141.6</ele>
        <time>2025-04-05T07:30:46Z</time>
      </trkpt>
      <trkpt lat="50.28937" lon="4.79932">
        <ele>141.8</ele>
        <time>2025-04-05T07:30:47Z</time>
      </trkpt>
      <trkpt lat="50.28934" lon="4.79928">
        <ele>142</ele>
        <time>2025-04-05T07:30:48Z</time>
      </trkpt>
      <trkpt lat="50.28931" lon="4.79925">
        <ele>142.2</ele>
        <time>2025-04-05T07:30:49Z</time>
      </trkpt>
      <trkpt lat="50.28929" lon="4.79923">
        <ele>142.4</ele>
        <time>2025-04-05T07:30:50Z</time>
      </trkpt>
      <trkpt lat="50.28927" lon="4.7992">
        <ele>142.6</ele>
        <time>2025-04-05T07:30:51Z</time>
      </trkpt>
      <trkpt lat="50.28925" lon="4.79917">
        <ele>142.8</ele>
        <time>2025-04-05T07:30:52Z</time>
      </trkpt>
      <trkpt lat="50.28922" lon="4.79915">
        <ele>143</ele>
        <time>2025-04-05T07:30:53Z</time>
      </trkpt>
      <trkpt lat="50.2892" lon="4.79912">
        <ele>143.4</ele>
        <time>2025-04-05T07:30:54Z</time>
      </trkpt>
      <trkpt lat="50.28917" lon="4.79909">
        <ele>143.6</ele>
        <time>2025-04-05T07:30:55Z</time>
      </trkpt>
      <trkpt lat="50.28914" lon="4.79906">
        <ele>143.8</ele>
        <time>2025-04-05T07:30:56Z</time>
      </trkpt>
      <trkpt lat="50.28911" lon="4.79905">
        <ele>144</ele>
        <time>2025-04-05T07:30:57Z</time>
      </trkpt>
      <trkpt lat="50.28908" lon="4.79902">
        <ele>144.2</ele>
        <time>2025-04-05T07:30:58Z</time>
      </trkpt>
      <trkpt lat="50.28906" lon="4.799">
        <ele>144.4</ele>
        <time>2025-04-05T07:30:59Z</time>
      </trkpt>
      <trkpt lat="50.28903" lon="4.79897">
        <ele>144.6</ele>
        <time>2025-04-05T07:31:00Z</time>
      </trkpt>
      <trkpt lat="50.28901" lon="4.79895">
        <ele>144.8</ele>
        <time>2025-04-05T07:31:01Z</time>
      </trkpt>
      <trkpt lat="50.28898" lon="4.79893">
        <ele>145</ele>
        <time>2025-04-05T07:31:02Z</time>
      </trkpt>
      <trkpt lat="50.28895" lon="4.7989">
        <ele>145.2</ele>
        <time>2025-04-05T07:31:03Z</time>
      </trkpt>
      <trkpt lat="50.28893" lon="4.79885">
        <ele>145.4</ele>
        <time>2025-04-05T07:31:04Z</time>
      </trkpt>
      <trkpt lat="50.2889" lon="4.79881">
        <ele>145.6</ele>
        <time>2025-04-05T07:31:05Z</time>
      </trkpt>
      <trkpt lat="50.28887" lon="4.79878">
        <ele>145.8</ele>
        <time>2025-04-05T07:31:06Z</time>
      </trkpt>
      <trkpt lat="50.28884" lon="4.79876">
        <ele>146</ele>
        <time>2025-04-05T07:31:07Z</time>
      </trkpt>
      <trkpt lat="50.28882" lon="4.79874">
        <ele>146.2</ele>
        <time>2025-04-05T07:31:08Z</time>
      </trkpt>
      <trkpt lat="50.2888" lon="4.79871">
        <ele>146.4</ele>
        <time>2025-04-05T07:31:09Z</time>
      </trkpt>
      <trkpt lat="50.28877" lon="4.79867">
        <ele>146.6</ele>
        <time>2025-04-05T07:31:10Z</time>
      </trkpt>
      <trkpt lat="50.28873" lon="4.79864">
        <ele>146.8</ele>
        <time>2025-04-05T07:31:11Z</time>
      </trkpt>
      <trkpt lat="50.28871" lon="4.79862">
        <ele>147</ele>
        <time>2025-04-05T07:31:12Z</time>
      </trkpt>
      <trkpt lat="50.28869" lon="4.7986">
        <ele>147.2</ele>
        <time>2025-04-05T07:31:13Z</time>
      </trkpt>
      <trkpt lat="50.28867" lon="4.79858">
        <ele>147.4</ele>
        <time>2025-04-05T07:31:14Z</time>
      </trkpt>
      <trkpt lat="50.28864" lon="4.79855">
        <ele>147.6</ele>
        <time>2025-04-05T07:31:15Z</time>
      </trkpt>
      <trkpt lat="50.28861" lon="4.79853">
        <ele>147.8</ele>
        <time>2025-04-05T07:31:16Z</time>
      </trkpt>
      <trkpt lat="50.28859" lon="4.79851">
        <ele>148.2</ele>
        <time>2025-04-05T07:31:17Z</time>
      </trkpt>
      <trkpt lat="50.28856" lon="4.79849">
        <ele>148.4</ele>
        <time>2025-04-05T07:31:18Z</time>
      </trkpt>
      <trkpt lat="50.28854" lon="4.79847">
        <ele>148.6</ele>
        <time>2025-04-05T07:31:19Z</time>
      </trkpt>
      <trkpt lat="50.28852" lon="4.79845">
        <ele>148.8</ele>
        <time>2025-04-05T07:31:20Z</time>
      </trkpt>
      <trkpt lat="50.28849" lon="4.79842">
        <ele>149</ele>
        <time>2025-04-05T07:31:21Z</time>
      </trkpt>
      <trkpt lat="50.28846" lon="4.7984">
        <ele>149.2</ele>
        <time>2025-04-05T07:31:22Z</time>
      </trkpt>
      <trkpt lat="50.28844" lon="4.79837">
        <ele>149.4</ele>
        <time>2025-04-05T07:31:23Z</time>
      </trkpt>
      <trkpt lat="50.28843" lon="4.79835">
        <ele>149.6</ele>
        <time>2025-04-05T07:31:24Z</time>
      </trkpt>
      <trkpt lat="50.28841" lon="4.79832">
        <ele>149.6</ele>
        <time>2025-04-05T07:31:25Z</time>
      </trkpt>
      <trkpt lat="50.28838" lon="4.79829">
        <ele>149.8</ele>
        <time>2025-04-05T07:31:26Z</time>
      </trkpt>
      <trkpt lat="50.28835" lon="4.79826">
        <ele>150</ele>
        <time>2025-04-05T07:31:27Z</time>
      </trkpt>
      <trkpt lat="50.28833" lon="4.79822">
        <ele>150.2</ele>
        <time>2025-04-05T07:31:28Z</time>
      </trkpt>
      <trkpt lat="50.28831" lon="4.7982">
        <ele>150.4</ele>
        <time>2025-04-05T07:31:29Z</time>
      </trkpt>
      <trkpt lat="50.28829" lon="4.79819">
        <ele>150.6</ele>
        <time>2025-04-05T07:31:30Z</time>
      </trkpt>
      <trkpt lat="50.28826" lon="4.79817">
        <ele>150.8</ele>
        <time>2025-04-05T07:31:31Z</time>
      </trkpt>
      <trkpt lat="50.28823" lon="4.79814">
        <ele>151</ele>
        <time>2025-04-05T07:31:32Z</time>
      </trkpt>
      <trkpt lat="50.2882" lon="4.79812">
        <ele>151.2</ele>
        <time>2025-04-05T07:31:33Z</time>
      </trkpt>
      <trkpt lat="50.28818" lon="4.79809">
        <ele>151.4</ele>
        <time>2025-04-05T07:31:34Z</time>
      </trkpt>
      <trkpt lat="50.28816" lon="4.79806">
        <ele>151.6</ele>
        <time>2025-04-05T07:31:35Z</time>
      </trkpt>
      <trkpt lat="50.28813" lon="4.79804">
        <ele>151.8</ele>
        <time>2025-04-05T07:31:36Z</time>
      </trkpt>
      <trkpt lat="50.28811" lon="4.79801">
        <ele>152</ele>
        <time>2025-04-05T07:31:37Z</time>
      </trkpt>
      <trkpt lat="50.28808" lon="4.79797">
        <ele>152.2</ele>
        <time>2025-04-05T07:31:38Z</time>
      </trkpt>
      <trkpt lat="50.28806" lon="4.79794">
        <ele>152.4</ele>
        <time>2025-04-05T07:31:39Z</time>
      </trkpt>
      <trkpt lat="50.28803" lon="4.7979">
        <ele>152.6</ele>
        <time>2025-04-05T07:31:40Z</time>
      </trkpt>
      <trkpt lat="50.28801" lon="4.79787">
        <ele>152.8</ele>
        <time>2025-04-05T07:31:41Z</time>
      </trkpt>
      <trkpt lat="50.28798" lon="4.79783">
        <ele>153</ele>
        <time>2025-04-05T07:31:42Z</time>
      </trkpt>
      <trkpt lat="50.28796" lon="4.7978">
        <ele>153.2</ele>
        <time>2025-04-05T07:31:43Z</time>
      </trkpt>
      <trkpt lat="50.28794" lon="4.79776">
        <ele>153.4</ele>
        <time>2025-04-05T07:31:44Z</time>
      </trkpt>
      <trkpt lat="50.28792" lon="4.79773">
        <ele>153.6</ele>
        <time>2025-04-05T07:31:45Z</time>
      </trkpt>
      <trkpt lat="50.2879" lon="4.79769">
        <ele>153.8</ele>
        <time>2025-04-05T07:31:46Z</time>
      </trkpt>
      <trkpt lat="50.28788" lon="4.79765">
        <ele>154</ele>
        <time>2025-04-05T07:31:47Z</time>
      </trkpt>
      <trkpt lat="50.28786" lon="4.79761">
        <ele>154.2</ele>
        <time>2025-04-05T07:31:48Z</time>
      </trkpt>
      <trkpt lat="50.28784" lon="4.79758">
        <ele>154.4</ele>
        <time>2025-04-05T07:31:49Z</time>
      </trkpt>
      <trkpt lat="50.28782" lon="4.79753">
        <ele>154.6</ele>
        <time>2025-04-05T07:31:50Z</time>
      </trkpt>
      <trkpt lat="50.28779" lon="4.79749">
        <ele>154.8</ele>
        <time>2025-04-05T07:31:51Z</time>
      </trkpt>
      <trkpt lat="50.28777" lon="4.79745">
        <ele>155</ele>
        <time>2025-04-05T07:31:52Z</time>
      </trkpt>
      <trkpt lat="50.28774" lon="4.79742">
        <ele>155.2</ele>
        <time>2025-04-05T07:31:53Z</time>
      </trkpt>
      <trkpt lat="50.28772" lon="4.79738">
        <ele>155.4</ele>
        <time>2025-04-05T07:31:54Z</time>
      </trkpt>
      <trkpt lat="50.2877" lon="4.79734">
        <ele>155.6</ele>
        <time>2025-04-05T07:31:55Z</time>
      </trkpt>
      <trkpt lat="50.28768" lon="4.79731">
        <ele>155.8</ele>
        <time>2025-04-05T07:31:56Z</time>
      </trkpt>
      <trkpt lat="50.28767" lon="4.79727">
        <ele>156</ele>
        <time>2025-04-05T07:31:57Z</time>
      </trkpt>
      <trkpt lat="50.28765" lon="4.79723">
        <ele>156.2</ele>
        <time>2025-04-05T07:31:58Z</time>
      </trkpt>
      <trkpt lat="50.28762" lon="4.79719">
        <ele>156.4</ele>
        <time>2025-04-05T07:31:59Z</time>
      </trkpt>
      <trkpt lat="50.28761" lon="4.79716">
        <ele>156.6</ele>
        <time>2025-04-05T07:32:00Z</time>
      </trkpt>
      <trkpt lat="50.28759" lon="4.79713">
        <ele>156.8</ele>
        <time>2025-04-05T07:32:01Z</time>
      </trkpt>
      <trkpt lat="50.28757" lon="4.7971">
        <ele>157</ele>
        <time>2025-04-05T07:32:02Z</time>
      </trkpt>
      <trkpt lat="50.28755" lon="4.79707">
        <ele>157.2</ele>
        <time>2025-04-05T07:32:03Z</time>
      </trkpt>
      <trkpt lat="50.28753" lon="4.79704">
        <ele>157.4</ele>
        <time>2025-04-05T07:32:04Z</time>
      </trkpt>
      <trkpt lat="50.28752" lon="4.79702">
        <ele>157.6</ele>
        <time>2025-04-05T07:32:05Z</time>
      </trkpt>
      <trkpt lat="50.2875" lon="4.797">
        <ele>157.8</ele>
        <time>2025-04-05T07:32:06Z</time>
      </trkpt>
      <trkpt lat="50.28749" lon="4.79697">
        <ele>158</ele>
        <time>2025-04-05T07:32:07Z</time>
      </trkpt>
      <trkpt lat="50.28747" lon="4.79694">
        <ele>158.2</ele>
        <time>2025-04-05T07:32:08Z</time>
      </trkpt>
      <trkpt lat="50.28746" lon="4.79691">
        <ele>158.4</ele>
        <time>2025-04-05T07:32:09Z</time>
      </trkpt>
      <trkpt lat="50.28744" lon="4.79689">
        <ele>158.6</ele>
        <time>2025-04-05T07:32:10Z</time>
      </trkpt>
      <trkpt lat="50.28742" lon="4.79685">
        <ele>158.6</ele>
        <time>2025-04-05T07:32:11Z</time>
      </trkpt>
      <trkpt lat="50.2874" lon="4.79682">
        <ele>158.8</ele>
        <time>2025-04-05T07:32:12Z</time>
      </trkpt>
      <trkpt lat="50.28738" lon="4.79678">
        <ele>159</ele>
        <time>2025-04-05T07:32:13Z</time>
      </trkpt>
      <trkpt lat="50.28736" lon="4.79673">
        <ele>159.2</ele>
        <time>2025-04-05T07:32:14Z</time>
      </trkpt>
      <trkpt lat="50.28734" lon="4.79669">
        <ele>159.4</ele>
        <time>2025-04-05T07:32:15Z</time>
      </trkpt>
      <trkpt lat="50.28732" lon="4.79665">
        <ele>159.6</ele>
        <time>2025-04-05T07:32:16Z</time>
      </trkpt>
      <trkpt lat="50.28731" lon="4.79661">
        <ele>159.6</ele>
        <time>2025-04-05T07:32:17Z</time>
      </trkpt>
      <trkpt lat="50.28729" lon="4.79657">
        <ele>159.8</ele>
        <time>2025-04-05T07:32:18Z</time>
      </trkpt>
      <trkpt lat="50.28728" lon="4.79652">
        <ele>160</ele>
        <time>2025-04-05T07:32:19Z</time>
      </trkpt>
      <trkpt lat="50.28726" lon="4.79648">
        <ele>160.2</ele>
        <time>2025-04-05T07:32:20Z</time>
      </trkpt>
      <trkpt lat="50.28724" lon="4.79644">
        <ele>160.4</ele>
        <time>2025-04-05T07:32:21Z</time>
      </trkpt>
      <trkpt lat="50.28721" lon="4.79639">
        <ele>160.6</ele>
        <time>2025-04-05T07:32:22Z</time>
      </trkpt>
      <trkpt lat="50.28719" lon="4.79635">
        <ele>161</ele>
        <time>2025-04-05T07:32:23Z</time>
      </trkpt>
      <trkpt lat="50.28717" lon="4.79631">
        <ele>161.2</ele>
        <time>2025-04-05T07:32:24Z</time>
      </trkpt>
      <trkpt lat="50.28715" lon="4.79627">
        <ele>161.4</ele>
        <time>2025-04-05T07:32:25Z</time>
      </trkpt>
      <trkpt lat="50.28713" lon="4.79623">
        <ele>161.6</ele>
        <time>2025-04-05T07:32:26Z</time>
      </trkpt>
      <trkpt lat="50.28711" lon="4.79619">
        <ele>161.8</ele>
        <time>2025-04-05T07:32:27Z</time>
      </trkpt>
      <trkpt lat="50.2871" lon="4.79615">
        <ele>162</ele>
        <time>2025-04-05T07:32:28Z</time>
      </trkpt>
      <trkpt lat="50.28708" lon="4.79611">
        <ele>162</ele>
        <time>2025-04-05T07:32:29Z</time>
      </trkpt>
      <trkpt lat="50.28706" lon="4.79607">
        <ele>162.4</ele>
        <time>2025-04-05T07:32:30Z</time>
      </trkpt>
      <trkpt lat="50.28705" lon="4.79604">
        <ele>162.6</ele>
        <time>2025-04-05T07:32:31Z</time>
      </trkpt>
      <trkpt lat="50.28703" lon="4.79601">
        <ele>162.8</ele>
        <time>2025-04-05T07:32:32Z</time>
      </trkpt>
      <trkpt lat="50.28701" lon="4.79598">
        <ele>163</ele>
        <time>2025-04-05T07:32:33Z</time>
      </trkpt>
      <trkpt lat="50.28699" lon="4.79595">
        <ele>163.2</ele>
        <time>2025-04-05T07:32:34Z</time>
      </trkpt>
      <trkpt lat="50.28697" lon="4.79591">
        <ele>163.4</ele>
        <time>2025-04-05T07:32:35Z</time>
      </trkpt>
      <trkpt lat="50.28695" lon="4.79588">
        <ele>163.6</ele>
        <time>2025-04-05T07:32:36Z</time>
      </trkpt>
      <trkpt lat="50.28693" lon="4.79584">
        <ele>163.8</ele>
        <time>2025-04-05T07:32:37Z</time>
      </trkpt>
      <trkpt lat="50.28692" lon="4.79581">
        <ele>164</ele>
        <time>2025-04-05T07:32:38Z</time>
      </trkpt>
      <trkpt lat="50.2869" lon="4.79577">
        <ele>164.2</ele>
        <time>2025-04-05T07:32:39Z</time>
      </trkpt>
      <trkpt lat="50.28688" lon="4.79574">
        <ele>164.6</ele>
        <time>2025-04-05T07:32:40Z</time>
      </trkpt>
      <trkpt lat="50.28686" lon="4.7957">
        <ele>164.8</ele>
        <time>2025-04-05T07:32:41Z</time>
      </trkpt>
      <trkpt lat="50.28684" lon="4.79567">
        <ele>165</ele>
        <time>2025-04-05T07:32:42Z</time>
      </trkpt>
      <trkpt lat="50.28682" lon="4.79564">
        <ele>165.2</ele>
        <time>2025-04-05T07:32:43Z</time>
      </trkpt>
      <trkpt lat="50.28681" lon="4.7956">
        <ele>165.4</ele>
        <time>2025-04-05T07:32:44Z</time>
      </trkpt>
      <trkpt lat="50.28679" lon="4.79557">
        <ele>165.6</ele>
        <time>2025-04-05T07:32:45Z</time>
      </trkpt>
      <trkpt lat="50.28677" lon="4.79553">
        <ele>165.8</ele>
        <time>2025-04-05T07:32:46Z</time>
      </trkpt>
      <trkpt lat="50.28676" lon="4.7955">
        <ele>166</ele>
        <time>2025-04-05T07:32:47Z</time>
      </trkpt>
      <trkpt lat="50.28674" lon="4.79547">
        <ele>166.2</ele>
        <time>2025-04-05T07:32:48Z</time>
      </trkpt>
      <trkpt lat="50.28672" lon="4.79544">
        <ele>166.4</ele>
        <time>2025-04-05T07:32:49Z</time>
      </trkpt>
      <trkpt lat="50.2867" lon="4.79541">
        <ele>166.6</ele>
        <time>2025-04-05T07:32:50Z</time>
      </trkpt>
      <trkpt lat="50.28669" lon="4.79537">
        <ele>166.8</ele>
        <time>2025-04-05T07:32:51Z</time>
      </trkpt>
      <trkpt lat="50.28667" lon="4.79533">
        <ele>167</ele>
        <time>2025-04-05T07:32:52Z</time>
      </trkpt>
      <trkpt lat="50.28666" lon="4.79529">
        <ele>167.2</ele>
        <time>2025-04-05T07:32:53Z</time>
      </trkpt>
      <trkpt lat="50.28664" lon="4.79526">
        <ele>167.4</ele>
        <time>2025-04-05T07:32:54Z</time>
      </trkpt>
      <trkpt lat="50.28663" lon="4.79522">
        <ele>167.6</ele>
        <time>2025-04-05T07:32:55Z</time>
      </trkpt>
      <trkpt lat="50.28662" lon="4.79518">
        <ele>167.8</ele>
        <time>2025-04-05T07:32:56Z</time>
      </trkpt>
      <trkpt lat="50.28661" lon="4.79514">
        <ele>168</ele>
        <time>2025-04-05T07:32:57Z</time>
      </trkpt>
      <trkpt lat="50.28661" lon="4.79509">
        <ele>168.2</ele>
        <time>2025-04-05T07:32:58Z</time>
      </trkpt>
      <trkpt lat="50.2866" lon="4.79506">
        <ele>168.4</ele>
        <time>2025-04-05T07:32:59Z</time>
      </trkpt>
      <trkpt lat="50.2866" lon="4.79502">
        <ele>168.6</ele>
        <time>2025-04-05T07:33:00Z</time>
      </trkpt>
      <trkpt lat="50.28659" lon="4.79497">
        <ele>168.8</ele>
        <time>2025-04-05T07:33:01Z</time>
      </trkpt>
      <trkpt lat="50.2866" lon="4.79493">
        <ele>169</ele>
        <time>2025-04-05T07:33:02Z</time>
      </trkpt>
      <trkpt lat="50.2866" lon="4.79489">
        <ele>169.2</ele>
        <time>2025-04-05T07:33:03Z</time>
      </trkpt>
      <trkpt lat="50.2866" lon="4.79485">
        <ele>169.4</ele>
        <time>2025-04-05T07:33:04Z</time>
      </trkpt>
      <trkpt lat="50.2866" lon="4.7948">
        <ele>169.6</ele>
        <time>2025-04-05T07:33:05Z</time>
      </trkpt>
      <trkpt lat="50.2866" lon="4.79474">
        <ele>169.8</ele>
        <time>2025-04-05T07:33:06Z</time>
      </trkpt>
      <trkpt lat="50.2866" lon="4.7947">
        <ele>170</ele>
        <time>2025-04-05T07:33:07Z</time>
      </trkpt>
      <trkpt lat="50.28659" lon="4.79465">
        <ele>170.2</ele>
        <time>2025-04-05T07:33:08Z</time>
      </trkpt>
      <trkpt lat="50.2866" lon="4.7946">
        <ele>170.4</ele>
        <time>2025-04-05T07:33:09Z</time>
      </trkpt>
      <trkpt lat="50.2866" lon="4.79455">
        <ele>170.6</ele>
        <time>2025-04-05T07:33:10Z</time>
      </trkpt>
      <trkpt lat="50.2866" lon="4.79451">
        <ele>170.8</ele>
        <time>2025-04-05T07:33:11Z</time>
      </trkpt>
      <trkpt lat="50.28659" lon="4.79446">
        <ele>170.8</ele>
        <time>2025-04-05T07:33:12Z</time>
      </trkpt>
      <trkpt lat="50.28659" lon="4.79441">
        <ele>171</ele>
        <time>2025-04-05T07:33:13Z</time>
      </trkpt>
      <trkpt lat="50.28659" lon="4.79436">
        <ele>171.2</ele>
        <time>2025-04-05T07:33:14Z</time>
      </trkpt>
      <trkpt lat="50.28659" lon="4.79432">
        <ele>171.4</ele>
        <time>2025-04-05T07:33:15Z</time>
      </trkpt>
      <trkpt lat="50.28659" lon="4.79427">
        <ele>171.6</ele>
        <time>2025-04-05T07:33:16Z</time>
      </trkpt>
      <trkpt lat="50.28658" lon="4.79423">
        <ele>171.8</ele>
        <time>2025-04-05T07:33:17Z</time>
      </trkpt>
      <trkpt lat="50.28658" lon="4.79418">
        <ele>172</ele>
        <time>2025-04-05T07:33:18Z</time>
      </trkpt>
      <trkpt lat="50.28658" lon="4.79413">
        <ele>172</ele>
        <time>2025-04-05T07:33:19Z</time>
      </trkpt>
      <trkpt lat="50.28658" lon="4.79408">
        <ele>172.2</ele>
        <time>2025-04-05T07:33:20Z</time>
      </trkpt>
      <trkpt lat="50.28658" lon="4.79404">
        <ele>172.4</ele>
        <time>2025-04-05T07:33:21Z</time>
      </trkpt>
      <trkpt lat="50.28658" lon="4.79399">
        <ele>172.6</ele>
        <time>2025-04-05T07:33:22Z</time>
      </trkpt>
      <trkpt lat="50.28658" lon="4.79394">
        <ele>172.8</ele>
        <time>2025-04-05T07:33:23Z</time>
      </trkpt>
      <trkpt lat="50.28657" lon="4.7939">
        <ele>173</ele>
        <time>2025-04-05T07:33:24Z</time>
      </trkpt>
      <trkpt lat="50.28657" lon="4.79386">
        <ele>173.2</ele>
        <time>2025-04-05T07:33:25Z</time>
      </trkpt>
      <trkpt lat="50.28657" lon="4.79382">
        <ele>173.4</ele>
        <time>2025-04-05T07:33:26Z</time>
      </trkpt>
      <trkpt lat="50.28657" lon="4.79377">
        <ele>173.6</ele>
        <time>2025-04-05T07:33:27Z</time>
      </trkpt>
      <trkpt lat="50.28657" lon="4.79373">
        <ele>173.8</ele>
        <time>2025-04-05T07:33:28Z</time>
      </trkpt>
      <trkpt lat="50.28656" lon="4.79369">
        <ele>174</ele>
        <time>2025-04-05T07:33:29Z</time>
      </trkpt>
      <trkpt lat="50.28656" lon="4.79366">
        <ele>174.2</ele>
        <time>2025-04-05T07:33:30Z</time>
      </trkpt>
      <trkpt lat="50.28656" lon="4.79363">
        <ele>174.4</ele>
        <time>2025-04-05T07:33:31Z</time>
      </trkpt>
      <trkpt lat="50.28654" lon="4.79359">
        <ele>174.6</ele>
        <time>2025-04-05T07:33:32Z</time>
      </trkpt>
      <trkpt lat="50.28653" lon="4.79356">
        <ele>174.8</ele>
        <time>2025-04-05T07:33:33Z</time>
      </trkpt>
      <trkpt lat="50.28651" lon="4.79353">
        <ele>175</ele>
        <time>2025-04-05T07:33:34Z</time>
      </trkpt>
      <trkpt lat="50.28649" lon="4.7935">
        <ele>175.2</ele>
        <time>2025-04-05T07:33:35Z</time>
      </trkpt>
      <trkpt lat="50.28647" lon="4.79347">
        <ele>175.4</ele>
        <time>2025-04-05T07:33:36Z</time>
      </trkpt>
      <trkpt lat="50.28645" lon="4.79344">
        <ele>175.6</ele>
        <time>2025-04-05T07:33:37Z</time>
      </trkpt>
      <trkpt lat="50.28642" lon="4.79342">
        <ele>175.8</ele>
        <time>2025-04-05T07:33:38Z</time>
      </trkpt>
      <trkpt lat="50.2864" lon="4.7934">
        <ele>176</ele>
        <time>2025-04-05T07:33:39Z</time>
      </trkpt>
      <trkpt lat="50.28637" lon="4.79338">
        <ele>176.2</ele>
        <time>2025-04-05T07:33:40Z</time>
      </trkpt>
      <trkpt lat="50.28635" lon="4.79335">
        <ele>176.4</ele>
        <time>2025-04-05T07:33:41Z</time>
      </trkpt>
      <trkpt lat="50.28632" lon="4.79333">
        <ele>176.6</ele>
        <time>2025-04-05T07:33:42Z</time>
      </trkpt>
      <trkpt lat="50.2863" lon="4.79331">
        <ele>176.6</ele>
        <time>2025-04-05T07:33:43Z</time>
      </trkpt>
      <trkpt lat="50.28629" lon="4.7933">
        <ele>176.8</ele>
        <time>2025-04-05T07:33:44Z</time>
      </trkpt>
      <trkpt lat="50.28627" lon="4.79328">
        <ele>177</ele>
        <time>2025-04-05T07:33:45Z</time>
      </trkpt>
      <trkpt lat="50.28625" lon="4.79326">
        <ele>177.2</ele>
        <time>2025-04-05T07:33:46Z</time>
      </trkpt>
      <trkpt lat="50.28624" lon="4.79324">
        <ele>177.2</ele>
        <time>2025-04-05T07:33:47Z</time>
      </trkpt>
      <trkpt lat="50.28621" lon="4.79321">
        <ele>177.4</ele>
        <time>2025-04-05T07:33:48Z</time>
      </trkpt>
      <trkpt lat="50.28619" lon="4.79316">
        <ele>177.6</ele>
        <time>2025-04-05T07:33:49Z</time>
      </trkpt>
      <trkpt lat="50.28616" lon="4.79313">
        <ele>177.6</ele>
        <time>2025-04-05T07:33:50Z</time>
      </trkpt>
      <trkpt lat="50.28613" lon="4.7931">
        <ele>177.8</ele>
        <time>2025-04-05T07:33:51Z</time>
      </trkpt>
      <trkpt lat="50.2861" lon="4.79307">
        <ele>178</ele>
        <time>2025-04-05T07:33:52Z</time>
      </trkpt>
      <trkpt lat="50.28607" lon="4.79304">
        <ele>178.2</ele>
        <time>2025-04-05T07:33:53Z</time>
      </trkpt>
      <trkpt lat="50.28604" lon="4.79301">
        <ele>178.2</ele>
        <time>2025-04-05T07:33:54Z</time>
      </trkpt>
      <trkpt lat="50.28601" lon="4.79298">
        <ele>178.4</ele>
        <time>2025-04-05T07:33:55Z</time>
      </trkpt>
      <trkpt lat="50.28599" lon="4.79296">
        <ele>178.6</ele>
        <time>2025-04-05T07:33:56Z</time>
      </trkpt>
      <trkpt lat="50.28595" lon="4.79292">
        <ele>178.8</ele>
        <time>2025-04-05T07:33:57Z</time>
      </trkpt>
      <trkpt lat="50.28591" lon="4.79285">
        <ele>179</ele>
        <time>2025-04-05T07:33:58Z</time>
      </trkpt>
      <trkpt lat="50.28587" lon="4.79281">
        <ele>179.2</ele>
        <time>2025-04-05T07:33:59Z</time>
      </trkpt>
      <trkpt lat="50.28584" lon="4.79278">
        <ele>179.4</ele>
        <time>2025-04-05T07:34:00Z</time>
      </trkpt>
      <trkpt lat="50.28581" lon="4.79275">
        <ele>179.6</ele>
        <time>2025-04-05T07:34:01Z</time>
      </trkpt>
      <trkpt lat="50.28577" lon="4.79272">
        <ele>179.8</ele>
        <time>2025-04-05T07:34:02Z</time>
      </trkpt>
      <trkpt lat="50.28575" lon="4.79269">
        <ele>180</ele>
        <time>2025-04-05T07:34:03Z</time>
      </trkpt>
      <trkpt lat="50.28571" lon="4.79266">
        <ele>180</ele>
        <time>2025-04-05T07:34:04Z</time>
      </trkpt>
      <trkpt lat="50.28568" lon="4.79264">
        <ele>180.2</ele>
        <time>2025-04-05T07:34:05Z</time>
      </trkpt>
      <trkpt lat="50.28566" lon="4.79262">
        <ele>180.4</ele>
        <time>2025-04-05T07:34:06Z</time>
      </trkpt>
      <trkpt lat="50.28564" lon="4.7926">
        <ele>180.6</ele>
        <time>2025-04-05T07:34:07Z</time>
      </trkpt>
      <trkpt lat="50.28562" lon="4.79258">
        <ele>180.8</ele>
        <time>2025-04-05T07:34:08Z</time>
      </trkpt>
      <trkpt lat="50.2856" lon="4.79255">
        <ele>181</ele>
        <time>2025-04-05T07:34:09Z</time>
      </trkpt>
      <trkpt lat="50.28556" lon="4.79253">
        <ele>181.2</ele>
        <time>2025-04-05T07:34:10Z</time>
      </trkpt>
      <trkpt lat="50.28553" lon="4.79251">
        <ele>181.4</ele>
        <time>2025-04-05T07:34:11Z</time>
      </trkpt>
      <trkpt lat="50.2855" lon="4.79248">
        <ele>181.4</ele>
        <time>2025-04-05T07:34:12Z</time>
      </trkpt>
      <trkpt lat="50.28547" lon="4.79245">
        <ele>181.6</ele>
        <time>2025-04-05T07:34:13Z</time>
      </trkpt>
      <trkpt lat="50.28545" lon="4.79243">
        <ele>181.8</ele>
        <time>2025-04-05T07:34:14Z</time>
      </trkpt>
      <trkpt lat="50.28542" lon="4.7924">
        <ele>182</ele>
        <time>2025-04-05T07:34:15Z</time>
      </trkpt>
      <trkpt lat="50.28539" lon="4.79238">
        <ele>182.2</ele>
        <time>2025-04-05T07:34:16Z</time>
      </trkpt>
      <trkpt lat="50.28537" lon="4.79235">
        <ele>182.4</ele>
        <time>2025-04-05T07:34:17Z</time>
      </trkpt>
      <trkpt lat="50.28534" lon="4.79233">
        <ele>182.6</ele>
        <time>2025-04-05T07:34:18Z</time>
      </trkpt>
      <trkpt lat="50.28531" lon="4.79231">
        <ele>182.8</ele>
        <time>2025-04-05T07:34:19Z</time>
      </trkpt>
      <trkpt lat="50.28528" lon="4.79229">
        <ele>183</ele>
        <time>2025-04-05T07:34:20Z</time>
      </trkpt>
      <trkpt lat="50.28525" lon="4.79226">
        <ele>183.2</ele>
        <time>2025-04-05T07:34:21Z</time>
      </trkpt>
      <trkpt lat="50.28522" lon="4.79223">
        <ele>183.4</ele>
        <time>2025-04-05T07:34:22Z</time>
      </trkpt>
      <trkpt lat="50.28519" lon="4.7922">
        <ele>183.6</ele>
        <time>2025-04-05T07:34:23Z</time>
      </trkpt>
      <trkpt lat="50.28515" lon="4.79217">
        <ele>183.8</ele>
        <time>2025-04-05T07:34:24Z</time>
      </trkpt>
      <trkpt lat="50.28512" lon="4.79215">
        <ele>184</ele>
        <time>2025-04-05T07:34:25Z</time>
      </trkpt>
      <trkpt lat="50.28509" lon="4.79213">
        <ele>184.2</ele>
        <time>2025-04-05T07:34:26Z</time>
      </trkpt>
      <trkpt lat="50.28507" lon="4.79211">
        <ele>184.4</ele>
        <time>2025-04-05T07:34:27Z</time>
      </trkpt>
      <trkpt lat="50.28503" lon="4.79208">
        <ele>184.8</ele>
        <time>2025-04-05T07:34:28Z</time>
      </trkpt>
      <trkpt lat="50.285" lon="4.79205">
        <ele>185</ele>
        <time>2025-04-05T07:34:29Z</time>
      </trkpt>
      <trkpt lat="50.28497" lon="4.79204">
        <ele>185.2</ele>
        <time>2025-04-05T07:34:30Z</time>
      </trkpt>
      <trkpt lat="50.28494" lon="4.79202">
        <ele>185.4</ele>
        <time>2025-04-05T07:34:31Z</time>
      </trkpt>
      <trkpt lat="50.28491" lon="4.79199">
        <ele>185.6</ele>
        <time>2025-04-05T07:34:32Z</time>
      </trkpt>
      <trkpt lat="50.28489" lon="4.79198">
        <ele>185.8</ele>
        <time>2025-04-05T07:34:33Z</time>
      </trkpt>
      <trkpt lat="50.28486" lon="4.79196">
        <ele>186</ele>
        <time>2025-04-05T07:34:34Z</time>
      </trkpt>
      <trkpt lat="50.28484" lon="4.79193">
        <ele>186.2</ele>
        <time>2025-04-05T07:34:35Z</time>
      </trkpt>
      <trkpt lat="50.28481" lon="4.79191">
        <ele>186.4</ele>
        <time>2025-04-05T07:34:36Z</time>
      </trkpt>
      <trkpt lat="50.28478" lon="4.79189">
        <ele>186.6</ele>
        <time>2025-04-05T07:34:37Z</time>
      </trkpt>
      <trkpt lat="50.28475" lon="4.79187">
        <ele>186.8</ele>
        <time>2025-04-05T07:34:38Z</time>
      </trkpt>
      <trkpt lat="50.28472" lon="4.79184">
        <ele>187</ele>
        <time>2025-04-05T07:34:39Z</time>
      </trkpt>
      <trkpt lat="50.28469" lon="4.79182">
        <ele>187.2</ele>
        <time>2025-04-05T07:34:40Z</time>
      </trkpt>
      <trkpt lat="50.28466" lon="4.7918">
        <ele>187.4</ele>
        <time>2025-04-05T07:34:41Z</time>
      </trkpt>
      <trkpt lat="50.28463" lon="4.79177">
        <ele>187.4</ele>
        <time>2025-04-05T07:34:42Z</time>
      </trkpt>
      <trkpt lat="50.2846" lon="4.79175">
        <ele>187.6</ele>
        <time>2025-04-05T07:34:43Z</time>
      </trkpt>
      <trkpt lat="50.28457" lon="4.79172">
        <ele>187.8</ele>
        <time>2025-04-05T07:34:44Z</time>
      </trkpt>
      <trkpt lat="50.28453" lon="4.79169">
        <ele>188</ele>
        <time>2025-04-05T07:34:45Z</time>
      </trkpt>
      <trkpt lat="50.2845" lon="4.79167">
        <ele>188.2</ele>
        <time>2025-04-05T07:34:46Z</time>
      </trkpt>
      <trkpt lat="50.28447" lon="4.79165">
        <ele>188.4</ele>
        <time>2025-04-05T07:34:47Z</time>
      </trkpt>
      <trkpt lat="50.28444" lon="4.79162">
        <ele>188.6</ele>
        <time>2025-04-05T07:34:48Z</time>
      </trkpt>
      <trkpt lat="50.28442" lon="4.7916">
        <ele>188.8</ele>
        <time>2025-04-05T07:34:49Z</time>
      </trkpt>
      <trkpt lat="50.28439" lon="4.79157">
        <ele>189</ele>
        <time>2025-04-05T07:34:50Z</time>
      </trkpt>
      <trkpt lat="50.28436" lon="4.79154">
        <ele>189.2</ele>
        <time>2025-04-05T07:34:51Z</time>
      </trkpt>
      <trkpt lat="50.28433" lon="4.79152">
        <ele>189.4</ele>
        <time>2025-04-05T07:34:52Z</time>
      </trkpt>
      <trkpt lat="50.2843" lon="4.79149">
        <ele>189.6</ele>
        <time>2025-04-05T07:34:53Z</time>
      </trkpt>
      <trkpt lat="50.28427" lon="4.79147">
        <ele>189.8</ele>
        <time>2025-04-05T07:34:54Z</time>
      </trkpt>
      <trkpt lat="50.28424" lon="4.79145">
        <ele>190</ele>
        <time>2025-04-05T07:34:55Z</time>
      </trkpt>
      <trkpt lat="50.28422" lon="4.79143">
        <ele>190.2</ele>
        <time>2025-04-05T07:34:56Z</time>
      </trkpt>
      <trkpt lat="50.28419" lon="4.79141">
        <ele>190.4</ele>
        <time>2025-04-05T07:34:57Z</time>
      </trkpt>
      <trkpt lat="50.28416" lon="4.79139">
        <ele>190.6</ele>
        <time>2025-04-05T07:34:58Z</time>
      </trkpt>
      <trkpt lat="50.28414" lon="4.79138">
        <ele>191</ele>
        <time>2025-04-05T07:34:59Z</time>
      </trkpt>
      <trkpt lat="50.2841" lon="4.79136">
        <ele>191.2</ele>
        <time>2025-04-05T07:35:00Z</time>
      </trkpt>
      <trkpt lat="50.28407" lon="4.79135">
        <ele>191.4</ele>
        <time>2025-04-05T07:35:01Z</time>
      </trkpt>
      <trkpt lat="50.28404" lon="4.79134">
        <ele>191.6</ele>
        <time>2025-04-05T07:35:02Z</time>
      </trkpt>
      <trkpt lat="50.28401" lon="4.79132">
        <ele>191.8</ele>
        <time>2025-04-05T07:35:03Z</time>
      </trkpt>
      <trkpt lat="50.28398" lon="4.79131">
        <ele>192</ele>
        <time>2025-04-05T07:35:04Z</time>
      </trkpt>
      <trkpt lat="50.28396" lon="4.7913">
        <ele>192.2</ele>
        <time>2025-04-05T07:35:05Z</time>
      </trkpt>
      <trkpt lat="50.28392" lon="4.7913">
        <ele>192.4</ele>
        <time>2025-04-05T07:35:06Z</time>
      </trkpt>
      <trkpt lat="50.28389" lon="4.7913">
        <ele>192.6</ele>
        <time>2025-04-05T07:35:07Z</time>
      </trkpt>
      <trkpt lat="50.28386" lon="4.7913">
        <ele>192.8</ele>
        <time>2025-04-05T07:35:08Z</time>
      </trkpt>
      <trkpt lat="50.28384" lon="4.79131">
        <ele>193</ele>
        <time>2025-04-05T07:35:09Z</time>
      </trkpt>
      <trkpt lat="50.28381" lon="4.79131">
        <ele>193.2</ele>
        <time>2025-04-05T07:35:10Z</time>
      </trkpt>
      <trkpt lat="50.28377" lon="4.79132">
        <ele>193.2</ele>
        <time>2025-04-05T07:35:11Z</time>
      </trkpt>
      <trkpt lat="50.28374" lon="4.79133">
        <ele>193.4</ele>
        <time>2025-04-05T07:35:12Z</time>
      </trkpt>
      <trkpt lat="50.28372" lon="4.79133">
        <ele>193.6</ele>
        <time>2025-04-05T07:35:13Z</time>
      </trkpt>
      <trkpt lat="50.28369" lon="4.79134">
        <ele>193.8</ele>
        <time>2025-04-05T07:35:14Z</time>
      </trkpt>
      <trkpt lat="50.28366" lon="4.79135">
        <ele>194</ele>
        <time>2025-04-05T07:35:15Z</time>
      </trkpt>
      <trkpt lat="50.28362" lon="4.79135">
        <ele>194.2</ele>
        <time>2025-04-05T07:35:16Z</time>
      </trkpt>
      <trkpt lat="50.2836" lon="4.79136">
        <ele>194.4</ele>
        <time>2025-04-05T07:35:17Z</time>
      </trkpt>
      <trkpt lat="50.28357" lon="4.79136">
        <ele>194.6</ele>
        <time>2025-04-05T07:35:18Z</time>
      </trkpt>
      <trkpt lat="50.28354" lon="4.79137">
        <ele>194.8</ele>
        <time>2025-04-05T07:35:19Z</time>
      </trkpt>
      <trkpt lat="50.28351" lon="4.79137">
        <ele>195</ele>
        <time>2025-04-05T07:35:20Z</time>
      </trkpt>
      <trkpt lat="50.28348" lon="4.79138">
        <ele>195.2</ele>
        <time>2025-04-05T07:35:21Z</time>
      </trkpt>
      <trkpt lat="50.28345" lon="4.79139">
        <ele>195.4</ele>
        <time>2025-04-05T07:35:22Z</time>
      </trkpt>
      <trkpt lat="50.28342" lon="4.79139">
        <ele>195.6</ele>
        <time>2025-04-05T07:35:23Z</time>
      </trkpt>
      <trkpt lat="50.2834" lon="4.7914">
        <ele>196</ele>
        <time>2025-04-05T07:35:24Z</time>
      </trkpt>
      <trkpt lat="50.28337" lon="4.79141">
        <ele>196.2</ele>
        <time>2025-04-05T07:35:25Z</time>
      </trkpt>
      <trkpt lat="50.28334" lon="4.79141">
        <ele>196.2</ele>
        <time>2025-04-05T07:35:26Z</time>
      </trkpt>
      <trkpt lat="50.28331" lon="4.79142">
        <ele>196.4</ele>
        <time>2025-04-05T07:35:27Z</time>
      </trkpt>
      <trkpt lat="50.28328" lon="4.79143">
        <ele>196.4</ele>
        <time>2025-04-05T07:35:28Z</time>
      </trkpt>
      <trkpt lat="50.28325" lon="4.79144">
        <ele>196.6</ele>
        <time>2025-04-05T07:35:29Z</time>
      </trkpt>
      <trkpt lat="50.28322" lon="4.79144">
        <ele>196.8</ele>
        <time>2025-04-05T07:35:30Z</time>
      </trkpt>
      <trkpt lat="50.28319" lon="4.79145">
        <ele>197</ele>
        <time>2025-04-05T07:35:31Z</time>
      </trkpt>
      <trkpt lat="50.28316" lon="4.79146">
        <ele>197.2</ele>
        <time>2025-04-05T07:35:32Z</time>
      </trkpt>
      <trkpt lat="50.28313" lon="4.79146">
        <ele>197.4</ele>
        <time>2025-04-05T07:35:33Z</time>
      </trkpt>
      <trkpt lat="50.2831" lon="4.79147">
        <ele>197.6</ele>
        <time>2025-04-05T07:35:34Z</time>
      </trkpt>
      <trkpt lat="50.28307" lon="4.79147">
        <ele>197.8</ele>
        <time>2025-04-05T07:35:35Z</time>
      </trkpt>
      <trkpt lat="50.28304" lon="4.79148">
        <ele>198</ele>
        <time>2025-04-05T07:35:36Z</time>
      </trkpt>
      <trkpt lat="50.28302" lon="4.79149">
        <ele>198.2</ele>
        <time>2025-04-05T07:35:37Z</time>
      </trkpt>
      <trkpt lat="50.28299" lon="4.7915">
        <ele>198.4</ele>
        <time>2025-04-05T07:35:38Z</time>
      </trkpt>
      <trkpt lat="50.28296" lon="4.7915">
        <ele>198.6</ele>
        <time>2025-04-05T07:35:39Z</time>
      </trkpt>
      <trkpt lat="50.28293" lon="4.79151">
        <ele>198.8</ele>
        <time>2025-04-05T07:35:40Z</time>
      </trkpt>
      <trkpt lat="50.28291" lon="4.79152">
        <ele>199</ele>
        <time>2025-04-05T07:35:41Z</time>
      </trkpt>
      <trkpt lat="50.28288" lon="4.79152">
        <ele>199.2</ele>
        <time>2025-04-05T07:35:42Z</time>
      </trkpt>
      <trkpt lat="50.28285" lon="4.79153">
        <ele>199.2</ele>
        <time>2025-04-05T07:35:43Z</time>
      </trkpt>
      <trkpt lat="50.28282" lon="4.79154">
        <ele>199.4</ele>
        <time>2025-04-05T07:35:44Z</time>
      </trkpt>
      <trkpt lat="50.2828" lon="4.79154">
        <ele>199.6</ele>
        <time>2025-04-05T07:35:45Z</time>
      </trkpt>
      <trkpt lat="50.28276" lon="4.79155">
        <ele>199.8</ele>
        <time>2025-04-05T07:35:46Z</time>
      </trkpt>
      <trkpt lat="50.28274" lon="4.79155">
        <ele>200</ele>
        <time>2025-04-05T07:35:47Z</time>
      </trkpt>
      <trkpt lat="50.28271" lon="4.79156">
        <ele>200.2</ele>
        <time>2025-04-05T07:35:48Z</time>
      </trkpt>
      <trkpt lat="50.28268" lon="4.79157">
        <ele>200.4</ele>
        <time>2025-04-05T07:35:49Z</time>
      </trkpt>
      <trkpt lat="50.28266" lon="4.79157">
        <ele>200.4</ele>
        <time>2025-04-05T07:35:50Z</time>
      </trkpt>
      <trkpt lat="50.28263" lon="4.79158">
        <ele>200.6</ele>
        <time>2025-04-05T07:35:51Z</time>
      </trkpt>
      <trkpt lat="50.2826" lon="4.79159">
        <ele>200.8</ele>
        <time>2025-04-05T07:35:52Z</time>
      </trkpt>
      <trkpt lat="50.28257" lon="4.7916">
        <ele>200.8</ele>
        <time>2025-04-05T07:35:53Z</time>
      </trkpt>
      <trkpt lat="50.28254" lon="4.79161">
        <ele>201</ele>
        <time>2025-04-05T07:35:54Z</time>
      </trkpt>
      <trkpt lat="50.28251" lon="4.79162">
        <ele>201</ele>
        <time>2025-04-05T07:35:55Z</time>
      </trkpt>
      <trkpt lat="50.28248" lon="4.79163">
        <ele>201.2</ele>
        <time>2025-04-05T07:35:56Z</time>
      </trkpt>
      <trkpt lat="50.28245" lon="4.79163">
        <ele>201.2</ele>
        <time>2025-04-05T07:35:57Z</time>
      </trkpt>
      <trkpt lat="50.28243" lon="4.79164">
        <ele>201.4</ele>
        <time>2025-04-05T07:35:58Z</time>
      </trkpt>
      <trkpt lat="50.28239" lon="4.79165">
        <ele>201.4</ele>
        <time>2025-04-05T07:35:59Z</time>
      </trkpt>
      <trkpt lat="50.28237" lon="4.79165">
        <ele>201.4</ele>
        <time>2025-04-05T07:36:00Z</time>
      </trkpt>
      <trkpt lat="50.28233" lon="4.79166">
        <ele>201.2</ele>
        <time>2025-04-05T07:36:01Z</time>
      </trkpt>
      <trkpt lat="50.2823" lon="4.79166">
        <ele>201.2</ele>
        <time>2025-04-05T07:36:02Z</time>
      </trkpt>
      <trkpt lat="50.28227" lon="4.79167">
        <ele>201.2</ele>
        <time>2025-04-05T07:36:03Z</time>
      </trkpt>
      <trkpt lat="50.28223" lon="4.79168">
        <ele>201</ele>
        <time>2025-04-05T07:36:04Z</time>
      </trkpt>
      <trkpt lat="50.28221" lon="4.79169">
        <ele>201</ele>
        <time>2025-04-05T07:36:05Z</time>
      </trkpt>
      <trkpt lat="50.28217" lon="4.7917">
        <ele>201</ele>
        <time>2025-04-05T07:36:06Z</time>
      </trkpt>
      <trkpt lat="50.28214" lon="4.79171">
        <ele>200.8</ele>
        <time>2025-04-05T07:36:07Z</time>
      </trkpt>
      <trkpt lat="50.28211" lon="4.79172">
        <ele>200.8</ele>
        <time>2025-04-05T07:36:08Z</time>
      </trkpt>
      <trkpt lat="50.28207" lon="4.79173">
        <ele>200.6</ele>
        <time>2025-04-05T07:36:09Z</time>
      </trkpt>
      <trkpt lat="50.28203" lon="4.79174">
        <ele>200.4</ele>
        <time>2025-04-05T07:36:10Z</time>
      </trkpt>
      <trkpt lat="50.28199" lon="4.79175">
        <ele>200.4</ele>
        <time>2025-04-05T07:36:11Z</time>
      </trkpt>
      <trkpt lat="50.28196" lon="4.79176">
        <ele>200.2</ele>
        <time>2025-04-05T07:36:12Z</time>
      </trkpt>
      <trkpt lat="50.28193" lon="4.79177">
        <ele>200.2</ele>
        <time>2025-04-05T07:36:13Z</time>
      </trkpt>
      <trkpt lat="50.28188" lon="4.79178">
        <ele>200</ele>
        <time>2025-04-05T07:36:14Z</time>
      </trkpt>
      <trkpt lat="50.28183" lon="4.7918">
        <ele>199.8</ele>
        <time>2025-04-05T07:36:15Z</time>
      </trkpt>
      <trkpt lat="50.28179" lon="4.79182">
        <ele>199.6</ele>
        <time>2025-04-05T07:36:16Z</time>
      </trkpt>
      <trkpt lat="50.28175" lon="4.79183">
        <ele>199.4</ele>
        <time>2025-04-05T07:36:17Z</time>
      </trkpt>
      <trkpt lat="50.28171" lon="4.79184">
        <ele>199.4</ele>
        <time>2025-04-05T07:36:18Z</time>
      </trkpt>
      <trkpt lat="50.28167" lon="4.79186">
        <ele>199.2</ele>
        <time>2025-04-05T07:36:19Z</time>
      </trkpt>
      <trkpt lat="50.28163" lon="4.79188">
        <ele>199</ele>
        <time>2025-04-05T07:36:20Z</time>
      </trkpt>
      <trkpt lat="50.28159" lon="4.7919">
        <ele>198.6</ele>
        <time>2025-04-05T07:36:21Z</time>
      </trkpt>
      <trkpt lat="50.28155" lon="4.79193">
        <ele>198.4</ele>
        <time>2025-04-05T07:36:22Z</time>
      </trkpt>
      <trkpt lat="50.2815" lon="4.79196">
        <ele>198.2</ele>
        <time>2025-04-05T07:36:23Z</time>
      </trkpt>
      <trkpt lat="50.28146" lon="4.79199">
        <ele>197.8</ele>
        <time>2025-04-05T07:36:24Z</time>
      </trkpt>
      <trkpt lat="50.28141" lon="4.79203">
        <ele>197.4</ele>
        <time>2025-04-05T07:36:25Z</time>
      </trkpt>
      <trkpt lat="50.28137" lon="4.79206">
        <ele>197.2</ele>
        <time>2025-04-05T07:36:26Z</time>
      </trkpt>
      <trkpt lat="50.28131" lon="4.7921">
        <ele>196.8</ele>
        <time>2025-04-05T07:36:27Z</time>
      </trkpt>
      <trkpt lat="50.28127" lon="4.79213">
        <ele>196.4</ele>
        <time>2025-04-05T07:36:28Z</time>
      </trkpt>
      <trkpt lat="50.28122" lon="4.79217">
        <ele>196.2</ele>
        <time>2025-04-05T07:36:29Z</time>
      </trkpt>
      <trkpt lat="50.28118" lon="4.7922">
        <ele>195.8</ele>
        <time>2025-04-05T07:36:30Z</time>
      </trkpt>
      <trkpt lat="50.28114" lon="4.79223">
        <ele>195.6</ele>
        <time>2025-04-05T07:36:31Z</time>
      </trkpt>
      <trkpt lat="50.28109" lon="4.79227">
        <ele>195.2</ele>
        <time>2025-04-05T07:36:32Z</time>
      </trkpt>
      <trkpt lat="50.28104" lon="4.7923">
        <ele>194.8</ele>
        <time>2025-04-05T07:36:33Z</time>
      </trkpt>
      <trkpt lat="50.281" lon="4.79233">
        <ele>194.4</ele>
        <time>2025-04-05T07:36:34Z</time>
      </trkpt>
      <trkpt lat="50.28096" lon="4.79237">
        <ele>194.2</ele>
        <time>2025-04-05T07:36:35Z</time>
      </trkpt>
      <trkpt lat="50.28092" lon="4.7924">
        <ele>193.8</ele>
        <time>2025-04-05T07:36:36Z</time>
      </trkpt>
      <trkpt lat="50.28088" lon="4.79243">
        <ele>193.4</ele>
        <time>2025-04-05T07:36:37Z</time>
      </trkpt>
      <trkpt lat="50.28083" lon="4.79247">
        <ele>193</ele>
        <time>2025-04-05T07:36:38Z</time>
      </trkpt>
      <trkpt lat="50.28079" lon="4.7925">
        <ele>192.6</ele>
        <time>2025-04-05T07:36:39Z</time>
      </trkpt>
      <trkpt lat="50.28075" lon="4.79253">
        <ele>192.2</ele>
        <time>2025-04-05T07:36:40Z</time>
      </trkpt>
      <trkpt lat="50.28071" lon="4.79256">
        <ele>192</ele>
        <time>2025-04-05T07:36:41Z</time>
      </trkpt>
      <trkpt lat="50.28067" lon="4.79259">
        <ele>191.6</ele>
        <time>2025-04-05T07:36:42Z</time>
      </trkpt>
      <trkpt lat="50.28064" lon="4.79262">
        <ele>191.4</ele>
        <time>2025-04-05T07:36:43Z</time>
      </trkpt>
      <trkpt lat="50.2806" lon="4.79264">
        <ele>191</ele>
        <time>2025-04-05T07:36:44Z</time>
      </trkpt>
      <trkpt lat="50.28057" lon="4.79267">
        <ele>190.8</ele>
        <time>2025-04-05T07:36:45Z</time>
      </trkpt>
      <trkpt lat="50.28054" lon="4.79269">
        <ele>190.4</ele>
        <time>2025-04-05T07:36:46Z</time>
      </trkpt>
      <trkpt lat="50.2805" lon="4.79271">
        <ele>190.2</ele>
        <time>2025-04-05T07:36:47Z</time>
      </trkpt>
      <trkpt lat="50.28046" lon="4.79274">
        <ele>189.6</ele>
        <time>2025-04-05T07:36:48Z</time>
      </trkpt>
      <trkpt lat="50.28042" lon="4.79277">
        <ele>189.2</ele>
        <time>2025-04-05T07:36:49Z</time>
      </trkpt>
      <trkpt lat="50.28037" lon="4.7928">
        <ele>188.8</ele>
        <time>2025-04-05T07:36:50Z</time>
      </trkpt>
      <trkpt lat="50.28033" lon="4.79284">
        <ele>188.4</ele>
        <time>2025-04-05T07:36:51Z</time>
      </trkpt>
      <trkpt lat="50.28028" lon="4.79289">
        <ele>188</ele>
        <time>2025-04-05T07:36:52Z</time>
      </trkpt>
      <trkpt lat="50.28023" lon="4.79293">
        <ele>187.6</ele>
        <time>2025-04-05T07:36:53Z</time>
      </trkpt>
      <trkpt lat="50.28019" lon="4.79297">
        <ele>187.2</ele>
        <time>2025-04-05T07:36:54Z</time>
      </trkpt>
      <trkpt lat="50.28015" lon="4.79301">
        <ele>186.8</ele>
        <time>2025-04-05T07:36:55Z</time>
      </trkpt>
      <trkpt lat="50.28012" lon="4.79305">
        <ele>186.4</ele>
        <time>2025-04-05T07:36:56Z</time>
      </trkpt>
      <trkpt lat="50.28009" lon="4.79309">
        <ele>186</ele>
        <time>2025-04-05T07:36:57Z</time>
      </trkpt>
      <trkpt lat="50.28005" lon="4.79313">
        <ele>185.8</ele>
        <time>2025-04-05T07:36:58Z</time>
      </trkpt>
      <trkpt lat="50.28001" lon="4.79317">
        <ele>185.4</ele>
        <time>2025-04-05T07:36:59Z</time>
      </trkpt>
      <trkpt lat="50.27998" lon="4.79321">
        <ele>185.2</ele>
        <time>2025-04-05T07:37:00Z</time>
      </trkpt>
      <trkpt lat="50.27994" lon="4.79326">
        <ele>185</ele>
        <time>2025-04-05T07:37:01Z</time>
      </trkpt>
      <trkpt lat="50.27991" lon="4.79331">
        <ele>184.6</ele>
        <time>2025-04-05T07:37:02Z</time>
      </trkpt>
      <trkpt lat="50.27987" lon="4.79336">
        <ele>184.4</ele>
        <time>2025-04-05T07:37:03Z</time>
      </trkpt>
      <trkpt lat="50.27984" lon="4.7934">
        <ele>184.2</ele>
        <time>2025-04-05T07:37:04Z</time>
      </trkpt>
      <trkpt lat="50.27979" lon="4.79344">
        <ele>184</ele>
        <time>2025-04-05T07:37:05Z</time>
      </trkpt>
      <trkpt lat="50.27975" lon="4.79348">
        <ele>184</ele>
        <time>2025-04-05T07:37:06Z</time>
      </trkpt>
      <trkpt lat="50.2797" lon="4.79352">
        <ele>183.8</ele>
        <time>2025-04-05T07:37:07Z</time>
      </trkpt>
      <trkpt lat="50.27964" lon="4.79356">
        <ele>183.8</ele>
        <time>2025-04-05T07:37:08Z</time>
      </trkpt>
      <trkpt lat="50.27959" lon="4.79359">
        <ele>183.6</ele>
        <time>2025-04-05T07:37:09Z</time>
      </trkpt>
      <trkpt lat="50.27955" lon="4.79361">
        <ele>183.6</ele>
        <time>2025-04-05T07:37:10Z</time>
      </trkpt>
      <trkpt lat="50.2795" lon="4.79363">
        <ele>183.6</ele>
        <time>2025-04-05T07:37:11Z</time>
      </trkpt>
      <trkpt lat="50.27945" lon="4.79365">
        <ele>183.6</ele>
        <time>2025-04-05T07:37:12Z</time>
      </trkpt>
      <trkpt lat="50.2794" lon="4.79366">
        <ele>183.6</ele>
        <time>2025-04-05T07:37:13Z</time>
      </trkpt>
      <trkpt lat="50.27935" lon="4.79367">
        <ele>183.6</ele>
        <time>2025-04-05T07:37:14Z</time>
      </trkpt>
      <trkpt lat="50.27932" lon="4.79368">
        <ele>183.6</ele>
        <time>2025-04-05T07:37:15Z</time>
      </trkpt>
      <trkpt lat="50.27927" lon="4.79368">
        <ele>183.8</ele>
        <time>2025-04-05T07:37:16Z</time>
      </trkpt>
      <trkpt lat="50.27922" lon="4.79368">
        <ele>183.8</ele>
        <time>2025-04-05T07:37:17Z</time>
      </trkpt>
      <trkpt lat="50.27919" lon="4.79368">
        <ele>183.8</ele>
        <time>2025-04-05T07:37:18Z</time>
      </trkpt>
      <trkpt lat="50.27916" lon="4.79368">
        <ele>183.8</ele>
        <time>2025-04-05T07:37:19Z</time>
      </trkpt>
      <trkpt lat="50.27912" lon="4.79369">
        <ele>183.8</ele>
        <time>2025-04-05T07:37:20Z</time>
      </trkpt>
      <trkpt lat="50.27908" lon="4.79369">
        <ele>183.8</ele>
        <time>2025-04-05T07:37:21Z</time>
      </trkpt>
      <trkpt lat="50.27905" lon="4.7937">
        <ele>183.8</ele>
        <time>2025-04-05T07:37:22Z</time>
      </trkpt>
      <trkpt lat="50.27902" lon="4.7937">
        <ele>184</ele>
        <time>2025-04-05T07:37:23Z</time>
      </trkpt>
      <trkpt lat="50.27898" lon="4.79371">
        <ele>184</ele>
        <time>2025-04-05T07:37:24Z</time>
      </trkpt>
      <trkpt lat="50.27894" lon="4.79372">
        <ele>184</ele>
        <time>2025-04-05T07:37:25Z</time>
      </trkpt>
      <trkpt lat="50.2789" lon="4.79373">
        <ele>184</ele>
        <time>2025-04-05T07:37:26Z</time>
      </trkpt>
      <trkpt lat="50.27887" lon="4.79374">
        <ele>184.2</ele>
        <time>2025-04-05T07:37:27Z</time>
      </trkpt>
      <trkpt lat="50.27883" lon="4.79375">
        <ele>184.2</ele>
        <time>2025-04-05T07:37:28Z</time>
      </trkpt>
      <trkpt lat="50.2788" lon="4.79377">
        <ele>184.2</ele>
        <time>2025-04-05T07:37:29Z</time>
      </trkpt>
      <trkpt lat="50.27876" lon="4.79378">
        <ele>184.4</ele>
        <time>2025-04-05T07:37:30Z</time>
      </trkpt>
      <trkpt lat="50.27872" lon="4.7938">
        <ele>184.4</ele>
        <time>2025-04-05T07:37:31Z</time>
      </trkpt>
      <trkpt lat="50.27869" lon="4.79382">
        <ele>184.6</ele>
        <time>2025-04-05T07:37:32Z</time>
      </trkpt>
      <trkpt lat="50.27866" lon="4.79384">
        <ele>184.6</ele>
        <time>2025-04-05T07:37:33Z</time>
      </trkpt>
      <trkpt lat="50.27863" lon="4.79386">
        <ele>184.8</ele>
        <time>2025-04-05T07:37:34Z</time>
      </trkpt>
      <trkpt lat="50.27861" lon="4.79388">
        <ele>184.8</ele>
        <time>2025-04-05T07:37:35Z</time>
      </trkpt>
      <trkpt lat="50.27858" lon="4.79389">
        <ele>185</ele>
        <time>2025-04-05T07:37:36Z</time>
      </trkpt>
      <trkpt lat="50.27855" lon="4.79391">
        <ele>185</ele>
        <time>2025-04-05T07:37:37Z</time>
      </trkpt>
      <trkpt lat="50.27852" lon="4.79392">
        <ele>185.2</ele>
        <time>2025-04-05T07:37:38Z</time>
      </trkpt>
      <trkpt lat="50.2785" lon="4.79392">
        <ele>185.4</ele>
        <time>2025-04-05T07:37:39Z</time>
      </trkpt>
      <trkpt lat="50.27847" lon="4.79393">
        <ele>185.4</ele>
        <time>2025-04-05T07:37:40Z</time>
      </trkpt>
      <trkpt lat="50.27845" lon="4.79393">
        <ele>185.6</ele>
        <time>2025-04-05T07:37:41Z</time>
      </trkpt>
      <trkpt lat="50.27842" lon="4.79395">
        <ele>185.8</ele>
        <time>2025-04-05T07:37:42Z</time>
      </trkpt>
      <trkpt lat="50.27841" lon="4.79398">
        <ele>185.8</ele>
        <time>2025-04-05T07:37:43Z</time>
      </trkpt>
      <trkpt lat="50.27841" lon="4.79402">
        <ele>186</ele>
        <time>2025-04-05T07:37:44Z</time>
      </trkpt>
      <trkpt lat="50.27841" lon="4.79407">
        <ele>186.2</ele>
        <time>2025-04-05T07:37:45Z</time>
      </trkpt>
      <trkpt lat="50.2784" lon="4.79411">
        <ele>186.4</ele>
        <time>2025-04-05T07:37:46Z</time>
      </trkpt>
      <trkpt lat="50.2784" lon="4.79415">
        <ele>186.6</ele>
        <time>2025-04-05T07:37:47Z</time>
      </trkpt>
      <trkpt lat="50.2784" lon="4.79419">
        <ele>186.8</ele>
        <time>2025-04-05T07:37:48Z</time>
      </trkpt>
      <trkpt lat="50.2784" lon="4.79424">
        <ele>187</ele>
        <time>2025-04-05T07:37:49Z</time>
      </trkpt>
      <trkpt lat="50.2784" lon="4.79429">
        <ele>187.2</ele>
        <time>2025-04-05T07:37:50Z</time>
      </trkpt>
      <trkpt lat="50.2784" lon="4.79435">
        <ele>187.4</ele>
        <time>2025-04-05T07:37:51Z</time>
      </trkpt>
      <trkpt lat="50.2784" lon="4.7944">
        <ele>187.6</ele>
        <time>2025-04-05T07:37:52Z</time>
      </trkpt>
      <trkpt lat="50.2784" lon="4.79446">
        <ele>187.8</ele>
        <time>2025-04-05T07:37:53Z</time>
      </trkpt>
      <trkpt lat="50.27839" lon="4.79451">
        <ele>187.8</ele>
        <time>2025-04-05T07:37:54Z</time>
      </trkpt>
      <trkpt lat="50.2784" lon="4.79456">
        <ele>188</ele>
        <time>2025-04-05T07:37:55Z</time>
      </trkpt>
      <trkpt lat="50.2784" lon="4.79462">
        <ele>188.2</ele>
        <time>2025-04-05T07:37:56Z</time>
      </trkpt>
      <trkpt lat="50.27841" lon="4.79468">
        <ele>188.2</ele>
        <time>2025-04-05T07:37:57Z</time>
      </trkpt>
      <trkpt lat="50.2784" lon="4.79475">
        <ele>188.4</ele>
        <time>2025-04-05T07:37:58Z</time>
      </trkpt>
      <trkpt lat="50.27841" lon="4.79481">
        <ele>188.2</ele>
        <time>2025-04-05T07:37:59Z</time>
      </trkpt>
      <trkpt lat="50.27842" lon="4.79487">
        <ele>188.2</ele>
        <time>2025-04-05T07:38:00Z</time>
      </trkpt>
      <trkpt lat="50.27842" lon="4.79493">
        <ele>188.2</ele>
        <time>2025-04-05T07:38:01Z</time>
      </trkpt>
      <trkpt lat="50.27842" lon="4.795">
        <ele>188</ele>
        <time>2025-04-05T07:38:02Z</time>
      </trkpt>
      <trkpt lat="50.27842" lon="4.79507">
        <ele>187.8</ele>
        <time>2025-04-05T07:38:03Z</time>
      </trkpt>
      <trkpt lat="50.27842" lon="4.79515">
        <ele>187.6</ele>
        <time>2025-04-05T07:38:04Z</time>
      </trkpt>
      <trkpt lat="50.27841" lon="4.79522">
        <ele>187.4</ele>
        <time>2025-04-05T07:38:05Z</time>
      </trkpt>
      <trkpt lat="50.27841" lon="4.7953">
        <ele>187.2</ele>
        <time>2025-04-05T07:38:06Z</time>
      </trkpt>
      <trkpt lat="50.2784" lon="4.79539">
        <ele>187</ele>
        <time>2025-04-05T07:38:07Z</time>
      </trkpt>
      <trkpt lat="50.27839" lon="4.79548">
        <ele>187</ele>
        <time>2025-04-05T07:38:08Z</time>
      </trkpt>
      <trkpt lat="50.27838" lon="4.79558">
        <ele>186.8</ele>
        <time>2025-04-05T07:38:09Z</time>
      </trkpt>
      <trkpt lat="50.27837" lon="4.79566">
        <ele>186.6</ele>
        <time>2025-04-05T07:38:10Z</time>
      </trkpt>
      <trkpt lat="50.27835" lon="4.79575">
        <ele>186.6</ele>
        <time>2025-04-05T07:38:11Z</time>
      </trkpt>
      <trkpt lat="50.27834" lon="4.79584">
        <ele>186.4</ele>
        <time>2025-04-05T07:38:12Z</time>
      </trkpt>
      <trkpt lat="50.27832" lon="4.79592">
        <ele>186.2</ele>
        <time>2025-04-05T07:38:13Z</time>
      </trkpt>
      <trkpt lat="50.2783" lon="4.796">
        <ele>186</ele>
        <time>2025-04-05T07:38:14Z</time>
      </trkpt>
      <trkpt lat="50.27828" lon="4.79609">
        <ele>186</ele>
        <time>2025-04-05T07:38:15Z</time>
      </trkpt>
      <trkpt lat="50.27826" lon="4.79617">
        <ele>185.8</ele>
        <time>2025-04-05T07:38:16Z</time>
      </trkpt>
      <trkpt lat="50.27824" lon="4.79624">
        <ele>185.8</ele>
        <time>2025-04-05T07:38:17Z</time>
      </trkpt>
      <trkpt lat="50.27822" lon="4.79633">
        <ele>185.8</ele>
        <time>2025-04-05T07:38:18Z</time>
      </trkpt>
      <trkpt lat="50.27819" lon="4.7964">
        <ele>185.8</ele>
        <time>2025-04-05T07:38:19Z</time>
      </trkpt>
      <trkpt lat="50.27816" lon="4.79647">
        <ele>185.8</ele>
        <time>2025-04-05T07:38:20Z</time>
      </trkpt>
      <trkpt lat="50.27814" lon="4.79654">
        <ele>185.8</ele>
        <time>2025-04-05T07:38:21Z</time>
      </trkpt>
      <trkpt lat="50.27811" lon="4.7966">
        <ele>185.8</ele>
        <time>2025-04-05T07:38:22Z</time>
      </trkpt>
      <trkpt lat="50.27809" lon="4.79666">
        <ele>185.8</ele>
        <time>2025-04-05T07:38:23Z</time>
      </trkpt>
      <trkpt lat="50.27807" lon="4.79672">
        <ele>186</ele>
        <time>2025-04-05T07:38:24Z</time>
      </trkpt>
      <trkpt lat="50.27805" lon="4.79677">
        <ele>186.2</ele>
        <time>2025-04-05T07:38:25Z</time>
      </trkpt>
      <trkpt lat="50.27803" lon="4.79682">
        <ele>186.2</ele>
        <time>2025-04-05T07:38:26Z</time>
      </trkpt>
      <trkpt lat="50.27802" lon="4.79688">
        <ele>186.4</ele>
        <time>2025-04-05T07:38:27Z</time>
      </trkpt>
      <trkpt lat="50.27801" lon="4.79693">
        <ele>186.6</ele>
        <time>2025-04-05T07:38:28Z</time>
      </trkpt>
      <trkpt lat="50.27799" lon="4.79698">
        <ele>186.8</ele>
        <time>2025-04-05T07:38:29Z</time>
      </trkpt>
      <trkpt lat="50.27797" lon="4.79703">
        <ele>187.2</ele>
        <time>2025-04-05T07:38:30Z</time>
      </trkpt>
      <trkpt lat="50.27795" lon="4.79708">
        <ele>187.4</ele>
        <time>2025-04-05T07:38:31Z</time>
      </trkpt>
      <trkpt lat="50.27794" lon="4.79712">
        <ele>187.6</ele>
        <time>2025-04-05T07:38:32Z</time>
      </trkpt>
      <trkpt lat="50.27792" lon="4.79717">
        <ele>187.8</ele>
        <time>2025-04-05T07:38:33Z</time>
      </trkpt>
      <trkpt lat="50.2779" lon="4.79721">
        <ele>188.2</ele>
        <time>2025-04-05T07:38:34Z</time>
      </trkpt>
      <trkpt lat="50.27787" lon="4.79726">
        <ele>188.4</ele>
        <time>2025-04-05T07:38:35Z</time>
      </trkpt>
      <trkpt lat="50.27785" lon="4.7973">
        <ele>188.8</ele>
        <time>2025-04-05T07:38:36Z</time>
      </trkpt>
      <trkpt lat="50.27782" lon="4.79734">
        <ele>189</ele>
        <time>2025-04-05T07:38:37Z</time>
      </trkpt>
      <trkpt lat="50.27781" lon="4.79738">
        <ele>189.4</ele>
        <time>2025-04-05T07:38:38Z</time>
      </trkpt>
      <trkpt lat="50.27779" lon="4.79742">
        <ele>189.6</ele>
        <time>2025-04-05T07:38:39Z</time>
      </trkpt>
      <trkpt lat="50.27777" lon="4.79746">
        <ele>189.8</ele>
        <time>2025-04-05T07:38:40Z</time>
      </trkpt>
      <trkpt lat="50.27775" lon="4.7975">
        <ele>190</ele>
        <time>2025-04-05T07:38:41Z</time>
      </trkpt>
      <trkpt lat="50.27773" lon="4.79754">
        <ele>190.4</ele>
        <time>2025-04-05T07:38:42Z</time>
      </trkpt>
      <trkpt lat="50.27771" lon="4.79759">
        <ele>190.6</ele>
        <time>2025-04-05T07:38:43Z</time>
      </trkpt>
      <trkpt lat="50.27769" lon="4.79763">
        <ele>190.8</ele>
        <time>2025-04-05T07:38:44Z</time>
      </trkpt>
      <trkpt lat="50.27767" lon="4.79768">
        <ele>191</ele>
        <time>2025-04-05T07:38:45Z</time>
      </trkpt>
      <trkpt lat="50.27765" lon="4.79773">
        <ele>191.2</ele>
        <time>2025-04-05T07:38:46Z</time>
      </trkpt>
      <trkpt lat="50.27763" lon="4.79777">
        <ele>191.4</ele>
        <time>2025-04-05T07:38:47Z</time>
      </trkpt>
      <trkpt lat="50.27761" lon="4.79782">
        <ele>191.6</ele>
        <time>2025-04-05T07:38:48Z</time>
      </trkpt>
      <trkpt lat="50.2776" lon="4.79787">
        <ele>191.8</ele>
        <time>2025-04-05T07:38:49Z</time>
      </trkpt>
      <trkpt lat="50.27758" lon="4.79791">
        <ele>192</ele>
        <time>2025-04-05T07:38:50Z</time>
      </trkpt>
      <trkpt lat="50.27757" lon="4.79795">
        <ele>192.2</ele>
        <time>2025-04-05T07:38:51Z</time>
      </trkpt>
      <trkpt lat="50.27755" lon="4.79799">
        <ele>192.4</ele>
        <time>2025-04-05T07:38:52Z</time>
      </trkpt>
      <trkpt lat="50.27754" lon="4.79804">
        <ele>192.6</ele>
        <time>2025-04-05T07:38:53Z</time>
      </trkpt>
      <trkpt lat="50.27753" lon="4.79807">
        <ele>192.8</ele>
        <time>2025-04-05T07:38:54Z</time>
      </trkpt>
      <trkpt lat="50.27752" lon="4.79811">
        <ele>193</ele>
        <time>2025-04-05T07:38:55Z</time>
      </trkpt>
      <trkpt lat="50.27752" lon="4.79813">
        <ele>193.2</ele>
        <time>2025-04-05T07:38:56Z</time>
      </trkpt>
      <trkpt lat="50.27751" lon="4.79814">
        <ele>193.4</ele>
        <time>2025-04-05T07:38:57Z</time>
      </trkpt>
      <trkpt lat="50.2775" lon="4.79818">
        <ele>193.8</ele>
        <time>2025-04-05T07:39:37Z</time>
      </trkpt>
      <trkpt lat="50.2775" lon="4.7982">
        <ele>193.8</ele>
        <time>2025-04-05T07:39:38Z</time>
      </trkpt>
      <trkpt lat="50.2775" lon="4.79823">
        <ele>193.8</ele>
        <time>2025-04-05T07:39:39Z</time>
      </trkpt>
      <trkpt lat="50.2775" lon="4.79827">
        <ele>193.8</ele>
        <time>2025-04-05T07:39:40Z</time>
      </trkpt>
      <trkpt lat="50.27749" lon="4.79831">
        <ele>193.8</ele>
        <time>2025-04-05T07:39:41Z</time>
      </trkpt>
      <trkpt lat="50.27748" lon="4.79836">
        <ele>193.8</ele>
        <time>2025-04-05T07:39:42Z</time>
      </trkpt>
      <trkpt lat="50.27747" lon="4.7984">
        <ele>193.8</ele>
        <time>2025-04-05T07:39:43Z</time>
      </trkpt>
      <trkpt lat="50.27747" lon="4.79846">
        <ele>193.8</ele>
        <time>2025-04-05T07:39:44Z</time>
      </trkpt>
      <trkpt lat="50.27747" lon="4.79851">
        <ele>193.8</ele>
        <time>2025-04-05T07:39:45Z</time>
      </trkpt>
      <trkpt lat="50.27746" lon="4.79856">
        <ele>193.8</ele>
        <time>2025-04-05T07:39:46Z</time>
      </trkpt>
      <trkpt lat="50.27745" lon="4.79861">
        <ele>193.8</ele>
        <time>2025-04-05T07:39:47Z</time>
      </trkpt>
      <trkpt lat="50.27745" lon="4.79865">
        <ele>193.8</ele>
        <time>2025-04-05T07:39:48Z</time>
      </trkpt>
      <trkpt lat="50.27744" lon="4.7987">
        <ele>193.8</ele>
        <time>2025-04-05T07:39:49Z</time>
      </trkpt>
      <trkpt lat="50.27743" lon="4.79874">
        <ele>193.8</ele>
        <time>2025-04-05T07:39:50Z</time>
      </trkpt>
      <trkpt lat="50.27742" lon="4.79879">
        <ele>193.8</ele>
        <time>2025-04-05T07:39:51Z</time>
      </trkpt>
      <trkpt lat="50.27741" lon="4.79883">
        <ele>193.8</ele>
        <time>2025-04-05T07:39:52Z</time>
      </trkpt>
      <trkpt lat="50.27741" lon="4.79888">
        <ele>193.8</ele>
        <time>2025-04-05T07:39:53Z</time>
      </trkpt>
      <trkpt lat="50.27739" lon="4.79892">
        <ele>193.6</ele>
        <time>2025-04-05T07:39:54Z</time>
      </trkpt>
      <trkpt lat="50.27738" lon="4.79895">
        <ele>193.6</ele>
        <time>2025-04-05T07:39:55Z</time>
      </trkpt>
      <trkpt lat="50.27737" lon="4.79899">
        <ele>193.6</ele>
        <time>2025-04-05T07:39:56Z</time>
      </trkpt>
      <trkpt lat="50.27736" lon="4.79901">
        <ele>193.6</ele>
        <time>2025-04-05T07:39:57Z</time>
      </trkpt>
      <trkpt lat="50.27735" lon="4.79904">
        <ele>193.6</ele>
        <time>2025-04-05T07:39:58Z</time>
      </trkpt>
      <trkpt lat="50.27734" lon="4.79906">
        <ele>193.6</ele>
        <time>2025-04-05T07:39:59Z</time>
      </trkpt>
      <trkpt lat="50.27733" lon="4.79908">
        <ele>193.4</ele>
        <time>2025-04-05T07:40:00Z</time>
      </trkpt>
      <trkpt lat="50.27732" lon="4.79911">
        <ele>193.4</ele>
        <time>2025-04-05T07:40:01Z</time>
      </trkpt>
      <trkpt lat="50.27731" lon="4.79913">
        <ele>193.4</ele>
        <time>2025-04-05T07:40:02Z</time>
      </trkpt>
      <trkpt lat="50.2773" lon="4.79916">
        <ele>193.2</ele>
        <time>2025-04-05T07:40:03Z</time>
      </trkpt>
      <trkpt lat="50.27729" lon="4.79917">
        <ele>193.2</ele>
        <time>2025-04-05T07:40:04Z</time>
      </trkpt>
      <trkpt lat="50.27728" lon="4.79918">
        <ele>193.2</ele>
        <time>2025-04-05T07:40:05Z</time>
      </trkpt>
      <trkpt lat="50.27728" lon="4.79918">
        <ele>193.2</ele>
        <time>2025-04-05T07:40:06Z</time>
      </trkpt>
      <trkpt lat="50.27728" lon="4.79918">
        <ele>193.2</ele>
        <time>2025-04-05T07:40:07Z</time>
      </trkpt>
      <trkpt lat="50.27728" lon="4.79918">
        <ele>193.2</ele>
        <time>2025-04-05T07:40:08Z</time>
      </trkpt>
      <trkpt lat="50.27728" lon="4.79919">
        <ele>193.2</ele>
        <time>2025-04-05T07:40:09Z</time>
      </trkpt>
      <trkpt lat="50.27728" lon="4.79921">
        <ele>193.2</ele>
        <time>2025-04-05T07:40:10Z</time>
      </trkpt>
      <trkpt lat="50.27728" lon="4.79923">
        <ele>193.2</ele>
        <time>2025-04-05T07:40:11Z</time>
      </trkpt>
      <trkpt lat="50.27728" lon="4.79925">
        <ele>193.2</ele>
        <time>2025-04-05T07:40:12Z</time>
      </trkpt>
      <trkpt lat="50.27728" lon="4.79927">
        <ele>193</ele>
        <time>2025-04-05T07:40:13Z</time>
      </trkpt>
      <trkpt lat="50.27728" lon="4.79928">
        <ele>193</ele>
        <time>2025-04-05T07:40:14Z</time>
      </trkpt>
      <trkpt lat="50.27728" lon="4.79929">
        <ele>193</ele>
        <time>2025-04-05T07:40:15Z</time>
      </trkpt>
      <trkpt lat="50.27728" lon="4.79929">
        <ele>193</ele>
        <time>2025-04-05T07:40:16Z</time>
      </trkpt>
      <trkpt lat="50.27728" lon="4.79929">
        <ele>193.2</ele>
        <time>2025-04-05T07:40:17Z</time>
      </trkpt>
      <trkpt lat="50.27728" lon="4.79929">
        <ele>193.2</ele>
        <time>2025-04-05T07:40:18Z</time>
      </trkpt>
      <trkpt lat="50.27728" lon="4.79926">
        <ele>193.2</ele>
        <time>2025-04-05T07:41:32Z</time>
      </trkpt>
      <trkpt lat="50.27728" lon="4.79924">
        <ele>193.2</ele>
        <time>2025-04-05T07:41:33Z</time>
      </trkpt>
      <trkpt lat="50.2773" lon="4.79921">
        <ele>193.2</ele>
        <time>2025-04-05T07:41:34Z</time>
      </trkpt>
      <trkpt lat="50.27731" lon="4.79917">
        <ele>193.2</ele>
        <time>2025-04-05T07:41:35Z</time>
      </trkpt>
      <trkpt lat="50.27733" lon="4.79914">
        <ele>193.2</ele>
        <time>2025-04-05T07:41:36Z</time>
      </trkpt>
      <trkpt lat="50.27736" lon="4.7991">
        <ele>193.2</ele>
        <time>2025-04-05T07:41:37Z</time>
      </trkpt>
      <trkpt lat="50.27737" lon="4.79907">
        <ele>193.4</ele>
        <time>2025-04-05T07:41:38Z</time>
      </trkpt>
      <trkpt lat="50.2774" lon="4.79903">
        <ele>193.4</ele>
        <time>2025-04-05T07:41:39Z</time>
      </trkpt>
      <trkpt lat="50.27741" lon="4.79898">
        <ele>193.4</ele>
        <time>2025-04-05T07:41:40Z</time>
      </trkpt>
      <trkpt lat="50.27742" lon="4.79892">
        <ele>193.4</ele>
        <time>2025-04-05T07:41:41Z</time>
      </trkpt>
      <trkpt lat="50.27744" lon="4.79887">
        <ele>193.4</ele>
        <time>2025-04-05T07:41:42Z</time>
      </trkpt>
      <trkpt lat="50.27745" lon="4.79881">
        <ele>193.6</ele>
        <time>2025-04-05T07:41:43Z</time>
      </trkpt>
      <trkpt lat="50.27747" lon="4.79874">
        <ele>193.6</ele>
        <time>2025-04-05T07:41:44Z</time>
      </trkpt>
      <trkpt lat="50.27747" lon="4.79868">
        <ele>193.6</ele>
        <time>2025-04-05T07:41:45Z</time>
      </trkpt>
      <trkpt lat="50.27748" lon="4.79862">
        <ele>193.6</ele>
        <time>2025-04-05T07:41:46Z</time>
      </trkpt>
      <trkpt lat="50.27749" lon="4.79855">
        <ele>193.6</ele>
        <time>2025-04-05T07:41:47Z</time>
      </trkpt>
      <trkpt lat="50.27749" lon="4.79849">
        <ele>193.6</ele>
        <time>2025-04-05T07:41:48Z</time>
      </trkpt>
      <trkpt lat="50.2775" lon="4.79843">
        <ele>193.6</ele>
        <time>2025-04-05T07:41:49Z</time>
      </trkpt>
      <trkpt lat="50.2775" lon="4.79837">
        <ele>193.6</ele>
        <time>2025-04-05T07:41:50Z</time>
      </trkpt>
      <trkpt lat="50.27751" lon="4.79832">
        <ele>193.6</ele>
        <time>2025-04-05T07:41:51Z</time>
      </trkpt>
      <trkpt lat="50.27752" lon="4.79826">
        <ele>193.4</ele>
        <time>2025-04-05T07:41:52Z</time>
      </trkpt>
      <trkpt lat="50.27753" lon="4.79821">
        <ele>193.4</ele>
        <time>2025-04-05T07:41:53Z</time>
      </trkpt>
      <trkpt lat="50.27754" lon="4.79815">
        <ele>193.2</ele>
        <time>2025-04-05T07:41:54Z</time>
      </trkpt>
      <trkpt lat="50.27755" lon="4.79808">
        <ele>193</ele>
        <time>2025-04-05T07:41:55Z</time>
      </trkpt>
      <trkpt lat="50.27757" lon="4.79801">
        <ele>192.6</ele>
        <time>2025-04-05T07:41:56Z</time>
      </trkpt>
      <trkpt lat="50.27758" lon="4.79793">
        <ele>192.4</ele>
        <time>2025-04-05T07:41:57Z</time>
      </trkpt>
      <trkpt lat="50.27761" lon="4.79785">
        <ele>192</ele>
        <time>2025-04-05T07:41:58Z</time>
      </trkpt>
      <trkpt lat="50.27764" lon="4.79777">
        <ele>191.6</ele>
        <time>2025-04-05T07:41:59Z</time>
      </trkpt>
      <trkpt lat="50.27767" lon="4.79769">
        <ele>191.4</ele>
        <time>2025-04-05T07:42:00Z</time>
      </trkpt>
      <trkpt lat="50.27771" lon="4.79761">
        <ele>191</ele>
        <time>2025-04-05T07:42:01Z</time>
      </trkpt>
      <trkpt lat="50.27775" lon="4.79752">
        <ele>190.6</ele>
        <time>2025-04-05T07:42:02Z</time>
      </trkpt>
      <trkpt lat="50.27779" lon="4.79745">
        <ele>190</ele>
        <time>2025-04-05T07:42:03Z</time>
      </trkpt>
      <trkpt lat="50.27782" lon="4.79736">
        <ele>189.6</ele>
        <time>2025-04-05T07:42:04Z</time>
      </trkpt>
      <trkpt lat="50.27786" lon="4.79727">
        <ele>189</ele>
        <time>2025-04-05T07:42:05Z</time>
      </trkpt>
      <trkpt lat="50.27789" lon="4.79717">
        <ele>188.4</ele>
        <time>2025-04-05T07:42:06Z</time>
      </trkpt>
      <trkpt lat="50.27793" lon="4.79708">
        <ele>188</ele>
        <time>2025-04-05T07:42:07Z</time>
      </trkpt>
      <trkpt lat="50.27797" lon="4.79698">
        <ele>187.6</ele>
        <time>2025-04-05T07:42:08Z</time>
      </trkpt>
      <trkpt lat="50.27802" lon="4.79688">
        <ele>187.2</ele>
        <time>2025-04-05T07:42:09Z</time>
      </trkpt>
      <trkpt lat="50.27807" lon="4.79679">
        <ele>186.8</ele>
        <time>2025-04-05T07:42:10Z</time>
      </trkpt>
      <trkpt lat="50.27811" lon="4.79669">
        <ele>186.4</ele>
        <time>2025-04-05T07:42:11Z</time>
      </trkpt>
      <trkpt lat="50.27815" lon="4.79659">
        <ele>186</ele>
        <time>2025-04-05T07:42:12Z</time>
      </trkpt>
      <trkpt lat="50.2782" lon="4.79649">
        <ele>185.8</ele>
        <time>2025-04-05T07:42:13Z</time>
      </trkpt>
      <trkpt lat="50.27824" lon="4.79639">
        <ele>185.6</ele>
        <time>2025-04-05T07:42:14Z</time>
      </trkpt>
      <trkpt lat="50.27827" lon="4.79631">
        <ele>185.4</ele>
        <time>2025-04-05T07:42:15Z</time>
      </trkpt>
      <trkpt lat="50.2783" lon="4.79618">
        <ele>185.2</ele>
        <time>2025-04-05T07:42:16Z</time>
      </trkpt>
      <trkpt lat="50.27832" lon="4.79608">
        <ele>185.2</ele>
        <time>2025-04-05T07:42:17Z</time>
      </trkpt>
      <trkpt lat="50.27834" lon="4.79598">
        <ele>185.4</ele>
        <time>2025-04-05T07:42:18Z</time>
      </trkpt>
      <trkpt lat="50.27836" lon="4.79588">
        <ele>185.4</ele>
        <time>2025-04-05T07:42:19Z</time>
      </trkpt>
      <trkpt lat="50.27838" lon="4.79579">
        <ele>185.6</ele>
        <time>2025-04-05T07:42:20Z</time>
      </trkpt>
      <trkpt lat="50.27839" lon="4.7957">
        <ele>185.6</ele>
        <time>2025-04-05T07:42:21Z</time>
      </trkpt>
      <trkpt lat="50.2784" lon="4.79562">
        <ele>185.8</ele>
        <time>2025-04-05T07:42:22Z</time>
      </trkpt>
      <trkpt lat="50.27842" lon="4.79554">
        <ele>186</ele>
        <time>2025-04-05T07:42:23Z</time>
      </trkpt>
      <trkpt lat="50.27843" lon="4.79547">
        <ele>186.2</ele>
        <time>2025-04-05T07:42:24Z</time>
      </trkpt>
      <trkpt lat="50.27844" lon="4.79541">
        <ele>186.4</ele>
        <time>2025-04-05T07:42:25Z</time>
      </trkpt>
      <trkpt lat="50.27844" lon="4.79536">
        <ele>186.6</ele>
        <time>2025-04-05T07:42:26Z</time>
      </trkpt>
      <trkpt lat="50.27845" lon="4.79532">
        <ele>186.8</ele>
        <time>2025-04-05T07:42:27Z</time>
      </trkpt>
      <trkpt lat="50.27845" lon="4.79529">
        <ele>186.8</ele>
        <time>2025-04-05T07:42:28Z</time>
      </trkpt>
      <trkpt lat="50.27845" lon="4.79526">
        <ele>187</ele>
        <time>2025-04-05T07:42:29Z</time>
      </trkpt>
      <trkpt lat="50.27846" lon="4.79524">
        <ele>187</ele>
        <time>2025-04-05T07:42:30Z</time>
      </trkpt>
      <trkpt lat="50.27846" lon="4.79522">
        <ele>187</ele>
        <time>2025-04-05T07:42:31Z</time>
      </trkpt>
      <trkpt lat="50.27845" lon="4.79521">
        <ele>187.4</ele>
        <time>2025-04-05T07:42:51Z</time>
      </trkpt>
      <trkpt lat="50.27845" lon="4.79521">
        <ele>187.4</ele>
        <time>2025-04-05T07:42:52Z</time>
      </trkpt>
      <trkpt lat="50.27845" lon="4.79521">
        <ele>187.4</ele>
        <time>2025-04-05T07:42:53Z</time>
      </trkpt>
      <trkpt lat="50.27844" lon="4.79521">
        <ele>187.4</ele>
        <time>2025-04-05T07:42:54Z</time>
      </trkpt>
      <trkpt lat="50.27844" lon="4.79522">
        <ele>187.4</ele>
        <time>2025-04-05T07:42:55Z</time>
      </trkpt>
      <trkpt lat="50.27844" lon="4.79522">
        <ele>187.4</ele>
        <time>2025-04-05T07:42:56Z</time>
      </trkpt>
      <trkpt lat="50.27843" lon="4.79522">
        <ele>187.4</ele>
        <time>2025-04-05T07:42:57Z</time>
      </trkpt>
      <trkpt lat="50.27841" lon="4.79539">
        <ele>187.2</ele>
        <time>2025-04-05T07:51:17Z</time>
      </trkpt>
      <trkpt lat="50.2784" lon="4.79544">
        <ele>187.2</ele>
        <time>2025-04-05T07:51:18Z</time>
      </trkpt>
      <trkpt lat="50.2784" lon="4.79548">
        <ele>187.2</ele>
        <time>2025-04-05T07:51:19Z</time>
      </trkpt>
      <trkpt lat="50.27839" lon="4.79553">
        <ele>187.2</ele>
        <time>2025-04-05T07:51:20Z</time>
      </trkpt>
      <trkpt lat="50.27839" lon="4.79559">
        <ele>187</ele>
        <time>2025-04-05T07:51:21Z</time>
      </trkpt>
      <trkpt lat="50.27838" lon="4.79564">
        <ele>187</ele>
        <time>2025-04-05T07:51:22Z</time>
      </trkpt>
      <trkpt lat="50.27837" lon="4.79571">
        <ele>186.8</ele>
        <time>2025-04-05T07:51:23Z</time>
      </trkpt>
      <trkpt lat="50.27836" lon="4.79577">
        <ele>186.8</ele>
        <time>2025-04-05T07:51:24Z</time>
      </trkpt>
      <trkpt lat="50.27834" lon="4.79584">
        <ele>186.6</ele>
        <time>2025-04-05T07:51:25Z</time>
      </trkpt>
      <trkpt lat="50.27833" lon="4.79591">
        <ele>186.6</ele>
        <time>2025-04-05T07:51:26Z</time>
      </trkpt>
      <trkpt lat="50.27831" lon="4.79598">
        <ele>186.4</ele>
        <time>2025-04-05T07:51:27Z</time>
      </trkpt>
      <trkpt lat="50.2783" lon="4.79605">
        <ele>186.4</ele>
        <time>2025-04-05T07:51:28Z</time>
      </trkpt>
      <trkpt lat="50.27828" lon="4.79612">
        <ele>186.2</ele>
        <time>2025-04-05T07:51:29Z</time>
      </trkpt>
      <trkpt lat="50.27827" lon="4.79618">
        <ele>186.2</ele>
        <time>2025-04-05T07:51:30Z</time>
      </trkpt>
      <trkpt lat="50.27825" lon="4.79625">
        <ele>186.2</ele>
        <time>2025-04-05T07:51:31Z</time>
      </trkpt>
      <trkpt lat="50.27823" lon="4.79631">
        <ele>186.2</ele>
        <time>2025-04-05T07:51:32Z</time>
      </trkpt>
      <trkpt lat="50.27821" lon="4.79637">
        <ele>186.2</ele>
        <time>2025-04-05T07:51:33Z</time>
      </trkpt>
      <trkpt lat="50.27819" lon="4.79643">
        <ele>186.2</ele>
        <time>2025-04-05T07:51:34Z</time>
      </trkpt>
      <trkpt lat="50.27816" lon="4.79648">
        <ele>186.2</ele>
        <time>2025-04-05T07:51:35Z</time>
      </trkpt>
      <trkpt lat="50.27813" lon="4.79654">
        <ele>186.2</ele>
        <time>2025-04-05T07:51:36Z</time>
      </trkpt>
      <trkpt lat="50.27811" lon="4.7966">
        <ele>186.2</ele>
        <time>2025-04-05T07:51:37Z</time>
      </trkpt>
      <trkpt lat="50.27809" lon="4.79665">
        <ele>186.2</ele>
        <time>2025-04-05T07:51:38Z</time>
      </trkpt>
      <trkpt lat="50.27807" lon="4.7967">
        <ele>186.4</ele>
        <time>2025-04-05T07:51:39Z</time>
      </trkpt>
      <trkpt lat="50.27805" lon="4.79676">
        <ele>186.6</ele>
        <time>2025-04-05T07:51:40Z</time>
      </trkpt>
      <trkpt lat="50.27802" lon="4.79682">
        <ele>186.6</ele>
        <time>2025-04-05T07:51:41Z</time>
      </trkpt>
      <trkpt lat="50.278" lon="4.79687">
        <ele>186.8</ele>
        <time>2025-04-05T07:51:42Z</time>
      </trkpt>
      <trkpt lat="50.27799" lon="4.79693">
        <ele>187</ele>
        <time>2025-04-05T07:51:43Z</time>
      </trkpt>
      <trkpt lat="50.27798" lon="4.79698">
        <ele>187.2</ele>
        <time>2025-04-05T07:51:44Z</time>
      </trkpt>
      <trkpt lat="50.27796" lon="4.79704">
        <ele>187.4</ele>
        <time>2025-04-05T07:51:45Z</time>
      </trkpt>
      <trkpt lat="50.27794" lon="4.79709">
        <ele>187.6</ele>
        <time>2025-04-05T07:51:46Z</time>
      </trkpt>
      <trkpt lat="50.27791" lon="4.79714">
        <ele>187.8</ele>
        <time>2025-04-05T07:51:47Z</time>
      </trkpt>
      <trkpt lat="50.27789" lon="4.79719">
        <ele>188.2</ele>
        <time>2025-04-05T07:51:48Z</time>
      </trkpt>
      <trkpt lat="50.27787" lon="4.79724">
        <ele>188.4</ele>
        <time>2025-04-05T07:51:49Z</time>
      </trkpt>
      <trkpt lat="50.27785" lon="4.79728">
        <ele>188.6</ele>
        <time>2025-04-05T07:51:50Z</time>
      </trkpt>
      <trkpt lat="50.27783" lon="4.79733">
        <ele>189</ele>
        <time>2025-04-05T07:51:51Z</time>
      </trkpt>
      <trkpt lat="50.27781" lon="4.79737">
        <ele>189.2</ele>
        <time>2025-04-05T07:51:52Z</time>
      </trkpt>
      <trkpt lat="50.27779" lon="4.79741">
        <ele>189.6</ele>
        <time>2025-04-05T07:51:53Z</time>
      </trkpt>
      <trkpt lat="50.27776" lon="4.79746">
        <ele>189.8</ele>
        <time>2025-04-05T07:51:54Z</time>
      </trkpt>
      <trkpt lat="50.27774" lon="4.7975">
        <ele>190.2</ele>
        <time>2025-04-05T07:51:55Z</time>
      </trkpt>
      <trkpt lat="50.27771" lon="4.79754">
        <ele>190.4</ele>
        <time>2025-04-05T07:51:56Z</time>
      </trkpt>
      <trkpt lat="50.2777" lon="4.79759">
        <ele>190.8</ele>
        <time>2025-04-05T07:51:57Z</time>
      </trkpt>
      <trkpt lat="50.27767" lon="4.79763">
        <ele>191</ele>
        <time>2025-04-05T07:51:58Z</time>
      </trkpt>
      <trkpt lat="50.27765" lon="4.79768">
        <ele>191.2</ele>
        <time>2025-04-05T07:51:59Z</time>
      </trkpt>
      <trkpt lat="50.27763" lon="4.79773">
        <ele>191.4</ele>
        <time>2025-04-05T07:52:00Z</time>
      </trkpt>
      <trkpt lat="50.27762" lon="4.79778">
        <ele>191.8</ele>
        <time>2025-04-05T07:52:01Z</time>
      </trkpt>
      <trkpt lat="50.27759" lon="4.79782">
        <ele>192</ele>
        <time>2025-04-05T07:52:02Z</time>
      </trkpt>
      <trkpt lat="50.27758" lon="4.79787">
        <ele>192.2</ele>
        <time>2025-04-05T07:52:03Z</time>
      </trkpt>
      <trkpt lat="50.27756" lon="4.79792">
        <ele>192.4</ele>
        <time>2025-04-05T07:52:04Z</time>
      </trkpt>
      <trkpt lat="50.27755" lon="4.79796">
        <ele>192.8</ele>
        <time>2025-04-05T07:52:05Z</time>
      </trkpt>
      <trkpt lat="50.27753" lon="4.79801">
        <ele>193</ele>
        <time>2025-04-05T07:52:06Z</time>
      </trkpt>
      <trkpt lat="50.27752" lon="4.79805">
        <ele>193.2</ele>
        <time>2025-04-05T07:52:07Z</time>
      </trkpt>
      <trkpt lat="50.27751" lon="4.7981">
        <ele>193.4</ele>
        <time>2025-04-05T07:52:08Z</time>
      </trkpt>
      <trkpt lat="50.2775" lon="4.79815">
        <ele>193.6</ele>
        <time>2025-04-05T07:52:09Z</time>
      </trkpt>
      <trkpt lat="50.2775" lon="4.79819">
        <ele>193.8</ele>
        <time>2025-04-05T07:52:10Z</time>
      </trkpt>
      <trkpt lat="50.27749" lon="4.79824">
        <ele>193.8</ele>
        <time>2025-04-05T07:52:11Z</time>
      </trkpt>
      <trkpt lat="50.27749" lon="4.7983">
        <ele>194</ele>
        <time>2025-04-05T07:52:12Z</time>
      </trkpt>
      <trkpt lat="50.27748" lon="4.79835">
        <ele>194</ele>
        <time>2025-04-05T07:52:13Z</time>
      </trkpt>
      <trkpt lat="50.27747" lon="4.79841">
        <ele>194.2</ele>
        <time>2025-04-05T07:52:14Z</time>
      </trkpt>
      <trkpt lat="50.27747" lon="4.79847">
        <ele>194.2</ele>
        <time>2025-04-05T07:52:15Z</time>
      </trkpt>
      <trkpt lat="50.27746" lon="4.79853">
        <ele>194.2</ele>
        <time>2025-04-05T07:52:16Z</time>
      </trkpt>
      <trkpt lat="50.27745" lon="4.7986">
        <ele>194.2</ele>
        <time>2025-04-05T07:52:17Z</time>
      </trkpt>
      <trkpt lat="50.27745" lon="4.79866">
        <ele>194.2</ele>
        <time>2025-04-05T07:52:18Z</time>
      </trkpt>
      <trkpt lat="50.27744" lon="4.79873">
        <ele>194.4</ele>
        <time>2025-04-05T07:52:19Z</time>
      </trkpt>
      <trkpt lat="50.27743" lon="4.7988">
        <ele>194.4</ele>
        <time>2025-04-05T07:52:20Z</time>
      </trkpt>
      <trkpt lat="50.27741" lon="4.79886">
        <ele>194.2</ele>
        <time>2025-04-05T07:52:21Z</time>
      </trkpt>
      <trkpt lat="50.2774" lon="4.79892">
        <ele>194.2</ele>
        <time>2025-04-05T07:52:22Z</time>
      </trkpt>
      <trkpt lat="50.27738" lon="4.79898">
        <ele>194.2</ele>
        <time>2025-04-05T07:52:23Z</time>
      </trkpt>
      <trkpt lat="50.27736" lon="4.79905">
        <ele>194.2</ele>
        <time>2025-04-05T07:52:24Z</time>
      </trkpt>
      <trkpt lat="50.27733" lon="4.79911">
        <ele>194</ele>
        <time>2025-04-05T07:52:25Z</time>
      </trkpt>
      <trkpt lat="50.27731" lon="4.79917">
        <ele>194</ele>
        <time>2025-04-05T07:52:26Z</time>
      </trkpt>
      <trkpt lat="50.27728" lon="4.79922">
        <ele>193.8</ele>
        <time>2025-04-05T07:52:27Z</time>
      </trkpt>
      <trkpt lat="50.27725" lon="4.79927">
        <ele>193.8</ele>
        <time>2025-04-05T07:52:28Z</time>
      </trkpt>
      <trkpt lat="50.27722" lon="4.79931">
        <ele>193.6</ele>
        <time>2025-04-05T07:52:29Z</time>
      </trkpt>
      <trkpt lat="50.2772" lon="4.79936">
        <ele>193.4</ele>
        <time>2025-04-05T07:52:30Z</time>
      </trkpt>
      <trkpt lat="50.27716" lon="4.7994">
        <ele>193.2</ele>
        <time>2025-04-05T07:52:31Z</time>
      </trkpt>
      <trkpt lat="50.27713" lon="4.79944">
        <ele>192.8</ele>
        <time>2025-04-05T07:52:32Z</time>
      </trkpt>
      <trkpt lat="50.2771" lon="4.79949">
        <ele>192.6</ele>
        <time>2025-04-05T07:52:33Z</time>
      </trkpt>
      <trkpt lat="50.27705" lon="4.79955">
        <ele>192.2</ele>
        <time>2025-04-05T07:52:34Z</time>
      </trkpt>
      <trkpt lat="50.27701" lon="4.79961">
        <ele>191.8</ele>
        <time>2025-04-05T07:52:35Z</time>
      </trkpt>
      <trkpt lat="50.27697" lon="4.79967">
        <ele>191.4</ele>
        <time>2025-04-05T07:52:36Z</time>
      </trkpt>
      <trkpt lat="50.27692" lon="4.79973">
        <ele>190.8</ele>
        <time>2025-04-05T07:52:37Z</time>
      </trkpt>
      <trkpt lat="50.27686" lon="4.79979">
        <ele>190.2</ele>
        <time>2025-04-05T07:52:38Z</time>
      </trkpt>
      <trkpt lat="50.2768" lon="4.79985">
        <ele>189.6</ele>
        <time>2025-04-05T07:52:39Z</time>
      </trkpt>
      <trkpt lat="50.27674" lon="4.79992">
        <ele>189</ele>
        <time>2025-04-05T07:52:40Z</time>
      </trkpt>
      <trkpt lat="50.27667" lon="4.79998">
        <ele>188.6</ele>
        <time>2025-04-05T07:52:41Z</time>
      </trkpt>
      <trkpt lat="50.2766" lon="4.80005">
        <ele>188</ele>
        <time>2025-04-05T07:52:42Z</time>
      </trkpt>
      <trkpt lat="50.27654" lon="4.80011">
        <ele>187.6</ele>
        <time>2025-04-05T07:52:43Z</time>
      </trkpt>
      <trkpt lat="50.27647" lon="4.80018">
        <ele>187.2</ele>
        <time>2025-04-05T07:52:44Z</time>
      </trkpt>
      <trkpt lat="50.2764" lon="4.80026">
        <ele>187</ele>
        <time>2025-04-05T07:52:45Z</time>
      </trkpt>
      <trkpt lat="50.27634" lon="4.80033">
        <ele>186.8</ele>
        <time>2025-04-05T07:52:46Z</time>
      </trkpt>
      <trkpt lat="50.27628" lon="4.80042">
        <ele>186.6</ele>
        <time>2025-04-05T07:52:47Z</time>
      </trkpt>
      <trkpt lat="50.27622" lon="4.80051">
        <ele>186.4</ele>
        <time>2025-04-05T07:52:48Z</time>
      </trkpt>
      <trkpt lat="50.27617" lon="4.80059">
        <ele>186.4</ele>
        <time>2025-04-05T07:52:49Z</time>
      </trkpt>
      <trkpt lat="50.27611" lon="4.80067">
        <ele>186.2</ele>
        <time>2025-04-05T07:52:50Z</time>
      </trkpt>
      <trkpt lat="50.27605" lon="4.80075">
        <ele>186</ele>
        <time>2025-04-05T07:52:51Z</time>
      </trkpt>
      <trkpt lat="50.276" lon="4.80082">
        <ele>186</ele>
        <time>2025-04-05T07:52:52Z</time>
      </trkpt>
      <trkpt lat="50.27594" lon="4.80088">
        <ele>186</ele>
        <time>2025-04-05T07:52:53Z</time>
      </trkpt>
      <trkpt lat="50.27589" lon="4.80093">
        <ele>186.2</ele>
        <time>2025-04-05T07:52:54Z</time>
      </trkpt>
      <trkpt lat="50.27583" lon="4.80097">
        <ele>186.4</ele>
        <time>2025-04-05T07:52:55Z</time>
      </trkpt>
      <trkpt lat="50.27578" lon="4.801">
        <ele>186.6</ele>
        <time>2025-04-05T07:52:56Z</time>
      </trkpt>
      <trkpt lat="50.27572" lon="4.80102">
        <ele>187</ele>
        <time>2025-04-05T07:52:57Z</time>
      </trkpt>
      <trkpt lat="50.27568" lon="4.80104">
        <ele>187.4</ele>
        <time>2025-04-05T07:52:58Z</time>
      </trkpt>
      <trkpt lat="50.27564" lon="4.80106">
        <ele>187.8</ele>
        <time>2025-04-05T07:52:59Z</time>
      </trkpt>
      <trkpt lat="50.2756" lon="4.80107">
        <ele>188.2</ele>
        <time>2025-04-05T07:53:00Z</time>
      </trkpt>
      <trkpt lat="50.27557" lon="4.80108">
        <ele>188.6</ele>
        <time>2025-04-05T07:53:01Z</time>
      </trkpt>
      <trkpt lat="50.27553" lon="4.80109">
        <ele>189.2</ele>
        <time>2025-04-05T07:53:02Z</time>
      </trkpt>
      <trkpt lat="50.27549" lon="4.80111">
        <ele>189.6</ele>
        <time>2025-04-05T07:53:03Z</time>
      </trkpt>
      <trkpt lat="50.27545" lon="4.80112">
        <ele>190</ele>
        <time>2025-04-05T07:53:04Z</time>
      </trkpt>
      <trkpt lat="50.27541" lon="4.80114">
        <ele>190.4</ele>
        <time>2025-04-05T07:53:05Z</time>
      </trkpt>
      <trkpt lat="50.27538" lon="4.80116">
        <ele>190.8</ele>
        <time>2025-04-05T07:53:06Z</time>
      </trkpt>
      <trkpt lat="50.27535" lon="4.80117">
        <ele>191.2</ele>
        <time>2025-04-05T07:53:07Z</time>
      </trkpt>
      <trkpt lat="50.27531" lon="4.80119">
        <ele>191.6</ele>
        <time>2025-04-05T07:53:08Z</time>
      </trkpt>
      <trkpt lat="50.27528" lon="4.80122">
        <ele>192</ele>
        <time>2025-04-05T07:53:09Z</time>
      </trkpt>
      <trkpt lat="50.27525" lon="4.80124">
        <ele>192.4</ele>
        <time>2025-04-05T07:53:10Z</time>
      </trkpt>
      <trkpt lat="50.27522" lon="4.80126">
        <ele>192.6</ele>
        <time>2025-04-05T07:53:11Z</time>
      </trkpt>
      <trkpt lat="50.27519" lon="4.80129">
        <ele>193</ele>
        <time>2025-04-05T07:53:12Z</time>
      </trkpt>
      <trkpt lat="50.27515" lon="4.80132">
        <ele>193.4</ele>
        <time>2025-04-05T07:53:13Z</time>
      </trkpt>
      <trkpt lat="50.27512" lon="4.80134">
        <ele>193.8</ele>
        <time>2025-04-05T07:53:14Z</time>
      </trkpt>
      <trkpt lat="50.27509" lon="4.80137">
        <ele>194</ele>
        <time>2025-04-05T07:53:15Z</time>
      </trkpt>
      <trkpt lat="50.27507" lon="4.8014">
        <ele>194.4</ele>
        <time>2025-04-05T07:53:16Z</time>
      </trkpt>
      <trkpt lat="50.27504" lon="4.80142">
        <ele>194.6</ele>
        <time>2025-04-05T07:53:17Z</time>
      </trkpt>
      <trkpt lat="50.27501" lon="4.80144">
        <ele>195</ele>
        <time>2025-04-05T07:53:18Z</time>
      </trkpt>
      <trkpt lat="50.27498" lon="4.80147">
        <ele>195.2</ele>
        <time>2025-04-05T07:53:19Z</time>
      </trkpt>
      <trkpt lat="50.27495" lon="4.80149">
        <ele>195.6</ele>
        <time>2025-04-05T07:53:20Z</time>
      </trkpt>
      <trkpt lat="50.27492" lon="4.80152">
        <ele>195.8</ele>
        <time>2025-04-05T07:53:21Z</time>
      </trkpt>
      <trkpt lat="50.27489" lon="4.80154">
        <ele>196</ele>
        <time>2025-04-05T07:53:22Z</time>
      </trkpt>
      <trkpt lat="50.27486" lon="4.80156">
        <ele>196.2</ele>
        <time>2025-04-05T07:53:23Z</time>
      </trkpt>
      <trkpt lat="50.27483" lon="4.80159">
        <ele>196.4</ele>
        <time>2025-04-05T07:53:24Z</time>
      </trkpt>
      <trkpt lat="50.27479" lon="4.80162">
        <ele>196.6</ele>
        <time>2025-04-05T07:53:25Z</time>
      </trkpt>
      <trkpt lat="50.27476" lon="4.80164">
        <ele>196.6</ele>
        <time>2025-04-05T07:53:26Z</time>
      </trkpt>
      <trkpt lat="50.27473" lon="4.80167">
        <ele>196.8</ele>
        <time>2025-04-05T07:53:27Z</time>
      </trkpt>
      <trkpt lat="50.2747" lon="4.8017">
        <ele>197</ele>
        <time>2025-04-05T07:53:28Z</time>
      </trkpt>
      <trkpt lat="50.27467" lon="4.80173">
        <ele>197.2</ele>
        <time>2025-04-05T07:53:29Z</time>
      </trkpt>
      <trkpt lat="50.27464" lon="4.80176">
        <ele>197.4</ele>
        <time>2025-04-05T07:53:30Z</time>
      </trkpt>
      <trkpt lat="50.27461" lon="4.80178">
        <ele>197.6</ele>
        <time>2025-04-05T07:53:31Z</time>
      </trkpt>
      <trkpt lat="50.27457" lon="4.80181">
        <ele>197.8</ele>
        <time>2025-04-05T07:53:32Z</time>
      </trkpt>
      <trkpt lat="50.27454" lon="4.80184">
        <ele>197.8</ele>
        <time>2025-04-05T07:53:33Z</time>
      </trkpt>
      <trkpt lat="50.27451" lon="4.80186">
        <ele>198</ele>
        <time>2025-04-05T07:53:34Z</time>
      </trkpt>
      <trkpt lat="50.27448" lon="4.80189">
        <ele>198.2</ele>
        <time>2025-04-05T07:53:35Z</time>
      </trkpt>
      <trkpt lat="50.27446" lon="4.80191">
        <ele>198.4</ele>
        <time>2025-04-05T07:53:36Z</time>
      </trkpt>
      <trkpt lat="50.27442" lon="4.80194">
        <ele>198.6</ele>
        <time>2025-04-05T07:53:37Z</time>
      </trkpt>
      <trkpt lat="50.27439" lon="4.80197">
        <ele>198.6</ele>
        <time>2025-04-05T07:53:38Z</time>
      </trkpt>
      <trkpt lat="50.27435" lon="4.80199">
        <ele>198.8</ele>
        <time>2025-04-05T07:53:39Z</time>
      </trkpt>
      <trkpt lat="50.27433" lon="4.80202">
        <ele>199</ele>
        <time>2025-04-05T07:53:40Z</time>
      </trkpt>
      <trkpt lat="50.2743" lon="4.80205">
        <ele>199.2</ele>
        <time>2025-04-05T07:53:41Z</time>
      </trkpt>
      <trkpt lat="50.27426" lon="4.80208">
        <ele>199.2</ele>
        <time>2025-04-05T07:53:42Z</time>
      </trkpt>
      <trkpt lat="50.27423" lon="4.80211">
        <ele>199.4</ele>
        <time>2025-04-05T07:53:43Z</time>
      </trkpt>
      <trkpt lat="50.2742" lon="4.80214">
        <ele>199.6</ele>
        <time>2025-04-05T07:53:44Z</time>
      </trkpt>
      <trkpt lat="50.27417" lon="4.80216">
        <ele>199.6</ele>
        <time>2025-04-05T07:53:45Z</time>
      </trkpt>
      <trkpt lat="50.27413" lon="4.80219">
        <ele>199.8</ele>
        <time>2025-04-05T07:53:46Z</time>
      </trkpt>
      <trkpt lat="50.27409" lon="4.80222">
        <ele>200</ele>
        <time>2025-04-05T07:53:47Z</time>
      </trkpt>
      <trkpt lat="50.27406" lon="4.80225">
        <ele>200</ele>
        <time>2025-04-05T07:53:48Z</time>
      </trkpt>
      <trkpt lat="50.27403" lon="4.80227">
        <ele>200.2</ele>
        <time>2025-04-05T07:53:49Z</time>
      </trkpt>
      <trkpt lat="50.27399" lon="4.8023">
        <ele>200.2</ele>
        <time>2025-04-05T07:53:50Z</time>
      </trkpt>
      <trkpt lat="50.27396" lon="4.80233">
        <ele>200.4</ele>
        <time>2025-04-05T07:53:51Z</time>
      </trkpt>
      <trkpt lat="50.27392" lon="4.80236">
        <ele>200.6</ele>
        <time>2025-04-05T07:53:52Z</time>
      </trkpt>
      <trkpt lat="50.27388" lon="4.80239">
        <ele>200.6</ele>
        <time>2025-04-05T07:53:53Z</time>
      </trkpt>
      <trkpt lat="50.27385" lon="4.80242">
        <ele>200.6</ele>
        <time>2025-04-05T07:53:54Z</time>
      </trkpt>
      <trkpt lat="50.27381" lon="4.80245">
        <ele>200.6</ele>
        <time>2025-04-05T07:53:55Z</time>
      </trkpt>
      <trkpt lat="50.27377" lon="4.80249">
        <ele>200.8</ele>
        <time>2025-04-05T07:53:56Z</time>
      </trkpt>
      <trkpt lat="50.27373" lon="4.80252">
        <ele>200.8</ele>
        <time>2025-04-05T07:53:57Z</time>
      </trkpt>
      <trkpt lat="50.27369" lon="4.80255">
        <ele>200.8</ele>
        <time>2025-04-05T07:53:58Z</time>
      </trkpt>
      <trkpt lat="50.27365" lon="4.80258">
        <ele>200.6</ele>
        <time>2025-04-05T07:53:59Z</time>
      </trkpt>
      <trkpt lat="50.27361" lon="4.80262">
        <ele>200.6</ele>
        <time>2025-04-05T07:54:00Z</time>
      </trkpt>
      <trkpt lat="50.27357" lon="4.80265">
        <ele>200.6</ele>
        <time>2025-04-05T07:54:01Z</time>
      </trkpt>
      <trkpt lat="50.27353" lon="4.80268">
        <ele>200.4</ele>
        <time>2025-04-05T07:54:02Z</time>
      </trkpt>
      <trkpt lat="50.27349" lon="4.80272">
        <ele>200.4</ele>
        <time>2025-04-05T07:54:03Z</time>
      </trkpt>
      <trkpt lat="50.27345" lon="4.80277">
        <ele>200.2</ele>
        <time>2025-04-05T07:54:04Z</time>
      </trkpt>
      <trkpt lat="50.27341" lon="4.80282">
        <ele>200.2</ele>
        <time>2025-04-05T07:54:05Z</time>
      </trkpt>
      <trkpt lat="50.27337" lon="4.80288">
        <ele>200</ele>
        <time>2025-04-05T07:54:06Z</time>
      </trkpt>
      <trkpt lat="50.27334" lon="4.80295">
        <ele>199.8</ele>
        <time>2025-04-05T07:54:07Z</time>
      </trkpt>
      <trkpt lat="50.27333" lon="4.80303">
        <ele>199.4</ele>
        <time>2025-04-05T07:54:08Z</time>
      </trkpt>
      <trkpt lat="50.27332" lon="4.80315">
        <ele>198.8</ele>
        <time>2025-04-05T07:54:09Z</time>
      </trkpt>
      <trkpt lat="50.27331" lon="4.80327">
        <ele>198.4</ele>
        <time>2025-04-05T07:54:10Z</time>
      </trkpt>
      <trkpt lat="50.2733" lon="4.80338">
        <ele>197.8</ele>
        <time>2025-04-05T07:54:11Z</time>
      </trkpt>
      <trkpt lat="50.27331" lon="4.80351">
        <ele>197.2</ele>
        <time>2025-04-05T07:54:12Z</time>
      </trkpt>
      <trkpt lat="50.27331" lon="4.80364">
        <ele>196.8</ele>
        <time>2025-04-05T07:54:13Z</time>
      </trkpt>
      <trkpt lat="50.27331" lon="4.80377">
        <ele>196.2</ele>
        <time>2025-04-05T07:54:14Z</time>
      </trkpt>
      <trkpt lat="50.2733" lon="4.80391">
        <ele>196</ele>
        <time>2025-04-05T07:54:15Z</time>
      </trkpt>
      <trkpt lat="50.27327" lon="4.80403">
        <ele>195.8</ele>
        <time>2025-04-05T07:54:16Z</time>
      </trkpt>
      <trkpt lat="50.27325" lon="4.80415">
        <ele>195.6</ele>
        <time>2025-04-05T07:54:17Z</time>
      </trkpt>
      <trkpt lat="50.27322" lon="4.80426">
        <ele>195.6</ele>
        <time>2025-04-05T07:54:18Z</time>
      </trkpt>
      <trkpt lat="50.27319" lon="4.80437">
        <ele>195.6</ele>
        <time>2025-04-05T07:54:19Z</time>
      </trkpt>
      <trkpt lat="50.27316" lon="4.80446">
        <ele>195.6</ele>
        <time>2025-04-05T07:54:20Z</time>
      </trkpt>
      <trkpt lat="50.27313" lon="4.80455">
        <ele>195.8</ele>
        <time>2025-04-05T07:54:21Z</time>
      </trkpt>
      <trkpt lat="50.27311" lon="4.80463">
        <ele>196</ele>
        <time>2025-04-05T07:54:22Z</time>
      </trkpt>
      <trkpt lat="50.27308" lon="4.80471">
        <ele>196.4</ele>
        <time>2025-04-05T07:54:23Z</time>
      </trkpt>
      <trkpt lat="50.27305" lon="4.80478">
        <ele>196.6</ele>
        <time>2025-04-05T07:54:24Z</time>
      </trkpt>
      <trkpt lat="50.27303" lon="4.80484">
        <ele>197</ele>
        <time>2025-04-05T07:54:25Z</time>
      </trkpt>
      <trkpt lat="50.273" lon="4.80492">
        <ele>197.2</ele>
        <time>2025-04-05T07:54:26Z</time>
      </trkpt>
      <trkpt lat="50.27298" lon="4.80499">
        <ele>197.6</ele>
        <time>2025-04-05T07:54:27Z</time>
      </trkpt>
      <trkpt lat="50.27296" lon="4.80505">
        <ele>198</ele>
        <time>2025-04-05T07:54:28Z</time>
      </trkpt>
      <trkpt lat="50.27294" lon="4.8051">
        <ele>198.2</ele>
        <time>2025-04-05T07:54:29Z</time>
      </trkpt>
      <trkpt lat="50.27292" lon="4.80517">
        <ele>198.4</ele>
        <time>2025-04-05T07:54:30Z</time>
      </trkpt>
      <trkpt lat="50.2729" lon="4.80523">
        <ele>198.8</ele>
        <time>2025-04-05T07:54:31Z</time>
      </trkpt>
      <trkpt lat="50.27287" lon="4.80531">
        <ele>199</ele>
        <time>2025-04-05T07:54:32Z</time>
      </trkpt>
      <trkpt lat="50.27285" lon="4.80537">
        <ele>199.2</ele>
        <time>2025-04-05T07:54:33Z</time>
      </trkpt>
      <trkpt lat="50.27282" lon="4.80544">
        <ele>199.4</ele>
        <time>2025-04-05T07:54:34Z</time>
      </trkpt>
      <trkpt lat="50.2728" lon="4.8055">
        <ele>199.4</ele>
        <time>2025-04-05T07:54:35Z</time>
      </trkpt>
      <trkpt lat="50.27277" lon="4.80557">
        <ele>199.6</ele>
        <time>2025-04-05T07:54:36Z</time>
      </trkpt>
      <trkpt lat="50.27276" lon="4.80564">
        <ele>199.6</ele>
        <time>2025-04-05T07:54:37Z</time>
      </trkpt>
      <trkpt lat="50.27273" lon="4.80571">
        <ele>199.6</ele>
        <time>2025-04-05T07:54:38Z</time>
      </trkpt>
      <trkpt lat="50.2727" lon="4.80578">
        <ele>199.8</ele>
        <time>2025-04-05T07:54:39Z</time>
      </trkpt>
      <trkpt lat="50.27268" lon="4.80585">
        <ele>199.6</ele>
        <time>2025-04-05T07:54:40Z</time>
      </trkpt>
      <trkpt lat="50.27265" lon="4.80592">
        <ele>199.6</ele>
        <time>2025-04-05T07:54:41Z</time>
      </trkpt>
      <trkpt lat="50.27263" lon="4.80599">
        <ele>199.6</ele>
        <time>2025-04-05T07:54:42Z</time>
      </trkpt>
      <trkpt lat="50.2726" lon="4.80607">
        <ele>199.6</ele>
        <time>2025-04-05T07:54:43Z</time>
      </trkpt>
      <trkpt lat="50.27258" lon="4.80614">
        <ele>199.4</ele>
        <time>2025-04-05T07:54:44Z</time>
      </trkpt>
      <trkpt lat="50.27255" lon="4.80622">
        <ele>199.2</ele>
        <time>2025-04-05T07:54:45Z</time>
      </trkpt>
      <trkpt lat="50.27253" lon="4.8063">
        <ele>199</ele>
        <time>2025-04-05T07:54:46Z</time>
      </trkpt>
      <trkpt lat="50.2725" lon="4.80637">
        <ele>199</ele>
        <time>2025-04-05T07:54:47Z</time>
      </trkpt>
      <trkpt lat="50.27247" lon="4.80647">
        <ele>198.8</ele>
        <time>2025-04-05T07:54:48Z</time>
      </trkpt>
      <trkpt lat="50.27245" lon="4.80654">
        <ele>198.6</ele>
        <time>2025-04-05T07:54:49Z</time>
      </trkpt>
      <trkpt lat="50.27242" lon="4.80663">
        <ele>198.4</ele>
        <time>2025-04-05T07:54:50Z</time>
      </trkpt>
      <trkpt lat="50.2724" lon="4.8067">
        <ele>198.2</ele>
        <time>2025-04-05T07:54:51Z</time>
      </trkpt>
      <trkpt lat="50.27237" lon="4.8068">
        <ele>197.8</ele>
        <time>2025-04-05T07:54:52Z</time>
      </trkpt>
      <trkpt lat="50.27234" lon="4.80689">
        <ele>197.6</ele>
        <time>2025-04-05T07:54:53Z</time>
      </trkpt>
      <trkpt lat="50.27231" lon="4.80697">
        <ele>197.4</ele>
        <time>2025-04-05T07:54:54Z</time>
      </trkpt>
      <trkpt lat="50.27228" lon="4.80705">
        <ele>197</ele>
        <time>2025-04-05T07:54:55Z</time>
      </trkpt>
      <trkpt lat="50.27225" lon="4.80712">
        <ele>196.8</ele>
        <time>2025-04-05T07:54:56Z</time>
      </trkpt>
      <trkpt lat="50.27221" lon="4.80721">
        <ele>196.4</ele>
        <time>2025-04-05T07:54:57Z</time>
      </trkpt>
      <trkpt lat="50.27217" lon="4.80729">
        <ele>195.8</ele>
        <time>2025-04-05T07:54:58Z</time>
      </trkpt>
      <trkpt lat="50.27213" lon="4.80737">
        <ele>195.4</ele>
        <time>2025-04-05T07:54:59Z</time>
      </trkpt>
      <trkpt lat="50.27208" lon="4.80746">
        <ele>194.8</ele>
        <time>2025-04-05T07:55:00Z</time>
      </trkpt>
      <trkpt lat="50.27204" lon="4.80754">
        <ele>194.2</ele>
        <time>2025-04-05T07:55:01Z</time>
      </trkpt>
      <trkpt lat="50.272" lon="4.80763">
        <ele>193.4</ele>
        <time>2025-04-05T07:55:02Z</time>
      </trkpt>
      <trkpt lat="50.27196" lon="4.80771">
        <ele>192.8</ele>
        <time>2025-04-05T07:55:03Z</time>
      </trkpt>
      <trkpt lat="50.27191" lon="4.8078">
        <ele>192</ele>
        <time>2025-04-05T07:55:04Z</time>
      </trkpt>
      <trkpt lat="50.27186" lon="4.8079">
        <ele>191.2</ele>
        <time>2025-04-05T07:55:05Z</time>
      </trkpt>
      <trkpt lat="50.27182" lon="4.80799">
        <ele>190.4</ele>
        <time>2025-04-05T07:55:06Z</time>
      </trkpt>
      <trkpt lat="50.27177" lon="4.80808">
        <ele>189.4</ele>
        <time>2025-04-05T07:55:07Z</time>
      </trkpt>
      <trkpt lat="50.27173" lon="4.80818">
        <ele>188.4</ele>
        <time>2025-04-05T07:55:08Z</time>
      </trkpt>
      <trkpt lat="50.27168" lon="4.80827">
        <ele>187.6</ele>
        <time>2025-04-05T07:55:09Z</time>
      </trkpt>
      <trkpt lat="50.27163" lon="4.80837">
        <ele>186.6</ele>
        <time>2025-04-05T07:55:10Z</time>
      </trkpt>
      <trkpt lat="50.27158" lon="4.80847">
        <ele>185.8</ele>
        <time>2025-04-05T07:55:11Z</time>
      </trkpt>
      <trkpt lat="50.27154" lon="4.80858">
        <ele>184.8</ele>
        <time>2025-04-05T07:55:12Z</time>
      </trkpt>
      <trkpt lat="50.2715" lon="4.80867">
        <ele>183.8</ele>
        <time>2025-04-05T07:55:13Z</time>
      </trkpt>
      <trkpt lat="50.27146" lon="4.80879">
        <ele>182.8</ele>
        <time>2025-04-05T07:55:14Z</time>
      </trkpt>
      <trkpt lat="50.27142" lon="4.80892">
        <ele>181.8</ele>
        <time>2025-04-05T07:55:15Z</time>
      </trkpt>
      <trkpt lat="50.27139" lon="4.80905">
        <ele>180.8</ele>
        <time>2025-04-05T07:55:16Z</time>
      </trkpt>
      <trkpt lat="50.27137" lon="4.80918">
        <ele>179.6</ele>
        <time>2025-04-05T07:55:17Z</time>
      </trkpt>
      <trkpt lat="50.27135" lon="4.80932">
        <ele>178.6</ele>
        <time>2025-04-05T07:55:18Z</time>
      </trkpt>
      <trkpt lat="50.27133" lon="4.80947">
        <ele>177.4</ele>
        <time>2025-04-05T07:55:19Z</time>
      </trkpt>
      <trkpt lat="50.27132" lon="4.80961">
        <ele>176.6</ele>
        <time>2025-04-05T07:55:20Z</time>
      </trkpt>
      <trkpt lat="50.27132" lon="4.80975">
        <ele>175.8</ele>
        <time>2025-04-05T07:55:21Z</time>
      </trkpt>
      <trkpt lat="50.27132" lon="4.80989">
        <ele>174.8</ele>
        <time>2025-04-05T07:55:22Z</time>
      </trkpt>
      <trkpt lat="50.27132" lon="4.81004">
        <ele>174</ele>
        <time>2025-04-05T07:55:23Z</time>
      </trkpt>
      <trkpt lat="50.27132" lon="4.81018">
        <ele>173</ele>
        <time>2025-04-05T07:55:24Z</time>
      </trkpt>
      <trkpt lat="50.27133" lon="4.81033">
        <ele>172.2</ele>
        <time>2025-04-05T07:55:25Z</time>
      </trkpt>
      <trkpt lat="50.27133" lon="4.81048">
        <ele>171.2</ele>
        <time>2025-04-05T07:55:26Z</time>
      </trkpt>
      <trkpt lat="50.27133" lon="4.81063">
        <ele>170.2</ele>
        <time>2025-04-05T07:55:27Z</time>
      </trkpt>
      <trkpt lat="50.27134" lon="4.81078">
        <ele>169.4</ele>
        <time>2025-04-05T07:55:28Z</time>
      </trkpt>
      <trkpt lat="50.27134" lon="4.81093">
        <ele>168.6</ele>
        <time>2025-04-05T07:55:29Z</time>
      </trkpt>
      <trkpt lat="50.27134" lon="4.81107">
        <ele>167.6</ele>
        <time>2025-04-05T07:55:30Z</time>
      </trkpt>
      <trkpt lat="50.27134" lon="4.81121">
        <ele>166.6</ele>
        <time>2025-04-05T07:55:31Z</time>
      </trkpt>
      <trkpt lat="50.27134" lon="4.81134">
        <ele>166</ele>
        <time>2025-04-05T07:55:32Z</time>
      </trkpt>
      <trkpt lat="50.27134" lon="4.81148">
        <ele>165.2</ele>
        <time>2025-04-05T07:55:33Z</time>
      </trkpt>
      <trkpt lat="50.27133" lon="4.81161">
        <ele>164.2</ele>
        <time>2025-04-05T07:55:34Z</time>
      </trkpt>
      <trkpt lat="50.27132" lon="4.81173">
        <ele>163.6</ele>
        <time>2025-04-05T07:55:35Z</time>
      </trkpt>
      <trkpt lat="50.2713" lon="4.81187">
        <ele>162.8</ele>
        <time>2025-04-05T07:55:36Z</time>
      </trkpt>
      <trkpt lat="50.27128" lon="4.812">
        <ele>162</ele>
        <time>2025-04-05T07:55:37Z</time>
      </trkpt>
      <trkpt lat="50.27125" lon="4.81213">
        <ele>161.2</ele>
        <time>2025-04-05T07:55:38Z</time>
      </trkpt>
      <trkpt lat="50.27122" lon="4.81226">
        <ele>160.4</ele>
        <time>2025-04-05T07:55:39Z</time>
      </trkpt>
      <trkpt lat="50.2712" lon="4.8124">
        <ele>159.4</ele>
        <time>2025-04-05T07:55:40Z</time>
      </trkpt>
      <trkpt lat="50.27118" lon="4.81253">
        <ele>158.4</ele>
        <time>2025-04-05T07:55:41Z</time>
      </trkpt>
      <trkpt lat="50.27116" lon="4.81267">
        <ele>157.4</ele>
        <time>2025-04-05T07:55:42Z</time>
      </trkpt>
      <trkpt lat="50.27114" lon="4.8128">
        <ele>156.4</ele>
        <time>2025-04-05T07:55:43Z</time>
      </trkpt>
      <trkpt lat="50.27111" lon="4.81293">
        <ele>155.4</ele>
        <time>2025-04-05T07:55:44Z</time>
      </trkpt>
      <trkpt lat="50.27109" lon="4.81305">
        <ele>154.6</ele>
        <time>2025-04-05T07:55:45Z</time>
      </trkpt>
      <trkpt lat="50.27107" lon="4.81317">
        <ele>154</ele>
        <time>2025-04-05T07:55:46Z</time>
      </trkpt>
      <trkpt lat="50.27103" lon="4.81328">
        <ele>153.2</ele>
        <time>2025-04-05T07:55:47Z</time>
      </trkpt>
      <trkpt lat="50.27098" lon="4.81339">
        <ele>152.4</ele>
        <time>2025-04-05T07:55:48Z</time>
      </trkpt>
      <trkpt lat="50.27092" lon="4.81348">
        <ele>151.6</ele>
        <time>2025-04-05T07:55:49Z</time>
      </trkpt>
      <trkpt lat="50.27085" lon="4.81356">
        <ele>151</ele>
        <time>2025-04-05T07:55:50Z</time>
      </trkpt>
      <trkpt lat="50.27078" lon="4.81363">
        <ele>150.4</ele>
        <time>2025-04-05T07:55:51Z</time>
      </trkpt>
      <trkpt lat="50.27072" lon="4.8137">
        <ele>149.8</ele>
        <time>2025-04-05T07:55:52Z</time>
      </trkpt>
      <trkpt lat="50.27067" lon="4.8138">
        <ele>149.4</ele>
        <time>2025-04-05T07:55:53Z</time>
      </trkpt>
      <trkpt lat="50.27063" lon="4.8139">
        <ele>148.8</ele>
        <time>2025-04-05T07:55:54Z</time>
      </trkpt>
      <trkpt lat="50.27059" lon="4.81401">
        <ele>148.4</ele>
        <time>2025-04-05T07:55:55Z</time>
      </trkpt>
      <trkpt lat="50.27056" lon="4.81412">
        <ele>148</ele>
        <time>2025-04-05T07:55:56Z</time>
      </trkpt>
      <trkpt lat="50.27053" lon="4.81422">
        <ele>147.6</ele>
        <time>2025-04-05T07:55:57Z</time>
      </trkpt>
      <trkpt lat="50.27049" lon="4.81433">
        <ele>147.4</ele>
        <time>2025-04-05T07:55:58Z</time>
      </trkpt>
      <trkpt lat="50.27043" lon="4.81445">
        <ele>147</ele>
        <time>2025-04-05T07:55:59Z</time>
      </trkpt>
      <trkpt lat="50.27038" lon="4.81454">
        <ele>146.8</ele>
        <time>2025-04-05T07:56:00Z</time>
      </trkpt>
      <trkpt lat="50.27033" lon="4.81463">
        <ele>146.6</ele>
        <time>2025-04-05T07:56:01Z</time>
      </trkpt>
      <trkpt lat="50.27028" lon="4.81471">
        <ele>146.4</ele>
        <time>2025-04-05T07:56:02Z</time>
      </trkpt>
      <trkpt lat="50.27023" lon="4.81479">
        <ele>146.2</ele>
        <time>2025-04-05T07:56:03Z</time>
      </trkpt>
      <trkpt lat="50.27016" lon="4.81489">
        <ele>146</ele>
        <time>2025-04-05T07:56:04Z</time>
      </trkpt>
      <trkpt lat="50.27011" lon="4.81498">
        <ele>146</ele>
        <time>2025-04-05T07:56:05Z</time>
      </trkpt>
      <trkpt lat="50.27007" lon="4.81508">
        <ele>145.8</ele>
        <time>2025-04-05T07:56:06Z</time>
      </trkpt>
      <trkpt lat="50.27002" lon="4.81518">
        <ele>145.8</ele>
        <time>2025-04-05T07:56:07Z</time>
      </trkpt>
      <trkpt lat="50.26999" lon="4.81528">
        <ele>145.6</ele>
        <time>2025-04-05T07:56:08Z</time>
      </trkpt>
      <trkpt lat="50.26996" lon="4.81538">
        <ele>145.6</ele>
        <time>2025-04-05T07:56:09Z</time>
      </trkpt>
      <trkpt lat="50.26994" lon="4.81548">
        <ele>145.4</ele>
        <time>2025-04-05T07:56:10Z</time>
      </trkpt>
      <trkpt lat="50.26992" lon="4.81557">
        <ele>145.4</ele>
        <time>2025-04-05T07:56:11Z</time>
      </trkpt>
      <trkpt lat="50.2699" lon="4.81569">
        <ele>145.4</ele>
        <time>2025-04-05T07:56:12Z</time>
      </trkpt>
      <trkpt lat="50.26988" lon="4.81579">
        <ele>145.2</ele>
        <time>2025-04-05T07:56:13Z</time>
      </trkpt>
      <trkpt lat="50.26985" lon="4.81588">
        <ele>145.2</ele>
        <time>2025-04-05T07:56:14Z</time>
      </trkpt>
      <trkpt lat="50.26981" lon="4.81594">
        <ele>145.4</ele>
        <time>2025-04-05T07:56:15Z</time>
      </trkpt>
      <trkpt lat="50.26977" lon="4.816">
        <ele>145.4</ele>
        <time>2025-04-05T07:56:16Z</time>
      </trkpt>
      <trkpt lat="50.26973" lon="4.81604">
        <ele>145.6</ele>
        <time>2025-04-05T07:56:17Z</time>
      </trkpt>
      <trkpt lat="50.26966" lon="4.81607">
        <ele>145.8</ele>
        <time>2025-04-05T07:56:18Z</time>
      </trkpt>
      <trkpt lat="50.26962" lon="4.81611">
        <ele>146</ele>
        <time>2025-04-05T07:56:19Z</time>
      </trkpt>
      <trkpt lat="50.26957" lon="4.81613">
        <ele>146</ele>
        <time>2025-04-05T07:56:20Z</time>
      </trkpt>
      <trkpt lat="50.2695" lon="4.81617">
        <ele>146.2</ele>
        <time>2025-04-05T07:56:21Z</time>
      </trkpt>
      <trkpt lat="50.26945" lon="4.81621">
        <ele>146.2</ele>
        <time>2025-04-05T07:56:22Z</time>
      </trkpt>
      <trkpt lat="50.26939" lon="4.81624">
        <ele>146.4</ele>
        <time>2025-04-05T07:56:23Z</time>
      </trkpt>
      <trkpt lat="50.26934" lon="4.81629">
        <ele>146.4</ele>
        <time>2025-04-05T07:56:24Z</time>
      </trkpt>
      <trkpt lat="50.2693" lon="4.81634">
        <ele>146.4</ele>
        <time>2025-04-05T07:56:25Z</time>
      </trkpt>
      <trkpt lat="50.26925" lon="4.81638">
        <ele>146.4</ele>
        <time>2025-04-05T07:56:26Z</time>
      </trkpt>
      <trkpt lat="50.2692" lon="4.81642">
        <ele>146.4</ele>
        <time>2025-04-05T07:56:27Z</time>
      </trkpt>
      <trkpt lat="50.26916" lon="4.81645">
        <ele>146.2</ele>
        <time>2025-04-05T07:56:28Z</time>
      </trkpt>
      <trkpt lat="50.26911" lon="4.81649">
        <ele>146.2</ele>
        <time>2025-04-05T07:56:29Z</time>
      </trkpt>
      <trkpt lat="50.26905" lon="4.81654">
        <ele>146.2</ele>
        <time>2025-04-05T07:56:30Z</time>
      </trkpt>
      <trkpt lat="50.26901" lon="4.81657">
        <ele>146.2</ele>
        <time>2025-04-05T07:56:31Z</time>
      </trkpt>
      <trkpt lat="50.26896" lon="4.81661">
        <ele>146.2</ele>
        <time>2025-04-05T07:56:32Z</time>
      </trkpt>
      <trkpt lat="50.26889" lon="4.81667">
        <ele>146.2</ele>
        <time>2025-04-05T07:56:33Z</time>
      </trkpt>
      <trkpt lat="50.26883" lon="4.81671">
        <ele>146.2</ele>
        <time>2025-04-05T07:56:34Z</time>
      </trkpt>
      <trkpt lat="50.26877" lon="4.81675">
        <ele>146.2</ele>
        <time>2025-04-05T07:56:35Z</time>
      </trkpt>
      <trkpt lat="50.26872" lon="4.81679">
        <ele>146.2</ele>
        <time>2025-04-05T07:56:36Z</time>
      </trkpt>
      <trkpt lat="50.26867" lon="4.81682">
        <ele>146.4</ele>
        <time>2025-04-05T07:56:37Z</time>
      </trkpt>
      <trkpt lat="50.26859" lon="4.81686">
        <ele>146.4</ele>
        <time>2025-04-05T07:56:38Z</time>
      </trkpt>
      <trkpt lat="50.26854" lon="4.81691">
        <ele>146.4</ele>
        <time>2025-04-05T07:56:39Z</time>
      </trkpt>
      <trkpt lat="50.26847" lon="4.81695">
        <ele>146.4</ele>
        <time>2025-04-05T07:56:40Z</time>
      </trkpt>
      <trkpt lat="50.26842" lon="4.81699">
        <ele>146.6</ele>
        <time>2025-04-05T07:56:41Z</time>
      </trkpt>
      <trkpt lat="50.26837" lon="4.81702">
        <ele>146.6</ele>
        <time>2025-04-05T07:56:42Z</time>
      </trkpt>
      <trkpt lat="50.26831" lon="4.81704">
        <ele>146.6</ele>
        <time>2025-04-05T07:56:43Z</time>
      </trkpt>
      <trkpt lat="50.26825" lon="4.81707">
        <ele>146.8</ele>
        <time>2025-04-05T07:56:44Z</time>
      </trkpt>
      <trkpt lat="50.2682" lon="4.8171">
        <ele>147</ele>
        <time>2025-04-05T07:56:45Z</time>
      </trkpt>
      <trkpt lat="50.26814" lon="4.81713">
        <ele>147</ele>
        <time>2025-04-05T07:56:46Z</time>
      </trkpt>
      <trkpt lat="50.2681" lon="4.81717">
        <ele>147.2</ele>
        <time>2025-04-05T07:56:47Z</time>
      </trkpt>
      <trkpt lat="50.26805" lon="4.8172">
        <ele>147.2</ele>
        <time>2025-04-05T07:56:48Z</time>
      </trkpt>
      <trkpt lat="50.26801" lon="4.81723">
        <ele>147.4</ele>
        <time>2025-04-05T07:56:49Z</time>
      </trkpt>
      <trkpt lat="50.26796" lon="4.81726">
        <ele>147.4</ele>
        <time>2025-04-05T07:56:50Z</time>
      </trkpt>
      <trkpt lat="50.26792" lon="4.81728">
        <ele>147.6</ele>
        <time>2025-04-05T07:56:51Z</time>
      </trkpt>
      <trkpt lat="50.26788" lon="4.8173">
        <ele>147.6</ele>
        <time>2025-04-05T07:56:52Z</time>
      </trkpt>
      <trkpt lat="50.26784" lon="4.81732">
        <ele>147.8</ele>
        <time>2025-04-05T07:56:53Z</time>
      </trkpt>
      <trkpt lat="50.2678" lon="4.81733">
        <ele>148</ele>
        <time>2025-04-05T07:56:54Z</time>
      </trkpt>
      <trkpt lat="50.26775" lon="4.81736">
        <ele>148</ele>
        <time>2025-04-05T07:56:55Z</time>
      </trkpt>
      <trkpt lat="50.2677" lon="4.81738">
        <ele>148</ele>
        <time>2025-04-05T07:56:56Z</time>
      </trkpt>
      <trkpt lat="50.26766" lon="4.81739">
        <ele>148</ele>
        <time>2025-04-05T07:56:57Z</time>
      </trkpt>
      <trkpt lat="50.26763" lon="4.8174">
        <ele>148.2</ele>
        <time>2025-04-05T07:56:58Z</time>
      </trkpt>
      <trkpt lat="50.26758" lon="4.81741">
        <ele>148.2</ele>
        <time>2025-04-05T07:56:59Z</time>
      </trkpt>
      <trkpt lat="50.26753" lon="4.81743">
        <ele>148.2</ele>
        <time>2025-04-05T07:57:00Z</time>
      </trkpt>
      <trkpt lat="50.26748" lon="4.81744">
        <ele>148.2</ele>
        <time>2025-04-05T07:57:01Z</time>
      </trkpt>
      <trkpt lat="50.26743" lon="4.81744">
        <ele>148.2</ele>
        <time>2025-04-05T07:57:02Z</time>
      </trkpt>
      <trkpt lat="50.26738" lon="4.81744">
        <ele>148.2</ele>
        <time>2025-04-05T07:57:03Z</time>
      </trkpt>
      <trkpt lat="50.26733" lon="4.81744">
        <ele>148.2</ele>
        <time>2025-04-05T07:57:04Z</time>
      </trkpt>
      <trkpt lat="50.26727" lon="4.81743">
        <ele>148.4</ele>
        <time>2025-04-05T07:57:05Z</time>
      </trkpt>
      <trkpt lat="50.26721" lon="4.81744">
        <ele>148.4</ele>
        <time>2025-04-05T07:57:06Z</time>
      </trkpt>
      <trkpt lat="50.26715" lon="4.81744">
        <ele>148.4</ele>
        <time>2025-04-05T07:57:07Z</time>
      </trkpt>
      <trkpt lat="50.26708" lon="4.81744">
        <ele>148.4</ele>
        <time>2025-04-05T07:57:08Z</time>
      </trkpt>
      <trkpt lat="50.26702" lon="4.81743">
        <ele>148.4</ele>
        <time>2025-04-05T07:57:09Z</time>
      </trkpt>
      <trkpt lat="50.26697" lon="4.81742">
        <ele>148.6</ele>
        <time>2025-04-05T07:57:10Z</time>
      </trkpt>
      <trkpt lat="50.26692" lon="4.81742">
        <ele>148.6</ele>
        <time>2025-04-05T07:57:11Z</time>
      </trkpt>
      <trkpt lat="50.26685" lon="4.81741">
        <ele>148.8</ele>
        <time>2025-04-05T07:57:12Z</time>
      </trkpt>
      <trkpt lat="50.26679" lon="4.81742">
        <ele>148.8</ele>
        <time>2025-04-05T07:57:13Z</time>
      </trkpt>
      <trkpt lat="50.26672" lon="4.81741">
        <ele>149</ele>
        <time>2025-04-05T07:57:14Z</time>
      </trkpt>
      <trkpt lat="50.26666" lon="4.81741">
        <ele>149</ele>
        <time>2025-04-05T07:57:15Z</time>
      </trkpt>
      <trkpt lat="50.26661" lon="4.81743">
        <ele>149.2</ele>
        <time>2025-04-05T07:57:16Z</time>
      </trkpt>
      <trkpt lat="50.26656" lon="4.81743">
        <ele>149.2</ele>
        <time>2025-04-05T07:57:17Z</time>
      </trkpt>
      <trkpt lat="50.2665" lon="4.81743">
        <ele>149.4</ele>
        <time>2025-04-05T07:57:18Z</time>
      </trkpt>
      <trkpt lat="50.26644" lon="4.81743">
        <ele>149.4</ele>
        <time>2025-04-05T07:57:19Z</time>
      </trkpt>
      <trkpt lat="50.26638" lon="4.81742">
        <ele>149.4</ele>
        <time>2025-04-05T07:57:20Z</time>
      </trkpt>
      <trkpt lat="50.26632" lon="4.81741">
        <ele>149.6</ele>
        <time>2025-04-05T07:57:21Z</time>
      </trkpt>
      <trkpt lat="50.26627" lon="4.81741">
        <ele>149.6</ele>
        <time>2025-04-05T07:57:22Z</time>
      </trkpt>
      <trkpt lat="50.26621" lon="4.8174">
        <ele>149.6</ele>
        <time>2025-04-05T07:57:23Z</time>
      </trkpt>
      <trkpt lat="50.26616" lon="4.81741">
        <ele>149.8</ele>
        <time>2025-04-05T07:57:24Z</time>
      </trkpt>
      <trkpt lat="50.26611" lon="4.81741">
        <ele>149.8</ele>
        <time>2025-04-05T07:57:25Z</time>
      </trkpt>
      <trkpt lat="50.26605" lon="4.81741">
        <ele>149.8</ele>
        <time>2025-04-05T07:57:26Z</time>
      </trkpt>
      <trkpt lat="50.266" lon="4.81741">
        <ele>150</ele>
        <time>2025-04-05T07:57:27Z</time>
      </trkpt>
      <trkpt lat="50.26595" lon="4.81741">
        <ele>150</ele>
        <time>2025-04-05T07:57:28Z</time>
      </trkpt>
      <trkpt lat="50.26589" lon="4.81741">
        <ele>150</ele>
        <time>2025-04-05T07:57:29Z</time>
      </trkpt>
      <trkpt lat="50.26584" lon="4.81741">
        <ele>150.2</ele>
        <time>2025-04-05T07:57:30Z</time>
      </trkpt>
      <trkpt lat="50.26579" lon="4.81741">
        <ele>150.2</ele>
        <time>2025-04-05T07:57:31Z</time>
      </trkpt>
      <trkpt lat="50.26573" lon="4.8174">
        <ele>150.4</ele>
        <time>2025-04-05T07:57:32Z</time>
      </trkpt>
      <trkpt lat="50.26568" lon="4.8174">
        <ele>150.6</ele>
        <time>2025-04-05T07:57:33Z</time>
      </trkpt>
      <trkpt lat="50.26563" lon="4.8174">
        <ele>150.6</ele>
        <time>2025-04-05T07:57:34Z</time>
      </trkpt>
      <trkpt lat="50.26559" lon="4.8174">
        <ele>150.8</ele>
        <time>2025-04-05T07:57:35Z</time>
      </trkpt>
      <trkpt lat="50.26553" lon="4.8174">
        <ele>150.8</ele>
        <time>2025-04-05T07:57:36Z</time>
      </trkpt>
      <trkpt lat="50.26548" lon="4.8174">
        <ele>151</ele>
        <time>2025-04-05T07:57:37Z</time>
      </trkpt>
      <trkpt lat="50.26542" lon="4.8174">
        <ele>151.2</ele>
        <time>2025-04-05T07:57:38Z</time>
      </trkpt>
      <trkpt lat="50.26537" lon="4.8174">
        <ele>151.4</ele>
        <time>2025-04-05T07:57:39Z</time>
      </trkpt>
      <trkpt lat="50.26532" lon="4.8174">
        <ele>151.4</ele>
        <time>2025-04-05T07:57:40Z</time>
      </trkpt>
      <trkpt lat="50.26527" lon="4.81741">
        <ele>151.4</ele>
        <time>2025-04-05T07:57:41Z</time>
      </trkpt>
      <trkpt lat="50.26522" lon="4.81741">
        <ele>151.6</ele>
        <time>2025-04-05T07:57:42Z</time>
      </trkpt>
      <trkpt lat="50.26517" lon="4.81741">
        <ele>151.6</ele>
        <time>2025-04-05T07:57:43Z</time>
      </trkpt>
      <trkpt lat="50.26511" lon="4.81741">
        <ele>151.8</ele>
        <time>2025-04-05T07:57:44Z</time>
      </trkpt>
      <trkpt lat="50.26506" lon="4.8174">
        <ele>151.8</ele>
        <time>2025-04-05T07:57:45Z</time>
      </trkpt>
      <trkpt lat="50.26502" lon="4.8174">
        <ele>152</ele>
        <time>2025-04-05T07:57:46Z</time>
      </trkpt>
      <trkpt lat="50.26497" lon="4.8174">
        <ele>152</ele>
        <time>2025-04-05T07:57:47Z</time>
      </trkpt>
      <trkpt lat="50.26492" lon="4.8174">
        <ele>152.2</ele>
        <time>2025-04-05T07:57:48Z</time>
      </trkpt>
      <trkpt lat="50.26488" lon="4.8174">
        <ele>152.4</ele>
        <time>2025-04-05T07:57:49Z</time>
      </trkpt>
      <trkpt lat="50.26483" lon="4.8174">
        <ele>152.6</ele>
        <time>2025-04-05T07:57:50Z</time>
      </trkpt>
      <trkpt lat="50.26479" lon="4.8174">
        <ele>152.8</ele>
        <time>2025-04-05T07:57:51Z</time>
      </trkpt>
      <trkpt lat="50.26475" lon="4.8174">
        <ele>153</ele>
        <time>2025-04-05T07:57:52Z</time>
      </trkpt>
      <trkpt lat="50.26471" lon="4.81739">
        <ele>153.2</ele>
        <time>2025-04-05T07:57:53Z</time>
      </trkpt>
      <trkpt lat="50.26466" lon="4.81739">
        <ele>153.4</ele>
        <time>2025-04-05T07:57:54Z</time>
      </trkpt>
      <trkpt lat="50.26462" lon="4.81739">
        <ele>153.6</ele>
        <time>2025-04-05T07:57:55Z</time>
      </trkpt>
      <trkpt lat="50.26458" lon="4.8174">
        <ele>153.8</ele>
        <time>2025-04-05T07:57:56Z</time>
      </trkpt>
      <trkpt lat="50.26455" lon="4.81742">
        <ele>154</ele>
        <time>2025-04-05T07:57:57Z</time>
      </trkpt>
      <trkpt lat="50.2645" lon="4.81743">
        <ele>154.2</ele>
        <time>2025-04-05T07:57:58Z</time>
      </trkpt>
      <trkpt lat="50.26445" lon="4.81744">
        <ele>154.4</ele>
        <time>2025-04-05T07:57:59Z</time>
      </trkpt>
      <trkpt lat="50.26441" lon="4.81747">
        <ele>154.6</ele>
        <time>2025-04-05T07:58:00Z</time>
      </trkpt>
      <trkpt lat="50.26438" lon="4.81751">
        <ele>154.8</ele>
        <time>2025-04-05T07:58:01Z</time>
      </trkpt>
      <trkpt lat="50.26435" lon="4.81756">
        <ele>155</ele>
        <time>2025-04-05T07:58:02Z</time>
      </trkpt>
      <trkpt lat="50.26433" lon="4.81762">
        <ele>155.2</ele>
        <time>2025-04-05T07:58:03Z</time>
      </trkpt>
      <trkpt lat="50.26431" lon="4.81768">
        <ele>155.2</ele>
        <time>2025-04-05T07:58:04Z</time>
      </trkpt>
      <trkpt lat="50.26429" lon="4.81775">
        <ele>155.4</ele>
        <time>2025-04-05T07:58:05Z</time>
      </trkpt>
      <trkpt lat="50.26428" lon="4.81781">
        <ele>155.6</ele>
        <time>2025-04-05T07:58:06Z</time>
      </trkpt>
      <trkpt lat="50.26427" lon="4.81788">
        <ele>155.6</ele>
        <time>2025-04-05T07:58:07Z</time>
      </trkpt>
      <trkpt lat="50.26427" lon="4.81796">
        <ele>155.8</ele>
        <time>2025-04-05T07:58:08Z</time>
      </trkpt>
      <trkpt lat="50.26426" lon="4.81802">
        <ele>156</ele>
        <time>2025-04-05T07:58:09Z</time>
      </trkpt>
      <trkpt lat="50.26426" lon="4.81808">
        <ele>156.2</ele>
        <time>2025-04-05T07:58:10Z</time>
      </trkpt>
      <trkpt lat="50.26425" lon="4.81815">
        <ele>156.4</ele>
        <time>2025-04-05T07:58:11Z</time>
      </trkpt>
      <trkpt lat="50.26425" lon="4.81821">
        <ele>156.6</ele>
        <time>2025-04-05T07:58:12Z</time>
      </trkpt>
      <trkpt lat="50.26425" lon="4.81827">
        <ele>156.8</ele>
        <time>2025-04-05T07:58:13Z</time>
      </trkpt>
      <trkpt lat="50.26424" lon="4.81833">
        <ele>157</ele>
        <time>2025-04-05T07:58:14Z</time>
      </trkpt>
      <trkpt lat="50.26424" lon="4.81839">
        <ele>157.2</ele>
        <time>2025-04-05T07:58:15Z</time>
      </trkpt>
      <trkpt lat="50.26424" lon="4.81844">
        <ele>157.4</ele>
        <time>2025-04-05T07:58:16Z</time>
      </trkpt>
      <trkpt lat="50.26424" lon="4.8185">
        <ele>157.6</ele>
        <time>2025-04-05T07:58:17Z</time>
      </trkpt>
      <trkpt lat="50.26424" lon="4.81855">
        <ele>158</ele>
        <time>2025-04-05T07:58:18Z</time>
      </trkpt>
      <trkpt lat="50.26424" lon="4.8186">
        <ele>158.2</ele>
        <time>2025-04-05T07:58:19Z</time>
      </trkpt>
      <trkpt lat="50.26423" lon="4.81866">
        <ele>158.4</ele>
        <time>2025-04-05T07:58:20Z</time>
      </trkpt>
      <trkpt lat="50.26423" lon="4.81871">
        <ele>158.8</ele>
        <time>2025-04-05T07:58:21Z</time>
      </trkpt>
      <trkpt lat="50.26423" lon="4.81875">
        <ele>159</ele>
        <time>2025-04-05T07:58:22Z</time>
      </trkpt>
      <trkpt lat="50.26422" lon="4.81879">
        <ele>159.2</ele>
        <time>2025-04-05T07:58:23Z</time>
      </trkpt>
      <trkpt lat="50.26421" lon="4.81883">
        <ele>159.6</ele>
        <time>2025-04-05T07:58:24Z</time>
      </trkpt>
      <trkpt lat="50.26421" lon="4.81886">
        <ele>159.8</ele>
        <time>2025-04-05T07:58:25Z</time>
      </trkpt>
      <trkpt lat="50.2642" lon="4.81889">
        <ele>160.2</ele>
        <time>2025-04-05T07:58:26Z</time>
      </trkpt>
      <trkpt lat="50.2642" lon="4.81892">
        <ele>160.4</ele>
        <time>2025-04-05T07:58:27Z</time>
      </trkpt>
      <trkpt lat="50.26419" lon="4.81896">
        <ele>160.6</ele>
        <time>2025-04-05T07:58:28Z</time>
      </trkpt>
      <trkpt lat="50.26418" lon="4.81899">
        <ele>161</ele>
        <time>2025-04-05T07:58:29Z</time>
      </trkpt>
      <trkpt lat="50.26417" lon="4.81902">
        <ele>161.2</ele>
        <time>2025-04-05T07:58:30Z</time>
      </trkpt>
      <trkpt lat="50.26416" lon="4.81904">
        <ele>161.4</ele>
        <time>2025-04-05T07:58:31Z</time>
      </trkpt>
      <trkpt lat="50.26415" lon="4.81907">
        <ele>161.8</ele>
        <time>2025-04-05T07:58:32Z</time>
      </trkpt>
      <trkpt lat="50.26414" lon="4.81911">
        <ele>162</ele>
        <time>2025-04-05T07:58:33Z</time>
      </trkpt>
      <trkpt lat="50.26412" lon="4.81916">
        <ele>162.2</ele>
        <time>2025-04-05T07:58:34Z</time>
      </trkpt>
      <trkpt lat="50.26411" lon="4.81919">
        <ele>162.4</ele>
        <time>2025-04-05T07:58:35Z</time>
      </trkpt>
      <trkpt lat="50.26409" lon="4.81923">
        <ele>162.8</ele>
        <time>2025-04-05T07:58:36Z</time>
      </trkpt>
      <trkpt lat="50.26407" lon="4.81927">
        <ele>163</ele>
        <time>2025-04-05T07:58:37Z</time>
      </trkpt>
      <trkpt lat="50.26405" lon="4.81931">
        <ele>163.2</ele>
        <time>2025-04-05T07:58:38Z</time>
      </trkpt>
      <trkpt lat="50.26404" lon="4.81934">
        <ele>163.6</ele>
        <time>2025-04-05T07:58:39Z</time>
      </trkpt>
      <trkpt lat="50.26403" lon="4.81938">
        <ele>163.8</ele>
        <time>2025-04-05T07:58:40Z</time>
      </trkpt>
      <trkpt lat="50.26402" lon="4.8194">
        <ele>164</ele>
        <time>2025-04-05T07:58:41Z</time>
      </trkpt>
      <trkpt lat="50.264" lon="4.81944">
        <ele>164.4</ele>
        <time>2025-04-05T07:58:42Z</time>
      </trkpt>
      <trkpt lat="50.26399" lon="4.8195">
        <ele>164.6</ele>
        <time>2025-04-05T07:58:43Z</time>
      </trkpt>
      <trkpt lat="50.26398" lon="4.81953">
        <ele>164.8</ele>
        <time>2025-04-05T07:58:44Z</time>
      </trkpt>
      <trkpt lat="50.26397" lon="4.8196">
        <ele>165</ele>
        <time>2025-04-05T07:58:45Z</time>
      </trkpt>
      <trkpt lat="50.26396" lon="4.81965">
        <ele>165.4</ele>
        <time>2025-04-05T07:58:46Z</time>
      </trkpt>
      <trkpt lat="50.26395" lon="4.81968">
        <ele>165.6</ele>
        <time>2025-04-05T07:58:47Z</time>
      </trkpt>
      <trkpt lat="50.26394" lon="4.81974">
        <ele>165.8</ele>
        <time>2025-04-05T07:58:48Z</time>
      </trkpt>
      <trkpt lat="50.26392" lon="4.81978">
        <ele>166</ele>
        <time>2025-04-05T07:58:49Z</time>
      </trkpt>
      <trkpt lat="50.26391" lon="4.81985">
        <ele>166.2</ele>
        <time>2025-04-05T07:58:50Z</time>
      </trkpt>
      <trkpt lat="50.26389" lon="4.81991">
        <ele>166.4</ele>
        <time>2025-04-05T07:58:51Z</time>
      </trkpt>
      <trkpt lat="50.26387" lon="4.81996">
        <ele>166.6</ele>
        <time>2025-04-05T07:58:52Z</time>
      </trkpt>
      <trkpt lat="50.26386" lon="4.82001">
        <ele>166.8</ele>
        <time>2025-04-05T07:58:53Z</time>
      </trkpt>
      <trkpt lat="50.26385" lon="4.82007">
        <ele>167</ele>
        <time>2025-04-05T07:58:54Z</time>
      </trkpt>
      <trkpt lat="50.26384" lon="4.82014">
        <ele>167.2</ele>
        <time>2025-04-05T07:58:55Z</time>
      </trkpt>
      <trkpt lat="50.26383" lon="4.8202">
        <ele>167.4</ele>
        <time>2025-04-05T07:58:56Z</time>
      </trkpt>
      <trkpt lat="50.26381" lon="4.82025">
        <ele>167.6</ele>
        <time>2025-04-05T07:58:57Z</time>
      </trkpt>
      <trkpt lat="50.26379" lon="4.82031">
        <ele>167.8</ele>
        <time>2025-04-05T07:58:58Z</time>
      </trkpt>
      <trkpt lat="50.26378" lon="4.82035">
        <ele>168</ele>
        <time>2025-04-05T07:58:59Z</time>
      </trkpt>
      <trkpt lat="50.26378" lon="4.82039">
        <ele>168.4</ele>
        <time>2025-04-05T07:59:00Z</time>
      </trkpt>
      <trkpt lat="50.26376" lon="4.82043">
        <ele>168.6</ele>
        <time>2025-04-05T07:59:01Z</time>
      </trkpt>
      <trkpt lat="50.26373" lon="4.82048">
        <ele>168.8</ele>
        <time>2025-04-05T07:59:02Z</time>
      </trkpt>
      <trkpt lat="50.26372" lon="4.82053">
        <ele>169</ele>
        <time>2025-04-05T07:59:03Z</time>
      </trkpt>
      <trkpt lat="50.26371" lon="4.82059">
        <ele>169.2</ele>
        <time>2025-04-05T07:59:04Z</time>
      </trkpt>
      <trkpt lat="50.26369" lon="4.82063">
        <ele>169.4</ele>
        <time>2025-04-05T07:59:05Z</time>
      </trkpt>
      <trkpt lat="50.26365" lon="4.8207">
        <ele>169.6</ele>
        <time>2025-04-05T07:59:06Z</time>
      </trkpt>
      <trkpt lat="50.26364" lon="4.82074">
        <ele>169.8</ele>
        <time>2025-04-05T07:59:07Z</time>
      </trkpt>
      <trkpt lat="50.26362" lon="4.82079">
        <ele>170</ele>
        <time>2025-04-05T07:59:08Z</time>
      </trkpt>
      <trkpt lat="50.26357" lon="4.82083">
        <ele>170.4</ele>
        <time>2025-04-05T07:59:09Z</time>
      </trkpt>
      <trkpt lat="50.26354" lon="4.82088">
        <ele>170.6</ele>
        <time>2025-04-05T07:59:10Z</time>
      </trkpt>
      <trkpt lat="50.26354" lon="4.82092">
        <ele>170.8</ele>
        <time>2025-04-05T07:59:11Z</time>
      </trkpt>
      <trkpt lat="50.26354" lon="4.82096">
        <ele>170.8</ele>
        <time>2025-04-05T07:59:12Z</time>
      </trkpt>
      <trkpt lat="50.26353" lon="4.82099">
        <ele>171</ele>
        <time>2025-04-05T07:59:13Z</time>
      </trkpt>
      <trkpt lat="50.26352" lon="4.82103">
        <ele>171.2</ele>
        <time>2025-04-05T07:59:14Z</time>
      </trkpt>
      <trkpt lat="50.26349" lon="4.82108">
        <ele>171.4</ele>
        <time>2025-04-05T07:59:15Z</time>
      </trkpt>
      <trkpt lat="50.26346" lon="4.82115">
        <ele>171.6</ele>
        <time>2025-04-05T07:59:16Z</time>
      </trkpt>
      <trkpt lat="50.26345" lon="4.82119">
        <ele>171.8</ele>
        <time>2025-04-05T07:59:17Z</time>
      </trkpt>
      <trkpt lat="50.26344" lon="4.82123">
        <ele>172</ele>
        <time>2025-04-05T07:59:18Z</time>
      </trkpt>
      <trkpt lat="50.26344" lon="4.82128">
        <ele>172.2</ele>
        <time>2025-04-05T07:59:19Z</time>
      </trkpt>
      <trkpt lat="50.26342" lon="4.82133">
        <ele>172.4</ele>
        <time>2025-04-05T07:59:20Z</time>
      </trkpt>
      <trkpt lat="50.26342" lon="4.82138">
        <ele>172.6</ele>
        <time>2025-04-05T07:59:21Z</time>
      </trkpt>
      <trkpt lat="50.26339" lon="4.82143">
        <ele>172.8</ele>
        <time>2025-04-05T07:59:22Z</time>
      </trkpt>
      <trkpt lat="50.26337" lon="4.82148">
        <ele>173.2</ele>
        <time>2025-04-05T07:59:23Z</time>
      </trkpt>
      <trkpt lat="50.26334" lon="4.82154">
        <ele>173.4</ele>
        <time>2025-04-05T07:59:24Z</time>
      </trkpt>
      <trkpt lat="50.26332" lon="4.82161">
        <ele>173.6</ele>
        <time>2025-04-05T07:59:25Z</time>
      </trkpt>
      <trkpt lat="50.2633" lon="4.82167">
        <ele>173.8</ele>
        <time>2025-04-05T07:59:26Z</time>
      </trkpt>
      <trkpt lat="50.26328" lon="4.82174">
        <ele>174</ele>
        <time>2025-04-05T07:59:27Z</time>
      </trkpt>
      <trkpt lat="50.26327" lon="4.82181">
        <ele>174.2</ele>
        <time>2025-04-05T07:59:28Z</time>
      </trkpt>
      <trkpt lat="50.26326" lon="4.82188">
        <ele>174.4</ele>
        <time>2025-04-05T07:59:29Z</time>
      </trkpt>
      <trkpt lat="50.26326" lon="4.82194">
        <ele>174.6</ele>
        <time>2025-04-05T07:59:30Z</time>
      </trkpt>
      <trkpt lat="50.26326" lon="4.82199">
        <ele>175</ele>
        <time>2025-04-05T07:59:31Z</time>
      </trkpt>
      <trkpt lat="50.26329" lon="4.82203">
        <ele>175.2</ele>
        <time>2025-04-05T07:59:32Z</time>
      </trkpt>
      <trkpt lat="50.26329" lon="4.8221">
        <ele>175.4</ele>
        <time>2025-04-05T07:59:33Z</time>
      </trkpt>
      <trkpt lat="50.26328" lon="4.82217">
        <ele>175.6</ele>
        <time>2025-04-05T07:59:34Z</time>
      </trkpt>
      <trkpt lat="50.26327" lon="4.82223">
        <ele>175.8</ele>
        <time>2025-04-05T07:59:35Z</time>
      </trkpt>
      <trkpt lat="50.26326" lon="4.82228">
        <ele>176</ele>
        <time>2025-04-05T07:59:36Z</time>
      </trkpt>
      <trkpt lat="50.26326" lon="4.82234">
        <ele>176.2</ele>
        <time>2025-04-05T07:59:37Z</time>
      </trkpt>
      <trkpt lat="50.2633" lon="4.82238">
        <ele>176.4</ele>
        <time>2025-04-05T07:59:38Z</time>
      </trkpt>
      <trkpt lat="50.26329" lon="4.82245">
        <ele>176.8</ele>
        <time>2025-04-05T07:59:39Z</time>
      </trkpt>
      <trkpt lat="50.26329" lon="4.8225">
        <ele>177</ele>
        <time>2025-04-05T07:59:40Z</time>
      </trkpt>
      <trkpt lat="50.26329" lon="4.82256">
        <ele>177.2</ele>
        <time>2025-04-05T07:59:41Z</time>
      </trkpt>
      <trkpt lat="50.26329" lon="4.82261">
        <ele>177.4</ele>
        <time>2025-04-05T07:59:42Z</time>
      </trkpt>
      <trkpt lat="50.26329" lon="4.82266">
        <ele>177.6</ele>
        <time>2025-04-05T07:59:43Z</time>
      </trkpt>
      <trkpt lat="50.2633" lon="4.8227">
        <ele>177.8</ele>
        <time>2025-04-05T07:59:44Z</time>
      </trkpt>
      <trkpt lat="50.26331" lon="4.82274">
        <ele>178</ele>
        <time>2025-04-05T07:59:45Z</time>
      </trkpt>
      <trkpt lat="50.26331" lon="4.82279">
        <ele>178.4</ele>
        <time>2025-04-05T07:59:46Z</time>
      </trkpt>
      <trkpt lat="50.26331" lon="4.82285">
        <ele>178.6</ele>
        <time>2025-04-05T07:59:47Z</time>
      </trkpt>
      <trkpt lat="50.26331" lon="4.8229">
        <ele>178.8</ele>
        <time>2025-04-05T07:59:48Z</time>
      </trkpt>
      <trkpt lat="50.26331" lon="4.82294">
        <ele>178.8</ele>
        <time>2025-04-05T07:59:49Z</time>
      </trkpt>
      <trkpt lat="50.26332" lon="4.823">
        <ele>179</ele>
        <time>2025-04-05T07:59:50Z</time>
      </trkpt>
      <trkpt lat="50.26333" lon="4.82305">
        <ele>179.2</ele>
        <time>2025-04-05T07:59:51Z</time>
      </trkpt>
      <trkpt lat="50.26333" lon="4.8231">
        <ele>179.4</ele>
        <time>2025-04-05T07:59:52Z</time>
      </trkpt>
      <trkpt lat="50.26333" lon="4.82314">
        <ele>179.6</ele>
        <time>2025-04-05T07:59:53Z</time>
      </trkpt>
      <trkpt lat="50.26334" lon="4.8232">
        <ele>179.8</ele>
        <time>2025-04-05T07:59:54Z</time>
      </trkpt>
      <trkpt lat="50.26334" lon="4.82325">
        <ele>180</ele>
        <time>2025-04-05T07:59:55Z</time>
      </trkpt>
      <trkpt lat="50.26334" lon="4.82331">
        <ele>180.2</ele>
        <time>2025-04-05T07:59:56Z</time>
      </trkpt>
      <trkpt lat="50.26333" lon="4.82336">
        <ele>180.4</ele>
        <time>2025-04-05T07:59:57Z</time>
      </trkpt>
      <trkpt lat="50.26333" lon="4.82341">
        <ele>180.4</ele>
        <time>2025-04-05T07:59:58Z</time>
      </trkpt>
      <trkpt lat="50.26333" lon="4.82347">
        <ele>180.6</ele>
        <time>2025-04-05T07:59:59Z</time>
      </trkpt>
      <trkpt lat="50.26333" lon="4.82352">
        <ele>180.8</ele>
        <time>2025-04-05T08:00:00Z</time>
      </trkpt>
      <trkpt lat="50.26333" lon="4.82357">
        <ele>181</ele>
        <time>2025-04-05T08:00:01Z</time>
      </trkpt>
      <trkpt lat="50.26332" lon="4.82362">
        <ele>181.2</ele>
        <time>2025-04-05T08:00:02Z</time>
      </trkpt>
      <trkpt lat="50.26332" lon="4.82367">
        <ele>181.4</ele>
        <time>2025-04-05T08:00:03Z</time>
      </trkpt>
      <trkpt lat="50.26331" lon="4.82372">
        <ele>181.6</ele>
        <time>2025-04-05T08:00:04Z</time>
      </trkpt>
      <trkpt lat="50.2633" lon="4.82376">
        <ele>181.8</ele>
        <time>2025-04-05T08:00:05Z</time>
      </trkpt>
      <trkpt lat="50.2633" lon="4.8238">
        <ele>181.8</ele>
        <time>2025-04-05T08:00:06Z</time>
      </trkpt>
      <trkpt lat="50.26329" lon="4.82383">
        <ele>182</ele>
        <time>2025-04-05T08:00:07Z</time>
      </trkpt>
      <trkpt lat="50.26329" lon="4.82387">
        <ele>182.4</ele>
        <time>2025-04-05T08:00:08Z</time>
      </trkpt>
      <trkpt lat="50.26328" lon="4.8239">
        <ele>182.6</ele>
        <time>2025-04-05T08:00:09Z</time>
      </trkpt>
      <trkpt lat="50.26326" lon="4.82393">
        <ele>182.8</ele>
        <time>2025-04-05T08:00:10Z</time>
      </trkpt>
      <trkpt lat="50.26326" lon="4.82396">
        <ele>183</ele>
        <time>2025-04-05T08:00:11Z</time>
      </trkpt>
      <trkpt lat="50.26325" lon="4.82399">
        <ele>183.2</ele>
        <time>2025-04-05T08:00:12Z</time>
      </trkpt>
      <trkpt lat="50.26323" lon="4.82403">
        <ele>183.4</ele>
        <time>2025-04-05T08:00:13Z</time>
      </trkpt>
      <trkpt lat="50.26323" lon="4.82406">
        <ele>183.6</ele>
        <time>2025-04-05T08:00:14Z</time>
      </trkpt>
      <trkpt lat="50.26322" lon="4.82409">
        <ele>183.8</ele>
        <time>2025-04-05T08:00:15Z</time>
      </trkpt>
      <trkpt lat="50.26321" lon="4.82412">
        <ele>184</ele>
        <time>2025-04-05T08:00:16Z</time>
      </trkpt>
      <trkpt lat="50.2632" lon="4.82415">
        <ele>184.4</ele>
        <time>2025-04-05T08:00:17Z</time>
      </trkpt>
      <trkpt lat="50.2632" lon="4.82418">
        <ele>184.6</ele>
        <time>2025-04-05T08:00:18Z</time>
      </trkpt>
      <trkpt lat="50.26318" lon="4.82422">
        <ele>184.8</ele>
        <time>2025-04-05T08:00:19Z</time>
      </trkpt>
      <trkpt lat="50.26317" lon="4.82426">
        <ele>185</ele>
        <time>2025-04-05T08:00:20Z</time>
      </trkpt>
      <trkpt lat="50.26316" lon="4.8243">
        <ele>185.2</ele>
        <time>2025-04-05T08:00:21Z</time>
      </trkpt>
      <trkpt lat="50.26315" lon="4.82434">
        <ele>185.6</ele>
        <time>2025-04-05T08:00:22Z</time>
      </trkpt>
      <trkpt lat="50.26315" lon="4.82437">
        <ele>185.8</ele>
        <time>2025-04-05T08:00:23Z</time>
      </trkpt>
      <trkpt lat="50.26313" lon="4.82442">
        <ele>186</ele>
        <time>2025-04-05T08:00:24Z</time>
      </trkpt>
      <trkpt lat="50.26312" lon="4.82446">
        <ele>186.2</ele>
        <time>2025-04-05T08:00:25Z</time>
      </trkpt>
      <trkpt lat="50.26311" lon="4.8245">
        <ele>186.4</ele>
        <time>2025-04-05T08:00:26Z</time>
      </trkpt>
      <trkpt lat="50.2631" lon="4.82454">
        <ele>186.8</ele>
        <time>2025-04-05T08:00:27Z</time>
      </trkpt>
      <trkpt lat="50.26309" lon="4.82458">
        <ele>187</ele>
        <time>2025-04-05T08:00:28Z</time>
      </trkpt>
      <trkpt lat="50.26308" lon="4.82461">
        <ele>187.2</ele>
        <time>2025-04-05T08:00:29Z</time>
      </trkpt>
      <trkpt lat="50.26308" lon="4.82466">
        <ele>187.4</ele>
        <time>2025-04-05T08:00:30Z</time>
      </trkpt>
      <trkpt lat="50.26308" lon="4.8247">
        <ele>187.8</ele>
        <time>2025-04-05T08:00:31Z</time>
      </trkpt>
      <trkpt lat="50.26308" lon="4.82474">
        <ele>188</ele>
        <time>2025-04-05T08:00:32Z</time>
      </trkpt>
      <trkpt lat="50.26306" lon="4.82478">
        <ele>188.2</ele>
        <time>2025-04-05T08:00:33Z</time>
      </trkpt>
      <trkpt lat="50.26305" lon="4.82483">
        <ele>188.6</ele>
        <time>2025-04-05T08:00:34Z</time>
      </trkpt>
      <trkpt lat="50.26304" lon="4.82487">
        <ele>188.8</ele>
        <time>2025-04-05T08:00:35Z</time>
      </trkpt>
      <trkpt lat="50.26302" lon="4.82491">
        <ele>189.2</ele>
        <time>2025-04-05T08:00:36Z</time>
      </trkpt>
      <trkpt lat="50.26301" lon="4.82494">
        <ele>189.4</ele>
        <time>2025-04-05T08:00:37Z</time>
      </trkpt>
      <trkpt lat="50.263" lon="4.82498">
        <ele>189.8</ele>
        <time>2025-04-05T08:00:38Z</time>
      </trkpt>
      <trkpt lat="50.26298" lon="4.82501">
        <ele>190</ele>
        <time>2025-04-05T08:00:39Z</time>
      </trkpt>
      <trkpt lat="50.26297" lon="4.82504">
        <ele>190.2</ele>
        <time>2025-04-05T08:00:40Z</time>
      </trkpt>
      <trkpt lat="50.26295" lon="4.82507">
        <ele>190.6</ele>
        <time>2025-04-05T08:00:41Z</time>
      </trkpt>
      <trkpt lat="50.26293" lon="4.82512">
        <ele>190.8</ele>
        <time>2025-04-05T08:00:42Z</time>
      </trkpt>
      <trkpt lat="50.26291" lon="4.82518">
        <ele>191</ele>
        <time>2025-04-05T08:00:43Z</time>
      </trkpt>
      <trkpt lat="50.26288" lon="4.82523">
        <ele>191.4</ele>
        <time>2025-04-05T08:00:44Z</time>
      </trkpt>
      <trkpt lat="50.26287" lon="4.82527">
        <ele>191.6</ele>
        <time>2025-04-05T08:00:45Z</time>
      </trkpt>
      <trkpt lat="50.26285" lon="4.8253">
        <ele>192</ele>
        <time>2025-04-05T08:00:46Z</time>
      </trkpt>
      <trkpt lat="50.26283" lon="4.82535">
        <ele>192.2</ele>
        <time>2025-04-05T08:00:47Z</time>
      </trkpt>
      <trkpt lat="50.26278" lon="4.82541">
        <ele>192.4</ele>
        <time>2025-04-05T08:00:48Z</time>
      </trkpt>
      <trkpt lat="50.26276" lon="4.82545">
        <ele>192.8</ele>
        <time>2025-04-05T08:00:49Z</time>
      </trkpt>
      <trkpt lat="50.26275" lon="4.82546">
        <ele>193</ele>
        <time>2025-04-05T08:00:50Z</time>
      </trkpt>
      <trkpt lat="50.26275" lon="4.82549">
        <ele>193.2</ele>
        <time>2025-04-05T08:00:51Z</time>
      </trkpt>
      <trkpt lat="50.26275" lon="4.82552">
        <ele>193.4</ele>
        <time>2025-04-05T08:00:52Z</time>
      </trkpt>
      <trkpt lat="50.26274" lon="4.82555">
        <ele>193.6</ele>
        <time>2025-04-05T08:00:53Z</time>
      </trkpt>
      <trkpt lat="50.26273" lon="4.82559">
        <ele>194</ele>
        <time>2025-04-05T08:00:54Z</time>
      </trkpt>
      <trkpt lat="50.26271" lon="4.82561">
        <ele>194.2</ele>
        <time>2025-04-05T08:00:55Z</time>
      </trkpt>
      <trkpt lat="50.26269" lon="4.82565">
        <ele>194.4</ele>
        <time>2025-04-05T08:00:56Z</time>
      </trkpt>
      <trkpt lat="50.26266" lon="4.82568">
        <ele>194.8</ele>
        <time>2025-04-05T08:00:57Z</time>
      </trkpt>
      <trkpt lat="50.26264" lon="4.82571">
        <ele>195</ele>
        <time>2025-04-05T08:00:58Z</time>
      </trkpt>
      <trkpt lat="50.26261" lon="4.82574">
        <ele>195.2</ele>
        <time>2025-04-05T08:00:59Z</time>
      </trkpt>
      <trkpt lat="50.26259" lon="4.82577">
        <ele>195.6</ele>
        <time>2025-04-05T08:01:00Z</time>
      </trkpt>
      <trkpt lat="50.26255" lon="4.82582">
        <ele>195.8</ele>
        <time>2025-04-05T08:01:01Z</time>
      </trkpt>
      <trkpt lat="50.26254" lon="4.82586">
        <ele>196</ele>
        <time>2025-04-05T08:01:02Z</time>
      </trkpt>
      <trkpt lat="50.26252" lon="4.82589">
        <ele>196.4</ele>
        <time>2025-04-05T08:01:03Z</time>
      </trkpt>
      <trkpt lat="50.26252" lon="4.82592">
        <ele>196.6</ele>
        <time>2025-04-05T08:01:04Z</time>
      </trkpt>
      <trkpt lat="50.26251" lon="4.82594">
        <ele>196.8</ele>
        <time>2025-04-05T08:01:05Z</time>
      </trkpt>
      <trkpt lat="50.2625" lon="4.82597">
        <ele>197.2</ele>
        <time>2025-04-05T08:01:06Z</time>
      </trkpt>
      <trkpt lat="50.26246" lon="4.82602">
        <ele>197.4</ele>
        <time>2025-04-05T08:01:07Z</time>
      </trkpt>
      <trkpt lat="50.26244" lon="4.82605">
        <ele>197.6</ele>
        <time>2025-04-05T08:01:08Z</time>
      </trkpt>
      <trkpt lat="50.26242" lon="4.82609">
        <ele>197.8</ele>
        <time>2025-04-05T08:01:09Z</time>
      </trkpt>
      <trkpt lat="50.2624" lon="4.82613">
        <ele>198.2</ele>
        <time>2025-04-05T08:01:10Z</time>
      </trkpt>
      <trkpt lat="50.26239" lon="4.82616">
        <ele>198.4</ele>
        <time>2025-04-05T08:01:11Z</time>
      </trkpt>
      <trkpt lat="50.26237" lon="4.82619">
        <ele>198.6</ele>
        <time>2025-04-05T08:01:12Z</time>
      </trkpt>
      <trkpt lat="50.26234" lon="4.82621">
        <ele>198.8</ele>
        <time>2025-04-05T08:01:13Z</time>
      </trkpt>
      <trkpt lat="50.26231" lon="4.82623">
        <ele>199</ele>
        <time>2025-04-05T08:01:14Z</time>
      </trkpt>
      <trkpt lat="50.26225" lon="4.82627">
        <ele>199.2</ele>
        <time>2025-04-05T08:01:15Z</time>
      </trkpt>
      <trkpt lat="50.26222" lon="4.82628">
        <ele>199.4</ele>
        <time>2025-04-05T08:01:16Z</time>
      </trkpt>
      <trkpt lat="50.26219" lon="4.82628">
        <ele>199.6</ele>
        <time>2025-04-05T08:01:17Z</time>
      </trkpt>
      <trkpt lat="50.26217" lon="4.8263">
        <ele>199.8</ele>
        <time>2025-04-05T08:01:18Z</time>
      </trkpt>
      <trkpt lat="50.26216" lon="4.8263">
        <ele>199.8</ele>
        <time>2025-04-05T08:01:19Z</time>
      </trkpt>
      <trkpt lat="50.26215" lon="4.8263">
        <ele>200</ele>
        <time>2025-04-05T08:01:20Z</time>
      </trkpt>
      <trkpt lat="50.26214" lon="4.8263">
        <ele>200.2</ele>
        <time>2025-04-05T08:01:21Z</time>
      </trkpt>
      <trkpt lat="50.26212" lon="4.8263">
        <ele>200.2</ele>
        <time>2025-04-05T08:01:22Z</time>
      </trkpt>
      <trkpt lat="50.26209" lon="4.8263">
        <ele>200.4</ele>
        <time>2025-04-05T08:01:23Z</time>
      </trkpt>
      <trkpt lat="50.26207" lon="4.82631">
        <ele>200.4</ele>
        <time>2025-04-05T08:01:24Z</time>
      </trkpt>
      <trkpt lat="50.26204" lon="4.82631">
        <ele>200.6</ele>
        <time>2025-04-05T08:01:25Z</time>
      </trkpt>
      <trkpt lat="50.26201" lon="4.82631">
        <ele>200.8</ele>
        <time>2025-04-05T08:01:26Z</time>
      </trkpt>
      <trkpt lat="50.26197" lon="4.82632">
        <ele>200.8</ele>
        <time>2025-04-05T08:01:27Z</time>
      </trkpt>
      <trkpt lat="50.26194" lon="4.82633">
        <ele>200.8</ele>
        <time>2025-04-05T08:01:28Z</time>
      </trkpt>
      <trkpt lat="50.26191" lon="4.82633">
        <ele>201</ele>
        <time>2025-04-05T08:01:29Z</time>
      </trkpt>
      <trkpt lat="50.26188" lon="4.82633">
        <ele>201</ele>
        <time>2025-04-05T08:01:30Z</time>
      </trkpt>
      <trkpt lat="50.26186" lon="4.82633">
        <ele>201.2</ele>
        <time>2025-04-05T08:01:31Z</time>
      </trkpt>
      <trkpt lat="50.26182" lon="4.82634">
        <ele>201.2</ele>
        <time>2025-04-05T08:01:32Z</time>
      </trkpt>
      <trkpt lat="50.26178" lon="4.82635">
        <ele>201.2</ele>
        <time>2025-04-05T08:01:33Z</time>
      </trkpt>
      <trkpt lat="50.26175" lon="4.82635">
        <ele>201.4</ele>
        <time>2025-04-05T08:01:34Z</time>
      </trkpt>
      <trkpt lat="50.26172" lon="4.82635">
        <ele>201.4</ele>
        <time>2025-04-05T08:01:35Z</time>
      </trkpt>
      <trkpt lat="50.26168" lon="4.82636">
        <ele>201.4</ele>
        <time>2025-04-05T08:01:36Z</time>
      </trkpt>
      <trkpt lat="50.26164" lon="4.82636">
        <ele>201.4</ele>
        <time>2025-04-05T08:01:37Z</time>
      </trkpt>
      <trkpt lat="50.2616" lon="4.82637">
        <ele>201.6</ele>
        <time>2025-04-05T08:01:38Z</time>
      </trkpt>
      <trkpt lat="50.26158" lon="4.82637">
        <ele>201.6</ele>
        <time>2025-04-05T08:01:39Z</time>
      </trkpt>
      <trkpt lat="50.26155" lon="4.82638">
        <ele>201.6</ele>
        <time>2025-04-05T08:01:40Z</time>
      </trkpt>
      <trkpt lat="50.26151" lon="4.82638">
        <ele>201.6</ele>
        <time>2025-04-05T08:01:41Z</time>
      </trkpt>
      <trkpt lat="50.26148" lon="4.82639">
        <ele>201.6</ele>
        <time>2025-04-05T08:01:42Z</time>
      </trkpt>
      <trkpt lat="50.26144" lon="4.82639">
        <ele>201.6</ele>
        <time>2025-04-05T08:01:43Z</time>
      </trkpt>
      <trkpt lat="50.2614" lon="4.8264">
        <ele>201.6</ele>
        <time>2025-04-05T08:01:44Z</time>
      </trkpt>
      <trkpt lat="50.26135" lon="4.8264">
        <ele>201.6</ele>
        <time>2025-04-05T08:01:45Z</time>
      </trkpt>
      <trkpt lat="50.26131" lon="4.82641">
        <ele>201.6</ele>
        <time>2025-04-05T08:01:46Z</time>
      </trkpt>
      <trkpt lat="50.26128" lon="4.82641">
        <ele>201.4</ele>
        <time>2025-04-05T08:01:47Z</time>
      </trkpt>
      <trkpt lat="50.26122" lon="4.82642">
        <ele>201.4</ele>
        <time>2025-04-05T08:01:48Z</time>
      </trkpt>
      <trkpt lat="50.26119" lon="4.82643">
        <ele>201.4</ele>
        <time>2025-04-05T08:01:49Z</time>
      </trkpt>
      <trkpt lat="50.26114" lon="4.82644">
        <ele>201.4</ele>
        <time>2025-04-05T08:01:50Z</time>
      </trkpt>
      <trkpt lat="50.26111" lon="4.82644">
        <ele>201.2</ele>
        <time>2025-04-05T08:01:51Z</time>
      </trkpt>
      <trkpt lat="50.26107" lon="4.82645">
        <ele>201.2</ele>
        <time>2025-04-05T08:01:52Z</time>
      </trkpt>
      <trkpt lat="50.26102" lon="4.82646">
        <ele>201</ele>
        <time>2025-04-05T08:01:53Z</time>
      </trkpt>
      <trkpt lat="50.26098" lon="4.82646">
        <ele>201</ele>
        <time>2025-04-05T08:01:54Z</time>
      </trkpt>
      <trkpt lat="50.26093" lon="4.82647">
        <ele>200.8</ele>
        <time>2025-04-05T08:01:55Z</time>
      </trkpt>
      <trkpt lat="50.26089" lon="4.82647">
        <ele>200.6</ele>
        <time>2025-04-05T08:01:56Z</time>
      </trkpt>
      <trkpt lat="50.26083" lon="4.82648">
        <ele>200.4</ele>
        <time>2025-04-05T08:01:57Z</time>
      </trkpt>
      <trkpt lat="50.26078" lon="4.8265">
        <ele>200.2</ele>
        <time>2025-04-05T08:01:58Z</time>
      </trkpt>
      <trkpt lat="50.26073" lon="4.82651">
        <ele>200</ele>
        <time>2025-04-05T08:01:59Z</time>
      </trkpt>
      <trkpt lat="50.26069" lon="4.82654">
        <ele>199.8</ele>
        <time>2025-04-05T08:02:00Z</time>
      </trkpt>
      <trkpt lat="50.26064" lon="4.82658">
        <ele>199.6</ele>
        <time>2025-04-05T08:02:01Z</time>
      </trkpt>
      <trkpt lat="50.26061" lon="4.82663">
        <ele>199.4</ele>
        <time>2025-04-05T08:02:02Z</time>
      </trkpt>
      <trkpt lat="50.26059" lon="4.82673">
        <ele>199.4</ele>
        <time>2025-04-05T08:02:03Z</time>
      </trkpt>
      <trkpt lat="50.26058" lon="4.82681">
        <ele>199.4</ele>
        <time>2025-04-05T08:02:04Z</time>
      </trkpt>
      <trkpt lat="50.26057" lon="4.82689">
        <ele>199.4</ele>
        <time>2025-04-05T08:02:05Z</time>
      </trkpt>
      <trkpt lat="50.26057" lon="4.82696">
        <ele>199.4</ele>
        <time>2025-04-05T08:02:06Z</time>
      </trkpt>
      <trkpt lat="50.26057" lon="4.82704">
        <ele>199.4</ele>
        <time>2025-04-05T08:02:07Z</time>
      </trkpt>
      <trkpt lat="50.26058" lon="4.82712">
        <ele>199.4</ele>
        <time>2025-04-05T08:02:08Z</time>
      </trkpt>
      <trkpt lat="50.26058" lon="4.82719">
        <ele>199.6</ele>
        <time>2025-04-05T08:02:09Z</time>
      </trkpt>
      <trkpt lat="50.26058" lon="4.82727">
        <ele>199.6</ele>
        <time>2025-04-05T08:02:10Z</time>
      </trkpt>
      <trkpt lat="50.26058" lon="4.82734">
        <ele>199.8</ele>
        <time>2025-04-05T08:02:11Z</time>
      </trkpt>
      <trkpt lat="50.26058" lon="4.82741">
        <ele>200</ele>
        <time>2025-04-05T08:02:12Z</time>
      </trkpt>
      <trkpt lat="50.26058" lon="4.82749">
        <ele>200.2</ele>
        <time>2025-04-05T08:02:13Z</time>
      </trkpt>
      <trkpt lat="50.26059" lon="4.82756">
        <ele>200.4</ele>
        <time>2025-04-05T08:02:14Z</time>
      </trkpt>
      <trkpt lat="50.26059" lon="4.82764">
        <ele>200.6</ele>
        <time>2025-04-05T08:02:15Z</time>
      </trkpt>
      <trkpt lat="50.26059" lon="4.82771">
        <ele>200.6</ele>
        <time>2025-04-05T08:02:16Z</time>
      </trkpt>
      <trkpt lat="50.26059" lon="4.82778">
        <ele>200.8</ele>
        <time>2025-04-05T08:02:17Z</time>
      </trkpt>
      <trkpt lat="50.26057" lon="4.82784">
        <ele>201</ele>
        <time>2025-04-05T08:02:18Z</time>
      </trkpt>
      <trkpt lat="50.26055" lon="4.82789">
        <ele>201</ele>
        <time>2025-04-05T08:02:19Z</time>
      </trkpt>
      <trkpt lat="50.26052" lon="4.82795">
        <ele>201.2</ele>
        <time>2025-04-05T08:02:20Z</time>
      </trkpt>
      <trkpt lat="50.2605" lon="4.828">
        <ele>201.2</ele>
        <time>2025-04-05T08:02:21Z</time>
      </trkpt>
      <trkpt lat="50.26048" lon="4.82807">
        <ele>201.2</ele>
        <time>2025-04-05T08:02:22Z</time>
      </trkpt>
      <trkpt lat="50.26045" lon="4.82814">
        <ele>201.2</ele>
        <time>2025-04-05T08:02:23Z</time>
      </trkpt>
      <trkpt lat="50.26043" lon="4.8282">
        <ele>201.2</ele>
        <time>2025-04-05T08:02:24Z</time>
      </trkpt>
      <trkpt lat="50.2604" lon="4.82827">
        <ele>201</ele>
        <time>2025-04-05T08:02:25Z</time>
      </trkpt>
      <trkpt lat="50.26038" lon="4.82834">
        <ele>201</ele>
        <time>2025-04-05T08:02:26Z</time>
      </trkpt>
      <trkpt lat="50.26036" lon="4.82841">
        <ele>200.8</ele>
        <time>2025-04-05T08:02:27Z</time>
      </trkpt>
      <trkpt lat="50.26034" lon="4.82847">
        <ele>200.6</ele>
        <time>2025-04-05T08:02:28Z</time>
      </trkpt>
      <trkpt lat="50.26031" lon="4.82853">
        <ele>200.4</ele>
        <time>2025-04-05T08:02:29Z</time>
      </trkpt>
      <trkpt lat="50.26028" lon="4.8286">
        <ele>200.2</ele>
        <time>2025-04-05T08:02:30Z</time>
      </trkpt>
      <trkpt lat="50.26024" lon="4.82869">
        <ele>200</ele>
        <time>2025-04-05T08:02:31Z</time>
      </trkpt>
      <trkpt lat="50.26019" lon="4.82876">
        <ele>199.8</ele>
        <time>2025-04-05T08:02:32Z</time>
      </trkpt>
      <trkpt lat="50.26015" lon="4.82881">
        <ele>199.6</ele>
        <time>2025-04-05T08:02:33Z</time>
      </trkpt>
      <trkpt lat="50.26009" lon="4.82887">
        <ele>199.4</ele>
        <time>2025-04-05T08:02:34Z</time>
      </trkpt>
      <trkpt lat="50.26003" lon="4.8289">
        <ele>199</ele>
        <time>2025-04-05T08:02:35Z</time>
      </trkpt>
      <trkpt lat="50.25998" lon="4.82892">
        <ele>198.6</ele>
        <time>2025-04-05T08:02:36Z</time>
      </trkpt>
      <trkpt lat="50.2599" lon="4.82891">
        <ele>198.2</ele>
        <time>2025-04-05T08:02:37Z</time>
      </trkpt>
      <trkpt lat="50.25983" lon="4.82888">
        <ele>197.6</ele>
        <time>2025-04-05T08:02:38Z</time>
      </trkpt>
      <trkpt lat="50.25976" lon="4.82882">
        <ele>197.2</ele>
        <time>2025-04-05T08:02:39Z</time>
      </trkpt>
      <trkpt lat="50.25969" lon="4.82877">
        <ele>196.8</ele>
        <time>2025-04-05T08:02:40Z</time>
      </trkpt>
      <trkpt lat="50.25964" lon="4.82871">
        <ele>196.4</ele>
        <time>2025-04-05T08:02:41Z</time>
      </trkpt>
      <trkpt lat="50.25957" lon="4.82865">
        <ele>196</ele>
        <time>2025-04-05T08:02:42Z</time>
      </trkpt>
      <trkpt lat="50.25948" lon="4.82857">
        <ele>195.8</ele>
        <time>2025-04-05T08:02:43Z</time>
      </trkpt>
      <trkpt lat="50.25942" lon="4.82852">
        <ele>195.6</ele>
        <time>2025-04-05T08:02:44Z</time>
      </trkpt>
      <trkpt lat="50.25934" lon="4.82845">
        <ele>195.4</ele>
        <time>2025-04-05T08:02:45Z</time>
      </trkpt>
      <trkpt lat="50.25928" lon="4.8284">
        <ele>195.4</ele>
        <time>2025-04-05T08:02:46Z</time>
      </trkpt>
      <trkpt lat="50.2592" lon="4.82834">
        <ele>195.4</ele>
        <time>2025-04-05T08:02:47Z</time>
      </trkpt>
      <trkpt lat="50.25914" lon="4.8283">
        <ele>195.6</ele>
        <time>2025-04-05T08:02:48Z</time>
      </trkpt>
      <trkpt lat="50.25908" lon="4.82826">
        <ele>195.6</ele>
        <time>2025-04-05T08:02:49Z</time>
      </trkpt>
      <trkpt lat="50.25901" lon="4.82821">
        <ele>195.8</ele>
        <time>2025-04-05T08:02:50Z</time>
      </trkpt>
      <trkpt lat="50.25897" lon="4.82817">
        <ele>196</ele>
        <time>2025-04-05T08:02:51Z</time>
      </trkpt>
      <trkpt lat="50.25891" lon="4.82814">
        <ele>196.2</ele>
        <time>2025-04-05T08:02:52Z</time>
      </trkpt>
      <trkpt lat="50.25884" lon="4.8281">
        <ele>196.4</ele>
        <time>2025-04-05T08:02:53Z</time>
      </trkpt>
      <trkpt lat="50.25879" lon="4.82807">
        <ele>196.6</ele>
        <time>2025-04-05T08:02:54Z</time>
      </trkpt>
      <trkpt lat="50.25874" lon="4.82805">
        <ele>196.8</ele>
        <time>2025-04-05T08:02:55Z</time>
      </trkpt>
      <trkpt lat="50.25867" lon="4.82802">
        <ele>197</ele>
        <time>2025-04-05T08:02:56Z</time>
      </trkpt>
      <trkpt lat="50.25862" lon="4.82799">
        <ele>197.2</ele>
        <time>2025-04-05T08:02:57Z</time>
      </trkpt>
      <trkpt lat="50.25856" lon="4.82797">
        <ele>197.4</ele>
        <time>2025-04-05T08:02:58Z</time>
      </trkpt>
      <trkpt lat="50.25851" lon="4.82795">
        <ele>197.6</ele>
        <time>2025-04-05T08:02:59Z</time>
      </trkpt>
      <trkpt lat="50.25846" lon="4.82793">
        <ele>197.8</ele>
        <time>2025-04-05T08:03:00Z</time>
      </trkpt>
      <trkpt lat="50.2584" lon="4.82792">
        <ele>198</ele>
        <time>2025-04-05T08:03:01Z</time>
      </trkpt>
      <trkpt lat="50.25834" lon="4.82791">
        <ele>198.2</ele>
        <time>2025-04-05T08:03:02Z</time>
      </trkpt>
      <trkpt lat="50.2583" lon="4.82791">
        <ele>198.4</ele>
        <time>2025-04-05T08:03:03Z</time>
      </trkpt>
      <trkpt lat="50.25824" lon="4.82791">
        <ele>198.6</ele>
        <time>2025-04-05T08:03:04Z</time>
      </trkpt>
      <trkpt lat="50.25819" lon="4.82792">
        <ele>198.8</ele>
        <time>2025-04-05T08:03:05Z</time>
      </trkpt>
      <trkpt lat="50.25814" lon="4.82793">
        <ele>199</ele>
        <time>2025-04-05T08:03:06Z</time>
      </trkpt>
      <trkpt lat="50.25808" lon="4.82794">
        <ele>199.2</ele>
        <time>2025-04-05T08:03:07Z</time>
      </trkpt>
      <trkpt lat="50.25803" lon="4.82795">
        <ele>199.2</ele>
        <time>2025-04-05T08:03:08Z</time>
      </trkpt>
      <trkpt lat="50.25797" lon="4.82796">
        <ele>199.4</ele>
        <time>2025-04-05T08:03:09Z</time>
      </trkpt>
      <trkpt lat="50.25791" lon="4.82798">
        <ele>199.6</ele>
        <time>2025-04-05T08:03:10Z</time>
      </trkpt>
      <trkpt lat="50.25785" lon="4.828">
        <ele>199.6</ele>
        <time>2025-04-05T08:03:11Z</time>
      </trkpt>
      <trkpt lat="50.2578" lon="4.82802">
        <ele>199.8</ele>
        <time>2025-04-05T08:03:12Z</time>
      </trkpt>
      <trkpt lat="50.25775" lon="4.82804">
        <ele>200</ele>
        <time>2025-04-05T08:03:13Z</time>
      </trkpt>
      <trkpt lat="50.25769" lon="4.82805">
        <ele>200.2</ele>
        <time>2025-04-05T08:03:14Z</time>
      </trkpt>
      <trkpt lat="50.25764" lon="4.82807">
        <ele>200.4</ele>
        <time>2025-04-05T08:03:15Z</time>
      </trkpt>
      <trkpt lat="50.25759" lon="4.82809">
        <ele>200.6</ele>
        <time>2025-04-05T08:03:16Z</time>
      </trkpt>
      <trkpt lat="50.25754" lon="4.8281">
        <ele>200.8</ele>
        <time>2025-04-05T08:03:17Z</time>
      </trkpt>
      <trkpt lat="50.2575" lon="4.82811">
        <ele>201</ele>
        <time>2025-04-05T08:03:18Z</time>
      </trkpt>
      <trkpt lat="50.25745" lon="4.82813">
        <ele>201.2</ele>
        <time>2025-04-05T08:03:19Z</time>
      </trkpt>
      <trkpt lat="50.2574" lon="4.82815">
        <ele>201.2</ele>
        <time>2025-04-05T08:03:20Z</time>
      </trkpt>
      <trkpt lat="50.25736" lon="4.82818">
        <ele>201.4</ele>
        <time>2025-04-05T08:03:21Z</time>
      </trkpt>
      <trkpt lat="50.25731" lon="4.82822">
        <ele>201.8</ele>
        <time>2025-04-05T08:03:22Z</time>
      </trkpt>
      <trkpt lat="50.25728" lon="4.82825">
        <ele>202</ele>
        <time>2025-04-05T08:03:23Z</time>
      </trkpt>
      <trkpt lat="50.25723" lon="4.8283">
        <ele>202</ele>
        <time>2025-04-05T08:03:24Z</time>
      </trkpt>
      <trkpt lat="50.25718" lon="4.82835">
        <ele>202.2</ele>
        <time>2025-04-05T08:03:25Z</time>
      </trkpt>
      <trkpt lat="50.25714" lon="4.82839">
        <ele>202.2</ele>
        <time>2025-04-05T08:03:26Z</time>
      </trkpt>
      <trkpt lat="50.25709" lon="4.82843">
        <ele>202.2</ele>
        <time>2025-04-05T08:03:27Z</time>
      </trkpt>
      <trkpt lat="50.25704" lon="4.82848">
        <ele>202.4</ele>
        <time>2025-04-05T08:03:28Z</time>
      </trkpt>
      <trkpt lat="50.25699" lon="4.82852">
        <ele>202.4</ele>
        <time>2025-04-05T08:03:29Z</time>
      </trkpt>
      <trkpt lat="50.25694" lon="4.82857">
        <ele>202.4</ele>
        <time>2025-04-05T08:03:30Z</time>
      </trkpt>
      <trkpt lat="50.2569" lon="4.82862">
        <ele>202.4</ele>
        <time>2025-04-05T08:03:31Z</time>
      </trkpt>
      <trkpt lat="50.25685" lon="4.82867">
        <ele>202.6</ele>
        <time>2025-04-05T08:03:32Z</time>
      </trkpt>
      <trkpt lat="50.25681" lon="4.82871">
        <ele>202.6</ele>
        <time>2025-04-05T08:03:33Z</time>
      </trkpt>
      <trkpt lat="50.25676" lon="4.82875">
        <ele>202.6</ele>
        <time>2025-04-05T08:03:34Z</time>
      </trkpt>
      <trkpt lat="50.25671" lon="4.82879">
        <ele>202.6</ele>
        <time>2025-04-05T08:03:35Z</time>
      </trkpt>
      <trkpt lat="50.25666" lon="4.82882">
        <ele>202.6</ele>
        <time>2025-04-05T08:03:36Z</time>
      </trkpt>
      <trkpt lat="50.2566" lon="4.82886">
        <ele>202.6</ele>
        <time>2025-04-05T08:03:37Z</time>
      </trkpt>
      <trkpt lat="50.25654" lon="4.82889">
        <ele>202.6</ele>
        <time>2025-04-05T08:03:38Z</time>
      </trkpt>
      <trkpt lat="50.25649" lon="4.82891">
        <ele>202.8</ele>
        <time>2025-04-05T08:03:39Z</time>
      </trkpt>
      <trkpt lat="50.25644" lon="4.82894">
        <ele>203</ele>
        <time>2025-04-05T08:03:40Z</time>
      </trkpt>
      <trkpt lat="50.25638" lon="4.82897">
        <ele>203</ele>
        <time>2025-04-05T08:03:41Z</time>
      </trkpt>
      <trkpt lat="50.25633" lon="4.82898">
        <ele>203.2</ele>
        <time>2025-04-05T08:03:42Z</time>
      </trkpt>
      <trkpt lat="50.25626" lon="4.82899">
        <ele>203.4</ele>
        <time>2025-04-05T08:03:43Z</time>
      </trkpt>
      <trkpt lat="50.25621" lon="4.829">
        <ele>203.8</ele>
        <time>2025-04-05T08:03:44Z</time>
      </trkpt>
      <trkpt lat="50.25616" lon="4.82902">
        <ele>204</ele>
        <time>2025-04-05T08:03:45Z</time>
      </trkpt>
      <trkpt lat="50.25612" lon="4.82905">
        <ele>204.4</ele>
        <time>2025-04-05T08:03:46Z</time>
      </trkpt>
      <trkpt lat="50.25607" lon="4.82906">
        <ele>204.6</ele>
        <time>2025-04-05T08:03:47Z</time>
      </trkpt>
      <trkpt lat="50.25603" lon="4.82908">
        <ele>205</ele>
        <time>2025-04-05T08:03:48Z</time>
      </trkpt>
      <trkpt lat="50.25599" lon="4.82909">
        <ele>205.2</ele>
        <time>2025-04-05T08:03:49Z</time>
      </trkpt>
      <trkpt lat="50.25596" lon="4.8291">
        <ele>205.6</ele>
        <time>2025-04-05T08:03:50Z</time>
      </trkpt>
      <trkpt lat="50.25591" lon="4.82913">
        <ele>205.8</ele>
        <time>2025-04-05T08:03:51Z</time>
      </trkpt>
      <trkpt lat="50.25587" lon="4.82915">
        <ele>206.2</ele>
        <time>2025-04-05T08:03:52Z</time>
      </trkpt>
      <trkpt lat="50.25583" lon="4.82917">
        <ele>206.4</ele>
        <time>2025-04-05T08:03:53Z</time>
      </trkpt>
      <trkpt lat="50.25581" lon="4.82919">
        <ele>206.6</ele>
        <time>2025-04-05T08:03:54Z</time>
      </trkpt>
      <trkpt lat="50.25578" lon="4.82921">
        <ele>207</ele>
        <time>2025-04-05T08:03:55Z</time>
      </trkpt>
      <trkpt lat="50.25574" lon="4.82922">
        <ele>207.2</ele>
        <time>2025-04-05T08:03:56Z</time>
      </trkpt>
      <trkpt lat="50.25571" lon="4.82924">
        <ele>207.6</ele>
        <time>2025-04-05T08:03:57Z</time>
      </trkpt>
      <trkpt lat="50.25567" lon="4.82926">
        <ele>207.8</ele>
        <time>2025-04-05T08:03:58Z</time>
      </trkpt>
      <trkpt lat="50.25564" lon="4.82928">
        <ele>208</ele>
        <time>2025-04-05T08:03:59Z</time>
      </trkpt>
      <trkpt lat="50.25561" lon="4.82931">
        <ele>208.4</ele>
        <time>2025-04-05T08:04:00Z</time>
      </trkpt>
      <trkpt lat="50.25558" lon="4.82934">
        <ele>208.6</ele>
        <time>2025-04-05T08:04:01Z</time>
      </trkpt>
      <trkpt lat="50.25556" lon="4.82936">
        <ele>208.8</ele>
        <time>2025-04-05T08:04:02Z</time>
      </trkpt>
      <trkpt lat="50.25553" lon="4.82939">
        <ele>209.2</ele>
        <time>2025-04-05T08:04:03Z</time>
      </trkpt>
      <trkpt lat="50.2555" lon="4.82942">
        <ele>209.4</ele>
        <time>2025-04-05T08:04:04Z</time>
      </trkpt>
      <trkpt lat="50.25547" lon="4.82946">
        <ele>209.8</ele>
        <time>2025-04-05T08:04:05Z</time>
      </trkpt>
      <trkpt lat="50.25545" lon="4.82948">
        <ele>210</ele>
        <time>2025-04-05T08:04:06Z</time>
      </trkpt>
      <trkpt lat="50.25543" lon="4.82952">
        <ele>210.4</ele>
        <time>2025-04-05T08:04:07Z</time>
      </trkpt>
      <trkpt lat="50.25541" lon="4.82955">
        <ele>210.6</ele>
        <time>2025-04-05T08:04:08Z</time>
      </trkpt>
      <trkpt lat="50.25538" lon="4.82959">
        <ele>211</ele>
        <time>2025-04-05T08:04:09Z</time>
      </trkpt>
      <trkpt lat="50.25536" lon="4.82962">
        <ele>211.2</ele>
        <time>2025-04-05T08:04:10Z</time>
      </trkpt>
      <trkpt lat="50.25534" lon="4.82965">
        <ele>211.6</ele>
        <time>2025-04-05T08:04:11Z</time>
      </trkpt>
      <trkpt lat="50.25532" lon="4.82969">
        <ele>211.8</ele>
        <time>2025-04-05T08:04:12Z</time>
      </trkpt>
      <trkpt lat="50.2553" lon="4.82974">
        <ele>212.2</ele>
        <time>2025-04-05T08:04:13Z</time>
      </trkpt>
      <trkpt lat="50.25528" lon="4.82978">
        <ele>212.4</ele>
        <time>2025-04-05T08:04:14Z</time>
      </trkpt>
      <trkpt lat="50.25526" lon="4.82982">
        <ele>212.6</ele>
        <time>2025-04-05T08:04:15Z</time>
      </trkpt>
      <trkpt lat="50.25524" lon="4.82985">
        <ele>212.8</ele>
        <time>2025-04-05T08:04:16Z</time>
      </trkpt>
      <trkpt lat="50.25522" lon="4.82988">
        <ele>213</ele>
        <time>2025-04-05T08:04:17Z</time>
      </trkpt>
      <trkpt lat="50.2552" lon="4.82993">
        <ele>213.2</ele>
        <time>2025-04-05T08:04:18Z</time>
      </trkpt>
      <trkpt lat="50.25518" lon="4.82996">
        <ele>213.6</ele>
        <time>2025-04-05T08:04:19Z</time>
      </trkpt>
      <trkpt lat="50.25517" lon="4.83">
        <ele>213.8</ele>
        <time>2025-04-05T08:04:20Z</time>
      </trkpt>
      <trkpt lat="50.25515" lon="4.83003">
        <ele>214</ele>
        <time>2025-04-05T08:04:21Z</time>
      </trkpt>
      <trkpt lat="50.25514" lon="4.83006">
        <ele>214.2</ele>
        <time>2025-04-05T08:04:22Z</time>
      </trkpt>
      <trkpt lat="50.25511" lon="4.83011">
        <ele>214.4</ele>
        <time>2025-04-05T08:04:23Z</time>
      </trkpt>
      <trkpt lat="50.25509" lon="4.83015">
        <ele>214.8</ele>
        <time>2025-04-05T08:04:24Z</time>
      </trkpt>
      <trkpt lat="50.25508" lon="4.83018">
        <ele>215</ele>
        <time>2025-04-05T08:04:25Z</time>
      </trkpt>
      <trkpt lat="50.25506" lon="4.83022">
        <ele>215.2</ele>
        <time>2025-04-05T08:04:26Z</time>
      </trkpt>
      <trkpt lat="50.25504" lon="4.83026">
        <ele>215.4</ele>
        <time>2025-04-05T08:04:27Z</time>
      </trkpt>
      <trkpt lat="50.25502" lon="4.83029">
        <ele>215.6</ele>
        <time>2025-04-05T08:04:28Z</time>
      </trkpt>
      <trkpt lat="50.255" lon="4.83033">
        <ele>215.8</ele>
        <time>2025-04-05T08:04:29Z</time>
      </trkpt>
      <trkpt lat="50.25498" lon="4.83035">
        <ele>216</ele>
        <time>2025-04-05T08:04:30Z</time>
      </trkpt>
      <trkpt lat="50.25496" lon="4.83039">
        <ele>216.4</ele>
        <time>2025-04-05T08:04:31Z</time>
      </trkpt>
      <trkpt lat="50.25494" lon="4.83042">
        <ele>216.6</ele>
        <time>2025-04-05T08:04:32Z</time>
      </trkpt>
      <trkpt lat="50.25493" lon="4.83047">
        <ele>216.8</ele>
        <time>2025-04-05T08:04:33Z</time>
      </trkpt>
      <trkpt lat="50.25491" lon="4.83049">
        <ele>217</ele>
        <time>2025-04-05T08:04:34Z</time>
      </trkpt>
      <trkpt lat="50.25489" lon="4.83054">
        <ele>217.2</ele>
        <time>2025-04-05T08:04:35Z</time>
      </trkpt>
      <trkpt lat="50.25488" lon="4.83057">
        <ele>217.4</ele>
        <time>2025-04-05T08:04:36Z</time>
      </trkpt>
      <trkpt lat="50.25486" lon="4.83061">
        <ele>217.6</ele>
        <time>2025-04-05T08:04:37Z</time>
      </trkpt>
      <trkpt lat="50.25484" lon="4.83064">
        <ele>217.8</ele>
        <time>2025-04-05T08:04:38Z</time>
      </trkpt>
      <trkpt lat="50.25482" lon="4.83067">
        <ele>218.2</ele>
        <time>2025-04-05T08:04:39Z</time>
      </trkpt>
      <trkpt lat="50.2548" lon="4.8307">
        <ele>218.4</ele>
        <time>2025-04-05T08:04:40Z</time>
      </trkpt>
      <trkpt lat="50.25478" lon="4.83074">
        <ele>218.6</ele>
        <time>2025-04-05T08:04:41Z</time>
      </trkpt>
      <trkpt lat="50.25476" lon="4.83078">
        <ele>218.8</ele>
        <time>2025-04-05T08:04:42Z</time>
      </trkpt>
      <trkpt lat="50.25475" lon="4.83081">
        <ele>219</ele>
        <time>2025-04-05T08:04:43Z</time>
      </trkpt>
      <trkpt lat="50.25473" lon="4.83086">
        <ele>219.2</ele>
        <time>2025-04-05T08:04:44Z</time>
      </trkpt>
      <trkpt lat="50.2547" lon="4.83089">
        <ele>219.4</ele>
        <time>2025-04-05T08:04:45Z</time>
      </trkpt>
      <trkpt lat="50.25469" lon="4.83093">
        <ele>219.6</ele>
        <time>2025-04-05T08:04:46Z</time>
      </trkpt>
      <trkpt lat="50.25467" lon="4.83096">
        <ele>219.8</ele>
        <time>2025-04-05T08:04:47Z</time>
      </trkpt>
      <trkpt lat="50.25465" lon="4.831">
        <ele>220</ele>
        <time>2025-04-05T08:04:48Z</time>
      </trkpt>
      <trkpt lat="50.25464" lon="4.83103">
        <ele>220.2</ele>
        <time>2025-04-05T08:04:49Z</time>
      </trkpt>
      <trkpt lat="50.25462" lon="4.83106">
        <ele>220.4</ele>
        <time>2025-04-05T08:04:50Z</time>
      </trkpt>
      <trkpt lat="50.25461" lon="4.83109">
        <ele>220.8</ele>
        <time>2025-04-05T08:04:51Z</time>
      </trkpt>
      <trkpt lat="50.25459" lon="4.83113">
        <ele>221</ele>
        <time>2025-04-05T08:04:52Z</time>
      </trkpt>
      <trkpt lat="50.25457" lon="4.83117">
        <ele>221.2</ele>
        <time>2025-04-05T08:04:53Z</time>
      </trkpt>
      <trkpt lat="50.25455" lon="4.8312">
        <ele>221.4</ele>
        <time>2025-04-05T08:04:54Z</time>
      </trkpt>
      <trkpt lat="50.25453" lon="4.83125">
        <ele>221.6</ele>
        <time>2025-04-05T08:04:55Z</time>
      </trkpt>
      <trkpt lat="50.25451" lon="4.83128">
        <ele>221.8</ele>
        <time>2025-04-05T08:04:56Z</time>
      </trkpt>
      <trkpt lat="50.25449" lon="4.83131">
        <ele>222</ele>
        <time>2025-04-05T08:04:57Z</time>
      </trkpt>
      <trkpt lat="50.25448" lon="4.83135">
        <ele>222.2</ele>
        <time>2025-04-05T08:04:58Z</time>
      </trkpt>
      <trkpt lat="50.25446" lon="4.83138">
        <ele>222.4</ele>
        <time>2025-04-05T08:04:59Z</time>
      </trkpt>
      <trkpt lat="50.25444" lon="4.83141">
        <ele>222.6</ele>
        <time>2025-04-05T08:05:00Z</time>
      </trkpt>
      <trkpt lat="50.25442" lon="4.83145">
        <ele>223</ele>
        <time>2025-04-05T08:05:01Z</time>
      </trkpt>
      <trkpt lat="50.2544" lon="4.83148">
        <ele>223.2</ele>
        <time>2025-04-05T08:05:02Z</time>
      </trkpt>
      <trkpt lat="50.25438" lon="4.83152">
        <ele>223.4</ele>
        <time>2025-04-05T08:05:03Z</time>
      </trkpt>
      <trkpt lat="50.25436" lon="4.83155">
        <ele>223.6</ele>
        <time>2025-04-05T08:05:04Z</time>
      </trkpt>
      <trkpt lat="50.25434" lon="4.83158">
        <ele>223.8</ele>
        <time>2025-04-05T08:05:05Z</time>
      </trkpt>
      <trkpt lat="50.25432" lon="4.83161">
        <ele>224</ele>
        <time>2025-04-05T08:05:06Z</time>
      </trkpt>
      <trkpt lat="50.2543" lon="4.83165">
        <ele>224.2</ele>
        <time>2025-04-05T08:05:07Z</time>
      </trkpt>
      <trkpt lat="50.25428" lon="4.83169">
        <ele>224.4</ele>
        <time>2025-04-05T08:05:08Z</time>
      </trkpt>
      <trkpt lat="50.25426" lon="4.83172">
        <ele>224.6</ele>
        <time>2025-04-05T08:05:09Z</time>
      </trkpt>
      <trkpt lat="50.25424" lon="4.83177">
        <ele>224.8</ele>
        <time>2025-04-05T08:05:10Z</time>
      </trkpt>
      <trkpt lat="50.25422" lon="4.83181">
        <ele>225</ele>
        <time>2025-04-05T08:05:11Z</time>
      </trkpt>
      <trkpt lat="50.2542" lon="4.83184">
        <ele>225.2</ele>
        <time>2025-04-05T08:05:12Z</time>
      </trkpt>
      <trkpt lat="50.25419" lon="4.83187">
        <ele>225.4</ele>
        <time>2025-04-05T08:05:13Z</time>
      </trkpt>
      <trkpt lat="50.25417" lon="4.8319">
        <ele>225.6</ele>
        <time>2025-04-05T08:05:14Z</time>
      </trkpt>
      <trkpt lat="50.25415" lon="4.83194">
        <ele>225.8</ele>
        <time>2025-04-05T08:05:15Z</time>
      </trkpt>
      <trkpt lat="50.25413" lon="4.83197">
        <ele>226</ele>
        <time>2025-04-05T08:05:16Z</time>
      </trkpt>
      <trkpt lat="50.25411" lon="4.83199">
        <ele>226.2</ele>
        <time>2025-04-05T08:05:17Z</time>
      </trkpt>
      <trkpt lat="50.25409" lon="4.83199">
        <ele>226.4</ele>
        <time>2025-04-05T08:05:18Z</time>
      </trkpt>
      <trkpt lat="50.25406" lon="4.83197">
        <ele>226.4</ele>
        <time>2025-04-05T08:05:19Z</time>
      </trkpt>
      <trkpt lat="50.25403" lon="4.83193">
        <ele>226.6</ele>
        <time>2025-04-05T08:05:20Z</time>
      </trkpt>
      <trkpt lat="50.25401" lon="4.8319">
        <ele>226.6</ele>
        <time>2025-04-05T08:05:21Z</time>
      </trkpt>
      <trkpt lat="50.25399" lon="4.83187">
        <ele>226.8</ele>
        <time>2025-04-05T08:05:22Z</time>
      </trkpt>
      <trkpt lat="50.25397" lon="4.83184">
        <ele>226.8</ele>
        <time>2025-04-05T08:05:23Z</time>
      </trkpt>
      <trkpt lat="50.25394" lon="4.8318">
        <ele>227</ele>
        <time>2025-04-05T08:05:24Z</time>
      </trkpt>
      <trkpt lat="50.25392" lon="4.83176">
        <ele>227.2</ele>
        <time>2025-04-05T08:05:25Z</time>
      </trkpt>
      <trkpt lat="50.2539" lon="4.83173">
        <ele>227.2</ele>
        <time>2025-04-05T08:05:26Z</time>
      </trkpt>
      <trkpt lat="50.25388" lon="4.83169">
        <ele>227.2</ele>
        <time>2025-04-05T08:05:27Z</time>
      </trkpt>
      <trkpt lat="50.25385" lon="4.83165">
        <ele>227.4</ele>
        <time>2025-04-05T08:05:28Z</time>
      </trkpt>
      <trkpt lat="50.25383" lon="4.83161">
        <ele>227.4</ele>
        <time>2025-04-05T08:05:29Z</time>
      </trkpt>
      <trkpt lat="50.25381" lon="4.83157">
        <ele>227.6</ele>
        <time>2025-04-05T08:05:30Z</time>
      </trkpt>
      <trkpt lat="50.25379" lon="4.83153">
        <ele>227.6</ele>
        <time>2025-04-05T08:05:31Z</time>
      </trkpt>
      <trkpt lat="50.25377" lon="4.83149">
        <ele>227.8</ele>
        <time>2025-04-05T08:05:32Z</time>
      </trkpt>
      <trkpt lat="50.25375" lon="4.83146">
        <ele>227.8</ele>
        <time>2025-04-05T08:05:33Z</time>
      </trkpt>
      <trkpt lat="50.25373" lon="4.83143">
        <ele>228</ele>
        <time>2025-04-05T08:05:34Z</time>
      </trkpt>
      <trkpt lat="50.25371" lon="4.8314">
        <ele>228.2</ele>
        <time>2025-04-05T08:05:35Z</time>
      </trkpt>
      <trkpt lat="50.25369" lon="4.83136">
        <ele>228.2</ele>
        <time>2025-04-05T08:05:36Z</time>
      </trkpt>
      <trkpt lat="50.25367" lon="4.83132">
        <ele>228.4</ele>
        <time>2025-04-05T08:05:37Z</time>
      </trkpt>
      <trkpt lat="50.25365" lon="4.83128">
        <ele>228.6</ele>
        <time>2025-04-05T08:05:38Z</time>
      </trkpt>
      <trkpt lat="50.25363" lon="4.83124">
        <ele>228.6</ele>
        <time>2025-04-05T08:05:39Z</time>
      </trkpt>
      <trkpt lat="50.25361" lon="4.8312">
        <ele>228.8</ele>
        <time>2025-04-05T08:05:40Z</time>
      </trkpt>
      <trkpt lat="50.25358" lon="4.83117">
        <ele>228.8</ele>
        <time>2025-04-05T08:05:41Z</time>
      </trkpt>
      <trkpt lat="50.25356" lon="4.83113">
        <ele>229</ele>
        <time>2025-04-05T08:05:42Z</time>
      </trkpt>
      <trkpt lat="50.25355" lon="4.8311">
        <ele>229</ele>
        <time>2025-04-05T08:05:43Z</time>
      </trkpt>
      <trkpt lat="50.25353" lon="4.83107">
        <ele>229.2</ele>
        <time>2025-04-05T08:05:44Z</time>
      </trkpt>
      <trkpt lat="50.2535" lon="4.83103">
        <ele>229.4</ele>
        <time>2025-04-05T08:05:45Z</time>
      </trkpt>
      <trkpt lat="50.25348" lon="4.83099">
        <ele>229.6</ele>
        <time>2025-04-05T08:05:46Z</time>
      </trkpt>
      <trkpt lat="50.25346" lon="4.83097">
        <ele>229.6</ele>
        <time>2025-04-05T08:05:47Z</time>
      </trkpt>
      <trkpt lat="50.25344" lon="4.83093">
        <ele>229.8</ele>
        <time>2025-04-05T08:05:48Z</time>
      </trkpt>
      <trkpt lat="50.25342" lon="4.83089">
        <ele>229.8</ele>
        <time>2025-04-05T08:05:49Z</time>
      </trkpt>
      <trkpt lat="50.2534" lon="4.83086">
        <ele>230</ele>
        <time>2025-04-05T08:05:50Z</time>
      </trkpt>
      <trkpt lat="50.25338" lon="4.83082">
        <ele>230</ele>
        <time>2025-04-05T08:05:51Z</time>
      </trkpt>
      <trkpt lat="50.25335" lon="4.83078">
        <ele>230.2</ele>
        <time>2025-04-05T08:05:52Z</time>
      </trkpt>
      <trkpt lat="50.25333" lon="4.83076">
        <ele>230.2</ele>
        <time>2025-04-05T08:05:53Z</time>
      </trkpt>
      <trkpt lat="50.25331" lon="4.83072">
        <ele>230.4</ele>
        <time>2025-04-05T08:05:54Z</time>
      </trkpt>
      <trkpt lat="50.25329" lon="4.83069">
        <ele>230.6</ele>
        <time>2025-04-05T08:05:55Z</time>
      </trkpt>
      <trkpt lat="50.25327" lon="4.83066">
        <ele>230.6</ele>
        <time>2025-04-05T08:05:56Z</time>
      </trkpt>
      <trkpt lat="50.25325" lon="4.83063">
        <ele>230.6</ele>
        <time>2025-04-05T08:05:57Z</time>
      </trkpt>
      <trkpt lat="50.25324" lon="4.83059">
        <ele>230.8</ele>
        <time>2025-04-05T08:05:58Z</time>
      </trkpt>
      <trkpt lat="50.25321" lon="4.83055">
        <ele>230.8</ele>
        <time>2025-04-05T08:05:59Z</time>
      </trkpt>
      <trkpt lat="50.25319" lon="4.83051">
        <ele>231</ele>
        <time>2025-04-05T08:06:00Z</time>
      </trkpt>
      <trkpt lat="50.25317" lon="4.83048">
        <ele>231</ele>
        <time>2025-04-05T08:06:01Z</time>
      </trkpt>
      <trkpt lat="50.25315" lon="4.83045">
        <ele>231.2</ele>
        <time>2025-04-05T08:06:02Z</time>
      </trkpt>
      <trkpt lat="50.25313" lon="4.83042">
        <ele>231.2</ele>
        <time>2025-04-05T08:06:03Z</time>
      </trkpt>
      <trkpt lat="50.25311" lon="4.83038">
        <ele>231.4</ele>
        <time>2025-04-05T08:06:04Z</time>
      </trkpt>
      <trkpt lat="50.25309" lon="4.83034">
        <ele>231.4</ele>
        <time>2025-04-05T08:06:05Z</time>
      </trkpt>
      <trkpt lat="50.25307" lon="4.83031">
        <ele>231.4</ele>
        <time>2025-04-05T08:06:06Z</time>
      </trkpt>
      <trkpt lat="50.25304" lon="4.83028">
        <ele>231.6</ele>
        <time>2025-04-05T08:06:07Z</time>
      </trkpt>
      <trkpt lat="50.25302" lon="4.83023">
        <ele>231.6</ele>
        <time>2025-04-05T08:06:08Z</time>
      </trkpt>
      <trkpt lat="50.253" lon="4.83019">
        <ele>231.6</ele>
        <time>2025-04-05T08:06:09Z</time>
      </trkpt>
      <trkpt lat="50.25298" lon="4.83016">
        <ele>231.4</ele>
        <time>2025-04-05T08:06:10Z</time>
      </trkpt>
      <trkpt lat="50.25295" lon="4.83011">
        <ele>231.4</ele>
        <time>2025-04-05T08:06:11Z</time>
      </trkpt>
      <trkpt lat="50.25293" lon="4.83007">
        <ele>231.4</ele>
        <time>2025-04-05T08:06:12Z</time>
      </trkpt>
      <trkpt lat="50.2529" lon="4.83003">
        <ele>231.4</ele>
        <time>2025-04-05T08:06:13Z</time>
      </trkpt>
      <trkpt lat="50.25288" lon="4.82999">
        <ele>231.4</ele>
        <time>2025-04-05T08:06:14Z</time>
      </trkpt>
      <trkpt lat="50.25287" lon="4.82996">
        <ele>231.4</ele>
        <time>2025-04-05T08:06:15Z</time>
      </trkpt>
      <trkpt lat="50.25284" lon="4.82991">
        <ele>231.2</ele>
        <time>2025-04-05T08:06:16Z</time>
      </trkpt>
      <trkpt lat="50.25281" lon="4.82986">
        <ele>231.2</ele>
        <time>2025-04-05T08:06:17Z</time>
      </trkpt>
      <trkpt lat="50.25279" lon="4.82983">
        <ele>231.2</ele>
        <time>2025-04-05T08:06:18Z</time>
      </trkpt>
      <trkpt lat="50.25277" lon="4.82978">
        <ele>231</ele>
        <time>2025-04-05T08:06:19Z</time>
      </trkpt>
      <trkpt lat="50.25274" lon="4.82973">
        <ele>231</ele>
        <time>2025-04-05T08:06:20Z</time>
      </trkpt>
      <trkpt lat="50.25272" lon="4.82968">
        <ele>231</ele>
        <time>2025-04-05T08:06:21Z</time>
      </trkpt>
      <trkpt lat="50.25269" lon="4.82964">
        <ele>231</ele>
        <time>2025-04-05T08:06:22Z</time>
      </trkpt>
      <trkpt lat="50.25267" lon="4.82961">
        <ele>231</ele>
        <time>2025-04-05T08:06:23Z</time>
      </trkpt>
      <trkpt lat="50.25266" lon="4.82959">
        <ele>231</ele>
        <time>2025-04-05T08:06:24Z</time>
      </trkpt>
      <trkpt lat="50.25263" lon="4.82955">
        <ele>231</ele>
        <time>2025-04-05T08:06:25Z</time>
      </trkpt>
      <trkpt lat="50.25262" lon="4.82953">
        <ele>231</ele>
        <time>2025-04-05T08:06:26Z</time>
      </trkpt>
      <trkpt lat="50.25261" lon="4.82951">
        <ele>231</ele>
        <time>2025-04-05T08:06:27Z</time>
      </trkpt>
      <trkpt lat="50.25261" lon="4.82951">
        <ele>231</ele>
        <time>2025-04-05T08:06:28Z</time>
      </trkpt>
      <trkpt lat="50.25259" lon="4.82949">
        <ele>231</ele>
        <time>2025-04-05T08:06:58Z</time>
      </trkpt>
      <trkpt lat="50.25258" lon="4.82948">
        <ele>231</ele>
        <time>2025-04-05T08:06:59Z</time>
      </trkpt>
      <trkpt lat="50.25257" lon="4.82947">
        <ele>231</ele>
        <time>2025-04-05T08:07:00Z</time>
      </trkpt>
      <trkpt lat="50.25255" lon="4.82945">
        <ele>231</ele>
        <time>2025-04-05T08:07:01Z</time>
      </trkpt>
      <trkpt lat="50.25253" lon="4.82942">
        <ele>230.8</ele>
        <time>2025-04-05T08:07:02Z</time>
      </trkpt>
      <trkpt lat="50.2525" lon="4.82939">
        <ele>230.8</ele>
        <time>2025-04-05T08:07:03Z</time>
      </trkpt>
      <trkpt lat="50.25248" lon="4.82936">
        <ele>230.6</ele>
        <time>2025-04-05T08:07:04Z</time>
      </trkpt>
      <trkpt lat="50.25244" lon="4.82933">
        <ele>230.6</ele>
        <time>2025-04-05T08:07:05Z</time>
      </trkpt>
      <trkpt lat="50.2524" lon="4.82929">
        <ele>230.4</ele>
        <time>2025-04-05T08:07:06Z</time>
      </trkpt>
      <trkpt lat="50.25237" lon="4.82925">
        <ele>230.4</ele>
        <time>2025-04-05T08:07:07Z</time>
      </trkpt>
      <trkpt lat="50.25233" lon="4.82921">
        <ele>230.2</ele>
        <time>2025-04-05T08:07:08Z</time>
      </trkpt>
      <trkpt lat="50.25229" lon="4.82918">
        <ele>230.2</ele>
        <time>2025-04-05T08:07:09Z</time>
      </trkpt>
      <trkpt lat="50.25225" lon="4.82913">
        <ele>230</ele>
        <time>2025-04-05T08:07:10Z</time>
      </trkpt>
      <trkpt lat="50.2522" lon="4.82908">
        <ele>229.8</ele>
        <time>2025-04-05T08:07:11Z</time>
      </trkpt>
      <trkpt lat="50.25215" lon="4.82904">
        <ele>229.6</ele>
        <time>2025-04-05T08:07:12Z</time>
      </trkpt>
      <trkpt lat="50.25211" lon="4.82899">
        <ele>229.4</ele>
        <time>2025-04-05T08:07:13Z</time>
      </trkpt>
      <trkpt lat="50.25205" lon="4.82894">
        <ele>229.2</ele>
        <time>2025-04-05T08:07:14Z</time>
      </trkpt>
      <trkpt lat="50.25199" lon="4.82888">
        <ele>228.8</ele>
        <time>2025-04-05T08:07:15Z</time>
      </trkpt>
      <trkpt lat="50.25192" lon="4.82883">
        <ele>228.4</ele>
        <time>2025-04-05T08:07:16Z</time>
      </trkpt>
      <trkpt lat="50.25186" lon="4.82877">
        <ele>228.2</ele>
        <time>2025-04-05T08:07:17Z</time>
      </trkpt>
      <trkpt lat="50.2518" lon="4.82871">
        <ele>227.6</ele>
        <time>2025-04-05T08:07:18Z</time>
      </trkpt>
      <trkpt lat="50.25173" lon="4.82865">
        <ele>227.4</ele>
        <time>2025-04-05T08:07:19Z</time>
      </trkpt>
      <trkpt lat="50.25167" lon="4.82858">
        <ele>227</ele>
        <time>2025-04-05T08:07:20Z</time>
      </trkpt>
      <trkpt lat="50.25161" lon="4.82854">
        <ele>226.6</ele>
        <time>2025-04-05T08:07:21Z</time>
      </trkpt>
      <trkpt lat="50.25154" lon="4.82848">
        <ele>226.2</ele>
        <time>2025-04-05T08:07:22Z</time>
      </trkpt>
      <trkpt lat="50.25147" lon="4.82843">
        <ele>225.8</ele>
        <time>2025-04-05T08:07:23Z</time>
      </trkpt>
      <trkpt lat="50.2514" lon="4.82838">
        <ele>225.4</ele>
        <time>2025-04-05T08:07:24Z</time>
      </trkpt>
      <trkpt lat="50.25133" lon="4.82833">
        <ele>225</ele>
        <time>2025-04-05T08:07:25Z</time>
      </trkpt>
      <trkpt lat="50.25126" lon="4.82829">
        <ele>224.4</ele>
        <time>2025-04-05T08:07:26Z</time>
      </trkpt>
      <trkpt lat="50.25118" lon="4.82826">
        <ele>224</ele>
        <time>2025-04-05T08:07:27Z</time>
      </trkpt>
      <trkpt lat="50.25111" lon="4.82824">
        <ele>223.4</ele>
        <time>2025-04-05T08:07:28Z</time>
      </trkpt>
      <trkpt lat="50.25102" lon="4.82821">
        <ele>223</ele>
        <time>2025-04-05T08:07:29Z</time>
      </trkpt>
      <trkpt lat="50.25095" lon="4.82819">
        <ele>222.4</ele>
        <time>2025-04-05T08:07:30Z</time>
      </trkpt>
      <trkpt lat="50.25089" lon="4.82817">
        <ele>221.8</ele>
        <time>2025-04-05T08:07:31Z</time>
      </trkpt>
      <trkpt lat="50.2508" lon="4.82813">
        <ele>221.2</ele>
        <time>2025-04-05T08:07:32Z</time>
      </trkpt>
      <trkpt lat="50.25072" lon="4.82809">
        <ele>220.6</ele>
        <time>2025-04-05T08:07:33Z</time>
      </trkpt>
      <trkpt lat="50.25065" lon="4.82805">
        <ele>220</ele>
        <time>2025-04-05T08:07:34Z</time>
      </trkpt>
      <trkpt lat="50.25058" lon="4.82799">
        <ele>219.2</ele>
        <time>2025-04-05T08:07:35Z</time>
      </trkpt>
      <trkpt lat="50.25052" lon="4.82792">
        <ele>218.6</ele>
        <time>2025-04-05T08:07:36Z</time>
      </trkpt>
      <trkpt lat="50.25045" lon="4.82785">
        <ele>217.8</ele>
        <time>2025-04-05T08:07:37Z</time>
      </trkpt>
      <trkpt lat="50.25039" lon="4.82776">
        <ele>216.8</ele>
        <time>2025-04-05T08:07:38Z</time>
      </trkpt>
      <trkpt lat="50.25033" lon="4.82767">
        <ele>216</ele>
        <time>2025-04-05T08:07:39Z</time>
      </trkpt>
      <trkpt lat="50.25029" lon="4.82757">
        <ele>215</ele>
        <time>2025-04-05T08:07:40Z</time>
      </trkpt>
      <trkpt lat="50.25022" lon="4.82743">
        <ele>214.2</ele>
        <time>2025-04-05T08:07:41Z</time>
      </trkpt>
      <trkpt lat="50.25018" lon="4.8273">
        <ele>213.2</ele>
        <time>2025-04-05T08:07:42Z</time>
      </trkpt>
      <trkpt lat="50.25014" lon="4.82715">
        <ele>212.4</ele>
        <time>2025-04-05T08:07:43Z</time>
      </trkpt>
      <trkpt lat="50.25011" lon="4.82703">
        <ele>211.6</ele>
        <time>2025-04-05T08:07:44Z</time>
      </trkpt>
      <trkpt lat="50.25008" lon="4.82687">
        <ele>210.8</ele>
        <time>2025-04-05T08:07:45Z</time>
      </trkpt>
      <trkpt lat="50.25005" lon="4.82667">
        <ele>210.2</ele>
        <time>2025-04-05T08:07:46Z</time>
      </trkpt>
      <trkpt lat="50.25004" lon="4.8265">
        <ele>209.6</ele>
        <time>2025-04-05T08:07:47Z</time>
      </trkpt>
      <trkpt lat="50.25004" lon="4.82636">
        <ele>209</ele>
        <time>2025-04-05T08:07:48Z</time>
      </trkpt>
      <trkpt lat="50.25004" lon="4.82615">
        <ele>208.6</ele>
        <time>2025-04-05T08:07:49Z</time>
      </trkpt>
      <trkpt lat="50.25004" lon="4.82598">
        <ele>208.2</ele>
        <time>2025-04-05T08:07:50Z</time>
      </trkpt>
      <trkpt lat="50.25004" lon="4.82581">
        <ele>207.8</ele>
        <time>2025-04-05T08:07:51Z</time>
      </trkpt>
      <trkpt lat="50.25004" lon="4.82564">
        <ele>207.4</ele>
        <time>2025-04-05T08:07:52Z</time>
      </trkpt>
      <trkpt lat="50.25004" lon="4.82547">
        <ele>207</ele>
        <time>2025-04-05T08:07:53Z</time>
      </trkpt>
      <trkpt lat="50.25005" lon="4.82532">
        <ele>206.8</ele>
        <time>2025-04-05T08:07:54Z</time>
      </trkpt>
      <trkpt lat="50.25004" lon="4.82513">
        <ele>206.6</ele>
        <time>2025-04-05T08:07:55Z</time>
      </trkpt>
      <trkpt lat="50.25004" lon="4.82497">
        <ele>206.6</ele>
        <time>2025-04-05T08:07:56Z</time>
      </trkpt>
      <trkpt lat="50.25003" lon="4.82483">
        <ele>206.4</ele>
        <time>2025-04-05T08:07:57Z</time>
      </trkpt>
      <trkpt lat="50.25003" lon="4.82465">
        <ele>206.6</ele>
        <time>2025-04-05T08:07:58Z</time>
      </trkpt>
      <trkpt lat="50.25003" lon="4.8245">
        <ele>206.8</ele>
        <time>2025-04-05T08:07:59Z</time>
      </trkpt>
      <trkpt lat="50.25003" lon="4.82437">
        <ele>207.2</ele>
        <time>2025-04-05T08:08:00Z</time>
      </trkpt>
      <trkpt lat="50.25003" lon="4.82425">
        <ele>207.4</ele>
        <time>2025-04-05T08:08:01Z</time>
      </trkpt>
      <trkpt lat="50.25003" lon="4.82413">
        <ele>207.8</ele>
        <time>2025-04-05T08:08:02Z</time>
      </trkpt>
      <trkpt lat="50.25003" lon="4.82403">
        <ele>207.8</ele>
        <time>2025-04-05T08:08:03Z</time>
      </trkpt>
      <trkpt lat="50.25003" lon="4.82389">
        <ele>208</ele>
        <time>2025-04-05T08:08:04Z</time>
      </trkpt>
      <trkpt lat="50.25003" lon="4.8238">
        <ele>207.8</ele>
        <time>2025-04-05T08:08:05Z</time>
      </trkpt>
      <trkpt lat="50.25002" lon="4.82368">
        <ele>207.8</ele>
        <time>2025-04-05T08:08:06Z</time>
      </trkpt>
      <trkpt lat="50.25002" lon="4.82355">
        <ele>207.4</ele>
        <time>2025-04-05T08:08:07Z</time>
      </trkpt>
      <trkpt lat="50.25002" lon="4.82344">
        <ele>207</ele>
        <time>2025-04-05T08:08:08Z</time>
      </trkpt>
      <trkpt lat="50.25002" lon="4.82332">
        <ele>206.6</ele>
        <time>2025-04-05T08:08:09Z</time>
      </trkpt>
      <trkpt lat="50.25002" lon="4.82319">
        <ele>206</ele>
        <time>2025-04-05T08:08:10Z</time>
      </trkpt>
      <trkpt lat="50.25001" lon="4.82306">
        <ele>205.6</ele>
        <time>2025-04-05T08:08:11Z</time>
      </trkpt>
      <trkpt lat="50.25001" lon="4.82293">
        <ele>205.2</ele>
        <time>2025-04-05T08:08:12Z</time>
      </trkpt>
      <trkpt lat="50.25" lon="4.8228">
        <ele>204.8</ele>
        <time>2025-04-05T08:08:13Z</time>
      </trkpt>
      <trkpt lat="50.25" lon="4.82267">
        <ele>204.6</ele>
        <time>2025-04-05T08:08:14Z</time>
      </trkpt>
      <trkpt lat="50.24999" lon="4.82254">
        <ele>204.4</ele>
        <time>2025-04-05T08:08:15Z</time>
      </trkpt>
      <trkpt lat="50.24999" lon="4.8224">
        <ele>204.2</ele>
        <time>2025-04-05T08:08:16Z</time>
      </trkpt>
      <trkpt lat="50.24998" lon="4.82228">
        <ele>204.2</ele>
        <time>2025-04-05T08:08:17Z</time>
      </trkpt>
      <trkpt lat="50.24997" lon="4.82215">
        <ele>204</ele>
        <time>2025-04-05T08:08:18Z</time>
      </trkpt>
      <trkpt lat="50.24997" lon="4.82202">
        <ele>203.8</ele>
        <time>2025-04-05T08:08:19Z</time>
      </trkpt>
      <trkpt lat="50.24996" lon="4.82189">
        <ele>203.8</ele>
        <time>2025-04-05T08:08:20Z</time>
      </trkpt>
      <trkpt lat="50.24996" lon="4.82177">
        <ele>203.8</ele>
        <time>2025-04-05T08:08:21Z</time>
      </trkpt>
      <trkpt lat="50.24995" lon="4.82166">
        <ele>203.8</ele>
        <time>2025-04-05T08:08:22Z</time>
      </trkpt>
      <trkpt lat="50.24995" lon="4.82154">
        <ele>203.8</ele>
        <time>2025-04-05T08:08:23Z</time>
      </trkpt>
      <trkpt lat="50.24994" lon="4.82143">
        <ele>204</ele>
        <time>2025-04-05T08:08:24Z</time>
      </trkpt>
      <trkpt lat="50.24992" lon="4.82133">
        <ele>204.2</ele>
        <time>2025-04-05T08:08:25Z</time>
      </trkpt>
      <trkpt lat="50.24991" lon="4.82123">
        <ele>204.4</ele>
        <time>2025-04-05T08:08:26Z</time>
      </trkpt>
      <trkpt lat="50.2499" lon="4.82114">
        <ele>204.6</ele>
        <time>2025-04-05T08:08:27Z</time>
      </trkpt>
      <trkpt lat="50.24989" lon="4.82105">
        <ele>204.8</ele>
        <time>2025-04-05T08:08:28Z</time>
      </trkpt>
      <trkpt lat="50.24987" lon="4.82096">
        <ele>205</ele>
        <time>2025-04-05T08:08:29Z</time>
      </trkpt>
      <trkpt lat="50.24986" lon="4.82087">
        <ele>205.4</ele>
        <time>2025-04-05T08:08:30Z</time>
      </trkpt>
      <trkpt lat="50.24984" lon="4.82078">
        <ele>205.6</ele>
        <time>2025-04-05T08:08:31Z</time>
      </trkpt>
      <trkpt lat="50.24983" lon="4.8207">
        <ele>206</ele>
        <time>2025-04-05T08:08:32Z</time>
      </trkpt>
      <trkpt lat="50.24981" lon="4.82062">
        <ele>206.4</ele>
        <time>2025-04-05T08:08:33Z</time>
      </trkpt>
      <trkpt lat="50.2498" lon="4.82055">
        <ele>207</ele>
        <time>2025-04-05T08:08:34Z</time>
      </trkpt>
      <trkpt lat="50.24978" lon="4.82048">
        <ele>207.4</ele>
        <time>2025-04-05T08:08:35Z</time>
      </trkpt>
      <trkpt lat="50.24976" lon="4.82042">
        <ele>207.8</ele>
        <time>2025-04-05T08:08:36Z</time>
      </trkpt>
      <trkpt lat="50.24974" lon="4.82037">
        <ele>208.2</ele>
        <time>2025-04-05T08:08:37Z</time>
      </trkpt>
      <trkpt lat="50.24973" lon="4.82031">
        <ele>208.6</ele>
        <time>2025-04-05T08:08:38Z</time>
      </trkpt>
      <trkpt lat="50.24972" lon="4.82027">
        <ele>209</ele>
        <time>2025-04-05T08:08:39Z</time>
      </trkpt>
      <trkpt lat="50.24971" lon="4.82022">
        <ele>209.4</ele>
        <time>2025-04-05T08:08:40Z</time>
      </trkpt>
      <trkpt lat="50.2497" lon="4.82017">
        <ele>209.6</ele>
        <time>2025-04-05T08:08:41Z</time>
      </trkpt>
      <trkpt lat="50.24968" lon="4.82012">
        <ele>210</ele>
        <time>2025-04-05T08:08:42Z</time>
      </trkpt>
      <trkpt lat="50.24967" lon="4.82007">
        <ele>210.2</ele>
        <time>2025-04-05T08:08:43Z</time>
      </trkpt>
      <trkpt lat="50.24966" lon="4.82003">
        <ele>210.6</ele>
        <time>2025-04-05T08:08:44Z</time>
      </trkpt>
      <trkpt lat="50.24965" lon="4.81998">
        <ele>210.8</ele>
        <time>2025-04-05T08:08:45Z</time>
      </trkpt>
      <trkpt lat="50.24963" lon="4.81993">
        <ele>211.2</ele>
        <time>2025-04-05T08:08:46Z</time>
      </trkpt>
      <trkpt lat="50.24962" lon="4.81989">
        <ele>211.6</ele>
        <time>2025-04-05T08:08:47Z</time>
      </trkpt>
      <trkpt lat="50.24961" lon="4.81984">
        <ele>211.8</ele>
        <time>2025-04-05T08:08:48Z</time>
      </trkpt>
      <trkpt lat="50.2496" lon="4.8198">
        <ele>212</ele>
        <time>2025-04-05T08:08:49Z</time>
      </trkpt>
      <trkpt lat="50.24959" lon="4.81975">
        <ele>212.4</ele>
        <time>2025-04-05T08:08:50Z</time>
      </trkpt>
      <trkpt lat="50.24958" lon="4.81971">
        <ele>212.6</ele>
        <time>2025-04-05T08:08:51Z</time>
      </trkpt>
      <trkpt lat="50.24957" lon="4.81966">
        <ele>212.8</ele>
        <time>2025-04-05T08:08:52Z</time>
      </trkpt>
      <trkpt lat="50.24955" lon="4.81963">
        <ele>213.2</ele>
        <time>2025-04-05T08:08:53Z</time>
      </trkpt>
      <trkpt lat="50.24954" lon="4.81957">
        <ele>213.4</ele>
        <time>2025-04-05T08:08:54Z</time>
      </trkpt>
      <trkpt lat="50.24953" lon="4.81953">
        <ele>213.6</ele>
        <time>2025-04-05T08:08:55Z</time>
      </trkpt>
      <trkpt lat="50.24952" lon="4.81949">
        <ele>213.8</ele>
        <time>2025-04-05T08:08:56Z</time>
      </trkpt>
      <trkpt lat="50.2495" lon="4.81944">
        <ele>214.2</ele>
        <time>2025-04-05T08:08:57Z</time>
      </trkpt>
      <trkpt lat="50.24949" lon="4.8194">
        <ele>214.4</ele>
        <time>2025-04-05T08:08:58Z</time>
      </trkpt>
      <trkpt lat="50.24948" lon="4.81935">
        <ele>214.6</ele>
        <time>2025-04-05T08:08:59Z</time>
      </trkpt>
      <trkpt lat="50.24947" lon="4.81931">
        <ele>214.8</ele>
        <time>2025-04-05T08:09:00Z</time>
      </trkpt>
      <trkpt lat="50.24945" lon="4.81927">
        <ele>215.2</ele>
        <time>2025-04-05T08:09:01Z</time>
      </trkpt>
      <trkpt lat="50.24944" lon="4.81923">
        <ele>215.4</ele>
        <time>2025-04-05T08:09:02Z</time>
      </trkpt>
      <trkpt lat="50.24943" lon="4.81919">
        <ele>215.8</ele>
        <time>2025-04-05T08:09:03Z</time>
      </trkpt>
      <trkpt lat="50.24942" lon="4.81916">
        <ele>216</ele>
        <time>2025-04-05T08:09:04Z</time>
      </trkpt>
      <trkpt lat="50.24941" lon="4.81912">
        <ele>216.2</ele>
        <time>2025-04-05T08:09:05Z</time>
      </trkpt>
      <trkpt lat="50.24939" lon="4.81908">
        <ele>216.6</ele>
        <time>2025-04-05T08:09:06Z</time>
      </trkpt>
      <trkpt lat="50.24938" lon="4.81904">
        <ele>216.8</ele>
        <time>2025-04-05T08:09:07Z</time>
      </trkpt>
      <trkpt lat="50.24937" lon="4.81901">
        <ele>217</ele>
        <time>2025-04-05T08:09:08Z</time>
      </trkpt>
      <trkpt lat="50.24936" lon="4.81897">
        <ele>217.4</ele>
        <time>2025-04-05T08:09:09Z</time>
      </trkpt>
      <trkpt lat="50.24935" lon="4.81893">
        <ele>217.6</ele>
        <time>2025-04-05T08:09:10Z</time>
      </trkpt>
      <trkpt lat="50.24934" lon="4.81889">
        <ele>218</ele>
        <time>2025-04-05T08:09:11Z</time>
      </trkpt>
      <trkpt lat="50.24933" lon="4.81885">
        <ele>218.2</ele>
        <time>2025-04-05T08:09:12Z</time>
      </trkpt>
      <trkpt lat="50.24932" lon="4.81882">
        <ele>218.4</ele>
        <time>2025-04-05T08:09:13Z</time>
      </trkpt>
      <trkpt lat="50.24931" lon="4.81878">
        <ele>218.8</ele>
        <time>2025-04-05T08:09:14Z</time>
      </trkpt>
      <trkpt lat="50.24931" lon="4.81874">
        <ele>219</ele>
        <time>2025-04-05T08:09:15Z</time>
      </trkpt>
      <trkpt lat="50.24929" lon="4.81871">
        <ele>219.4</ele>
        <time>2025-04-05T08:09:16Z</time>
      </trkpt>
      <trkpt lat="50.24929" lon="4.81867">
        <ele>219.6</ele>
        <time>2025-04-05T08:09:17Z</time>
      </trkpt>
      <trkpt lat="50.24928" lon="4.81864">
        <ele>219.8</ele>
        <time>2025-04-05T08:09:18Z</time>
      </trkpt>
      <trkpt lat="50.24927" lon="4.8186">
        <ele>220.2</ele>
        <time>2025-04-05T08:09:19Z</time>
      </trkpt>
      <trkpt lat="50.24926" lon="4.81856">
        <ele>220.4</ele>
        <time>2025-04-05T08:09:20Z</time>
      </trkpt>
      <trkpt lat="50.24926" lon="4.81852">
        <ele>220.8</ele>
        <time>2025-04-05T08:09:21Z</time>
      </trkpt>
      <trkpt lat="50.24926" lon="4.81849">
        <ele>221</ele>
        <time>2025-04-05T08:09:22Z</time>
      </trkpt>
      <trkpt lat="50.24925" lon="4.81845">
        <ele>221.2</ele>
        <time>2025-04-05T08:09:23Z</time>
      </trkpt>
      <trkpt lat="50.24925" lon="4.81841">
        <ele>221.6</ele>
        <time>2025-04-05T08:09:24Z</time>
      </trkpt>
      <trkpt lat="50.24924" lon="4.81838">
        <ele>221.8</ele>
        <time>2025-04-05T08:09:25Z</time>
      </trkpt>
      <trkpt lat="50.24923" lon="4.81834">
        <ele>222</ele>
        <time>2025-04-05T08:09:26Z</time>
      </trkpt>
      <trkpt lat="50.24923" lon="4.81831">
        <ele>222.4</ele>
        <time>2025-04-05T08:09:27Z</time>
      </trkpt>
      <trkpt lat="50.24923" lon="4.81827">
        <ele>222.6</ele>
        <time>2025-04-05T08:09:28Z</time>
      </trkpt>
      <trkpt lat="50.24922" lon="4.81823">
        <ele>222.8</ele>
        <time>2025-04-05T08:09:29Z</time>
      </trkpt>
      <trkpt lat="50.24921" lon="4.8182">
        <ele>223.2</ele>
        <time>2025-04-05T08:09:30Z</time>
      </trkpt>
      <trkpt lat="50.24921" lon="4.81816">
        <ele>223.4</ele>
        <time>2025-04-05T08:09:31Z</time>
      </trkpt>
      <trkpt lat="50.2492" lon="4.81812">
        <ele>223.6</ele>
        <time>2025-04-05T08:09:32Z</time>
      </trkpt>
      <trkpt lat="50.2492" lon="4.81808">
        <ele>223.8</ele>
        <time>2025-04-05T08:09:33Z</time>
      </trkpt>
      <trkpt lat="50.24918" lon="4.81805">
        <ele>224</ele>
        <time>2025-04-05T08:09:34Z</time>
      </trkpt>
      <trkpt lat="50.24917" lon="4.81802">
        <ele>224.2</ele>
        <time>2025-04-05T08:09:35Z</time>
      </trkpt>
      <trkpt lat="50.24917" lon="4.81799">
        <ele>224.4</ele>
        <time>2025-04-05T08:09:36Z</time>
      </trkpt>
      <trkpt lat="50.24916" lon="4.81795">
        <ele>224.6</ele>
        <time>2025-04-05T08:09:37Z</time>
      </trkpt>
      <trkpt lat="50.24914" lon="4.81792">
        <ele>224.8</ele>
        <time>2025-04-05T08:09:38Z</time>
      </trkpt>
      <trkpt lat="50.24913" lon="4.81789">
        <ele>225</ele>
        <time>2025-04-05T08:09:39Z</time>
      </trkpt>
      <trkpt lat="50.24912" lon="4.81785">
        <ele>225.2</ele>
        <time>2025-04-05T08:09:40Z</time>
      </trkpt>
      <trkpt lat="50.24911" lon="4.81782">
        <ele>225.6</ele>
        <time>2025-04-05T08:09:41Z</time>
      </trkpt>
      <trkpt lat="50.24909" lon="4.81779">
        <ele>225.6</ele>
        <time>2025-04-05T08:09:42Z</time>
      </trkpt>
      <trkpt lat="50.24908" lon="4.81775">
        <ele>225.8</ele>
        <time>2025-04-05T08:09:43Z</time>
      </trkpt>
      <trkpt lat="50.24907" lon="4.81772">
        <ele>226</ele>
        <time>2025-04-05T08:09:44Z</time>
      </trkpt>
      <trkpt lat="50.24906" lon="4.81768">
        <ele>226.2</ele>
        <time>2025-04-05T08:09:45Z</time>
      </trkpt>
      <trkpt lat="50.24904" lon="4.81765">
        <ele>226.4</ele>
        <time>2025-04-05T08:09:46Z</time>
      </trkpt>
      <trkpt lat="50.24902" lon="4.81761">
        <ele>226.4</ele>
        <time>2025-04-05T08:09:47Z</time>
      </trkpt>
      <trkpt lat="50.24901" lon="4.81758">
        <ele>226.6</ele>
        <time>2025-04-05T08:09:48Z</time>
      </trkpt>
      <trkpt lat="50.24899" lon="4.81754">
        <ele>226.8</ele>
        <time>2025-04-05T08:09:49Z</time>
      </trkpt>
      <trkpt lat="50.24898" lon="4.8175">
        <ele>226.8</ele>
        <time>2025-04-05T08:09:50Z</time>
      </trkpt>
      <trkpt lat="50.24896" lon="4.81746">
        <ele>227</ele>
        <time>2025-04-05T08:09:51Z</time>
      </trkpt>
      <trkpt lat="50.24894" lon="4.81742">
        <ele>227</ele>
        <time>2025-04-05T08:09:52Z</time>
      </trkpt>
      <trkpt lat="50.24893" lon="4.81738">
        <ele>227.2</ele>
        <time>2025-04-05T08:09:53Z</time>
      </trkpt>
      <trkpt lat="50.24891" lon="4.81735">
        <ele>227.4</ele>
        <time>2025-04-05T08:09:54Z</time>
      </trkpt>
      <trkpt lat="50.2489" lon="4.81731">
        <ele>227.4</ele>
        <time>2025-04-05T08:09:55Z</time>
      </trkpt>
      <trkpt lat="50.24888" lon="4.81728">
        <ele>227.6</ele>
        <time>2025-04-05T08:09:56Z</time>
      </trkpt>
      <trkpt lat="50.24887" lon="4.81725">
        <ele>227.8</ele>
        <time>2025-04-05T08:09:57Z</time>
      </trkpt>
      <trkpt lat="50.24885" lon="4.81721">
        <ele>228</ele>
        <time>2025-04-05T08:09:58Z</time>
      </trkpt>
      <trkpt lat="50.24884" lon="4.81718">
        <ele>228.2</ele>
        <time>2025-04-05T08:09:59Z</time>
      </trkpt>
      <trkpt lat="50.24883" lon="4.81715">
        <ele>228.4</ele>
        <time>2025-04-05T08:10:00Z</time>
      </trkpt>
      <trkpt lat="50.24881" lon="4.81711">
        <ele>228.6</ele>
        <time>2025-04-05T08:10:01Z</time>
      </trkpt>
      <trkpt lat="50.24879" lon="4.81708">
        <ele>228.8</ele>
        <time>2025-04-05T08:10:02Z</time>
      </trkpt>
      <trkpt lat="50.24878" lon="4.81705">
        <ele>229</ele>
        <time>2025-04-05T08:10:03Z</time>
      </trkpt>
      <trkpt lat="50.24876" lon="4.81702">
        <ele>229.2</ele>
        <time>2025-04-05T08:10:04Z</time>
      </trkpt>
      <trkpt lat="50.24875" lon="4.81699">
        <ele>229.6</ele>
        <time>2025-04-05T08:10:05Z</time>
      </trkpt>
      <trkpt lat="50.24873" lon="4.81696">
        <ele>229.8</ele>
        <time>2025-04-05T08:10:06Z</time>
      </trkpt>
      <trkpt lat="50.24871" lon="4.81694">
        <ele>230</ele>
        <time>2025-04-05T08:10:07Z</time>
      </trkpt>
      <trkpt lat="50.24869" lon="4.81691">
        <ele>230.2</ele>
        <time>2025-04-05T08:10:08Z</time>
      </trkpt>
      <trkpt lat="50.24867" lon="4.81687">
        <ele>230.6</ele>
        <time>2025-04-05T08:10:09Z</time>
      </trkpt>
      <trkpt lat="50.24866" lon="4.81685">
        <ele>230.8</ele>
        <time>2025-04-05T08:10:10Z</time>
      </trkpt>
      <trkpt lat="50.24864" lon="4.81682">
        <ele>231</ele>
        <time>2025-04-05T08:10:11Z</time>
      </trkpt>
      <trkpt lat="50.24862" lon="4.81679">
        <ele>231.2</ele>
        <time>2025-04-05T08:10:12Z</time>
      </trkpt>
      <trkpt lat="50.2486" lon="4.81676">
        <ele>231.4</ele>
        <time>2025-04-05T08:10:13Z</time>
      </trkpt>
      <trkpt lat="50.24859" lon="4.81673">
        <ele>231.8</ele>
        <time>2025-04-05T08:10:14Z</time>
      </trkpt>
      <trkpt lat="50.24857" lon="4.81671">
        <ele>232</ele>
        <time>2025-04-05T08:10:15Z</time>
      </trkpt>
      <trkpt lat="50.24855" lon="4.81669">
        <ele>232.4</ele>
        <time>2025-04-05T08:10:16Z</time>
      </trkpt>
      <trkpt lat="50.24854" lon="4.81666">
        <ele>232.6</ele>
        <time>2025-04-05T08:10:17Z</time>
      </trkpt>
      <trkpt lat="50.24852" lon="4.81664">
        <ele>232.8</ele>
        <time>2025-04-05T08:10:18Z</time>
      </trkpt>
      <trkpt lat="50.2485" lon="4.81662">
        <ele>233.2</ele>
        <time>2025-04-05T08:10:19Z</time>
      </trkpt>
      <trkpt lat="50.24848" lon="4.8166">
        <ele>233.4</ele>
        <time>2025-04-05T08:10:20Z</time>
      </trkpt>
      <trkpt lat="50.24847" lon="4.81658">
        <ele>233.6</ele>
        <time>2025-04-05T08:10:21Z</time>
      </trkpt>
      <trkpt lat="50.24845" lon="4.81655">
        <ele>234</ele>
        <time>2025-04-05T08:10:22Z</time>
      </trkpt>
      <trkpt lat="50.24844" lon="4.81653">
        <ele>234.2</ele>
        <time>2025-04-05T08:10:23Z</time>
      </trkpt>
      <trkpt lat="50.24842" lon="4.81652">
        <ele>234.6</ele>
        <time>2025-04-05T08:10:24Z</time>
      </trkpt>
      <trkpt lat="50.2484" lon="4.8165">
        <ele>234.8</ele>
        <time>2025-04-05T08:10:25Z</time>
      </trkpt>
      <trkpt lat="50.24839" lon="4.81648">
        <ele>235.2</ele>
        <time>2025-04-05T08:10:26Z</time>
      </trkpt>
      <trkpt lat="50.24838" lon="4.81646">
        <ele>235.4</ele>
        <time>2025-04-05T08:10:27Z</time>
      </trkpt>
      <trkpt lat="50.24836" lon="4.81645">
        <ele>235.6</ele>
        <time>2025-04-05T08:10:28Z</time>
      </trkpt>
      <trkpt lat="50.24834" lon="4.81643">
        <ele>236</ele>
        <time>2025-04-05T08:10:29Z</time>
      </trkpt>
      <trkpt lat="50.24833" lon="4.81641">
        <ele>236.2</ele>
        <time>2025-04-05T08:10:30Z</time>
      </trkpt>
      <trkpt lat="50.24831" lon="4.81639">
        <ele>236.6</ele>
        <time>2025-04-05T08:10:31Z</time>
      </trkpt>
      <trkpt lat="50.2483" lon="4.81637">
        <ele>236.8</ele>
        <time>2025-04-05T08:10:32Z</time>
      </trkpt>
      <trkpt lat="50.24828" lon="4.81636">
        <ele>237.2</ele>
        <time>2025-04-05T08:10:33Z</time>
      </trkpt>
      <trkpt lat="50.24826" lon="4.81635">
        <ele>237.4</ele>
        <time>2025-04-05T08:10:34Z</time>
      </trkpt>
      <trkpt lat="50.24824" lon="4.81634">
        <ele>237.6</ele>
        <time>2025-04-05T08:10:35Z</time>
      </trkpt>
      <trkpt lat="50.24823" lon="4.81633">
        <ele>238</ele>
        <time>2025-04-05T08:10:36Z</time>
      </trkpt>
      <trkpt lat="50.24821" lon="4.81633">
        <ele>238.2</ele>
        <time>2025-04-05T08:10:37Z</time>
      </trkpt>
      <trkpt lat="50.24819" lon="4.81633">
        <ele>238.4</ele>
        <time>2025-04-05T08:10:38Z</time>
      </trkpt>
      <trkpt lat="50.24817" lon="4.81634">
        <ele>238.8</ele>
        <time>2025-04-05T08:10:39Z</time>
      </trkpt>
      <trkpt lat="50.24815" lon="4.81634">
        <ele>239</ele>
        <time>2025-04-05T08:10:40Z</time>
      </trkpt>
      <trkpt lat="50.24814" lon="4.81634">
        <ele>239.2</ele>
        <time>2025-04-05T08:10:41Z</time>
      </trkpt>
      <trkpt lat="50.24812" lon="4.81633">
        <ele>239.6</ele>
        <time>2025-04-05T08:10:42Z</time>
      </trkpt>
      <trkpt lat="50.2481" lon="4.81633">
        <ele>239.8</ele>
        <time>2025-04-05T08:10:43Z</time>
      </trkpt>
      <trkpt lat="50.24808" lon="4.81632">
        <ele>240</ele>
        <time>2025-04-05T08:10:44Z</time>
      </trkpt>
      <trkpt lat="50.24806" lon="4.81632">
        <ele>240.2</ele>
        <time>2025-04-05T08:10:45Z</time>
      </trkpt>
      <trkpt lat="50.24804" lon="4.81631">
        <ele>240.4</ele>
        <time>2025-04-05T08:10:46Z</time>
      </trkpt>
      <trkpt lat="50.24802" lon="4.8163">
        <ele>240.6</ele>
        <time>2025-04-05T08:10:47Z</time>
      </trkpt>
      <trkpt lat="50.24799" lon="4.81629">
        <ele>241</ele>
        <time>2025-04-05T08:10:48Z</time>
      </trkpt>
      <trkpt lat="50.24798" lon="4.81628">
        <ele>241.2</ele>
        <time>2025-04-05T08:10:49Z</time>
      </trkpt>
      <trkpt lat="50.24796" lon="4.81627">
        <ele>241.4</ele>
        <time>2025-04-05T08:10:50Z</time>
      </trkpt>
      <trkpt lat="50.24794" lon="4.81625">
        <ele>241.6</ele>
        <time>2025-04-05T08:10:51Z</time>
      </trkpt>
      <trkpt lat="50.24791" lon="4.81624">
        <ele>241.8</ele>
        <time>2025-04-05T08:10:52Z</time>
      </trkpt>
      <trkpt lat="50.2479" lon="4.81623">
        <ele>242</ele>
        <time>2025-04-05T08:10:53Z</time>
      </trkpt>
      <trkpt lat="50.24788" lon="4.81622">
        <ele>242.2</ele>
        <time>2025-04-05T08:10:54Z</time>
      </trkpt>
      <trkpt lat="50.24785" lon="4.8162">
        <ele>242.4</ele>
        <time>2025-04-05T08:10:55Z</time>
      </trkpt>
      <trkpt lat="50.24783" lon="4.81619">
        <ele>242.8</ele>
        <time>2025-04-05T08:10:56Z</time>
      </trkpt>
      <trkpt lat="50.24781" lon="4.81618">
        <ele>243</ele>
        <time>2025-04-05T08:10:57Z</time>
      </trkpt>
      <trkpt lat="50.24779" lon="4.81617">
        <ele>243.2</ele>
        <time>2025-04-05T08:10:58Z</time>
      </trkpt>
      <trkpt lat="50.24777" lon="4.81616">
        <ele>243.4</ele>
        <time>2025-04-05T08:10:59Z</time>
      </trkpt>
      <trkpt lat="50.24775" lon="4.81615">
        <ele>243.6</ele>
        <time>2025-04-05T08:11:00Z</time>
      </trkpt>
      <trkpt lat="50.24773" lon="4.81613">
        <ele>243.8</ele>
        <time>2025-04-05T08:11:01Z</time>
      </trkpt>
      <trkpt lat="50.24771" lon="4.81612">
        <ele>244</ele>
        <time>2025-04-05T08:11:02Z</time>
      </trkpt>
      <trkpt lat="50.24769" lon="4.8161">
        <ele>244.2</ele>
        <time>2025-04-05T08:11:03Z</time>
      </trkpt>
      <trkpt lat="50.24767" lon="4.81609">
        <ele>244.6</ele>
        <time>2025-04-05T08:11:04Z</time>
      </trkpt>
      <trkpt lat="50.24765" lon="4.81608">
        <ele>244.8</ele>
        <time>2025-04-05T08:11:05Z</time>
      </trkpt>
      <trkpt lat="50.24763" lon="4.81607">
        <ele>245</ele>
        <time>2025-04-05T08:11:06Z</time>
      </trkpt>
      <trkpt lat="50.24761" lon="4.81606">
        <ele>245.2</ele>
        <time>2025-04-05T08:11:07Z</time>
      </trkpt>
      <trkpt lat="50.2476" lon="4.81604">
        <ele>245.4</ele>
        <time>2025-04-05T08:11:08Z</time>
      </trkpt>
      <trkpt lat="50.24758" lon="4.81603">
        <ele>245.6</ele>
        <time>2025-04-05T08:11:09Z</time>
      </trkpt>
      <trkpt lat="50.24756" lon="4.81601">
        <ele>245.8</ele>
        <time>2025-04-05T08:11:10Z</time>
      </trkpt>
      <trkpt lat="50.24754" lon="4.816">
        <ele>246.2</ele>
        <time>2025-04-05T08:11:11Z</time>
      </trkpt>
      <trkpt lat="50.24752" lon="4.81599">
        <ele>246.4</ele>
        <time>2025-04-05T08:11:12Z</time>
      </trkpt>
      <trkpt lat="50.2475" lon="4.81597">
        <ele>246.6</ele>
        <time>2025-04-05T08:11:13Z</time>
      </trkpt>
      <trkpt lat="50.24748" lon="4.81596">
        <ele>246.8</ele>
        <time>2025-04-05T08:11:14Z</time>
      </trkpt>
      <trkpt lat="50.24746" lon="4.81595">
        <ele>246.8</ele>
        <time>2025-04-05T08:11:15Z</time>
      </trkpt>
      <trkpt lat="50.24744" lon="4.81593">
        <ele>247.2</ele>
        <time>2025-04-05T08:11:16Z</time>
      </trkpt>
      <trkpt lat="50.24743" lon="4.81592">
        <ele>247.4</ele>
        <time>2025-04-05T08:11:17Z</time>
      </trkpt>
      <trkpt lat="50.24741" lon="4.8159">
        <ele>247.4</ele>
        <time>2025-04-05T08:11:18Z</time>
      </trkpt>
      <trkpt lat="50.24739" lon="4.81588">
        <ele>247.6</ele>
        <time>2025-04-05T08:11:19Z</time>
      </trkpt>
      <trkpt lat="50.24736" lon="4.81586">
        <ele>247.8</ele>
        <time>2025-04-05T08:11:20Z</time>
      </trkpt>
      <trkpt lat="50.24734" lon="4.81585">
        <ele>247.8</ele>
        <time>2025-04-05T08:11:21Z</time>
      </trkpt>
      <trkpt lat="50.24731" lon="4.81583">
        <ele>248</ele>
        <time>2025-04-05T08:11:22Z</time>
      </trkpt>
      <trkpt lat="50.24729" lon="4.81582">
        <ele>248.2</ele>
        <time>2025-04-05T08:11:23Z</time>
      </trkpt>
      <trkpt lat="50.24727" lon="4.8158">
        <ele>248.2</ele>
        <time>2025-04-05T08:11:24Z</time>
      </trkpt>
      <trkpt lat="50.24725" lon="4.81578">
        <ele>248.4</ele>
        <time>2025-04-05T08:11:25Z</time>
      </trkpt>
      <trkpt lat="50.24722" lon="4.81577">
        <ele>248.6</ele>
        <time>2025-04-05T08:11:26Z</time>
      </trkpt>
      <trkpt lat="50.24719" lon="4.81575">
        <ele>248.6</ele>
        <time>2025-04-05T08:11:27Z</time>
      </trkpt>
      <trkpt lat="50.24717" lon="4.81573">
        <ele>248.8</ele>
        <time>2025-04-05T08:11:28Z</time>
      </trkpt>
      <trkpt lat="50.24715" lon="4.81572">
        <ele>249</ele>
        <time>2025-04-05T08:11:29Z</time>
      </trkpt>
      <trkpt lat="50.24712" lon="4.8157">
        <ele>249.2</ele>
        <time>2025-04-05T08:11:30Z</time>
      </trkpt>
      <trkpt lat="50.24709" lon="4.81569">
        <ele>249.2</ele>
        <time>2025-04-05T08:11:31Z</time>
      </trkpt>
      <trkpt lat="50.24706" lon="4.81568">
        <ele>249.4</ele>
        <time>2025-04-05T08:11:32Z</time>
      </trkpt>
      <trkpt lat="50.24704" lon="4.81567">
        <ele>249.4</ele>
        <time>2025-04-05T08:11:33Z</time>
      </trkpt>
      <trkpt lat="50.24702" lon="4.81566">
        <ele>249.6</ele>
        <time>2025-04-05T08:11:34Z</time>
      </trkpt>
      <trkpt lat="50.24699" lon="4.81566">
        <ele>249.8</ele>
        <time>2025-04-05T08:11:35Z</time>
      </trkpt>
      <trkpt lat="50.24696" lon="4.81565">
        <ele>249.8</ele>
        <time>2025-04-05T08:11:36Z</time>
      </trkpt>
      <trkpt lat="50.24694" lon="4.81563">
        <ele>250</ele>
        <time>2025-04-05T08:11:37Z</time>
      </trkpt>
      <trkpt lat="50.24691" lon="4.81562">
        <ele>250.2</ele>
        <time>2025-04-05T08:11:38Z</time>
      </trkpt>
      <trkpt lat="50.24689" lon="4.81559">
        <ele>250.2</ele>
        <time>2025-04-05T08:11:39Z</time>
      </trkpt>
      <trkpt lat="50.24686" lon="4.81558">
        <ele>250.4</ele>
        <time>2025-04-05T08:11:40Z</time>
      </trkpt>
      <trkpt lat="50.24684" lon="4.81557">
        <ele>250.6</ele>
        <time>2025-04-05T08:11:41Z</time>
      </trkpt>
      <trkpt lat="50.24682" lon="4.81557">
        <ele>250.6</ele>
        <time>2025-04-05T08:11:42Z</time>
      </trkpt>
      <trkpt lat="50.24679" lon="4.81556">
        <ele>250.8</ele>
        <time>2025-04-05T08:11:43Z</time>
      </trkpt>
      <trkpt lat="50.24677" lon="4.81555">
        <ele>250.8</ele>
        <time>2025-04-05T08:11:44Z</time>
      </trkpt>
      <trkpt lat="50.24675" lon="4.81554">
        <ele>250.8</ele>
        <time>2025-04-05T08:11:45Z</time>
      </trkpt>
      <trkpt lat="50.24672" lon="4.81553">
        <ele>251</ele>
        <time>2025-04-05T08:11:46Z</time>
      </trkpt>
      <trkpt lat="50.2467" lon="4.81552">
        <ele>251</ele>
        <time>2025-04-05T08:11:47Z</time>
      </trkpt>
      <trkpt lat="50.24666" lon="4.81552">
        <ele>250.8</ele>
        <time>2025-04-05T08:11:48Z</time>
      </trkpt>
      <trkpt lat="50.24662" lon="4.81551">
        <ele>250.8</ele>
        <time>2025-04-05T08:11:49Z</time>
      </trkpt>
      <trkpt lat="50.24659" lon="4.81551">
        <ele>250.8</ele>
        <time>2025-04-05T08:11:50Z</time>
      </trkpt>
      <trkpt lat="50.24656" lon="4.81552">
        <ele>250.6</ele>
        <time>2025-04-05T08:11:51Z</time>
      </trkpt>
      <trkpt lat="50.24653" lon="4.81553">
        <ele>250.4</ele>
        <time>2025-04-05T08:11:52Z</time>
      </trkpt>
      <trkpt lat="50.24648" lon="4.81556">
        <ele>250.2</ele>
        <time>2025-04-05T08:11:53Z</time>
      </trkpt>
      <trkpt lat="50.24645" lon="4.81558">
        <ele>250.2</ele>
        <time>2025-04-05T08:11:54Z</time>
      </trkpt>
      <trkpt lat="50.24641" lon="4.8156">
        <ele>249.8</ele>
        <time>2025-04-05T08:11:55Z</time>
      </trkpt>
      <trkpt lat="50.24638" lon="4.81562">
        <ele>249.6</ele>
        <time>2025-04-05T08:11:56Z</time>
      </trkpt>
      <trkpt lat="50.24635" lon="4.81564">
        <ele>249.4</ele>
        <time>2025-04-05T08:11:57Z</time>
      </trkpt>
      <trkpt lat="50.2463" lon="4.81566">
        <ele>249.2</ele>
        <time>2025-04-05T08:11:58Z</time>
      </trkpt>
      <trkpt lat="50.24626" lon="4.81568">
        <ele>249.2</ele>
        <time>2025-04-05T08:11:59Z</time>
      </trkpt>
      <trkpt lat="50.24622" lon="4.81569">
        <ele>249</ele>
        <time>2025-04-05T08:12:00Z</time>
      </trkpt>
      <trkpt lat="50.24618" lon="4.81569">
        <ele>248.8</ele>
        <time>2025-04-05T08:12:01Z</time>
      </trkpt>
      <trkpt lat="50.24612" lon="4.81568">
        <ele>248.8</ele>
        <time>2025-04-05T08:12:02Z</time>
      </trkpt>
      <trkpt lat="50.24608" lon="4.81567">
        <ele>248.6</ele>
        <time>2025-04-05T08:12:03Z</time>
      </trkpt>
      <trkpt lat="50.24604" lon="4.81566">
        <ele>248.6</ele>
        <time>2025-04-05T08:12:04Z</time>
      </trkpt>
      <trkpt lat="50.246" lon="4.81564">
        <ele>248.4</ele>
        <time>2025-04-05T08:12:05Z</time>
      </trkpt>
      <trkpt lat="50.24596" lon="4.81563">
        <ele>248.4</ele>
        <time>2025-04-05T08:12:06Z</time>
      </trkpt>
      <trkpt lat="50.24594" lon="4.81561">
        <ele>248.4</ele>
        <time>2025-04-05T08:12:07Z</time>
      </trkpt>
      <trkpt lat="50.24591" lon="4.8156">
        <ele>248.4</ele>
        <time>2025-04-05T08:12:08Z</time>
      </trkpt>
      <trkpt lat="50.2459" lon="4.8156">
        <ele>248.4</ele>
        <time>2025-04-05T08:12:09Z</time>
      </trkpt>
      <trkpt lat="50.2459" lon="4.81559">
        <ele>248.4</ele>
        <time>2025-04-05T08:12:10Z</time>
      </trkpt>
      <trkpt lat="50.24587" lon="4.81558">
        <ele>248.2</ele>
        <time>2025-04-05T08:12:45Z</time>
      </trkpt>
      <trkpt lat="50.24585" lon="4.81558">
        <ele>248.2</ele>
        <time>2025-04-05T08:12:46Z</time>
      </trkpt>
      <trkpt lat="50.24584" lon="4.81556">
        <ele>248.2</ele>
        <time>2025-04-05T08:12:47Z</time>
      </trkpt>
      <trkpt lat="50.24581" lon="4.81554">
        <ele>248.2</ele>
        <time>2025-04-05T08:12:48Z</time>
      </trkpt>
      <trkpt lat="50.24578" lon="4.81551">
        <ele>248</ele>
        <time>2025-04-05T08:12:49Z</time>
      </trkpt>
      <trkpt lat="50.24575" lon="4.81548">
        <ele>248</ele>
        <time>2025-04-05T08:12:50Z</time>
      </trkpt>
      <trkpt lat="50.24572" lon="4.81545">
        <ele>248</ele>
        <time>2025-04-05T08:12:51Z</time>
      </trkpt>
      <trkpt lat="50.2457" lon="4.81541">
        <ele>248</ele>
        <time>2025-04-05T08:12:52Z</time>
      </trkpt>
      <trkpt lat="50.24568" lon="4.81536">
        <ele>248</ele>
        <time>2025-04-05T08:12:53Z</time>
      </trkpt>
      <trkpt lat="50.24566" lon="4.8153">
        <ele>248</ele>
        <time>2025-04-05T08:12:54Z</time>
      </trkpt>
      <trkpt lat="50.24565" lon="4.81523">
        <ele>248</ele>
        <time>2025-04-05T08:12:55Z</time>
      </trkpt>
      <trkpt lat="50.24563" lon="4.81517">
        <ele>247.8</ele>
        <time>2025-04-05T08:12:56Z</time>
      </trkpt>
      <trkpt lat="50.24562" lon="4.81511">
        <ele>247.8</ele>
        <time>2025-04-05T08:12:57Z</time>
      </trkpt>
      <trkpt lat="50.24561" lon="4.81505">
        <ele>247.8</ele>
        <time>2025-04-05T08:12:58Z</time>
      </trkpt>
      <trkpt lat="50.2456" lon="4.81499">
        <ele>247.8</ele>
        <time>2025-04-05T08:12:59Z</time>
      </trkpt>
      <trkpt lat="50.24559" lon="4.81492">
        <ele>247.6</ele>
        <time>2025-04-05T08:13:00Z</time>
      </trkpt>
      <trkpt lat="50.24558" lon="4.81485">
        <ele>247.6</ele>
        <time>2025-04-05T08:13:01Z</time>
      </trkpt>
      <trkpt lat="50.24556" lon="4.81478">
        <ele>247.6</ele>
        <time>2025-04-05T08:13:02Z</time>
      </trkpt>
      <trkpt lat="50.24554" lon="4.8147">
        <ele>247.6</ele>
        <time>2025-04-05T08:13:03Z</time>
      </trkpt>
      <trkpt lat="50.24553" lon="4.81463">
        <ele>247.6</ele>
        <time>2025-04-05T08:13:04Z</time>
      </trkpt>
      <trkpt lat="50.24551" lon="4.81456">
        <ele>247.6</ele>
        <time>2025-04-05T08:13:05Z</time>
      </trkpt>
      <trkpt lat="50.2455" lon="4.81448">
        <ele>247.6</ele>
        <time>2025-04-05T08:13:06Z</time>
      </trkpt>
      <trkpt lat="50.24548" lon="4.8144">
        <ele>247.6</ele>
        <time>2025-04-05T08:13:07Z</time>
      </trkpt>
      <trkpt lat="50.24546" lon="4.81434">
        <ele>247.6</ele>
        <time>2025-04-05T08:13:08Z</time>
      </trkpt>
      <trkpt lat="50.24545" lon="4.81428">
        <ele>247.4</ele>
        <time>2025-04-05T08:13:09Z</time>
      </trkpt>
      <trkpt lat="50.24543" lon="4.8142">
        <ele>247.6</ele>
        <time>2025-04-05T08:13:10Z</time>
      </trkpt>
      <trkpt lat="50.24541" lon="4.81412">
        <ele>247.6</ele>
        <time>2025-04-05T08:13:11Z</time>
      </trkpt>
      <trkpt lat="50.24539" lon="4.81404">
        <ele>247.6</ele>
        <time>2025-04-05T08:13:12Z</time>
      </trkpt>
      <trkpt lat="50.24538" lon="4.81396">
        <ele>247.6</ele>
        <time>2025-04-05T08:13:13Z</time>
      </trkpt>
      <trkpt lat="50.24537" lon="4.8139">
        <ele>247.6</ele>
        <time>2025-04-05T08:13:14Z</time>
      </trkpt>
      <trkpt lat="50.24534" lon="4.81381">
        <ele>247.8</ele>
        <time>2025-04-05T08:13:15Z</time>
      </trkpt>
      <trkpt lat="50.24532" lon="4.81373">
        <ele>247.8</ele>
        <time>2025-04-05T08:13:16Z</time>
      </trkpt>
      <trkpt lat="50.24531" lon="4.81365">
        <ele>247.8</ele>
        <time>2025-04-05T08:13:17Z</time>
      </trkpt>
      <trkpt lat="50.24529" lon="4.81357">
        <ele>247.8</ele>
        <time>2025-04-05T08:13:18Z</time>
      </trkpt>
      <trkpt lat="50.24527" lon="4.81351">
        <ele>247.6</ele>
        <time>2025-04-05T08:13:19Z</time>
      </trkpt>
      <trkpt lat="50.24524" lon="4.81342">
        <ele>247.6</ele>
        <time>2025-04-05T08:13:20Z</time>
      </trkpt>
      <trkpt lat="50.24521" lon="4.81335">
        <ele>247.6</ele>
        <time>2025-04-05T08:13:21Z</time>
      </trkpt>
      <trkpt lat="50.24516" lon="4.81331">
        <ele>247.6</ele>
        <time>2025-04-05T08:13:22Z</time>
      </trkpt>
      <trkpt lat="50.24512" lon="4.81328">
        <ele>247.4</ele>
        <time>2025-04-05T08:13:23Z</time>
      </trkpt>
      <trkpt lat="50.24506" lon="4.81327">
        <ele>247.4</ele>
        <time>2025-04-05T08:13:24Z</time>
      </trkpt>
      <trkpt lat="50.24501" lon="4.81327">
        <ele>247</ele>
        <time>2025-04-05T08:13:25Z</time>
      </trkpt>
      <trkpt lat="50.24495" lon="4.81328">
        <ele>246.8</ele>
        <time>2025-04-05T08:13:26Z</time>
      </trkpt>
      <trkpt lat="50.24489" lon="4.81328">
        <ele>246.4</ele>
        <time>2025-04-05T08:13:27Z</time>
      </trkpt>
      <trkpt lat="50.24482" lon="4.81328">
        <ele>246.2</ele>
        <time>2025-04-05T08:13:28Z</time>
      </trkpt>
      <trkpt lat="50.24476" lon="4.81328">
        <ele>245.8</ele>
        <time>2025-04-05T08:13:29Z</time>
      </trkpt>
      <trkpt lat="50.2447" lon="4.81327">
        <ele>245.6</ele>
        <time>2025-04-05T08:13:30Z</time>
      </trkpt>
      <trkpt lat="50.24462" lon="4.81327">
        <ele>245.2</ele>
        <time>2025-04-05T08:13:31Z</time>
      </trkpt>
      <trkpt lat="50.24456" lon="4.81328">
        <ele>245</ele>
        <time>2025-04-05T08:13:32Z</time>
      </trkpt>
      <trkpt lat="50.24448" lon="4.81329">
        <ele>244.6</ele>
        <time>2025-04-05T08:13:33Z</time>
      </trkpt>
      <trkpt lat="50.24439" lon="4.81329">
        <ele>244.2</ele>
        <time>2025-04-05T08:13:34Z</time>
      </trkpt>
      <trkpt lat="50.24432" lon="4.8133">
        <ele>244</ele>
        <time>2025-04-05T08:13:35Z</time>
      </trkpt>
      <trkpt lat="50.24424" lon="4.8133">
        <ele>243.4</ele>
        <time>2025-04-05T08:13:36Z</time>
      </trkpt>
      <trkpt lat="50.24415" lon="4.81331">
        <ele>243.2</ele>
        <time>2025-04-05T08:13:37Z</time>
      </trkpt>
      <trkpt lat="50.24407" lon="4.81331">
        <ele>242.8</ele>
        <time>2025-04-05T08:13:38Z</time>
      </trkpt>
      <trkpt lat="50.24398" lon="4.81332">
        <ele>242.6</ele>
        <time>2025-04-05T08:13:39Z</time>
      </trkpt>
      <trkpt lat="50.2439" lon="4.81332">
        <ele>242.2</ele>
        <time>2025-04-05T08:13:40Z</time>
      </trkpt>
      <trkpt lat="50.24382" lon="4.81333">
        <ele>242</ele>
        <time>2025-04-05T08:13:41Z</time>
      </trkpt>
      <trkpt lat="50.24374" lon="4.81333">
        <ele>242</ele>
        <time>2025-04-05T08:13:42Z</time>
      </trkpt>
      <trkpt lat="50.24366" lon="4.81334">
        <ele>241.8</ele>
        <time>2025-04-05T08:13:43Z</time>
      </trkpt>
      <trkpt lat="50.24358" lon="4.81334">
        <ele>241.6</ele>
        <time>2025-04-05T08:13:44Z</time>
      </trkpt>
      <trkpt lat="50.2435" lon="4.81335">
        <ele>241.4</ele>
        <time>2025-04-05T08:13:45Z</time>
      </trkpt>
      <trkpt lat="50.24342" lon="4.81336">
        <ele>241.4</ele>
        <time>2025-04-05T08:13:46Z</time>
      </trkpt>
      <trkpt lat="50.24334" lon="4.81337">
        <ele>241.4</ele>
        <time>2025-04-05T08:13:47Z</time>
      </trkpt>
      <trkpt lat="50.24326" lon="4.81338">
        <ele>241.2</ele>
        <time>2025-04-05T08:13:48Z</time>
      </trkpt>
      <trkpt lat="50.2432" lon="4.8134">
        <ele>241.2</ele>
        <time>2025-04-05T08:13:49Z</time>
      </trkpt>
      <trkpt lat="50.24311" lon="4.81342">
        <ele>241</ele>
        <time>2025-04-05T08:13:50Z</time>
      </trkpt>
      <trkpt lat="50.24303" lon="4.81344">
        <ele>241</ele>
        <time>2025-04-05T08:13:51Z</time>
      </trkpt>
      <trkpt lat="50.24298" lon="4.81346">
        <ele>241</ele>
        <time>2025-04-05T08:13:52Z</time>
      </trkpt>
      <trkpt lat="50.24291" lon="4.81349">
        <ele>240.8</ele>
        <time>2025-04-05T08:13:53Z</time>
      </trkpt>
      <trkpt lat="50.24282" lon="4.81352">
        <ele>240.8</ele>
        <time>2025-04-05T08:13:54Z</time>
      </trkpt>
      <trkpt lat="50.24275" lon="4.81355">
        <ele>240.6</ele>
        <time>2025-04-05T08:13:55Z</time>
      </trkpt>
      <trkpt lat="50.24268" lon="4.81358">
        <ele>240.6</ele>
        <time>2025-04-05T08:13:56Z</time>
      </trkpt>
      <trkpt lat="50.24262" lon="4.8136">
        <ele>240.4</ele>
        <time>2025-04-05T08:13:57Z</time>
      </trkpt>
      <trkpt lat="50.24255" lon="4.81363">
        <ele>240.4</ele>
        <time>2025-04-05T08:13:58Z</time>
      </trkpt>
      <trkpt lat="50.24248" lon="4.81366">
        <ele>240.4</ele>
        <time>2025-04-05T08:13:59Z</time>
      </trkpt>
      <trkpt lat="50.24241" lon="4.81368">
        <ele>240.4</ele>
        <time>2025-04-05T08:14:00Z</time>
      </trkpt>
      <trkpt lat="50.24235" lon="4.8137">
        <ele>240.4</ele>
        <time>2025-04-05T08:14:01Z</time>
      </trkpt>
      <trkpt lat="50.24228" lon="4.81372">
        <ele>240.2</ele>
        <time>2025-04-05T08:14:02Z</time>
      </trkpt>
      <trkpt lat="50.24222" lon="4.81374">
        <ele>240.2</ele>
        <time>2025-04-05T08:14:03Z</time>
      </trkpt>
      <trkpt lat="50.24216" lon="4.81376">
        <ele>240.2</ele>
        <time>2025-04-05T08:14:04Z</time>
      </trkpt>
      <trkpt lat="50.2421" lon="4.81378">
        <ele>240.2</ele>
        <time>2025-04-05T08:14:05Z</time>
      </trkpt>
      <trkpt lat="50.24204" lon="4.8138">
        <ele>240.2</ele>
        <time>2025-04-05T08:14:06Z</time>
      </trkpt>
      <trkpt lat="50.24199" lon="4.81381">
        <ele>240.2</ele>
        <time>2025-04-05T08:14:07Z</time>
      </trkpt>
      <trkpt lat="50.24195" lon="4.81381">
        <ele>240.2</ele>
        <time>2025-04-05T08:14:08Z</time>
      </trkpt>
      <trkpt lat="50.24192" lon="4.81381">
        <ele>240.2</ele>
        <time>2025-04-05T08:14:09Z</time>
      </trkpt>
      <trkpt lat="50.24189" lon="4.81381">
        <ele>240.2</ele>
        <time>2025-04-05T08:14:10Z</time>
      </trkpt>
      <trkpt lat="50.24187" lon="4.81381">
        <ele>240.2</ele>
        <time>2025-04-05T08:14:11Z</time>
      </trkpt>
      <trkpt lat="50.24186" lon="4.81382">
        <ele>240.2</ele>
        <time>2025-04-05T08:14:12Z</time>
      </trkpt>
      <trkpt lat="50.24184" lon="4.81382">
        <ele>240.2</ele>
        <time>2025-04-05T08:14:13Z</time>
      </trkpt>
      <trkpt lat="50.24183" lon="4.81382">
        <ele>240.2</ele>
        <time>2025-04-05T08:14:14Z</time>
      </trkpt>
      <trkpt lat="50.24182" lon="4.81383">
        <ele>240.2</ele>
        <time>2025-04-05T08:14:15Z</time>
      </trkpt>
      <trkpt lat="50.24181" lon="4.81383">
        <ele>240.4</ele>
        <time>2025-04-05T08:14:16Z</time>
      </trkpt>
      <trkpt lat="50.24179" lon="4.81385">
        <ele>240.4</ele>
        <time>2025-04-05T08:14:17Z</time>
      </trkpt>
      <trkpt lat="50.24177" lon="4.81387">
        <ele>240.4</ele>
        <time>2025-04-05T08:14:18Z</time>
      </trkpt>
      <trkpt lat="50.24175" lon="4.81391">
        <ele>240.2</ele>
        <time>2025-04-05T08:14:19Z</time>
      </trkpt>
      <trkpt lat="50.24173" lon="4.81396">
        <ele>240.2</ele>
        <time>2025-04-05T08:14:20Z</time>
      </trkpt>
      <trkpt lat="50.2417" lon="4.81401">
        <ele>240.2</ele>
        <time>2025-04-05T08:14:21Z</time>
      </trkpt>
      <trkpt lat="50.24165" lon="4.81405">
        <ele>240.2</ele>
        <time>2025-04-05T08:14:22Z</time>
      </trkpt>
      <trkpt lat="50.2416" lon="4.81408">
        <ele>240.2</ele>
        <time>2025-04-05T08:14:23Z</time>
      </trkpt>
      <trkpt lat="50.24156" lon="4.81411">
        <ele>240.2</ele>
        <time>2025-04-05T08:14:24Z</time>
      </trkpt>
      <trkpt lat="50.24151" lon="4.81414">
        <ele>240.2</ele>
        <time>2025-04-05T08:14:25Z</time>
      </trkpt>
      <trkpt lat="50.24147" lon="4.81416">
        <ele>240.4</ele>
        <time>2025-04-05T08:14:26Z</time>
      </trkpt>
      <trkpt lat="50.24143" lon="4.81419">
        <ele>240.4</ele>
        <time>2025-04-05T08:14:27Z</time>
      </trkpt>
      <trkpt lat="50.24139" lon="4.81422">
        <ele>240.4</ele>
        <time>2025-04-05T08:14:28Z</time>
      </trkpt>
      <trkpt lat="50.24135" lon="4.81424">
        <ele>240.4</ele>
        <time>2025-04-05T08:14:29Z</time>
      </trkpt>
      <trkpt lat="50.24131" lon="4.81427">
        <ele>240.2</ele>
        <time>2025-04-05T08:14:30Z</time>
      </trkpt>
      <trkpt lat="50.24127" lon="4.81429">
        <ele>240.2</ele>
        <time>2025-04-05T08:14:31Z</time>
      </trkpt>
      <trkpt lat="50.24123" lon="4.81432">
        <ele>240.2</ele>
        <time>2025-04-05T08:14:32Z</time>
      </trkpt>
      <trkpt lat="50.24119" lon="4.81434">
        <ele>240.2</ele>
        <time>2025-04-05T08:14:33Z</time>
      </trkpt>
      <trkpt lat="50.24115" lon="4.81436">
        <ele>240</ele>
        <time>2025-04-05T08:14:34Z</time>
      </trkpt>
      <trkpt lat="50.2411" lon="4.81436">
        <ele>240</ele>
        <time>2025-04-05T08:14:35Z</time>
      </trkpt>
      <trkpt lat="50.24106" lon="4.81435">
        <ele>240</ele>
        <time>2025-04-05T08:14:36Z</time>
      </trkpt>
      <trkpt lat="50.24102" lon="4.81432">
        <ele>239.8</ele>
        <time>2025-04-05T08:14:37Z</time>
      </trkpt>
      <trkpt lat="50.24097" lon="4.81427">
        <ele>239.8</ele>
        <time>2025-04-05T08:14:38Z</time>
      </trkpt>
      <trkpt lat="50.24095" lon="4.81422">
        <ele>239.8</ele>
        <time>2025-04-05T08:14:39Z</time>
      </trkpt>
      <trkpt lat="50.24093" lon="4.81415">
        <ele>239.8</ele>
        <time>2025-04-05T08:14:40Z</time>
      </trkpt>
      <trkpt lat="50.24091" lon="4.81409">
        <ele>239.8</ele>
        <time>2025-04-05T08:14:41Z</time>
      </trkpt>
      <trkpt lat="50.24089" lon="4.81399">
        <ele>239.8</ele>
        <time>2025-04-05T08:14:42Z</time>
      </trkpt>
      <trkpt lat="50.24088" lon="4.81391">
        <ele>239.6</ele>
        <time>2025-04-05T08:14:43Z</time>
      </trkpt>
      <trkpt lat="50.24087" lon="4.81382">
        <ele>239.6</ele>
        <time>2025-04-05T08:14:44Z</time>
      </trkpt>
      <trkpt lat="50.24085" lon="4.81374">
        <ele>239.6</ele>
        <time>2025-04-05T08:14:45Z</time>
      </trkpt>
      <trkpt lat="50.24083" lon="4.81365">
        <ele>239.6</ele>
        <time>2025-04-05T08:14:46Z</time>
      </trkpt>
      <trkpt lat="50.24082" lon="4.81357">
        <ele>239.4</ele>
        <time>2025-04-05T08:14:47Z</time>
      </trkpt>
      <trkpt lat="50.2408" lon="4.81349">
        <ele>239.4</ele>
        <time>2025-04-05T08:14:48Z</time>
      </trkpt>
      <trkpt lat="50.24079" lon="4.8134">
        <ele>239.2</ele>
        <time>2025-04-05T08:14:49Z</time>
      </trkpt>
      <trkpt lat="50.24077" lon="4.81331">
        <ele>239.2</ele>
        <time>2025-04-05T08:14:50Z</time>
      </trkpt>
      <trkpt lat="50.24075" lon="4.81322">
        <ele>239.2</ele>
        <time>2025-04-05T08:14:51Z</time>
      </trkpt>
      <trkpt lat="50.24073" lon="4.81313">
        <ele>239</ele>
        <time>2025-04-05T08:14:52Z</time>
      </trkpt>
      <trkpt lat="50.24072" lon="4.81304">
        <ele>238.8</ele>
        <time>2025-04-05T08:14:53Z</time>
      </trkpt>
      <trkpt lat="50.2407" lon="4.81295">
        <ele>238.8</ele>
        <time>2025-04-05T08:14:54Z</time>
      </trkpt>
      <trkpt lat="50.24068" lon="4.81286">
        <ele>238.8</ele>
        <time>2025-04-05T08:14:55Z</time>
      </trkpt>
      <trkpt lat="50.24066" lon="4.81277">
        <ele>238.6</ele>
        <time>2025-04-05T08:14:56Z</time>
      </trkpt>
      <trkpt lat="50.24065" lon="4.81269">
        <ele>238.6</ele>
        <time>2025-04-05T08:14:57Z</time>
      </trkpt>
      <trkpt lat="50.24064" lon="4.8126">
        <ele>238.4</ele>
        <time>2025-04-05T08:14:58Z</time>
      </trkpt>
      <trkpt lat="50.24061" lon="4.81249">
        <ele>238.2</ele>
        <time>2025-04-05T08:14:59Z</time>
      </trkpt>
      <trkpt lat="50.2406" lon="4.8124">
        <ele>238</ele>
        <time>2025-04-05T08:15:00Z</time>
      </trkpt>
      <trkpt lat="50.24058" lon="4.8123">
        <ele>238</ele>
        <time>2025-04-05T08:15:01Z</time>
      </trkpt>
      <trkpt lat="50.24057" lon="4.8122">
        <ele>238</ele>
        <time>2025-04-05T08:15:02Z</time>
      </trkpt>
      <trkpt lat="50.24056" lon="4.8121">
        <ele>237.8</ele>
        <time>2025-04-05T08:15:03Z</time>
      </trkpt>
      <trkpt lat="50.24054" lon="4.812">
        <ele>237.6</ele>
        <time>2025-04-05T08:15:04Z</time>
      </trkpt>
      <trkpt lat="50.24053" lon="4.8119">
        <ele>237.6</ele>
        <time>2025-04-05T08:15:05Z</time>
      </trkpt>
      <trkpt lat="50.24051" lon="4.81179">
        <ele>237.4</ele>
        <time>2025-04-05T08:15:06Z</time>
      </trkpt>
      <trkpt lat="50.2405" lon="4.81169">
        <ele>237.2</ele>
        <time>2025-04-05T08:15:07Z</time>
      </trkpt>
      <trkpt lat="50.24049" lon="4.81159">
        <ele>236.8</ele>
        <time>2025-04-05T08:15:08Z</time>
      </trkpt>
      <trkpt lat="50.24048" lon="4.81149">
        <ele>236.6</ele>
        <time>2025-04-05T08:15:09Z</time>
      </trkpt>
      <trkpt lat="50.24046" lon="4.81139">
        <ele>236.4</ele>
        <time>2025-04-05T08:15:10Z</time>
      </trkpt>
      <trkpt lat="50.24045" lon="4.81129">
        <ele>236.2</ele>
        <time>2025-04-05T08:15:11Z</time>
      </trkpt>
      <trkpt lat="50.24043" lon="4.81119">
        <ele>236</ele>
        <time>2025-04-05T08:15:12Z</time>
      </trkpt>
      <trkpt lat="50.24041" lon="4.81109">
        <ele>235.8</ele>
        <time>2025-04-05T08:15:13Z</time>
      </trkpt>
      <trkpt lat="50.24039" lon="4.811">
        <ele>235.6</ele>
        <time>2025-04-05T08:15:14Z</time>
      </trkpt>
      <trkpt lat="50.24035" lon="4.81092">
        <ele>235.4</ele>
        <time>2025-04-05T08:15:15Z</time>
      </trkpt>
      <trkpt lat="50.24031" lon="4.81085">
        <ele>235.4</ele>
        <time>2025-04-05T08:15:16Z</time>
      </trkpt>
      <trkpt lat="50.24026" lon="4.81079">
        <ele>235.2</ele>
        <time>2025-04-05T08:15:17Z</time>
      </trkpt>
      <trkpt lat="50.24021" lon="4.81073">
        <ele>235</ele>
        <time>2025-04-05T08:15:18Z</time>
      </trkpt>
      <trkpt lat="50.24017" lon="4.81069">
        <ele>234.8</ele>
        <time>2025-04-05T08:15:19Z</time>
      </trkpt>
      <trkpt lat="50.24012" lon="4.81064">
        <ele>234.8</ele>
        <time>2025-04-05T08:15:20Z</time>
      </trkpt>
      <trkpt lat="50.24008" lon="4.81061">
        <ele>234.6</ele>
        <time>2025-04-05T08:15:21Z</time>
      </trkpt>
      <trkpt lat="50.24003" lon="4.81057">
        <ele>234.4</ele>
        <time>2025-04-05T08:15:22Z</time>
      </trkpt>
      <trkpt lat="50.23999" lon="4.81053">
        <ele>234.2</ele>
        <time>2025-04-05T08:15:23Z</time>
      </trkpt>
      <trkpt lat="50.23994" lon="4.8105">
        <ele>234</ele>
        <time>2025-04-05T08:15:24Z</time>
      </trkpt>
      <trkpt lat="50.23989" lon="4.81045">
        <ele>233.8</ele>
        <time>2025-04-05T08:15:25Z</time>
      </trkpt>
      <trkpt lat="50.23983" lon="4.81041">
        <ele>233.4</ele>
        <time>2025-04-05T08:15:26Z</time>
      </trkpt>
      <trkpt lat="50.23978" lon="4.81038">
        <ele>233.2</ele>
        <time>2025-04-05T08:15:27Z</time>
      </trkpt>
      <trkpt lat="50.23972" lon="4.81035">
        <ele>233</ele>
        <time>2025-04-05T08:15:28Z</time>
      </trkpt>
      <trkpt lat="50.23967" lon="4.81032">
        <ele>232.6</ele>
        <time>2025-04-05T08:15:29Z</time>
      </trkpt>
      <trkpt lat="50.23961" lon="4.81029">
        <ele>232.4</ele>
        <time>2025-04-05T08:15:30Z</time>
      </trkpt>
      <trkpt lat="50.23954" lon="4.81026">
        <ele>232</ele>
        <time>2025-04-05T08:15:31Z</time>
      </trkpt>
      <trkpt lat="50.23948" lon="4.81023">
        <ele>231.8</ele>
        <time>2025-04-05T08:15:32Z</time>
      </trkpt>
      <trkpt lat="50.23941" lon="4.8102">
        <ele>231.4</ele>
        <time>2025-04-05T08:15:33Z</time>
      </trkpt>
      <trkpt lat="50.23934" lon="4.81017">
        <ele>231.2</ele>
        <time>2025-04-05T08:15:34Z</time>
      </trkpt>
      <trkpt lat="50.23927" lon="4.81013">
        <ele>230.8</ele>
        <time>2025-04-05T08:15:35Z</time>
      </trkpt>
      <trkpt lat="50.2392" lon="4.8101">
        <ele>230.4</ele>
        <time>2025-04-05T08:15:36Z</time>
      </trkpt>
      <trkpt lat="50.23913" lon="4.81006">
        <ele>230</ele>
        <time>2025-04-05T08:15:37Z</time>
      </trkpt>
      <trkpt lat="50.23906" lon="4.81003">
        <ele>229.6</ele>
        <time>2025-04-05T08:15:38Z</time>
      </trkpt>
      <trkpt lat="50.23899" lon="4.80999">
        <ele>229.2</ele>
        <time>2025-04-05T08:15:39Z</time>
      </trkpt>
      <trkpt lat="50.23892" lon="4.80995">
        <ele>228.8</ele>
        <time>2025-04-05T08:15:40Z</time>
      </trkpt>
      <trkpt lat="50.23888" lon="4.80992">
        <ele>228.6</ele>
        <time>2025-04-05T08:15:41Z</time>
      </trkpt>
      <trkpt lat="50.23882" lon="4.80989">
        <ele>228.2</ele>
        <time>2025-04-05T08:15:42Z</time>
      </trkpt>
      <trkpt lat="50.23878" lon="4.80986">
        <ele>228</ele>
        <time>2025-04-05T08:15:43Z</time>
      </trkpt>
      <trkpt lat="50.23873" lon="4.80984">
        <ele>227.6</ele>
        <time>2025-04-05T08:15:44Z</time>
      </trkpt>
      <trkpt lat="50.23869" lon="4.80982">
        <ele>227.2</ele>
        <time>2025-04-05T08:15:45Z</time>
      </trkpt>
      <trkpt lat="50.23864" lon="4.80978">
        <ele>226.8</ele>
        <time>2025-04-05T08:15:46Z</time>
      </trkpt>
      <trkpt lat="50.23859" lon="4.80974">
        <ele>226.4</ele>
        <time>2025-04-05T08:15:47Z</time>
      </trkpt>
      <trkpt lat="50.23853" lon="4.8097">
        <ele>225.8</ele>
        <time>2025-04-05T08:15:48Z</time>
      </trkpt>
      <trkpt lat="50.23847" lon="4.80966">
        <ele>225.4</ele>
        <time>2025-04-05T08:15:49Z</time>
      </trkpt>
      <trkpt lat="50.23841" lon="4.80962">
        <ele>225</ele>
        <time>2025-04-05T08:15:50Z</time>
      </trkpt>
      <trkpt lat="50.23835" lon="4.80957">
        <ele>224.6</ele>
        <time>2025-04-05T08:15:51Z</time>
      </trkpt>
      <trkpt lat="50.23828" lon="4.80952">
        <ele>224.2</ele>
        <time>2025-04-05T08:15:52Z</time>
      </trkpt>
      <trkpt lat="50.23822" lon="4.80947">
        <ele>224</ele>
        <time>2025-04-05T08:15:53Z</time>
      </trkpt>
      <trkpt lat="50.23815" lon="4.80942">
        <ele>223.6</ele>
        <time>2025-04-05T08:15:54Z</time>
      </trkpt>
      <trkpt lat="50.23808" lon="4.80937">
        <ele>223.2</ele>
        <time>2025-04-05T08:15:55Z</time>
      </trkpt>
      <trkpt lat="50.23802" lon="4.80931">
        <ele>222.6</ele>
        <time>2025-04-05T08:15:56Z</time>
      </trkpt>
      <trkpt lat="50.23795" lon="4.80926">
        <ele>222.4</ele>
        <time>2025-04-05T08:15:57Z</time>
      </trkpt>
      <trkpt lat="50.23789" lon="4.8092">
        <ele>221.8</ele>
        <time>2025-04-05T08:15:58Z</time>
      </trkpt>
      <trkpt lat="50.23782" lon="4.80914">
        <ele>221.2</ele>
        <time>2025-04-05T08:15:59Z</time>
      </trkpt>
      <trkpt lat="50.23776" lon="4.80907">
        <ele>220.8</ele>
        <time>2025-04-05T08:16:00Z</time>
      </trkpt>
      <trkpt lat="50.2377" lon="4.809">
        <ele>220.2</ele>
        <time>2025-04-05T08:16:01Z</time>
      </trkpt>
      <trkpt lat="50.23765" lon="4.80894">
        <ele>219.6</ele>
        <time>2025-04-05T08:16:02Z</time>
      </trkpt>
      <trkpt lat="50.23758" lon="4.80884">
        <ele>219</ele>
        <time>2025-04-05T08:16:03Z</time>
      </trkpt>
      <trkpt lat="50.23752" lon="4.80875">
        <ele>218.2</ele>
        <time>2025-04-05T08:16:04Z</time>
      </trkpt>
      <trkpt lat="50.23745" lon="4.80866">
        <ele>217.6</ele>
        <time>2025-04-05T08:16:05Z</time>
      </trkpt>
      <trkpt lat="50.2374" lon="4.80859">
        <ele>217</ele>
        <time>2025-04-05T08:16:06Z</time>
      </trkpt>
      <trkpt lat="50.23734" lon="4.80849">
        <ele>216.4</ele>
        <time>2025-04-05T08:16:07Z</time>
      </trkpt>
      <trkpt lat="50.23726" lon="4.80839">
        <ele>215.8</ele>
        <time>2025-04-05T08:16:08Z</time>
      </trkpt>
      <trkpt lat="50.23718" lon="4.80827">
        <ele>215</ele>
        <time>2025-04-05T08:16:09Z</time>
      </trkpt>
      <trkpt lat="50.23712" lon="4.80817">
        <ele>214.4</ele>
        <time>2025-04-05T08:16:10Z</time>
      </trkpt>
      <trkpt lat="50.23704" lon="4.80808">
        <ele>213.8</ele>
        <time>2025-04-05T08:16:11Z</time>
      </trkpt>
      <trkpt lat="50.23697" lon="4.80801">
        <ele>213.2</ele>
        <time>2025-04-05T08:16:12Z</time>
      </trkpt>
      <trkpt lat="50.23689" lon="4.80793">
        <ele>212.6</ele>
        <time>2025-04-05T08:16:13Z</time>
      </trkpt>
      <trkpt lat="50.23681" lon="4.80786">
        <ele>212</ele>
        <time>2025-04-05T08:16:14Z</time>
      </trkpt>
      <trkpt lat="50.23673" lon="4.8078">
        <ele>211.4</ele>
        <time>2025-04-05T08:16:15Z</time>
      </trkpt>
      <trkpt lat="50.23665" lon="4.80775">
        <ele>211</ele>
        <time>2025-04-05T08:16:16Z</time>
      </trkpt>
      <trkpt lat="50.23657" lon="4.80771">
        <ele>210.6</ele>
        <time>2025-04-05T08:16:17Z</time>
      </trkpt>
      <trkpt lat="50.23649" lon="4.80767">
        <ele>210.2</ele>
        <time>2025-04-05T08:16:18Z</time>
      </trkpt>
      <trkpt lat="50.23643" lon="4.80764">
        <ele>209.8</ele>
        <time>2025-04-05T08:16:19Z</time>
      </trkpt>
      <trkpt lat="50.23637" lon="4.80761">
        <ele>209.6</ele>
        <time>2025-04-05T08:16:20Z</time>
      </trkpt>
      <trkpt lat="50.23632" lon="4.80759">
        <ele>209.2</ele>
        <time>2025-04-05T08:16:21Z</time>
      </trkpt>
      <trkpt lat="50.23629" lon="4.80757">
        <ele>208.8</ele>
        <time>2025-04-05T08:16:22Z</time>
      </trkpt>
      <trkpt lat="50.23625" lon="4.80755">
        <ele>208.6</ele>
        <time>2025-04-05T08:16:23Z</time>
      </trkpt>
      <trkpt lat="50.2362" lon="4.80752">
        <ele>208.2</ele>
        <time>2025-04-05T08:16:24Z</time>
      </trkpt>
      <trkpt lat="50.23615" lon="4.8075">
        <ele>207.6</ele>
        <time>2025-04-05T08:16:25Z</time>
      </trkpt>
      <trkpt lat="50.2361" lon="4.80747">
        <ele>207.2</ele>
        <time>2025-04-05T08:16:26Z</time>
      </trkpt>
      <trkpt lat="50.23604" lon="4.80743">
        <ele>206.8</ele>
        <time>2025-04-05T08:16:27Z</time>
      </trkpt>
      <trkpt lat="50.23598" lon="4.80739">
        <ele>206.2</ele>
        <time>2025-04-05T08:16:28Z</time>
      </trkpt>
      <trkpt lat="50.23591" lon="4.80734">
        <ele>205.8</ele>
        <time>2025-04-05T08:16:29Z</time>
      </trkpt>
      <trkpt lat="50.23584" lon="4.80729">
        <ele>205.2</ele>
        <time>2025-04-05T08:16:30Z</time>
      </trkpt>
      <trkpt lat="50.23577" lon="4.80724">
        <ele>204.6</ele>
        <time>2025-04-05T08:16:31Z</time>
      </trkpt>
      <trkpt lat="50.2357" lon="4.80718">
        <ele>204</ele>
        <time>2025-04-05T08:16:32Z</time>
      </trkpt>
      <trkpt lat="50.23562" lon="4.80712">
        <ele>203.2</ele>
        <time>2025-04-05T08:16:33Z</time>
      </trkpt>
      <trkpt lat="50.23554" lon="4.80704">
        <ele>202.6</ele>
        <time>2025-04-05T08:16:34Z</time>
      </trkpt>
      <trkpt lat="50.23546" lon="4.80695">
        <ele>201.8</ele>
        <time>2025-04-05T08:16:35Z</time>
      </trkpt>
      <trkpt lat="50.23538" lon="4.80686">
        <ele>201.2</ele>
        <time>2025-04-05T08:16:36Z</time>
      </trkpt>
      <trkpt lat="50.2353" lon="4.80677">
        <ele>200.8</ele>
        <time>2025-04-05T08:16:37Z</time>
      </trkpt>
      <trkpt lat="50.23522" lon="4.80667">
        <ele>200.2</ele>
        <time>2025-04-05T08:16:38Z</time>
      </trkpt>
      <trkpt lat="50.23514" lon="4.80658">
        <ele>199.8</ele>
        <time>2025-04-05T08:16:39Z</time>
      </trkpt>
      <trkpt lat="50.23506" lon="4.80649">
        <ele>199.6</ele>
        <time>2025-04-05T08:16:40Z</time>
      </trkpt>
      <trkpt lat="50.23499" lon="4.80641">
        <ele>199.4</ele>
        <time>2025-04-05T08:16:41Z</time>
      </trkpt>
      <trkpt lat="50.23492" lon="4.80634">
        <ele>199.2</ele>
        <time>2025-04-05T08:16:42Z</time>
      </trkpt>
      <trkpt lat="50.23486" lon="4.80627">
        <ele>199</ele>
        <time>2025-04-05T08:16:43Z</time>
      </trkpt>
      <trkpt lat="50.23481" lon="4.80621">
        <ele>199</ele>
        <time>2025-04-05T08:16:44Z</time>
      </trkpt>
      <trkpt lat="50.23476" lon="4.80616">
        <ele>198.8</ele>
        <time>2025-04-05T08:16:45Z</time>
      </trkpt>
      <trkpt lat="50.23471" lon="4.8061">
        <ele>198.8</ele>
        <time>2025-04-05T08:16:46Z</time>
      </trkpt>
      <trkpt lat="50.23466" lon="4.80605">
        <ele>198.8</ele>
        <time>2025-04-05T08:16:47Z</time>
      </trkpt>
      <trkpt lat="50.23462" lon="4.80599">
        <ele>198.8</ele>
        <time>2025-04-05T08:16:48Z</time>
      </trkpt>
      <trkpt lat="50.23456" lon="4.80594">
        <ele>198.8</ele>
        <time>2025-04-05T08:16:49Z</time>
      </trkpt>
      <trkpt lat="50.23452" lon="4.8059">
        <ele>198.8</ele>
        <time>2025-04-05T08:16:50Z</time>
      </trkpt>
      <trkpt lat="50.23446" lon="4.80584">
        <ele>198.8</ele>
        <time>2025-04-05T08:16:51Z</time>
      </trkpt>
      <trkpt lat="50.23441" lon="4.80578">
        <ele>198.6</ele>
        <time>2025-04-05T08:16:52Z</time>
      </trkpt>
      <trkpt lat="50.23436" lon="4.80572">
        <ele>198.6</ele>
        <time>2025-04-05T08:16:53Z</time>
      </trkpt>
      <trkpt lat="50.2343" lon="4.80566">
        <ele>198.6</ele>
        <time>2025-04-05T08:16:54Z</time>
      </trkpt>
      <trkpt lat="50.23425" lon="4.8056">
        <ele>198.6</ele>
        <time>2025-04-05T08:16:55Z</time>
      </trkpt>
      <trkpt lat="50.23419" lon="4.80554">
        <ele>198.4</ele>
        <time>2025-04-05T08:16:56Z</time>
      </trkpt>
      <trkpt lat="50.23414" lon="4.80548">
        <ele>198.6</ele>
        <time>2025-04-05T08:16:57Z</time>
      </trkpt>
      <trkpt lat="50.23409" lon="4.80543">
        <ele>198.6</ele>
        <time>2025-04-05T08:16:58Z</time>
      </trkpt>
      <trkpt lat="50.23403" lon="4.80537">
        <ele>198.6</ele>
        <time>2025-04-05T08:16:59Z</time>
      </trkpt>
      <trkpt lat="50.23397" lon="4.80532">
        <ele>198.6</ele>
        <time>2025-04-05T08:17:00Z</time>
      </trkpt>
      <trkpt lat="50.23393" lon="4.80526">
        <ele>198.6</ele>
        <time>2025-04-05T08:17:01Z</time>
      </trkpt>
      <trkpt lat="50.23387" lon="4.8052">
        <ele>198.6</ele>
        <time>2025-04-05T08:17:02Z</time>
      </trkpt>
      <trkpt lat="50.23382" lon="4.80515">
        <ele>198.6</ele>
        <time>2025-04-05T08:17:03Z</time>
      </trkpt>
      <trkpt lat="50.23376" lon="4.80509">
        <ele>198.6</ele>
        <time>2025-04-05T08:17:04Z</time>
      </trkpt>
      <trkpt lat="50.2337" lon="4.80503">
        <ele>198.6</ele>
        <time>2025-04-05T08:17:05Z</time>
      </trkpt>
      <trkpt lat="50.23365" lon="4.80498">
        <ele>198.6</ele>
        <time>2025-04-05T08:17:06Z</time>
      </trkpt>
      <trkpt lat="50.23359" lon="4.80492">
        <ele>198.6</ele>
        <time>2025-04-05T08:17:07Z</time>
      </trkpt>
      <trkpt lat="50.23354" lon="4.80487">
        <ele>198.6</ele>
        <time>2025-04-05T08:17:08Z</time>
      </trkpt>
      <trkpt lat="50.23349" lon="4.80482">
        <ele>198.6</ele>
        <time>2025-04-05T08:17:09Z</time>
      </trkpt>
      <trkpt lat="50.23343" lon="4.80477">
        <ele>198.6</ele>
        <time>2025-04-05T08:17:10Z</time>
      </trkpt>
      <trkpt lat="50.23338" lon="4.80472">
        <ele>198.6</ele>
        <time>2025-04-05T08:17:11Z</time>
      </trkpt>
      <trkpt lat="50.23333" lon="4.80467">
        <ele>198.6</ele>
        <time>2025-04-05T08:17:12Z</time>
      </trkpt>
      <trkpt lat="50.23327" lon="4.80463">
        <ele>198.4</ele>
        <time>2025-04-05T08:17:13Z</time>
      </trkpt>
      <trkpt lat="50.23322" lon="4.80459">
        <ele>198.4</ele>
        <time>2025-04-05T08:17:14Z</time>
      </trkpt>
      <trkpt lat="50.23316" lon="4.80455">
        <ele>198.4</ele>
        <time>2025-04-05T08:17:15Z</time>
      </trkpt>
      <trkpt lat="50.23311" lon="4.80451">
        <ele>198.2</ele>
        <time>2025-04-05T08:17:16Z</time>
      </trkpt>
      <trkpt lat="50.23304" lon="4.80448">
        <ele>198.2</ele>
        <time>2025-04-05T08:17:17Z</time>
      </trkpt>
      <trkpt lat="50.23298" lon="4.80445">
        <ele>198.2</ele>
        <time>2025-04-05T08:17:18Z</time>
      </trkpt>
      <trkpt lat="50.23292" lon="4.80442">
        <ele>198</ele>
        <time>2025-04-05T08:17:19Z</time>
      </trkpt>
      <trkpt lat="50.23286" lon="4.8044">
        <ele>197.8</ele>
        <time>2025-04-05T08:17:20Z</time>
      </trkpt>
      <trkpt lat="50.2328" lon="4.80438">
        <ele>197.6</ele>
        <time>2025-04-05T08:17:21Z</time>
      </trkpt>
      <trkpt lat="50.23274" lon="4.80436">
        <ele>197.4</ele>
        <time>2025-04-05T08:17:22Z</time>
      </trkpt>
      <trkpt lat="50.23267" lon="4.80434">
        <ele>197.2</ele>
        <time>2025-04-05T08:17:23Z</time>
      </trkpt>
      <trkpt lat="50.23261" lon="4.80432">
        <ele>197</ele>
        <time>2025-04-05T08:17:24Z</time>
      </trkpt>
      <trkpt lat="50.23254" lon="4.80431">
        <ele>197</ele>
        <time>2025-04-05T08:17:25Z</time>
      </trkpt>
      <trkpt lat="50.23248" lon="4.80429">
        <ele>196.8</ele>
        <time>2025-04-05T08:17:26Z</time>
      </trkpt>
      <trkpt lat="50.23241" lon="4.80428">
        <ele>196.6</ele>
        <time>2025-04-05T08:17:27Z</time>
      </trkpt>
      <trkpt lat="50.23235" lon="4.80426">
        <ele>196.6</ele>
        <time>2025-04-05T08:17:28Z</time>
      </trkpt>
      <trkpt lat="50.23229" lon="4.80424">
        <ele>196.4</ele>
        <time>2025-04-05T08:17:29Z</time>
      </trkpt>
      <trkpt lat="50.23223" lon="4.80423">
        <ele>196.2</ele>
        <time>2025-04-05T08:17:30Z</time>
      </trkpt>
      <trkpt lat="50.23217" lon="4.80421">
        <ele>196</ele>
        <time>2025-04-05T08:17:31Z</time>
      </trkpt>
      <trkpt lat="50.23211" lon="4.80419">
        <ele>196</ele>
        <time>2025-04-05T08:17:32Z</time>
      </trkpt>
      <trkpt lat="50.23206" lon="4.80418">
        <ele>195.8</ele>
        <time>2025-04-05T08:17:33Z</time>
      </trkpt>
      <trkpt lat="50.23198" lon="4.80416">
        <ele>195.6</ele>
        <time>2025-04-05T08:17:34Z</time>
      </trkpt>
      <trkpt lat="50.23191" lon="4.80414">
        <ele>195.6</ele>
        <time>2025-04-05T08:17:35Z</time>
      </trkpt>
      <trkpt lat="50.23185" lon="4.80412">
        <ele>195.4</ele>
        <time>2025-04-05T08:17:36Z</time>
      </trkpt>
      <trkpt lat="50.23177" lon="4.80411">
        <ele>195.4</ele>
        <time>2025-04-05T08:17:37Z</time>
      </trkpt>
      <trkpt lat="50.23171" lon="4.80409">
        <ele>195.6</ele>
        <time>2025-04-05T08:17:38Z</time>
      </trkpt>
      <trkpt lat="50.23164" lon="4.80407">
        <ele>195.6</ele>
        <time>2025-04-05T08:17:39Z</time>
      </trkpt>
      <trkpt lat="50.23157" lon="4.80405">
        <ele>195.6</ele>
        <time>2025-04-05T08:17:40Z</time>
      </trkpt>
      <trkpt lat="50.2315" lon="4.80403">
        <ele>195.6</ele>
        <time>2025-04-05T08:17:41Z</time>
      </trkpt>
      <trkpt lat="50.23143" lon="4.80402">
        <ele>195.6</ele>
        <time>2025-04-05T08:17:42Z</time>
      </trkpt>
      <trkpt lat="50.23136" lon="4.804">
        <ele>195.4</ele>
        <time>2025-04-05T08:17:43Z</time>
      </trkpt>
      <trkpt lat="50.23129" lon="4.80398">
        <ele>195.2</ele>
        <time>2025-04-05T08:17:44Z</time>
      </trkpt>
      <trkpt lat="50.23122" lon="4.80396">
        <ele>195.2</ele>
        <time>2025-04-05T08:17:45Z</time>
      </trkpt>
      <trkpt lat="50.23115" lon="4.80394">
        <ele>195</ele>
        <time>2025-04-05T08:17:46Z</time>
      </trkpt>
      <trkpt lat="50.23108" lon="4.80392">
        <ele>194.8</ele>
        <time>2025-04-05T08:17:47Z</time>
      </trkpt>
      <trkpt lat="50.231" lon="4.8039">
        <ele>194.6</ele>
        <time>2025-04-05T08:17:48Z</time>
      </trkpt>
      <trkpt lat="50.23093" lon="4.80389">
        <ele>194.4</ele>
        <time>2025-04-05T08:17:49Z</time>
      </trkpt>
      <trkpt lat="50.23086" lon="4.80388">
        <ele>194.2</ele>
        <time>2025-04-05T08:17:50Z</time>
      </trkpt>
      <trkpt lat="50.23079" lon="4.80387">
        <ele>194</ele>
        <time>2025-04-05T08:17:51Z</time>
      </trkpt>
      <trkpt lat="50.23072" lon="4.80387">
        <ele>194</ele>
        <time>2025-04-05T08:17:52Z</time>
      </trkpt>
      <trkpt lat="50.23065" lon="4.80387">
        <ele>193.8</ele>
        <time>2025-04-05T08:17:53Z</time>
      </trkpt>
      <trkpt lat="50.23058" lon="4.80386">
        <ele>193.6</ele>
        <time>2025-04-05T08:17:54Z</time>
      </trkpt>
      <trkpt lat="50.2305" lon="4.80386">
        <ele>193.4</ele>
        <time>2025-04-05T08:17:55Z</time>
      </trkpt>
      <trkpt lat="50.23043" lon="4.80386">
        <ele>193.2</ele>
        <time>2025-04-05T08:17:56Z</time>
      </trkpt>
      <trkpt lat="50.23036" lon="4.80387">
        <ele>193</ele>
        <time>2025-04-05T08:17:57Z</time>
      </trkpt>
      <trkpt lat="50.23028" lon="4.80387">
        <ele>192.8</ele>
        <time>2025-04-05T08:17:58Z</time>
      </trkpt>
      <trkpt lat="50.23021" lon="4.80386">
        <ele>192.4</ele>
        <time>2025-04-05T08:17:59Z</time>
      </trkpt>
      <trkpt lat="50.23013" lon="4.80385">
        <ele>192</ele>
        <time>2025-04-05T08:18:00Z</time>
      </trkpt>
      <trkpt lat="50.23006" lon="4.80384">
        <ele>191.6</ele>
        <time>2025-04-05T08:18:01Z</time>
      </trkpt>
      <trkpt lat="50.22997" lon="4.8038">
        <ele>191.4</ele>
        <time>2025-04-05T08:18:02Z</time>
      </trkpt>
      <trkpt lat="50.22988" lon="4.80376">
        <ele>191</ele>
        <time>2025-04-05T08:18:03Z</time>
      </trkpt>
      <trkpt lat="50.2298" lon="4.80371">
        <ele>190.8</ele>
        <time>2025-04-05T08:18:04Z</time>
      </trkpt>
      <trkpt lat="50.22972" lon="4.80366">
        <ele>190.6</ele>
        <time>2025-04-05T08:18:05Z</time>
      </trkpt>
      <trkpt lat="50.22965" lon="4.8036">
        <ele>190.6</ele>
        <time>2025-04-05T08:18:06Z</time>
      </trkpt>
      <trkpt lat="50.22958" lon="4.80355">
        <ele>190.4</ele>
        <time>2025-04-05T08:18:07Z</time>
      </trkpt>
      <trkpt lat="50.22951" lon="4.8035">
        <ele>190.4</ele>
        <time>2025-04-05T08:18:08Z</time>
      </trkpt>
      <trkpt lat="50.22945" lon="4.80345">
        <ele>190.4</ele>
        <time>2025-04-05T08:18:09Z</time>
      </trkpt>
      <trkpt lat="50.2294" lon="4.80339">
        <ele>190.2</ele>
        <time>2025-04-05T08:18:10Z</time>
      </trkpt>
      <trkpt lat="50.22934" lon="4.80334">
        <ele>190</ele>
        <time>2025-04-05T08:18:11Z</time>
      </trkpt>
      <trkpt lat="50.22928" lon="4.80328">
        <ele>190</ele>
        <time>2025-04-05T08:18:12Z</time>
      </trkpt>
      <trkpt lat="50.22922" lon="4.80321">
        <ele>190</ele>
        <time>2025-04-05T08:18:13Z</time>
      </trkpt>
      <trkpt lat="50.22916" lon="4.80315">
        <ele>190</ele>
        <time>2025-04-05T08:18:14Z</time>
      </trkpt>
      <trkpt lat="50.22911" lon="4.80309">
        <ele>190</ele>
        <time>2025-04-05T08:18:15Z</time>
      </trkpt>
      <trkpt lat="50.22906" lon="4.80302">
        <ele>189.8</ele>
        <time>2025-04-05T08:18:16Z</time>
      </trkpt>
      <trkpt lat="50.229" lon="4.80296">
        <ele>189.8</ele>
        <time>2025-04-05T08:18:17Z</time>
      </trkpt>
      <trkpt lat="50.22894" lon="4.8029">
        <ele>189.6</ele>
        <time>2025-04-05T08:18:18Z</time>
      </trkpt>
      <trkpt lat="50.22888" lon="4.80284">
        <ele>189.2</ele>
        <time>2025-04-05T08:18:19Z</time>
      </trkpt>
      <trkpt lat="50.22881" lon="4.80279">
        <ele>189</ele>
        <time>2025-04-05T08:18:20Z</time>
      </trkpt>
      <trkpt lat="50.22875" lon="4.80273">
        <ele>188.6</ele>
        <time>2025-04-05T08:18:21Z</time>
      </trkpt>
      <trkpt lat="50.22868" lon="4.80267">
        <ele>188.2</ele>
        <time>2025-04-05T08:18:22Z</time>
      </trkpt>
      <trkpt lat="50.22861" lon="4.8026">
        <ele>187.8</ele>
        <time>2025-04-05T08:18:23Z</time>
      </trkpt>
      <trkpt lat="50.22855" lon="4.80253">
        <ele>187.4</ele>
        <time>2025-04-05T08:18:24Z</time>
      </trkpt>
      <trkpt lat="50.22848" lon="4.80246">
        <ele>187.2</ele>
        <time>2025-04-05T08:18:25Z</time>
      </trkpt>
      <trkpt lat="50.22841" lon="4.80238">
        <ele>187</ele>
        <time>2025-04-05T08:18:26Z</time>
      </trkpt>
      <trkpt lat="50.22835" lon="4.8023">
        <ele>186.6</ele>
        <time>2025-04-05T08:18:27Z</time>
      </trkpt>
      <trkpt lat="50.22829" lon="4.8022">
        <ele>186.4</ele>
        <time>2025-04-05T08:18:28Z</time>
      </trkpt>
      <trkpt lat="50.22825" lon="4.8021">
        <ele>186</ele>
        <time>2025-04-05T08:18:29Z</time>
      </trkpt>
      <trkpt lat="50.2282" lon="4.802">
        <ele>185.8</ele>
        <time>2025-04-05T08:18:30Z</time>
      </trkpt>
      <trkpt lat="50.22817" lon="4.8019">
        <ele>185.4</ele>
        <time>2025-04-05T08:18:31Z</time>
      </trkpt>
      <trkpt lat="50.22813" lon="4.8018">
        <ele>185.2</ele>
        <time>2025-04-05T08:18:32Z</time>
      </trkpt>
      <trkpt lat="50.2281" lon="4.8017">
        <ele>185</ele>
        <time>2025-04-05T08:18:33Z</time>
      </trkpt>
      <trkpt lat="50.22806" lon="4.80161">
        <ele>184.8</ele>
        <time>2025-04-05T08:18:34Z</time>
      </trkpt>
      <trkpt lat="50.228" lon="4.80152">
        <ele>184.8</ele>
        <time>2025-04-05T08:18:35Z</time>
      </trkpt>
      <trkpt lat="50.22795" lon="4.80145">
        <ele>184.6</ele>
        <time>2025-04-05T08:18:36Z</time>
      </trkpt>
      <trkpt lat="50.22789" lon="4.80139">
        <ele>184.4</ele>
        <time>2025-04-05T08:18:37Z</time>
      </trkpt>
      <trkpt lat="50.22782" lon="4.80135">
        <ele>184</ele>
        <time>2025-04-05T08:18:38Z</time>
      </trkpt>
      <trkpt lat="50.22775" lon="4.80131">
        <ele>184</ele>
        <time>2025-04-05T08:18:39Z</time>
      </trkpt>
      <trkpt lat="50.22767" lon="4.80128">
        <ele>183.8</ele>
        <time>2025-04-05T08:18:40Z</time>
      </trkpt>
      <trkpt lat="50.2276" lon="4.80125">
        <ele>183.6</ele>
        <time>2025-04-05T08:18:41Z</time>
      </trkpt>
      <trkpt lat="50.22752" lon="4.80122">
        <ele>183.4</ele>
        <time>2025-04-05T08:18:42Z</time>
      </trkpt>
      <trkpt lat="50.22744" lon="4.80119">
        <ele>183</ele>
        <time>2025-04-05T08:18:43Z</time>
      </trkpt>
      <trkpt lat="50.22737" lon="4.80116">
        <ele>182.8</ele>
        <time>2025-04-05T08:18:44Z</time>
      </trkpt>
      <trkpt lat="50.22729" lon="4.80113">
        <ele>182.6</ele>
        <time>2025-04-05T08:18:45Z</time>
      </trkpt>
      <trkpt lat="50.22721" lon="4.8011">
        <ele>182.4</ele>
        <time>2025-04-05T08:18:46Z</time>
      </trkpt>
      <trkpt lat="50.22712" lon="4.80106">
        <ele>182.2</ele>
        <time>2025-04-05T08:18:47Z</time>
      </trkpt>
      <trkpt lat="50.22704" lon="4.80103">
        <ele>181.8</ele>
        <time>2025-04-05T08:18:48Z</time>
      </trkpt>
      <trkpt lat="50.22696" lon="4.801">
        <ele>181.6</ele>
        <time>2025-04-05T08:18:49Z</time>
      </trkpt>
      <trkpt lat="50.22688" lon="4.80096">
        <ele>181.4</ele>
        <time>2025-04-05T08:18:50Z</time>
      </trkpt>
      <trkpt lat="50.2268" lon="4.80093">
        <ele>181.2</ele>
        <time>2025-04-05T08:18:51Z</time>
      </trkpt>
      <trkpt lat="50.22672" lon="4.80089">
        <ele>181</ele>
        <time>2025-04-05T08:18:52Z</time>
      </trkpt>
      <trkpt lat="50.22664" lon="4.80086">
        <ele>180.8</ele>
        <time>2025-04-05T08:18:53Z</time>
      </trkpt>
      <trkpt lat="50.22655" lon="4.80084">
        <ele>180.8</ele>
        <time>2025-04-05T08:18:54Z</time>
      </trkpt>
      <trkpt lat="50.22647" lon="4.80081">
        <ele>180.6</ele>
        <time>2025-04-05T08:18:55Z</time>
      </trkpt>
      <trkpt lat="50.22639" lon="4.8008">
        <ele>180.6</ele>
        <time>2025-04-05T08:18:56Z</time>
      </trkpt>
      <trkpt lat="50.22631" lon="4.80079">
        <ele>180.6</ele>
        <time>2025-04-05T08:18:57Z</time>
      </trkpt>
      <trkpt lat="50.22623" lon="4.80077">
        <ele>180.6</ele>
        <time>2025-04-05T08:18:58Z</time>
      </trkpt>
      <trkpt lat="50.22615" lon="4.80076">
        <ele>180.6</ele>
        <time>2025-04-05T08:18:59Z</time>
      </trkpt>
      <trkpt lat="50.22609" lon="4.80075">
        <ele>180.6</ele>
        <time>2025-04-05T08:19:00Z</time>
      </trkpt>
      <trkpt lat="50.22602" lon="4.80074">
        <ele>180.8</ele>
        <time>2025-04-05T08:19:01Z</time>
      </trkpt>
      <trkpt lat="50.22595" lon="4.80073">
        <ele>181</ele>
        <time>2025-04-05T08:19:02Z</time>
      </trkpt>
      <trkpt lat="50.22589" lon="4.80071">
        <ele>181</ele>
        <time>2025-04-05T08:19:03Z</time>
      </trkpt>
      <trkpt lat="50.22583" lon="4.80069">
        <ele>181.2</ele>
        <time>2025-04-05T08:19:04Z</time>
      </trkpt>
      <trkpt lat="50.22577" lon="4.80067">
        <ele>181.4</ele>
        <time>2025-04-05T08:19:05Z</time>
      </trkpt>
      <trkpt lat="50.22572" lon="4.80064">
        <ele>181.4</ele>
        <time>2025-04-05T08:19:06Z</time>
      </trkpt>
      <trkpt lat="50.22566" lon="4.80061">
        <ele>181.4</ele>
        <time>2025-04-05T08:19:07Z</time>
      </trkpt>
      <trkpt lat="50.2256" lon="4.80056">
        <ele>181.4</ele>
        <time>2025-04-05T08:19:08Z</time>
      </trkpt>
      <trkpt lat="50.22554" lon="4.80052">
        <ele>181.4</ele>
        <time>2025-04-05T08:19:09Z</time>
      </trkpt>
      <trkpt lat="50.22549" lon="4.80046">
        <ele>181.4</ele>
        <time>2025-04-05T08:19:10Z</time>
      </trkpt>
      <trkpt lat="50.22544" lon="4.80041">
        <ele>181.4</ele>
        <time>2025-04-05T08:19:11Z</time>
      </trkpt>
      <trkpt lat="50.22539" lon="4.80034">
        <ele>181.4</ele>
        <time>2025-04-05T08:19:12Z</time>
      </trkpt>
      <trkpt lat="50.22534" lon="4.80027">
        <ele>181.2</ele>
        <time>2025-04-05T08:19:13Z</time>
      </trkpt>
      <trkpt lat="50.22531" lon="4.80019">
        <ele>181.2</ele>
        <time>2025-04-05T08:19:14Z</time>
      </trkpt>
      <trkpt lat="50.22527" lon="4.80011">
        <ele>181</ele>
        <time>2025-04-05T08:19:15Z</time>
      </trkpt>
      <trkpt lat="50.22523" lon="4.80003">
        <ele>180.8</ele>
        <time>2025-04-05T08:19:16Z</time>
      </trkpt>
      <trkpt lat="50.2252" lon="4.79994">
        <ele>180.4</ele>
        <time>2025-04-05T08:19:17Z</time>
      </trkpt>
      <trkpt lat="50.22516" lon="4.79985">
        <ele>180</ele>
        <time>2025-04-05T08:19:18Z</time>
      </trkpt>
      <trkpt lat="50.22512" lon="4.79977">
        <ele>179.6</ele>
        <time>2025-04-05T08:19:19Z</time>
      </trkpt>
      <trkpt lat="50.22508" lon="4.79969">
        <ele>179</ele>
        <time>2025-04-05T08:19:20Z</time>
      </trkpt>
      <trkpt lat="50.22503" lon="4.79961">
        <ele>178.4</ele>
        <time>2025-04-05T08:19:21Z</time>
      </trkpt>
      <trkpt lat="50.22496" lon="4.79954">
        <ele>177.6</ele>
        <time>2025-04-05T08:19:22Z</time>
      </trkpt>
      <trkpt lat="50.22491" lon="4.79947">
        <ele>177</ele>
        <time>2025-04-05T08:19:23Z</time>
      </trkpt>
      <trkpt lat="50.22484" lon="4.79941">
        <ele>176.2</ele>
        <time>2025-04-05T08:19:24Z</time>
      </trkpt>
      <trkpt lat="50.22479" lon="4.79936">
        <ele>175.4</ele>
        <time>2025-04-05T08:19:25Z</time>
      </trkpt>
      <trkpt lat="50.22472" lon="4.79931">
        <ele>174.6</ele>
        <time>2025-04-05T08:19:26Z</time>
      </trkpt>
      <trkpt lat="50.22466" lon="4.79927">
        <ele>173.8</ele>
        <time>2025-04-05T08:19:27Z</time>
      </trkpt>
      <trkpt lat="50.22461" lon="4.79922">
        <ele>173.2</ele>
        <time>2025-04-05T08:19:28Z</time>
      </trkpt>
      <trkpt lat="50.22457" lon="4.79917">
        <ele>172.4</ele>
        <time>2025-04-05T08:19:29Z</time>
      </trkpt>
      <trkpt lat="50.22453" lon="4.79911">
        <ele>171.8</ele>
        <time>2025-04-05T08:19:30Z</time>
      </trkpt>
      <trkpt lat="50.22449" lon="4.79905">
        <ele>171.2</ele>
        <time>2025-04-05T08:19:31Z</time>
      </trkpt>
      <trkpt lat="50.22445" lon="4.79898">
        <ele>170.4</ele>
        <time>2025-04-05T08:19:32Z</time>
      </trkpt>
      <trkpt lat="50.22439" lon="4.79892">
        <ele>169.8</ele>
        <time>2025-04-05T08:19:33Z</time>
      </trkpt>
      <trkpt lat="50.22434" lon="4.79887">
        <ele>169.2</ele>
        <time>2025-04-05T08:19:34Z</time>
      </trkpt>
      <trkpt lat="50.22428" lon="4.79883">
        <ele>168.6</ele>
        <time>2025-04-05T08:19:35Z</time>
      </trkpt>
      <trkpt lat="50.22423" lon="4.79878">
        <ele>168</ele>
        <time>2025-04-05T08:19:36Z</time>
      </trkpt>
      <trkpt lat="50.22419" lon="4.79873">
        <ele>167.4</ele>
        <time>2025-04-05T08:19:37Z</time>
      </trkpt>
      <trkpt lat="50.22414" lon="4.79868">
        <ele>166.8</ele>
        <time>2025-04-05T08:19:38Z</time>
      </trkpt>
      <trkpt lat="50.22409" lon="4.79864">
        <ele>166.4</ele>
        <time>2025-04-05T08:19:39Z</time>
      </trkpt>
      <trkpt lat="50.22406" lon="4.79859">
        <ele>165.8</ele>
        <time>2025-04-05T08:19:40Z</time>
      </trkpt>
      <trkpt lat="50.22401" lon="4.79857">
        <ele>165.4</ele>
        <time>2025-04-05T08:19:41Z</time>
      </trkpt>
      <trkpt lat="50.22397" lon="4.79857">
        <ele>164.6</ele>
        <time>2025-04-05T08:19:42Z</time>
      </trkpt>
      <trkpt lat="50.22392" lon="4.79858">
        <ele>164</ele>
        <time>2025-04-05T08:19:43Z</time>
      </trkpt>
      <trkpt lat="50.22387" lon="4.79862">
        <ele>163.2</ele>
        <time>2025-04-05T08:19:44Z</time>
      </trkpt>
      <trkpt lat="50.22382" lon="4.79867">
        <ele>162.4</ele>
        <time>2025-04-05T08:19:45Z</time>
      </trkpt>
      <trkpt lat="50.22378" lon="4.79876">
        <ele>161.4</ele>
        <time>2025-04-05T08:19:46Z</time>
      </trkpt>
      <trkpt lat="50.22374" lon="4.79886">
        <ele>160.4</ele>
        <time>2025-04-05T08:19:47Z</time>
      </trkpt>
      <trkpt lat="50.22371" lon="4.799">
        <ele>159.6</ele>
        <time>2025-04-05T08:19:48Z</time>
      </trkpt>
      <trkpt lat="50.22368" lon="4.79913">
        <ele>158.6</ele>
        <time>2025-04-05T08:19:49Z</time>
      </trkpt>
      <trkpt lat="50.22366" lon="4.79927">
        <ele>157.8</ele>
        <time>2025-04-05T08:19:50Z</time>
      </trkpt>
      <trkpt lat="50.22364" lon="4.79941">
        <ele>157</ele>
        <time>2025-04-05T08:19:51Z</time>
      </trkpt>
      <trkpt lat="50.22363" lon="4.79955">
        <ele>156.2</ele>
        <time>2025-04-05T08:19:52Z</time>
      </trkpt>
      <trkpt lat="50.22362" lon="4.7997">
        <ele>155.2</ele>
        <time>2025-04-05T08:19:53Z</time>
      </trkpt>
      <trkpt lat="50.22362" lon="4.79985">
        <ele>154.2</ele>
        <time>2025-04-05T08:19:54Z</time>
      </trkpt>
      <trkpt lat="50.22362" lon="4.80001">
        <ele>153.2</ele>
        <time>2025-04-05T08:19:55Z</time>
      </trkpt>
      <trkpt lat="50.22361" lon="4.80018">
        <ele>152.2</ele>
        <time>2025-04-05T08:19:56Z</time>
      </trkpt>
      <trkpt lat="50.22361" lon="4.80035">
        <ele>151</ele>
        <time>2025-04-05T08:19:57Z</time>
      </trkpt>
      <trkpt lat="50.2236" lon="4.80053">
        <ele>150</ele>
        <time>2025-04-05T08:19:58Z</time>
      </trkpt>
      <trkpt lat="50.2236" lon="4.80073">
        <ele>149</ele>
        <time>2025-04-05T08:19:59Z</time>
      </trkpt>
      <trkpt lat="50.22359" lon="4.8009">
        <ele>148.2</ele>
        <time>2025-04-05T08:20:00Z</time>
      </trkpt>
      <trkpt lat="50.22359" lon="4.80108">
        <ele>147.6</ele>
        <time>2025-04-05T08:20:01Z</time>
      </trkpt>
      <trkpt lat="50.22358" lon="4.80125">
        <ele>146.8</ele>
        <time>2025-04-05T08:20:02Z</time>
      </trkpt>
      <trkpt lat="50.22357" lon="4.8014">
        <ele>146.2</ele>
        <time>2025-04-05T08:20:03Z</time>
      </trkpt>
      <trkpt lat="50.22356" lon="4.80156">
        <ele>145.6</ele>
        <time>2025-04-05T08:20:04Z</time>
      </trkpt>
      <trkpt lat="50.22355" lon="4.8017">
        <ele>145</ele>
        <time>2025-04-05T08:20:05Z</time>
      </trkpt>
      <trkpt lat="50.22355" lon="4.80183">
        <ele>144.4</ele>
        <time>2025-04-05T08:20:06Z</time>
      </trkpt>
      <trkpt lat="50.22354" lon="4.80196">
        <ele>143.8</ele>
        <time>2025-04-05T08:20:07Z</time>
      </trkpt>
      <trkpt lat="50.22353" lon="4.80209">
        <ele>143.2</ele>
        <time>2025-04-05T08:20:08Z</time>
      </trkpt>
      <trkpt lat="50.22353" lon="4.80224">
        <ele>142.8</ele>
        <time>2025-04-05T08:20:09Z</time>
      </trkpt>
      <trkpt lat="50.22352" lon="4.80237">
        <ele>142.2</ele>
        <time>2025-04-05T08:20:10Z</time>
      </trkpt>
      <trkpt lat="50.22353" lon="4.80249">
        <ele>141.8</ele>
        <time>2025-04-05T08:20:11Z</time>
      </trkpt>
      <trkpt lat="50.22352" lon="4.8026">
        <ele>141.4</ele>
        <time>2025-04-05T08:20:12Z</time>
      </trkpt>
      <trkpt lat="50.2235" lon="4.80271">
        <ele>140.8</ele>
        <time>2025-04-05T08:20:13Z</time>
      </trkpt>
      <trkpt lat="50.2235" lon="4.80282">
        <ele>140.4</ele>
        <time>2025-04-05T08:20:14Z</time>
      </trkpt>
      <trkpt lat="50.22349" lon="4.80292">
        <ele>140</ele>
        <time>2025-04-05T08:20:15Z</time>
      </trkpt>
      <trkpt lat="50.22347" lon="4.80304">
        <ele>139.6</ele>
        <time>2025-04-05T08:20:16Z</time>
      </trkpt>
      <trkpt lat="50.22345" lon="4.80313">
        <ele>139.2</ele>
        <time>2025-04-05T08:20:17Z</time>
      </trkpt>
      <trkpt lat="50.22346" lon="4.80321">
        <ele>138.6</ele>
        <time>2025-04-05T08:20:18Z</time>
      </trkpt>
      <trkpt lat="50.22344" lon="4.80329">
        <ele>138.2</ele>
        <time>2025-04-05T08:20:19Z</time>
      </trkpt>
      <trkpt lat="50.22341" lon="4.80337">
        <ele>137.6</ele>
        <time>2025-04-05T08:20:20Z</time>
      </trkpt>
      <trkpt lat="50.22337" lon="4.80345">
        <ele>137.2</ele>
        <time>2025-04-05T08:20:21Z</time>
      </trkpt>
      <trkpt lat="50.22332" lon="4.80353">
        <ele>136.8</ele>
        <time>2025-04-05T08:20:22Z</time>
      </trkpt>
      <trkpt lat="50.22328" lon="4.80361">
        <ele>136.4</ele>
        <time>2025-04-05T08:20:23Z</time>
      </trkpt>
      <trkpt lat="50.22326" lon="4.80369">
        <ele>136</ele>
        <time>2025-04-05T08:20:24Z</time>
      </trkpt>
      <trkpt lat="50.22322" lon="4.80378">
        <ele>135.8</ele>
        <time>2025-04-05T08:20:25Z</time>
      </trkpt>
      <trkpt lat="50.22319" lon="4.80389">
        <ele>135.6</ele>
        <time>2025-04-05T08:20:26Z</time>
      </trkpt>
      <trkpt lat="50.22319" lon="4.80399">
        <ele>135.4</ele>
        <time>2025-04-05T08:20:27Z</time>
      </trkpt>
      <trkpt lat="50.22319" lon="4.80409">
        <ele>135.2</ele>
        <time>2025-04-05T08:20:28Z</time>
      </trkpt>
      <trkpt lat="50.22319" lon="4.80419">
        <ele>135</ele>
        <time>2025-04-05T08:20:29Z</time>
      </trkpt>
      <trkpt lat="50.22318" lon="4.8043">
        <ele>134.8</ele>
        <time>2025-04-05T08:20:30Z</time>
      </trkpt>
      <trkpt lat="50.22318" lon="4.80442">
        <ele>134.6</ele>
        <time>2025-04-05T08:20:31Z</time>
      </trkpt>
      <trkpt lat="50.22317" lon="4.80453">
        <ele>134.4</ele>
        <time>2025-04-05T08:20:32Z</time>
      </trkpt>
      <trkpt lat="50.22316" lon="4.80465">
        <ele>134.2</ele>
        <time>2025-04-05T08:20:33Z</time>
      </trkpt>
      <trkpt lat="50.22316" lon="4.80477">
        <ele>134</ele>
        <time>2025-04-05T08:20:34Z</time>
      </trkpt>
      <trkpt lat="50.22315" lon="4.8049">
        <ele>133.8</ele>
        <time>2025-04-05T08:20:35Z</time>
      </trkpt>
      <trkpt lat="50.22314" lon="4.80502">
        <ele>133.6</ele>
        <time>2025-04-05T08:20:36Z</time>
      </trkpt>
      <trkpt lat="50.22313" lon="4.80514">
        <ele>133.4</ele>
        <time>2025-04-05T08:20:37Z</time>
      </trkpt>
      <trkpt lat="50.22312" lon="4.80527">
        <ele>133.4</ele>
        <time>2025-04-05T08:20:38Z</time>
      </trkpt>
      <trkpt lat="50.22311" lon="4.80539">
        <ele>133.2</ele>
        <time>2025-04-05T08:20:39Z</time>
      </trkpt>
      <trkpt lat="50.22311" lon="4.80552">
        <ele>132.8</ele>
        <time>2025-04-05T08:20:40Z</time>
      </trkpt>
      <trkpt lat="50.22311" lon="4.80565">
        <ele>132.6</ele>
        <time>2025-04-05T08:20:41Z</time>
      </trkpt>
      <trkpt lat="50.2231" lon="4.80578">
        <ele>132.4</ele>
        <time>2025-04-05T08:20:42Z</time>
      </trkpt>
      <trkpt lat="50.2231" lon="4.80591">
        <ele>132.2</ele>
        <time>2025-04-05T08:20:43Z</time>
      </trkpt>
      <trkpt lat="50.2231" lon="4.80604">
        <ele>131.8</ele>
        <time>2025-04-05T08:20:44Z</time>
      </trkpt>
      <trkpt lat="50.2231" lon="4.80617">
        <ele>131.6</ele>
        <time>2025-04-05T08:20:45Z</time>
      </trkpt>
      <trkpt lat="50.2231" lon="4.80629">
        <ele>131.4</ele>
        <time>2025-04-05T08:20:46Z</time>
      </trkpt>
      <trkpt lat="50.2231" lon="4.80642">
        <ele>131.2</ele>
        <time>2025-04-05T08:20:47Z</time>
      </trkpt>
      <trkpt lat="50.22311" lon="4.80656">
        <ele>131</ele>
        <time>2025-04-05T08:20:48Z</time>
      </trkpt>
      <trkpt lat="50.22311" lon="4.80669">
        <ele>130.8</ele>
        <time>2025-04-05T08:20:49Z</time>
      </trkpt>
      <trkpt lat="50.22312" lon="4.80682">
        <ele>130.6</ele>
        <time>2025-04-05T08:20:50Z</time>
      </trkpt>
      <trkpt lat="50.22313" lon="4.80694">
        <ele>130.4</ele>
        <time>2025-04-05T08:20:51Z</time>
      </trkpt>
      <trkpt lat="50.22314" lon="4.80708">
        <ele>130.2</ele>
        <time>2025-04-05T08:20:52Z</time>
      </trkpt>
      <trkpt lat="50.22314" lon="4.80721">
        <ele>130</ele>
        <time>2025-04-05T08:20:53Z</time>
      </trkpt>
      <trkpt lat="50.22315" lon="4.80734">
        <ele>129.8</ele>
        <time>2025-04-05T08:20:54Z</time>
      </trkpt>
      <trkpt lat="50.22316" lon="4.80747">
        <ele>129.6</ele>
        <time>2025-04-05T08:20:55Z</time>
      </trkpt>
      <trkpt lat="50.22317" lon="4.80761">
        <ele>129.4</ele>
        <time>2025-04-05T08:20:56Z</time>
      </trkpt>
      <trkpt lat="50.22319" lon="4.80774">
        <ele>129</ele>
        <time>2025-04-05T08:20:57Z</time>
      </trkpt>
      <trkpt lat="50.22321" lon="4.80787">
        <ele>129</ele>
        <time>2025-04-05T08:20:58Z</time>
      </trkpt>
      <trkpt lat="50.22322" lon="4.808">
        <ele>128.6</ele>
        <time>2025-04-05T08:20:59Z</time>
      </trkpt>
      <trkpt lat="50.22325" lon="4.80812">
        <ele>128.4</ele>
        <time>2025-04-05T08:21:00Z</time>
      </trkpt>
      <trkpt lat="50.22328" lon="4.80825">
        <ele>128.2</ele>
        <time>2025-04-05T08:21:01Z</time>
      </trkpt>
      <trkpt lat="50.22332" lon="4.80838">
        <ele>128</ele>
        <time>2025-04-05T08:21:02Z</time>
      </trkpt>
      <trkpt lat="50.22336" lon="4.8085">
        <ele>127.8</ele>
        <time>2025-04-05T08:21:03Z</time>
      </trkpt>
      <trkpt lat="50.22339" lon="4.80862">
        <ele>127.4</ele>
        <time>2025-04-05T08:21:04Z</time>
      </trkpt>
      <trkpt lat="50.22342" lon="4.80874">
        <ele>127.2</ele>
        <time>2025-04-05T08:21:05Z</time>
      </trkpt>
      <trkpt lat="50.22344" lon="4.80888">
        <ele>127</ele>
        <time>2025-04-05T08:21:06Z</time>
      </trkpt>
      <trkpt lat="50.22347" lon="4.80901">
        <ele>126.8</ele>
        <time>2025-04-05T08:21:07Z</time>
      </trkpt>
      <trkpt lat="50.22349" lon="4.80914">
        <ele>126.6</ele>
        <time>2025-04-05T08:21:08Z</time>
      </trkpt>
      <trkpt lat="50.22352" lon="4.80928">
        <ele>126.2</ele>
        <time>2025-04-05T08:21:09Z</time>
      </trkpt>
      <trkpt lat="50.22355" lon="4.80941">
        <ele>126</ele>
        <time>2025-04-05T08:21:10Z</time>
      </trkpt>
      <trkpt lat="50.2236" lon="4.80953">
        <ele>125.6</ele>
        <time>2025-04-05T08:21:11Z</time>
      </trkpt>
      <trkpt lat="50.22364" lon="4.80964">
        <ele>125.4</ele>
        <time>2025-04-05T08:21:12Z</time>
      </trkpt>
      <trkpt lat="50.22368" lon="4.80976">
        <ele>125.2</ele>
        <time>2025-04-05T08:21:13Z</time>
      </trkpt>
      <trkpt lat="50.22374" lon="4.8099">
        <ele>124.8</ele>
        <time>2025-04-05T08:21:14Z</time>
      </trkpt>
      <trkpt lat="50.22379" lon="4.81004">
        <ele>124.6</ele>
        <time>2025-04-05T08:21:15Z</time>
      </trkpt>
      <trkpt lat="50.22382" lon="4.81018">
        <ele>124.4</ele>
        <time>2025-04-05T08:21:16Z</time>
      </trkpt>
      <trkpt lat="50.22382" lon="4.81032">
        <ele>124</ele>
        <time>2025-04-05T08:21:17Z</time>
      </trkpt>
      <trkpt lat="50.22382" lon="4.81047">
        <ele>123.8</ele>
        <time>2025-04-05T08:21:18Z</time>
      </trkpt>
      <trkpt lat="50.22383" lon="4.81062">
        <ele>123.6</ele>
        <time>2025-04-05T08:21:19Z</time>
      </trkpt>
      <trkpt lat="50.22381" lon="4.81076">
        <ele>123.4</ele>
        <time>2025-04-05T08:21:20Z</time>
      </trkpt>
      <trkpt lat="50.22381" lon="4.81091">
        <ele>123.2</ele>
        <time>2025-04-05T08:21:21Z</time>
      </trkpt>
      <trkpt lat="50.22381" lon="4.81104">
        <ele>122.8</ele>
        <time>2025-04-05T08:21:22Z</time>
      </trkpt>
      <trkpt lat="50.22381" lon="4.81118">
        <ele>122.6</ele>
        <time>2025-04-05T08:21:23Z</time>
      </trkpt>
      <trkpt lat="50.22381" lon="4.81131">
        <ele>122.4</ele>
        <time>2025-04-05T08:21:24Z</time>
      </trkpt>
      <trkpt lat="50.2238" lon="4.81144">
        <ele>122.2</ele>
        <time>2025-04-05T08:21:25Z</time>
      </trkpt>
      <trkpt lat="50.22379" lon="4.81157">
        <ele>122</ele>
        <time>2025-04-05T08:21:26Z</time>
      </trkpt>
      <trkpt lat="50.22378" lon="4.81169">
        <ele>122</ele>
        <time>2025-04-05T08:21:27Z</time>
      </trkpt>
      <trkpt lat="50.22376" lon="4.8118">
        <ele>121.8</ele>
        <time>2025-04-05T08:21:28Z</time>
      </trkpt>
      <trkpt lat="50.22374" lon="4.81192">
        <ele>121.6</ele>
        <time>2025-04-05T08:21:29Z</time>
      </trkpt>
      <trkpt lat="50.22371" lon="4.81203">
        <ele>121.4</ele>
        <time>2025-04-05T08:21:30Z</time>
      </trkpt>
      <trkpt lat="50.22368" lon="4.81213">
        <ele>121.2</ele>
        <time>2025-04-05T08:21:31Z</time>
      </trkpt>
      <trkpt lat="50.22365" lon="4.81224">
        <ele>121</ele>
        <time>2025-04-05T08:21:32Z</time>
      </trkpt>
      <trkpt lat="50.22362" lon="4.81235">
        <ele>120.6</ele>
        <time>2025-04-05T08:21:33Z</time>
      </trkpt>
      <trkpt lat="50.22358" lon="4.81246">
        <ele>120.4</ele>
        <time>2025-04-05T08:21:34Z</time>
      </trkpt>
      <trkpt lat="50.22355" lon="4.81258">
        <ele>120.2</ele>
        <time>2025-04-05T08:21:35Z</time>
      </trkpt>
      <trkpt lat="50.22352" lon="4.81269">
        <ele>120</ele>
        <time>2025-04-05T08:21:36Z</time>
      </trkpt>
      <trkpt lat="50.22349" lon="4.81281">
        <ele>119.8</ele>
        <time>2025-04-05T08:21:37Z</time>
      </trkpt>
      <trkpt lat="50.22348" lon="4.81293">
        <ele>119.6</ele>
        <time>2025-04-05T08:21:38Z</time>
      </trkpt>
      <trkpt lat="50.22349" lon="4.81305">
        <ele>119.4</ele>
        <time>2025-04-05T08:21:39Z</time>
      </trkpt>
      <trkpt lat="50.2235" lon="4.81316">
        <ele>119.2</ele>
        <time>2025-04-05T08:21:40Z</time>
      </trkpt>
      <trkpt lat="50.22354" lon="4.81327">
        <ele>119</ele>
        <time>2025-04-05T08:21:41Z</time>
      </trkpt>
      <trkpt lat="50.22358" lon="4.81339">
        <ele>118.8</ele>
        <time>2025-04-05T08:21:42Z</time>
      </trkpt>
      <trkpt lat="50.22363" lon="4.81349">
        <ele>118.8</ele>
        <time>2025-04-05T08:21:43Z</time>
      </trkpt>
      <trkpt lat="50.22367" lon="4.81358">
        <ele>118.6</ele>
        <time>2025-04-05T08:21:44Z</time>
      </trkpt>
      <trkpt lat="50.22371" lon="4.81366">
        <ele>118.4</ele>
        <time>2025-04-05T08:21:45Z</time>
      </trkpt>
      <trkpt lat="50.22376" lon="4.81375">
        <ele>118.2</ele>
        <time>2025-04-05T08:21:46Z</time>
      </trkpt>
      <trkpt lat="50.2238" lon="4.81384">
        <ele>118.2</ele>
        <time>2025-04-05T08:21:47Z</time>
      </trkpt>
      <trkpt lat="50.22384" lon="4.81392">
        <ele>118</ele>
        <time>2025-04-05T08:21:48Z</time>
      </trkpt>
      <trkpt lat="50.22386" lon="4.81398">
        <ele>118</ele>
        <time>2025-04-05T08:21:49Z</time>
      </trkpt>
      <trkpt lat="50.22387" lon="4.81401">
        <ele>118</ele>
        <time>2025-04-05T08:21:50Z</time>
      </trkpt>
      <trkpt lat="50.22388" lon="4.81407">
        <ele>117.8</ele>
        <time>2025-04-05T08:21:51Z</time>
      </trkpt>
      <trkpt lat="50.22385" lon="4.81411">
        <ele>118</ele>
        <time>2025-04-05T08:21:52Z</time>
      </trkpt>
      <trkpt lat="50.22382" lon="4.81415">
        <ele>118</ele>
        <time>2025-04-05T08:21:53Z</time>
      </trkpt>
      <trkpt lat="50.2238" lon="4.81415">
        <ele>118.2</ele>
        <time>2025-04-05T08:21:54Z</time>
      </trkpt>
      <trkpt lat="50.22378" lon="4.81413">
        <ele>118.2</ele>
        <time>2025-04-05T08:21:55Z</time>
      </trkpt>
      <trkpt lat="50.22374" lon="4.8141">
        <ele>118.4</ele>
        <time>2025-04-05T08:21:56Z</time>
      </trkpt>
      <trkpt lat="50.22372" lon="4.81408">
        <ele>118.6</ele>
        <time>2025-04-05T08:21:57Z</time>
      </trkpt>
      <trkpt lat="50.2237" lon="4.81406">
        <ele>118.8</ele>
        <time>2025-04-05T08:21:58Z</time>
      </trkpt>
      <trkpt lat="50.2237" lon="4.81404">
        <ele>119</ele>
        <time>2025-04-05T08:21:59Z</time>
      </trkpt>
      <trkpt lat="50.22368" lon="4.81401">
        <ele>119.2</ele>
        <time>2025-04-05T08:22:00Z</time>
      </trkpt>
      <trkpt lat="50.22365" lon="4.81398">
        <ele>119.4</ele>
        <time>2025-04-05T08:22:01Z</time>
      </trkpt>
      <trkpt lat="50.22363" lon="4.81395">
        <ele>119.6</ele>
        <time>2025-04-05T08:22:02Z</time>
      </trkpt>
      <trkpt lat="50.22361" lon="4.81392">
        <ele>119.8</ele>
        <time>2025-04-05T08:22:03Z</time>
      </trkpt>
      <trkpt lat="50.2236" lon="4.8139">
        <ele>120</ele>
        <time>2025-04-05T08:22:04Z</time>
      </trkpt>
      <trkpt lat="50.22358" lon="4.81388">
        <ele>120.2</ele>
        <time>2025-04-05T08:22:05Z</time>
      </trkpt>
      <trkpt lat="50.22356" lon="4.81385">
        <ele>120.4</ele>
        <time>2025-04-05T08:22:06Z</time>
      </trkpt>
      <trkpt lat="50.22354" lon="4.81382">
        <ele>120.6</ele>
        <time>2025-04-05T08:22:07Z</time>
      </trkpt>
      <trkpt lat="50.22353" lon="4.81379">
        <ele>120.8</ele>
        <time>2025-04-05T08:22:08Z</time>
      </trkpt>
      <trkpt lat="50.22351" lon="4.81375">
        <ele>121</ele>
        <time>2025-04-05T08:22:09Z</time>
      </trkpt>
      <trkpt lat="50.2235" lon="4.81371">
        <ele>121.2</ele>
        <time>2025-04-05T08:22:10Z</time>
      </trkpt>
      <trkpt lat="50.22349" lon="4.81368">
        <ele>121.4</ele>
        <time>2025-04-05T08:22:11Z</time>
      </trkpt>
      <trkpt lat="50.22348" lon="4.81365">
        <ele>121.4</ele>
        <time>2025-04-05T08:22:12Z</time>
      </trkpt>
      <trkpt lat="50.22344" lon="4.81362">
        <ele>121.6</ele>
        <time>2025-04-05T08:22:13Z</time>
      </trkpt>
      <trkpt lat="50.22342" lon="4.81359">
        <ele>121.8</ele>
        <time>2025-04-05T08:22:14Z</time>
      </trkpt>
      <trkpt lat="50.22341" lon="4.81357">
        <ele>122</ele>
        <time>2025-04-05T08:22:15Z</time>
      </trkpt>
      <trkpt lat="50.2234" lon="4.81354">
        <ele>122.2</ele>
        <time>2025-04-05T08:22:16Z</time>
      </trkpt>
      <trkpt lat="50.22339" lon="4.81351">
        <ele>122.2</ele>
        <time>2025-04-05T08:22:17Z</time>
      </trkpt>
      <trkpt lat="50.22338" lon="4.81348">
        <ele>122.4</ele>
        <time>2025-04-05T08:22:18Z</time>
      </trkpt>
      <trkpt lat="50.22338" lon="4.81345">
        <ele>122.6</ele>
        <time>2025-04-05T08:22:19Z</time>
      </trkpt>
      <trkpt lat="50.22337" lon="4.81341">
        <ele>122.8</ele>
        <time>2025-04-05T08:22:20Z</time>
      </trkpt>
      <trkpt lat="50.22337" lon="4.81338">
        <ele>123</ele>
        <time>2025-04-05T08:22:21Z</time>
      </trkpt>
      <trkpt lat="50.22336" lon="4.81335">
        <ele>123.2</ele>
        <time>2025-04-05T08:22:22Z</time>
      </trkpt>
      <trkpt lat="50.22335" lon="4.81332">
        <ele>123.4</ele>
        <time>2025-04-05T08:22:23Z</time>
      </trkpt>
      <trkpt lat="50.22335" lon="4.81329">
        <ele>123.6</ele>
        <time>2025-04-05T08:22:24Z</time>
      </trkpt>
      <trkpt lat="50.22334" lon="4.81326">
        <ele>123.8</ele>
        <time>2025-04-05T08:22:25Z</time>
      </trkpt>
      <trkpt lat="50.22332" lon="4.81324">
        <ele>124</ele>
        <time>2025-04-05T08:22:26Z</time>
      </trkpt>
      <trkpt lat="50.22331" lon="4.81321">
        <ele>124.2</ele>
        <time>2025-04-05T08:22:27Z</time>
      </trkpt>
      <trkpt lat="50.2233" lon="4.81317">
        <ele>124.4</ele>
        <time>2025-04-05T08:22:28Z</time>
      </trkpt>
      <trkpt lat="50.22329" lon="4.81314">
        <ele>124.6</ele>
        <time>2025-04-05T08:22:29Z</time>
      </trkpt>
      <trkpt lat="50.22328" lon="4.8131">
        <ele>124.8</ele>
        <time>2025-04-05T08:22:30Z</time>
      </trkpt>
      <trkpt lat="50.22326" lon="4.81306">
        <ele>125</ele>
        <time>2025-04-05T08:22:31Z</time>
      </trkpt>
      <trkpt lat="50.22325" lon="4.81303">
        <ele>125.2</ele>
        <time>2025-04-05T08:22:32Z</time>
      </trkpt>
      <trkpt lat="50.22325" lon="4.813">
        <ele>125.4</ele>
        <time>2025-04-05T08:22:33Z</time>
      </trkpt>
      <trkpt lat="50.22324" lon="4.81297">
        <ele>125.6</ele>
        <time>2025-04-05T08:22:34Z</time>
      </trkpt>
      <trkpt lat="50.22324" lon="4.81293">
        <ele>125.8</ele>
        <time>2025-04-05T08:22:35Z</time>
      </trkpt>
      <trkpt lat="50.22324" lon="4.81289">
        <ele>126.2</ele>
        <time>2025-04-05T08:22:36Z</time>
      </trkpt>
      <trkpt lat="50.22324" lon="4.81285">
        <ele>126.4</ele>
        <time>2025-04-05T08:22:37Z</time>
      </trkpt>
      <trkpt lat="50.22322" lon="4.81281">
        <ele>126.6</ele>
        <time>2025-04-05T08:22:38Z</time>
      </trkpt>
      <trkpt lat="50.2232" lon="4.81276">
        <ele>126.8</ele>
        <time>2025-04-05T08:22:39Z</time>
      </trkpt>
      <trkpt lat="50.22318" lon="4.81271">
        <ele>127</ele>
        <time>2025-04-05T08:22:40Z</time>
      </trkpt>
      <trkpt lat="50.22315" lon="4.81267">
        <ele>127.2</ele>
        <time>2025-04-05T08:22:41Z</time>
      </trkpt>
      <trkpt lat="50.22314" lon="4.81263">
        <ele>127.4</ele>
        <time>2025-04-05T08:22:42Z</time>
      </trkpt>
      <trkpt lat="50.22312" lon="4.81259">
        <ele>127.6</ele>
        <time>2025-04-05T08:22:43Z</time>
      </trkpt>
      <trkpt lat="50.2231" lon="4.81257">
        <ele>128</ele>
        <time>2025-04-05T08:22:44Z</time>
      </trkpt>
      <trkpt lat="50.22308" lon="4.81252">
        <ele>128.2</ele>
        <time>2025-04-05T08:22:45Z</time>
      </trkpt>
      <trkpt lat="50.22306" lon="4.81249">
        <ele>128.4</ele>
        <time>2025-04-05T08:22:46Z</time>
      </trkpt>
      <trkpt lat="50.22303" lon="4.81244">
        <ele>128.6</ele>
        <time>2025-04-05T08:22:47Z</time>
      </trkpt>
      <trkpt lat="50.223" lon="4.8124">
        <ele>129</ele>
        <time>2025-04-05T08:22:48Z</time>
      </trkpt>
      <trkpt lat="50.22298" lon="4.81236">
        <ele>129.2</ele>
        <time>2025-04-05T08:22:49Z</time>
      </trkpt>
      <trkpt lat="50.22296" lon="4.81234">
        <ele>129.4</ele>
        <time>2025-04-05T08:22:50Z</time>
      </trkpt>
      <trkpt lat="50.22293" lon="4.81231">
        <ele>129.8</ele>
        <time>2025-04-05T08:22:51Z</time>
      </trkpt>
      <trkpt lat="50.22291" lon="4.8123">
        <ele>130</ele>
        <time>2025-04-05T08:22:52Z</time>
      </trkpt>
      <trkpt lat="50.22289" lon="4.81232">
        <ele>130.2</ele>
        <time>2025-04-05T08:22:53Z</time>
      </trkpt>
      <trkpt lat="50.22287" lon="4.81232">
        <ele>130.6</ele>
        <time>2025-04-05T08:22:54Z</time>
      </trkpt>
      <trkpt lat="50.22286" lon="4.81233">
        <ele>130.8</ele>
        <time>2025-04-05T08:22:55Z</time>
      </trkpt>
      <trkpt lat="50.22283" lon="4.81233">
        <ele>131</ele>
        <time>2025-04-05T08:22:56Z</time>
      </trkpt>
      <trkpt lat="50.22281" lon="4.81235">
        <ele>131.4</ele>
        <time>2025-04-05T08:22:57Z</time>
      </trkpt>
      <trkpt lat="50.22279" lon="4.81236">
        <ele>131.6</ele>
        <time>2025-04-05T08:22:58Z</time>
      </trkpt>
      <trkpt lat="50.22277" lon="4.81238">
        <ele>131.8</ele>
        <time>2025-04-05T08:22:59Z</time>
      </trkpt>
      <trkpt lat="50.22275" lon="4.81239">
        <ele>132</ele>
        <time>2025-04-05T08:23:00Z</time>
      </trkpt>
      <trkpt lat="50.22273" lon="4.8124">
        <ele>132.2</ele>
        <time>2025-04-05T08:23:01Z</time>
      </trkpt>
      <trkpt lat="50.22271" lon="4.81242">
        <ele>132.4</ele>
        <time>2025-04-05T08:23:02Z</time>
      </trkpt>
      <trkpt lat="50.22269" lon="4.81243">
        <ele>132.6</ele>
        <time>2025-04-05T08:23:03Z</time>
      </trkpt>
      <trkpt lat="50.22267" lon="4.81245">
        <ele>132.8</ele>
        <time>2025-04-05T08:23:04Z</time>
      </trkpt>
      <trkpt lat="50.22265" lon="4.81247">
        <ele>133</ele>
        <time>2025-04-05T08:23:05Z</time>
      </trkpt>
      <trkpt lat="50.22263" lon="4.8125">
        <ele>133.2</ele>
        <time>2025-04-05T08:23:06Z</time>
      </trkpt>
      <trkpt lat="50.22263" lon="4.81252">
        <ele>133.4</ele>
        <time>2025-04-05T08:23:07Z</time>
      </trkpt>
      <trkpt lat="50.22261" lon="4.81255">
        <ele>133.6</ele>
        <time>2025-04-05T08:23:08Z</time>
      </trkpt>
      <trkpt lat="50.22259" lon="4.81257">
        <ele>133.8</ele>
        <time>2025-04-05T08:23:09Z</time>
      </trkpt>
      <trkpt lat="50.22257" lon="4.8126">
        <ele>134</ele>
        <time>2025-04-05T08:23:10Z</time>
      </trkpt>
      <trkpt lat="50.22255" lon="4.81263">
        <ele>134.2</ele>
        <time>2025-04-05T08:23:11Z</time>
      </trkpt>
      <trkpt lat="50.22253" lon="4.81265">
        <ele>134.4</ele>
        <time>2025-04-05T08:23:12Z</time>
      </trkpt>
      <trkpt lat="50.2225" lon="4.81268">
        <ele>134.6</ele>
        <time>2025-04-05T08:23:13Z</time>
      </trkpt>
      <trkpt lat="50.22248" lon="4.81271">
        <ele>134.8</ele>
        <time>2025-04-05T08:23:14Z</time>
      </trkpt>
      <trkpt lat="50.22245" lon="4.81274">
        <ele>135</ele>
        <time>2025-04-05T08:23:15Z</time>
      </trkpt>
      <trkpt lat="50.22244" lon="4.81276">
        <ele>135.2</ele>
        <time>2025-04-05T08:23:16Z</time>
      </trkpt>
      <trkpt lat="50.22243" lon="4.81277">
        <ele>135.4</ele>
        <time>2025-04-05T08:23:17Z</time>
      </trkpt>
      <trkpt lat="50.22242" lon="4.81278">
        <ele>135.6</ele>
        <time>2025-04-05T08:23:18Z</time>
      </trkpt>
      <trkpt lat="50.2224" lon="4.8128">
        <ele>135.6</ele>
        <time>2025-04-05T08:23:19Z</time>
      </trkpt>
      <trkpt lat="50.22237" lon="4.81282">
        <ele>135.8</ele>
        <time>2025-04-05T08:23:20Z</time>
      </trkpt>
      <trkpt lat="50.22235" lon="4.81285">
        <ele>136</ele>
        <time>2025-04-05T08:23:21Z</time>
      </trkpt>
      <trkpt lat="50.22233" lon="4.81287">
        <ele>136.2</ele>
        <time>2025-04-05T08:23:22Z</time>
      </trkpt>
      <trkpt lat="50.22231" lon="4.8129">
        <ele>136.4</ele>
        <time>2025-04-05T08:23:23Z</time>
      </trkpt>
      <trkpt lat="50.22229" lon="4.81292">
        <ele>136.6</ele>
        <time>2025-04-05T08:23:24Z</time>
      </trkpt>
      <trkpt lat="50.22227" lon="4.81294">
        <ele>136.8</ele>
        <time>2025-04-05T08:23:25Z</time>
      </trkpt>
      <trkpt lat="50.22225" lon="4.81296">
        <ele>136.8</ele>
        <time>2025-04-05T08:23:26Z</time>
      </trkpt>
      <trkpt lat="50.22224" lon="4.81298">
        <ele>137</ele>
        <time>2025-04-05T08:23:27Z</time>
      </trkpt>
      <trkpt lat="50.22221" lon="4.81301">
        <ele>137.2</ele>
        <time>2025-04-05T08:23:28Z</time>
      </trkpt>
      <trkpt lat="50.22219" lon="4.81303">
        <ele>137.4</ele>
        <time>2025-04-05T08:23:29Z</time>
      </trkpt>
      <trkpt lat="50.22217" lon="4.81305">
        <ele>137.6</ele>
        <time>2025-04-05T08:23:30Z</time>
      </trkpt>
      <trkpt lat="50.22215" lon="4.81308">
        <ele>137.8</ele>
        <time>2025-04-05T08:23:31Z</time>
      </trkpt>
      <trkpt lat="50.22213" lon="4.8131">
        <ele>138</ele>
        <time>2025-04-05T08:23:32Z</time>
      </trkpt>
      <trkpt lat="50.22212" lon="4.81311">
        <ele>138.2</ele>
        <time>2025-04-05T08:23:33Z</time>
      </trkpt>
      <trkpt lat="50.22209" lon="4.81314">
        <ele>138.4</ele>
        <time>2025-04-05T08:23:34Z</time>
      </trkpt>
      <trkpt lat="50.22207" lon="4.81315">
        <ele>138.6</ele>
        <time>2025-04-05T08:23:35Z</time>
      </trkpt>
      <trkpt lat="50.22205" lon="4.81317">
        <ele>139</ele>
        <time>2025-04-05T08:23:36Z</time>
      </trkpt>
      <trkpt lat="50.22203" lon="4.81318">
        <ele>139.2</ele>
        <time>2025-04-05T08:23:37Z</time>
      </trkpt>
      <trkpt lat="50.22201" lon="4.81319">
        <ele>139.4</ele>
        <time>2025-04-05T08:23:38Z</time>
      </trkpt>
      <trkpt lat="50.22199" lon="4.8132">
        <ele>139.6</ele>
        <time>2025-04-05T08:23:39Z</time>
      </trkpt>
      <trkpt lat="50.22197" lon="4.8132">
        <ele>140</ele>
        <time>2025-04-05T08:23:40Z</time>
      </trkpt>
      <trkpt lat="50.22195" lon="4.8132">
        <ele>140.2</ele>
        <time>2025-04-05T08:23:41Z</time>
      </trkpt>
      <trkpt lat="50.22193" lon="4.8132">
        <ele>140.4</ele>
        <time>2025-04-05T08:23:42Z</time>
      </trkpt>
      <trkpt lat="50.22191" lon="4.8132">
        <ele>140.8</ele>
        <time>2025-04-05T08:23:43Z</time>
      </trkpt>
      <trkpt lat="50.22189" lon="4.81319">
        <ele>141</ele>
        <time>2025-04-05T08:23:44Z</time>
      </trkpt>
      <trkpt lat="50.22187" lon="4.81319">
        <ele>141.2</ele>
        <time>2025-04-05T08:23:45Z</time>
      </trkpt>
      <trkpt lat="50.22186" lon="4.81318">
        <ele>141.6</ele>
        <time>2025-04-05T08:23:46Z</time>
      </trkpt>
      <trkpt lat="50.22184" lon="4.81317">
        <ele>141.8</ele>
        <time>2025-04-05T08:23:47Z</time>
      </trkpt>
      <trkpt lat="50.22182" lon="4.81315">
        <ele>142</ele>
        <time>2025-04-05T08:23:48Z</time>
      </trkpt>
      <trkpt lat="50.22181" lon="4.81314">
        <ele>142.2</ele>
        <time>2025-04-05T08:23:49Z</time>
      </trkpt>
      <trkpt lat="50.22179" lon="4.81313">
        <ele>142.4</ele>
        <time>2025-04-05T08:23:50Z</time>
      </trkpt>
      <trkpt lat="50.22176" lon="4.81311">
        <ele>142.8</ele>
        <time>2025-04-05T08:23:51Z</time>
      </trkpt>
      <trkpt lat="50.22174" lon="4.81309">
        <ele>143</ele>
        <time>2025-04-05T08:23:52Z</time>
      </trkpt>
      <trkpt lat="50.22172" lon="4.81307">
        <ele>143.2</ele>
        <time>2025-04-05T08:23:53Z</time>
      </trkpt>
      <trkpt lat="50.22171" lon="4.81305">
        <ele>143.4</ele>
        <time>2025-04-05T08:23:54Z</time>
      </trkpt>
      <trkpt lat="50.22171" lon="4.81303">
        <ele>143.6</ele>
        <time>2025-04-05T08:23:55Z</time>
      </trkpt>
      <trkpt lat="50.2217" lon="4.813">
        <ele>143.8</ele>
        <time>2025-04-05T08:23:56Z</time>
      </trkpt>
      <trkpt lat="50.2217" lon="4.81297">
        <ele>144.2</ele>
        <time>2025-04-05T08:23:57Z</time>
      </trkpt>
      <trkpt lat="50.22169" lon="4.81294">
        <ele>144.4</ele>
        <time>2025-04-05T08:23:58Z</time>
      </trkpt>
      <trkpt lat="50.22169" lon="4.81291">
        <ele>144.6</ele>
        <time>2025-04-05T08:23:59Z</time>
      </trkpt>
      <trkpt lat="50.22169" lon="4.81288">
        <ele>144.8</ele>
        <time>2025-04-05T08:24:00Z</time>
      </trkpt>
      <trkpt lat="50.22168" lon="4.81283">
        <ele>145</ele>
        <time>2025-04-05T08:24:01Z</time>
      </trkpt>
      <trkpt lat="50.22168" lon="4.81279">
        <ele>145.2</ele>
        <time>2025-04-05T08:24:02Z</time>
      </trkpt>
      <trkpt lat="50.22165" lon="4.81274">
        <ele>145.4</ele>
        <time>2025-04-05T08:24:03Z</time>
      </trkpt>
      <trkpt lat="50.22163" lon="4.8127">
        <ele>145.6</ele>
        <time>2025-04-05T08:24:04Z</time>
      </trkpt>
      <trkpt lat="50.22163" lon="4.81267">
        <ele>145.6</ele>
        <time>2025-04-05T08:24:05Z</time>
      </trkpt>
      <trkpt lat="50.22163" lon="4.81263">
        <ele>145.8</ele>
        <time>2025-04-05T08:24:06Z</time>
      </trkpt>
      <trkpt lat="50.22163" lon="4.8126">
        <ele>146</ele>
        <time>2025-04-05T08:24:07Z</time>
      </trkpt>
      <trkpt lat="50.22164" lon="4.81256">
        <ele>146.2</ele>
        <time>2025-04-05T08:24:08Z</time>
      </trkpt>
      <trkpt lat="50.22165" lon="4.81253">
        <ele>146.2</ele>
        <time>2025-04-05T08:24:09Z</time>
      </trkpt>
      <trkpt lat="50.22165" lon="4.81248">
        <ele>146.4</ele>
        <time>2025-04-05T08:24:10Z</time>
      </trkpt>
      <trkpt lat="50.22167" lon="4.81242">
        <ele>146.6</ele>
        <time>2025-04-05T08:24:11Z</time>
      </trkpt>
      <trkpt lat="50.22169" lon="4.81238">
        <ele>146.8</ele>
        <time>2025-04-05T08:24:12Z</time>
      </trkpt>
      <trkpt lat="50.22168" lon="4.81233">
        <ele>147</ele>
        <time>2025-04-05T08:24:13Z</time>
      </trkpt>
      <trkpt lat="50.22168" lon="4.81229">
        <ele>147.2</ele>
        <time>2025-04-05T08:24:14Z</time>
      </trkpt>
      <trkpt lat="50.2217" lon="4.81225">
        <ele>147.6</ele>
        <time>2025-04-05T08:24:15Z</time>
      </trkpt>
      <trkpt lat="50.22171" lon="4.8122">
        <ele>147.8</ele>
        <time>2025-04-05T08:24:16Z</time>
      </trkpt>
      <trkpt lat="50.22172" lon="4.81216">
        <ele>148</ele>
        <time>2025-04-05T08:24:17Z</time>
      </trkpt>
      <trkpt lat="50.22173" lon="4.81211">
        <ele>148.2</ele>
        <time>2025-04-05T08:24:18Z</time>
      </trkpt>
      <trkpt lat="50.22175" lon="4.81206">
        <ele>148.4</ele>
        <time>2025-04-05T08:24:19Z</time>
      </trkpt>
      <trkpt lat="50.22175" lon="4.81204">
        <ele>148.8</ele>
        <time>2025-04-05T08:24:20Z</time>
      </trkpt>
      <trkpt lat="50.22174" lon="4.81202">
        <ele>149</ele>
        <time>2025-04-05T08:24:21Z</time>
      </trkpt>
      <trkpt lat="50.22172" lon="4.812">
        <ele>149.2</ele>
        <time>2025-04-05T08:24:22Z</time>
      </trkpt>
      <trkpt lat="50.22171" lon="4.81197">
        <ele>149.4</ele>
        <time>2025-04-05T08:24:23Z</time>
      </trkpt>
      <trkpt lat="50.22171" lon="4.81194">
        <ele>149.8</ele>
        <time>2025-04-05T08:24:24Z</time>
      </trkpt>
      <trkpt lat="50.22172" lon="4.81191">
        <ele>150</ele>
        <time>2025-04-05T08:24:25Z</time>
      </trkpt>
      <trkpt lat="50.22173" lon="4.81187">
        <ele>150.2</ele>
        <time>2025-04-05T08:24:26Z</time>
      </trkpt>
      <trkpt lat="50.22171" lon="4.81184">
        <ele>150.4</ele>
        <time>2025-04-05T08:24:27Z</time>
      </trkpt>
      <trkpt lat="50.22171" lon="4.81181">
        <ele>150.6</ele>
        <time>2025-04-05T08:24:28Z</time>
      </trkpt>
      <trkpt lat="50.2217" lon="4.81177">
        <ele>150.8</ele>
        <time>2025-04-05T08:24:29Z</time>
      </trkpt>
      <trkpt lat="50.2217" lon="4.81173">
        <ele>151.2</ele>
        <time>2025-04-05T08:24:30Z</time>
      </trkpt>
      <trkpt lat="50.2217" lon="4.81169">
        <ele>151.4</ele>
        <time>2025-04-05T08:24:31Z</time>
      </trkpt>
      <trkpt lat="50.2217" lon="4.81165">
        <ele>151.6</ele>
        <time>2025-04-05T08:24:32Z</time>
      </trkpt>
      <trkpt lat="50.22169" lon="4.81161">
        <ele>151.8</ele>
        <time>2025-04-05T08:24:33Z</time>
      </trkpt>
      <trkpt lat="50.2217" lon="4.81157">
        <ele>152</ele>
        <time>2025-04-05T08:24:34Z</time>
      </trkpt>
      <trkpt lat="50.22169" lon="4.81154">
        <ele>152.2</ele>
        <time>2025-04-05T08:24:35Z</time>
      </trkpt>
      <trkpt lat="50.22168" lon="4.8115">
        <ele>152.4</ele>
        <time>2025-04-05T08:24:36Z</time>
      </trkpt>
      <trkpt lat="50.22166" lon="4.81147">
        <ele>152.8</ele>
        <time>2025-04-05T08:24:37Z</time>
      </trkpt>
      <trkpt lat="50.22165" lon="4.81145">
        <ele>153</ele>
        <time>2025-04-05T08:24:38Z</time>
      </trkpt>
      <trkpt lat="50.22163" lon="4.81142">
        <ele>153.2</ele>
        <time>2025-04-05T08:24:39Z</time>
      </trkpt>
      <trkpt lat="50.22162" lon="4.81139">
        <ele>153.4</ele>
        <time>2025-04-05T08:24:40Z</time>
      </trkpt>
      <trkpt lat="50.2216" lon="4.81137">
        <ele>153.8</ele>
        <time>2025-04-05T08:24:41Z</time>
      </trkpt>
      <trkpt lat="50.22159" lon="4.81134">
        <ele>154</ele>
        <time>2025-04-05T08:24:42Z</time>
      </trkpt>
      <trkpt lat="50.22157" lon="4.81131">
        <ele>154.2</ele>
        <time>2025-04-05T08:24:43Z</time>
      </trkpt>
      <trkpt lat="50.22156" lon="4.81128">
        <ele>154.4</ele>
        <time>2025-04-05T08:24:44Z</time>
      </trkpt>
      <trkpt lat="50.22154" lon="4.81126">
        <ele>154.8</ele>
        <time>2025-04-05T08:24:45Z</time>
      </trkpt>
      <trkpt lat="50.22153" lon="4.81125">
        <ele>155</ele>
        <time>2025-04-05T08:24:46Z</time>
      </trkpt>
      <trkpt lat="50.22152" lon="4.81122">
        <ele>155.2</ele>
        <time>2025-04-05T08:24:47Z</time>
      </trkpt>
      <trkpt lat="50.22149" lon="4.8112">
        <ele>155.4</ele>
        <time>2025-04-05T08:24:48Z</time>
      </trkpt>
      <trkpt lat="50.22147" lon="4.81117">
        <ele>155.6</ele>
        <time>2025-04-05T08:24:49Z</time>
      </trkpt>
      <trkpt lat="50.22146" lon="4.81115">
        <ele>155.8</ele>
        <time>2025-04-05T08:24:50Z</time>
      </trkpt>
      <trkpt lat="50.22143" lon="4.81112">
        <ele>156</ele>
        <time>2025-04-05T08:24:51Z</time>
      </trkpt>
      <trkpt lat="50.22141" lon="4.8111">
        <ele>156</ele>
        <time>2025-04-05T08:24:52Z</time>
      </trkpt>
      <trkpt lat="50.2214" lon="4.81108">
        <ele>156.2</ele>
        <time>2025-04-05T08:24:53Z</time>
      </trkpt>
      <trkpt lat="50.22138" lon="4.81106">
        <ele>156.6</ele>
        <time>2025-04-05T08:24:54Z</time>
      </trkpt>
      <trkpt lat="50.22136" lon="4.81103">
        <ele>156.6</ele>
        <time>2025-04-05T08:24:55Z</time>
      </trkpt>
      <trkpt lat="50.22134" lon="4.811">
        <ele>156.8</ele>
        <time>2025-04-05T08:24:56Z</time>
      </trkpt>
      <trkpt lat="50.22132" lon="4.81098">
        <ele>157</ele>
        <time>2025-04-05T08:24:57Z</time>
      </trkpt>
      <trkpt lat="50.2213" lon="4.81096">
        <ele>157.2</ele>
        <time>2025-04-05T08:24:58Z</time>
      </trkpt>
      <trkpt lat="50.22128" lon="4.81093">
        <ele>157.4</ele>
        <time>2025-04-05T08:24:59Z</time>
      </trkpt>
      <trkpt lat="50.22126" lon="4.81091">
        <ele>157.6</ele>
        <time>2025-04-05T08:25:00Z</time>
      </trkpt>
      <trkpt lat="50.22124" lon="4.81088">
        <ele>158</ele>
        <time>2025-04-05T08:25:01Z</time>
      </trkpt>
      <trkpt lat="50.22122" lon="4.81086">
        <ele>158.2</ele>
        <time>2025-04-05T08:25:02Z</time>
      </trkpt>
      <trkpt lat="50.2212" lon="4.81084">
        <ele>158.4</ele>
        <time>2025-04-05T08:25:03Z</time>
      </trkpt>
      <trkpt lat="50.22117" lon="4.81083">
        <ele>158.6</ele>
        <time>2025-04-05T08:25:04Z</time>
      </trkpt>
      <trkpt lat="50.22114" lon="4.81081">
        <ele>158.8</ele>
        <time>2025-04-05T08:25:05Z</time>
      </trkpt>
      <trkpt lat="50.22112" lon="4.81079">
        <ele>159</ele>
        <time>2025-04-05T08:25:06Z</time>
      </trkpt>
      <trkpt lat="50.2211" lon="4.81077">
        <ele>159.2</ele>
        <time>2025-04-05T08:25:07Z</time>
      </trkpt>
      <trkpt lat="50.22108" lon="4.81075">
        <ele>159.4</ele>
        <time>2025-04-05T08:25:08Z</time>
      </trkpt>
      <trkpt lat="50.22107" lon="4.81072">
        <ele>159.6</ele>
        <time>2025-04-05T08:25:09Z</time>
      </trkpt>
      <trkpt lat="50.22105" lon="4.8107">
        <ele>159.8</ele>
        <time>2025-04-05T08:25:10Z</time>
      </trkpt>
      <trkpt lat="50.22104" lon="4.81068">
        <ele>160</ele>
        <time>2025-04-05T08:25:11Z</time>
      </trkpt>
      <trkpt lat="50.22102" lon="4.81065">
        <ele>160.2</ele>
        <time>2025-04-05T08:25:12Z</time>
      </trkpt>
      <trkpt lat="50.221" lon="4.81063">
        <ele>160.4</ele>
        <time>2025-04-05T08:25:13Z</time>
      </trkpt>
      <trkpt lat="50.22099" lon="4.81061">
        <ele>160.6</ele>
        <time>2025-04-05T08:25:14Z</time>
      </trkpt>
      <trkpt lat="50.22097" lon="4.81059">
        <ele>160.8</ele>
        <time>2025-04-05T08:25:15Z</time>
      </trkpt>
      <trkpt lat="50.22096" lon="4.81057">
        <ele>161.2</ele>
        <time>2025-04-05T08:25:16Z</time>
      </trkpt>
      <trkpt lat="50.22094" lon="4.81055">
        <ele>161.4</ele>
        <time>2025-04-05T08:25:17Z</time>
      </trkpt>
      <trkpt lat="50.22092" lon="4.81053">
        <ele>161.6</ele>
        <time>2025-04-05T08:25:18Z</time>
      </trkpt>
      <trkpt lat="50.2209" lon="4.81051">
        <ele>161.8</ele>
        <time>2025-04-05T08:25:19Z</time>
      </trkpt>
      <trkpt lat="50.22088" lon="4.8105">
        <ele>162</ele>
        <time>2025-04-05T08:25:20Z</time>
      </trkpt>
      <trkpt lat="50.22086" lon="4.81048">
        <ele>162.2</ele>
        <time>2025-04-05T08:25:21Z</time>
      </trkpt>
      <trkpt lat="50.22084" lon="4.81046">
        <ele>162.4</ele>
        <time>2025-04-05T08:25:22Z</time>
      </trkpt>
      <trkpt lat="50.22082" lon="4.81044">
        <ele>162.8</ele>
        <time>2025-04-05T08:25:23Z</time>
      </trkpt>
      <trkpt lat="50.2208" lon="4.81043">
        <ele>163</ele>
        <time>2025-04-05T08:25:24Z</time>
      </trkpt>
      <trkpt lat="50.22078" lon="4.81041">
        <ele>163.2</ele>
        <time>2025-04-05T08:25:25Z</time>
      </trkpt>
      <trkpt lat="50.22076" lon="4.81039">
        <ele>163.4</ele>
        <time>2025-04-05T08:25:26Z</time>
      </trkpt>
      <trkpt lat="50.22074" lon="4.81037">
        <ele>163.6</ele>
        <time>2025-04-05T08:25:27Z</time>
      </trkpt>
      <trkpt lat="50.22072" lon="4.81035">
        <ele>163.8</ele>
        <time>2025-04-05T08:25:28Z</time>
      </trkpt>
      <trkpt lat="50.2207" lon="4.81033">
        <ele>164</ele>
        <time>2025-04-05T08:25:29Z</time>
      </trkpt>
      <trkpt lat="50.22068" lon="4.81031">
        <ele>164.2</ele>
        <time>2025-04-05T08:25:30Z</time>
      </trkpt>
      <trkpt lat="50.22066" lon="4.81029">
        <ele>164.6</ele>
        <time>2025-04-05T08:25:31Z</time>
      </trkpt>
      <trkpt lat="50.22064" lon="4.81027">
        <ele>164.8</ele>
        <time>2025-04-05T08:25:32Z</time>
      </trkpt>
      <trkpt lat="50.22062" lon="4.81026">
        <ele>165</ele>
        <time>2025-04-05T08:25:33Z</time>
      </trkpt>
      <trkpt lat="50.2206" lon="4.81024">
        <ele>165.2</ele>
        <time>2025-04-05T08:25:34Z</time>
      </trkpt>
      <trkpt lat="50.22057" lon="4.81023">
        <ele>165.4</ele>
        <time>2025-04-05T08:25:35Z</time>
      </trkpt>
      <trkpt lat="50.22055" lon="4.81021">
        <ele>165.6</ele>
        <time>2025-04-05T08:25:36Z</time>
      </trkpt>
      <trkpt lat="50.22054" lon="4.8102">
        <ele>166</ele>
        <time>2025-04-05T08:25:37Z</time>
      </trkpt>
      <trkpt lat="50.22052" lon="4.8102">
        <ele>166.2</ele>
        <time>2025-04-05T08:25:38Z</time>
      </trkpt>
      <trkpt lat="50.22051" lon="4.81021">
        <ele>166.4</ele>
        <time>2025-04-05T08:25:39Z</time>
      </trkpt>
      <trkpt lat="50.22049" lon="4.81022">
        <ele>166.8</ele>
        <time>2025-04-05T08:25:40Z</time>
      </trkpt>
      <trkpt lat="50.22047" lon="4.81023">
        <ele>167</ele>
        <time>2025-04-05T08:25:41Z</time>
      </trkpt>
      <trkpt lat="50.22046" lon="4.81025">
        <ele>167.2</ele>
        <time>2025-04-05T08:25:42Z</time>
      </trkpt>
      <trkpt lat="50.22044" lon="4.81027">
        <ele>167.6</ele>
        <time>2025-04-05T08:25:43Z</time>
      </trkpt>
      <trkpt lat="50.22043" lon="4.8103">
        <ele>167.8</ele>
        <time>2025-04-05T08:25:44Z</time>
      </trkpt>
      <trkpt lat="50.22042" lon="4.81033">
        <ele>168.2</ele>
        <time>2025-04-05T08:25:45Z</time>
      </trkpt>
      <trkpt lat="50.22042" lon="4.81037">
        <ele>168.4</ele>
        <time>2025-04-05T08:25:46Z</time>
      </trkpt>
      <trkpt lat="50.22041" lon="4.81041">
        <ele>168.6</ele>
        <time>2025-04-05T08:25:47Z</time>
      </trkpt>
      <trkpt lat="50.22041" lon="4.81044">
        <ele>169</ele>
        <time>2025-04-05T08:25:48Z</time>
      </trkpt>
      <trkpt lat="50.22041" lon="4.81047">
        <ele>169.2</ele>
        <time>2025-04-05T08:25:49Z</time>
      </trkpt>
      <trkpt lat="50.2204" lon="4.8105">
        <ele>169.4</ele>
        <time>2025-04-05T08:25:50Z</time>
      </trkpt>
      <trkpt lat="50.2204" lon="4.81053">
        <ele>169.6</ele>
        <time>2025-04-05T08:25:51Z</time>
      </trkpt>
      <trkpt lat="50.2204" lon="4.81056">
        <ele>169.8</ele>
        <time>2025-04-05T08:25:52Z</time>
      </trkpt>
      <trkpt lat="50.22041" lon="4.8106">
        <ele>170</ele>
        <time>2025-04-05T08:25:53Z</time>
      </trkpt>
      <trkpt lat="50.22041" lon="4.81064">
        <ele>170.2</ele>
        <time>2025-04-05T08:25:54Z</time>
      </trkpt>
      <trkpt lat="50.22043" lon="4.81068">
        <ele>170.4</ele>
        <time>2025-04-05T08:25:55Z</time>
      </trkpt>
      <trkpt lat="50.22043" lon="4.81072">
        <ele>170.6</ele>
        <time>2025-04-05T08:25:56Z</time>
      </trkpt>
      <trkpt lat="50.22044" lon="4.81077">
        <ele>170.8</ele>
        <time>2025-04-05T08:25:57Z</time>
      </trkpt>
      <trkpt lat="50.22043" lon="4.81081">
        <ele>171</ele>
        <time>2025-04-05T08:25:58Z</time>
      </trkpt>
      <trkpt lat="50.22043" lon="4.81085">
        <ele>171.2</ele>
        <time>2025-04-05T08:25:59Z</time>
      </trkpt>
      <trkpt lat="50.22044" lon="4.81089">
        <ele>171.4</ele>
        <time>2025-04-05T08:26:00Z</time>
      </trkpt>
      <trkpt lat="50.22044" lon="4.81093">
        <ele>171.6</ele>
        <time>2025-04-05T08:26:01Z</time>
      </trkpt>
      <trkpt lat="50.22044" lon="4.81097">
        <ele>171.8</ele>
        <time>2025-04-05T08:26:02Z</time>
      </trkpt>
      <trkpt lat="50.22044" lon="4.81102">
        <ele>172</ele>
        <time>2025-04-05T08:26:03Z</time>
      </trkpt>
      <trkpt lat="50.22043" lon="4.81107">
        <ele>172.2</ele>
        <time>2025-04-05T08:26:04Z</time>
      </trkpt>
      <trkpt lat="50.22042" lon="4.81111">
        <ele>172.2</ele>
        <time>2025-04-05T08:26:05Z</time>
      </trkpt>
      <trkpt lat="50.22041" lon="4.81117">
        <ele>172.4</ele>
        <time>2025-04-05T08:26:06Z</time>
      </trkpt>
      <trkpt lat="50.2204" lon="4.81121">
        <ele>172.6</ele>
        <time>2025-04-05T08:26:07Z</time>
      </trkpt>
      <trkpt lat="50.2204" lon="4.81125">
        <ele>172.8</ele>
        <time>2025-04-05T08:26:08Z</time>
      </trkpt>
      <trkpt lat="50.22039" lon="4.81129">
        <ele>173</ele>
        <time>2025-04-05T08:26:09Z</time>
      </trkpt>
      <trkpt lat="50.22039" lon="4.81132">
        <ele>173.2</ele>
        <time>2025-04-05T08:26:10Z</time>
      </trkpt>
      <trkpt lat="50.22038" lon="4.81137">
        <ele>173.4</ele>
        <time>2025-04-05T08:26:11Z</time>
      </trkpt>
      <trkpt lat="50.22038" lon="4.81141">
        <ele>173.6</ele>
        <time>2025-04-05T08:26:12Z</time>
      </trkpt>
      <trkpt lat="50.22037" lon="4.81145">
        <ele>173.8</ele>
        <time>2025-04-05T08:26:13Z</time>
      </trkpt>
      <trkpt lat="50.22036" lon="4.8115">
        <ele>174</ele>
        <time>2025-04-05T08:26:14Z</time>
      </trkpt>
      <trkpt lat="50.22036" lon="4.81154">
        <ele>174.2</ele>
        <time>2025-04-05T08:26:15Z</time>
      </trkpt>
      <trkpt lat="50.22036" lon="4.81158">
        <ele>174.4</ele>
        <time>2025-04-05T08:26:16Z</time>
      </trkpt>
      <trkpt lat="50.22035" lon="4.81162">
        <ele>174.6</ele>
        <time>2025-04-05T08:26:17Z</time>
      </trkpt>
      <trkpt lat="50.22035" lon="4.81167">
        <ele>174.8</ele>
        <time>2025-04-05T08:26:18Z</time>
      </trkpt>
      <trkpt lat="50.22035" lon="4.81171">
        <ele>175</ele>
        <time>2025-04-05T08:26:19Z</time>
      </trkpt>
      <trkpt lat="50.22035" lon="4.81175">
        <ele>175.2</ele>
        <time>2025-04-05T08:26:20Z</time>
      </trkpt>
      <trkpt lat="50.22034" lon="4.81179">
        <ele>175.4</ele>
        <time>2025-04-05T08:26:21Z</time>
      </trkpt>
      <trkpt lat="50.22034" lon="4.81183">
        <ele>175.6</ele>
        <time>2025-04-05T08:26:22Z</time>
      </trkpt>
      <trkpt lat="50.22034" lon="4.81187">
        <ele>175.8</ele>
        <time>2025-04-05T08:26:23Z</time>
      </trkpt>
      <trkpt lat="50.22033" lon="4.8119">
        <ele>175.8</ele>
        <time>2025-04-05T08:26:24Z</time>
      </trkpt>
      <trkpt lat="50.22033" lon="4.81194">
        <ele>176</ele>
        <time>2025-04-05T08:26:25Z</time>
      </trkpt>
      <trkpt lat="50.22033" lon="4.81198">
        <ele>176.2</ele>
        <time>2025-04-05T08:26:26Z</time>
      </trkpt>
      <trkpt lat="50.22033" lon="4.81202">
        <ele>176.4</ele>
        <time>2025-04-05T08:26:27Z</time>
      </trkpt>
      <trkpt lat="50.22033" lon="4.81205">
        <ele>176.6</ele>
        <time>2025-04-05T08:26:28Z</time>
      </trkpt>
      <trkpt lat="50.22032" lon="4.81209">
        <ele>177</ele>
        <time>2025-04-05T08:26:29Z</time>
      </trkpt>
      <trkpt lat="50.22032" lon="4.81214">
        <ele>177.2</ele>
        <time>2025-04-05T08:26:30Z</time>
      </trkpt>
      <trkpt lat="50.22032" lon="4.81217">
        <ele>177.4</ele>
        <time>2025-04-05T08:26:31Z</time>
      </trkpt>
      <trkpt lat="50.22032" lon="4.81221">
        <ele>177.6</ele>
        <time>2025-04-05T08:26:32Z</time>
      </trkpt>
      <trkpt lat="50.22032" lon="4.81225">
        <ele>177.8</ele>
        <time>2025-04-05T08:26:33Z</time>
      </trkpt>
      <trkpt lat="50.22032" lon="4.81229">
        <ele>178</ele>
        <time>2025-04-05T08:26:34Z</time>
      </trkpt>
      <trkpt lat="50.22031" lon="4.81233">
        <ele>178.2</ele>
        <time>2025-04-05T08:26:35Z</time>
      </trkpt>
      <trkpt lat="50.22031" lon="4.81237">
        <ele>178.4</ele>
        <time>2025-04-05T08:26:36Z</time>
      </trkpt>
      <trkpt lat="50.2203" lon="4.81241">
        <ele>178.6</ele>
        <time>2025-04-05T08:26:37Z</time>
      </trkpt>
      <trkpt lat="50.2203" lon="4.81245">
        <ele>178.8</ele>
        <time>2025-04-05T08:26:38Z</time>
      </trkpt>
      <trkpt lat="50.2203" lon="4.81249">
        <ele>179</ele>
        <time>2025-04-05T08:26:39Z</time>
      </trkpt>
      <trkpt lat="50.2203" lon="4.81253">
        <ele>179.2</ele>
        <time>2025-04-05T08:26:40Z</time>
      </trkpt>
      <trkpt lat="50.2203" lon="4.81256">
        <ele>179.4</ele>
        <time>2025-04-05T08:26:41Z</time>
      </trkpt>
      <trkpt lat="50.2203" lon="4.81259">
        <ele>179.6</ele>
        <time>2025-04-05T08:26:42Z</time>
      </trkpt>
      <trkpt lat="50.2203" lon="4.81263">
        <ele>179.8</ele>
        <time>2025-04-05T08:26:43Z</time>
      </trkpt>
      <trkpt lat="50.22029" lon="4.81267">
        <ele>180</ele>
        <time>2025-04-05T08:26:44Z</time>
      </trkpt>
      <trkpt lat="50.22028" lon="4.81269">
        <ele>180.2</ele>
        <time>2025-04-05T08:26:45Z</time>
      </trkpt>
      <trkpt lat="50.22028" lon="4.81274">
        <ele>180.4</ele>
        <time>2025-04-05T08:26:46Z</time>
      </trkpt>
      <trkpt lat="50.22027" lon="4.81277">
        <ele>180.6</ele>
        <time>2025-04-05T08:26:47Z</time>
      </trkpt>
      <trkpt lat="50.22027" lon="4.8128">
        <ele>180.8</ele>
        <time>2025-04-05T08:26:48Z</time>
      </trkpt>
      <trkpt lat="50.22028" lon="4.81283">
        <ele>181</ele>
        <time>2025-04-05T08:26:49Z</time>
      </trkpt>
      <trkpt lat="50.22028" lon="4.81285">
        <ele>181.2</ele>
        <time>2025-04-05T08:26:50Z</time>
      </trkpt>
      <trkpt lat="50.22028" lon="4.81289">
        <ele>181.4</ele>
        <time>2025-04-05T08:26:51Z</time>
      </trkpt>
      <trkpt lat="50.22028" lon="4.81293">
        <ele>181.6</ele>
        <time>2025-04-05T08:26:52Z</time>
      </trkpt>
      <trkpt lat="50.22028" lon="4.81296">
        <ele>181.8</ele>
        <time>2025-04-05T08:26:53Z</time>
      </trkpt>
      <trkpt lat="50.22028" lon="4.813">
        <ele>182</ele>
        <time>2025-04-05T08:26:54Z</time>
      </trkpt>
      <trkpt lat="50.22028" lon="4.81304">
        <ele>182.2</ele>
        <time>2025-04-05T08:26:55Z</time>
      </trkpt>
      <trkpt lat="50.22028" lon="4.81307">
        <ele>182.2</ele>
        <time>2025-04-05T08:26:56Z</time>
      </trkpt>
      <trkpt lat="50.22026" lon="4.81312">
        <ele>182.4</ele>
        <time>2025-04-05T08:26:57Z</time>
      </trkpt>
      <trkpt lat="50.22026" lon="4.81316">
        <ele>182.6</ele>
        <time>2025-04-05T08:26:58Z</time>
      </trkpt>
      <trkpt lat="50.22025" lon="4.8132">
        <ele>182.8</ele>
        <time>2025-04-05T08:26:59Z</time>
      </trkpt>
      <trkpt lat="50.22025" lon="4.81324">
        <ele>183</ele>
        <time>2025-04-05T08:27:00Z</time>
      </trkpt>
      <trkpt lat="50.22025" lon="4.81327">
        <ele>183.2</ele>
        <time>2025-04-05T08:27:01Z</time>
      </trkpt>
      <trkpt lat="50.22023" lon="4.81332">
        <ele>183.4</ele>
        <time>2025-04-05T08:27:02Z</time>
      </trkpt>
      <trkpt lat="50.22023" lon="4.81337">
        <ele>183.6</ele>
        <time>2025-04-05T08:27:03Z</time>
      </trkpt>
      <trkpt lat="50.22023" lon="4.81341">
        <ele>183.8</ele>
        <time>2025-04-05T08:27:04Z</time>
      </trkpt>
      <trkpt lat="50.22023" lon="4.81346">
        <ele>184</ele>
        <time>2025-04-05T08:27:05Z</time>
      </trkpt>
      <trkpt lat="50.22023" lon="4.81351">
        <ele>184.2</ele>
        <time>2025-04-05T08:27:06Z</time>
      </trkpt>
      <trkpt lat="50.22022" lon="4.81356">
        <ele>184.4</ele>
        <time>2025-04-05T08:27:07Z</time>
      </trkpt>
      <trkpt lat="50.22022" lon="4.8136">
        <ele>184.4</ele>
        <time>2025-04-05T08:27:08Z</time>
      </trkpt>
      <trkpt lat="50.2202" lon="4.81365">
        <ele>184.6</ele>
        <time>2025-04-05T08:27:09Z</time>
      </trkpt>
      <trkpt lat="50.22019" lon="4.81369">
        <ele>184.8</ele>
        <time>2025-04-05T08:27:10Z</time>
      </trkpt>
      <trkpt lat="50.22018" lon="4.81372">
        <ele>185</ele>
        <time>2025-04-05T08:27:11Z</time>
      </trkpt>
      <trkpt lat="50.22017" lon="4.81376">
        <ele>185.2</ele>
        <time>2025-04-05T08:27:12Z</time>
      </trkpt>
      <trkpt lat="50.22016" lon="4.81381">
        <ele>185.6</ele>
        <time>2025-04-05T08:27:13Z</time>
      </trkpt>
      <trkpt lat="50.22015" lon="4.81384">
        <ele>185.8</ele>
        <time>2025-04-05T08:27:14Z</time>
      </trkpt>
      <trkpt lat="50.22015" lon="4.81387">
        <ele>186</ele>
        <time>2025-04-05T08:27:15Z</time>
      </trkpt>
      <trkpt lat="50.22016" lon="4.81392">
        <ele>186.2</ele>
        <time>2025-04-05T08:27:16Z</time>
      </trkpt>
      <trkpt lat="50.22016" lon="4.81396">
        <ele>186.4</ele>
        <time>2025-04-05T08:27:17Z</time>
      </trkpt>
      <trkpt lat="50.22015" lon="4.81401">
        <ele>186.6</ele>
        <time>2025-04-05T08:27:18Z</time>
      </trkpt>
      <trkpt lat="50.22014" lon="4.81407">
        <ele>186.8</ele>
        <time>2025-04-05T08:27:19Z</time>
      </trkpt>
      <trkpt lat="50.22012" lon="4.81411">
        <ele>187</ele>
        <time>2025-04-05T08:27:20Z</time>
      </trkpt>
      <trkpt lat="50.22011" lon="4.81415">
        <ele>187.2</ele>
        <time>2025-04-05T08:27:21Z</time>
      </trkpt>
      <trkpt lat="50.22009" lon="4.81419">
        <ele>187.4</ele>
        <time>2025-04-05T08:27:22Z</time>
      </trkpt>
      <trkpt lat="50.22009" lon="4.81423">
        <ele>187.6</ele>
        <time>2025-04-05T08:27:23Z</time>
      </trkpt>
      <trkpt lat="50.2201" lon="4.81427">
        <ele>187.8</ele>
        <time>2025-04-05T08:27:24Z</time>
      </trkpt>
      <trkpt lat="50.2201" lon="4.81431">
        <ele>188</ele>
        <time>2025-04-05T08:27:25Z</time>
      </trkpt>
      <trkpt lat="50.2201" lon="4.81434">
        <ele>188.2</ele>
        <time>2025-04-05T08:27:26Z</time>
      </trkpt>
      <trkpt lat="50.22009" lon="4.81438">
        <ele>188.4</ele>
        <time>2025-04-05T08:27:27Z</time>
      </trkpt>
      <trkpt lat="50.22007" lon="4.81442">
        <ele>188.6</ele>
        <time>2025-04-05T08:27:28Z</time>
      </trkpt>
      <trkpt lat="50.22007" lon="4.81446">
        <ele>188.8</ele>
        <time>2025-04-05T08:27:29Z</time>
      </trkpt>
      <trkpt lat="50.22006" lon="4.8145">
        <ele>189.2</ele>
        <time>2025-04-05T08:27:30Z</time>
      </trkpt>
      <trkpt lat="50.22005" lon="4.81453">
        <ele>189.4</ele>
        <time>2025-04-05T08:27:31Z</time>
      </trkpt>
      <trkpt lat="50.22004" lon="4.81457">
        <ele>189.6</ele>
        <time>2025-04-05T08:27:32Z</time>
      </trkpt>
      <trkpt lat="50.22003" lon="4.8146">
        <ele>189.8</ele>
        <time>2025-04-05T08:27:33Z</time>
      </trkpt>
      <trkpt lat="50.22002" lon="4.81464">
        <ele>190</ele>
        <time>2025-04-05T08:27:34Z</time>
      </trkpt>
      <trkpt lat="50.22001" lon="4.81469">
        <ele>190.2</ele>
        <time>2025-04-05T08:27:35Z</time>
      </trkpt>
      <trkpt lat="50.22001" lon="4.81473">
        <ele>190.4</ele>
        <time>2025-04-05T08:27:36Z</time>
      </trkpt>
      <trkpt lat="50.22" lon="4.81478">
        <ele>190.6</ele>
        <time>2025-04-05T08:27:37Z</time>
      </trkpt>
      <trkpt lat="50.21999" lon="4.81482">
        <ele>190.8</ele>
        <time>2025-04-05T08:27:38Z</time>
      </trkpt>
      <trkpt lat="50.21998" lon="4.81486">
        <ele>191</ele>
        <time>2025-04-05T08:27:39Z</time>
      </trkpt>
      <trkpt lat="50.21998" lon="4.8149">
        <ele>191.2</ele>
        <time>2025-04-05T08:27:40Z</time>
      </trkpt>
      <trkpt lat="50.21998" lon="4.81494">
        <ele>191.4</ele>
        <time>2025-04-05T08:27:41Z</time>
      </trkpt>
      <trkpt lat="50.21997" lon="4.81498">
        <ele>191.4</ele>
        <time>2025-04-05T08:27:42Z</time>
      </trkpt>
      <trkpt lat="50.21997" lon="4.81502">
        <ele>191.6</ele>
        <time>2025-04-05T08:27:43Z</time>
      </trkpt>
      <trkpt lat="50.21996" lon="4.81506">
        <ele>191.8</ele>
        <time>2025-04-05T08:27:44Z</time>
      </trkpt>
      <trkpt lat="50.21995" lon="4.8151">
        <ele>192</ele>
        <time>2025-04-05T08:27:45Z</time>
      </trkpt>
      <trkpt lat="50.21994" lon="4.81513">
        <ele>192.2</ele>
        <time>2025-04-05T08:27:46Z</time>
      </trkpt>
      <trkpt lat="50.21994" lon="4.81517">
        <ele>192.4</ele>
        <time>2025-04-05T08:27:47Z</time>
      </trkpt>
      <trkpt lat="50.21994" lon="4.81521">
        <ele>192.6</ele>
        <time>2025-04-05T08:27:48Z</time>
      </trkpt>
      <trkpt lat="50.21993" lon="4.81525">
        <ele>192.8</ele>
        <time>2025-04-05T08:27:49Z</time>
      </trkpt>
      <trkpt lat="50.21991" lon="4.81528">
        <ele>193</ele>
        <time>2025-04-05T08:27:50Z</time>
      </trkpt>
      <trkpt lat="50.21991" lon="4.81532">
        <ele>193.2</ele>
        <time>2025-04-05T08:27:51Z</time>
      </trkpt>
      <trkpt lat="50.2199" lon="4.81537">
        <ele>193.4</ele>
        <time>2025-04-05T08:27:52Z</time>
      </trkpt>
      <trkpt lat="50.2199" lon="4.81541">
        <ele>193.6</ele>
        <time>2025-04-05T08:27:53Z</time>
      </trkpt>
      <trkpt lat="50.2199" lon="4.81545">
        <ele>193.8</ele>
        <time>2025-04-05T08:27:54Z</time>
      </trkpt>
      <trkpt lat="50.21989" lon="4.81549">
        <ele>194.2</ele>
        <time>2025-04-05T08:27:55Z</time>
      </trkpt>
      <trkpt lat="50.21989" lon="4.81553">
        <ele>194.4</ele>
        <time>2025-04-05T08:27:56Z</time>
      </trkpt>
      <trkpt lat="50.21988" lon="4.81557">
        <ele>194.6</ele>
        <time>2025-04-05T08:27:57Z</time>
      </trkpt>
      <trkpt lat="50.21988" lon="4.81561">
        <ele>194.8</ele>
        <time>2025-04-05T08:27:58Z</time>
      </trkpt>
      <trkpt lat="50.21988" lon="4.81565">
        <ele>195</ele>
        <time>2025-04-05T08:27:59Z</time>
      </trkpt>
      <trkpt lat="50.21987" lon="4.81569">
        <ele>195.2</ele>
        <time>2025-04-05T08:28:00Z</time>
      </trkpt>
      <trkpt lat="50.21987" lon="4.81573">
        <ele>195.4</ele>
        <time>2025-04-05T08:28:01Z</time>
      </trkpt>
      <trkpt lat="50.21987" lon="4.81577">
        <ele>195.6</ele>
        <time>2025-04-05T08:28:02Z</time>
      </trkpt>
      <trkpt lat="50.21986" lon="4.81581">
        <ele>195.8</ele>
        <time>2025-04-05T08:28:03Z</time>
      </trkpt>
      <trkpt lat="50.21986" lon="4.81585">
        <ele>196</ele>
        <time>2025-04-05T08:28:04Z</time>
      </trkpt>
      <trkpt lat="50.21985" lon="4.81589">
        <ele>196.2</ele>
        <time>2025-04-05T08:28:05Z</time>
      </trkpt>
      <trkpt lat="50.21985" lon="4.81594">
        <ele>196.4</ele>
        <time>2025-04-05T08:28:06Z</time>
      </trkpt>
      <trkpt lat="50.21986" lon="4.81598">
        <ele>196.6</ele>
        <time>2025-04-05T08:28:07Z</time>
      </trkpt>
      <trkpt lat="50.21986" lon="4.81602">
        <ele>196.6</ele>
        <time>2025-04-05T08:28:08Z</time>
      </trkpt>
      <trkpt lat="50.21985" lon="4.81606">
        <ele>196.8</ele>
        <time>2025-04-05T08:28:09Z</time>
      </trkpt>
      <trkpt lat="50.21985" lon="4.8161">
        <ele>197</ele>
        <time>2025-04-05T08:28:10Z</time>
      </trkpt>
      <trkpt lat="50.21985" lon="4.81614">
        <ele>197.2</ele>
        <time>2025-04-05T08:28:11Z</time>
      </trkpt>
      <trkpt lat="50.21984" lon="4.81619">
        <ele>197.4</ele>
        <time>2025-04-05T08:28:12Z</time>
      </trkpt>
      <trkpt lat="50.21983" lon="4.81623">
        <ele>197.4</ele>
        <time>2025-04-05T08:28:13Z</time>
      </trkpt>
      <trkpt lat="50.21983" lon="4.81628">
        <ele>197.6</ele>
        <time>2025-04-05T08:28:14Z</time>
      </trkpt>
      <trkpt lat="50.21983" lon="4.81632">
        <ele>197.6</ele>
        <time>2025-04-05T08:28:15Z</time>
      </trkpt>
      <trkpt lat="50.21983" lon="4.81636">
        <ele>197.8</ele>
        <time>2025-04-05T08:28:16Z</time>
      </trkpt>
      <trkpt lat="50.21983" lon="4.8164">
        <ele>198</ele>
        <time>2025-04-05T08:28:17Z</time>
      </trkpt>
      <trkpt lat="50.21983" lon="4.81644">
        <ele>198</ele>
        <time>2025-04-05T08:28:18Z</time>
      </trkpt>
      <trkpt lat="50.21982" lon="4.81649">
        <ele>198.2</ele>
        <time>2025-04-05T08:28:19Z</time>
      </trkpt>
      <trkpt lat="50.21982" lon="4.81653">
        <ele>198.4</ele>
        <time>2025-04-05T08:28:20Z</time>
      </trkpt>
      <trkpt lat="50.21981" lon="4.81657">
        <ele>198.6</ele>
        <time>2025-04-05T08:28:21Z</time>
      </trkpt>
      <trkpt lat="50.2198" lon="4.81663">
        <ele>198.6</ele>
        <time>2025-04-05T08:28:22Z</time>
      </trkpt>
      <trkpt lat="50.21979" lon="4.81668">
        <ele>198.8</ele>
        <time>2025-04-05T08:28:23Z</time>
      </trkpt>
      <trkpt lat="50.21978" lon="4.81672">
        <ele>198.8</ele>
        <time>2025-04-05T08:28:24Z</time>
      </trkpt>
      <trkpt lat="50.21977" lon="4.81678">
        <ele>199</ele>
        <time>2025-04-05T08:28:25Z</time>
      </trkpt>
      <trkpt lat="50.21975" lon="4.81683">
        <ele>199</ele>
        <time>2025-04-05T08:28:26Z</time>
      </trkpt>
      <trkpt lat="50.21975" lon="4.81688">
        <ele>199.2</ele>
        <time>2025-04-05T08:28:27Z</time>
      </trkpt>
      <trkpt lat="50.21973" lon="4.81692">
        <ele>199.4</ele>
        <time>2025-04-05T08:28:28Z</time>
      </trkpt>
      <trkpt lat="50.21972" lon="4.81697">
        <ele>199.4</ele>
        <time>2025-04-05T08:28:29Z</time>
      </trkpt>
      <trkpt lat="50.21971" lon="4.81702">
        <ele>199.6</ele>
        <time>2025-04-05T08:28:30Z</time>
      </trkpt>
      <trkpt lat="50.21969" lon="4.81706">
        <ele>199.6</ele>
        <time>2025-04-05T08:28:31Z</time>
      </trkpt>
      <trkpt lat="50.21968" lon="4.8171">
        <ele>199.8</ele>
        <time>2025-04-05T08:28:32Z</time>
      </trkpt>
      <trkpt lat="50.21966" lon="4.81715">
        <ele>199.8</ele>
        <time>2025-04-05T08:28:33Z</time>
      </trkpt>
      <trkpt lat="50.21964" lon="4.81719">
        <ele>200</ele>
        <time>2025-04-05T08:28:34Z</time>
      </trkpt>
      <trkpt lat="50.21963" lon="4.81722">
        <ele>200.2</ele>
        <time>2025-04-05T08:28:35Z</time>
      </trkpt>
      <trkpt lat="50.21961" lon="4.81726">
        <ele>200.2</ele>
        <time>2025-04-05T08:28:36Z</time>
      </trkpt>
      <trkpt lat="50.21959" lon="4.81729">
        <ele>200.4</ele>
        <time>2025-04-05T08:28:37Z</time>
      </trkpt>
      <trkpt lat="50.21957" lon="4.81733">
        <ele>200.4</ele>
        <time>2025-04-05T08:28:38Z</time>
      </trkpt>
      <trkpt lat="50.21955" lon="4.81736">
        <ele>200.6</ele>
        <time>2025-04-05T08:28:39Z</time>
      </trkpt>
      <trkpt lat="50.21953" lon="4.8174">
        <ele>200.6</ele>
        <time>2025-04-05T08:28:40Z</time>
      </trkpt>
      <trkpt lat="50.21951" lon="4.81743">
        <ele>200.8</ele>
        <time>2025-04-05T08:28:41Z</time>
      </trkpt>
      <trkpt lat="50.21949" lon="4.81746">
        <ele>201</ele>
        <time>2025-04-05T08:28:42Z</time>
      </trkpt>
      <trkpt lat="50.21948" lon="4.81749">
        <ele>201</ele>
        <time>2025-04-05T08:28:43Z</time>
      </trkpt>
      <trkpt lat="50.21945" lon="4.81753">
        <ele>201.2</ele>
        <time>2025-04-05T08:28:44Z</time>
      </trkpt>
      <trkpt lat="50.21942" lon="4.81757">
        <ele>201.4</ele>
        <time>2025-04-05T08:28:45Z</time>
      </trkpt>
      <trkpt lat="50.2194" lon="4.8176">
        <ele>201.6</ele>
        <time>2025-04-05T08:28:46Z</time>
      </trkpt>
      <trkpt lat="50.21937" lon="4.81763">
        <ele>201.6</ele>
        <time>2025-04-05T08:28:47Z</time>
      </trkpt>
      <trkpt lat="50.21934" lon="4.81766">
        <ele>201.8</ele>
        <time>2025-04-05T08:28:48Z</time>
      </trkpt>
      <trkpt lat="50.21932" lon="4.81768">
        <ele>202</ele>
        <time>2025-04-05T08:28:49Z</time>
      </trkpt>
      <trkpt lat="50.2193" lon="4.81771">
        <ele>202.2</ele>
        <time>2025-04-05T08:28:50Z</time>
      </trkpt>
      <trkpt lat="50.21928" lon="4.81773">
        <ele>202.4</ele>
        <time>2025-04-05T08:28:51Z</time>
      </trkpt>
      <trkpt lat="50.21925" lon="4.81776">
        <ele>202.6</ele>
        <time>2025-04-05T08:28:52Z</time>
      </trkpt>
      <trkpt lat="50.21923" lon="4.81778">
        <ele>202.8</ele>
        <time>2025-04-05T08:28:53Z</time>
      </trkpt>
      <trkpt lat="50.2192" lon="4.8178">
        <ele>202.8</ele>
        <time>2025-04-05T08:28:54Z</time>
      </trkpt>
      <trkpt lat="50.21917" lon="4.81782">
        <ele>203</ele>
        <time>2025-04-05T08:28:55Z</time>
      </trkpt>
      <trkpt lat="50.21915" lon="4.81784">
        <ele>203.2</ele>
        <time>2025-04-05T08:28:56Z</time>
      </trkpt>
      <trkpt lat="50.21912" lon="4.81786">
        <ele>203.4</ele>
        <time>2025-04-05T08:28:57Z</time>
      </trkpt>
      <trkpt lat="50.21909" lon="4.81788">
        <ele>203.6</ele>
        <time>2025-04-05T08:28:58Z</time>
      </trkpt>
      <trkpt lat="50.21907" lon="4.8179">
        <ele>203.8</ele>
        <time>2025-04-05T08:28:59Z</time>
      </trkpt>
      <trkpt lat="50.21904" lon="4.81791">
        <ele>204</ele>
        <time>2025-04-05T08:29:00Z</time>
      </trkpt>
      <trkpt lat="50.21901" lon="4.81791">
        <ele>204.2</ele>
        <time>2025-04-05T08:29:01Z</time>
      </trkpt>
      <trkpt lat="50.21898" lon="4.81792">
        <ele>204.4</ele>
        <time>2025-04-05T08:29:02Z</time>
      </trkpt>
      <trkpt lat="50.21895" lon="4.81792">
        <ele>204.8</ele>
        <time>2025-04-05T08:29:03Z</time>
      </trkpt>
      <trkpt lat="50.21893" lon="4.81792">
        <ele>205</ele>
        <time>2025-04-05T08:29:04Z</time>
      </trkpt>
      <trkpt lat="50.2189" lon="4.81793">
        <ele>205.2</ele>
        <time>2025-04-05T08:29:05Z</time>
      </trkpt>
      <trkpt lat="50.21887" lon="4.81792">
        <ele>205.4</ele>
        <time>2025-04-05T08:29:06Z</time>
      </trkpt>
      <trkpt lat="50.21884" lon="4.81792">
        <ele>205.6</ele>
        <time>2025-04-05T08:29:07Z</time>
      </trkpt>
      <trkpt lat="50.21881" lon="4.81791">
        <ele>205.8</ele>
        <time>2025-04-05T08:29:08Z</time>
      </trkpt>
      <trkpt lat="50.21878" lon="4.81791">
        <ele>206.2</ele>
        <time>2025-04-05T08:29:09Z</time>
      </trkpt>
      <trkpt lat="50.21875" lon="4.81791">
        <ele>206.4</ele>
        <time>2025-04-05T08:29:10Z</time>
      </trkpt>
      <trkpt lat="50.21872" lon="4.8179">
        <ele>206.6</ele>
        <time>2025-04-05T08:29:11Z</time>
      </trkpt>
      <trkpt lat="50.2187" lon="4.8179">
        <ele>206.8</ele>
        <time>2025-04-05T08:29:12Z</time>
      </trkpt>
      <trkpt lat="50.21867" lon="4.81789">
        <ele>207.2</ele>
        <time>2025-04-05T08:29:13Z</time>
      </trkpt>
      <trkpt lat="50.21864" lon="4.81789">
        <ele>207.4</ele>
        <time>2025-04-05T08:29:14Z</time>
      </trkpt>
      <trkpt lat="50.21861" lon="4.81789">
        <ele>207.6</ele>
        <time>2025-04-05T08:29:15Z</time>
      </trkpt>
      <trkpt lat="50.21859" lon="4.81788">
        <ele>207.8</ele>
        <time>2025-04-05T08:29:16Z</time>
      </trkpt>
      <trkpt lat="50.21856" lon="4.81788">
        <ele>208</ele>
        <time>2025-04-05T08:29:17Z</time>
      </trkpt>
      <trkpt lat="50.21853" lon="4.81788">
        <ele>208.2</ele>
        <time>2025-04-05T08:29:18Z</time>
      </trkpt>
      <trkpt lat="50.2185" lon="4.81788">
        <ele>208.6</ele>
        <time>2025-04-05T08:29:19Z</time>
      </trkpt>
      <trkpt lat="50.21848" lon="4.81787">
        <ele>208.8</ele>
        <time>2025-04-05T08:29:20Z</time>
      </trkpt>
      <trkpt lat="50.21845" lon="4.81787">
        <ele>209</ele>
        <time>2025-04-05T08:29:21Z</time>
      </trkpt>
      <trkpt lat="50.21842" lon="4.81787">
        <ele>209.2</ele>
        <time>2025-04-05T08:29:22Z</time>
      </trkpt>
      <trkpt lat="50.2184" lon="4.81787">
        <ele>209.4</ele>
        <time>2025-04-05T08:29:23Z</time>
      </trkpt>
      <trkpt lat="50.21836" lon="4.81786">
        <ele>209.6</ele>
        <time>2025-04-05T08:29:24Z</time>
      </trkpt>
      <trkpt lat="50.21833" lon="4.81786">
        <ele>209.8</ele>
        <time>2025-04-05T08:29:25Z</time>
      </trkpt>
      <trkpt lat="50.21831" lon="4.81786">
        <ele>210.2</ele>
        <time>2025-04-05T08:29:26Z</time>
      </trkpt>
      <trkpt lat="50.21828" lon="4.81785">
        <ele>210.4</ele>
        <time>2025-04-05T08:29:27Z</time>
      </trkpt>
      <trkpt lat="50.21825" lon="4.81785">
        <ele>210.6</ele>
        <time>2025-04-05T08:29:28Z</time>
      </trkpt>
      <trkpt lat="50.21823" lon="4.81785">
        <ele>210.8</ele>
        <time>2025-04-05T08:29:29Z</time>
      </trkpt>
      <trkpt lat="50.2182" lon="4.81784">
        <ele>211</ele>
        <time>2025-04-05T08:29:30Z</time>
      </trkpt>
      <trkpt lat="50.21817" lon="4.81783">
        <ele>211</ele>
        <time>2025-04-05T08:29:31Z</time>
      </trkpt>
      <trkpt lat="50.21815" lon="4.81783">
        <ele>211.2</ele>
        <time>2025-04-05T08:29:32Z</time>
      </trkpt>
      <trkpt lat="50.21812" lon="4.81782">
        <ele>211.4</ele>
        <time>2025-04-05T08:29:33Z</time>
      </trkpt>
      <trkpt lat="50.21809" lon="4.81781">
        <ele>211.6</ele>
        <time>2025-04-05T08:29:34Z</time>
      </trkpt>
      <trkpt lat="50.21807" lon="4.81781">
        <ele>211.8</ele>
        <time>2025-04-05T08:29:35Z</time>
      </trkpt>
      <trkpt lat="50.21804" lon="4.8178">
        <ele>212</ele>
        <time>2025-04-05T08:29:36Z</time>
      </trkpt>
      <trkpt lat="50.21801" lon="4.81779">
        <ele>212.2</ele>
        <time>2025-04-05T08:29:37Z</time>
      </trkpt>
      <trkpt lat="50.21799" lon="4.81778">
        <ele>212.4</ele>
        <time>2025-04-05T08:29:38Z</time>
      </trkpt>
      <trkpt lat="50.21796" lon="4.81778">
        <ele>212.6</ele>
        <time>2025-04-05T08:29:39Z</time>
      </trkpt>
      <trkpt lat="50.21794" lon="4.81777">
        <ele>212.8</ele>
        <time>2025-04-05T08:29:40Z</time>
      </trkpt>
      <trkpt lat="50.21792" lon="4.81776">
        <ele>213</ele>
        <time>2025-04-05T08:29:41Z</time>
      </trkpt>
      <trkpt lat="50.21789" lon="4.81775">
        <ele>213.2</ele>
        <time>2025-04-05T08:29:42Z</time>
      </trkpt>
      <trkpt lat="50.21787" lon="4.81774">
        <ele>213.2</ele>
        <time>2025-04-05T08:29:43Z</time>
      </trkpt>
      <trkpt lat="50.21784" lon="4.81772">
        <ele>213.4</ele>
        <time>2025-04-05T08:29:44Z</time>
      </trkpt>
      <trkpt lat="50.21782" lon="4.81772">
        <ele>213.6</ele>
        <time>2025-04-05T08:29:45Z</time>
      </trkpt>
      <trkpt lat="50.21779" lon="4.81771">
        <ele>213.8</ele>
        <time>2025-04-05T08:29:46Z</time>
      </trkpt>
      <trkpt lat="50.21777" lon="4.8177">
        <ele>214</ele>
        <time>2025-04-05T08:29:47Z</time>
      </trkpt>
      <trkpt lat="50.21774" lon="4.81769">
        <ele>214.2</ele>
        <time>2025-04-05T08:29:48Z</time>
      </trkpt>
      <trkpt lat="50.21772" lon="4.81768">
        <ele>214.4</ele>
        <time>2025-04-05T08:29:49Z</time>
      </trkpt>
      <trkpt lat="50.21769" lon="4.81767">
        <ele>214.6</ele>
        <time>2025-04-05T08:29:50Z</time>
      </trkpt>
      <trkpt lat="50.21767" lon="4.81766">
        <ele>214.8</ele>
        <time>2025-04-05T08:29:51Z</time>
      </trkpt>
      <trkpt lat="50.21764" lon="4.81765">
        <ele>215</ele>
        <time>2025-04-05T08:29:52Z</time>
      </trkpt>
      <trkpt lat="50.21762" lon="4.81764">
        <ele>215.2</ele>
        <time>2025-04-05T08:29:53Z</time>
      </trkpt>
      <trkpt lat="50.2176" lon="4.81763">
        <ele>215.4</ele>
        <time>2025-04-05T08:29:54Z</time>
      </trkpt>
      <trkpt lat="50.21757" lon="4.81762">
        <ele>215.6</ele>
        <time>2025-04-05T08:29:55Z</time>
      </trkpt>
      <trkpt lat="50.21755" lon="4.8176">
        <ele>215.8</ele>
        <time>2025-04-05T08:29:56Z</time>
      </trkpt>
      <trkpt lat="50.21752" lon="4.8176">
        <ele>215.8</ele>
        <time>2025-04-05T08:29:57Z</time>
      </trkpt>
      <trkpt lat="50.21749" lon="4.81759">
        <ele>216</ele>
        <time>2025-04-05T08:29:58Z</time>
      </trkpt>
      <trkpt lat="50.21746" lon="4.81758">
        <ele>216.2</ele>
        <time>2025-04-05T08:29:59Z</time>
      </trkpt>
      <trkpt lat="50.21743" lon="4.81757">
        <ele>216.2</ele>
        <time>2025-04-05T08:30:00Z</time>
      </trkpt>
      <trkpt lat="50.2174" lon="4.81757">
        <ele>216.2</ele>
        <time>2025-04-05T08:30:01Z</time>
      </trkpt>
      <trkpt lat="50.21737" lon="4.81756">
        <ele>216.4</ele>
        <time>2025-04-05T08:30:02Z</time>
      </trkpt>
      <trkpt lat="50.21734" lon="4.81755">
        <ele>216.4</ele>
        <time>2025-04-05T08:30:03Z</time>
      </trkpt>
      <trkpt lat="50.21731" lon="4.81754">
        <ele>216.4</ele>
        <time>2025-04-05T08:30:04Z</time>
      </trkpt>
      <trkpt lat="50.21727" lon="4.81753">
        <ele>216.4</ele>
        <time>2025-04-05T08:30:05Z</time>
      </trkpt>
      <trkpt lat="50.21724" lon="4.81752">
        <ele>216.4</ele>
        <time>2025-04-05T08:30:06Z</time>
      </trkpt>
      <trkpt lat="50.21721" lon="4.81751">
        <ele>216.4</ele>
        <time>2025-04-05T08:30:07Z</time>
      </trkpt>
      <trkpt lat="50.21717" lon="4.8175">
        <ele>216.4</ele>
        <time>2025-04-05T08:30:08Z</time>
      </trkpt>
      <trkpt lat="50.21714" lon="4.81749">
        <ele>216.4</ele>
        <time>2025-04-05T08:30:09Z</time>
      </trkpt>
      <trkpt lat="50.2171" lon="4.81748">
        <ele>216.4</ele>
        <time>2025-04-05T08:30:10Z</time>
      </trkpt>
      <trkpt lat="50.21707" lon="4.81748">
        <ele>216.2</ele>
        <time>2025-04-05T08:30:11Z</time>
      </trkpt>
      <trkpt lat="50.21704" lon="4.81748">
        <ele>216.2</ele>
        <time>2025-04-05T08:30:12Z</time>
      </trkpt>
      <trkpt lat="50.21701" lon="4.81747">
        <ele>216.2</ele>
        <time>2025-04-05T08:30:13Z</time>
      </trkpt>
      <trkpt lat="50.217" lon="4.81747">
        <ele>216.2</ele>
        <time>2025-04-05T08:30:14Z</time>
      </trkpt>
      <trkpt lat="50.21694" lon="4.81749">
        <ele>216</ele>
        <time>2025-04-05T08:30:15Z</time>
      </trkpt>
      <trkpt lat="50.2169" lon="4.81749">
        <ele>216</ele>
        <time>2025-04-05T08:30:16Z</time>
      </trkpt>
      <trkpt lat="50.21686" lon="4.8175">
        <ele>216</ele>
        <time>2025-04-05T08:30:17Z</time>
      </trkpt>
      <trkpt lat="50.21682" lon="4.81751">
        <ele>215.8</ele>
        <time>2025-04-05T08:32:24Z</time>
      </trkpt>
      <trkpt lat="50.21678" lon="4.81752">
        <ele>215.8</ele>
        <time>2025-04-05T08:32:25Z</time>
      </trkpt>
      <trkpt lat="50.21673" lon="4.81752">
        <ele>215.6</ele>
        <time>2025-04-05T08:32:26Z</time>
      </trkpt>
      <trkpt lat="50.21668" lon="4.81752">
        <ele>215.4</ele>
        <time>2025-04-05T08:32:27Z</time>
      </trkpt>
      <trkpt lat="50.21663" lon="4.81751">
        <ele>215.4</ele>
        <time>2025-04-05T08:32:28Z</time>
      </trkpt>
      <trkpt lat="50.21658" lon="4.81749">
        <ele>215</ele>
        <time>2025-04-05T08:32:29Z</time>
      </trkpt>
      <trkpt lat="50.21653" lon="4.81747">
        <ele>214.8</ele>
        <time>2025-04-05T08:32:30Z</time>
      </trkpt>
      <trkpt lat="50.21647" lon="4.81741">
        <ele>214.6</ele>
        <time>2025-04-05T08:32:31Z</time>
      </trkpt>
      <trkpt lat="50.21642" lon="4.81734">
        <ele>214.4</ele>
        <time>2025-04-05T08:32:32Z</time>
      </trkpt>
      <trkpt lat="50.2164" lon="4.81728">
        <ele>214.2</ele>
        <time>2025-04-05T08:32:33Z</time>
      </trkpt>
      <trkpt lat="50.21639" lon="4.81718">
        <ele>214.2</ele>
        <time>2025-04-05T08:32:34Z</time>
      </trkpt>
      <trkpt lat="50.21638" lon="4.81709">
        <ele>214</ele>
        <time>2025-04-05T08:32:35Z</time>
      </trkpt>
      <trkpt lat="50.21639" lon="4.81702">
        <ele>214</ele>
        <time>2025-04-05T08:32:36Z</time>
      </trkpt>
      <trkpt lat="50.21639" lon="4.81694">
        <ele>214.2</ele>
        <time>2025-04-05T08:32:37Z</time>
      </trkpt>
      <trkpt lat="50.21639" lon="4.81688">
        <ele>214.4</ele>
        <time>2025-04-05T08:32:38Z</time>
      </trkpt>
      <trkpt lat="50.2164" lon="4.81681">
        <ele>214.6</ele>
        <time>2025-04-05T08:32:39Z</time>
      </trkpt>
      <trkpt lat="50.2164" lon="4.81674">
        <ele>214.8</ele>
        <time>2025-04-05T08:32:40Z</time>
      </trkpt>
      <trkpt lat="50.21641" lon="4.81666">
        <ele>215</ele>
        <time>2025-04-05T08:32:41Z</time>
      </trkpt>
      <trkpt lat="50.21641" lon="4.8166">
        <ele>215.2</ele>
        <time>2025-04-05T08:32:42Z</time>
      </trkpt>
      <trkpt lat="50.21641" lon="4.81653">
        <ele>215.4</ele>
        <time>2025-04-05T08:32:43Z</time>
      </trkpt>
      <trkpt lat="50.21641" lon="4.81646">
        <ele>215.6</ele>
        <time>2025-04-05T08:32:44Z</time>
      </trkpt>
      <trkpt lat="50.21641" lon="4.81638">
        <ele>215.8</ele>
        <time>2025-04-05T08:32:45Z</time>
      </trkpt>
      <trkpt lat="50.2164" lon="4.81631">
        <ele>216</ele>
        <time>2025-04-05T08:32:46Z</time>
      </trkpt>
      <trkpt lat="50.21639" lon="4.81626">
        <ele>216.2</ele>
        <time>2025-04-05T08:32:47Z</time>
      </trkpt>
      <trkpt lat="50.21638" lon="4.81618">
        <ele>216.4</ele>
        <time>2025-04-05T08:32:48Z</time>
      </trkpt>
      <trkpt lat="50.21636" lon="4.81612">
        <ele>216.6</ele>
        <time>2025-04-05T08:32:49Z</time>
      </trkpt>
      <trkpt lat="50.21635" lon="4.81606">
        <ele>217</ele>
        <time>2025-04-05T08:32:50Z</time>
      </trkpt>
      <trkpt lat="50.21634" lon="4.816">
        <ele>217.2</ele>
        <time>2025-04-05T08:32:51Z</time>
      </trkpt>
      <trkpt lat="50.21633" lon="4.81595">
        <ele>217.4</ele>
        <time>2025-04-05T08:32:52Z</time>
      </trkpt>
      <trkpt lat="50.21632" lon="4.81589">
        <ele>217.6</ele>
        <time>2025-04-05T08:32:53Z</time>
      </trkpt>
      <trkpt lat="50.21629" lon="4.81583">
        <ele>217.8</ele>
        <time>2025-04-05T08:32:54Z</time>
      </trkpt>
      <trkpt lat="50.21628" lon="4.81578">
        <ele>218</ele>
        <time>2025-04-05T08:32:55Z</time>
      </trkpt>
      <trkpt lat="50.21627" lon="4.81574">
        <ele>218.2</ele>
        <time>2025-04-05T08:32:56Z</time>
      </trkpt>
      <trkpt lat="50.21624" lon="4.81568">
        <ele>218.4</ele>
        <time>2025-04-05T08:32:57Z</time>
      </trkpt>
      <trkpt lat="50.21622" lon="4.81561">
        <ele>218.4</ele>
        <time>2025-04-05T08:32:58Z</time>
      </trkpt>
      <trkpt lat="50.2162" lon="4.81555">
        <ele>218.6</ele>
        <time>2025-04-05T08:32:59Z</time>
      </trkpt>
      <trkpt lat="50.21619" lon="4.81549">
        <ele>218.8</ele>
        <time>2025-04-05T08:33:00Z</time>
      </trkpt>
      <trkpt lat="50.21618" lon="4.81543">
        <ele>219.2</ele>
        <time>2025-04-05T08:33:01Z</time>
      </trkpt>
      <trkpt lat="50.21618" lon="4.81537">
        <ele>219.4</ele>
        <time>2025-04-05T08:33:02Z</time>
      </trkpt>
      <trkpt lat="50.21618" lon="4.81531">
        <ele>219.8</ele>
        <time>2025-04-05T08:33:03Z</time>
      </trkpt>
      <trkpt lat="50.21619" lon="4.81525">
        <ele>220</ele>
        <time>2025-04-05T08:33:04Z</time>
      </trkpt>
      <trkpt lat="50.21619" lon="4.81521">
        <ele>220.4</ele>
        <time>2025-04-05T08:33:05Z</time>
      </trkpt>
      <trkpt lat="50.21621" lon="4.81514">
        <ele>220.8</ele>
        <time>2025-04-05T08:33:06Z</time>
      </trkpt>
      <trkpt lat="50.21622" lon="4.81509">
        <ele>221.2</ele>
        <time>2025-04-05T08:33:07Z</time>
      </trkpt>
      <trkpt lat="50.21623" lon="4.81504">
        <ele>221.4</ele>
        <time>2025-04-05T08:33:08Z</time>
      </trkpt>
      <trkpt lat="50.21624" lon="4.81499">
        <ele>221.8</ele>
        <time>2025-04-05T08:33:09Z</time>
      </trkpt>
      <trkpt lat="50.21626" lon="4.81494">
        <ele>222</ele>
        <time>2025-04-05T08:33:10Z</time>
      </trkpt>
      <trkpt lat="50.21627" lon="4.81489">
        <ele>222.4</ele>
        <time>2025-04-05T08:33:11Z</time>
      </trkpt>
      <trkpt lat="50.21627" lon="4.81484">
        <ele>222.6</ele>
        <time>2025-04-05T08:33:12Z</time>
      </trkpt>
      <trkpt lat="50.21628" lon="4.81481">
        <ele>222.8</ele>
        <time>2025-04-05T08:33:13Z</time>
      </trkpt>
      <trkpt lat="50.2163" lon="4.81474">
        <ele>223</ele>
        <time>2025-04-05T08:33:14Z</time>
      </trkpt>
      <trkpt lat="50.2163" lon="4.81469">
        <ele>223.4</ele>
        <time>2025-04-05T08:33:15Z</time>
      </trkpt>
      <trkpt lat="50.2163" lon="4.81464">
        <ele>223.6</ele>
        <time>2025-04-05T08:33:16Z</time>
      </trkpt>
      <trkpt lat="50.21631" lon="4.81459">
        <ele>223.8</ele>
        <time>2025-04-05T08:33:17Z</time>
      </trkpt>
      <trkpt lat="50.21629" lon="4.81454">
        <ele>224</ele>
        <time>2025-04-05T08:33:18Z</time>
      </trkpt>
      <trkpt lat="50.21628" lon="4.81448">
        <ele>224.2</ele>
        <time>2025-04-05T08:33:19Z</time>
      </trkpt>
      <trkpt lat="50.21628" lon="4.81443">
        <ele>224.2</ele>
        <time>2025-04-05T08:33:20Z</time>
      </trkpt>
      <trkpt lat="50.21626" lon="4.81438">
        <ele>224.4</ele>
        <time>2025-04-05T08:33:21Z</time>
      </trkpt>
      <trkpt lat="50.21625" lon="4.81432">
        <ele>224.6</ele>
        <time>2025-04-05T08:33:22Z</time>
      </trkpt>
      <trkpt lat="50.21623" lon="4.81427">
        <ele>224.8</ele>
        <time>2025-04-05T08:33:23Z</time>
      </trkpt>
      <trkpt lat="50.21621" lon="4.81421">
        <ele>224.8</ele>
        <time>2025-04-05T08:33:24Z</time>
      </trkpt>
      <trkpt lat="50.2162" lon="4.81413">
        <ele>224.8</ele>
        <time>2025-04-05T08:33:25Z</time>
      </trkpt>
      <trkpt lat="50.21618" lon="4.81407">
        <ele>225</ele>
        <time>2025-04-05T08:33:26Z</time>
      </trkpt>
      <trkpt lat="50.21616" lon="4.81402">
        <ele>225</ele>
        <time>2025-04-05T08:33:27Z</time>
      </trkpt>
      <trkpt lat="50.21614" lon="4.81394">
        <ele>225</ele>
        <time>2025-04-05T08:33:28Z</time>
      </trkpt>
      <trkpt lat="50.21613" lon="4.81389">
        <ele>225</ele>
        <time>2025-04-05T08:33:29Z</time>
      </trkpt>
      <trkpt lat="50.21611" lon="4.81383">
        <ele>225.2</ele>
        <time>2025-04-05T08:33:30Z</time>
      </trkpt>
      <trkpt lat="50.21609" lon="4.81377">
        <ele>225.2</ele>
        <time>2025-04-05T08:33:31Z</time>
      </trkpt>
      <trkpt lat="50.21606" lon="4.81369">
        <ele>225.4</ele>
        <time>2025-04-05T08:33:32Z</time>
      </trkpt>
      <trkpt lat="50.21604" lon="4.81363">
        <ele>225.4</ele>
        <time>2025-04-05T08:33:33Z</time>
      </trkpt>
      <trkpt lat="50.21603" lon="4.81358">
        <ele>225.6</ele>
        <time>2025-04-05T08:33:34Z</time>
      </trkpt>
      <trkpt lat="50.216" lon="4.8135">
        <ele>225.6</ele>
        <time>2025-04-05T08:33:35Z</time>
      </trkpt>
      <trkpt lat="50.21599" lon="4.81344">
        <ele>225.6</ele>
        <time>2025-04-05T08:33:36Z</time>
      </trkpt>
      <trkpt lat="50.21596" lon="4.81337">
        <ele>225.8</ele>
        <time>2025-04-05T08:33:37Z</time>
      </trkpt>
      <trkpt lat="50.21594" lon="4.81329">
        <ele>225.8</ele>
        <time>2025-04-05T08:33:38Z</time>
      </trkpt>
      <trkpt lat="50.21594" lon="4.81323">
        <ele>225.8</ele>
        <time>2025-04-05T08:33:39Z</time>
      </trkpt>
      <trkpt lat="50.21594" lon="4.81315">
        <ele>225.8</ele>
        <time>2025-04-05T08:33:40Z</time>
      </trkpt>
      <trkpt lat="50.21592" lon="4.81308">
        <ele>226</ele>
        <time>2025-04-05T08:33:41Z</time>
      </trkpt>
      <trkpt lat="50.21591" lon="4.81299">
        <ele>226</ele>
        <time>2025-04-05T08:33:42Z</time>
      </trkpt>
      <trkpt lat="50.2159" lon="4.81294">
        <ele>226</ele>
        <time>2025-04-05T08:33:43Z</time>
      </trkpt>
      <trkpt lat="50.21589" lon="4.81288">
        <ele>226.2</ele>
        <time>2025-04-05T08:33:44Z</time>
      </trkpt>
      <trkpt lat="50.21587" lon="4.8128">
        <ele>226.2</ele>
        <time>2025-04-05T08:33:45Z</time>
      </trkpt>
      <trkpt lat="50.21586" lon="4.81273">
        <ele>226.2</ele>
        <time>2025-04-05T08:33:46Z</time>
      </trkpt>
      <trkpt lat="50.21585" lon="4.81266">
        <ele>226.2</ele>
        <time>2025-04-05T08:33:47Z</time>
      </trkpt>
      <trkpt lat="50.21583" lon="4.81259">
        <ele>226.2</ele>
        <time>2025-04-05T08:33:48Z</time>
      </trkpt>
      <trkpt lat="50.21583" lon="4.81251">
        <ele>226.2</ele>
        <time>2025-04-05T08:33:49Z</time>
      </trkpt>
      <trkpt lat="50.21581" lon="4.81242">
        <ele>226.2</ele>
        <time>2025-04-05T08:33:50Z</time>
      </trkpt>
      <trkpt lat="50.2158" lon="4.81234">
        <ele>226.4</ele>
        <time>2025-04-05T08:33:51Z</time>
      </trkpt>
      <trkpt lat="50.21578" lon="4.81227">
        <ele>226.4</ele>
        <time>2025-04-05T08:33:52Z</time>
      </trkpt>
      <trkpt lat="50.21577" lon="4.8122">
        <ele>226.4</ele>
        <time>2025-04-05T08:33:53Z</time>
      </trkpt>
      <trkpt lat="50.21576" lon="4.81212">
        <ele>226.4</ele>
        <time>2025-04-05T08:33:54Z</time>
      </trkpt>
      <trkpt lat="50.21574" lon="4.81202">
        <ele>226.4</ele>
        <time>2025-04-05T08:33:55Z</time>
      </trkpt>
      <trkpt lat="50.21573" lon="4.81194">
        <ele>226.4</ele>
        <time>2025-04-05T08:33:56Z</time>
      </trkpt>
      <trkpt lat="50.21572" lon="4.81187">
        <ele>226.4</ele>
        <time>2025-04-05T08:33:57Z</time>
      </trkpt>
      <trkpt lat="50.2157" lon="4.81179">
        <ele>226.4</ele>
        <time>2025-04-05T08:33:58Z</time>
      </trkpt>
      <trkpt lat="50.21569" lon="4.8117">
        <ele>226.4</ele>
        <time>2025-04-05T08:33:59Z</time>
      </trkpt>
      <trkpt lat="50.21568" lon="4.81164">
        <ele>226.6</ele>
        <time>2025-04-05T08:34:00Z</time>
      </trkpt>
      <trkpt lat="50.21567" lon="4.81156">
        <ele>226.6</ele>
        <time>2025-04-05T08:34:01Z</time>
      </trkpt>
      <trkpt lat="50.21566" lon="4.81148">
        <ele>226.6</ele>
        <time>2025-04-05T08:34:02Z</time>
      </trkpt>
      <trkpt lat="50.21565" lon="4.81139">
        <ele>226.6</ele>
        <time>2025-04-05T08:34:03Z</time>
      </trkpt>
      <trkpt lat="50.21565" lon="4.81131">
        <ele>226.6</ele>
        <time>2025-04-05T08:34:04Z</time>
      </trkpt>
      <trkpt lat="50.21565" lon="4.81123">
        <ele>226.8</ele>
        <time>2025-04-05T08:34:05Z</time>
      </trkpt>
      <trkpt lat="50.21564" lon="4.81115">
        <ele>227</ele>
        <time>2025-04-05T08:34:06Z</time>
      </trkpt>
      <trkpt lat="50.21563" lon="4.81107">
        <ele>227.2</ele>
        <time>2025-04-05T08:34:07Z</time>
      </trkpt>
      <trkpt lat="50.21563" lon="4.81099">
        <ele>227.4</ele>
        <time>2025-04-05T08:34:08Z</time>
      </trkpt>
      <trkpt lat="50.21563" lon="4.81091">
        <ele>227.6</ele>
        <time>2025-04-05T08:34:09Z</time>
      </trkpt>
      <trkpt lat="50.21563" lon="4.81082">
        <ele>227.8</ele>
        <time>2025-04-05T08:34:10Z</time>
      </trkpt>
      <trkpt lat="50.21563" lon="4.81074">
        <ele>227.8</ele>
        <time>2025-04-05T08:34:11Z</time>
      </trkpt>
      <trkpt lat="50.21563" lon="4.81068">
        <ele>228</ele>
        <time>2025-04-05T08:34:12Z</time>
      </trkpt>
      <trkpt lat="50.21563" lon="4.81059">
        <ele>228.2</ele>
        <time>2025-04-05T08:34:13Z</time>
      </trkpt>
      <trkpt lat="50.21562" lon="4.81051">
        <ele>228.2</ele>
        <time>2025-04-05T08:34:14Z</time>
      </trkpt>
      <trkpt lat="50.21561" lon="4.81045">
        <ele>228.2</ele>
        <time>2025-04-05T08:34:15Z</time>
      </trkpt>
      <trkpt lat="50.21561" lon="4.81037">
        <ele>228.2</ele>
        <time>2025-04-05T08:34:16Z</time>
      </trkpt>
      <trkpt lat="50.2156" lon="4.81028">
        <ele>228.4</ele>
        <time>2025-04-05T08:34:17Z</time>
      </trkpt>
      <trkpt lat="50.21559" lon="4.8102">
        <ele>228.4</ele>
        <time>2025-04-05T08:34:18Z</time>
      </trkpt>
      <trkpt lat="50.21559" lon="4.8101">
        <ele>228.4</ele>
        <time>2025-04-05T08:34:19Z</time>
      </trkpt>
      <trkpt lat="50.21558" lon="4.81004">
        <ele>228.6</ele>
        <time>2025-04-05T08:34:20Z</time>
      </trkpt>
      <trkpt lat="50.21558" lon="4.80996">
        <ele>228.6</ele>
        <time>2025-04-05T08:34:21Z</time>
      </trkpt>
      <trkpt lat="50.21557" lon="4.80988">
        <ele>228.6</ele>
        <time>2025-04-05T08:34:22Z</time>
      </trkpt>
      <trkpt lat="50.21557" lon="4.80979">
        <ele>228.6</ele>
        <time>2025-04-05T08:34:23Z</time>
      </trkpt>
      <trkpt lat="50.21556" lon="4.80969">
        <ele>228.6</ele>
        <time>2025-04-05T08:34:24Z</time>
      </trkpt>
      <trkpt lat="50.21555" lon="4.80962">
        <ele>228.6</ele>
        <time>2025-04-05T08:34:25Z</time>
      </trkpt>
      <trkpt lat="50.21555" lon="4.80953">
        <ele>228.6</ele>
        <time>2025-04-05T08:34:26Z</time>
      </trkpt>
      <trkpt lat="50.21553" lon="4.80943">
        <ele>228.6</ele>
        <time>2025-04-05T08:34:27Z</time>
      </trkpt>
      <trkpt lat="50.21553" lon="4.80936">
        <ele>228.6</ele>
        <time>2025-04-05T08:34:28Z</time>
      </trkpt>
      <trkpt lat="50.21552" lon="4.80927">
        <ele>228.6</ele>
        <time>2025-04-05T08:34:29Z</time>
      </trkpt>
      <trkpt lat="50.21552" lon="4.80919">
        <ele>228.6</ele>
        <time>2025-04-05T08:34:30Z</time>
      </trkpt>
      <trkpt lat="50.21551" lon="4.8091">
        <ele>228.6</ele>
        <time>2025-04-05T08:34:31Z</time>
      </trkpt>
      <trkpt lat="50.2155" lon="4.809">
        <ele>228.6</ele>
        <time>2025-04-05T08:34:32Z</time>
      </trkpt>
      <trkpt lat="50.2155" lon="4.80891">
        <ele>228.6</ele>
        <time>2025-04-05T08:34:33Z</time>
      </trkpt>
      <trkpt lat="50.2155" lon="4.80884">
        <ele>228.8</ele>
        <time>2025-04-05T08:34:34Z</time>
      </trkpt>
      <trkpt lat="50.21549" lon="4.80876">
        <ele>228.8</ele>
        <time>2025-04-05T08:34:35Z</time>
      </trkpt>
      <trkpt lat="50.21548" lon="4.80865">
        <ele>229</ele>
        <time>2025-04-05T08:34:36Z</time>
      </trkpt>
      <trkpt lat="50.21547" lon="4.80857">
        <ele>229</ele>
        <time>2025-04-05T08:34:37Z</time>
      </trkpt>
      <trkpt lat="50.21547" lon="4.80851">
        <ele>229</ele>
        <time>2025-04-05T08:34:38Z</time>
      </trkpt>
      <trkpt lat="50.21546" lon="4.80843">
        <ele>229.2</ele>
        <time>2025-04-05T08:34:39Z</time>
      </trkpt>
      <trkpt lat="50.21545" lon="4.80834">
        <ele>229.2</ele>
        <time>2025-04-05T08:34:40Z</time>
      </trkpt>
      <trkpt lat="50.21545" lon="4.80827">
        <ele>229.4</ele>
        <time>2025-04-05T08:34:41Z</time>
      </trkpt>
      <trkpt lat="50.21544" lon="4.80819">
        <ele>229.6</ele>
        <time>2025-04-05T08:34:42Z</time>
      </trkpt>
      <trkpt lat="50.21544" lon="4.80811">
        <ele>229.8</ele>
        <time>2025-04-05T08:34:43Z</time>
      </trkpt>
      <trkpt lat="50.21542" lon="4.80803">
        <ele>230</ele>
        <time>2025-04-05T08:34:44Z</time>
      </trkpt>
      <trkpt lat="50.21542" lon="4.80795">
        <ele>230.2</ele>
        <time>2025-04-05T08:34:45Z</time>
      </trkpt>
      <trkpt lat="50.21541" lon="4.80787">
        <ele>230.4</ele>
        <time>2025-04-05T08:34:46Z</time>
      </trkpt>
      <trkpt lat="50.2154" lon="4.8078">
        <ele>230.6</ele>
        <time>2025-04-05T08:34:47Z</time>
      </trkpt>
      <trkpt lat="50.2154" lon="4.80772">
        <ele>230.8</ele>
        <time>2025-04-05T08:34:48Z</time>
      </trkpt>
      <trkpt lat="50.21539" lon="4.80765">
        <ele>231</ele>
        <time>2025-04-05T08:34:49Z</time>
      </trkpt>
      <trkpt lat="50.21538" lon="4.80758">
        <ele>231</ele>
        <time>2025-04-05T08:34:50Z</time>
      </trkpt>
      <trkpt lat="50.21537" lon="4.8075">
        <ele>231.2</ele>
        <time>2025-04-05T08:34:51Z</time>
      </trkpt>
      <trkpt lat="50.21536" lon="4.80743">
        <ele>231.2</ele>
        <time>2025-04-05T08:34:52Z</time>
      </trkpt>
      <trkpt lat="50.21535" lon="4.80735">
        <ele>231.4</ele>
        <time>2025-04-05T08:34:53Z</time>
      </trkpt>
      <trkpt lat="50.21534" lon="4.80728">
        <ele>231.4</ele>
        <time>2025-04-05T08:34:54Z</time>
      </trkpt>
      <trkpt lat="50.21534" lon="4.8072">
        <ele>231.6</ele>
        <time>2025-04-05T08:34:55Z</time>
      </trkpt>
      <trkpt lat="50.21533" lon="4.80712">
        <ele>231.8</ele>
        <time>2025-04-05T08:34:56Z</time>
      </trkpt>
      <trkpt lat="50.21532" lon="4.80705">
        <ele>232</ele>
        <time>2025-04-05T08:34:57Z</time>
      </trkpt>
      <trkpt lat="50.21531" lon="4.80698">
        <ele>232</ele>
        <time>2025-04-05T08:34:58Z</time>
      </trkpt>
      <trkpt lat="50.21531" lon="4.8069">
        <ele>232</ele>
        <time>2025-04-05T08:34:59Z</time>
      </trkpt>
      <trkpt lat="50.2153" lon="4.80682">
        <ele>232.2</ele>
        <time>2025-04-05T08:35:00Z</time>
      </trkpt>
      <trkpt lat="50.21529" lon="4.80674">
        <ele>232.2</ele>
        <time>2025-04-05T08:35:01Z</time>
      </trkpt>
      <trkpt lat="50.21529" lon="4.80667">
        <ele>232.4</ele>
        <time>2025-04-05T08:35:02Z</time>
      </trkpt>
      <trkpt lat="50.21529" lon="4.80659">
        <ele>232.4</ele>
        <time>2025-04-05T08:35:03Z</time>
      </trkpt>
      <trkpt lat="50.21528" lon="4.8065">
        <ele>232.4</ele>
        <time>2025-04-05T08:35:04Z</time>
      </trkpt>
      <trkpt lat="50.21528" lon="4.80645">
        <ele>232.6</ele>
        <time>2025-04-05T08:35:05Z</time>
      </trkpt>
      <trkpt lat="50.21527" lon="4.80637">
        <ele>232.6</ele>
        <time>2025-04-05T08:35:06Z</time>
      </trkpt>
      <trkpt lat="50.21526" lon="4.80629">
        <ele>232.8</ele>
        <time>2025-04-05T08:35:07Z</time>
      </trkpt>
      <trkpt lat="50.21526" lon="4.80622">
        <ele>232.8</ele>
        <time>2025-04-05T08:35:08Z</time>
      </trkpt>
      <trkpt lat="50.21526" lon="4.80612">
        <ele>232.8</ele>
        <time>2025-04-05T08:35:09Z</time>
      </trkpt>
      <trkpt lat="50.21525" lon="4.80606">
        <ele>232.8</ele>
        <time>2025-04-05T08:35:10Z</time>
      </trkpt>
      <trkpt lat="50.21525" lon="4.80598">
        <ele>233</ele>
        <time>2025-04-05T08:35:11Z</time>
      </trkpt>
      <trkpt lat="50.21524" lon="4.80589">
        <ele>233</ele>
        <time>2025-04-05T08:35:12Z</time>
      </trkpt>
      <trkpt lat="50.21524" lon="4.80581">
        <ele>233</ele>
        <time>2025-04-05T08:35:13Z</time>
      </trkpt>
      <trkpt lat="50.21523" lon="4.80573">
        <ele>233</ele>
        <time>2025-04-05T08:35:14Z</time>
      </trkpt>
      <trkpt lat="50.21523" lon="4.80565">
        <ele>233.2</ele>
        <time>2025-04-05T08:35:15Z</time>
      </trkpt>
      <trkpt lat="50.21522" lon="4.80556">
        <ele>233.2</ele>
        <time>2025-04-05T08:35:16Z</time>
      </trkpt>
      <trkpt lat="50.21521" lon="4.80547">
        <ele>233.2</ele>
        <time>2025-04-05T08:35:17Z</time>
      </trkpt>
      <trkpt lat="50.2152" lon="4.80538">
        <ele>233.4</ele>
        <time>2025-04-05T08:35:18Z</time>
      </trkpt>
      <trkpt lat="50.2152" lon="4.80531">
        <ele>233.4</ele>
        <time>2025-04-05T08:35:19Z</time>
      </trkpt>
      <trkpt lat="50.21519" lon="4.8052">
        <ele>233.4</ele>
        <time>2025-04-05T08:35:20Z</time>
      </trkpt>
      <trkpt lat="50.21518" lon="4.80511">
        <ele>233.4</ele>
        <time>2025-04-05T08:35:21Z</time>
      </trkpt>
      <trkpt lat="50.21518" lon="4.80504">
        <ele>233.4</ele>
        <time>2025-04-05T08:35:22Z</time>
      </trkpt>
      <trkpt lat="50.21517" lon="4.80495">
        <ele>233.4</ele>
        <time>2025-04-05T08:35:23Z</time>
      </trkpt>
      <trkpt lat="50.21517" lon="4.80486">
        <ele>233.4</ele>
        <time>2025-04-05T08:35:24Z</time>
      </trkpt>
      <trkpt lat="50.21516" lon="4.80477">
        <ele>233.4</ele>
        <time>2025-04-05T08:35:25Z</time>
      </trkpt>
      <trkpt lat="50.21515" lon="4.80468">
        <ele>233.4</ele>
        <time>2025-04-05T08:35:26Z</time>
      </trkpt>
      <trkpt lat="50.21515" lon="4.8046">
        <ele>233.4</ele>
        <time>2025-04-05T08:35:27Z</time>
      </trkpt>
      <trkpt lat="50.21514" lon="4.80451">
        <ele>233.4</ele>
        <time>2025-04-05T08:35:28Z</time>
      </trkpt>
      <trkpt lat="50.21513" lon="4.80441">
        <ele>233.2</ele>
        <time>2025-04-05T08:35:29Z</time>
      </trkpt>
      <trkpt lat="50.21513" lon="4.80432">
        <ele>233.2</ele>
        <time>2025-04-05T08:35:30Z</time>
      </trkpt>
      <trkpt lat="50.21512" lon="4.80423">
        <ele>233.2</ele>
        <time>2025-04-05T08:35:31Z</time>
      </trkpt>
      <trkpt lat="50.21512" lon="4.80413">
        <ele>233.2</ele>
        <time>2025-04-05T08:35:32Z</time>
      </trkpt>
      <trkpt lat="50.21511" lon="4.80403">
        <ele>233.2</ele>
        <time>2025-04-05T08:35:33Z</time>
      </trkpt>
      <trkpt lat="50.2151" lon="4.80394">
        <ele>233.2</ele>
        <time>2025-04-05T08:35:34Z</time>
      </trkpt>
      <trkpt lat="50.2151" lon="4.80384">
        <ele>233.2</ele>
        <time>2025-04-05T08:35:35Z</time>
      </trkpt>
      <trkpt lat="50.21509" lon="4.80373">
        <ele>233.4</ele>
        <time>2025-04-05T08:35:36Z</time>
      </trkpt>
      <trkpt lat="50.21508" lon="4.80363">
        <ele>233.4</ele>
        <time>2025-04-05T08:35:37Z</time>
      </trkpt>
      <trkpt lat="50.21508" lon="4.80355">
        <ele>233.4</ele>
        <time>2025-04-05T08:35:38Z</time>
      </trkpt>
      <trkpt lat="50.21507" lon="4.80345">
        <ele>233.6</ele>
        <time>2025-04-05T08:35:39Z</time>
      </trkpt>
      <trkpt lat="50.21507" lon="4.80334">
        <ele>233.6</ele>
        <time>2025-04-05T08:35:40Z</time>
      </trkpt>
      <trkpt lat="50.21506" lon="4.80324">
        <ele>233.6</ele>
        <time>2025-04-05T08:35:41Z</time>
      </trkpt>
      <trkpt lat="50.21506" lon="4.80317">
        <ele>233.6</ele>
        <time>2025-04-05T08:35:42Z</time>
      </trkpt>
      <trkpt lat="50.21505" lon="4.80307">
        <ele>233.6</ele>
        <time>2025-04-05T08:35:43Z</time>
      </trkpt>
      <trkpt lat="50.21505" lon="4.80299">
        <ele>233.6</ele>
        <time>2025-04-05T08:35:44Z</time>
      </trkpt>
      <trkpt lat="50.21504" lon="4.80288">
        <ele>233.8</ele>
        <time>2025-04-05T08:35:45Z</time>
      </trkpt>
      <trkpt lat="50.21504" lon="4.80281">
        <ele>233.8</ele>
        <time>2025-04-05T08:35:46Z</time>
      </trkpt>
      <trkpt lat="50.21503" lon="4.80272">
        <ele>233.8</ele>
        <time>2025-04-05T08:35:47Z</time>
      </trkpt>
      <trkpt lat="50.21503" lon="4.80262">
        <ele>234</ele>
        <time>2025-04-05T08:35:48Z</time>
      </trkpt>
      <trkpt lat="50.21502" lon="4.80253">
        <ele>234.2</ele>
        <time>2025-04-05T08:35:49Z</time>
      </trkpt>
      <trkpt lat="50.21502" lon="4.80244">
        <ele>234.2</ele>
        <time>2025-04-05T08:35:50Z</time>
      </trkpt>
      <trkpt lat="50.21502" lon="4.80235">
        <ele>234.4</ele>
        <time>2025-04-05T08:35:51Z</time>
      </trkpt>
      <trkpt lat="50.21501" lon="4.80226">
        <ele>234.4</ele>
        <time>2025-04-05T08:35:52Z</time>
      </trkpt>
      <trkpt lat="50.21501" lon="4.80217">
        <ele>234.6</ele>
        <time>2025-04-05T08:35:53Z</time>
      </trkpt>
      <trkpt lat="50.215" lon="4.80206">
        <ele>234.6</ele>
        <time>2025-04-05T08:35:54Z</time>
      </trkpt>
      <trkpt lat="50.215" lon="4.80199">
        <ele>234.8</ele>
        <time>2025-04-05T08:35:55Z</time>
      </trkpt>
      <trkpt lat="50.215" lon="4.8019">
        <ele>234.8</ele>
        <time>2025-04-05T08:35:56Z</time>
      </trkpt>
      <trkpt lat="50.215" lon="4.8018">
        <ele>235</ele>
        <time>2025-04-05T08:35:57Z</time>
      </trkpt>
      <trkpt lat="50.21499" lon="4.80172">
        <ele>235</ele>
        <time>2025-04-05T08:35:58Z</time>
      </trkpt>
      <trkpt lat="50.21499" lon="4.80163">
        <ele>235.2</ele>
        <time>2025-04-05T08:35:59Z</time>
      </trkpt>
      <trkpt lat="50.21499" lon="4.80155">
        <ele>235.4</ele>
        <time>2025-04-05T08:36:00Z</time>
      </trkpt>
      <trkpt lat="50.21498" lon="4.80146">
        <ele>235.6</ele>
        <time>2025-04-05T08:36:01Z</time>
      </trkpt>
      <trkpt lat="50.21498" lon="4.80137">
        <ele>235.8</ele>
        <time>2025-04-05T08:36:02Z</time>
      </trkpt>
      <trkpt lat="50.21497" lon="4.80126">
        <ele>235.8</ele>
        <time>2025-04-05T08:36:03Z</time>
      </trkpt>
      <trkpt lat="50.21497" lon="4.8012">
        <ele>236</ele>
        <time>2025-04-05T08:36:04Z</time>
      </trkpt>
      <trkpt lat="50.21497" lon="4.80111">
        <ele>236</ele>
        <time>2025-04-05T08:36:05Z</time>
      </trkpt>
      <trkpt lat="50.21497" lon="4.80102">
        <ele>236.2</ele>
        <time>2025-04-05T08:36:06Z</time>
      </trkpt>
      <trkpt lat="50.21496" lon="4.80093">
        <ele>236.2</ele>
        <time>2025-04-05T08:36:07Z</time>
      </trkpt>
      <trkpt lat="50.21496" lon="4.80085">
        <ele>236.4</ele>
        <time>2025-04-05T08:36:08Z</time>
      </trkpt>
      <trkpt lat="50.21495" lon="4.80076">
        <ele>236.4</ele>
        <time>2025-04-05T08:36:09Z</time>
      </trkpt>
      <trkpt lat="50.21495" lon="4.80068">
        <ele>236.4</ele>
        <time>2025-04-05T08:36:10Z</time>
      </trkpt>
      <trkpt lat="50.21495" lon="4.80059">
        <ele>236.6</ele>
        <time>2025-04-05T08:36:11Z</time>
      </trkpt>
      <trkpt lat="50.21494" lon="4.8005">
        <ele>236.8</ele>
        <time>2025-04-05T08:36:12Z</time>
      </trkpt>
      <trkpt lat="50.21494" lon="4.80042">
        <ele>236.8</ele>
        <time>2025-04-05T08:36:13Z</time>
      </trkpt>
      <trkpt lat="50.21494" lon="4.80033">
        <ele>237</ele>
        <time>2025-04-05T08:36:14Z</time>
      </trkpt>
      <trkpt lat="50.21493" lon="4.80025">
        <ele>237.2</ele>
        <time>2025-04-05T08:36:15Z</time>
      </trkpt>
      <trkpt lat="50.21493" lon="4.80016">
        <ele>237.2</ele>
        <time>2025-04-05T08:36:16Z</time>
      </trkpt>
      <trkpt lat="50.21493" lon="4.80007">
        <ele>237.4</ele>
        <time>2025-04-05T08:36:17Z</time>
      </trkpt>
      <trkpt lat="50.21492" lon="4.79999">
        <ele>237.6</ele>
        <time>2025-04-05T08:36:18Z</time>
      </trkpt>
      <trkpt lat="50.21492" lon="4.79991">
        <ele>237.6</ele>
        <time>2025-04-05T08:36:19Z</time>
      </trkpt>
      <trkpt lat="50.21492" lon="4.79983">
        <ele>237.8</ele>
        <time>2025-04-05T08:36:20Z</time>
      </trkpt>
      <trkpt lat="50.21491" lon="4.79974">
        <ele>237.8</ele>
        <time>2025-04-05T08:36:21Z</time>
      </trkpt>
      <trkpt lat="50.21491" lon="4.79966">
        <ele>238</ele>
        <time>2025-04-05T08:36:22Z</time>
      </trkpt>
      <trkpt lat="50.21491" lon="4.79957">
        <ele>238.2</ele>
        <time>2025-04-05T08:36:23Z</time>
      </trkpt>
      <trkpt lat="50.2149" lon="4.79949">
        <ele>238.2</ele>
        <time>2025-04-05T08:36:24Z</time>
      </trkpt>
      <trkpt lat="50.21489" lon="4.7994">
        <ele>238.4</ele>
        <time>2025-04-05T08:36:25Z</time>
      </trkpt>
      <trkpt lat="50.21489" lon="4.79931">
        <ele>238.4</ele>
        <time>2025-04-05T08:36:26Z</time>
      </trkpt>
      <trkpt lat="50.21489" lon="4.79923">
        <ele>238.4</ele>
        <time>2025-04-05T08:36:27Z</time>
      </trkpt>
      <trkpt lat="50.21488" lon="4.79914">
        <ele>238.4</ele>
        <time>2025-04-05T08:36:28Z</time>
      </trkpt>
      <trkpt lat="50.21487" lon="4.79905">
        <ele>238.4</ele>
        <time>2025-04-05T08:36:29Z</time>
      </trkpt>
      <trkpt lat="50.21486" lon="4.79896">
        <ele>238.4</ele>
        <time>2025-04-05T08:36:30Z</time>
      </trkpt>
      <trkpt lat="50.21486" lon="4.79887">
        <ele>238.4</ele>
        <time>2025-04-05T08:36:31Z</time>
      </trkpt>
      <trkpt lat="50.21484" lon="4.79877">
        <ele>238.4</ele>
        <time>2025-04-05T08:36:32Z</time>
      </trkpt>
      <trkpt lat="50.21484" lon="4.79868">
        <ele>238.4</ele>
        <time>2025-04-05T08:36:33Z</time>
      </trkpt>
      <trkpt lat="50.21483" lon="4.79858">
        <ele>238.2</ele>
        <time>2025-04-05T08:36:34Z</time>
      </trkpt>
      <trkpt lat="50.21482" lon="4.79848">
        <ele>238.2</ele>
        <time>2025-04-05T08:36:35Z</time>
      </trkpt>
      <trkpt lat="50.21481" lon="4.79839">
        <ele>238.2</ele>
        <time>2025-04-05T08:36:36Z</time>
      </trkpt>
      <trkpt lat="50.21481" lon="4.79829">
        <ele>238.2</ele>
        <time>2025-04-05T08:36:37Z</time>
      </trkpt>
      <trkpt lat="50.21481" lon="4.7982">
        <ele>238</ele>
        <time>2025-04-05T08:36:38Z</time>
      </trkpt>
      <trkpt lat="50.2148" lon="4.7981">
        <ele>238</ele>
        <time>2025-04-05T08:36:39Z</time>
      </trkpt>
      <trkpt lat="50.21479" lon="4.798">
        <ele>237.8</ele>
        <time>2025-04-05T08:36:40Z</time>
      </trkpt>
      <trkpt lat="50.21478" lon="4.7979">
        <ele>237.8</ele>
        <time>2025-04-05T08:36:41Z</time>
      </trkpt>
      <trkpt lat="50.21478" lon="4.7978">
        <ele>237.6</ele>
        <time>2025-04-05T08:36:42Z</time>
      </trkpt>
      <trkpt lat="50.21477" lon="4.79769">
        <ele>237.6</ele>
        <time>2025-04-05T08:36:43Z</time>
      </trkpt>
      <trkpt lat="50.21476" lon="4.79756">
        <ele>237.4</ele>
        <time>2025-04-05T08:36:44Z</time>
      </trkpt>
      <trkpt lat="50.21475" lon="4.79747">
        <ele>237.4</ele>
        <time>2025-04-05T08:36:45Z</time>
      </trkpt>
      <trkpt lat="50.21475" lon="4.79736">
        <ele>237.2</ele>
        <time>2025-04-05T08:36:46Z</time>
      </trkpt>
      <trkpt lat="50.21473" lon="4.79723">
        <ele>237</ele>
        <time>2025-04-05T08:36:47Z</time>
      </trkpt>
      <trkpt lat="50.21473" lon="4.79714">
        <ele>236.8</ele>
        <time>2025-04-05T08:36:48Z</time>
      </trkpt>
      <trkpt lat="50.21472" lon="4.79703">
        <ele>236.8</ele>
        <time>2025-04-05T08:36:49Z</time>
      </trkpt>
      <trkpt lat="50.21471" lon="4.79692">
        <ele>236.6</ele>
        <time>2025-04-05T08:36:50Z</time>
      </trkpt>
      <trkpt lat="50.2147" lon="4.79681">
        <ele>236.4</ele>
        <time>2025-04-05T08:36:51Z</time>
      </trkpt>
      <trkpt lat="50.21469" lon="4.7967">
        <ele>236.4</ele>
        <time>2025-04-05T08:36:52Z</time>
      </trkpt>
      <trkpt lat="50.21468" lon="4.79659">
        <ele>236.2</ele>
        <time>2025-04-05T08:36:53Z</time>
      </trkpt>
      <trkpt lat="50.21468" lon="4.79647">
        <ele>236</ele>
        <time>2025-04-05T08:36:54Z</time>
      </trkpt>
      <trkpt lat="50.21467" lon="4.79635">
        <ele>235.8</ele>
        <time>2025-04-05T08:36:55Z</time>
      </trkpt>
      <trkpt lat="50.21466" lon="4.79624">
        <ele>235.6</ele>
        <time>2025-04-05T08:36:56Z</time>
      </trkpt>
      <trkpt lat="50.21465" lon="4.79611">
        <ele>235.6</ele>
        <time>2025-04-05T08:36:57Z</time>
      </trkpt>
      <trkpt lat="50.21465" lon="4.796">
        <ele>235.4</ele>
        <time>2025-04-05T08:36:58Z</time>
      </trkpt>
      <trkpt lat="50.21463" lon="4.79587">
        <ele>235.4</ele>
        <time>2025-04-05T08:36:59Z</time>
      </trkpt>
      <trkpt lat="50.21462" lon="4.79575">
        <ele>235.2</ele>
        <time>2025-04-05T08:37:00Z</time>
      </trkpt>
      <trkpt lat="50.21462" lon="4.79563">
        <ele>235.2</ele>
        <time>2025-04-05T08:37:01Z</time>
      </trkpt>
      <trkpt lat="50.2146" lon="4.79551">
        <ele>235</ele>
        <time>2025-04-05T08:37:02Z</time>
      </trkpt>
      <trkpt lat="50.21459" lon="4.79538">
        <ele>235</ele>
        <time>2025-04-05T08:37:03Z</time>
      </trkpt>
      <trkpt lat="50.21458" lon="4.79526">
        <ele>235</ele>
        <time>2025-04-05T08:37:04Z</time>
      </trkpt>
      <trkpt lat="50.21457" lon="4.79514">
        <ele>234.8</ele>
        <time>2025-04-05T08:37:05Z</time>
      </trkpt>
      <trkpt lat="50.21456" lon="4.79499">
        <ele>234.8</ele>
        <time>2025-04-05T08:37:06Z</time>
      </trkpt>
      <trkpt lat="50.21455" lon="4.79487">
        <ele>234.8</ele>
        <time>2025-04-05T08:37:07Z</time>
      </trkpt>
      <trkpt lat="50.21454" lon="4.79478">
        <ele>234.8</ele>
        <time>2025-04-05T08:37:08Z</time>
      </trkpt>
      <trkpt lat="50.21452" lon="4.79467">
        <ele>234.8</ele>
        <time>2025-04-05T08:37:09Z</time>
      </trkpt>
      <trkpt lat="50.21452" lon="4.79455">
        <ele>234.6</ele>
        <time>2025-04-05T08:37:10Z</time>
      </trkpt>
      <trkpt lat="50.2145" lon="4.79441">
        <ele>234.4</ele>
        <time>2025-04-05T08:37:11Z</time>
      </trkpt>
      <trkpt lat="50.2145" lon="4.79433">
        <ele>234.4</ele>
        <time>2025-04-05T08:37:12Z</time>
      </trkpt>
      <trkpt lat="50.2145" lon="4.79422">
        <ele>234.4</ele>
        <time>2025-04-05T08:37:13Z</time>
      </trkpt>
      <trkpt lat="50.21449" lon="4.79411">
        <ele>234.2</ele>
        <time>2025-04-05T08:37:14Z</time>
      </trkpt>
      <trkpt lat="50.21449" lon="4.79399">
        <ele>234.2</ele>
        <time>2025-04-05T08:37:15Z</time>
      </trkpt>
      <trkpt lat="50.21447" lon="4.79388">
        <ele>234.2</ele>
        <time>2025-04-05T08:37:16Z</time>
      </trkpt>
      <trkpt lat="50.21446" lon="4.79374">
        <ele>234</ele>
        <time>2025-04-05T08:37:17Z</time>
      </trkpt>
      <trkpt lat="50.21446" lon="4.79365">
        <ele>234</ele>
        <time>2025-04-05T08:37:18Z</time>
      </trkpt>
      <trkpt lat="50.21444" lon="4.79351">
        <ele>233.8</ele>
        <time>2025-04-05T08:37:19Z</time>
      </trkpt>
      <trkpt lat="50.21443" lon="4.79339">
        <ele>233.8</ele>
        <time>2025-04-05T08:37:20Z</time>
      </trkpt>
      <trkpt lat="50.21443" lon="4.7933">
        <ele>233.8</ele>
        <time>2025-04-05T08:37:21Z</time>
      </trkpt>
      <trkpt lat="50.21442" lon="4.79318">
        <ele>233.8</ele>
        <time>2025-04-05T08:37:22Z</time>
      </trkpt>
      <trkpt lat="50.21441" lon="4.79307">
        <ele>233.6</ele>
        <time>2025-04-05T08:37:23Z</time>
      </trkpt>
      <trkpt lat="50.21441" lon="4.79296">
        <ele>233.6</ele>
        <time>2025-04-05T08:37:24Z</time>
      </trkpt>
      <trkpt lat="50.21439" lon="4.79282">
        <ele>233.4</ele>
        <time>2025-04-05T08:37:25Z</time>
      </trkpt>
      <trkpt lat="50.21439" lon="4.79273">
        <ele>233.4</ele>
        <time>2025-04-05T08:37:26Z</time>
      </trkpt>
      <trkpt lat="50.21438" lon="4.79262">
        <ele>233.4</ele>
        <time>2025-04-05T08:37:27Z</time>
      </trkpt>
      <trkpt lat="50.21437" lon="4.79252">
        <ele>233.2</ele>
        <time>2025-04-05T08:37:28Z</time>
      </trkpt>
      <trkpt lat="50.21436" lon="4.79239">
        <ele>233.2</ele>
        <time>2025-04-05T08:37:29Z</time>
      </trkpt>
      <trkpt lat="50.21435" lon="4.79231">
        <ele>233.2</ele>
        <time>2025-04-05T08:37:30Z</time>
      </trkpt>
      <trkpt lat="50.21435" lon="4.79219">
        <ele>233</ele>
        <time>2025-04-05T08:37:31Z</time>
      </trkpt>
      <trkpt lat="50.21434" lon="4.79206">
        <ele>232.8</ele>
        <time>2025-04-05T08:37:32Z</time>
      </trkpt>
      <trkpt lat="50.21434" lon="4.79195">
        <ele>232.8</ele>
        <time>2025-04-05T08:37:33Z</time>
      </trkpt>
      <trkpt lat="50.21433" lon="4.79186">
        <ele>232.6</ele>
        <time>2025-04-05T08:37:34Z</time>
      </trkpt>
      <trkpt lat="50.21432" lon="4.79175">
        <ele>232.4</ele>
        <time>2025-04-05T08:37:35Z</time>
      </trkpt>
      <trkpt lat="50.21431" lon="4.79163">
        <ele>232.4</ele>
        <time>2025-04-05T08:37:36Z</time>
      </trkpt>
      <trkpt lat="50.2143" lon="4.79152">
        <ele>232.4</ele>
        <time>2025-04-05T08:37:37Z</time>
      </trkpt>
      <trkpt lat="50.21428" lon="4.79141">
        <ele>232.2</ele>
        <time>2025-04-05T08:37:38Z</time>
      </trkpt>
      <trkpt lat="50.21427" lon="4.79128">
        <ele>232.2</ele>
        <time>2025-04-05T08:37:39Z</time>
      </trkpt>
      <trkpt lat="50.21425" lon="4.7912">
        <ele>232.2</ele>
        <time>2025-04-05T08:37:40Z</time>
      </trkpt>
      <trkpt lat="50.21424" lon="4.79107">
        <ele>232</ele>
        <time>2025-04-05T08:37:41Z</time>
      </trkpt>
      <trkpt lat="50.21422" lon="4.79096">
        <ele>232</ele>
        <time>2025-04-05T08:37:42Z</time>
      </trkpt>
      <trkpt lat="50.21421" lon="4.79088">
        <ele>232</ele>
        <time>2025-04-05T08:37:43Z</time>
      </trkpt>
      <trkpt lat="50.21418" lon="4.79077">
        <ele>232</ele>
        <time>2025-04-05T08:37:44Z</time>
      </trkpt>
      <trkpt lat="50.21417" lon="4.79066">
        <ele>232.2</ele>
        <time>2025-04-05T08:37:45Z</time>
      </trkpt>
      <trkpt lat="50.21415" lon="4.79057">
        <ele>232.2</ele>
        <time>2025-04-05T08:37:46Z</time>
      </trkpt>
      <trkpt lat="50.21413" lon="4.79045">
        <ele>232.4</ele>
        <time>2025-04-05T08:37:47Z</time>
      </trkpt>
      <trkpt lat="50.21411" lon="4.79037">
        <ele>232.4</ele>
        <time>2025-04-05T08:37:48Z</time>
      </trkpt>
      <trkpt lat="50.21409" lon="4.79028">
        <ele>232.6</ele>
        <time>2025-04-05T08:37:49Z</time>
      </trkpt>
      <trkpt lat="50.21408" lon="4.79019">
        <ele>232.6</ele>
        <time>2025-04-05T08:37:50Z</time>
      </trkpt>
      <trkpt lat="50.21406" lon="4.79007">
        <ele>232.8</ele>
        <time>2025-04-05T08:37:51Z</time>
      </trkpt>
      <trkpt lat="50.21405" lon="4.78999">
        <ele>232.8</ele>
        <time>2025-04-05T08:37:52Z</time>
      </trkpt>
      <trkpt lat="50.21404" lon="4.78989">
        <ele>232.8</ele>
        <time>2025-04-05T08:37:53Z</time>
      </trkpt>
      <trkpt lat="50.21402" lon="4.78977">
        <ele>232.6</ele>
        <time>2025-04-05T08:37:54Z</time>
      </trkpt>
      <trkpt lat="50.214" lon="4.78967">
        <ele>232.6</ele>
        <time>2025-04-05T08:37:55Z</time>
      </trkpt>
      <trkpt lat="50.21398" lon="4.78958">
        <ele>232.6</ele>
        <time>2025-04-05T08:37:56Z</time>
      </trkpt>
      <trkpt lat="50.21396" lon="4.78947">
        <ele>232.6</ele>
        <time>2025-04-05T08:37:57Z</time>
      </trkpt>
      <trkpt lat="50.21394" lon="4.78936">
        <ele>232.4</ele>
        <time>2025-04-05T08:37:58Z</time>
      </trkpt>
      <trkpt lat="50.21392" lon="4.78925">
        <ele>232.2</ele>
        <time>2025-04-05T08:37:59Z</time>
      </trkpt>
      <trkpt lat="50.21391" lon="4.78913">
        <ele>232.2</ele>
        <time>2025-04-05T08:38:00Z</time>
      </trkpt>
      <trkpt lat="50.21389" lon="4.78902">
        <ele>232.2</ele>
        <time>2025-04-05T08:38:01Z</time>
      </trkpt>
      <trkpt lat="50.21388" lon="4.7889">
        <ele>232</ele>
        <time>2025-04-05T08:38:02Z</time>
      </trkpt>
      <trkpt lat="50.21386" lon="4.78878">
        <ele>232</ele>
        <time>2025-04-05T08:38:03Z</time>
      </trkpt>
      <trkpt lat="50.21385" lon="4.78863">
        <ele>232</ele>
        <time>2025-04-05T08:38:04Z</time>
      </trkpt>
      <trkpt lat="50.21385" lon="4.78851">
        <ele>232</ele>
        <time>2025-04-05T08:38:05Z</time>
      </trkpt>
      <trkpt lat="50.21384" lon="4.78841">
        <ele>232</ele>
        <time>2025-04-05T08:38:06Z</time>
      </trkpt>
      <trkpt lat="50.21384" lon="4.78829">
        <ele>232</ele>
        <time>2025-04-05T08:38:07Z</time>
      </trkpt>
      <trkpt lat="50.21384" lon="4.78818">
        <ele>232</ele>
        <time>2025-04-05T08:38:08Z</time>
      </trkpt>
      <trkpt lat="50.21384" lon="4.78806">
        <ele>232</ele>
        <time>2025-04-05T08:38:09Z</time>
      </trkpt>
      <trkpt lat="50.21383" lon="4.78794">
        <ele>232.2</ele>
        <time>2025-04-05T08:38:10Z</time>
      </trkpt>
      <trkpt lat="50.21383" lon="4.78782">
        <ele>232.2</ele>
        <time>2025-04-05T08:38:11Z</time>
      </trkpt>
      <trkpt lat="50.21384" lon="4.7877">
        <ele>232.2</ele>
        <time>2025-04-05T08:38:12Z</time>
      </trkpt>
      <trkpt lat="50.21384" lon="4.78756">
        <ele>232.2</ele>
        <time>2025-04-05T08:38:13Z</time>
      </trkpt>
      <trkpt lat="50.21383" lon="4.78745">
        <ele>232.2</ele>
        <time>2025-04-05T08:38:14Z</time>
      </trkpt>
      <trkpt lat="50.21383" lon="4.78735">
        <ele>232.4</ele>
        <time>2025-04-05T08:38:15Z</time>
      </trkpt>
      <trkpt lat="50.21383" lon="4.78722">
        <ele>232.4</ele>
        <time>2025-04-05T08:38:16Z</time>
      </trkpt>
      <trkpt lat="50.21383" lon="4.7871">
        <ele>232.4</ele>
        <time>2025-04-05T08:38:17Z</time>
      </trkpt>
      <trkpt lat="50.21383" lon="4.78699">
        <ele>232.4</ele>
        <time>2025-04-05T08:38:18Z</time>
      </trkpt>
      <trkpt lat="50.21383" lon="4.78691">
        <ele>232.6</ele>
        <time>2025-04-05T08:38:19Z</time>
      </trkpt>
      <trkpt lat="50.21383" lon="4.78679">
        <ele>232.6</ele>
        <time>2025-04-05T08:38:20Z</time>
      </trkpt>
      <trkpt lat="50.21383" lon="4.78669">
        <ele>232.6</ele>
        <time>2025-04-05T08:38:21Z</time>
      </trkpt>
      <trkpt lat="50.21383" lon="4.78655">
        <ele>232.8</ele>
        <time>2025-04-05T08:38:22Z</time>
      </trkpt>
      <trkpt lat="50.21383" lon="4.78645">
        <ele>233</ele>
        <time>2025-04-05T08:38:23Z</time>
      </trkpt>
      <trkpt lat="50.21382" lon="4.78636">
        <ele>233.2</ele>
        <time>2025-04-05T08:38:24Z</time>
      </trkpt>
      <trkpt lat="50.21382" lon="4.78624">
        <ele>233.4</ele>
        <time>2025-04-05T08:38:25Z</time>
      </trkpt>
      <trkpt lat="50.21382" lon="4.78614">
        <ele>233.6</ele>
        <time>2025-04-05T08:38:26Z</time>
      </trkpt>
      <trkpt lat="50.21383" lon="4.78604">
        <ele>233.6</ele>
        <time>2025-04-05T08:38:27Z</time>
      </trkpt>
      <trkpt lat="50.21382" lon="4.78594">
        <ele>233.8</ele>
        <time>2025-04-05T08:38:28Z</time>
      </trkpt>
      <trkpt lat="50.21382" lon="4.78584">
        <ele>234</ele>
        <time>2025-04-05T08:38:29Z</time>
      </trkpt>
      <trkpt lat="50.21381" lon="4.78574">
        <ele>234</ele>
        <time>2025-04-05T08:38:30Z</time>
      </trkpt>
      <trkpt lat="50.21381" lon="4.78564">
        <ele>234.2</ele>
        <time>2025-04-05T08:38:31Z</time>
      </trkpt>
      <trkpt lat="50.21381" lon="4.78556">
        <ele>234.4</ele>
        <time>2025-04-05T08:38:32Z</time>
      </trkpt>
      <trkpt lat="50.21381" lon="4.78545">
        <ele>234.6</ele>
        <time>2025-04-05T08:38:33Z</time>
      </trkpt>
      <trkpt lat="50.21381" lon="4.78535">
        <ele>234.8</ele>
        <time>2025-04-05T08:38:34Z</time>
      </trkpt>
      <trkpt lat="50.21381" lon="4.78526">
        <ele>235</ele>
        <time>2025-04-05T08:38:35Z</time>
      </trkpt>
      <trkpt lat="50.21381" lon="4.78517">
        <ele>235.2</ele>
        <time>2025-04-05T08:38:36Z</time>
      </trkpt>
      <trkpt lat="50.21381" lon="4.78507">
        <ele>235.4</ele>
        <time>2025-04-05T08:38:37Z</time>
      </trkpt>
      <trkpt lat="50.21381" lon="4.78498">
        <ele>235.6</ele>
        <time>2025-04-05T08:38:38Z</time>
      </trkpt>
      <trkpt lat="50.21381" lon="4.7849">
        <ele>236</ele>
        <time>2025-04-05T08:38:39Z</time>
      </trkpt>
      <trkpt lat="50.21381" lon="4.78482">
        <ele>236.2</ele>
        <time>2025-04-05T08:38:40Z</time>
      </trkpt>
      <trkpt lat="50.21381" lon="4.78474">
        <ele>236.2</ele>
        <time>2025-04-05T08:38:41Z</time>
      </trkpt>
      <trkpt lat="50.2138" lon="4.78465">
        <ele>236.4</ele>
        <time>2025-04-05T08:38:42Z</time>
      </trkpt>
      <trkpt lat="50.2138" lon="4.78455">
        <ele>236.6</ele>
        <time>2025-04-05T08:38:43Z</time>
      </trkpt>
      <trkpt lat="50.2138" lon="4.78446">
        <ele>236.8</ele>
        <time>2025-04-05T08:38:44Z</time>
      </trkpt>
      <trkpt lat="50.2138" lon="4.78439">
        <ele>237</ele>
        <time>2025-04-05T08:38:45Z</time>
      </trkpt>
      <trkpt lat="50.21379" lon="4.78428">
        <ele>237</ele>
        <time>2025-04-05T08:38:46Z</time>
      </trkpt>
      <trkpt lat="50.21379" lon="4.78419">
        <ele>237.2</ele>
        <time>2025-04-05T08:38:47Z</time>
      </trkpt>
      <trkpt lat="50.21379" lon="4.7841">
        <ele>237.4</ele>
        <time>2025-04-05T08:38:48Z</time>
      </trkpt>
      <trkpt lat="50.21379" lon="4.78401">
        <ele>237.4</ele>
        <time>2025-04-05T08:38:49Z</time>
      </trkpt>
      <trkpt lat="50.21379" lon="4.78393">
        <ele>237.6</ele>
        <time>2025-04-05T08:38:50Z</time>
      </trkpt>
      <trkpt lat="50.21379" lon="4.78383">
        <ele>237.6</ele>
        <time>2025-04-05T08:38:51Z</time>
      </trkpt>
      <trkpt lat="50.21379" lon="4.78374">
        <ele>237.6</ele>
        <time>2025-04-05T08:38:52Z</time>
      </trkpt>
      <trkpt lat="50.21379" lon="4.78367">
        <ele>237.6</ele>
        <time>2025-04-05T08:38:53Z</time>
      </trkpt>
      <trkpt lat="50.21379" lon="4.78357">
        <ele>237.6</ele>
        <time>2025-04-05T08:38:54Z</time>
      </trkpt>
      <trkpt lat="50.21378" lon="4.78348">
        <ele>237.6</ele>
        <time>2025-04-05T08:38:55Z</time>
      </trkpt>
      <trkpt lat="50.21378" lon="4.78339">
        <ele>237.6</ele>
        <time>2025-04-05T08:38:56Z</time>
      </trkpt>
      <trkpt lat="50.21378" lon="4.7833">
        <ele>237.8</ele>
        <time>2025-04-05T08:38:57Z</time>
      </trkpt>
      <trkpt lat="50.21378" lon="4.7832">
        <ele>237.8</ele>
        <time>2025-04-05T08:38:58Z</time>
      </trkpt>
      <trkpt lat="50.21378" lon="4.78311">
        <ele>237.8</ele>
        <time>2025-04-05T08:38:59Z</time>
      </trkpt>
      <trkpt lat="50.21378" lon="4.78303">
        <ele>237.8</ele>
        <time>2025-04-05T08:39:00Z</time>
      </trkpt>
      <trkpt lat="50.21378" lon="4.78295">
        <ele>238</ele>
        <time>2025-04-05T08:39:01Z</time>
      </trkpt>
      <trkpt lat="50.21378" lon="4.78287">
        <ele>238</ele>
        <time>2025-04-05T08:39:02Z</time>
      </trkpt>
      <trkpt lat="50.21377" lon="4.78278">
        <ele>238.2</ele>
        <time>2025-04-05T08:39:03Z</time>
      </trkpt>
      <trkpt lat="50.21377" lon="4.78269">
        <ele>238.4</ele>
        <time>2025-04-05T08:39:04Z</time>
      </trkpt>
      <trkpt lat="50.21376" lon="4.78261">
        <ele>238.8</ele>
        <time>2025-04-05T08:39:05Z</time>
      </trkpt>
      <trkpt lat="50.21376" lon="4.78253">
        <ele>239</ele>
        <time>2025-04-05T08:39:06Z</time>
      </trkpt>
      <trkpt lat="50.21376" lon="4.78246">
        <ele>239.2</ele>
        <time>2025-04-05T08:39:07Z</time>
      </trkpt>
      <trkpt lat="50.21375" lon="4.78239">
        <ele>239.4</ele>
        <time>2025-04-05T08:39:08Z</time>
      </trkpt>
      <trkpt lat="50.21375" lon="4.78232">
        <ele>239.6</ele>
        <time>2025-04-05T08:39:09Z</time>
      </trkpt>
      <trkpt lat="50.21375" lon="4.78225">
        <ele>240</ele>
        <time>2025-04-05T08:39:10Z</time>
      </trkpt>
      <trkpt lat="50.21375" lon="4.7822">
        <ele>240.2</ele>
        <time>2025-04-05T08:39:11Z</time>
      </trkpt>
      <trkpt lat="50.21375" lon="4.78213">
        <ele>240.6</ele>
        <time>2025-04-05T08:39:12Z</time>
      </trkpt>
      <trkpt lat="50.21375" lon="4.78207">
        <ele>240.8</ele>
        <time>2025-04-05T08:39:13Z</time>
      </trkpt>
      <trkpt lat="50.21375" lon="4.78201">
        <ele>241</ele>
        <time>2025-04-05T08:39:14Z</time>
      </trkpt>
      <trkpt lat="50.21375" lon="4.78195">
        <ele>241.2</ele>
        <time>2025-04-05T08:39:15Z</time>
      </trkpt>
      <trkpt lat="50.21375" lon="4.78188">
        <ele>241.4</ele>
        <time>2025-04-05T08:39:16Z</time>
      </trkpt>
      <trkpt lat="50.21375" lon="4.78183">
        <ele>241.6</ele>
        <time>2025-04-05T08:39:17Z</time>
      </trkpt>
      <trkpt lat="50.21375" lon="4.78177">
        <ele>241.8</ele>
        <time>2025-04-05T08:39:18Z</time>
      </trkpt>
      <trkpt lat="50.21375" lon="4.78172">
        <ele>242</ele>
        <time>2025-04-05T08:39:19Z</time>
      </trkpt>
      <trkpt lat="50.21375" lon="4.78165">
        <ele>242</ele>
        <time>2025-04-05T08:39:20Z</time>
      </trkpt>
      <trkpt lat="50.21375" lon="4.7816">
        <ele>242</ele>
        <time>2025-04-05T08:39:21Z</time>
      </trkpt>
      <trkpt lat="50.21375" lon="4.78154">
        <ele>242.2</ele>
        <time>2025-04-05T08:39:22Z</time>
      </trkpt>
      <trkpt lat="50.21376" lon="4.78148">
        <ele>242.2</ele>
        <time>2025-04-05T08:39:23Z</time>
      </trkpt>
      <trkpt lat="50.21375" lon="4.78141">
        <ele>242.2</ele>
        <time>2025-04-05T08:39:24Z</time>
      </trkpt>
      <trkpt lat="50.21376" lon="4.78135">
        <ele>242.2</ele>
        <time>2025-04-05T08:39:25Z</time>
      </trkpt>
      <trkpt lat="50.21376" lon="4.78129">
        <ele>242.2</ele>
        <time>2025-04-05T08:39:26Z</time>
      </trkpt>
      <trkpt lat="50.21376" lon="4.78122">
        <ele>242.4</ele>
        <time>2025-04-05T08:39:27Z</time>
      </trkpt>
      <trkpt lat="50.21376" lon="4.78115">
        <ele>242.4</ele>
        <time>2025-04-05T08:39:28Z</time>
      </trkpt>
      <trkpt lat="50.21376" lon="4.78108">
        <ele>242.6</ele>
        <time>2025-04-05T08:39:29Z</time>
      </trkpt>
      <trkpt lat="50.21376" lon="4.78102">
        <ele>242.6</ele>
        <time>2025-04-05T08:39:30Z</time>
      </trkpt>
      <trkpt lat="50.21376" lon="4.78095">
        <ele>242.8</ele>
        <time>2025-04-05T08:39:31Z</time>
      </trkpt>
      <trkpt lat="50.21376" lon="4.78089">
        <ele>242.8</ele>
        <time>2025-04-05T08:39:32Z</time>
      </trkpt>
      <trkpt lat="50.21376" lon="4.78081">
        <ele>243</ele>
        <time>2025-04-05T08:39:33Z</time>
      </trkpt>
      <trkpt lat="50.21376" lon="4.78074">
        <ele>243</ele>
        <time>2025-04-05T08:39:34Z</time>
      </trkpt>
      <trkpt lat="50.21377" lon="4.78067">
        <ele>243</ele>
        <time>2025-04-05T08:39:35Z</time>
      </trkpt>
      <trkpt lat="50.21377" lon="4.78061">
        <ele>243.2</ele>
        <time>2025-04-05T08:39:36Z</time>
      </trkpt>
      <trkpt lat="50.21377" lon="4.78054">
        <ele>243.2</ele>
        <time>2025-04-05T08:39:37Z</time>
      </trkpt>
      <trkpt lat="50.21377" lon="4.78048">
        <ele>243.2</ele>
        <time>2025-04-05T08:39:38Z</time>
      </trkpt>
      <trkpt lat="50.21377" lon="4.78041">
        <ele>243</ele>
        <time>2025-04-05T08:39:39Z</time>
      </trkpt>
      <trkpt lat="50.21377" lon="4.78035">
        <ele>243</ele>
        <time>2025-04-05T08:39:40Z</time>
      </trkpt>
      <trkpt lat="50.21377" lon="4.78027">
        <ele>243</ele>
        <time>2025-04-05T08:39:41Z</time>
      </trkpt>
      <trkpt lat="50.21377" lon="4.78019">
        <ele>243</ele>
        <time>2025-04-05T08:39:42Z</time>
      </trkpt>
      <trkpt lat="50.21377" lon="4.78011">
        <ele>243</ele>
        <time>2025-04-05T08:39:43Z</time>
      </trkpt>
      <trkpt lat="50.21377" lon="4.78004">
        <ele>243</ele>
        <time>2025-04-05T08:39:44Z</time>
      </trkpt>
      <trkpt lat="50.21377" lon="4.77998">
        <ele>243</ele>
        <time>2025-04-05T08:39:45Z</time>
      </trkpt>
      <trkpt lat="50.21377" lon="4.77991">
        <ele>242.8</ele>
        <time>2025-04-05T08:39:46Z</time>
      </trkpt>
      <trkpt lat="50.21377" lon="4.77982">
        <ele>242.8</ele>
        <time>2025-04-05T08:39:47Z</time>
      </trkpt>
      <trkpt lat="50.21377" lon="4.77975">
        <ele>242.6</ele>
        <time>2025-04-05T08:39:48Z</time>
      </trkpt>
      <trkpt lat="50.21377" lon="4.77968">
        <ele>242.4</ele>
        <time>2025-04-05T08:39:49Z</time>
      </trkpt>
      <trkpt lat="50.21377" lon="4.77958">
        <ele>242.4</ele>
        <time>2025-04-05T08:39:50Z</time>
      </trkpt>
      <trkpt lat="50.21377" lon="4.77949">
        <ele>242.2</ele>
        <time>2025-04-05T08:39:51Z</time>
      </trkpt>
      <trkpt lat="50.21377" lon="4.77941">
        <ele>242</ele>
        <time>2025-04-05T08:39:52Z</time>
      </trkpt>
      <trkpt lat="50.21378" lon="4.77935">
        <ele>241.8</ele>
        <time>2025-04-05T08:39:53Z</time>
      </trkpt>
      <trkpt lat="50.21378" lon="4.77928">
        <ele>241.8</ele>
        <time>2025-04-05T08:39:54Z</time>
      </trkpt>
      <trkpt lat="50.21378" lon="4.7792">
        <ele>241.8</ele>
        <time>2025-04-05T08:39:55Z</time>
      </trkpt>
      <trkpt lat="50.21378" lon="4.77912">
        <ele>241.8</ele>
        <time>2025-04-05T08:39:56Z</time>
      </trkpt>
      <trkpt lat="50.21378" lon="4.77904">
        <ele>241.8</ele>
        <time>2025-04-05T08:39:57Z</time>
      </trkpt>
      <trkpt lat="50.21378" lon="4.77896">
        <ele>242</ele>
        <time>2025-04-05T08:39:58Z</time>
      </trkpt>
      <trkpt lat="50.21378" lon="4.77888">
        <ele>242</ele>
        <time>2025-04-05T08:39:59Z</time>
      </trkpt>
      <trkpt lat="50.21378" lon="4.77879">
        <ele>242.2</ele>
        <time>2025-04-05T08:40:00Z</time>
      </trkpt>
      <trkpt lat="50.21378" lon="4.77873">
        <ele>242.2</ele>
        <time>2025-04-05T08:40:01Z</time>
      </trkpt>
      <trkpt lat="50.21378" lon="4.77865">
        <ele>242.4</ele>
        <time>2025-04-05T08:40:02Z</time>
      </trkpt>
      <trkpt lat="50.21378" lon="4.77856">
        <ele>242.4</ele>
        <time>2025-04-05T08:40:03Z</time>
      </trkpt>
      <trkpt lat="50.21378" lon="4.77849">
        <ele>242.4</ele>
        <time>2025-04-05T08:40:04Z</time>
      </trkpt>
      <trkpt lat="50.21378" lon="4.77843">
        <ele>242.4</ele>
        <time>2025-04-05T08:40:05Z</time>
      </trkpt>
      <trkpt lat="50.21378" lon="4.77836">
        <ele>242.4</ele>
        <time>2025-04-05T08:40:06Z</time>
      </trkpt>
      <trkpt lat="50.21378" lon="4.77829">
        <ele>242.4</ele>
        <time>2025-04-05T08:40:07Z</time>
      </trkpt>
      <trkpt lat="50.21378" lon="4.77821">
        <ele>242.6</ele>
        <time>2025-04-05T08:40:08Z</time>
      </trkpt>
      <trkpt lat="50.21378" lon="4.77814">
        <ele>242.6</ele>
        <time>2025-04-05T08:40:09Z</time>
      </trkpt>
      <trkpt lat="50.21378" lon="4.77807">
        <ele>242.8</ele>
        <time>2025-04-05T08:40:10Z</time>
      </trkpt>
      <trkpt lat="50.21378" lon="4.778">
        <ele>243</ele>
        <time>2025-04-05T08:40:11Z</time>
      </trkpt>
      <trkpt lat="50.21378" lon="4.77793">
        <ele>243</ele>
        <time>2025-04-05T08:40:12Z</time>
      </trkpt>
      <trkpt lat="50.21378" lon="4.77784">
        <ele>243.2</ele>
        <time>2025-04-05T08:40:13Z</time>
      </trkpt>
      <trkpt lat="50.21378" lon="4.77778">
        <ele>243.2</ele>
        <time>2025-04-05T08:40:14Z</time>
      </trkpt>
      <trkpt lat="50.21378" lon="4.77771">
        <ele>243.2</ele>
        <time>2025-04-05T08:40:15Z</time>
      </trkpt>
      <trkpt lat="50.21378" lon="4.77762">
        <ele>243.4</ele>
        <time>2025-04-05T08:40:16Z</time>
      </trkpt>
      <trkpt lat="50.21379" lon="4.77757">
        <ele>243.4</ele>
        <time>2025-04-05T08:40:17Z</time>
      </trkpt>
      <trkpt lat="50.21379" lon="4.7775">
        <ele>243.4</ele>
        <time>2025-04-05T08:40:18Z</time>
      </trkpt>
      <trkpt lat="50.21379" lon="4.77744">
        <ele>243.6</ele>
        <time>2025-04-05T08:40:19Z</time>
      </trkpt>
      <trkpt lat="50.2138" lon="4.77737">
        <ele>243.6</ele>
        <time>2025-04-05T08:40:20Z</time>
      </trkpt>
      <trkpt lat="50.21379" lon="4.77728">
        <ele>243.8</ele>
        <time>2025-04-05T08:40:21Z</time>
      </trkpt>
      <trkpt lat="50.21379" lon="4.77721">
        <ele>243.8</ele>
        <time>2025-04-05T08:40:22Z</time>
      </trkpt>
      <trkpt lat="50.21379" lon="4.77715">
        <ele>243.8</ele>
        <time>2025-04-05T08:40:23Z</time>
      </trkpt>
      <trkpt lat="50.21379" lon="4.77708">
        <ele>243.8</ele>
        <time>2025-04-05T08:40:24Z</time>
      </trkpt>
      <trkpt lat="50.21379" lon="4.777">
        <ele>244</ele>
        <time>2025-04-05T08:40:25Z</time>
      </trkpt>
      <trkpt lat="50.21379" lon="4.77694">
        <ele>244</ele>
        <time>2025-04-05T08:40:26Z</time>
      </trkpt>
      <trkpt lat="50.21379" lon="4.77687">
        <ele>244</ele>
        <time>2025-04-05T08:40:27Z</time>
      </trkpt>
      <trkpt lat="50.21379" lon="4.77681">
        <ele>244.2</ele>
        <time>2025-04-05T08:40:28Z</time>
      </trkpt>
      <trkpt lat="50.21379" lon="4.77674">
        <ele>244.2</ele>
        <time>2025-04-05T08:40:29Z</time>
      </trkpt>
      <trkpt lat="50.21379" lon="4.77668">
        <ele>244.2</ele>
        <time>2025-04-05T08:40:30Z</time>
      </trkpt>
      <trkpt lat="50.2138" lon="4.77661">
        <ele>244.4</ele>
        <time>2025-04-05T08:40:31Z</time>
      </trkpt>
      <trkpt lat="50.2138" lon="4.77654">
        <ele>244.4</ele>
        <time>2025-04-05T08:40:32Z</time>
      </trkpt>
      <trkpt lat="50.2138" lon="4.77647">
        <ele>244.6</ele>
        <time>2025-04-05T08:40:33Z</time>
      </trkpt>
      <trkpt lat="50.2138" lon="4.77639">
        <ele>244.8</ele>
        <time>2025-04-05T08:40:34Z</time>
      </trkpt>
      <trkpt lat="50.2138" lon="4.77634">
        <ele>245</ele>
        <time>2025-04-05T08:40:35Z</time>
      </trkpt>
      <trkpt lat="50.2138" lon="4.77627">
        <ele>245</ele>
        <time>2025-04-05T08:40:36Z</time>
      </trkpt>
      <trkpt lat="50.2138" lon="4.77621">
        <ele>245</ele>
        <time>2025-04-05T08:40:37Z</time>
      </trkpt>
      <trkpt lat="50.2138" lon="4.77613">
        <ele>245.2</ele>
        <time>2025-04-05T08:40:38Z</time>
      </trkpt>
      <trkpt lat="50.2138" lon="4.77608">
        <ele>245.4</ele>
        <time>2025-04-05T08:40:39Z</time>
      </trkpt>
      <trkpt lat="50.2138" lon="4.77602">
        <ele>245.4</ele>
        <time>2025-04-05T08:40:40Z</time>
      </trkpt>
      <trkpt lat="50.2138" lon="4.77595">
        <ele>245.4</ele>
        <time>2025-04-05T08:40:41Z</time>
      </trkpt>
      <trkpt lat="50.2138" lon="4.77589">
        <ele>245.6</ele>
        <time>2025-04-05T08:40:42Z</time>
      </trkpt>
      <trkpt lat="50.2138" lon="4.77582">
        <ele>245.8</ele>
        <time>2025-04-05T08:40:43Z</time>
      </trkpt>
      <trkpt lat="50.2138" lon="4.77575">
        <ele>245.8</ele>
        <time>2025-04-05T08:40:44Z</time>
      </trkpt>
      <trkpt lat="50.21381" lon="4.7757">
        <ele>246</ele>
        <time>2025-04-05T08:40:45Z</time>
      </trkpt>
      <trkpt lat="50.21381" lon="4.77563">
        <ele>246</ele>
        <time>2025-04-05T08:40:46Z</time>
      </trkpt>
      <trkpt lat="50.21381" lon="4.77556">
        <ele>246</ele>
        <time>2025-04-05T08:40:47Z</time>
      </trkpt>
      <trkpt lat="50.21381" lon="4.7755">
        <ele>246.2</ele>
        <time>2025-04-05T08:40:48Z</time>
      </trkpt>
      <trkpt lat="50.21381" lon="4.77544">
        <ele>246.4</ele>
        <time>2025-04-05T08:40:49Z</time>
      </trkpt>
      <trkpt lat="50.21381" lon="4.77537">
        <ele>246.6</ele>
        <time>2025-04-05T08:40:50Z</time>
      </trkpt>
      <trkpt lat="50.21381" lon="4.77531">
        <ele>246.6</ele>
        <time>2025-04-05T08:40:51Z</time>
      </trkpt>
      <trkpt lat="50.21382" lon="4.77525">
        <ele>246.8</ele>
        <time>2025-04-05T08:40:52Z</time>
      </trkpt>
      <trkpt lat="50.21383" lon="4.77517">
        <ele>247</ele>
        <time>2025-04-05T08:40:53Z</time>
      </trkpt>
      <trkpt lat="50.21383" lon="4.77512">
        <ele>247</ele>
        <time>2025-04-05T08:40:54Z</time>
      </trkpt>
      <trkpt lat="50.21383" lon="4.77504">
        <ele>247.2</ele>
        <time>2025-04-05T08:40:55Z</time>
      </trkpt>
      <trkpt lat="50.21382" lon="4.77498">
        <ele>247.2</ele>
        <time>2025-04-05T08:40:56Z</time>
      </trkpt>
      <trkpt lat="50.21382" lon="4.77493">
        <ele>247.4</ele>
        <time>2025-04-05T08:40:57Z</time>
      </trkpt>
      <trkpt lat="50.21382" lon="4.77487">
        <ele>247.6</ele>
        <time>2025-04-05T08:40:58Z</time>
      </trkpt>
      <trkpt lat="50.21382" lon="4.77482">
        <ele>247.8</ele>
        <time>2025-04-05T08:40:59Z</time>
      </trkpt>
      <trkpt lat="50.21382" lon="4.77476">
        <ele>248</ele>
        <time>2025-04-05T08:41:00Z</time>
      </trkpt>
      <trkpt lat="50.21382" lon="4.7747">
        <ele>248.2</ele>
        <time>2025-04-05T08:41:01Z</time>
      </trkpt>
      <trkpt lat="50.21382" lon="4.77464">
        <ele>248.4</ele>
        <time>2025-04-05T08:41:02Z</time>
      </trkpt>
      <trkpt lat="50.21382" lon="4.77459">
        <ele>248.6</ele>
        <time>2025-04-05T08:41:03Z</time>
      </trkpt>
      <trkpt lat="50.21382" lon="4.77454">
        <ele>248.8</ele>
        <time>2025-04-05T08:41:04Z</time>
      </trkpt>
      <trkpt lat="50.21382" lon="4.77447">
        <ele>249</ele>
        <time>2025-04-05T08:41:05Z</time>
      </trkpt>
      <trkpt lat="50.21382" lon="4.77443">
        <ele>249.2</ele>
        <time>2025-04-05T08:41:06Z</time>
      </trkpt>
      <trkpt lat="50.21381" lon="4.77437">
        <ele>249.2</ele>
        <time>2025-04-05T08:41:07Z</time>
      </trkpt>
      <trkpt lat="50.21381" lon="4.77431">
        <ele>249.4</ele>
        <time>2025-04-05T08:41:08Z</time>
      </trkpt>
      <trkpt lat="50.21381" lon="4.77425">
        <ele>249.6</ele>
        <time>2025-04-05T08:41:09Z</time>
      </trkpt>
      <trkpt lat="50.21382" lon="4.77419">
        <ele>249.8</ele>
        <time>2025-04-05T08:41:10Z</time>
      </trkpt>
      <trkpt lat="50.21382" lon="4.77414">
        <ele>249.8</ele>
        <time>2025-04-05T08:41:11Z</time>
      </trkpt>
      <trkpt lat="50.21382" lon="4.77409">
        <ele>250</ele>
        <time>2025-04-05T08:41:12Z</time>
      </trkpt>
      <trkpt lat="50.21382" lon="4.77402">
        <ele>250</ele>
        <time>2025-04-05T08:41:13Z</time>
      </trkpt>
      <trkpt lat="50.21382" lon="4.77396">
        <ele>250.2</ele>
        <time>2025-04-05T08:41:14Z</time>
      </trkpt>
      <trkpt lat="50.21383" lon="4.77389">
        <ele>250.2</ele>
        <time>2025-04-05T08:41:15Z</time>
      </trkpt>
      <trkpt lat="50.21383" lon="4.77383">
        <ele>250.2</ele>
        <time>2025-04-05T08:41:16Z</time>
      </trkpt>
      <trkpt lat="50.21383" lon="4.77374">
        <ele>250.2</ele>
        <time>2025-04-05T08:41:17Z</time>
      </trkpt>
      <trkpt lat="50.21383" lon="4.77369">
        <ele>250.4</ele>
        <time>2025-04-05T08:41:18Z</time>
      </trkpt>
      <trkpt lat="50.21383" lon="4.77363">
        <ele>250.4</ele>
        <time>2025-04-05T08:41:19Z</time>
      </trkpt>
      <trkpt lat="50.21383" lon="4.77356">
        <ele>250.6</ele>
        <time>2025-04-05T08:41:20Z</time>
      </trkpt>
      <trkpt lat="50.21383" lon="4.77351">
        <ele>250.6</ele>
        <time>2025-04-05T08:41:21Z</time>
      </trkpt>
      <trkpt lat="50.21383" lon="4.77345">
        <ele>250.8</ele>
        <time>2025-04-05T08:41:22Z</time>
      </trkpt>
      <trkpt lat="50.21383" lon="4.77338">
        <ele>251</ele>
        <time>2025-04-05T08:41:23Z</time>
      </trkpt>
      <trkpt lat="50.21383" lon="4.77334">
        <ele>251.2</ele>
        <time>2025-04-05T08:41:24Z</time>
      </trkpt>
      <trkpt lat="50.21383" lon="4.77328">
        <ele>251.2</ele>
        <time>2025-04-05T08:41:25Z</time>
      </trkpt>
      <trkpt lat="50.21383" lon="4.7732">
        <ele>251.4</ele>
        <time>2025-04-05T08:41:26Z</time>
      </trkpt>
      <trkpt lat="50.21383" lon="4.77315">
        <ele>251.6</ele>
        <time>2025-04-05T08:41:27Z</time>
      </trkpt>
      <trkpt lat="50.21383" lon="4.77309">
        <ele>251.8</ele>
        <time>2025-04-05T08:41:28Z</time>
      </trkpt>
      <trkpt lat="50.21383" lon="4.77303">
        <ele>251.8</ele>
        <time>2025-04-05T08:41:29Z</time>
      </trkpt>
      <trkpt lat="50.21384" lon="4.77297">
        <ele>252</ele>
        <time>2025-04-05T08:41:30Z</time>
      </trkpt>
      <trkpt lat="50.21384" lon="4.7729">
        <ele>252.2</ele>
        <time>2025-04-05T08:41:31Z</time>
      </trkpt>
      <trkpt lat="50.21383" lon="4.77285">
        <ele>252.2</ele>
        <time>2025-04-05T08:41:32Z</time>
      </trkpt>
      <trkpt lat="50.21384" lon="4.77279">
        <ele>252.4</ele>
        <time>2025-04-05T08:41:33Z</time>
      </trkpt>
      <trkpt lat="50.21384" lon="4.77273">
        <ele>252.6</ele>
        <time>2025-04-05T08:41:34Z</time>
      </trkpt>
      <trkpt lat="50.21384" lon="4.77267">
        <ele>252.6</ele>
        <time>2025-04-05T08:41:35Z</time>
      </trkpt>
      <trkpt lat="50.21384" lon="4.77262">
        <ele>252.8</ele>
        <time>2025-04-05T08:41:36Z</time>
      </trkpt>
      <trkpt lat="50.21384" lon="4.77256">
        <ele>253</ele>
        <time>2025-04-05T08:41:37Z</time>
      </trkpt>
      <trkpt lat="50.21384" lon="4.7725">
        <ele>253.2</ele>
        <time>2025-04-05T08:41:38Z</time>
      </trkpt>
      <trkpt lat="50.21384" lon="4.77244">
        <ele>253.4</ele>
        <time>2025-04-05T08:41:39Z</time>
      </trkpt>
      <trkpt lat="50.21384" lon="4.77239">
        <ele>253.6</ele>
        <time>2025-04-05T08:41:40Z</time>
      </trkpt>
      <trkpt lat="50.21384" lon="4.77233">
        <ele>253.8</ele>
        <time>2025-04-05T08:41:41Z</time>
      </trkpt>
      <trkpt lat="50.21384" lon="4.77228">
        <ele>254</ele>
        <time>2025-04-05T08:41:42Z</time>
      </trkpt>
      <trkpt lat="50.21384" lon="4.77222">
        <ele>254.2</ele>
        <time>2025-04-05T08:41:43Z</time>
      </trkpt>
      <trkpt lat="50.21384" lon="4.77216">
        <ele>254.4</ele>
        <time>2025-04-05T08:41:44Z</time>
      </trkpt>
      <trkpt lat="50.21384" lon="4.77211">
        <ele>254.4</ele>
        <time>2025-04-05T08:41:45Z</time>
      </trkpt>
      <trkpt lat="50.21384" lon="4.77206">
        <ele>254.6</ele>
        <time>2025-04-05T08:41:46Z</time>
      </trkpt>
      <trkpt lat="50.21384" lon="4.772">
        <ele>254.8</ele>
        <time>2025-04-05T08:41:47Z</time>
      </trkpt>
      <trkpt lat="50.21384" lon="4.77195">
        <ele>255</ele>
        <time>2025-04-05T08:41:48Z</time>
      </trkpt>
      <trkpt lat="50.21384" lon="4.77189">
        <ele>255.2</ele>
        <time>2025-04-05T08:41:49Z</time>
      </trkpt>
      <trkpt lat="50.21384" lon="4.77184">
        <ele>255.4</ele>
        <time>2025-04-05T08:41:50Z</time>
      </trkpt>
      <trkpt lat="50.21384" lon="4.7718">
        <ele>255.6</ele>
        <time>2025-04-05T08:41:51Z</time>
      </trkpt>
      <trkpt lat="50.21384" lon="4.77175">
        <ele>255.8</ele>
        <time>2025-04-05T08:41:52Z</time>
      </trkpt>
      <trkpt lat="50.21385" lon="4.77169">
        <ele>256</ele>
        <time>2025-04-05T08:41:53Z</time>
      </trkpt>
      <trkpt lat="50.21385" lon="4.77163">
        <ele>256.2</ele>
        <time>2025-04-05T08:41:54Z</time>
      </trkpt>
      <trkpt lat="50.21386" lon="4.77158">
        <ele>256.4</ele>
        <time>2025-04-05T08:41:55Z</time>
      </trkpt>
      <trkpt lat="50.21386" lon="4.77153">
        <ele>256.6</ele>
        <time>2025-04-05T08:41:56Z</time>
      </trkpt>
      <trkpt lat="50.21386" lon="4.77148">
        <ele>256.8</ele>
        <time>2025-04-05T08:41:57Z</time>
      </trkpt>
      <trkpt lat="50.21387" lon="4.77142">
        <ele>257</ele>
        <time>2025-04-05T08:41:58Z</time>
      </trkpt>
      <trkpt lat="50.21388" lon="4.77137">
        <ele>257.2</ele>
        <time>2025-04-05T08:41:59Z</time>
      </trkpt>
      <trkpt lat="50.21389" lon="4.77131">
        <ele>257.2</ele>
        <time>2025-04-05T08:42:00Z</time>
      </trkpt>
      <trkpt lat="50.21389" lon="4.77126">
        <ele>257.4</ele>
        <time>2025-04-05T08:42:01Z</time>
      </trkpt>
      <trkpt lat="50.21388" lon="4.77121">
        <ele>257.6</ele>
        <time>2025-04-05T08:42:02Z</time>
      </trkpt>
      <trkpt lat="50.21389" lon="4.77115">
        <ele>257.8</ele>
        <time>2025-04-05T08:42:03Z</time>
      </trkpt>
      <trkpt lat="50.21388" lon="4.7711">
        <ele>258</ele>
        <time>2025-04-05T08:42:04Z</time>
      </trkpt>
      <trkpt lat="50.21388" lon="4.77105">
        <ele>258.2</ele>
        <time>2025-04-05T08:42:05Z</time>
      </trkpt>
      <trkpt lat="50.21388" lon="4.771">
        <ele>258.4</ele>
        <time>2025-04-05T08:42:06Z</time>
      </trkpt>
      <trkpt lat="50.21388" lon="4.77094">
        <ele>258.6</ele>
        <time>2025-04-05T08:42:07Z</time>
      </trkpt>
      <trkpt lat="50.21388" lon="4.77091">
        <ele>258.8</ele>
        <time>2025-04-05T08:42:08Z</time>
      </trkpt>
      <trkpt lat="50.21388" lon="4.77087">
        <ele>259</ele>
        <time>2025-04-05T08:42:09Z</time>
      </trkpt>
      <trkpt lat="50.21388" lon="4.77081">
        <ele>259.2</ele>
        <time>2025-04-05T08:42:10Z</time>
      </trkpt>
      <trkpt lat="50.21389" lon="4.77075">
        <ele>259.2</ele>
        <time>2025-04-05T08:42:11Z</time>
      </trkpt>
      <trkpt lat="50.21389" lon="4.7707">
        <ele>259.4</ele>
        <time>2025-04-05T08:42:12Z</time>
      </trkpt>
      <trkpt lat="50.2139" lon="4.77066">
        <ele>259.6</ele>
        <time>2025-04-05T08:42:13Z</time>
      </trkpt>
      <trkpt lat="50.2139" lon="4.7706">
        <ele>259.8</ele>
        <time>2025-04-05T08:42:14Z</time>
      </trkpt>
      <trkpt lat="50.2139" lon="4.77056">
        <ele>260</ele>
        <time>2025-04-05T08:42:15Z</time>
      </trkpt>
      <trkpt lat="50.2139" lon="4.77051">
        <ele>260.2</ele>
        <time>2025-04-05T08:42:16Z</time>
      </trkpt>
      <trkpt lat="50.21391" lon="4.77047">
        <ele>260.4</ele>
        <time>2025-04-05T08:42:17Z</time>
      </trkpt>
      <trkpt lat="50.21391" lon="4.77042">
        <ele>260.6</ele>
        <time>2025-04-05T08:42:18Z</time>
      </trkpt>
      <trkpt lat="50.21391" lon="4.77038">
        <ele>260.8</ele>
        <time>2025-04-05T08:42:19Z</time>
      </trkpt>
      <trkpt lat="50.2139" lon="4.77033">
        <ele>261</ele>
        <time>2025-04-05T08:42:20Z</time>
      </trkpt>
      <trkpt lat="50.2139" lon="4.77029">
        <ele>261</ele>
        <time>2025-04-05T08:42:21Z</time>
      </trkpt>
      <trkpt lat="50.2139" lon="4.77024">
        <ele>261.2</ele>
        <time>2025-04-05T08:42:22Z</time>
      </trkpt>
      <trkpt lat="50.2139" lon="4.77018">
        <ele>261.4</ele>
        <time>2025-04-05T08:42:23Z</time>
      </trkpt>
      <trkpt lat="50.2139" lon="4.77013">
        <ele>261.6</ele>
        <time>2025-04-05T08:42:24Z</time>
      </trkpt>
      <trkpt lat="50.21391" lon="4.77008">
        <ele>261.8</ele>
        <time>2025-04-05T08:42:25Z</time>
      </trkpt>
      <trkpt lat="50.21392" lon="4.77003">
        <ele>262</ele>
        <time>2025-04-05T08:42:26Z</time>
      </trkpt>
      <trkpt lat="50.21392" lon="4.76999">
        <ele>262.2</ele>
        <time>2025-04-05T08:42:27Z</time>
      </trkpt>
      <trkpt lat="50.21392" lon="4.76993">
        <ele>262.2</ele>
        <time>2025-04-05T08:42:28Z</time>
      </trkpt>
      <trkpt lat="50.21392" lon="4.76988">
        <ele>262.4</ele>
        <time>2025-04-05T08:42:29Z</time>
      </trkpt>
      <trkpt lat="50.21391" lon="4.76982">
        <ele>262.6</ele>
        <time>2025-04-05T08:42:30Z</time>
      </trkpt>
      <trkpt lat="50.21391" lon="4.76977">
        <ele>262.8</ele>
        <time>2025-04-05T08:42:31Z</time>
      </trkpt>
      <trkpt lat="50.21391" lon="4.76972">
        <ele>263</ele>
        <time>2025-04-05T08:42:32Z</time>
      </trkpt>
      <trkpt lat="50.21391" lon="4.76967">
        <ele>263.2</ele>
        <time>2025-04-05T08:42:33Z</time>
      </trkpt>
      <trkpt lat="50.2139" lon="4.76962">
        <ele>263.4</ele>
        <time>2025-04-05T08:42:34Z</time>
      </trkpt>
      <trkpt lat="50.2139" lon="4.76956">
        <ele>263.6</ele>
        <time>2025-04-05T08:42:35Z</time>
      </trkpt>
      <trkpt lat="50.21388" lon="4.76949">
        <ele>263.6</ele>
        <time>2025-04-05T08:42:36Z</time>
      </trkpt>
      <trkpt lat="50.21388" lon="4.76943">
        <ele>263.8</ele>
        <time>2025-04-05T08:42:37Z</time>
      </trkpt>
      <trkpt lat="50.21386" lon="4.76938">
        <ele>264</ele>
        <time>2025-04-05T08:42:38Z</time>
      </trkpt>
      <trkpt lat="50.21385" lon="4.76933">
        <ele>264</ele>
        <time>2025-04-05T08:42:39Z</time>
      </trkpt>
      <trkpt lat="50.21384" lon="4.76927">
        <ele>264.2</ele>
        <time>2025-04-05T08:42:40Z</time>
      </trkpt>
      <trkpt lat="50.21383" lon="4.76922">
        <ele>264.4</ele>
        <time>2025-04-05T08:42:41Z</time>
      </trkpt>
      <trkpt lat="50.21382" lon="4.76916">
        <ele>264.4</ele>
        <time>2025-04-05T08:42:42Z</time>
      </trkpt>
      <trkpt lat="50.21381" lon="4.76912">
        <ele>264.6</ele>
        <time>2025-04-05T08:42:43Z</time>
      </trkpt>
      <trkpt lat="50.21381" lon="4.76906">
        <ele>264.8</ele>
        <time>2025-04-05T08:42:44Z</time>
      </trkpt>
      <trkpt lat="50.21381" lon="4.769">
        <ele>265</ele>
        <time>2025-04-05T08:42:45Z</time>
      </trkpt>
      <trkpt lat="50.2138" lon="4.76896">
        <ele>265</ele>
        <time>2025-04-05T08:42:46Z</time>
      </trkpt>
      <trkpt lat="50.2138" lon="4.7689">
        <ele>265.2</ele>
        <time>2025-04-05T08:42:47Z</time>
      </trkpt>
      <trkpt lat="50.21379" lon="4.76882">
        <ele>265.2</ele>
        <time>2025-04-05T08:42:48Z</time>
      </trkpt>
      <trkpt lat="50.2138" lon="4.76878">
        <ele>265.4</ele>
        <time>2025-04-05T08:42:49Z</time>
      </trkpt>
      <trkpt lat="50.21378" lon="4.76872">
        <ele>265.4</ele>
        <time>2025-04-05T08:42:50Z</time>
      </trkpt>
      <trkpt lat="50.21376" lon="4.76867">
        <ele>265.6</ele>
        <time>2025-04-05T08:42:51Z</time>
      </trkpt>
      <trkpt lat="50.21375" lon="4.76862">
        <ele>265.8</ele>
        <time>2025-04-05T08:42:52Z</time>
      </trkpt>
      <trkpt lat="50.21375" lon="4.76856">
        <ele>265.8</ele>
        <time>2025-04-05T08:42:53Z</time>
      </trkpt>
      <trkpt lat="50.21372" lon="4.76848">
        <ele>265.8</ele>
        <time>2025-04-05T08:42:54Z</time>
      </trkpt>
      <trkpt lat="50.2137" lon="4.76842">
        <ele>266</ele>
        <time>2025-04-05T08:42:55Z</time>
      </trkpt>
      <trkpt lat="50.21372" lon="4.76837">
        <ele>266</ele>
        <time>2025-04-05T08:42:56Z</time>
      </trkpt>
      <trkpt lat="50.21372" lon="4.7683">
        <ele>266.2</ele>
        <time>2025-04-05T08:42:57Z</time>
      </trkpt>
      <trkpt lat="50.21371" lon="4.76823">
        <ele>266.2</ele>
        <time>2025-04-05T08:42:58Z</time>
      </trkpt>
      <trkpt lat="50.21368" lon="4.76818">
        <ele>266.4</ele>
        <time>2025-04-05T08:42:59Z</time>
      </trkpt>
      <trkpt lat="50.21368" lon="4.76812">
        <ele>266.4</ele>
        <time>2025-04-05T08:43:00Z</time>
      </trkpt>
      <trkpt lat="50.21367" lon="4.76806">
        <ele>266.6</ele>
        <time>2025-04-05T08:43:01Z</time>
      </trkpt>
      <trkpt lat="50.21365" lon="4.76801">
        <ele>266.6</ele>
        <time>2025-04-05T08:43:02Z</time>
      </trkpt>
      <trkpt lat="50.21364" lon="4.76795">
        <ele>266.8</ele>
        <time>2025-04-05T08:43:03Z</time>
      </trkpt>
      <trkpt lat="50.21365" lon="4.7679">
        <ele>266.8</ele>
        <time>2025-04-05T08:43:04Z</time>
      </trkpt>
      <trkpt lat="50.21365" lon="4.76783">
        <ele>267</ele>
        <time>2025-04-05T08:43:05Z</time>
      </trkpt>
      <trkpt lat="50.21365" lon="4.76777">
        <ele>267.2</ele>
        <time>2025-04-05T08:43:06Z</time>
      </trkpt>
      <trkpt lat="50.21365" lon="4.76773">
        <ele>267.2</ele>
        <time>2025-04-05T08:43:07Z</time>
      </trkpt>
      <trkpt lat="50.21364" lon="4.76766">
        <ele>267.4</ele>
        <time>2025-04-05T08:43:08Z</time>
      </trkpt>
      <trkpt lat="50.21364" lon="4.76762">
        <ele>267.4</ele>
        <time>2025-04-05T08:43:09Z</time>
      </trkpt>
      <trkpt lat="50.21363" lon="4.76756">
        <ele>267.6</ele>
        <time>2025-04-05T08:43:10Z</time>
      </trkpt>
      <trkpt lat="50.21362" lon="4.76749">
        <ele>267.6</ele>
        <time>2025-04-05T08:43:11Z</time>
      </trkpt>
      <trkpt lat="50.21362" lon="4.76743">
        <ele>267.8</ele>
        <time>2025-04-05T08:43:12Z</time>
      </trkpt>
      <trkpt lat="50.21362" lon="4.76739">
        <ele>267.8</ele>
        <time>2025-04-05T08:43:13Z</time>
      </trkpt>
      <trkpt lat="50.21361" lon="4.76733">
        <ele>267.8</ele>
        <time>2025-04-05T08:43:14Z</time>
      </trkpt>
      <trkpt lat="50.21361" lon="4.76726">
        <ele>267.8</ele>
        <time>2025-04-05T08:43:15Z</time>
      </trkpt>
      <trkpt lat="50.21361" lon="4.76719">
        <ele>268</ele>
        <time>2025-04-05T08:43:16Z</time>
      </trkpt>
      <trkpt lat="50.21361" lon="4.76714">
        <ele>268</ele>
        <time>2025-04-05T08:43:17Z</time>
      </trkpt>
      <trkpt lat="50.21362" lon="4.76707">
        <ele>268</ele>
        <time>2025-04-05T08:43:18Z</time>
      </trkpt>
      <trkpt lat="50.21362" lon="4.76699">
        <ele>268</ele>
        <time>2025-04-05T08:43:19Z</time>
      </trkpt>
      <trkpt lat="50.21362" lon="4.76693">
        <ele>268.2</ele>
        <time>2025-04-05T08:43:20Z</time>
      </trkpt>
      <trkpt lat="50.21362" lon="4.76686">
        <ele>268.2</ele>
        <time>2025-04-05T08:43:21Z</time>
      </trkpt>
      <trkpt lat="50.21363" lon="4.7668">
        <ele>268.2</ele>
        <time>2025-04-05T08:43:22Z</time>
      </trkpt>
      <trkpt lat="50.21363" lon="4.76673">
        <ele>268.2</ele>
        <time>2025-04-05T08:43:23Z</time>
      </trkpt>
      <trkpt lat="50.21363" lon="4.76666">
        <ele>268.2</ele>
        <time>2025-04-05T08:43:24Z</time>
      </trkpt>
      <trkpt lat="50.21363" lon="4.76659">
        <ele>268.4</ele>
        <time>2025-04-05T08:43:25Z</time>
      </trkpt>
      <trkpt lat="50.21364" lon="4.76653">
        <ele>268.4</ele>
        <time>2025-04-05T08:43:26Z</time>
      </trkpt>
      <trkpt lat="50.21364" lon="4.76647">
        <ele>268.4</ele>
        <time>2025-04-05T08:43:27Z</time>
      </trkpt>
      <trkpt lat="50.21365" lon="4.7664">
        <ele>268.4</ele>
        <time>2025-04-05T08:43:28Z</time>
      </trkpt>
      <trkpt lat="50.21366" lon="4.76634">
        <ele>268.2</ele>
        <time>2025-04-05T08:43:29Z</time>
      </trkpt>
      <trkpt lat="50.21367" lon="4.76627">
        <ele>268.2</ele>
        <time>2025-04-05T08:43:30Z</time>
      </trkpt>
      <trkpt lat="50.21368" lon="4.7662">
        <ele>268.2</ele>
        <time>2025-04-05T08:43:31Z</time>
      </trkpt>
      <trkpt lat="50.21368" lon="4.76613">
        <ele>268.2</ele>
        <time>2025-04-05T08:43:32Z</time>
      </trkpt>
      <trkpt lat="50.2137" lon="4.76605">
        <ele>268.4</ele>
        <time>2025-04-05T08:43:33Z</time>
      </trkpt>
      <trkpt lat="50.21371" lon="4.76599">
        <ele>268.4</ele>
        <time>2025-04-05T08:43:34Z</time>
      </trkpt>
      <trkpt lat="50.21372" lon="4.76593">
        <ele>268.4</ele>
        <time>2025-04-05T08:43:35Z</time>
      </trkpt>
      <trkpt lat="50.21373" lon="4.76585">
        <ele>268.4</ele>
        <time>2025-04-05T08:43:36Z</time>
      </trkpt>
      <trkpt lat="50.21375" lon="4.76579">
        <ele>268.2</ele>
        <time>2025-04-05T08:43:37Z</time>
      </trkpt>
      <trkpt lat="50.21376" lon="4.76574">
        <ele>268.2</ele>
        <time>2025-04-05T08:43:38Z</time>
      </trkpt>
      <trkpt lat="50.21377" lon="4.76567">
        <ele>268.2</ele>
        <time>2025-04-05T08:43:39Z</time>
      </trkpt>
      <trkpt lat="50.21378" lon="4.7656">
        <ele>268.2</ele>
        <time>2025-04-05T08:43:40Z</time>
      </trkpt>
      <trkpt lat="50.2138" lon="4.76553">
        <ele>268.2</ele>
        <time>2025-04-05T08:43:41Z</time>
      </trkpt>
      <trkpt lat="50.21381" lon="4.76548">
        <ele>268.2</ele>
        <time>2025-04-05T08:43:42Z</time>
      </trkpt>
      <trkpt lat="50.21382" lon="4.76542">
        <ele>268.2</ele>
        <time>2025-04-05T08:43:43Z</time>
      </trkpt>
      <trkpt lat="50.21383" lon="4.76536">
        <ele>268.2</ele>
        <time>2025-04-05T08:43:44Z</time>
      </trkpt>
      <trkpt lat="50.21384" lon="4.7653">
        <ele>268</ele>
        <time>2025-04-05T08:43:45Z</time>
      </trkpt>
      <trkpt lat="50.21385" lon="4.76523">
        <ele>268.2</ele>
        <time>2025-04-05T08:43:46Z</time>
      </trkpt>
      <trkpt lat="50.21387" lon="4.76517">
        <ele>268.2</ele>
        <time>2025-04-05T08:43:47Z</time>
      </trkpt>
      <trkpt lat="50.21388" lon="4.76512">
        <ele>268.4</ele>
        <time>2025-04-05T08:43:48Z</time>
      </trkpt>
      <trkpt lat="50.21389" lon="4.76504">
        <ele>268.4</ele>
        <time>2025-04-05T08:43:49Z</time>
      </trkpt>
      <trkpt lat="50.21391" lon="4.76497">
        <ele>268.4</ele>
        <time>2025-04-05T08:43:50Z</time>
      </trkpt>
      <trkpt lat="50.21392" lon="4.76491">
        <ele>268.4</ele>
        <time>2025-04-05T08:43:51Z</time>
      </trkpt>
      <trkpt lat="50.21394" lon="4.76486">
        <ele>268.2</ele>
        <time>2025-04-05T08:43:52Z</time>
      </trkpt>
      <trkpt lat="50.21396" lon="4.76478">
        <ele>268.2</ele>
        <time>2025-04-05T08:43:53Z</time>
      </trkpt>
      <trkpt lat="50.21397" lon="4.76471">
        <ele>268</ele>
        <time>2025-04-05T08:43:54Z</time>
      </trkpt>
      <trkpt lat="50.21398" lon="4.76464">
        <ele>268</ele>
        <time>2025-04-05T08:43:55Z</time>
      </trkpt>
      <trkpt lat="50.21399" lon="4.76459">
        <ele>268</ele>
        <time>2025-04-05T08:43:56Z</time>
      </trkpt>
      <trkpt lat="50.214" lon="4.76451">
        <ele>267.8</ele>
        <time>2025-04-05T08:43:57Z</time>
      </trkpt>
      <trkpt lat="50.214" lon="4.76444">
        <ele>267.8</ele>
        <time>2025-04-05T08:43:58Z</time>
      </trkpt>
      <trkpt lat="50.21401" lon="4.76439">
        <ele>267.8</ele>
        <time>2025-04-05T08:43:59Z</time>
      </trkpt>
      <trkpt lat="50.21402" lon="4.7643">
        <ele>267.8</ele>
        <time>2025-04-05T08:44:00Z</time>
      </trkpt>
      <trkpt lat="50.21401" lon="4.76423">
        <ele>267.8</ele>
        <time>2025-04-05T08:44:01Z</time>
      </trkpt>
      <trkpt lat="50.21402" lon="4.76415">
        <ele>267.6</ele>
        <time>2025-04-05T08:44:02Z</time>
      </trkpt>
      <trkpt lat="50.21404" lon="4.76405">
        <ele>267.6</ele>
        <time>2025-04-05T08:44:03Z</time>
      </trkpt>
      <trkpt lat="50.21403" lon="4.76398">
        <ele>267.6</ele>
        <time>2025-04-05T08:44:04Z</time>
      </trkpt>
      <trkpt lat="50.21403" lon="4.7639">
        <ele>267.6</ele>
        <time>2025-04-05T08:44:05Z</time>
      </trkpt>
      <trkpt lat="50.21404" lon="4.76382">
        <ele>267.6</ele>
        <time>2025-04-05T08:44:06Z</time>
      </trkpt>
      <trkpt lat="50.21405" lon="4.76374">
        <ele>267.6</ele>
        <time>2025-04-05T08:44:07Z</time>
      </trkpt>
      <trkpt lat="50.21406" lon="4.76366">
        <ele>267.6</ele>
        <time>2025-04-05T08:44:08Z</time>
      </trkpt>
      <trkpt lat="50.21407" lon="4.76357">
        <ele>267.6</ele>
        <time>2025-04-05T08:44:09Z</time>
      </trkpt>
      <trkpt lat="50.21407" lon="4.76351">
        <ele>267.4</ele>
        <time>2025-04-05T08:44:10Z</time>
      </trkpt>
      <trkpt lat="50.21407" lon="4.76343">
        <ele>267.4</ele>
        <time>2025-04-05T08:44:11Z</time>
      </trkpt>
      <trkpt lat="50.21407" lon="4.76334">
        <ele>267.4</ele>
        <time>2025-04-05T08:44:12Z</time>
      </trkpt>
      <trkpt lat="50.21406" lon="4.76326">
        <ele>267.4</ele>
        <time>2025-04-05T08:44:13Z</time>
      </trkpt>
      <trkpt lat="50.21405" lon="4.76319">
        <ele>267.2</ele>
        <time>2025-04-05T08:44:14Z</time>
      </trkpt>
      <trkpt lat="50.21405" lon="4.76309">
        <ele>267.2</ele>
        <time>2025-04-05T08:44:15Z</time>
      </trkpt>
      <trkpt lat="50.21405" lon="4.76302">
        <ele>267</ele>
        <time>2025-04-05T08:44:16Z</time>
      </trkpt>
      <trkpt lat="50.21405" lon="4.76295">
        <ele>266.8</ele>
        <time>2025-04-05T08:44:17Z</time>
      </trkpt>
      <trkpt lat="50.21404" lon="4.76287">
        <ele>266.8</ele>
        <time>2025-04-05T08:44:18Z</time>
      </trkpt>
      <trkpt lat="50.21404" lon="4.7628">
        <ele>266.8</ele>
        <time>2025-04-05T08:44:19Z</time>
      </trkpt>
      <trkpt lat="50.21405" lon="4.76268">
        <ele>266.8</ele>
        <time>2025-04-05T08:44:20Z</time>
      </trkpt>
      <trkpt lat="50.21405" lon="4.7626">
        <ele>266.6</ele>
        <time>2025-04-05T08:44:21Z</time>
      </trkpt>
      <trkpt lat="50.21403" lon="4.76252">
        <ele>266.6</ele>
        <time>2025-04-05T08:44:22Z</time>
      </trkpt>
      <trkpt lat="50.21402" lon="4.76241">
        <ele>266.6</ele>
        <time>2025-04-05T08:44:23Z</time>
      </trkpt>
      <trkpt lat="50.21402" lon="4.76232">
        <ele>266.4</ele>
        <time>2025-04-05T08:44:24Z</time>
      </trkpt>
      <trkpt lat="50.21402" lon="4.76224">
        <ele>266.4</ele>
        <time>2025-04-05T08:44:25Z</time>
      </trkpt>
      <trkpt lat="50.21401" lon="4.76214">
        <ele>266.2</ele>
        <time>2025-04-05T08:44:26Z</time>
      </trkpt>
      <trkpt lat="50.21401" lon="4.76204">
        <ele>266.2</ele>
        <time>2025-04-05T08:44:27Z</time>
      </trkpt>
      <trkpt lat="50.21401" lon="4.76196">
        <ele>266.2</ele>
        <time>2025-04-05T08:44:28Z</time>
      </trkpt>
      <trkpt lat="50.21404" lon="4.76187">
        <ele>266</ele>
        <time>2025-04-05T08:44:29Z</time>
      </trkpt>
      <trkpt lat="50.21406" lon="4.76181">
        <ele>266</ele>
        <time>2025-04-05T08:44:30Z</time>
      </trkpt>
      <trkpt lat="50.21406" lon="4.76173">
        <ele>266</ele>
        <time>2025-04-05T08:44:31Z</time>
      </trkpt>
      <trkpt lat="50.21405" lon="4.76164">
        <ele>266</ele>
        <time>2025-04-05T08:44:32Z</time>
      </trkpt>
      <trkpt lat="50.21404" lon="4.76155">
        <ele>265.8</ele>
        <time>2025-04-05T08:44:33Z</time>
      </trkpt>
      <trkpt lat="50.21405" lon="4.76148">
        <ele>265.8</ele>
        <time>2025-04-05T08:44:34Z</time>
      </trkpt>
      <trkpt lat="50.21405" lon="4.76142">
        <ele>265.8</ele>
        <time>2025-04-05T08:44:35Z</time>
      </trkpt>
      <trkpt lat="50.21406" lon="4.76135">
        <ele>265.8</ele>
        <time>2025-04-05T08:44:36Z</time>
      </trkpt>
      <trkpt lat="50.21407" lon="4.76127">
        <ele>265.8</ele>
        <time>2025-04-05T08:44:37Z</time>
      </trkpt>
      <trkpt lat="50.21406" lon="4.76119">
        <ele>265.8</ele>
        <time>2025-04-05T08:44:38Z</time>
      </trkpt>
      <trkpt lat="50.21406" lon="4.76112">
        <ele>265.8</ele>
        <time>2025-04-05T08:44:39Z</time>
      </trkpt>
      <trkpt lat="50.21405" lon="4.76106">
        <ele>265.8</ele>
        <time>2025-04-05T08:44:40Z</time>
      </trkpt>
      <trkpt lat="50.21405" lon="4.76098">
        <ele>266</ele>
        <time>2025-04-05T08:44:41Z</time>
      </trkpt>
      <trkpt lat="50.21405" lon="4.7609">
        <ele>266.2</ele>
        <time>2025-04-05T08:44:42Z</time>
      </trkpt>
      <trkpt lat="50.21405" lon="4.76083">
        <ele>266.2</ele>
        <time>2025-04-05T08:44:43Z</time>
      </trkpt>
      <trkpt lat="50.21406" lon="4.76075">
        <ele>266.4</ele>
        <time>2025-04-05T08:44:44Z</time>
      </trkpt>
      <trkpt lat="50.21406" lon="4.76066">
        <ele>266.6</ele>
        <time>2025-04-05T08:44:45Z</time>
      </trkpt>
      <trkpt lat="50.21407" lon="4.76058">
        <ele>266.8</ele>
        <time>2025-04-05T08:44:46Z</time>
      </trkpt>
      <trkpt lat="50.21406" lon="4.76051">
        <ele>266.8</ele>
        <time>2025-04-05T08:44:47Z</time>
      </trkpt>
      <trkpt lat="50.21406" lon="4.76046">
        <ele>267</ele>
        <time>2025-04-05T08:44:48Z</time>
      </trkpt>
      <trkpt lat="50.21406" lon="4.76038">
        <ele>267.2</ele>
        <time>2025-04-05T08:44:49Z</time>
      </trkpt>
      <trkpt lat="50.21407" lon="4.76031">
        <ele>267.4</ele>
        <time>2025-04-05T08:44:50Z</time>
      </trkpt>
      <trkpt lat="50.21407" lon="4.76024">
        <ele>267.6</ele>
        <time>2025-04-05T08:44:51Z</time>
      </trkpt>
      <trkpt lat="50.21406" lon="4.76017">
        <ele>267.8</ele>
        <time>2025-04-05T08:44:52Z</time>
      </trkpt>
      <trkpt lat="50.21407" lon="4.76009">
        <ele>268</ele>
        <time>2025-04-05T08:44:53Z</time>
      </trkpt>
      <trkpt lat="50.21407" lon="4.76001">
        <ele>268</ele>
        <time>2025-04-05T08:44:54Z</time>
      </trkpt>
      <trkpt lat="50.21407" lon="4.75993">
        <ele>268.2</ele>
        <time>2025-04-05T08:44:55Z</time>
      </trkpt>
      <trkpt lat="50.21407" lon="4.75984">
        <ele>268.4</ele>
        <time>2025-04-05T08:44:56Z</time>
      </trkpt>
      <trkpt lat="50.21406" lon="4.75978">
        <ele>268.6</ele>
        <time>2025-04-05T08:44:57Z</time>
      </trkpt>
      <trkpt lat="50.21406" lon="4.75971">
        <ele>268.6</ele>
        <time>2025-04-05T08:44:58Z</time>
      </trkpt>
      <trkpt lat="50.21407" lon="4.75964">
        <ele>268.8</ele>
        <time>2025-04-05T08:44:59Z</time>
      </trkpt>
      <trkpt lat="50.21407" lon="4.75955">
        <ele>269</ele>
        <time>2025-04-05T08:45:00Z</time>
      </trkpt>
      <trkpt lat="50.21408" lon="4.75948">
        <ele>269</ele>
        <time>2025-04-05T08:45:01Z</time>
      </trkpt>
      <trkpt lat="50.21408" lon="4.75942">
        <ele>269.2</ele>
        <time>2025-04-05T08:45:02Z</time>
      </trkpt>
      <trkpt lat="50.21408" lon="4.75933">
        <ele>269.4</ele>
        <time>2025-04-05T08:45:03Z</time>
      </trkpt>
      <trkpt lat="50.21409" lon="4.75925">
        <ele>269.4</ele>
        <time>2025-04-05T08:45:04Z</time>
      </trkpt>
      <trkpt lat="50.21409" lon="4.75917">
        <ele>269.4</ele>
        <time>2025-04-05T08:45:05Z</time>
      </trkpt>
      <trkpt lat="50.21409" lon="4.75909">
        <ele>269.6</ele>
        <time>2025-04-05T08:45:06Z</time>
      </trkpt>
      <trkpt lat="50.21409" lon="4.75902">
        <ele>269.8</ele>
        <time>2025-04-05T08:45:07Z</time>
      </trkpt>
      <trkpt lat="50.2141" lon="4.75895">
        <ele>269.8</ele>
        <time>2025-04-05T08:45:08Z</time>
      </trkpt>
      <trkpt lat="50.2141" lon="4.75887">
        <ele>269.8</ele>
        <time>2025-04-05T08:45:09Z</time>
      </trkpt>
      <trkpt lat="50.2141" lon="4.7588">
        <ele>269.8</ele>
        <time>2025-04-05T08:45:10Z</time>
      </trkpt>
      <trkpt lat="50.21409" lon="4.75871">
        <ele>269.8</ele>
        <time>2025-04-05T08:45:11Z</time>
      </trkpt>
      <trkpt lat="50.21407" lon="4.75862">
        <ele>270</ele>
        <time>2025-04-05T08:45:12Z</time>
      </trkpt>
      <trkpt lat="50.21406" lon="4.75853">
        <ele>270</ele>
        <time>2025-04-05T08:45:13Z</time>
      </trkpt>
      <trkpt lat="50.21405" lon="4.75844">
        <ele>270</ele>
        <time>2025-04-05T08:45:14Z</time>
      </trkpt>
      <trkpt lat="50.21403" lon="4.75836">
        <ele>270</ele>
        <time>2025-04-05T08:45:15Z</time>
      </trkpt>
      <trkpt lat="50.21404" lon="4.75826">
        <ele>270</ele>
        <time>2025-04-05T08:45:16Z</time>
      </trkpt>
      <trkpt lat="50.21405" lon="4.75817">
        <ele>270</ele>
        <time>2025-04-05T08:45:17Z</time>
      </trkpt>
      <trkpt lat="50.21407" lon="4.75808">
        <ele>270</ele>
        <time>2025-04-05T08:45:18Z</time>
      </trkpt>
      <trkpt lat="50.21407" lon="4.75799">
        <ele>270</ele>
        <time>2025-04-05T08:45:19Z</time>
      </trkpt>
      <trkpt lat="50.21405" lon="4.75791">
        <ele>270</ele>
        <time>2025-04-05T08:45:20Z</time>
      </trkpt>
      <trkpt lat="50.21405" lon="4.75782">
        <ele>270</ele>
        <time>2025-04-05T08:45:21Z</time>
      </trkpt>
      <trkpt lat="50.21405" lon="4.75773">
        <ele>270</ele>
        <time>2025-04-05T08:45:22Z</time>
      </trkpt>
      <trkpt lat="50.21404" lon="4.75766">
        <ele>270</ele>
        <time>2025-04-05T08:45:23Z</time>
      </trkpt>
      <trkpt lat="50.21404" lon="4.75756">
        <ele>270</ele>
        <time>2025-04-05T08:45:24Z</time>
      </trkpt>
      <trkpt lat="50.21405" lon="4.75748">
        <ele>270.2</ele>
        <time>2025-04-05T08:45:25Z</time>
      </trkpt>
      <trkpt lat="50.21406" lon="4.75739">
        <ele>270.2</ele>
        <time>2025-04-05T08:45:26Z</time>
      </trkpt>
      <trkpt lat="50.21405" lon="4.75731">
        <ele>270.2</ele>
        <time>2025-04-05T08:45:27Z</time>
      </trkpt>
      <trkpt lat="50.21405" lon="4.75724">
        <ele>270.4</ele>
        <time>2025-04-05T08:45:28Z</time>
      </trkpt>
      <trkpt lat="50.21404" lon="4.75717">
        <ele>270.4</ele>
        <time>2025-04-05T08:45:29Z</time>
      </trkpt>
      <trkpt lat="50.21403" lon="4.75708">
        <ele>270.6</ele>
        <time>2025-04-05T08:45:30Z</time>
      </trkpt>
      <trkpt lat="50.21402" lon="4.75701">
        <ele>270.6</ele>
        <time>2025-04-05T08:45:31Z</time>
      </trkpt>
      <trkpt lat="50.21401" lon="4.75696">
        <ele>270.6</ele>
        <time>2025-04-05T08:45:32Z</time>
      </trkpt>
      <trkpt lat="50.214" lon="4.75689">
        <ele>270.8</ele>
        <time>2025-04-05T08:45:33Z</time>
      </trkpt>
      <trkpt lat="50.21399" lon="4.75682">
        <ele>270.8</ele>
        <time>2025-04-05T08:45:34Z</time>
      </trkpt>
      <trkpt lat="50.21397" lon="4.75676">
        <ele>270.8</ele>
        <time>2025-04-05T08:45:35Z</time>
      </trkpt>
      <trkpt lat="50.21396" lon="4.75669">
        <ele>271</ele>
        <time>2025-04-05T08:45:36Z</time>
      </trkpt>
      <trkpt lat="50.21394" lon="4.75663">
        <ele>271</ele>
        <time>2025-04-05T08:45:37Z</time>
      </trkpt>
      <trkpt lat="50.21391" lon="4.75655">
        <ele>271.2</ele>
        <time>2025-04-05T08:45:38Z</time>
      </trkpt>
      <trkpt lat="50.21389" lon="4.75648">
        <ele>271.2</ele>
        <time>2025-04-05T08:45:39Z</time>
      </trkpt>
      <trkpt lat="50.21389" lon="4.75641">
        <ele>271.4</ele>
        <time>2025-04-05T08:45:40Z</time>
      </trkpt>
      <trkpt lat="50.21387" lon="4.75634">
        <ele>271.4</ele>
        <time>2025-04-05T08:45:41Z</time>
      </trkpt>
      <trkpt lat="50.21386" lon="4.75628">
        <ele>271.4</ele>
        <time>2025-04-05T08:45:42Z</time>
      </trkpt>
      <trkpt lat="50.21384" lon="4.75621">
        <ele>271.4</ele>
        <time>2025-04-05T08:45:43Z</time>
      </trkpt>
      <trkpt lat="50.21382" lon="4.75616">
        <ele>271.4</ele>
        <time>2025-04-05T08:45:44Z</time>
      </trkpt>
      <trkpt lat="50.21381" lon="4.7561">
        <ele>271.4</ele>
        <time>2025-04-05T08:45:45Z</time>
      </trkpt>
      <trkpt lat="50.21379" lon="4.75604">
        <ele>271.6</ele>
        <time>2025-04-05T08:45:46Z</time>
      </trkpt>
      <trkpt lat="50.21376" lon="4.75598">
        <ele>271.6</ele>
        <time>2025-04-05T08:45:47Z</time>
      </trkpt>
      <trkpt lat="50.21375" lon="4.75591">
        <ele>271.4</ele>
        <time>2025-04-05T08:45:48Z</time>
      </trkpt>
      <trkpt lat="50.21373" lon="4.75583">
        <ele>271.4</ele>
        <time>2025-04-05T08:45:49Z</time>
      </trkpt>
      <trkpt lat="50.21372" lon="4.75575">
        <ele>271.4</ele>
        <time>2025-04-05T08:45:50Z</time>
      </trkpt>
      <trkpt lat="50.21373" lon="4.75566">
        <ele>271.2</ele>
        <time>2025-04-05T08:45:51Z</time>
      </trkpt>
      <trkpt lat="50.21373" lon="4.75556">
        <ele>271.2</ele>
        <time>2025-04-05T08:45:52Z</time>
      </trkpt>
      <trkpt lat="50.21373" lon="4.75549">
        <ele>271.2</ele>
        <time>2025-04-05T08:45:53Z</time>
      </trkpt>
      <trkpt lat="50.21373" lon="4.7554">
        <ele>271.2</ele>
        <time>2025-04-05T08:45:54Z</time>
      </trkpt>
      <trkpt lat="50.21372" lon="4.75529">
        <ele>271.2</ele>
        <time>2025-04-05T08:45:55Z</time>
      </trkpt>
      <trkpt lat="50.21368" lon="4.75518">
        <ele>271.2</ele>
        <time>2025-04-05T08:45:56Z</time>
      </trkpt>
      <trkpt lat="50.21367" lon="4.75506">
        <ele>271.2</ele>
        <time>2025-04-05T08:45:57Z</time>
      </trkpt>
      <trkpt lat="50.21363" lon="4.75496">
        <ele>271.2</ele>
        <time>2025-04-05T08:45:58Z</time>
      </trkpt>
      <trkpt lat="50.21362" lon="4.75487">
        <ele>271.2</ele>
        <time>2025-04-05T08:45:59Z</time>
      </trkpt>
      <trkpt lat="50.2136" lon="4.75478">
        <ele>271.2</ele>
        <time>2025-04-05T08:46:00Z</time>
      </trkpt>
      <trkpt lat="50.21358" lon="4.75468">
        <ele>271.2</ele>
        <time>2025-04-05T08:46:01Z</time>
      </trkpt>
      <trkpt lat="50.21358" lon="4.75457">
        <ele>271</ele>
        <time>2025-04-05T08:46:02Z</time>
      </trkpt>
      <trkpt lat="50.21355" lon="4.75449">
        <ele>271</ele>
        <time>2025-04-05T08:46:03Z</time>
      </trkpt>
      <trkpt lat="50.21353" lon="4.75441">
        <ele>271</ele>
        <time>2025-04-05T08:46:04Z</time>
      </trkpt>
      <trkpt lat="50.21351" lon="4.75432">
        <ele>271</ele>
        <time>2025-04-05T08:46:05Z</time>
      </trkpt>
      <trkpt lat="50.21349" lon="4.75423">
        <ele>270.8</ele>
        <time>2025-04-05T08:46:06Z</time>
      </trkpt>
      <trkpt lat="50.21347" lon="4.75417">
        <ele>270.8</ele>
        <time>2025-04-05T08:46:07Z</time>
      </trkpt>
      <trkpt lat="50.21347" lon="4.7541">
        <ele>270.8</ele>
        <time>2025-04-05T08:46:08Z</time>
      </trkpt>
      <trkpt lat="50.21347" lon="4.75405">
        <ele>270.8</ele>
        <time>2025-04-05T08:46:09Z</time>
      </trkpt>
      <trkpt lat="50.21348" lon="4.754">
        <ele>270.8</ele>
        <time>2025-04-05T08:46:10Z</time>
      </trkpt>
      <trkpt lat="50.21347" lon="4.75392">
        <ele>270.8</ele>
        <time>2025-04-05T08:46:11Z</time>
      </trkpt>
      <trkpt lat="50.21346" lon="4.75385">
        <ele>270.8</ele>
        <time>2025-04-05T08:46:12Z</time>
      </trkpt>
      <trkpt lat="50.21346" lon="4.75377">
        <ele>270.6</ele>
        <time>2025-04-05T08:46:13Z</time>
      </trkpt>
      <trkpt lat="50.21345" lon="4.75368">
        <ele>270.6</ele>
        <time>2025-04-05T08:46:14Z</time>
      </trkpt>
      <trkpt lat="50.21345" lon="4.75361">
        <ele>270.6</ele>
        <time>2025-04-05T08:46:15Z</time>
      </trkpt>
      <trkpt lat="50.21344" lon="4.75353">
        <ele>270.6</ele>
        <time>2025-04-05T08:46:16Z</time>
      </trkpt>
      <trkpt lat="50.21344" lon="4.75346">
        <ele>270.6</ele>
        <time>2025-04-05T08:46:17Z</time>
      </trkpt>
      <trkpt lat="50.21345" lon="4.75337">
        <ele>270.8</ele>
        <time>2025-04-05T08:46:18Z</time>
      </trkpt>
      <trkpt lat="50.21345" lon="4.75329">
        <ele>270.8</ele>
        <time>2025-04-05T08:46:19Z</time>
      </trkpt>
      <trkpt lat="50.21344" lon="4.75323">
        <ele>270.8</ele>
        <time>2025-04-05T08:46:20Z</time>
      </trkpt>
      <trkpt lat="50.21344" lon="4.75314">
        <ele>270.8</ele>
        <time>2025-04-05T08:46:21Z</time>
      </trkpt>
      <trkpt lat="50.21343" lon="4.75308">
        <ele>270.8</ele>
        <time>2025-04-05T08:46:22Z</time>
      </trkpt>
      <trkpt lat="50.21343" lon="4.75302">
        <ele>270.8</ele>
        <time>2025-04-05T08:46:23Z</time>
      </trkpt>
      <trkpt lat="50.21342" lon="4.75293">
        <ele>270.8</ele>
        <time>2025-04-05T08:46:24Z</time>
      </trkpt>
      <trkpt lat="50.21341" lon="4.75287">
        <ele>270.8</ele>
        <time>2025-04-05T08:46:25Z</time>
      </trkpt>
      <trkpt lat="50.21341" lon="4.75279">
        <ele>270.8</ele>
        <time>2025-04-05T08:46:26Z</time>
      </trkpt>
      <trkpt lat="50.21341" lon="4.7527">
        <ele>270.8</ele>
        <time>2025-04-05T08:46:27Z</time>
      </trkpt>
      <trkpt lat="50.2134" lon="4.75263">
        <ele>270.8</ele>
        <time>2025-04-05T08:46:28Z</time>
      </trkpt>
      <trkpt lat="50.2134" lon="4.75257">
        <ele>270.6</ele>
        <time>2025-04-05T08:46:29Z</time>
      </trkpt>
      <trkpt lat="50.21339" lon="4.75249">
        <ele>270.6</ele>
        <time>2025-04-05T08:46:30Z</time>
      </trkpt>
      <trkpt lat="50.21339" lon="4.75243">
        <ele>270.6</ele>
        <time>2025-04-05T08:46:31Z</time>
      </trkpt>
      <trkpt lat="50.21339" lon="4.75236">
        <ele>270.6</ele>
        <time>2025-04-05T08:46:32Z</time>
      </trkpt>
      <trkpt lat="50.21338" lon="4.75229">
        <ele>270.4</ele>
        <time>2025-04-05T08:46:33Z</time>
      </trkpt>
      <trkpt lat="50.21337" lon="4.7522">
        <ele>270.4</ele>
        <time>2025-04-05T08:46:34Z</time>
      </trkpt>
      <trkpt lat="50.21337" lon="4.75211">
        <ele>270.4</ele>
        <time>2025-04-05T08:46:35Z</time>
      </trkpt>
      <trkpt lat="50.21336" lon="4.75201">
        <ele>270.6</ele>
        <time>2025-04-05T08:46:36Z</time>
      </trkpt>
      <trkpt lat="50.21336" lon="4.75193">
        <ele>270.4</ele>
        <time>2025-04-05T08:46:37Z</time>
      </trkpt>
      <trkpt lat="50.21338" lon="4.75182">
        <ele>270.2</ele>
        <time>2025-04-05T08:46:38Z</time>
      </trkpt>
      <trkpt lat="50.21338" lon="4.75172">
        <ele>270.2</ele>
        <time>2025-04-05T08:46:39Z</time>
      </trkpt>
      <trkpt lat="50.21341" lon="4.75164">
        <ele>270</ele>
        <time>2025-04-05T08:46:40Z</time>
      </trkpt>
      <trkpt lat="50.21343" lon="4.75156">
        <ele>270</ele>
        <time>2025-04-05T08:46:41Z</time>
      </trkpt>
      <trkpt lat="50.21346" lon="4.75148">
        <ele>270.2</ele>
        <time>2025-04-05T08:46:42Z</time>
      </trkpt>
      <trkpt lat="50.2135" lon="4.75141">
        <ele>270.2</ele>
        <time>2025-04-05T08:46:43Z</time>
      </trkpt>
      <trkpt lat="50.21355" lon="4.75137">
        <ele>270.2</ele>
        <time>2025-04-05T08:46:44Z</time>
      </trkpt>
      <trkpt lat="50.2136" lon="4.75132">
        <ele>270.4</ele>
        <time>2025-04-05T08:46:45Z</time>
      </trkpt>
      <trkpt lat="50.21364" lon="4.75128">
        <ele>270.6</ele>
        <time>2025-04-05T08:46:46Z</time>
      </trkpt>
      <trkpt lat="50.21369" lon="4.75125">
        <ele>270.6</ele>
        <time>2025-04-05T08:46:47Z</time>
      </trkpt>
      <trkpt lat="50.21374" lon="4.75121">
        <ele>270.8</ele>
        <time>2025-04-05T08:46:48Z</time>
      </trkpt>
      <trkpt lat="50.21379" lon="4.75117">
        <ele>271</ele>
        <time>2025-04-05T08:46:49Z</time>
      </trkpt>
      <trkpt lat="50.21384" lon="4.75113">
        <ele>271.2</ele>
        <time>2025-04-05T08:46:50Z</time>
      </trkpt>
      <trkpt lat="50.21388" lon="4.75108">
        <ele>271.2</ele>
        <time>2025-04-05T08:46:51Z</time>
      </trkpt>
      <trkpt lat="50.21392" lon="4.75103">
        <ele>271.4</ele>
        <time>2025-04-05T08:46:52Z</time>
      </trkpt>
      <trkpt lat="50.21395" lon="4.75096">
        <ele>271.6</ele>
        <time>2025-04-05T08:46:53Z</time>
      </trkpt>
      <trkpt lat="50.21398" lon="4.75091">
        <ele>271.6</ele>
        <time>2025-04-05T08:46:54Z</time>
      </trkpt>
      <trkpt lat="50.21401" lon="4.75083">
        <ele>271.6</ele>
        <time>2025-04-05T08:46:55Z</time>
      </trkpt>
      <trkpt lat="50.21403" lon="4.75076">
        <ele>271.8</ele>
        <time>2025-04-05T08:46:56Z</time>
      </trkpt>
      <trkpt lat="50.21404" lon="4.75069">
        <ele>271.8</ele>
        <time>2025-04-05T08:46:57Z</time>
      </trkpt>
      <trkpt lat="50.21404" lon="4.75062">
        <ele>271.8</ele>
        <time>2025-04-05T08:46:58Z</time>
      </trkpt>
      <trkpt lat="50.21405" lon="4.75054">
        <ele>271.8</ele>
        <time>2025-04-05T08:46:59Z</time>
      </trkpt>
      <trkpt lat="50.21406" lon="4.75045">
        <ele>271.8</ele>
        <time>2025-04-05T08:47:00Z</time>
      </trkpt>
      <trkpt lat="50.21406" lon="4.75035">
        <ele>271.8</ele>
        <time>2025-04-05T08:47:01Z</time>
      </trkpt>
      <trkpt lat="50.21406" lon="4.75025">
        <ele>271.8</ele>
        <time>2025-04-05T08:47:02Z</time>
      </trkpt>
      <trkpt lat="50.21407" lon="4.75016">
        <ele>271.8</ele>
        <time>2025-04-05T08:47:03Z</time>
      </trkpt>
      <trkpt lat="50.21407" lon="4.75006">
        <ele>271.6</ele>
        <time>2025-04-05T08:47:04Z</time>
      </trkpt>
      <trkpt lat="50.21408" lon="4.74997">
        <ele>271.6</ele>
        <time>2025-04-05T08:47:05Z</time>
      </trkpt>
      <trkpt lat="50.21409" lon="4.74987">
        <ele>271.4</ele>
        <time>2025-04-05T08:47:06Z</time>
      </trkpt>
      <trkpt lat="50.21409" lon="4.74979">
        <ele>271.4</ele>
        <time>2025-04-05T08:47:07Z</time>
      </trkpt>
      <trkpt lat="50.2141" lon="4.74967">
        <ele>271.2</ele>
        <time>2025-04-05T08:47:08Z</time>
      </trkpt>
      <trkpt lat="50.2141" lon="4.74956">
        <ele>271</ele>
        <time>2025-04-05T08:47:09Z</time>
      </trkpt>
      <trkpt lat="50.21411" lon="4.74945">
        <ele>271</ele>
        <time>2025-04-05T08:47:10Z</time>
      </trkpt>
      <trkpt lat="50.21411" lon="4.74934">
        <ele>270.8</ele>
        <time>2025-04-05T08:47:11Z</time>
      </trkpt>
      <trkpt lat="50.21412" lon="4.74924">
        <ele>270.6</ele>
        <time>2025-04-05T08:47:12Z</time>
      </trkpt>
      <trkpt lat="50.21413" lon="4.74915">
        <ele>270.4</ele>
        <time>2025-04-05T08:47:13Z</time>
      </trkpt>
      <trkpt lat="50.21414" lon="4.74905">
        <ele>270.2</ele>
        <time>2025-04-05T08:47:14Z</time>
      </trkpt>
      <trkpt lat="50.21415" lon="4.74896">
        <ele>270.2</ele>
        <time>2025-04-05T08:47:15Z</time>
      </trkpt>
      <trkpt lat="50.21418" lon="4.74885">
        <ele>270</ele>
        <time>2025-04-05T08:47:16Z</time>
      </trkpt>
      <trkpt lat="50.21418" lon="4.74875">
        <ele>270.2</ele>
        <time>2025-04-05T08:47:17Z</time>
      </trkpt>
      <trkpt lat="50.21418" lon="4.74865">
        <ele>270.2</ele>
        <time>2025-04-05T08:47:18Z</time>
      </trkpt>
      <trkpt lat="50.21418" lon="4.74856">
        <ele>270.4</ele>
        <time>2025-04-05T08:47:19Z</time>
      </trkpt>
      <trkpt lat="50.21419" lon="4.74848">
        <ele>270.4</ele>
        <time>2025-04-05T08:47:20Z</time>
      </trkpt>
      <trkpt lat="50.21418" lon="4.74837">
        <ele>270.6</ele>
        <time>2025-04-05T08:47:21Z</time>
      </trkpt>
      <trkpt lat="50.21417" lon="4.74828">
        <ele>270.6</ele>
        <time>2025-04-05T08:47:22Z</time>
      </trkpt>
      <trkpt lat="50.21415" lon="4.7482">
        <ele>270.8</ele>
        <time>2025-04-05T08:47:23Z</time>
      </trkpt>
      <trkpt lat="50.21413" lon="4.74812">
        <ele>270.8</ele>
        <time>2025-04-05T08:47:24Z</time>
      </trkpt>
      <trkpt lat="50.21412" lon="4.74802">
        <ele>271</ele>
        <time>2025-04-05T08:47:25Z</time>
      </trkpt>
      <trkpt lat="50.2141" lon="4.74793">
        <ele>271</ele>
        <time>2025-04-05T08:47:26Z</time>
      </trkpt>
      <trkpt lat="50.21409" lon="4.74784">
        <ele>271.2</ele>
        <time>2025-04-05T08:47:27Z</time>
      </trkpt>
      <trkpt lat="50.2141" lon="4.74776">
        <ele>271.2</ele>
        <time>2025-04-05T08:47:28Z</time>
      </trkpt>
      <trkpt lat="50.21412" lon="4.74767">
        <ele>271.2</ele>
        <time>2025-04-05T08:47:29Z</time>
      </trkpt>
      <trkpt lat="50.21411" lon="4.74759">
        <ele>271.4</ele>
        <time>2025-04-05T08:47:30Z</time>
      </trkpt>
      <trkpt lat="50.2141" lon="4.7475">
        <ele>271.4</ele>
        <time>2025-04-05T08:47:31Z</time>
      </trkpt>
      <trkpt lat="50.2141" lon="4.74741">
        <ele>271.4</ele>
        <time>2025-04-05T08:47:32Z</time>
      </trkpt>
      <trkpt lat="50.21404" lon="4.74731">
        <ele>271.2</ele>
        <time>2025-04-05T08:47:33Z</time>
      </trkpt>
      <trkpt lat="50.21399" lon="4.74719">
        <ele>271.2</ele>
        <time>2025-04-05T08:47:34Z</time>
      </trkpt>
      <trkpt lat="50.21394" lon="4.74708">
        <ele>271.2</ele>
        <time>2025-04-05T08:47:35Z</time>
      </trkpt>
      <trkpt lat="50.2139" lon="4.74699">
        <ele>271</ele>
        <time>2025-04-05T08:47:36Z</time>
      </trkpt>
      <trkpt lat="50.21386" lon="4.74688">
        <ele>271</ele>
        <time>2025-04-05T08:47:37Z</time>
      </trkpt>
      <trkpt lat="50.21382" lon="4.74681">
        <ele>270.8</ele>
        <time>2025-04-05T08:47:38Z</time>
      </trkpt>
      <trkpt lat="50.21378" lon="4.74673">
        <ele>270.8</ele>
        <time>2025-04-05T08:47:39Z</time>
      </trkpt>
      <trkpt lat="50.21375" lon="4.74665">
        <ele>270.6</ele>
        <time>2025-04-05T08:47:40Z</time>
      </trkpt>
      <trkpt lat="50.2137" lon="4.74656">
        <ele>270.6</ele>
        <time>2025-04-05T08:47:41Z</time>
      </trkpt>
      <trkpt lat="50.21366" lon="4.74648">
        <ele>270.4</ele>
        <time>2025-04-05T08:47:42Z</time>
      </trkpt>
      <trkpt lat="50.21364" lon="4.74641">
        <ele>270.6</ele>
        <time>2025-04-05T08:47:43Z</time>
      </trkpt>
      <trkpt lat="50.21363" lon="4.74632">
        <ele>270.6</ele>
        <time>2025-04-05T08:47:44Z</time>
      </trkpt>
      <trkpt lat="50.2136" lon="4.74622">
        <ele>270.6</ele>
        <time>2025-04-05T08:47:45Z</time>
      </trkpt>
      <trkpt lat="50.21357" lon="4.74614">
        <ele>270.6</ele>
        <time>2025-04-05T08:47:46Z</time>
      </trkpt>
      <trkpt lat="50.21354" lon="4.74606">
        <ele>270.6</ele>
        <time>2025-04-05T08:47:47Z</time>
      </trkpt>
      <trkpt lat="50.21351" lon="4.74598">
        <ele>270.4</ele>
        <time>2025-04-05T08:47:48Z</time>
      </trkpt>
      <trkpt lat="50.21348" lon="4.7459">
        <ele>270.4</ele>
        <time>2025-04-05T08:47:49Z</time>
      </trkpt>
      <trkpt lat="50.21344" lon="4.7458">
        <ele>270.4</ele>
        <time>2025-04-05T08:47:50Z</time>
      </trkpt>
      <trkpt lat="50.21342" lon="4.74573">
        <ele>270.4</ele>
        <time>2025-04-05T08:47:51Z</time>
      </trkpt>
      <trkpt lat="50.21339" lon="4.74563">
        <ele>270.4</ele>
        <time>2025-04-05T08:47:52Z</time>
      </trkpt>
      <trkpt lat="50.21336" lon="4.74554">
        <ele>270.4</ele>
        <time>2025-04-05T08:47:53Z</time>
      </trkpt>
      <trkpt lat="50.21333" lon="4.74545">
        <ele>270.2</ele>
        <time>2025-04-05T08:47:54Z</time>
      </trkpt>
      <trkpt lat="50.2133" lon="4.74536">
        <ele>270.2</ele>
        <time>2025-04-05T08:47:55Z</time>
      </trkpt>
      <trkpt lat="50.21328" lon="4.74527">
        <ele>270.2</ele>
        <time>2025-04-05T08:47:56Z</time>
      </trkpt>
      <trkpt lat="50.21326" lon="4.74519">
        <ele>270.4</ele>
        <time>2025-04-05T08:47:57Z</time>
      </trkpt>
      <trkpt lat="50.21324" lon="4.7451">
        <ele>270.4</ele>
        <time>2025-04-05T08:47:58Z</time>
      </trkpt>
      <trkpt lat="50.21322" lon="4.74501">
        <ele>270.4</ele>
        <time>2025-04-05T08:47:59Z</time>
      </trkpt>
      <trkpt lat="50.2132" lon="4.74493">
        <ele>270.6</ele>
        <time>2025-04-05T08:48:00Z</time>
      </trkpt>
      <trkpt lat="50.21317" lon="4.74485">
        <ele>270.8</ele>
        <time>2025-04-05T08:48:01Z</time>
      </trkpt>
      <trkpt lat="50.21315" lon="4.74477">
        <ele>270.8</ele>
        <time>2025-04-05T08:48:02Z</time>
      </trkpt>
      <trkpt lat="50.21315" lon="4.74468">
        <ele>271</ele>
        <time>2025-04-05T08:48:03Z</time>
      </trkpt>
      <trkpt lat="50.21316" lon="4.74459">
        <ele>271.2</ele>
        <time>2025-04-05T08:48:04Z</time>
      </trkpt>
      <trkpt lat="50.21316" lon="4.7445">
        <ele>271.4</ele>
        <time>2025-04-05T08:48:05Z</time>
      </trkpt>
      <trkpt lat="50.21314" lon="4.74441">
        <ele>271.6</ele>
        <time>2025-04-05T08:48:06Z</time>
      </trkpt>
      <trkpt lat="50.21312" lon="4.74433">
        <ele>271.6</ele>
        <time>2025-04-05T08:48:07Z</time>
      </trkpt>
      <trkpt lat="50.21308" lon="4.74425">
        <ele>271.8</ele>
        <time>2025-04-05T08:48:08Z</time>
      </trkpt>
      <trkpt lat="50.21306" lon="4.74416">
        <ele>272</ele>
        <time>2025-04-05T08:48:09Z</time>
      </trkpt>
      <trkpt lat="50.21304" lon="4.74408">
        <ele>272</ele>
        <time>2025-04-05T08:48:10Z</time>
      </trkpt>
      <trkpt lat="50.21302" lon="4.744">
        <ele>272.2</ele>
        <time>2025-04-05T08:48:11Z</time>
      </trkpt>
      <trkpt lat="50.21299" lon="4.74391">
        <ele>272.4</ele>
        <time>2025-04-05T08:48:12Z</time>
      </trkpt>
      <trkpt lat="50.21296" lon="4.74382">
        <ele>272.4</ele>
        <time>2025-04-05T08:48:13Z</time>
      </trkpt>
      <trkpt lat="50.21291" lon="4.74374">
        <ele>272.6</ele>
        <time>2025-04-05T08:48:14Z</time>
      </trkpt>
      <trkpt lat="50.21289" lon="4.74365">
        <ele>272.6</ele>
        <time>2025-04-05T08:48:15Z</time>
      </trkpt>
      <trkpt lat="50.21287" lon="4.74358">
        <ele>272.6</ele>
        <time>2025-04-05T08:48:16Z</time>
      </trkpt>
      <trkpt lat="50.21286" lon="4.74349">
        <ele>272.8</ele>
        <time>2025-04-05T08:48:17Z</time>
      </trkpt>
      <trkpt lat="50.21285" lon="4.7434">
        <ele>272.8</ele>
        <time>2025-04-05T08:48:18Z</time>
      </trkpt>
      <trkpt lat="50.21284" lon="4.74332">
        <ele>272.8</ele>
        <time>2025-04-05T08:48:19Z</time>
      </trkpt>
      <trkpt lat="50.21281" lon="4.7432">
        <ele>272.8</ele>
        <time>2025-04-05T08:48:20Z</time>
      </trkpt>
      <trkpt lat="50.2128" lon="4.7431">
        <ele>272.8</ele>
        <time>2025-04-05T08:48:21Z</time>
      </trkpt>
      <trkpt lat="50.21279" lon="4.743">
        <ele>272.6</ele>
        <time>2025-04-05T08:48:22Z</time>
      </trkpt>
      <trkpt lat="50.21277" lon="4.74291">
        <ele>272.6</ele>
        <time>2025-04-05T08:48:23Z</time>
      </trkpt>
      <trkpt lat="50.21275" lon="4.74283">
        <ele>272.6</ele>
        <time>2025-04-05T08:48:24Z</time>
      </trkpt>
      <trkpt lat="50.21273" lon="4.74275">
        <ele>272.8</ele>
        <time>2025-04-05T08:48:25Z</time>
      </trkpt>
      <trkpt lat="50.21272" lon="4.74267">
        <ele>272.6</ele>
        <time>2025-04-05T08:48:26Z</time>
      </trkpt>
      <trkpt lat="50.21269" lon="4.74261">
        <ele>272.6</ele>
        <time>2025-04-05T08:48:27Z</time>
      </trkpt>
      <trkpt lat="50.21267" lon="4.74252">
        <ele>272.6</ele>
        <time>2025-04-05T08:48:28Z</time>
      </trkpt>
      <trkpt lat="50.21265" lon="4.74245">
        <ele>272.6</ele>
        <time>2025-04-05T08:48:29Z</time>
      </trkpt>
      <trkpt lat="50.21261" lon="4.74235">
        <ele>272.6</ele>
        <time>2025-04-05T08:48:30Z</time>
      </trkpt>
      <trkpt lat="50.21259" lon="4.74227">
        <ele>272.4</ele>
        <time>2025-04-05T08:48:31Z</time>
      </trkpt>
      <trkpt lat="50.21256" lon="4.74219">
        <ele>272.4</ele>
        <time>2025-04-05T08:48:32Z</time>
      </trkpt>
      <trkpt lat="50.21253" lon="4.74211">
        <ele>272.4</ele>
        <time>2025-04-05T08:48:33Z</time>
      </trkpt>
      <trkpt lat="50.21249" lon="4.74201">
        <ele>272.4</ele>
        <time>2025-04-05T08:48:34Z</time>
      </trkpt>
      <trkpt lat="50.21246" lon="4.74192">
        <ele>272.4</ele>
        <time>2025-04-05T08:48:35Z</time>
      </trkpt>
      <trkpt lat="50.21243" lon="4.74184">
        <ele>272.2</ele>
        <time>2025-04-05T08:48:36Z</time>
      </trkpt>
      <trkpt lat="50.2124" lon="4.74176">
        <ele>272.2</ele>
        <time>2025-04-05T08:48:37Z</time>
      </trkpt>
      <trkpt lat="50.21236" lon="4.74167">
        <ele>272.2</ele>
        <time>2025-04-05T08:48:38Z</time>
      </trkpt>
      <trkpt lat="50.21232" lon="4.7416">
        <ele>272.2</ele>
        <time>2025-04-05T08:48:39Z</time>
      </trkpt>
      <trkpt lat="50.21229" lon="4.74152">
        <ele>272.2</ele>
        <time>2025-04-05T08:48:40Z</time>
      </trkpt>
      <trkpt lat="50.21226" lon="4.74146">
        <ele>272.2</ele>
        <time>2025-04-05T08:48:41Z</time>
      </trkpt>
      <trkpt lat="50.21223" lon="4.74137">
        <ele>272.4</ele>
        <time>2025-04-05T08:48:42Z</time>
      </trkpt>
      <trkpt lat="50.21219" lon="4.74129">
        <ele>272.4</ele>
        <time>2025-04-05T08:48:43Z</time>
      </trkpt>
      <trkpt lat="50.21215" lon="4.74121">
        <ele>272.4</ele>
        <time>2025-04-05T08:48:44Z</time>
      </trkpt>
      <trkpt lat="50.21212" lon="4.74113">
        <ele>272.4</ele>
        <time>2025-04-05T08:48:45Z</time>
      </trkpt>
      <trkpt lat="50.21208" lon="4.74105">
        <ele>272.4</ele>
        <time>2025-04-05T08:48:46Z</time>
      </trkpt>
      <trkpt lat="50.21204" lon="4.74097">
        <ele>272.4</ele>
        <time>2025-04-05T08:48:47Z</time>
      </trkpt>
      <trkpt lat="50.21201" lon="4.7409">
        <ele>272.4</ele>
        <time>2025-04-05T08:48:48Z</time>
      </trkpt>
      <trkpt lat="50.21198" lon="4.74082">
        <ele>272.4</ele>
        <time>2025-04-05T08:48:49Z</time>
      </trkpt>
      <trkpt lat="50.21194" lon="4.74074">
        <ele>272.4</ele>
        <time>2025-04-05T08:48:50Z</time>
      </trkpt>
      <trkpt lat="50.21191" lon="4.74066">
        <ele>272.4</ele>
        <time>2025-04-05T08:48:51Z</time>
      </trkpt>
      <trkpt lat="50.21189" lon="4.74058">
        <ele>272.6</ele>
        <time>2025-04-05T08:48:52Z</time>
      </trkpt>
      <trkpt lat="50.21187" lon="4.7405">
        <ele>272.6</ele>
        <time>2025-04-05T08:48:53Z</time>
      </trkpt>
      <trkpt lat="50.21186" lon="4.74043">
        <ele>272.8</ele>
        <time>2025-04-05T08:48:54Z</time>
      </trkpt>
      <trkpt lat="50.21183" lon="4.74033">
        <ele>273</ele>
        <time>2025-04-05T08:48:55Z</time>
      </trkpt>
      <trkpt lat="50.21182" lon="4.74024">
        <ele>273.2</ele>
        <time>2025-04-05T08:48:56Z</time>
      </trkpt>
      <trkpt lat="50.2118" lon="4.74016">
        <ele>273.4</ele>
        <time>2025-04-05T08:48:57Z</time>
      </trkpt>
      <trkpt lat="50.21179" lon="4.74008">
        <ele>273.6</ele>
        <time>2025-04-05T08:48:58Z</time>
      </trkpt>
      <trkpt lat="50.21178" lon="4.74">
        <ele>273.8</ele>
        <time>2025-04-05T08:48:59Z</time>
      </trkpt>
      <trkpt lat="50.21176" lon="4.73992">
        <ele>274.2</ele>
        <time>2025-04-05T08:49:00Z</time>
      </trkpt>
      <trkpt lat="50.21174" lon="4.73984">
        <ele>274.4</ele>
        <time>2025-04-05T08:49:01Z</time>
      </trkpt>
      <trkpt lat="50.21172" lon="4.73977">
        <ele>274.6</ele>
        <time>2025-04-05T08:49:02Z</time>
      </trkpt>
      <trkpt lat="50.21172" lon="4.73969">
        <ele>274.8</ele>
        <time>2025-04-05T08:49:03Z</time>
      </trkpt>
      <trkpt lat="50.21172" lon="4.73962">
        <ele>274.8</ele>
        <time>2025-04-05T08:49:04Z</time>
      </trkpt>
      <trkpt lat="50.2117" lon="4.73955">
        <ele>275</ele>
        <time>2025-04-05T08:49:05Z</time>
      </trkpt>
      <trkpt lat="50.21169" lon="4.73948">
        <ele>275.2</ele>
        <time>2025-04-05T08:49:06Z</time>
      </trkpt>
      <trkpt lat="50.21169" lon="4.7394">
        <ele>275.4</ele>
        <time>2025-04-05T08:49:07Z</time>
      </trkpt>
      <trkpt lat="50.21168" lon="4.73932">
        <ele>275.4</ele>
        <time>2025-04-05T08:49:08Z</time>
      </trkpt>
      <trkpt lat="50.21167" lon="4.73925">
        <ele>275.6</ele>
        <time>2025-04-05T08:49:09Z</time>
      </trkpt>
      <trkpt lat="50.21166" lon="4.73918">
        <ele>275.6</ele>
        <time>2025-04-05T08:49:10Z</time>
      </trkpt>
      <trkpt lat="50.21166" lon="4.73912">
        <ele>275.6</ele>
        <time>2025-04-05T08:49:11Z</time>
      </trkpt>
      <trkpt lat="50.21166" lon="4.73906">
        <ele>275.8</ele>
        <time>2025-04-05T08:49:12Z</time>
      </trkpt>
      <trkpt lat="50.21165" lon="4.73898">
        <ele>275.8</ele>
        <time>2025-04-05T08:49:13Z</time>
      </trkpt>
      <trkpt lat="50.21163" lon="4.73891">
        <ele>276</ele>
        <time>2025-04-05T08:49:14Z</time>
      </trkpt>
      <trkpt lat="50.21162" lon="4.73882">
        <ele>276</ele>
        <time>2025-04-05T08:49:15Z</time>
      </trkpt>
      <trkpt lat="50.21161" lon="4.73875">
        <ele>276</ele>
        <time>2025-04-05T08:49:16Z</time>
      </trkpt>
      <trkpt lat="50.21161" lon="4.73868">
        <ele>276.2</ele>
        <time>2025-04-05T08:49:17Z</time>
      </trkpt>
      <trkpt lat="50.21161" lon="4.7386">
        <ele>276.2</ele>
        <time>2025-04-05T08:49:18Z</time>
      </trkpt>
      <trkpt lat="50.21161" lon="4.73853">
        <ele>276.4</ele>
        <time>2025-04-05T08:49:19Z</time>
      </trkpt>
      <trkpt lat="50.21161" lon="4.73845">
        <ele>276.4</ele>
        <time>2025-04-05T08:49:20Z</time>
      </trkpt>
      <trkpt lat="50.21161" lon="4.73837">
        <ele>276.4</ele>
        <time>2025-04-05T08:49:21Z</time>
      </trkpt>
      <trkpt lat="50.21162" lon="4.73828">
        <ele>276.4</ele>
        <time>2025-04-05T08:49:22Z</time>
      </trkpt>
      <trkpt lat="50.21164" lon="4.73819">
        <ele>276.4</ele>
        <time>2025-04-05T08:49:23Z</time>
      </trkpt>
      <trkpt lat="50.21166" lon="4.73813">
        <ele>276.6</ele>
        <time>2025-04-05T08:49:24Z</time>
      </trkpt>
      <trkpt lat="50.21169" lon="4.73805">
        <ele>276.8</ele>
        <time>2025-04-05T08:49:25Z</time>
      </trkpt>
      <trkpt lat="50.21172" lon="4.73798">
        <ele>277</ele>
        <time>2025-04-05T08:49:26Z</time>
      </trkpt>
      <trkpt lat="50.21176" lon="4.73792">
        <ele>277.2</ele>
        <time>2025-04-05T08:49:27Z</time>
      </trkpt>
      <trkpt lat="50.2118" lon="4.73787">
        <ele>277.2</ele>
        <time>2025-04-05T08:49:28Z</time>
      </trkpt>
      <trkpt lat="50.21183" lon="4.73781">
        <ele>277.4</ele>
        <time>2025-04-05T08:49:29Z</time>
      </trkpt>
      <trkpt lat="50.21187" lon="4.73775">
        <ele>277.6</ele>
        <time>2025-04-05T08:49:30Z</time>
      </trkpt>
      <trkpt lat="50.2119" lon="4.73769">
        <ele>277.6</ele>
        <time>2025-04-05T08:49:31Z</time>
      </trkpt>
      <trkpt lat="50.21193" lon="4.73765">
        <ele>277.8</ele>
        <time>2025-04-05T08:49:32Z</time>
      </trkpt>
      <trkpt lat="50.21197" lon="4.7376">
        <ele>277.8</ele>
        <time>2025-04-05T08:49:33Z</time>
      </trkpt>
      <trkpt lat="50.21201" lon="4.73753">
        <ele>278</ele>
        <time>2025-04-05T08:49:34Z</time>
      </trkpt>
      <trkpt lat="50.21204" lon="4.73747">
        <ele>278.2</ele>
        <time>2025-04-05T08:49:35Z</time>
      </trkpt>
      <trkpt lat="50.21208" lon="4.73741">
        <ele>278.2</ele>
        <time>2025-04-05T08:49:36Z</time>
      </trkpt>
      <trkpt lat="50.21212" lon="4.73736">
        <ele>278.2</ele>
        <time>2025-04-05T08:49:37Z</time>
      </trkpt>
      <trkpt lat="50.21216" lon="4.7373">
        <ele>278.4</ele>
        <time>2025-04-05T08:49:38Z</time>
      </trkpt>
      <trkpt lat="50.2122" lon="4.73725">
        <ele>278.4</ele>
        <time>2025-04-05T08:49:39Z</time>
      </trkpt>
      <trkpt lat="50.21224" lon="4.73719">
        <ele>278.2</ele>
        <time>2025-04-05T08:49:40Z</time>
      </trkpt>
      <trkpt lat="50.21228" lon="4.73715">
        <ele>278.2</ele>
        <time>2025-04-05T08:49:41Z</time>
      </trkpt>
      <trkpt lat="50.21233" lon="4.73708">
        <ele>278.2</ele>
        <time>2025-04-05T08:49:42Z</time>
      </trkpt>
      <trkpt lat="50.21236" lon="4.73703">
        <ele>278</ele>
        <time>2025-04-05T08:49:43Z</time>
      </trkpt>
      <trkpt lat="50.2124" lon="4.73697">
        <ele>278</ele>
        <time>2025-04-05T08:49:44Z</time>
      </trkpt>
      <trkpt lat="50.21245" lon="4.73691">
        <ele>278</ele>
        <time>2025-04-05T08:49:45Z</time>
      </trkpt>
      <trkpt lat="50.21249" lon="4.73685">
        <ele>277.8</ele>
        <time>2025-04-05T08:49:46Z</time>
      </trkpt>
      <trkpt lat="50.21253" lon="4.7368">
        <ele>277.8</ele>
        <time>2025-04-05T08:49:47Z</time>
      </trkpt>
      <trkpt lat="50.21257" lon="4.73674">
        <ele>277.8</ele>
        <time>2025-04-05T08:49:48Z</time>
      </trkpt>
      <trkpt lat="50.21259" lon="4.7367">
        <ele>277.8</ele>
        <time>2025-04-05T08:49:49Z</time>
      </trkpt>
      <trkpt lat="50.21262" lon="4.73665">
        <ele>278</ele>
        <time>2025-04-05T08:49:50Z</time>
      </trkpt>
      <trkpt lat="50.21265" lon="4.7366">
        <ele>278</ele>
        <time>2025-04-05T08:49:51Z</time>
      </trkpt>
      <trkpt lat="50.21267" lon="4.73657">
        <ele>278</ele>
        <time>2025-04-05T08:49:52Z</time>
      </trkpt>
      <trkpt lat="50.21269" lon="4.73655">
        <ele>277.8</ele>
        <time>2025-04-05T08:49:53Z</time>
      </trkpt>
      <trkpt lat="50.2127" lon="4.73653">
        <ele>277.8</ele>
        <time>2025-04-05T08:49:54Z</time>
      </trkpt>
      <trkpt lat="50.21271" lon="4.73651">
        <ele>277.8</ele>
        <time>2025-04-05T08:49:55Z</time>
      </trkpt>
      <trkpt lat="50.21272" lon="4.7365">
        <ele>277.8</ele>
        <time>2025-04-05T08:49:56Z</time>
      </trkpt>
      <trkpt lat="50.21273" lon="4.73647">
        <ele>277.6</ele>
        <time>2025-04-05T08:50:02Z</time>
      </trkpt>
      <trkpt lat="50.21273" lon="4.73644">
        <ele>277.6</ele>
        <time>2025-04-05T08:50:03Z</time>
      </trkpt>
      <trkpt lat="50.21273" lon="4.7364">
        <ele>277.6</ele>
        <time>2025-04-05T08:50:04Z</time>
      </trkpt>
      <trkpt lat="50.21272" lon="4.73636">
        <ele>277.6</ele>
        <time>2025-04-05T08:50:05Z</time>
      </trkpt>
      <trkpt lat="50.21271" lon="4.73634">
        <ele>277.6</ele>
        <time>2025-04-05T08:50:06Z</time>
      </trkpt>
      <trkpt lat="50.21269" lon="4.7363">
        <ele>277.8</ele>
        <time>2025-04-05T08:50:07Z</time>
      </trkpt>
      <trkpt lat="50.21267" lon="4.73629">
        <ele>277.8</ele>
        <time>2025-04-05T08:50:08Z</time>
      </trkpt>
      <trkpt lat="50.21265" lon="4.73626">
        <ele>278</ele>
        <time>2025-04-05T08:50:09Z</time>
      </trkpt>
      <trkpt lat="50.21263" lon="4.73623">
        <ele>278.2</ele>
        <time>2025-04-05T08:50:10Z</time>
      </trkpt>
      <trkpt lat="50.21261" lon="4.7362">
        <ele>278.2</ele>
        <time>2025-04-05T08:50:11Z</time>
      </trkpt>
      <trkpt lat="50.21258" lon="4.73617">
        <ele>278.4</ele>
        <time>2025-04-05T08:50:12Z</time>
      </trkpt>
      <trkpt lat="50.21254" lon="4.73613">
        <ele>278.4</ele>
        <time>2025-04-05T08:50:13Z</time>
      </trkpt>
      <trkpt lat="50.21251" lon="4.7361">
        <ele>278.6</ele>
        <time>2025-04-05T08:50:14Z</time>
      </trkpt>
      <trkpt lat="50.21248" lon="4.73607">
        <ele>278.8</ele>
        <time>2025-04-05T08:50:15Z</time>
      </trkpt>
      <trkpt lat="50.21244" lon="4.73604">
        <ele>278.8</ele>
        <time>2025-04-05T08:50:16Z</time>
      </trkpt>
      <trkpt lat="50.21241" lon="4.73599">
        <ele>279</ele>
        <time>2025-04-05T08:50:17Z</time>
      </trkpt>
      <trkpt lat="50.21238" lon="4.73596">
        <ele>279.2</ele>
        <time>2025-04-05T08:50:18Z</time>
      </trkpt>
      <trkpt lat="50.21233" lon="4.73591">
        <ele>279.2</ele>
        <time>2025-04-05T08:50:19Z</time>
      </trkpt>
      <trkpt lat="50.21228" lon="4.73588">
        <ele>279.4</ele>
        <time>2025-04-05T08:50:20Z</time>
      </trkpt>
      <trkpt lat="50.21225" lon="4.73585">
        <ele>279.6</ele>
        <time>2025-04-05T08:50:21Z</time>
      </trkpt>
      <trkpt lat="50.2122" lon="4.7358">
        <ele>279.8</ele>
        <time>2025-04-05T08:50:22Z</time>
      </trkpt>
      <trkpt lat="50.21215" lon="4.73574">
        <ele>279.8</ele>
        <time>2025-04-05T08:50:23Z</time>
      </trkpt>
      <trkpt lat="50.2121" lon="4.73568">
        <ele>280</ele>
        <time>2025-04-05T08:50:24Z</time>
      </trkpt>
      <trkpt lat="50.21205" lon="4.73564">
        <ele>280</ele>
        <time>2025-04-05T08:50:25Z</time>
      </trkpt>
      <trkpt lat="50.21202" lon="4.7356">
        <ele>280.2</ele>
        <time>2025-04-05T08:50:26Z</time>
      </trkpt>
      <trkpt lat="50.21198" lon="4.73554">
        <ele>280.4</ele>
        <time>2025-04-05T08:50:27Z</time>
      </trkpt>
      <trkpt lat="50.21193" lon="4.7355">
        <ele>280.4</ele>
        <time>2025-04-05T08:50:28Z</time>
      </trkpt>
      <trkpt lat="50.21189" lon="4.73545">
        <ele>280.6</ele>
        <time>2025-04-05T08:50:29Z</time>
      </trkpt>
      <trkpt lat="50.21183" lon="4.73541">
        <ele>280.8</ele>
        <time>2025-04-05T08:50:30Z</time>
      </trkpt>
      <trkpt lat="50.2118" lon="4.73537">
        <ele>280.8</ele>
        <time>2025-04-05T08:50:31Z</time>
      </trkpt>
      <trkpt lat="50.21176" lon="4.73534">
        <ele>281</ele>
        <time>2025-04-05T08:50:32Z</time>
      </trkpt>
      <trkpt lat="50.21171" lon="4.73531">
        <ele>281</ele>
        <time>2025-04-05T08:50:33Z</time>
      </trkpt>
      <trkpt lat="50.21168" lon="4.73529">
        <ele>281.2</ele>
        <time>2025-04-05T08:50:34Z</time>
      </trkpt>
      <trkpt lat="50.21161" lon="4.73526">
        <ele>281.2</ele>
        <time>2025-04-05T08:50:35Z</time>
      </trkpt>
      <trkpt lat="50.21156" lon="4.73523">
        <ele>281.2</ele>
        <time>2025-04-05T08:50:36Z</time>
      </trkpt>
      <trkpt lat="50.21149" lon="4.7352">
        <ele>281.2</ele>
        <time>2025-04-05T08:50:37Z</time>
      </trkpt>
      <trkpt lat="50.21141" lon="4.73517">
        <ele>281.2</ele>
        <time>2025-04-05T08:50:38Z</time>
      </trkpt>
      <trkpt lat="50.21136" lon="4.73515">
        <ele>281.2</ele>
        <time>2025-04-05T08:50:39Z</time>
      </trkpt>
      <trkpt lat="50.21131" lon="4.73512">
        <ele>281.2</ele>
        <time>2025-04-05T08:50:40Z</time>
      </trkpt>
      <trkpt lat="50.21127" lon="4.73508">
        <ele>281.2</ele>
        <time>2025-04-05T08:50:41Z</time>
      </trkpt>
      <trkpt lat="50.21122" lon="4.73506">
        <ele>281.2</ele>
        <time>2025-04-05T08:50:42Z</time>
      </trkpt>
      <trkpt lat="50.21119" lon="4.73504">
        <ele>281.4</ele>
        <time>2025-04-05T08:50:43Z</time>
      </trkpt>
      <trkpt lat="50.21114" lon="4.73503">
        <ele>281.4</ele>
        <time>2025-04-05T08:50:44Z</time>
      </trkpt>
      <trkpt lat="50.21108" lon="4.735">
        <ele>281.4</ele>
        <time>2025-04-05T08:50:45Z</time>
      </trkpt>
      <trkpt lat="50.21103" lon="4.73498">
        <ele>281.4</ele>
        <time>2025-04-05T08:50:46Z</time>
      </trkpt>
      <trkpt lat="50.21098" lon="4.73496">
        <ele>281.4</ele>
        <time>2025-04-05T08:50:47Z</time>
      </trkpt>
      <trkpt lat="50.21092" lon="4.73494">
        <ele>281.4</ele>
        <time>2025-04-05T08:50:48Z</time>
      </trkpt>
      <trkpt lat="50.21087" lon="4.73492">
        <ele>281.2</ele>
        <time>2025-04-05T08:50:49Z</time>
      </trkpt>
      <trkpt lat="50.21081" lon="4.7349">
        <ele>281.2</ele>
        <time>2025-04-05T08:50:50Z</time>
      </trkpt>
      <trkpt lat="50.21077" lon="4.73488">
        <ele>281</ele>
        <time>2025-04-05T08:50:51Z</time>
      </trkpt>
      <trkpt lat="50.2107" lon="4.73485">
        <ele>280.6</ele>
        <time>2025-04-05T08:50:52Z</time>
      </trkpt>
      <trkpt lat="50.21065" lon="4.73482">
        <ele>280.4</ele>
        <time>2025-04-05T08:50:53Z</time>
      </trkpt>
      <trkpt lat="50.21058" lon="4.73478">
        <ele>280</ele>
        <time>2025-04-05T08:50:54Z</time>
      </trkpt>
      <trkpt lat="50.21051" lon="4.73475">
        <ele>279.8</ele>
        <time>2025-04-05T08:50:55Z</time>
      </trkpt>
      <trkpt lat="50.21045" lon="4.7347">
        <ele>279.4</ele>
        <time>2025-04-05T08:50:56Z</time>
      </trkpt>
      <trkpt lat="50.21037" lon="4.73466">
        <ele>279.2</ele>
        <time>2025-04-05T08:50:57Z</time>
      </trkpt>
      <trkpt lat="50.2103" lon="4.7346">
        <ele>278.8</ele>
        <time>2025-04-05T08:50:58Z</time>
      </trkpt>
      <trkpt lat="50.21023" lon="4.73456">
        <ele>278.6</ele>
        <time>2025-04-05T08:50:59Z</time>
      </trkpt>
      <trkpt lat="50.21014" lon="4.7345">
        <ele>278.4</ele>
        <time>2025-04-05T08:51:00Z</time>
      </trkpt>
      <trkpt lat="50.21006" lon="4.73444">
        <ele>278.4</ele>
        <time>2025-04-05T08:51:01Z</time>
      </trkpt>
      <trkpt lat="50.20998" lon="4.73439">
        <ele>278.4</ele>
        <time>2025-04-05T08:51:02Z</time>
      </trkpt>
      <trkpt lat="50.2099" lon="4.73434">
        <ele>278.4</ele>
        <time>2025-04-05T08:51:03Z</time>
      </trkpt>
      <trkpt lat="50.20982" lon="4.7343">
        <ele>278.6</ele>
        <time>2025-04-05T08:51:04Z</time>
      </trkpt>
      <trkpt lat="50.20973" lon="4.73425">
        <ele>278.8</ele>
        <time>2025-04-05T08:51:05Z</time>
      </trkpt>
      <trkpt lat="50.20967" lon="4.7342">
        <ele>278.8</ele>
        <time>2025-04-05T08:51:06Z</time>
      </trkpt>
      <trkpt lat="50.2096" lon="4.73414">
        <ele>279</ele>
        <time>2025-04-05T08:51:07Z</time>
      </trkpt>
      <trkpt lat="50.20954" lon="4.73409">
        <ele>279.2</ele>
        <time>2025-04-05T08:51:08Z</time>
      </trkpt>
      <trkpt lat="50.20948" lon="4.73404">
        <ele>279.4</ele>
        <time>2025-04-05T08:51:09Z</time>
      </trkpt>
      <trkpt lat="50.20941" lon="4.734">
        <ele>279.6</ele>
        <time>2025-04-05T08:51:10Z</time>
      </trkpt>
      <trkpt lat="50.20935" lon="4.73396">
        <ele>279.8</ele>
        <time>2025-04-05T08:51:11Z</time>
      </trkpt>
      <trkpt lat="50.20931" lon="4.73392">
        <ele>280</ele>
        <time>2025-04-05T08:51:12Z</time>
      </trkpt>
      <trkpt lat="50.20924" lon="4.73387">
        <ele>280.2</ele>
        <time>2025-04-05T08:51:13Z</time>
      </trkpt>
      <trkpt lat="50.20918" lon="4.73383">
        <ele>280.4</ele>
        <time>2025-04-05T08:51:14Z</time>
      </trkpt>
      <trkpt lat="50.20911" lon="4.73379">
        <ele>280.6</ele>
        <time>2025-04-05T08:51:15Z</time>
      </trkpt>
      <trkpt lat="50.20905" lon="4.73374">
        <ele>280.8</ele>
        <time>2025-04-05T08:51:16Z</time>
      </trkpt>
      <trkpt lat="50.20902" lon="4.7337">
        <ele>280.8</ele>
        <time>2025-04-05T08:51:17Z</time>
      </trkpt>
      <trkpt lat="50.20895" lon="4.73365">
        <ele>280.8</ele>
        <time>2025-04-05T08:51:18Z</time>
      </trkpt>
      <trkpt lat="50.2089" lon="4.7336">
        <ele>280.8</ele>
        <time>2025-04-05T08:51:19Z</time>
      </trkpt>
      <trkpt lat="50.20881" lon="4.73356">
        <ele>281</ele>
        <time>2025-04-05T08:51:20Z</time>
      </trkpt>
      <trkpt lat="50.20875" lon="4.73353">
        <ele>281</ele>
        <time>2025-04-05T08:51:21Z</time>
      </trkpt>
      <trkpt lat="50.20867" lon="4.7335">
        <ele>281</ele>
        <time>2025-04-05T08:51:22Z</time>
      </trkpt>
      <trkpt lat="50.20858" lon="4.73348">
        <ele>280.8</ele>
        <time>2025-04-05T08:51:23Z</time>
      </trkpt>
      <trkpt lat="50.20852" lon="4.73347">
        <ele>280.8</ele>
        <time>2025-04-05T08:51:24Z</time>
      </trkpt>
      <trkpt lat="50.20847" lon="4.73346">
        <ele>280.8</ele>
        <time>2025-04-05T08:51:25Z</time>
      </trkpt>
      <trkpt lat="50.20841" lon="4.73345">
        <ele>280.8</ele>
        <time>2025-04-05T08:51:26Z</time>
      </trkpt>
      <trkpt lat="50.20834" lon="4.73343">
        <ele>280.6</ele>
        <time>2025-04-05T08:51:27Z</time>
      </trkpt>
      <trkpt lat="50.20827" lon="4.73341">
        <ele>280.6</ele>
        <time>2025-04-05T08:51:28Z</time>
      </trkpt>
      <trkpt lat="50.20821" lon="4.73339">
        <ele>280.4</ele>
        <time>2025-04-05T08:51:29Z</time>
      </trkpt>
      <trkpt lat="50.20814" lon="4.73335">
        <ele>280.4</ele>
        <time>2025-04-05T08:51:30Z</time>
      </trkpt>
      <trkpt lat="50.20808" lon="4.73331">
        <ele>280.2</ele>
        <time>2025-04-05T08:51:31Z</time>
      </trkpt>
      <trkpt lat="50.20802" lon="4.73328">
        <ele>280</ele>
        <time>2025-04-05T08:51:32Z</time>
      </trkpt>
      <trkpt lat="50.20795" lon="4.73324">
        <ele>279.6</ele>
        <time>2025-04-05T08:51:33Z</time>
      </trkpt>
      <trkpt lat="50.2079" lon="4.7332">
        <ele>279.4</ele>
        <time>2025-04-05T08:51:34Z</time>
      </trkpt>
      <trkpt lat="50.20783" lon="4.73314">
        <ele>279</ele>
        <time>2025-04-05T08:51:35Z</time>
      </trkpt>
      <trkpt lat="50.20776" lon="4.73309">
        <ele>278.8</ele>
        <time>2025-04-05T08:51:36Z</time>
      </trkpt>
      <trkpt lat="50.20768" lon="4.73304">
        <ele>278.2</ele>
        <time>2025-04-05T08:51:37Z</time>
      </trkpt>
      <trkpt lat="50.2076" lon="4.73298">
        <ele>277.8</ele>
        <time>2025-04-05T08:51:38Z</time>
      </trkpt>
      <trkpt lat="50.20754" lon="4.73293">
        <ele>277.2</ele>
        <time>2025-04-05T08:51:39Z</time>
      </trkpt>
      <trkpt lat="50.20743" lon="4.73286">
        <ele>276.6</ele>
        <time>2025-04-05T08:51:40Z</time>
      </trkpt>
      <trkpt lat="50.20736" lon="4.73281">
        <ele>275.8</ele>
        <time>2025-04-05T08:51:41Z</time>
      </trkpt>
      <trkpt lat="50.20726" lon="4.73275">
        <ele>275</ele>
        <time>2025-04-05T08:51:42Z</time>
      </trkpt>
      <trkpt lat="50.20715" lon="4.73267">
        <ele>274.4</ele>
        <time>2025-04-05T08:51:43Z</time>
      </trkpt>
      <trkpt lat="50.20704" lon="4.7326">
        <ele>273.4</ele>
        <time>2025-04-05T08:51:44Z</time>
      </trkpt>
      <trkpt lat="50.20694" lon="4.73253">
        <ele>272.4</ele>
        <time>2025-04-05T08:51:45Z</time>
      </trkpt>
      <trkpt lat="50.20684" lon="4.73246">
        <ele>271.4</ele>
        <time>2025-04-05T08:51:46Z</time>
      </trkpt>
      <trkpt lat="50.20676" lon="4.7324">
        <ele>270.2</ele>
        <time>2025-04-05T08:51:47Z</time>
      </trkpt>
      <trkpt lat="50.20663" lon="4.7323">
        <ele>269.2</ele>
        <time>2025-04-05T08:51:48Z</time>
      </trkpt>
      <trkpt lat="50.20652" lon="4.73221">
        <ele>268</ele>
        <time>2025-04-05T08:51:49Z</time>
      </trkpt>
      <trkpt lat="50.20641" lon="4.73213">
        <ele>267</ele>
        <time>2025-04-05T08:51:50Z</time>
      </trkpt>
      <trkpt lat="50.2063" lon="4.73205">
        <ele>266.2</ele>
        <time>2025-04-05T08:51:51Z</time>
      </trkpt>
      <trkpt lat="50.20619" lon="4.73196">
        <ele>265.2</ele>
        <time>2025-04-05T08:51:52Z</time>
      </trkpt>
      <trkpt lat="50.20607" lon="4.73187">
        <ele>264.2</ele>
        <time>2025-04-05T08:51:53Z</time>
      </trkpt>
      <trkpt lat="50.20596" lon="4.73179">
        <ele>263.2</ele>
        <time>2025-04-05T08:51:54Z</time>
      </trkpt>
      <trkpt lat="50.20585" lon="4.73172">
        <ele>262.4</ele>
        <time>2025-04-05T08:51:55Z</time>
      </trkpt>
      <trkpt lat="50.20573" lon="4.73164">
        <ele>261.8</ele>
        <time>2025-04-05T08:51:56Z</time>
      </trkpt>
      <trkpt lat="50.20561" lon="4.73157">
        <ele>261.4</ele>
        <time>2025-04-05T08:51:57Z</time>
      </trkpt>
      <trkpt lat="50.20549" lon="4.73148">
        <ele>261</ele>
        <time>2025-04-05T08:51:58Z</time>
      </trkpt>
      <trkpt lat="50.20538" lon="4.73142">
        <ele>260.4</ele>
        <time>2025-04-05T08:51:59Z</time>
      </trkpt>
      <trkpt lat="50.20526" lon="4.73135">
        <ele>260</ele>
        <time>2025-04-05T08:52:00Z</time>
      </trkpt>
      <trkpt lat="50.20515" lon="4.73129">
        <ele>259.6</ele>
        <time>2025-04-05T08:52:01Z</time>
      </trkpt>
      <trkpt lat="50.20506" lon="4.73123">
        <ele>259.2</ele>
        <time>2025-04-05T08:52:02Z</time>
      </trkpt>
      <trkpt lat="50.20496" lon="4.73117">
        <ele>258.8</ele>
        <time>2025-04-05T08:52:03Z</time>
      </trkpt>
      <trkpt lat="50.20486" lon="4.7311">
        <ele>258.2</ele>
        <time>2025-04-05T08:52:04Z</time>
      </trkpt>
      <trkpt lat="50.20472" lon="4.73102">
        <ele>258</ele>
        <time>2025-04-05T08:52:05Z</time>
      </trkpt>
      <trkpt lat="50.20462" lon="4.73096">
        <ele>257.8</ele>
        <time>2025-04-05T08:52:06Z</time>
      </trkpt>
      <trkpt lat="50.20454" lon="4.73091">
        <ele>257.4</ele>
        <time>2025-04-05T08:52:07Z</time>
      </trkpt>
      <trkpt lat="50.20444" lon="4.73087">
        <ele>257.4</ele>
        <time>2025-04-05T08:52:08Z</time>
      </trkpt>
      <trkpt lat="50.20433" lon="4.73081">
        <ele>257</ele>
        <time>2025-04-05T08:52:09Z</time>
      </trkpt>
      <trkpt lat="50.20424" lon="4.73075">
        <ele>256.6</ele>
        <time>2025-04-05T08:52:10Z</time>
      </trkpt>
      <trkpt lat="50.20415" lon="4.7307">
        <ele>256.4</ele>
        <time>2025-04-05T08:52:11Z</time>
      </trkpt>
      <trkpt lat="50.20406" lon="4.73065">
        <ele>256.2</ele>
        <time>2025-04-05T08:52:12Z</time>
      </trkpt>
      <trkpt lat="50.20399" lon="4.73061">
        <ele>256</ele>
        <time>2025-04-05T08:52:13Z</time>
      </trkpt>
      <trkpt lat="50.20389" lon="4.73055">
        <ele>256</ele>
        <time>2025-04-05T08:52:14Z</time>
      </trkpt>
      <trkpt lat="50.2038" lon="4.73049">
        <ele>256</ele>
        <time>2025-04-05T08:52:15Z</time>
      </trkpt>
      <trkpt lat="50.20374" lon="4.73045">
        <ele>256</ele>
        <time>2025-04-05T08:52:16Z</time>
      </trkpt>
      <trkpt lat="50.20365" lon="4.7304">
        <ele>255.8</ele>
        <time>2025-04-05T08:52:17Z</time>
      </trkpt>
      <trkpt lat="50.20357" lon="4.73035">
        <ele>255.6</ele>
        <time>2025-04-05T08:52:18Z</time>
      </trkpt>
      <trkpt lat="50.20349" lon="4.7303">
        <ele>255.4</ele>
        <time>2025-04-05T08:52:19Z</time>
      </trkpt>
      <trkpt lat="50.20339" lon="4.73026">
        <ele>255.2</ele>
        <time>2025-04-05T08:52:20Z</time>
      </trkpt>
      <trkpt lat="50.20331" lon="4.73024">
        <ele>254.8</ele>
        <time>2025-04-05T08:52:21Z</time>
      </trkpt>
      <trkpt lat="50.20324" lon="4.73022">
        <ele>254.6</ele>
        <time>2025-04-05T08:52:22Z</time>
      </trkpt>
      <trkpt lat="50.20316" lon="4.7302">
        <ele>254.2</ele>
        <time>2025-04-05T08:52:23Z</time>
      </trkpt>
      <trkpt lat="50.20309" lon="4.73019">
        <ele>253.6</ele>
        <time>2025-04-05T08:52:24Z</time>
      </trkpt>
      <trkpt lat="50.203" lon="4.73017">
        <ele>253</ele>
        <time>2025-04-05T08:52:25Z</time>
      </trkpt>
      <trkpt lat="50.20289" lon="4.73014">
        <ele>252.4</ele>
        <time>2025-04-05T08:52:26Z</time>
      </trkpt>
      <trkpt lat="50.20279" lon="4.73011">
        <ele>252</ele>
        <time>2025-04-05T08:52:27Z</time>
      </trkpt>
      <trkpt lat="50.20271" lon="4.7301">
        <ele>251.6</ele>
        <time>2025-04-05T08:52:28Z</time>
      </trkpt>
      <trkpt lat="50.20261" lon="4.73008">
        <ele>251</ele>
        <time>2025-04-05T08:52:29Z</time>
      </trkpt>
      <trkpt lat="50.20253" lon="4.73006">
        <ele>250.4</ele>
        <time>2025-04-05T08:52:30Z</time>
      </trkpt>
      <trkpt lat="50.20243" lon="4.73002">
        <ele>249.8</ele>
        <time>2025-04-05T08:52:31Z</time>
      </trkpt>
      <trkpt lat="50.20234" lon="4.72997">
        <ele>249</ele>
        <time>2025-04-05T08:52:32Z</time>
      </trkpt>
      <trkpt lat="50.20226" lon="4.72992">
        <ele>248.2</ele>
        <time>2025-04-05T08:52:33Z</time>
      </trkpt>
      <trkpt lat="50.20215" lon="4.72984">
        <ele>247.6</ele>
        <time>2025-04-05T08:52:34Z</time>
      </trkpt>
      <trkpt lat="50.20206" lon="4.72978">
        <ele>246.8</ele>
        <time>2025-04-05T08:52:35Z</time>
      </trkpt>
      <trkpt lat="50.20197" lon="4.72971">
        <ele>246</ele>
        <time>2025-04-05T08:52:36Z</time>
      </trkpt>
      <trkpt lat="50.20188" lon="4.72964">
        <ele>245.2</ele>
        <time>2025-04-05T08:52:37Z</time>
      </trkpt>
      <trkpt lat="50.20179" lon="4.72956">
        <ele>244.4</ele>
        <time>2025-04-05T08:52:38Z</time>
      </trkpt>
      <trkpt lat="50.20169" lon="4.72949">
        <ele>243.8</ele>
        <time>2025-04-05T08:52:39Z</time>
      </trkpt>
      <trkpt lat="50.2016" lon="4.72942">
        <ele>243.4</ele>
        <time>2025-04-05T08:52:40Z</time>
      </trkpt>
      <trkpt lat="50.20154" lon="4.72937">
        <ele>243</ele>
        <time>2025-04-05T08:52:41Z</time>
      </trkpt>
      <trkpt lat="50.20146" lon="4.72932">
        <ele>242.6</ele>
        <time>2025-04-05T08:52:42Z</time>
      </trkpt>
      <trkpt lat="50.20138" lon="4.72928">
        <ele>242.2</ele>
        <time>2025-04-05T08:52:43Z</time>
      </trkpt>
      <trkpt lat="50.20128" lon="4.72924">
        <ele>242</ele>
        <time>2025-04-05T08:52:44Z</time>
      </trkpt>
      <trkpt lat="50.20117" lon="4.72923">
        <ele>241.8</ele>
        <time>2025-04-05T08:52:45Z</time>
      </trkpt>
      <trkpt lat="50.20109" lon="4.72923">
        <ele>241.6</ele>
        <time>2025-04-05T08:52:46Z</time>
      </trkpt>
      <trkpt lat="50.20099" lon="4.72925">
        <ele>241.6</ele>
        <time>2025-04-05T08:52:47Z</time>
      </trkpt>
      <trkpt lat="50.20091" lon="4.7293">
        <ele>241.6</ele>
        <time>2025-04-05T08:52:48Z</time>
      </trkpt>
      <trkpt lat="50.20084" lon="4.72933">
        <ele>241.6</ele>
        <time>2025-04-05T08:52:49Z</time>
      </trkpt>
      <trkpt lat="50.20078" lon="4.72934">
        <ele>241.6</ele>
        <time>2025-04-05T08:52:50Z</time>
      </trkpt>
      <trkpt lat="50.20071" lon="4.72936">
        <ele>241.6</ele>
        <time>2025-04-05T08:52:51Z</time>
      </trkpt>
      <trkpt lat="50.20064" lon="4.72941">
        <ele>241.8</ele>
        <time>2025-04-05T08:52:52Z</time>
      </trkpt>
      <trkpt lat="50.20057" lon="4.72943">
        <ele>241.8</ele>
        <time>2025-04-05T08:52:53Z</time>
      </trkpt>
      <trkpt lat="50.2005" lon="4.72946">
        <ele>241.8</ele>
        <time>2025-04-05T08:52:54Z</time>
      </trkpt>
      <trkpt lat="50.20042" lon="4.72948">
        <ele>241.8</ele>
        <time>2025-04-05T08:52:55Z</time>
      </trkpt>
      <trkpt lat="50.20036" lon="4.7295">
        <ele>241.8</ele>
        <time>2025-04-05T08:52:56Z</time>
      </trkpt>
      <trkpt lat="50.20032" lon="4.72951">
        <ele>241.8</ele>
        <time>2025-04-05T08:52:57Z</time>
      </trkpt>
      <trkpt lat="50.20028" lon="4.72952">
        <ele>241.8</ele>
        <time>2025-04-05T08:52:58Z</time>
      </trkpt>
      <trkpt lat="50.20025" lon="4.72953">
        <ele>241.8</ele>
        <time>2025-04-05T08:52:59Z</time>
      </trkpt>
      <trkpt lat="50.2002" lon="4.72955">
        <ele>241.8</ele>
        <time>2025-04-05T08:53:00Z</time>
      </trkpt>
      <trkpt lat="50.20015" lon="4.72956">
        <ele>241.8</ele>
        <time>2025-04-05T08:53:01Z</time>
      </trkpt>
      <trkpt lat="50.20009" lon="4.72959">
        <ele>241.8</ele>
        <time>2025-04-05T08:53:02Z</time>
      </trkpt>
      <trkpt lat="50.20003" lon="4.72963">
        <ele>241.6</ele>
        <time>2025-04-05T08:53:03Z</time>
      </trkpt>
      <trkpt lat="50.19997" lon="4.72968">
        <ele>241.4</ele>
        <time>2025-04-05T08:53:04Z</time>
      </trkpt>
      <trkpt lat="50.19992" lon="4.72975">
        <ele>241.4</ele>
        <time>2025-04-05T08:53:05Z</time>
      </trkpt>
      <trkpt lat="50.19987" lon="4.7298">
        <ele>241.2</ele>
        <time>2025-04-05T08:53:06Z</time>
      </trkpt>
      <trkpt lat="50.19981" lon="4.72986">
        <ele>241</ele>
        <time>2025-04-05T08:53:07Z</time>
      </trkpt>
      <trkpt lat="50.19978" lon="4.72991">
        <ele>241</ele>
        <time>2025-04-05T08:53:08Z</time>
      </trkpt>
      <trkpt lat="50.19971" lon="4.72997">
        <ele>241</ele>
        <time>2025-04-05T08:53:09Z</time>
      </trkpt>
      <trkpt lat="50.19965" lon="4.73004">
        <ele>241</ele>
        <time>2025-04-05T08:53:10Z</time>
      </trkpt>
      <trkpt lat="50.19959" lon="4.7301">
        <ele>240.8</ele>
        <time>2025-04-05T08:53:11Z</time>
      </trkpt>
      <trkpt lat="50.19955" lon="4.73014">
        <ele>240.8</ele>
        <time>2025-04-05T08:53:12Z</time>
      </trkpt>
      <trkpt lat="50.19949" lon="4.73021">
        <ele>240.8</ele>
        <time>2025-04-05T08:53:13Z</time>
      </trkpt>
      <trkpt lat="50.19944" lon="4.73026">
        <ele>240.6</ele>
        <time>2025-04-05T08:53:14Z</time>
      </trkpt>
      <trkpt lat="50.19939" lon="4.73031">
        <ele>240.4</ele>
        <time>2025-04-05T08:53:15Z</time>
      </trkpt>
      <trkpt lat="50.19934" lon="4.73037">
        <ele>240.2</ele>
        <time>2025-04-05T08:53:16Z</time>
      </trkpt>
      <trkpt lat="50.19929" lon="4.73042">
        <ele>240</ele>
        <time>2025-04-05T08:53:17Z</time>
      </trkpt>
      <trkpt lat="50.19924" lon="4.73048">
        <ele>239.8</ele>
        <time>2025-04-05T08:53:18Z</time>
      </trkpt>
      <trkpt lat="50.19918" lon="4.73054">
        <ele>239.6</ele>
        <time>2025-04-05T08:53:19Z</time>
      </trkpt>
      <trkpt lat="50.19914" lon="4.73058">
        <ele>239.4</ele>
        <time>2025-04-05T08:53:20Z</time>
      </trkpt>
      <trkpt lat="50.19908" lon="4.73064">
        <ele>239.2</ele>
        <time>2025-04-05T08:53:21Z</time>
      </trkpt>
      <trkpt lat="50.19902" lon="4.7307">
        <ele>238.8</ele>
        <time>2025-04-05T08:53:22Z</time>
      </trkpt>
      <trkpt lat="50.19898" lon="4.73075">
        <ele>238.6</ele>
        <time>2025-04-05T08:53:23Z</time>
      </trkpt>
      <trkpt lat="50.19892" lon="4.7308">
        <ele>238.4</ele>
        <time>2025-04-05T08:53:24Z</time>
      </trkpt>
      <trkpt lat="50.19886" lon="4.73085">
        <ele>238.2</ele>
        <time>2025-04-05T08:53:25Z</time>
      </trkpt>
      <trkpt lat="50.19881" lon="4.7309">
        <ele>238</ele>
        <time>2025-04-05T08:53:26Z</time>
      </trkpt>
      <trkpt lat="50.19874" lon="4.73097">
        <ele>237.8</ele>
        <time>2025-04-05T08:53:27Z</time>
      </trkpt>
      <trkpt lat="50.19868" lon="4.73103">
        <ele>237.6</ele>
        <time>2025-04-05T08:53:28Z</time>
      </trkpt>
      <trkpt lat="50.19863" lon="4.73107">
        <ele>237.4</ele>
        <time>2025-04-05T08:53:29Z</time>
      </trkpt>
      <trkpt lat="50.19857" lon="4.73114">
        <ele>237.2</ele>
        <time>2025-04-05T08:53:30Z</time>
      </trkpt>
      <trkpt lat="50.19851" lon="4.73119">
        <ele>237</ele>
        <time>2025-04-05T08:53:31Z</time>
      </trkpt>
      <trkpt lat="50.19846" lon="4.73126">
        <ele>236.8</ele>
        <time>2025-04-05T08:53:32Z</time>
      </trkpt>
      <trkpt lat="50.1984" lon="4.73132">
        <ele>236.4</ele>
        <time>2025-04-05T08:53:33Z</time>
      </trkpt>
      <trkpt lat="50.19834" lon="4.73137">
        <ele>236.2</ele>
        <time>2025-04-05T08:53:34Z</time>
      </trkpt>
      <trkpt lat="50.19827" lon="4.73143">
        <ele>235.8</ele>
        <time>2025-04-05T08:53:35Z</time>
      </trkpt>
      <trkpt lat="50.1982" lon="4.73149">
        <ele>235.6</ele>
        <time>2025-04-05T08:53:36Z</time>
      </trkpt>
      <trkpt lat="50.19812" lon="4.73153">
        <ele>235</ele>
        <time>2025-04-05T08:53:37Z</time>
      </trkpt>
      <trkpt lat="50.19807" lon="4.73155">
        <ele>234.6</ele>
        <time>2025-04-05T08:53:38Z</time>
      </trkpt>
      <trkpt lat="50.19797" lon="4.73158">
        <ele>234.2</ele>
        <time>2025-04-05T08:53:39Z</time>
      </trkpt>
      <trkpt lat="50.19789" lon="4.7316">
        <ele>233.8</ele>
        <time>2025-04-05T08:53:40Z</time>
      </trkpt>
      <trkpt lat="50.19782" lon="4.73162">
        <ele>233.4</ele>
        <time>2025-04-05T08:53:41Z</time>
      </trkpt>
      <trkpt lat="50.19773" lon="4.73164">
        <ele>233.2</ele>
        <time>2025-04-05T08:53:42Z</time>
      </trkpt>
      <trkpt lat="50.19766" lon="4.73165">
        <ele>232.8</ele>
        <time>2025-04-05T08:53:43Z</time>
      </trkpt>
      <trkpt lat="50.19758" lon="4.73167">
        <ele>232.4</ele>
        <time>2025-04-05T08:53:44Z</time>
      </trkpt>
      <trkpt lat="50.19747" lon="4.73169">
        <ele>231.8</ele>
        <time>2025-04-05T08:53:45Z</time>
      </trkpt>
      <trkpt lat="50.19738" lon="4.73171">
        <ele>231.4</ele>
        <time>2025-04-05T08:53:46Z</time>
      </trkpt>
      <trkpt lat="50.19732" lon="4.73172">
        <ele>231</ele>
        <time>2025-04-05T08:53:47Z</time>
      </trkpt>
      <trkpt lat="50.19724" lon="4.73174">
        <ele>230.4</ele>
        <time>2025-04-05T08:53:48Z</time>
      </trkpt>
      <trkpt lat="50.19714" lon="4.73176">
        <ele>229.8</ele>
        <time>2025-04-05T08:53:49Z</time>
      </trkpt>
      <trkpt lat="50.19707" lon="4.73178">
        <ele>229.4</ele>
        <time>2025-04-05T08:53:50Z</time>
      </trkpt>
      <trkpt lat="50.19699" lon="4.7318">
        <ele>228.8</ele>
        <time>2025-04-05T08:53:51Z</time>
      </trkpt>
      <trkpt lat="50.1969" lon="4.73183">
        <ele>228.2</ele>
        <time>2025-04-05T08:53:52Z</time>
      </trkpt>
      <trkpt lat="50.19681" lon="4.73185">
        <ele>227.6</ele>
        <time>2025-04-05T08:53:53Z</time>
      </trkpt>
      <trkpt lat="50.19671" lon="4.73187">
        <ele>227</ele>
        <time>2025-04-05T08:53:54Z</time>
      </trkpt>
      <trkpt lat="50.19664" lon="4.73189">
        <ele>226.4</ele>
        <time>2025-04-05T08:53:55Z</time>
      </trkpt>
      <trkpt lat="50.19654" lon="4.73191">
        <ele>225.8</ele>
        <time>2025-04-05T08:53:56Z</time>
      </trkpt>
      <trkpt lat="50.19645" lon="4.73194">
        <ele>225</ele>
        <time>2025-04-05T08:53:57Z</time>
      </trkpt>
      <trkpt lat="50.19638" lon="4.73198">
        <ele>224.2</ele>
        <time>2025-04-05T08:53:58Z</time>
      </trkpt>
      <trkpt lat="50.19629" lon="4.73203">
        <ele>223.6</ele>
        <time>2025-04-05T08:53:59Z</time>
      </trkpt>
      <trkpt lat="50.19619" lon="4.7321">
        <ele>222.8</ele>
        <time>2025-04-05T08:54:00Z</time>
      </trkpt>
      <trkpt lat="50.19611" lon="4.73218">
        <ele>222</ele>
        <time>2025-04-05T08:54:01Z</time>
      </trkpt>
      <trkpt lat="50.19602" lon="4.73227">
        <ele>221.4</ele>
        <time>2025-04-05T08:54:02Z</time>
      </trkpt>
      <trkpt lat="50.19596" lon="4.73232">
        <ele>220.6</ele>
        <time>2025-04-05T08:54:03Z</time>
      </trkpt>
      <trkpt lat="50.1959" lon="4.7324">
        <ele>220</ele>
        <time>2025-04-05T08:54:04Z</time>
      </trkpt>
      <trkpt lat="50.19581" lon="4.73249">
        <ele>219.6</ele>
        <time>2025-04-05T08:54:05Z</time>
      </trkpt>
      <trkpt lat="50.19574" lon="4.73257">
        <ele>218.8</ele>
        <time>2025-04-05T08:54:06Z</time>
      </trkpt>
      <trkpt lat="50.19568" lon="4.73265">
        <ele>218.2</ele>
        <time>2025-04-05T08:54:07Z</time>
      </trkpt>
      <trkpt lat="50.19563" lon="4.73271">
        <ele>217.6</ele>
        <time>2025-04-05T08:54:08Z</time>
      </trkpt>
      <trkpt lat="50.19555" lon="4.73281">
        <ele>217</ele>
        <time>2025-04-05T08:54:09Z</time>
      </trkpt>
      <trkpt lat="50.19548" lon="4.73289">
        <ele>216.2</ele>
        <time>2025-04-05T08:54:10Z</time>
      </trkpt>
      <trkpt lat="50.19542" lon="4.73297">
        <ele>215.6</ele>
        <time>2025-04-05T08:54:11Z</time>
      </trkpt>
      <trkpt lat="50.19535" lon="4.73306">
        <ele>215</ele>
        <time>2025-04-05T08:54:12Z</time>
      </trkpt>
      <trkpt lat="50.19529" lon="4.73315">
        <ele>214.4</ele>
        <time>2025-04-05T08:54:13Z</time>
      </trkpt>
      <trkpt lat="50.19522" lon="4.73324">
        <ele>213.8</ele>
        <time>2025-04-05T08:54:14Z</time>
      </trkpt>
      <trkpt lat="50.19515" lon="4.73333">
        <ele>213.2</ele>
        <time>2025-04-05T08:54:15Z</time>
      </trkpt>
      <trkpt lat="50.19508" lon="4.73341">
        <ele>212.6</ele>
        <time>2025-04-05T08:54:16Z</time>
      </trkpt>
      <trkpt lat="50.19502" lon="4.73349">
        <ele>212</ele>
        <time>2025-04-05T08:54:17Z</time>
      </trkpt>
      <trkpt lat="50.19494" lon="4.73359">
        <ele>211.4</ele>
        <time>2025-04-05T08:54:18Z</time>
      </trkpt>
      <trkpt lat="50.19487" lon="4.73366">
        <ele>210.8</ele>
        <time>2025-04-05T08:54:19Z</time>
      </trkpt>
      <trkpt lat="50.19481" lon="4.73372">
        <ele>210.2</ele>
        <time>2025-04-05T08:54:20Z</time>
      </trkpt>
      <trkpt lat="50.19472" lon="4.73381">
        <ele>209.6</ele>
        <time>2025-04-05T08:54:21Z</time>
      </trkpt>
      <trkpt lat="50.19466" lon="4.73387">
        <ele>208.8</ele>
        <time>2025-04-05T08:54:22Z</time>
      </trkpt>
      <trkpt lat="50.19458" lon="4.73394">
        <ele>208</ele>
        <time>2025-04-05T08:54:23Z</time>
      </trkpt>
      <trkpt lat="50.19449" lon="4.73402">
        <ele>207.2</ele>
        <time>2025-04-05T08:54:24Z</time>
      </trkpt>
      <trkpt lat="50.19441" lon="4.73409">
        <ele>206.4</ele>
        <time>2025-04-05T08:54:25Z</time>
      </trkpt>
      <trkpt lat="50.19434" lon="4.73414">
        <ele>205.6</ele>
        <time>2025-04-05T08:54:26Z</time>
      </trkpt>
      <trkpt lat="50.19427" lon="4.73421">
        <ele>205</ele>
        <time>2025-04-05T08:54:27Z</time>
      </trkpt>
      <trkpt lat="50.19418" lon="4.73429">
        <ele>204.2</ele>
        <time>2025-04-05T08:54:28Z</time>
      </trkpt>
      <trkpt lat="50.19412" lon="4.73434">
        <ele>203.6</ele>
        <time>2025-04-05T08:54:29Z</time>
      </trkpt>
      <trkpt lat="50.19404" lon="4.73441">
        <ele>202.8</ele>
        <time>2025-04-05T08:54:30Z</time>
      </trkpt>
      <trkpt lat="50.19395" lon="4.73449">
        <ele>202.2</ele>
        <time>2025-04-05T08:54:31Z</time>
      </trkpt>
      <trkpt lat="50.19388" lon="4.73456">
        <ele>201.4</ele>
        <time>2025-04-05T08:54:32Z</time>
      </trkpt>
      <trkpt lat="50.19381" lon="4.73463">
        <ele>200.8</ele>
        <time>2025-04-05T08:54:33Z</time>
      </trkpt>
      <trkpt lat="50.19375" lon="4.73468">
        <ele>200.2</ele>
        <time>2025-04-05T08:54:34Z</time>
      </trkpt>
      <trkpt lat="50.19368" lon="4.73474">
        <ele>199.6</ele>
        <time>2025-04-05T08:54:35Z</time>
      </trkpt>
      <trkpt lat="50.19361" lon="4.7348">
        <ele>199</ele>
        <time>2025-04-05T08:54:36Z</time>
      </trkpt>
      <trkpt lat="50.19353" lon="4.73487">
        <ele>198.6</ele>
        <time>2025-04-05T08:54:37Z</time>
      </trkpt>
      <trkpt lat="50.19348" lon="4.7349">
        <ele>198</ele>
        <time>2025-04-05T08:54:38Z</time>
      </trkpt>
      <trkpt lat="50.19343" lon="4.73494">
        <ele>197.6</ele>
        <time>2025-04-05T08:54:39Z</time>
      </trkpt>
      <trkpt lat="50.19336" lon="4.73498">
        <ele>197.2</ele>
        <time>2025-04-05T08:54:40Z</time>
      </trkpt>
      <trkpt lat="50.19331" lon="4.735">
        <ele>196.8</ele>
        <time>2025-04-05T08:54:41Z</time>
      </trkpt>
      <trkpt lat="50.19327" lon="4.73501">
        <ele>196.4</ele>
        <time>2025-04-05T08:54:42Z</time>
      </trkpt>
      <trkpt lat="50.19321" lon="4.73499">
        <ele>195.8</ele>
        <time>2025-04-05T08:54:43Z</time>
      </trkpt>
      <trkpt lat="50.19316" lon="4.73495">
        <ele>195.2</ele>
        <time>2025-04-05T08:54:44Z</time>
      </trkpt>
      <trkpt lat="50.19308" lon="4.73489">
        <ele>194.6</ele>
        <time>2025-04-05T08:54:45Z</time>
      </trkpt>
      <trkpt lat="50.19301" lon="4.73483">
        <ele>194</ele>
        <time>2025-04-05T08:54:46Z</time>
      </trkpt>
      <trkpt lat="50.19295" lon="4.73476">
        <ele>193.4</ele>
        <time>2025-04-05T08:54:47Z</time>
      </trkpt>
      <trkpt lat="50.19286" lon="4.73467">
        <ele>192.8</ele>
        <time>2025-04-05T08:54:48Z</time>
      </trkpt>
      <trkpt lat="50.19279" lon="4.73459">
        <ele>192</ele>
        <time>2025-04-05T08:54:49Z</time>
      </trkpt>
      <trkpt lat="50.19273" lon="4.73453">
        <ele>191.4</ele>
        <time>2025-04-05T08:54:50Z</time>
      </trkpt>
      <trkpt lat="50.19266" lon="4.73444">
        <ele>190.6</ele>
        <time>2025-04-05T08:54:51Z</time>
      </trkpt>
      <trkpt lat="50.19257" lon="4.73434">
        <ele>190</ele>
        <time>2025-04-05T08:54:52Z</time>
      </trkpt>
      <trkpt lat="50.19251" lon="4.73426">
        <ele>189.4</ele>
        <time>2025-04-05T08:54:53Z</time>
      </trkpt>
      <trkpt lat="50.19242" lon="4.73417">
        <ele>189</ele>
        <time>2025-04-05T08:54:54Z</time>
      </trkpt>
      <trkpt lat="50.19236" lon="4.73411">
        <ele>188.4</ele>
        <time>2025-04-05T08:54:55Z</time>
      </trkpt>
      <trkpt lat="50.19229" lon="4.73403">
        <ele>187.8</ele>
        <time>2025-04-05T08:54:56Z</time>
      </trkpt>
      <trkpt lat="50.19222" lon="4.73395">
        <ele>187.2</ele>
        <time>2025-04-05T08:54:57Z</time>
      </trkpt>
      <trkpt lat="50.19215" lon="4.73387">
        <ele>186.6</ele>
        <time>2025-04-05T08:54:58Z</time>
      </trkpt>
      <trkpt lat="50.19207" lon="4.73378">
        <ele>186</ele>
        <time>2025-04-05T08:54:59Z</time>
      </trkpt>
      <trkpt lat="50.19202" lon="4.73371">
        <ele>185.6</ele>
        <time>2025-04-05T08:55:00Z</time>
      </trkpt>
      <trkpt lat="50.19194" lon="4.73363">
        <ele>185.2</ele>
        <time>2025-04-05T08:55:01Z</time>
      </trkpt>
      <trkpt lat="50.19188" lon="4.73356">
        <ele>184.8</ele>
        <time>2025-04-05T08:55:02Z</time>
      </trkpt>
      <trkpt lat="50.19184" lon="4.7335">
        <ele>184.6</ele>
        <time>2025-04-05T08:55:03Z</time>
      </trkpt>
      <trkpt lat="50.19177" lon="4.73344">
        <ele>184.2</ele>
        <time>2025-04-05T08:55:04Z</time>
      </trkpt>
      <trkpt lat="50.19171" lon="4.73337">
        <ele>184</ele>
        <time>2025-04-05T08:55:05Z</time>
      </trkpt>
      <trkpt lat="50.19165" lon="4.73331">
        <ele>183.8</ele>
        <time>2025-04-05T08:55:06Z</time>
      </trkpt>
      <trkpt lat="50.19159" lon="4.73323">
        <ele>183.6</ele>
        <time>2025-04-05T08:55:07Z</time>
      </trkpt>
      <trkpt lat="50.19153" lon="4.73318">
        <ele>183.6</ele>
        <time>2025-04-05T08:55:08Z</time>
      </trkpt>
      <trkpt lat="50.19149" lon="4.73313">
        <ele>183.4</ele>
        <time>2025-04-05T08:55:09Z</time>
      </trkpt>
      <trkpt lat="50.19144" lon="4.73307">
        <ele>183.4</ele>
        <time>2025-04-05T08:55:10Z</time>
      </trkpt>
      <trkpt lat="50.1914" lon="4.73298">
        <ele>183.4</ele>
        <time>2025-04-05T08:55:11Z</time>
      </trkpt>
      <trkpt lat="50.19138" lon="4.73292">
        <ele>183.4</ele>
        <time>2025-04-05T08:55:12Z</time>
      </trkpt>
      <trkpt lat="50.19136" lon="4.73284">
        <ele>183.2</ele>
        <time>2025-04-05T08:55:13Z</time>
      </trkpt>
      <trkpt lat="50.19134" lon="4.73273">
        <ele>183.2</ele>
        <time>2025-04-05T08:55:14Z</time>
      </trkpt>
      <trkpt lat="50.19132" lon="4.73263">
        <ele>183.2</ele>
        <time>2025-04-05T08:55:15Z</time>
      </trkpt>
      <trkpt lat="50.19132" lon="4.73253">
        <ele>183</ele>
        <time>2025-04-05T08:55:16Z</time>
      </trkpt>
      <trkpt lat="50.19132" lon="4.73244">
        <ele>183</ele>
        <time>2025-04-05T08:55:17Z</time>
      </trkpt>
      <trkpt lat="50.1913" lon="4.73234">
        <ele>182.8</ele>
        <time>2025-04-05T08:55:18Z</time>
      </trkpt>
      <trkpt lat="50.1913" lon="4.73224">
        <ele>182.6</ele>
        <time>2025-04-05T08:55:19Z</time>
      </trkpt>
      <trkpt lat="50.19129" lon="4.73213">
        <ele>182.4</ele>
        <time>2025-04-05T08:55:20Z</time>
      </trkpt>
      <trkpt lat="50.19128" lon="4.73202">
        <ele>182.2</ele>
        <time>2025-04-05T08:55:21Z</time>
      </trkpt>
      <trkpt lat="50.19127" lon="4.73191">
        <ele>182</ele>
        <time>2025-04-05T08:55:22Z</time>
      </trkpt>
      <trkpt lat="50.19127" lon="4.7318">
        <ele>181.8</ele>
        <time>2025-04-05T08:55:23Z</time>
      </trkpt>
      <trkpt lat="50.19125" lon="4.73169">
        <ele>181.6</ele>
        <time>2025-04-05T08:55:24Z</time>
      </trkpt>
      <trkpt lat="50.19125" lon="4.73156">
        <ele>181.4</ele>
        <time>2025-04-05T08:55:25Z</time>
      </trkpt>
      <trkpt lat="50.19124" lon="4.73146">
        <ele>181.2</ele>
        <time>2025-04-05T08:55:26Z</time>
      </trkpt>
      <trkpt lat="50.19122" lon="4.73132">
        <ele>180.8</ele>
        <time>2025-04-05T08:55:27Z</time>
      </trkpt>
      <trkpt lat="50.19121" lon="4.73121">
        <ele>180.6</ele>
        <time>2025-04-05T08:55:28Z</time>
      </trkpt>
      <trkpt lat="50.19121" lon="4.73111">
        <ele>180.4</ele>
        <time>2025-04-05T08:55:29Z</time>
      </trkpt>
      <trkpt lat="50.1912" lon="4.731">
        <ele>180.2</ele>
        <time>2025-04-05T08:55:30Z</time>
      </trkpt>
      <trkpt lat="50.1912" lon="4.73088">
        <ele>180</ele>
        <time>2025-04-05T08:55:31Z</time>
      </trkpt>
      <trkpt lat="50.19119" lon="4.73076">
        <ele>179.8</ele>
        <time>2025-04-05T08:55:32Z</time>
      </trkpt>
      <trkpt lat="50.19117" lon="4.73062">
        <ele>179.6</ele>
        <time>2025-04-05T08:55:33Z</time>
      </trkpt>
      <trkpt lat="50.19116" lon="4.7305">
        <ele>179.4</ele>
        <time>2025-04-05T08:55:34Z</time>
      </trkpt>
      <trkpt lat="50.19115" lon="4.7304">
        <ele>179</ele>
        <time>2025-04-05T08:55:35Z</time>
      </trkpt>
      <trkpt lat="50.19115" lon="4.73028">
        <ele>178.8</ele>
        <time>2025-04-05T08:55:36Z</time>
      </trkpt>
      <trkpt lat="50.19114" lon="4.73014">
        <ele>178.6</ele>
        <time>2025-04-05T08:55:37Z</time>
      </trkpt>
      <trkpt lat="50.19113" lon="4.73004">
        <ele>178.4</ele>
        <time>2025-04-05T08:55:38Z</time>
      </trkpt>
      <trkpt lat="50.19112" lon="4.72991">
        <ele>178</ele>
        <time>2025-04-05T08:55:39Z</time>
      </trkpt>
      <trkpt lat="50.19112" lon="4.72978">
        <ele>177.6</ele>
        <time>2025-04-05T08:55:40Z</time>
      </trkpt>
      <trkpt lat="50.19111" lon="4.72965">
        <ele>177.4</ele>
        <time>2025-04-05T08:55:41Z</time>
      </trkpt>
      <trkpt lat="50.19109" lon="4.72952">
        <ele>177</ele>
        <time>2025-04-05T08:55:42Z</time>
      </trkpt>
      <trkpt lat="50.19108" lon="4.72939">
        <ele>176.6</ele>
        <time>2025-04-05T08:55:43Z</time>
      </trkpt>
      <trkpt lat="50.19107" lon="4.72926">
        <ele>176.4</ele>
        <time>2025-04-05T08:55:44Z</time>
      </trkpt>
      <trkpt lat="50.19107" lon="4.72913">
        <ele>176.2</ele>
        <time>2025-04-05T08:55:45Z</time>
      </trkpt>
      <trkpt lat="50.19106" lon="4.72901">
        <ele>176</ele>
        <time>2025-04-05T08:55:46Z</time>
      </trkpt>
      <trkpt lat="50.19105" lon="4.72889">
        <ele>175.8</ele>
        <time>2025-04-05T08:55:47Z</time>
      </trkpt>
      <trkpt lat="50.19104" lon="4.72876">
        <ele>175.6</ele>
        <time>2025-04-05T08:55:48Z</time>
      </trkpt>
      <trkpt lat="50.19103" lon="4.72864">
        <ele>175.6</ele>
        <time>2025-04-05T08:55:49Z</time>
      </trkpt>
      <trkpt lat="50.19102" lon="4.72852">
        <ele>175.4</ele>
        <time>2025-04-05T08:55:50Z</time>
      </trkpt>
      <trkpt lat="50.191" lon="4.72837">
        <ele>175</ele>
        <time>2025-04-05T08:55:51Z</time>
      </trkpt>
      <trkpt lat="50.19098" lon="4.72827">
        <ele>174.8</ele>
        <time>2025-04-05T08:55:52Z</time>
      </trkpt>
      <trkpt lat="50.19095" lon="4.72815">
        <ele>174.4</ele>
        <time>2025-04-05T08:55:53Z</time>
      </trkpt>
      <trkpt lat="50.19091" lon="4.728">
        <ele>174</ele>
        <time>2025-04-05T08:55:54Z</time>
      </trkpt>
      <trkpt lat="50.19087" lon="4.72791">
        <ele>173.6</ele>
        <time>2025-04-05T08:55:55Z</time>
      </trkpt>
      <trkpt lat="50.19082" lon="4.7278">
        <ele>173</ele>
        <time>2025-04-05T08:55:56Z</time>
      </trkpt>
      <trkpt lat="50.19075" lon="4.7277">
        <ele>172.4</ele>
        <time>2025-04-05T08:55:57Z</time>
      </trkpt>
      <trkpt lat="50.19069" lon="4.72757">
        <ele>172</ele>
        <time>2025-04-05T08:55:58Z</time>
      </trkpt>
      <trkpt lat="50.19064" lon="4.72749">
        <ele>171.4</ele>
        <time>2025-04-05T08:55:59Z</time>
      </trkpt>
      <trkpt lat="50.19056" lon="4.72736">
        <ele>170.8</ele>
        <time>2025-04-05T08:56:00Z</time>
      </trkpt>
      <trkpt lat="50.1905" lon="4.72727">
        <ele>170.2</ele>
        <time>2025-04-05T08:56:01Z</time>
      </trkpt>
      <trkpt lat="50.19044" lon="4.72717">
        <ele>169.6</ele>
        <time>2025-04-05T08:56:02Z</time>
      </trkpt>
      <trkpt lat="50.19037" lon="4.72706">
        <ele>169</ele>
        <time>2025-04-05T08:56:03Z</time>
      </trkpt>
      <trkpt lat="50.19029" lon="4.72693">
        <ele>168.4</ele>
        <time>2025-04-05T08:56:04Z</time>
      </trkpt>
      <trkpt lat="50.19024" lon="4.72685">
        <ele>167.8</ele>
        <time>2025-04-05T08:56:05Z</time>
      </trkpt>
      <trkpt lat="50.19017" lon="4.72675">
        <ele>167.2</ele>
        <time>2025-04-05T08:56:06Z</time>
      </trkpt>
      <trkpt lat="50.19009" lon="4.72663">
        <ele>166.8</ele>
        <time>2025-04-05T08:56:07Z</time>
      </trkpt>
      <trkpt lat="50.19003" lon="4.72654">
        <ele>166.2</ele>
        <time>2025-04-05T08:56:08Z</time>
      </trkpt>
      <trkpt lat="50.18998" lon="4.72646">
        <ele>165.8</ele>
        <time>2025-04-05T08:56:09Z</time>
      </trkpt>
      <trkpt lat="50.18991" lon="4.72634">
        <ele>165.2</ele>
        <time>2025-04-05T08:56:10Z</time>
      </trkpt>
      <trkpt lat="50.18986" lon="4.72625">
        <ele>164.6</ele>
        <time>2025-04-05T08:56:11Z</time>
      </trkpt>
      <trkpt lat="50.18979" lon="4.72612">
        <ele>164</ele>
        <time>2025-04-05T08:56:12Z</time>
      </trkpt>
      <trkpt lat="50.18974" lon="4.72601">
        <ele>163.4</ele>
        <time>2025-04-05T08:56:13Z</time>
      </trkpt>
      <trkpt lat="50.18968" lon="4.72592">
        <ele>162.8</ele>
        <time>2025-04-05T08:56:14Z</time>
      </trkpt>
      <trkpt lat="50.18963" lon="4.7258">
        <ele>162.2</ele>
        <time>2025-04-05T08:56:15Z</time>
      </trkpt>
      <trkpt lat="50.18955" lon="4.72567">
        <ele>161.6</ele>
        <time>2025-04-05T08:56:16Z</time>
      </trkpt>
      <trkpt lat="50.18951" lon="4.72559">
        <ele>161.2</ele>
        <time>2025-04-05T08:56:17Z</time>
      </trkpt>
      <trkpt lat="50.18945" lon="4.7255">
        <ele>160.6</ele>
        <time>2025-04-05T08:56:18Z</time>
      </trkpt>
      <trkpt lat="50.1894" lon="4.7254">
        <ele>160.2</ele>
        <time>2025-04-05T08:56:19Z</time>
      </trkpt>
      <trkpt lat="50.18935" lon="4.7253">
        <ele>159.6</ele>
        <time>2025-04-05T08:56:20Z</time>
      </trkpt>
      <trkpt lat="50.18928" lon="4.72519">
        <ele>159.2</ele>
        <time>2025-04-05T08:56:21Z</time>
      </trkpt>
      <trkpt lat="50.18924" lon="4.72512">
        <ele>158.8</ele>
        <time>2025-04-05T08:56:22Z</time>
      </trkpt>
      <trkpt lat="50.18919" lon="4.72503">
        <ele>158.2</ele>
        <time>2025-04-05T08:56:23Z</time>
      </trkpt>
      <trkpt lat="50.18914" lon="4.72493">
        <ele>157.6</ele>
        <time>2025-04-05T08:56:24Z</time>
      </trkpt>
      <trkpt lat="50.18909" lon="4.72483">
        <ele>156.8</ele>
        <time>2025-04-05T08:56:25Z</time>
      </trkpt>
      <trkpt lat="50.18905" lon="4.72473">
        <ele>156</ele>
        <time>2025-04-05T08:56:26Z</time>
      </trkpt>
      <trkpt lat="50.189" lon="4.72462">
        <ele>155.4</ele>
        <time>2025-04-05T08:56:27Z</time>
      </trkpt>
      <trkpt lat="50.18893" lon="4.72452">
        <ele>154.6</ele>
        <time>2025-04-05T08:56:28Z</time>
      </trkpt>
      <trkpt lat="50.18888" lon="4.72442">
        <ele>154</ele>
        <time>2025-04-05T08:56:29Z</time>
      </trkpt>
      <trkpt lat="50.1888" lon="4.7243">
        <ele>153.8</ele>
        <time>2025-04-05T08:56:30Z</time>
      </trkpt>
      <trkpt lat="50.18874" lon="4.7242">
        <ele>153.6</ele>
        <time>2025-04-05T08:56:31Z</time>
      </trkpt>
      <trkpt lat="50.18868" lon="4.72411">
        <ele>153.4</ele>
        <time>2025-04-05T08:56:32Z</time>
      </trkpt>
      <trkpt lat="50.18863" lon="4.72405">
        <ele>153.4</ele>
        <time>2025-04-05T08:56:33Z</time>
      </trkpt>
      <trkpt lat="50.18855" lon="4.72396">
        <ele>153.4</ele>
        <time>2025-04-05T08:56:34Z</time>
      </trkpt>
      <trkpt lat="50.18849" lon="4.7239">
        <ele>153.6</ele>
        <time>2025-04-05T08:56:35Z</time>
      </trkpt>
      <trkpt lat="50.18842" lon="4.72386">
        <ele>154</ele>
        <time>2025-04-05T08:56:36Z</time>
      </trkpt>
      <trkpt lat="50.18837" lon="4.72383">
        <ele>154.4</ele>
        <time>2025-04-05T08:56:37Z</time>
      </trkpt>
      <trkpt lat="50.18831" lon="4.7238">
        <ele>154.8</ele>
        <time>2025-04-05T08:56:38Z</time>
      </trkpt>
      <trkpt lat="50.18824" lon="4.72377">
        <ele>155</ele>
        <time>2025-04-05T08:56:39Z</time>
      </trkpt>
      <trkpt lat="50.18819" lon="4.72376">
        <ele>155.4</ele>
        <time>2025-04-05T08:56:40Z</time>
      </trkpt>
      <trkpt lat="50.18814" lon="4.72375">
        <ele>155.6</ele>
        <time>2025-04-05T08:56:41Z</time>
      </trkpt>
      <trkpt lat="50.18807" lon="4.72373">
        <ele>156</ele>
        <time>2025-04-05T08:56:42Z</time>
      </trkpt>
      <trkpt lat="50.18801" lon="4.72371">
        <ele>156.2</ele>
        <time>2025-04-05T08:56:43Z</time>
      </trkpt>
      <trkpt lat="50.18796" lon="4.7237">
        <ele>156.6</ele>
        <time>2025-04-05T08:56:44Z</time>
      </trkpt>
      <trkpt lat="50.18791" lon="4.72368">
        <ele>157</ele>
        <time>2025-04-05T08:56:45Z</time>
      </trkpt>
      <trkpt lat="50.18786" lon="4.72367">
        <ele>157.2</ele>
        <time>2025-04-05T08:56:46Z</time>
      </trkpt>
      <trkpt lat="50.18781" lon="4.72365">
        <ele>157.4</ele>
        <time>2025-04-05T08:56:47Z</time>
      </trkpt>
      <trkpt lat="50.18775" lon="4.72365">
        <ele>157.6</ele>
        <time>2025-04-05T08:56:48Z</time>
      </trkpt>
      <trkpt lat="50.1877" lon="4.72364">
        <ele>158</ele>
        <time>2025-04-05T08:56:49Z</time>
      </trkpt>
      <trkpt lat="50.18765" lon="4.72363">
        <ele>158.2</ele>
        <time>2025-04-05T08:56:50Z</time>
      </trkpt>
      <trkpt lat="50.1876" lon="4.72361">
        <ele>158.4</ele>
        <time>2025-04-05T08:56:51Z</time>
      </trkpt>
      <trkpt lat="50.18754" lon="4.72359">
        <ele>158.8</ele>
        <time>2025-04-05T08:56:52Z</time>
      </trkpt>
      <trkpt lat="50.18749" lon="4.72358">
        <ele>159</ele>
        <time>2025-04-05T08:56:53Z</time>
      </trkpt>
      <trkpt lat="50.18744" lon="4.72357">
        <ele>159.4</ele>
        <time>2025-04-05T08:56:54Z</time>
      </trkpt>
      <trkpt lat="50.1874" lon="4.72356">
        <ele>159.6</ele>
        <time>2025-04-05T08:56:55Z</time>
      </trkpt>
      <trkpt lat="50.18736" lon="4.72355">
        <ele>159.8</ele>
        <time>2025-04-05T08:56:56Z</time>
      </trkpt>
      <trkpt lat="50.18732" lon="4.72354">
        <ele>160</ele>
        <time>2025-04-05T08:56:57Z</time>
      </trkpt>
      <trkpt lat="50.18728" lon="4.72354">
        <ele>160.4</ele>
        <time>2025-04-05T08:56:58Z</time>
      </trkpt>
      <trkpt lat="50.18724" lon="4.72353">
        <ele>160.6</ele>
        <time>2025-04-05T08:56:59Z</time>
      </trkpt>
      <trkpt lat="50.18719" lon="4.72351">
        <ele>160.8</ele>
        <time>2025-04-05T08:57:00Z</time>
      </trkpt>
      <trkpt lat="50.18713" lon="4.7235">
        <ele>161</ele>
        <time>2025-04-05T08:57:01Z</time>
      </trkpt>
      <trkpt lat="50.18707" lon="4.72349">
        <ele>161.2</ele>
        <time>2025-04-05T08:57:02Z</time>
      </trkpt>
      <trkpt lat="50.18704" lon="4.72348">
        <ele>161.4</ele>
        <time>2025-04-05T08:57:03Z</time>
      </trkpt>
      <trkpt lat="50.18699" lon="4.72347">
        <ele>161.6</ele>
        <time>2025-04-05T08:57:04Z</time>
      </trkpt>
      <trkpt lat="50.18695" lon="4.72347">
        <ele>161.8</ele>
        <time>2025-04-05T08:57:05Z</time>
      </trkpt>
      <trkpt lat="50.18691" lon="4.72346">
        <ele>162</ele>
        <time>2025-04-05T08:57:06Z</time>
      </trkpt>
      <trkpt lat="50.18687" lon="4.72346">
        <ele>162.2</ele>
        <time>2025-04-05T08:57:07Z</time>
      </trkpt>
      <trkpt lat="50.18684" lon="4.72346">
        <ele>162.4</ele>
        <time>2025-04-05T08:57:08Z</time>
      </trkpt>
      <trkpt lat="50.1868" lon="4.72347">
        <ele>162.8</ele>
        <time>2025-04-05T08:57:09Z</time>
      </trkpt>
      <trkpt lat="50.18677" lon="4.72347">
        <ele>163</ele>
        <time>2025-04-05T08:57:10Z</time>
      </trkpt>
      <trkpt lat="50.18673" lon="4.72347">
        <ele>163.2</ele>
        <time>2025-04-05T08:57:11Z</time>
      </trkpt>
      <trkpt lat="50.1867" lon="4.72347">
        <ele>163.4</ele>
        <time>2025-04-05T08:57:12Z</time>
      </trkpt>
      <trkpt lat="50.18667" lon="4.72348">
        <ele>163.6</ele>
        <time>2025-04-05T08:57:13Z</time>
      </trkpt>
      <trkpt lat="50.18663" lon="4.72348">
        <ele>163.8</ele>
        <time>2025-04-05T08:57:14Z</time>
      </trkpt>
      <trkpt lat="50.1866" lon="4.72349">
        <ele>164</ele>
        <time>2025-04-05T08:57:15Z</time>
      </trkpt>
      <trkpt lat="50.18655" lon="4.72349">
        <ele>164.2</ele>
        <time>2025-04-05T08:57:16Z</time>
      </trkpt>
      <trkpt lat="50.18652" lon="4.72349">
        <ele>164.4</ele>
        <time>2025-04-05T08:57:17Z</time>
      </trkpt>
      <trkpt lat="50.18649" lon="4.7235">
        <ele>164.6</ele>
        <time>2025-04-05T08:57:18Z</time>
      </trkpt>
      <trkpt lat="50.18645" lon="4.7235">
        <ele>164.8</ele>
        <time>2025-04-05T08:57:19Z</time>
      </trkpt>
      <trkpt lat="50.18641" lon="4.72351">
        <ele>165</ele>
        <time>2025-04-05T08:57:20Z</time>
      </trkpt>
      <trkpt lat="50.18638" lon="4.72351">
        <ele>165.2</ele>
        <time>2025-04-05T08:57:21Z</time>
      </trkpt>
      <trkpt lat="50.18634" lon="4.7235">
        <ele>165.4</ele>
        <time>2025-04-05T08:57:22Z</time>
      </trkpt>
      <trkpt lat="50.18631" lon="4.7235">
        <ele>165.6</ele>
        <time>2025-04-05T08:57:23Z</time>
      </trkpt>
      <trkpt lat="50.18626" lon="4.72351">
        <ele>165.8</ele>
        <time>2025-04-05T08:57:24Z</time>
      </trkpt>
      <trkpt lat="50.18622" lon="4.72352">
        <ele>166</ele>
        <time>2025-04-05T08:57:25Z</time>
      </trkpt>
      <trkpt lat="50.18618" lon="4.72353">
        <ele>166.2</ele>
        <time>2025-04-05T08:57:26Z</time>
      </trkpt>
      <trkpt lat="50.18614" lon="4.72354">
        <ele>166.4</ele>
        <time>2025-04-05T08:57:27Z</time>
      </trkpt>
      <trkpt lat="50.18611" lon="4.72354">
        <ele>166.6</ele>
        <time>2025-04-05T08:57:28Z</time>
      </trkpt>
      <trkpt lat="50.18607" lon="4.72355">
        <ele>166.8</ele>
        <time>2025-04-05T08:57:29Z</time>
      </trkpt>
      <trkpt lat="50.18603" lon="4.72356">
        <ele>167</ele>
        <time>2025-04-05T08:57:30Z</time>
      </trkpt>
      <trkpt lat="50.18599" lon="4.72356">
        <ele>167.2</ele>
        <time>2025-04-05T08:57:31Z</time>
      </trkpt>
      <trkpt lat="50.18596" lon="4.72357">
        <ele>167.6</ele>
        <time>2025-04-05T08:57:32Z</time>
      </trkpt>
      <trkpt lat="50.18592" lon="4.72358">
        <ele>167.8</ele>
        <time>2025-04-05T08:57:33Z</time>
      </trkpt>
      <trkpt lat="50.1859" lon="4.72359">
        <ele>168</ele>
        <time>2025-04-05T08:57:34Z</time>
      </trkpt>
      <trkpt lat="50.18587" lon="4.72359">
        <ele>168.2</ele>
        <time>2025-04-05T08:57:35Z</time>
      </trkpt>
      <trkpt lat="50.18584" lon="4.72359">
        <ele>168.4</ele>
        <time>2025-04-05T08:57:36Z</time>
      </trkpt>
      <trkpt lat="50.1858" lon="4.72359">
        <ele>168.6</ele>
        <time>2025-04-05T08:57:37Z</time>
      </trkpt>
      <trkpt lat="50.18577" lon="4.72358">
        <ele>168.8</ele>
        <time>2025-04-05T08:57:38Z</time>
      </trkpt>
      <trkpt lat="50.18573" lon="4.72358">
        <ele>169</ele>
        <time>2025-04-05T08:57:39Z</time>
      </trkpt>
      <trkpt lat="50.1857" lon="4.72358">
        <ele>169.2</ele>
        <time>2025-04-05T08:57:40Z</time>
      </trkpt>
      <trkpt lat="50.18567" lon="4.72357">
        <ele>169.4</ele>
        <time>2025-04-05T08:57:41Z</time>
      </trkpt>
      <trkpt lat="50.18564" lon="4.72357">
        <ele>169.6</ele>
        <time>2025-04-05T08:57:42Z</time>
      </trkpt>
      <trkpt lat="50.18562" lon="4.72356">
        <ele>169.6</ele>
        <time>2025-04-05T08:57:43Z</time>
      </trkpt>
      <trkpt lat="50.18559" lon="4.72355">
        <ele>169.8</ele>
        <time>2025-04-05T08:57:44Z</time>
      </trkpt>
      <trkpt lat="50.18556" lon="4.72355">
        <ele>169.8</ele>
        <time>2025-04-05T08:57:45Z</time>
      </trkpt>
      <trkpt lat="50.18553" lon="4.72354">
        <ele>170</ele>
        <time>2025-04-05T08:57:46Z</time>
      </trkpt>
      <trkpt lat="50.1855" lon="4.72353">
        <ele>170.2</ele>
        <time>2025-04-05T08:57:47Z</time>
      </trkpt>
      <trkpt lat="50.18547" lon="4.72353">
        <ele>170.4</ele>
        <time>2025-04-05T08:57:48Z</time>
      </trkpt>
      <trkpt lat="50.18544" lon="4.72352">
        <ele>170.6</ele>
        <time>2025-04-05T08:57:49Z</time>
      </trkpt>
      <trkpt lat="50.18541" lon="4.72351">
        <ele>170.8</ele>
        <time>2025-04-05T08:57:50Z</time>
      </trkpt>
      <trkpt lat="50.18538" lon="4.72351">
        <ele>171</ele>
        <time>2025-04-05T08:57:51Z</time>
      </trkpt>
      <trkpt lat="50.18535" lon="4.72349">
        <ele>171.2</ele>
        <time>2025-04-05T08:57:52Z</time>
      </trkpt>
      <trkpt lat="50.18531" lon="4.72348">
        <ele>171.4</ele>
        <time>2025-04-05T08:57:53Z</time>
      </trkpt>
      <trkpt lat="50.18528" lon="4.72347">
        <ele>171.6</ele>
        <time>2025-04-05T08:57:54Z</time>
      </trkpt>
      <trkpt lat="50.18524" lon="4.72346">
        <ele>171.8</ele>
        <time>2025-04-05T08:57:55Z</time>
      </trkpt>
      <trkpt lat="50.1852" lon="4.72346">
        <ele>172</ele>
        <time>2025-04-05T08:57:56Z</time>
      </trkpt>
      <trkpt lat="50.18517" lon="4.72345">
        <ele>172.2</ele>
        <time>2025-04-05T08:57:57Z</time>
      </trkpt>
      <trkpt lat="50.18514" lon="4.72344">
        <ele>172.4</ele>
        <time>2025-04-05T08:57:58Z</time>
      </trkpt>
      <trkpt lat="50.1851" lon="4.72343">
        <ele>172.6</ele>
        <time>2025-04-05T08:57:59Z</time>
      </trkpt>
      <trkpt lat="50.18506" lon="4.72342">
        <ele>172.8</ele>
        <time>2025-04-05T08:58:00Z</time>
      </trkpt>
      <trkpt lat="50.18502" lon="4.7234">
        <ele>173</ele>
        <time>2025-04-05T08:58:01Z</time>
      </trkpt>
      <trkpt lat="50.18499" lon="4.72339">
        <ele>173.2</ele>
        <time>2025-04-05T08:58:02Z</time>
      </trkpt>
      <trkpt lat="50.18492" lon="4.72337">
        <ele>173.2</ele>
        <time>2025-04-05T08:58:03Z</time>
      </trkpt>
      <trkpt lat="50.18487" lon="4.72336">
        <ele>173.4</ele>
        <time>2025-04-05T08:58:04Z</time>
      </trkpt>
      <trkpt lat="50.18483" lon="4.72333">
        <ele>173.6</ele>
        <time>2025-04-05T08:58:05Z</time>
      </trkpt>
      <trkpt lat="50.18477" lon="4.72332">
        <ele>173.8</ele>
        <time>2025-04-05T08:58:06Z</time>
      </trkpt>
      <trkpt lat="50.18473" lon="4.72329">
        <ele>174</ele>
        <time>2025-04-05T08:58:07Z</time>
      </trkpt>
      <trkpt lat="50.1847" lon="4.72328">
        <ele>174.2</ele>
        <time>2025-04-05T08:58:08Z</time>
      </trkpt>
      <trkpt lat="50.18467" lon="4.72325">
        <ele>174.4</ele>
        <time>2025-04-05T08:58:09Z</time>
      </trkpt>
      <trkpt lat="50.18464" lon="4.72323">
        <ele>174.6</ele>
        <time>2025-04-05T08:58:10Z</time>
      </trkpt>
      <trkpt lat="50.18462" lon="4.7232">
        <ele>174.8</ele>
        <time>2025-04-05T08:58:11Z</time>
      </trkpt>
      <trkpt lat="50.18461" lon="4.72316">
        <ele>175.2</ele>
        <time>2025-04-05T08:58:12Z</time>
      </trkpt>
      <trkpt lat="50.18459" lon="4.72313">
        <ele>175.4</ele>
        <time>2025-04-05T08:58:13Z</time>
      </trkpt>
      <trkpt lat="50.18457" lon="4.7231">
        <ele>175.6</ele>
        <time>2025-04-05T08:58:14Z</time>
      </trkpt>
      <trkpt lat="50.18454" lon="4.72307">
        <ele>175.8</ele>
        <time>2025-04-05T08:58:15Z</time>
      </trkpt>
      <trkpt lat="50.18449" lon="4.72303">
        <ele>176</ele>
        <time>2025-04-05T08:58:16Z</time>
      </trkpt>
      <trkpt lat="50.18447" lon="4.723">
        <ele>176.2</ele>
        <time>2025-04-05T08:58:17Z</time>
      </trkpt>
      <trkpt lat="50.18444" lon="4.72296">
        <ele>176.4</ele>
        <time>2025-04-05T08:58:18Z</time>
      </trkpt>
      <trkpt lat="50.1844" lon="4.72292">
        <ele>176.6</ele>
        <time>2025-04-05T08:58:19Z</time>
      </trkpt>
      <trkpt lat="50.18435" lon="4.72288">
        <ele>176.6</ele>
        <time>2025-04-05T08:58:20Z</time>
      </trkpt>
      <trkpt lat="50.18432" lon="4.72285">
        <ele>176.8</ele>
        <time>2025-04-05T08:58:21Z</time>
      </trkpt>
      <trkpt lat="50.1843" lon="4.7228">
        <ele>177</ele>
        <time>2025-04-05T08:58:22Z</time>
      </trkpt>
      <trkpt lat="50.18428" lon="4.72277">
        <ele>177.2</ele>
        <time>2025-04-05T08:58:23Z</time>
      </trkpt>
      <trkpt lat="50.18425" lon="4.72274">
        <ele>177.4</ele>
        <time>2025-04-05T08:58:24Z</time>
      </trkpt>
      <trkpt lat="50.18424" lon="4.72274">
        <ele>177.6</ele>
        <time>2025-04-05T08:58:25Z</time>
      </trkpt>
      <trkpt lat="50.18422" lon="4.72271">
        <ele>177.8</ele>
        <time>2025-04-05T08:58:26Z</time>
      </trkpt>
      <trkpt lat="50.1842" lon="4.72267">
        <ele>178</ele>
        <time>2025-04-05T08:58:27Z</time>
      </trkpt>
      <trkpt lat="50.18419" lon="4.72263">
        <ele>178</ele>
        <time>2025-04-05T08:58:28Z</time>
      </trkpt>
      <trkpt lat="50.18415" lon="4.7226">
        <ele>178.2</ele>
        <time>2025-04-05T08:58:29Z</time>
      </trkpt>
      <trkpt lat="50.18412" lon="4.72258">
        <ele>178.4</ele>
        <time>2025-04-05T08:58:30Z</time>
      </trkpt>
      <trkpt lat="50.1841" lon="4.72256">
        <ele>178.6</ele>
        <time>2025-04-05T08:58:31Z</time>
      </trkpt>
      <trkpt lat="50.18407" lon="4.72254">
        <ele>178.8</ele>
        <time>2025-04-05T08:58:32Z</time>
      </trkpt>
      <trkpt lat="50.18404" lon="4.72253">
        <ele>179</ele>
        <time>2025-04-05T08:58:33Z</time>
      </trkpt>
      <trkpt lat="50.184" lon="4.72252">
        <ele>179.2</ele>
        <time>2025-04-05T08:58:34Z</time>
      </trkpt>
      <trkpt lat="50.18396" lon="4.72251">
        <ele>179.4</ele>
        <time>2025-04-05T08:58:35Z</time>
      </trkpt>
      <trkpt lat="50.18393" lon="4.7225">
        <ele>179.6</ele>
        <time>2025-04-05T08:58:36Z</time>
      </trkpt>
      <trkpt lat="50.18388" lon="4.72249">
        <ele>179.8</ele>
        <time>2025-04-05T08:58:37Z</time>
      </trkpt>
      <trkpt lat="50.18385" lon="4.72248">
        <ele>180</ele>
        <time>2025-04-05T08:58:38Z</time>
      </trkpt>
      <trkpt lat="50.18381" lon="4.72247">
        <ele>180.2</ele>
        <time>2025-04-05T08:58:39Z</time>
      </trkpt>
      <trkpt lat="50.18378" lon="4.72246">
        <ele>180.4</ele>
        <time>2025-04-05T08:58:40Z</time>
      </trkpt>
      <trkpt lat="50.18376" lon="4.72246">
        <ele>180.6</ele>
        <time>2025-04-05T08:58:41Z</time>
      </trkpt>
      <trkpt lat="50.18374" lon="4.72245">
        <ele>180.8</ele>
        <time>2025-04-05T08:58:42Z</time>
      </trkpt>
      <trkpt lat="50.18371" lon="4.72244">
        <ele>181</ele>
        <time>2025-04-05T08:58:43Z</time>
      </trkpt>
      <trkpt lat="50.18368" lon="4.72244">
        <ele>181.4</ele>
        <time>2025-04-05T08:58:44Z</time>
      </trkpt>
      <trkpt lat="50.18364" lon="4.72243">
        <ele>181.4</ele>
        <time>2025-04-05T08:58:45Z</time>
      </trkpt>
      <trkpt lat="50.18359" lon="4.72241">
        <ele>181.6</ele>
        <time>2025-04-05T08:58:46Z</time>
      </trkpt>
      <trkpt lat="50.18356" lon="4.7224">
        <ele>181.8</ele>
        <time>2025-04-05T08:58:47Z</time>
      </trkpt>
      <trkpt lat="50.18354" lon="4.72239">
        <ele>182</ele>
        <time>2025-04-05T08:58:48Z</time>
      </trkpt>
      <trkpt lat="50.18352" lon="4.72239">
        <ele>182.2</ele>
        <time>2025-04-05T08:58:49Z</time>
      </trkpt>
      <trkpt lat="50.18349" lon="4.72239">
        <ele>182.4</ele>
        <time>2025-04-05T08:58:50Z</time>
      </trkpt>
      <trkpt lat="50.18347" lon="4.72239">
        <ele>182.6</ele>
        <time>2025-04-05T08:58:51Z</time>
      </trkpt>
      <trkpt lat="50.18347" lon="4.72239">
        <ele>182.8</ele>
        <time>2025-04-05T08:58:52Z</time>
      </trkpt>
      <trkpt lat="50.18346" lon="4.72239">
        <ele>183</ele>
        <time>2025-04-05T08:58:53Z</time>
      </trkpt>
      <trkpt lat="50.18345" lon="4.72239">
        <ele>183.2</ele>
        <time>2025-04-05T08:58:54Z</time>
      </trkpt>
      <trkpt lat="50.18342" lon="4.72238">
        <ele>183.2</ele>
        <time>2025-04-05T08:58:55Z</time>
      </trkpt>
      <trkpt lat="50.18339" lon="4.72237">
        <ele>183.4</ele>
        <time>2025-04-05T08:58:56Z</time>
      </trkpt>
      <trkpt lat="50.18336" lon="4.72237">
        <ele>183.6</ele>
        <time>2025-04-05T08:58:57Z</time>
      </trkpt>
      <trkpt lat="50.18333" lon="4.72236">
        <ele>183.8</ele>
        <time>2025-04-05T08:58:58Z</time>
      </trkpt>
      <trkpt lat="50.18329" lon="4.72235">
        <ele>183.8</ele>
        <time>2025-04-05T08:58:59Z</time>
      </trkpt>
      <trkpt lat="50.18327" lon="4.72235">
        <ele>184</ele>
        <time>2025-04-05T08:59:00Z</time>
      </trkpt>
      <trkpt lat="50.18323" lon="4.72234">
        <ele>184.2</ele>
        <time>2025-04-05T08:59:01Z</time>
      </trkpt>
      <trkpt lat="50.18319" lon="4.72233">
        <ele>184.4</ele>
        <time>2025-04-05T08:59:02Z</time>
      </trkpt>
      <trkpt lat="50.18316" lon="4.72232">
        <ele>184.6</ele>
        <time>2025-04-05T08:59:03Z</time>
      </trkpt>
      <trkpt lat="50.18313" lon="4.72231">
        <ele>185</ele>
        <time>2025-04-05T08:59:04Z</time>
      </trkpt>
      <trkpt lat="50.1831" lon="4.7223">
        <ele>185.2</ele>
        <time>2025-04-05T08:59:05Z</time>
      </trkpt>
      <trkpt lat="50.18307" lon="4.7223">
        <ele>185.4</ele>
        <time>2025-04-05T08:59:06Z</time>
      </trkpt>
      <trkpt lat="50.18304" lon="4.72229">
        <ele>185.6</ele>
        <time>2025-04-05T08:59:07Z</time>
      </trkpt>
      <trkpt lat="50.18301" lon="4.72228">
        <ele>185.8</ele>
        <time>2025-04-05T08:59:08Z</time>
      </trkpt>
      <trkpt lat="50.18298" lon="4.72228">
        <ele>186</ele>
        <time>2025-04-05T08:59:09Z</time>
      </trkpt>
      <trkpt lat="50.18295" lon="4.72228">
        <ele>186.2</ele>
        <time>2025-04-05T08:59:10Z</time>
      </trkpt>
      <trkpt lat="50.18292" lon="4.72227">
        <ele>186.2</ele>
        <time>2025-04-05T08:59:11Z</time>
      </trkpt>
      <trkpt lat="50.18289" lon="4.72226">
        <ele>186.4</ele>
        <time>2025-04-05T08:59:12Z</time>
      </trkpt>
      <trkpt lat="50.18286" lon="4.72226">
        <ele>186.6</ele>
        <time>2025-04-05T08:59:13Z</time>
      </trkpt>
      <trkpt lat="50.18283" lon="4.72225">
        <ele>186.8</ele>
        <time>2025-04-05T08:59:14Z</time>
      </trkpt>
      <trkpt lat="50.1828" lon="4.72225">
        <ele>187</ele>
        <time>2025-04-05T08:59:15Z</time>
      </trkpt>
      <trkpt lat="50.18278" lon="4.72225">
        <ele>187.2</ele>
        <time>2025-04-05T08:59:16Z</time>
      </trkpt>
      <trkpt lat="50.18275" lon="4.72224">
        <ele>187.4</ele>
        <time>2025-04-05T08:59:17Z</time>
      </trkpt>
      <trkpt lat="50.18276" lon="4.72223">
        <ele>187.6</ele>
        <time>2025-04-05T08:59:18Z</time>
      </trkpt>
      <trkpt lat="50.18273" lon="4.72222">
        <ele>187.8</ele>
        <time>2025-04-05T08:59:19Z</time>
      </trkpt>
      <trkpt lat="50.18271" lon="4.72223">
        <ele>188</ele>
        <time>2025-04-05T08:59:20Z</time>
      </trkpt>
      <trkpt lat="50.18268" lon="4.72223">
        <ele>188.2</ele>
        <time>2025-04-05T08:59:21Z</time>
      </trkpt>
      <trkpt lat="50.18264" lon="4.72222">
        <ele>188.4</ele>
        <time>2025-04-05T08:59:22Z</time>
      </trkpt>
      <trkpt lat="50.18262" lon="4.7222">
        <ele>188.6</ele>
        <time>2025-04-05T08:59:23Z</time>
      </trkpt>
      <trkpt lat="50.18258" lon="4.72218">
        <ele>188.6</ele>
        <time>2025-04-05T08:59:24Z</time>
      </trkpt>
      <trkpt lat="50.18254" lon="4.72216">
        <ele>188.8</ele>
        <time>2025-04-05T08:59:25Z</time>
      </trkpt>
      <trkpt lat="50.18251" lon="4.72215">
        <ele>189</ele>
        <time>2025-04-05T08:59:26Z</time>
      </trkpt>
      <trkpt lat="50.18249" lon="4.72214">
        <ele>189</ele>
        <time>2025-04-05T08:59:27Z</time>
      </trkpt>
      <trkpt lat="50.18246" lon="4.72211">
        <ele>189.2</ele>
        <time>2025-04-05T08:59:28Z</time>
      </trkpt>
      <trkpt lat="50.18242" lon="4.72208">
        <ele>189.4</ele>
        <time>2025-04-05T08:59:29Z</time>
      </trkpt>
      <trkpt lat="50.18239" lon="4.72205">
        <ele>189.6</ele>
        <time>2025-04-05T08:59:30Z</time>
      </trkpt>
      <trkpt lat="50.18238" lon="4.72204">
        <ele>189.6</ele>
        <time>2025-04-05T08:59:31Z</time>
      </trkpt>
      <trkpt lat="50.18232" lon="4.72198">
        <ele>189.8</ele>
        <time>2025-04-05T08:59:32Z</time>
      </trkpt>
      <trkpt lat="50.18229" lon="4.72193">
        <ele>190</ele>
        <time>2025-04-05T08:59:33Z</time>
      </trkpt>
      <trkpt lat="50.18227" lon="4.72188">
        <ele>190.2</ele>
        <time>2025-04-05T08:59:34Z</time>
      </trkpt>
      <trkpt lat="50.18224" lon="4.72184">
        <ele>190.4</ele>
        <time>2025-04-05T08:59:35Z</time>
      </trkpt>
      <trkpt lat="50.18221" lon="4.72177">
        <ele>190.6</ele>
        <time>2025-04-05T08:59:36Z</time>
      </trkpt>
      <trkpt lat="50.1822" lon="4.72171">
        <ele>190.8</ele>
        <time>2025-04-05T08:59:37Z</time>
      </trkpt>
      <trkpt lat="50.18219" lon="4.72166">
        <ele>191</ele>
        <time>2025-04-05T08:59:38Z</time>
      </trkpt>
      <trkpt lat="50.18219" lon="4.72159">
        <ele>191.2</ele>
        <time>2025-04-05T08:59:39Z</time>
      </trkpt>
      <trkpt lat="50.18222" lon="4.72155">
        <ele>191.4</ele>
        <time>2025-04-05T08:59:40Z</time>
      </trkpt>
      <trkpt lat="50.18226" lon="4.7215">
        <ele>191.6</ele>
        <time>2025-04-05T08:59:41Z</time>
      </trkpt>
      <trkpt lat="50.18229" lon="4.72145">
        <ele>191.8</ele>
        <time>2025-04-05T08:59:42Z</time>
      </trkpt>
      <trkpt lat="50.1823" lon="4.7214">
        <ele>192</ele>
        <time>2025-04-05T08:59:43Z</time>
      </trkpt>
      <trkpt lat="50.18229" lon="4.72135">
        <ele>192.2</ele>
        <time>2025-04-05T08:59:44Z</time>
      </trkpt>
      <trkpt lat="50.1823" lon="4.72129">
        <ele>192.4</ele>
        <time>2025-04-05T08:59:45Z</time>
      </trkpt>
      <trkpt lat="50.1823" lon="4.72124">
        <ele>192.6</ele>
        <time>2025-04-05T08:59:46Z</time>
      </trkpt>
      <trkpt lat="50.18231" lon="4.7212">
        <ele>192.8</ele>
        <time>2025-04-05T08:59:47Z</time>
      </trkpt>
      <trkpt lat="50.18232" lon="4.72116">
        <ele>193</ele>
        <time>2025-04-05T08:59:48Z</time>
      </trkpt>
      <trkpt lat="50.18233" lon="4.72111">
        <ele>193.2</ele>
        <time>2025-04-05T08:59:49Z</time>
      </trkpt>
      <trkpt lat="50.18235" lon="4.72107">
        <ele>193.2</ele>
        <time>2025-04-05T08:59:50Z</time>
      </trkpt>
      <trkpt lat="50.18236" lon="4.72104">
        <ele>193.4</ele>
        <time>2025-04-05T08:59:51Z</time>
      </trkpt>
      <trkpt lat="50.18238" lon="4.721">
        <ele>193.6</ele>
        <time>2025-04-05T08:59:52Z</time>
      </trkpt>
      <trkpt lat="50.18238" lon="4.72096">
        <ele>194</ele>
        <time>2025-04-05T08:59:53Z</time>
      </trkpt>
      <trkpt lat="50.18239" lon="4.72093">
        <ele>194</ele>
        <time>2025-04-05T08:59:54Z</time>
      </trkpt>
      <trkpt lat="50.1824" lon="4.72088">
        <ele>194.2</ele>
        <time>2025-04-05T08:59:55Z</time>
      </trkpt>
      <trkpt lat="50.18241" lon="4.72084">
        <ele>194.4</ele>
        <time>2025-04-05T08:59:56Z</time>
      </trkpt>
      <trkpt lat="50.18242" lon="4.7208">
        <ele>194.6</ele>
        <time>2025-04-05T08:59:57Z</time>
      </trkpt>
      <trkpt lat="50.18243" lon="4.72076">
        <ele>194.8</ele>
        <time>2025-04-05T08:59:58Z</time>
      </trkpt>
      <trkpt lat="50.18244" lon="4.72073">
        <ele>195</ele>
        <time>2025-04-05T08:59:59Z</time>
      </trkpt>
      <trkpt lat="50.18245" lon="4.72069">
        <ele>195.2</ele>
        <time>2025-04-05T09:00:00Z</time>
      </trkpt>
      <trkpt lat="50.18246" lon="4.72065">
        <ele>195.4</ele>
        <time>2025-04-05T09:00:01Z</time>
      </trkpt>
      <trkpt lat="50.18246" lon="4.7206">
        <ele>195.6</ele>
        <time>2025-04-05T09:00:02Z</time>
      </trkpt>
      <trkpt lat="50.18247" lon="4.72057">
        <ele>195.8</ele>
        <time>2025-04-05T09:00:03Z</time>
      </trkpt>
      <trkpt lat="50.18248" lon="4.72054">
        <ele>196</ele>
        <time>2025-04-05T09:00:04Z</time>
      </trkpt>
      <trkpt lat="50.18249" lon="4.72049">
        <ele>196.2</ele>
        <time>2025-04-05T09:00:05Z</time>
      </trkpt>
      <trkpt lat="50.1825" lon="4.72046">
        <ele>196.4</ele>
        <time>2025-04-05T09:00:06Z</time>
      </trkpt>
      <trkpt lat="50.18251" lon="4.72042">
        <ele>196.6</ele>
        <time>2025-04-05T09:00:07Z</time>
      </trkpt>
      <trkpt lat="50.18252" lon="4.72037">
        <ele>196.8</ele>
        <time>2025-04-05T09:00:08Z</time>
      </trkpt>
      <trkpt lat="50.18253" lon="4.72031">
        <ele>196.8</ele>
        <time>2025-04-05T09:00:09Z</time>
      </trkpt>
      <trkpt lat="50.18254" lon="4.72025">
        <ele>197</ele>
        <time>2025-04-05T09:00:10Z</time>
      </trkpt>
      <trkpt lat="50.18255" lon="4.72021">
        <ele>197.2</ele>
        <time>2025-04-05T09:00:11Z</time>
      </trkpt>
      <trkpt lat="50.18256" lon="4.72017">
        <ele>197.4</ele>
        <time>2025-04-05T09:00:12Z</time>
      </trkpt>
      <trkpt lat="50.18257" lon="4.72011">
        <ele>197.6</ele>
        <time>2025-04-05T09:00:13Z</time>
      </trkpt>
      <trkpt lat="50.18257" lon="4.72005">
        <ele>197.8</ele>
        <time>2025-04-05T09:00:14Z</time>
      </trkpt>
      <trkpt lat="50.18257" lon="4.72">
        <ele>198</ele>
        <time>2025-04-05T09:00:15Z</time>
      </trkpt>
      <trkpt lat="50.18258" lon="4.71995">
        <ele>198</ele>
        <time>2025-04-05T09:00:16Z</time>
      </trkpt>
      <trkpt lat="50.18257" lon="4.71989">
        <ele>198.2</ele>
        <time>2025-04-05T09:00:17Z</time>
      </trkpt>
      <trkpt lat="50.18258" lon="4.71984">
        <ele>198.4</ele>
        <time>2025-04-05T09:00:18Z</time>
      </trkpt>
      <trkpt lat="50.18259" lon="4.71978">
        <ele>198.6</ele>
        <time>2025-04-05T09:00:19Z</time>
      </trkpt>
      <trkpt lat="50.1826" lon="4.71972">
        <ele>198.6</ele>
        <time>2025-04-05T09:00:20Z</time>
      </trkpt>
      <trkpt lat="50.1826" lon="4.71967">
        <ele>198.8</ele>
        <time>2025-04-05T09:00:21Z</time>
      </trkpt>
      <trkpt lat="50.18261" lon="4.71959">
        <ele>199</ele>
        <time>2025-04-05T09:00:22Z</time>
      </trkpt>
      <trkpt lat="50.18262" lon="4.71955">
        <ele>199.2</ele>
        <time>2025-04-05T09:00:23Z</time>
      </trkpt>
      <trkpt lat="50.18266" lon="4.71951">
        <ele>199.4</ele>
        <time>2025-04-05T09:00:24Z</time>
      </trkpt>
      <trkpt lat="50.18269" lon="4.71947">
        <ele>199.4</ele>
        <time>2025-04-05T09:00:25Z</time>
      </trkpt>
      <trkpt lat="50.18269" lon="4.71941">
        <ele>199.6</ele>
        <time>2025-04-05T09:00:26Z</time>
      </trkpt>
      <trkpt lat="50.18269" lon="4.71936">
        <ele>199.8</ele>
        <time>2025-04-05T09:00:27Z</time>
      </trkpt>
      <trkpt lat="50.18269" lon="4.71931">
        <ele>199.8</ele>
        <time>2025-04-05T09:00:28Z</time>
      </trkpt>
      <trkpt lat="50.1827" lon="4.71927">
        <ele>200</ele>
        <time>2025-04-05T09:00:29Z</time>
      </trkpt>
      <trkpt lat="50.18271" lon="4.71921">
        <ele>200.2</ele>
        <time>2025-04-05T09:00:30Z</time>
      </trkpt>
      <trkpt lat="50.18271" lon="4.71917">
        <ele>200.4</ele>
        <time>2025-04-05T09:00:31Z</time>
      </trkpt>
      <trkpt lat="50.18272" lon="4.71912">
        <ele>200.4</ele>
        <time>2025-04-05T09:00:32Z</time>
      </trkpt>
      <trkpt lat="50.18273" lon="4.71908">
        <ele>200.6</ele>
        <time>2025-04-05T09:00:33Z</time>
      </trkpt>
      <trkpt lat="50.18275" lon="4.71903">
        <ele>200.8</ele>
        <time>2025-04-05T09:00:34Z</time>
      </trkpt>
      <trkpt lat="50.18276" lon="4.71898">
        <ele>201</ele>
        <time>2025-04-05T09:00:35Z</time>
      </trkpt>
      <trkpt lat="50.18277" lon="4.71894">
        <ele>201.2</ele>
        <time>2025-04-05T09:00:36Z</time>
      </trkpt>
      <trkpt lat="50.18277" lon="4.7189">
        <ele>201.2</ele>
        <time>2025-04-05T09:00:37Z</time>
      </trkpt>
      <trkpt lat="50.18278" lon="4.71884">
        <ele>201.4</ele>
        <time>2025-04-05T09:00:38Z</time>
      </trkpt>
      <trkpt lat="50.18279" lon="4.7188">
        <ele>201.6</ele>
        <time>2025-04-05T09:00:39Z</time>
      </trkpt>
      <trkpt lat="50.18279" lon="4.71876">
        <ele>201.8</ele>
        <time>2025-04-05T09:00:40Z</time>
      </trkpt>
      <trkpt lat="50.1828" lon="4.71871">
        <ele>201.8</ele>
        <time>2025-04-05T09:00:41Z</time>
      </trkpt>
      <trkpt lat="50.18281" lon="4.71866">
        <ele>202</ele>
        <time>2025-04-05T09:00:42Z</time>
      </trkpt>
      <trkpt lat="50.18283" lon="4.7186">
        <ele>202.2</ele>
        <time>2025-04-05T09:00:43Z</time>
      </trkpt>
      <trkpt lat="50.18285" lon="4.71855">
        <ele>202.4</ele>
        <time>2025-04-05T09:00:44Z</time>
      </trkpt>
      <trkpt lat="50.18286" lon="4.7185">
        <ele>202.6</ele>
        <time>2025-04-05T09:00:45Z</time>
      </trkpt>
      <trkpt lat="50.18287" lon="4.71845">
        <ele>202.8</ele>
        <time>2025-04-05T09:00:46Z</time>
      </trkpt>
      <trkpt lat="50.18288" lon="4.7184">
        <ele>203</ele>
        <time>2025-04-05T09:00:47Z</time>
      </trkpt>
      <trkpt lat="50.1829" lon="4.71835">
        <ele>203</ele>
        <time>2025-04-05T09:00:48Z</time>
      </trkpt>
      <trkpt lat="50.18292" lon="4.71829">
        <ele>203.2</ele>
        <time>2025-04-05T09:00:49Z</time>
      </trkpt>
      <trkpt lat="50.18293" lon="4.71824">
        <ele>203.4</ele>
        <time>2025-04-05T09:00:50Z</time>
      </trkpt>
      <trkpt lat="50.18294" lon="4.71821">
        <ele>203.6</ele>
        <time>2025-04-05T09:00:51Z</time>
      </trkpt>
      <trkpt lat="50.18295" lon="4.71814">
        <ele>203.6</ele>
        <time>2025-04-05T09:00:52Z</time>
      </trkpt>
      <trkpt lat="50.18295" lon="4.71809">
        <ele>203.8</ele>
        <time>2025-04-05T09:00:53Z</time>
      </trkpt>
      <trkpt lat="50.18296" lon="4.71804">
        <ele>204</ele>
        <time>2025-04-05T09:00:54Z</time>
      </trkpt>
      <trkpt lat="50.18296" lon="4.71799">
        <ele>204</ele>
        <time>2025-04-05T09:00:55Z</time>
      </trkpt>
      <trkpt lat="50.18297" lon="4.71794">
        <ele>204.2</ele>
        <time>2025-04-05T09:00:56Z</time>
      </trkpt>
      <trkpt lat="50.18296" lon="4.71789">
        <ele>204.4</ele>
        <time>2025-04-05T09:00:57Z</time>
      </trkpt>
      <trkpt lat="50.18297" lon="4.71782">
        <ele>204.6</ele>
        <time>2025-04-05T09:00:58Z</time>
      </trkpt>
      <trkpt lat="50.18297" lon="4.71777">
        <ele>204.8</ele>
        <time>2025-04-05T09:00:59Z</time>
      </trkpt>
      <trkpt lat="50.18298" lon="4.71772">
        <ele>204.8</ele>
        <time>2025-04-05T09:01:00Z</time>
      </trkpt>
      <trkpt lat="50.18298" lon="4.71767">
        <ele>205</ele>
        <time>2025-04-05T09:01:01Z</time>
      </trkpt>
      <trkpt lat="50.18298" lon="4.7176">
        <ele>205</ele>
        <time>2025-04-05T09:01:02Z</time>
      </trkpt>
      <trkpt lat="50.18298" lon="4.71755">
        <ele>205.2</ele>
        <time>2025-04-05T09:01:03Z</time>
      </trkpt>
      <trkpt lat="50.18299" lon="4.7175">
        <ele>205.4</ele>
        <time>2025-04-05T09:01:04Z</time>
      </trkpt>
      <trkpt lat="50.18299" lon="4.71743">
        <ele>205.6</ele>
        <time>2025-04-05T09:01:05Z</time>
      </trkpt>
      <trkpt lat="50.183" lon="4.71737">
        <ele>205.8</ele>
        <time>2025-04-05T09:01:06Z</time>
      </trkpt>
      <trkpt lat="50.183" lon="4.71733">
        <ele>205.8</ele>
        <time>2025-04-05T09:01:07Z</time>
      </trkpt>
      <trkpt lat="50.183" lon="4.71727">
        <ele>206</ele>
        <time>2025-04-05T09:01:08Z</time>
      </trkpt>
      <trkpt lat="50.18301" lon="4.71721">
        <ele>206.2</ele>
        <time>2025-04-05T09:01:09Z</time>
      </trkpt>
      <trkpt lat="50.18301" lon="4.71717">
        <ele>206.2</ele>
        <time>2025-04-05T09:01:10Z</time>
      </trkpt>
      <trkpt lat="50.18301" lon="4.7171">
        <ele>206.4</ele>
        <time>2025-04-05T09:01:11Z</time>
      </trkpt>
      <trkpt lat="50.18302" lon="4.71706">
        <ele>206.6</ele>
        <time>2025-04-05T09:01:12Z</time>
      </trkpt>
      <trkpt lat="50.18302" lon="4.717">
        <ele>206.6</ele>
        <time>2025-04-05T09:01:13Z</time>
      </trkpt>
      <trkpt lat="50.18303" lon="4.71693">
        <ele>206.8</ele>
        <time>2025-04-05T09:01:14Z</time>
      </trkpt>
      <trkpt lat="50.18303" lon="4.71688">
        <ele>206.8</ele>
        <time>2025-04-05T09:01:15Z</time>
      </trkpt>
      <trkpt lat="50.18304" lon="4.71683">
        <ele>207</ele>
        <time>2025-04-05T09:01:16Z</time>
      </trkpt>
      <trkpt lat="50.18304" lon="4.71677">
        <ele>207.2</ele>
        <time>2025-04-05T09:01:17Z</time>
      </trkpt>
      <trkpt lat="50.18305" lon="4.71671">
        <ele>207.2</ele>
        <time>2025-04-05T09:01:18Z</time>
      </trkpt>
      <trkpt lat="50.18305" lon="4.71665">
        <ele>207.4</ele>
        <time>2025-04-05T09:01:19Z</time>
      </trkpt>
      <trkpt lat="50.18306" lon="4.7166">
        <ele>207.6</ele>
        <time>2025-04-05T09:01:20Z</time>
      </trkpt>
      <trkpt lat="50.18306" lon="4.71654">
        <ele>207.8</ele>
        <time>2025-04-05T09:01:21Z</time>
      </trkpt>
      <trkpt lat="50.18307" lon="4.71648">
        <ele>207.8</ele>
        <time>2025-04-05T09:01:22Z</time>
      </trkpt>
      <trkpt lat="50.18307" lon="4.71643">
        <ele>208</ele>
        <time>2025-04-05T09:01:23Z</time>
      </trkpt>
      <trkpt lat="50.18308" lon="4.71638">
        <ele>208.2</ele>
        <time>2025-04-05T09:01:24Z</time>
      </trkpt>
      <trkpt lat="50.18308" lon="4.71632">
        <ele>208.2</ele>
        <time>2025-04-05T09:01:25Z</time>
      </trkpt>
      <trkpt lat="50.18309" lon="4.71627">
        <ele>208.4</ele>
        <time>2025-04-05T09:01:26Z</time>
      </trkpt>
      <trkpt lat="50.18309" lon="4.71621">
        <ele>208.4</ele>
        <time>2025-04-05T09:01:27Z</time>
      </trkpt>
      <trkpt lat="50.1831" lon="4.71615">
        <ele>208.6</ele>
        <time>2025-04-05T09:01:28Z</time>
      </trkpt>
      <trkpt lat="50.18311" lon="4.71609">
        <ele>208.6</ele>
        <time>2025-04-05T09:01:29Z</time>
      </trkpt>
      <trkpt lat="50.18311" lon="4.71604">
        <ele>208.8</ele>
        <time>2025-04-05T09:01:30Z</time>
      </trkpt>
      <trkpt lat="50.18311" lon="4.71598">
        <ele>209</ele>
        <time>2025-04-05T09:01:31Z</time>
      </trkpt>
      <trkpt lat="50.18312" lon="4.71592">
        <ele>209</ele>
        <time>2025-04-05T09:01:32Z</time>
      </trkpt>
      <trkpt lat="50.18313" lon="4.71585">
        <ele>209.2</ele>
        <time>2025-04-05T09:01:33Z</time>
      </trkpt>
      <trkpt lat="50.18313" lon="4.71579">
        <ele>209.2</ele>
        <time>2025-04-05T09:01:34Z</time>
      </trkpt>
      <trkpt lat="50.18313" lon="4.71575">
        <ele>209.4</ele>
        <time>2025-04-05T09:01:35Z</time>
      </trkpt>
      <trkpt lat="50.18314" lon="4.71568">
        <ele>209.6</ele>
        <time>2025-04-05T09:01:36Z</time>
      </trkpt>
      <trkpt lat="50.18315" lon="4.71562">
        <ele>209.6</ele>
        <time>2025-04-05T09:01:37Z</time>
      </trkpt>
      <trkpt lat="50.18315" lon="4.71557">
        <ele>209.8</ele>
        <time>2025-04-05T09:01:38Z</time>
      </trkpt>
      <trkpt lat="50.18316" lon="4.7155">
        <ele>209.8</ele>
        <time>2025-04-05T09:01:39Z</time>
      </trkpt>
      <trkpt lat="50.18316" lon="4.71545">
        <ele>210</ele>
        <time>2025-04-05T09:01:40Z</time>
      </trkpt>
      <trkpt lat="50.18317" lon="4.71539">
        <ele>210.2</ele>
        <time>2025-04-05T09:01:41Z</time>
      </trkpt>
      <trkpt lat="50.18317" lon="4.71531">
        <ele>210.4</ele>
        <time>2025-04-05T09:01:42Z</time>
      </trkpt>
      <trkpt lat="50.18317" lon="4.71526">
        <ele>210.6</ele>
        <time>2025-04-05T09:01:43Z</time>
      </trkpt>
      <trkpt lat="50.18317" lon="4.7152">
        <ele>210.6</ele>
        <time>2025-04-05T09:01:44Z</time>
      </trkpt>
      <trkpt lat="50.18317" lon="4.71514">
        <ele>210.8</ele>
        <time>2025-04-05T09:01:45Z</time>
      </trkpt>
      <trkpt lat="50.18317" lon="4.71507">
        <ele>211</ele>
        <time>2025-04-05T09:01:46Z</time>
      </trkpt>
      <trkpt lat="50.18317" lon="4.71502">
        <ele>211.2</ele>
        <time>2025-04-05T09:01:47Z</time>
      </trkpt>
      <trkpt lat="50.18316" lon="4.71496">
        <ele>211.2</ele>
        <time>2025-04-05T09:01:48Z</time>
      </trkpt>
      <trkpt lat="50.18316" lon="4.71491">
        <ele>211.4</ele>
        <time>2025-04-05T09:01:49Z</time>
      </trkpt>
      <trkpt lat="50.18315" lon="4.71485">
        <ele>211.6</ele>
        <time>2025-04-05T09:01:50Z</time>
      </trkpt>
      <trkpt lat="50.18314" lon="4.71479">
        <ele>211.8</ele>
        <time>2025-04-05T09:01:51Z</time>
      </trkpt>
      <trkpt lat="50.18313" lon="4.71473">
        <ele>211.8</ele>
        <time>2025-04-05T09:01:52Z</time>
      </trkpt>
      <trkpt lat="50.18313" lon="4.71467">
        <ele>212</ele>
        <time>2025-04-05T09:01:53Z</time>
      </trkpt>
      <trkpt lat="50.18311" lon="4.71461">
        <ele>212.2</ele>
        <time>2025-04-05T09:01:54Z</time>
      </trkpt>
      <trkpt lat="50.18309" lon="4.71454">
        <ele>212.2</ele>
        <time>2025-04-05T09:01:55Z</time>
      </trkpt>
      <trkpt lat="50.18308" lon="4.71449">
        <ele>212.4</ele>
        <time>2025-04-05T09:01:56Z</time>
      </trkpt>
      <trkpt lat="50.18307" lon="4.71444">
        <ele>212.4</ele>
        <time>2025-04-05T09:01:57Z</time>
      </trkpt>
      <trkpt lat="50.18306" lon="4.71438">
        <ele>212.6</ele>
        <time>2025-04-05T09:01:58Z</time>
      </trkpt>
      <trkpt lat="50.18304" lon="4.71431">
        <ele>212.8</ele>
        <time>2025-04-05T09:01:59Z</time>
      </trkpt>
      <trkpt lat="50.18303" lon="4.71427">
        <ele>212.8</ele>
        <time>2025-04-05T09:02:00Z</time>
      </trkpt>
      <trkpt lat="50.18301" lon="4.71421">
        <ele>213</ele>
        <time>2025-04-05T09:02:01Z</time>
      </trkpt>
      <trkpt lat="50.18299" lon="4.71415">
        <ele>213.2</ele>
        <time>2025-04-05T09:02:02Z</time>
      </trkpt>
      <trkpt lat="50.18298" lon="4.7141">
        <ele>213.4</ele>
        <time>2025-04-05T09:02:03Z</time>
      </trkpt>
      <trkpt lat="50.18297" lon="4.71404">
        <ele>213.4</ele>
        <time>2025-04-05T09:02:04Z</time>
      </trkpt>
      <trkpt lat="50.18295" lon="4.71399">
        <ele>213.6</ele>
        <time>2025-04-05T09:02:05Z</time>
      </trkpt>
      <trkpt lat="50.18294" lon="4.71393">
        <ele>213.8</ele>
        <time>2025-04-05T09:02:06Z</time>
      </trkpt>
      <trkpt lat="50.18293" lon="4.71388">
        <ele>213.8</ele>
        <time>2025-04-05T09:02:07Z</time>
      </trkpt>
      <trkpt lat="50.18291" lon="4.71382">
        <ele>214</ele>
        <time>2025-04-05T09:02:08Z</time>
      </trkpt>
      <trkpt lat="50.18289" lon="4.71377">
        <ele>214.2</ele>
        <time>2025-04-05T09:02:09Z</time>
      </trkpt>
      <trkpt lat="50.18288" lon="4.71371">
        <ele>214.2</ele>
        <time>2025-04-05T09:02:10Z</time>
      </trkpt>
      <trkpt lat="50.18286" lon="4.71365">
        <ele>214.4</ele>
        <time>2025-04-05T09:02:11Z</time>
      </trkpt>
      <trkpt lat="50.18284" lon="4.7136">
        <ele>214.6</ele>
        <time>2025-04-05T09:02:12Z</time>
      </trkpt>
      <trkpt lat="50.18282" lon="4.71354">
        <ele>214.8</ele>
        <time>2025-04-05T09:02:13Z</time>
      </trkpt>
      <trkpt lat="50.18281" lon="4.71349">
        <ele>214.8</ele>
        <time>2025-04-05T09:02:14Z</time>
      </trkpt>
      <trkpt lat="50.18279" lon="4.71344">
        <ele>215</ele>
        <time>2025-04-05T09:02:15Z</time>
      </trkpt>
      <trkpt lat="50.18277" lon="4.71338">
        <ele>215</ele>
        <time>2025-04-05T09:02:16Z</time>
      </trkpt>
      <trkpt lat="50.18275" lon="4.71333">
        <ele>215.2</ele>
        <time>2025-04-05T09:02:17Z</time>
      </trkpt>
      <trkpt lat="50.18272" lon="4.71327">
        <ele>215.4</ele>
        <time>2025-04-05T09:02:18Z</time>
      </trkpt>
      <trkpt lat="50.18271" lon="4.71323">
        <ele>215.4</ele>
        <time>2025-04-05T09:02:19Z</time>
      </trkpt>
      <trkpt lat="50.18269" lon="4.71318">
        <ele>215.6</ele>
        <time>2025-04-05T09:02:20Z</time>
      </trkpt>
      <trkpt lat="50.18267" lon="4.71313">
        <ele>215.8</ele>
        <time>2025-04-05T09:02:21Z</time>
      </trkpt>
      <trkpt lat="50.18264" lon="4.71307">
        <ele>215.8</ele>
        <time>2025-04-05T09:02:22Z</time>
      </trkpt>
      <trkpt lat="50.18262" lon="4.71303">
        <ele>216</ele>
        <time>2025-04-05T09:02:23Z</time>
      </trkpt>
      <trkpt lat="50.1826" lon="4.71298">
        <ele>216</ele>
        <time>2025-04-05T09:02:24Z</time>
      </trkpt>
      <trkpt lat="50.18258" lon="4.71293">
        <ele>216.2</ele>
        <time>2025-04-05T09:02:25Z</time>
      </trkpt>
      <trkpt lat="50.18256" lon="4.71289">
        <ele>216.4</ele>
        <time>2025-04-05T09:02:26Z</time>
      </trkpt>
      <trkpt lat="50.18253" lon="4.71285">
        <ele>216.6</ele>
        <time>2025-04-05T09:02:27Z</time>
      </trkpt>
      <trkpt lat="50.1825" lon="4.7128">
        <ele>216.6</ele>
        <time>2025-04-05T09:02:28Z</time>
      </trkpt>
      <trkpt lat="50.18248" lon="4.71276">
        <ele>216.8</ele>
        <time>2025-04-05T09:02:29Z</time>
      </trkpt>
      <trkpt lat="50.18246" lon="4.71271">
        <ele>217</ele>
        <time>2025-04-05T09:02:30Z</time>
      </trkpt>
      <trkpt lat="50.18243" lon="4.71265">
        <ele>217</ele>
        <time>2025-04-05T09:02:31Z</time>
      </trkpt>
      <trkpt lat="50.18241" lon="4.71261">
        <ele>217.2</ele>
        <time>2025-04-05T09:02:32Z</time>
      </trkpt>
      <trkpt lat="50.18238" lon="4.71257">
        <ele>217.4</ele>
        <time>2025-04-05T09:02:33Z</time>
      </trkpt>
      <trkpt lat="50.18236" lon="4.71252">
        <ele>217.4</ele>
        <time>2025-04-05T09:02:34Z</time>
      </trkpt>
      <trkpt lat="50.18233" lon="4.71247">
        <ele>217.6</ele>
        <time>2025-04-05T09:02:35Z</time>
      </trkpt>
      <trkpt lat="50.1823" lon="4.71243">
        <ele>217.6</ele>
        <time>2025-04-05T09:02:36Z</time>
      </trkpt>
      <trkpt lat="50.18228" lon="4.71239">
        <ele>217.8</ele>
        <time>2025-04-05T09:02:37Z</time>
      </trkpt>
      <trkpt lat="50.18225" lon="4.71233">
        <ele>218</ele>
        <time>2025-04-05T09:02:38Z</time>
      </trkpt>
      <trkpt lat="50.18222" lon="4.7123">
        <ele>218</ele>
        <time>2025-04-05T09:02:39Z</time>
      </trkpt>
      <trkpt lat="50.1822" lon="4.71225">
        <ele>218.2</ele>
        <time>2025-04-05T09:02:40Z</time>
      </trkpt>
      <trkpt lat="50.18217" lon="4.7122">
        <ele>218.4</ele>
        <time>2025-04-05T09:02:41Z</time>
      </trkpt>
      <trkpt lat="50.18215" lon="4.71215">
        <ele>218.4</ele>
        <time>2025-04-05T09:02:42Z</time>
      </trkpt>
      <trkpt lat="50.18213" lon="4.7121">
        <ele>218.6</ele>
        <time>2025-04-05T09:02:43Z</time>
      </trkpt>
      <trkpt lat="50.1821" lon="4.71205">
        <ele>218.8</ele>
        <time>2025-04-05T09:02:44Z</time>
      </trkpt>
      <trkpt lat="50.18208" lon="4.71201">
        <ele>218.8</ele>
        <time>2025-04-05T09:02:45Z</time>
      </trkpt>
      <trkpt lat="50.18206" lon="4.71196">
        <ele>219</ele>
        <time>2025-04-05T09:02:46Z</time>
      </trkpt>
      <trkpt lat="50.18203" lon="4.71192">
        <ele>219</ele>
        <time>2025-04-05T09:02:47Z</time>
      </trkpt>
      <trkpt lat="50.182" lon="4.71187">
        <ele>219.2</ele>
        <time>2025-04-05T09:02:48Z</time>
      </trkpt>
      <trkpt lat="50.18198" lon="4.71182">
        <ele>219.4</ele>
        <time>2025-04-05T09:02:49Z</time>
      </trkpt>
      <trkpt lat="50.18196" lon="4.71177">
        <ele>219.4</ele>
        <time>2025-04-05T09:02:50Z</time>
      </trkpt>
      <trkpt lat="50.18193" lon="4.71172">
        <ele>219.6</ele>
        <time>2025-04-05T09:02:51Z</time>
      </trkpt>
      <trkpt lat="50.18191" lon="4.71167">
        <ele>219.6</ele>
        <time>2025-04-05T09:02:52Z</time>
      </trkpt>
      <trkpt lat="50.18189" lon="4.71161">
        <ele>219.8</ele>
        <time>2025-04-05T09:02:53Z</time>
      </trkpt>
      <trkpt lat="50.18187" lon="4.71156">
        <ele>220</ele>
        <time>2025-04-05T09:02:54Z</time>
      </trkpt>
      <trkpt lat="50.18184" lon="4.71151">
        <ele>220</ele>
        <time>2025-04-05T09:02:55Z</time>
      </trkpt>
      <trkpt lat="50.18182" lon="4.71145">
        <ele>220.2</ele>
        <time>2025-04-05T09:02:56Z</time>
      </trkpt>
      <trkpt lat="50.1818" lon="4.7114">
        <ele>220.4</ele>
        <time>2025-04-05T09:02:57Z</time>
      </trkpt>
      <trkpt lat="50.18178" lon="4.71135">
        <ele>220.6</ele>
        <time>2025-04-05T09:02:58Z</time>
      </trkpt>
      <trkpt lat="50.18176" lon="4.71129">
        <ele>220.6</ele>
        <time>2025-04-05T09:02:59Z</time>
      </trkpt>
      <trkpt lat="50.18175" lon="4.71124">
        <ele>220.8</ele>
        <time>2025-04-05T09:03:00Z</time>
      </trkpt>
      <trkpt lat="50.18173" lon="4.71118">
        <ele>220.8</ele>
        <time>2025-04-05T09:03:01Z</time>
      </trkpt>
      <trkpt lat="50.18171" lon="4.71111">
        <ele>221</ele>
        <time>2025-04-05T09:03:02Z</time>
      </trkpt>
      <trkpt lat="50.1817" lon="4.71106">
        <ele>221</ele>
        <time>2025-04-05T09:03:03Z</time>
      </trkpt>
      <trkpt lat="50.18168" lon="4.711">
        <ele>221</ele>
        <time>2025-04-05T09:03:04Z</time>
      </trkpt>
      <trkpt lat="50.18167" lon="4.71095">
        <ele>221.2</ele>
        <time>2025-04-05T09:03:05Z</time>
      </trkpt>
      <trkpt lat="50.18166" lon="4.71088">
        <ele>221.2</ele>
        <time>2025-04-05T09:03:06Z</time>
      </trkpt>
      <trkpt lat="50.18164" lon="4.71082">
        <ele>221.2</ele>
        <time>2025-04-05T09:03:07Z</time>
      </trkpt>
      <trkpt lat="50.18163" lon="4.71076">
        <ele>221.4</ele>
        <time>2025-04-05T09:03:08Z</time>
      </trkpt>
      <trkpt lat="50.18162" lon="4.71069">
        <ele>221.4</ele>
        <time>2025-04-05T09:03:09Z</time>
      </trkpt>
      <trkpt lat="50.18161" lon="4.71063">
        <ele>221.6</ele>
        <time>2025-04-05T09:03:10Z</time>
      </trkpt>
      <trkpt lat="50.1816" lon="4.71057">
        <ele>221.6</ele>
        <time>2025-04-05T09:03:11Z</time>
      </trkpt>
      <trkpt lat="50.18159" lon="4.7105">
        <ele>221.6</ele>
        <time>2025-04-05T09:03:12Z</time>
      </trkpt>
      <trkpt lat="50.18158" lon="4.71042">
        <ele>221.8</ele>
        <time>2025-04-05T09:03:13Z</time>
      </trkpt>
      <trkpt lat="50.18157" lon="4.71035">
        <ele>221.8</ele>
        <time>2025-04-05T09:03:14Z</time>
      </trkpt>
      <trkpt lat="50.18156" lon="4.71027">
        <ele>222</ele>
        <time>2025-04-05T09:03:15Z</time>
      </trkpt>
      <trkpt lat="50.18155" lon="4.7102">
        <ele>222</ele>
        <time>2025-04-05T09:03:16Z</time>
      </trkpt>
      <trkpt lat="50.18154" lon="4.71013">
        <ele>222</ele>
        <time>2025-04-05T09:03:17Z</time>
      </trkpt>
      <trkpt lat="50.18153" lon="4.71004">
        <ele>222</ele>
        <time>2025-04-05T09:03:18Z</time>
      </trkpt>
      <trkpt lat="50.18152" lon="4.70996">
        <ele>222.2</ele>
        <time>2025-04-05T09:03:19Z</time>
      </trkpt>
      <trkpt lat="50.18152" lon="4.7099">
        <ele>222.2</ele>
        <time>2025-04-05T09:03:20Z</time>
      </trkpt>
      <trkpt lat="50.18152" lon="4.70982">
        <ele>222.2</ele>
        <time>2025-04-05T09:03:21Z</time>
      </trkpt>
      <trkpt lat="50.18151" lon="4.70972">
        <ele>222.2</ele>
        <time>2025-04-05T09:03:22Z</time>
      </trkpt>
      <trkpt lat="50.1815" lon="4.70965">
        <ele>222.2</ele>
        <time>2025-04-05T09:03:23Z</time>
      </trkpt>
      <trkpt lat="50.1815" lon="4.70958">
        <ele>222.2</ele>
        <time>2025-04-05T09:03:24Z</time>
      </trkpt>
      <trkpt lat="50.1815" lon="4.7095">
        <ele>222.2</ele>
        <time>2025-04-05T09:03:25Z</time>
      </trkpt>
      <trkpt lat="50.1815" lon="4.70942">
        <ele>222.2</ele>
        <time>2025-04-05T09:03:26Z</time>
      </trkpt>
      <trkpt lat="50.1815" lon="4.70934">
        <ele>222.2</ele>
        <time>2025-04-05T09:03:27Z</time>
      </trkpt>
      <trkpt lat="50.1815" lon="4.70926">
        <ele>222.2</ele>
        <time>2025-04-05T09:03:28Z</time>
      </trkpt>
      <trkpt lat="50.1815" lon="4.7092">
        <ele>222.2</ele>
        <time>2025-04-05T09:03:29Z</time>
      </trkpt>
      <trkpt lat="50.1815" lon="4.70912">
        <ele>222.2</ele>
        <time>2025-04-05T09:03:30Z</time>
      </trkpt>
      <trkpt lat="50.18149" lon="4.70905">
        <ele>222.4</ele>
        <time>2025-04-05T09:03:31Z</time>
      </trkpt>
      <trkpt lat="50.18149" lon="4.70898">
        <ele>222.4</ele>
        <time>2025-04-05T09:03:32Z</time>
      </trkpt>
      <trkpt lat="50.18149" lon="4.70891">
        <ele>222.4</ele>
        <time>2025-04-05T09:03:33Z</time>
      </trkpt>
      <trkpt lat="50.18149" lon="4.70885">
        <ele>222.4</ele>
        <time>2025-04-05T09:03:34Z</time>
      </trkpt>
      <trkpt lat="50.18149" lon="4.70879">
        <ele>222.4</ele>
        <time>2025-04-05T09:03:35Z</time>
      </trkpt>
      <trkpt lat="50.18148" lon="4.70873">
        <ele>222.4</ele>
        <time>2025-04-05T09:03:36Z</time>
      </trkpt>
      <trkpt lat="50.18148" lon="4.70868">
        <ele>222.4</ele>
        <time>2025-04-05T09:03:37Z</time>
      </trkpt>
      <trkpt lat="50.18148" lon="4.70864">
        <ele>222.4</ele>
        <time>2025-04-05T09:03:38Z</time>
      </trkpt>
      <trkpt lat="50.18149" lon="4.7086">
        <ele>222.4</ele>
        <time>2025-04-05T09:03:39Z</time>
      </trkpt>
      <trkpt lat="50.18149" lon="4.70856">
        <ele>222.4</ele>
        <time>2025-04-05T09:03:40Z</time>
      </trkpt>
      <trkpt lat="50.18149" lon="4.70852">
        <ele>222.4</ele>
        <time>2025-04-05T09:03:41Z</time>
      </trkpt>
      <trkpt lat="50.1815" lon="4.7085">
        <ele>222.4</ele>
        <time>2025-04-05T09:03:42Z</time>
      </trkpt>
      <trkpt lat="50.1815" lon="4.70849">
        <ele>222.4</ele>
        <time>2025-04-05T09:03:43Z</time>
      </trkpt>
      <trkpt lat="50.18152" lon="4.70836">
        <ele>222.6</ele>
        <time>2025-04-05T09:06:20Z</time>
      </trkpt>
      <trkpt lat="50.18152" lon="4.70832">
        <ele>222.6</ele>
        <time>2025-04-05T09:06:21Z</time>
      </trkpt>
      <trkpt lat="50.18152" lon="4.70827">
        <ele>222.6</ele>
        <time>2025-04-05T09:06:22Z</time>
      </trkpt>
      <trkpt lat="50.18152" lon="4.70823">
        <ele>222.6</ele>
        <time>2025-04-05T09:06:23Z</time>
      </trkpt>
      <trkpt lat="50.18151" lon="4.70818">
        <ele>222.6</ele>
        <time>2025-04-05T09:06:24Z</time>
      </trkpt>
      <trkpt lat="50.18151" lon="4.70814">
        <ele>222.6</ele>
        <time>2025-04-05T09:06:25Z</time>
      </trkpt>
      <trkpt lat="50.18151" lon="4.70809">
        <ele>222.4</ele>
        <time>2025-04-05T09:06:26Z</time>
      </trkpt>
      <trkpt lat="50.18151" lon="4.70804">
        <ele>222.4</ele>
        <time>2025-04-05T09:06:27Z</time>
      </trkpt>
      <trkpt lat="50.18151" lon="4.70799">
        <ele>222.4</ele>
        <time>2025-04-05T09:06:28Z</time>
      </trkpt>
      <trkpt lat="50.18151" lon="4.70794">
        <ele>222.4</ele>
        <time>2025-04-05T09:06:29Z</time>
      </trkpt>
      <trkpt lat="50.18152" lon="4.70789">
        <ele>222.4</ele>
        <time>2025-04-05T09:06:30Z</time>
      </trkpt>
      <trkpt lat="50.18152" lon="4.70783">
        <ele>222.4</ele>
        <time>2025-04-05T09:06:31Z</time>
      </trkpt>
      <trkpt lat="50.18152" lon="4.70777">
        <ele>222.4</ele>
        <time>2025-04-05T09:06:32Z</time>
      </trkpt>
      <trkpt lat="50.18152" lon="4.70772">
        <ele>222.4</ele>
        <time>2025-04-05T09:06:33Z</time>
      </trkpt>
      <trkpt lat="50.18152" lon="4.70766">
        <ele>222.4</ele>
        <time>2025-04-05T09:06:34Z</time>
      </trkpt>
      <trkpt lat="50.18152" lon="4.70759">
        <ele>222.2</ele>
        <time>2025-04-05T09:06:35Z</time>
      </trkpt>
      <trkpt lat="50.18152" lon="4.70754">
        <ele>222.2</ele>
        <time>2025-04-05T09:06:36Z</time>
      </trkpt>
      <trkpt lat="50.18152" lon="4.70748">
        <ele>222.2</ele>
        <time>2025-04-05T09:06:37Z</time>
      </trkpt>
      <trkpt lat="50.18153" lon="4.70742">
        <ele>222</ele>
        <time>2025-04-05T09:06:38Z</time>
      </trkpt>
      <trkpt lat="50.18153" lon="4.70736">
        <ele>222</ele>
        <time>2025-04-05T09:06:39Z</time>
      </trkpt>
      <trkpt lat="50.18153" lon="4.70729">
        <ele>222</ele>
        <time>2025-04-05T09:06:40Z</time>
      </trkpt>
      <trkpt lat="50.18153" lon="4.70721">
        <ele>221.8</ele>
        <time>2025-04-05T09:06:41Z</time>
      </trkpt>
      <trkpt lat="50.18153" lon="4.70714">
        <ele>221.6</ele>
        <time>2025-04-05T09:06:42Z</time>
      </trkpt>
      <trkpt lat="50.18153" lon="4.70707">
        <ele>221.6</ele>
        <time>2025-04-05T09:06:43Z</time>
      </trkpt>
      <trkpt lat="50.18152" lon="4.707">
        <ele>221.4</ele>
        <time>2025-04-05T09:06:44Z</time>
      </trkpt>
      <trkpt lat="50.18152" lon="4.70691">
        <ele>221.2</ele>
        <time>2025-04-05T09:06:45Z</time>
      </trkpt>
      <trkpt lat="50.18152" lon="4.70684">
        <ele>221</ele>
        <time>2025-04-05T09:06:46Z</time>
      </trkpt>
      <trkpt lat="50.18152" lon="4.70676">
        <ele>221</ele>
        <time>2025-04-05T09:06:47Z</time>
      </trkpt>
      <trkpt lat="50.18152" lon="4.70667">
        <ele>220.8</ele>
        <time>2025-04-05T09:06:48Z</time>
      </trkpt>
      <trkpt lat="50.18152" lon="4.70657">
        <ele>220.8</ele>
        <time>2025-04-05T09:06:49Z</time>
      </trkpt>
      <trkpt lat="50.18152" lon="4.7065">
        <ele>220.6</ele>
        <time>2025-04-05T09:06:50Z</time>
      </trkpt>
      <trkpt lat="50.18153" lon="4.70641">
        <ele>220.4</ele>
        <time>2025-04-05T09:06:51Z</time>
      </trkpt>
      <trkpt lat="50.18153" lon="4.70632">
        <ele>220.4</ele>
        <time>2025-04-05T09:06:52Z</time>
      </trkpt>
      <trkpt lat="50.18152" lon="4.70623">
        <ele>220.2</ele>
        <time>2025-04-05T09:06:53Z</time>
      </trkpt>
      <trkpt lat="50.18152" lon="4.70613">
        <ele>220</ele>
        <time>2025-04-05T09:06:54Z</time>
      </trkpt>
      <trkpt lat="50.18152" lon="4.70604">
        <ele>219.8</ele>
        <time>2025-04-05T09:06:55Z</time>
      </trkpt>
      <trkpt lat="50.18152" lon="4.70596">
        <ele>219.8</ele>
        <time>2025-04-05T09:06:56Z</time>
      </trkpt>
      <trkpt lat="50.18152" lon="4.70587">
        <ele>219.6</ele>
        <time>2025-04-05T09:06:57Z</time>
      </trkpt>
      <trkpt lat="50.18152" lon="4.70577">
        <ele>219.4</ele>
        <time>2025-04-05T09:06:58Z</time>
      </trkpt>
      <trkpt lat="50.18152" lon="4.70567">
        <ele>219.2</ele>
        <time>2025-04-05T09:06:59Z</time>
      </trkpt>
      <trkpt lat="50.18152" lon="4.70558">
        <ele>219.2</ele>
        <time>2025-04-05T09:07:00Z</time>
      </trkpt>
      <trkpt lat="50.18152" lon="4.70548">
        <ele>218.8</ele>
        <time>2025-04-05T09:07:01Z</time>
      </trkpt>
      <trkpt lat="50.18152" lon="4.70539">
        <ele>218.8</ele>
        <time>2025-04-05T09:07:02Z</time>
      </trkpt>
      <trkpt lat="50.18152" lon="4.70529">
        <ele>218.6</ele>
        <time>2025-04-05T09:07:03Z</time>
      </trkpt>
      <trkpt lat="50.18152" lon="4.7052">
        <ele>218.4</ele>
        <time>2025-04-05T09:07:04Z</time>
      </trkpt>
      <trkpt lat="50.18152" lon="4.70512">
        <ele>218.2</ele>
        <time>2025-04-05T09:07:05Z</time>
      </trkpt>
      <trkpt lat="50.18152" lon="4.70501">
        <ele>218</ele>
        <time>2025-04-05T09:07:06Z</time>
      </trkpt>
      <trkpt lat="50.18152" lon="4.70491">
        <ele>218</ele>
        <time>2025-04-05T09:07:07Z</time>
      </trkpt>
      <trkpt lat="50.18152" lon="4.70484">
        <ele>217.8</ele>
        <time>2025-04-05T09:07:08Z</time>
      </trkpt>
      <trkpt lat="50.18152" lon="4.70474">
        <ele>217.6</ele>
        <time>2025-04-05T09:07:09Z</time>
      </trkpt>
      <trkpt lat="50.18151" lon="4.70465">
        <ele>217.4</ele>
        <time>2025-04-05T09:07:10Z</time>
      </trkpt>
      <trkpt lat="50.18151" lon="4.70455">
        <ele>217.2</ele>
        <time>2025-04-05T09:07:11Z</time>
      </trkpt>
      <trkpt lat="50.18151" lon="4.70445">
        <ele>217</ele>
        <time>2025-04-05T09:07:12Z</time>
      </trkpt>
      <trkpt lat="50.18151" lon="4.70435">
        <ele>216.8</ele>
        <time>2025-04-05T09:07:13Z</time>
      </trkpt>
      <trkpt lat="50.1815" lon="4.70425">
        <ele>216.6</ele>
        <time>2025-04-05T09:07:14Z</time>
      </trkpt>
      <trkpt lat="50.1815" lon="4.70415">
        <ele>216.4</ele>
        <time>2025-04-05T09:07:15Z</time>
      </trkpt>
      <trkpt lat="50.1815" lon="4.70405">
        <ele>216.2</ele>
        <time>2025-04-05T09:07:16Z</time>
      </trkpt>
      <trkpt lat="50.18149" lon="4.70394">
        <ele>216</ele>
        <time>2025-04-05T09:07:17Z</time>
      </trkpt>
      <trkpt lat="50.18148" lon="4.70384">
        <ele>215.6</ele>
        <time>2025-04-05T09:07:18Z</time>
      </trkpt>
      <trkpt lat="50.18148" lon="4.70375">
        <ele>215.4</ele>
        <time>2025-04-05T09:07:19Z</time>
      </trkpt>
      <trkpt lat="50.18148" lon="4.70366">
        <ele>215</ele>
        <time>2025-04-05T09:07:20Z</time>
      </trkpt>
      <trkpt lat="50.18147" lon="4.70355">
        <ele>214.8</ele>
        <time>2025-04-05T09:07:21Z</time>
      </trkpt>
      <trkpt lat="50.18147" lon="4.70343">
        <ele>214.6</ele>
        <time>2025-04-05T09:07:22Z</time>
      </trkpt>
      <trkpt lat="50.18147" lon="4.70332">
        <ele>214.4</ele>
        <time>2025-04-05T09:07:23Z</time>
      </trkpt>
      <trkpt lat="50.18146" lon="4.70324">
        <ele>214</ele>
        <time>2025-04-05T09:07:24Z</time>
      </trkpt>
      <trkpt lat="50.18145" lon="4.70313">
        <ele>213.8</ele>
        <time>2025-04-05T09:07:25Z</time>
      </trkpt>
      <trkpt lat="50.18145" lon="4.70301">
        <ele>213.6</ele>
        <time>2025-04-05T09:07:26Z</time>
      </trkpt>
      <trkpt lat="50.18144" lon="4.7029">
        <ele>213.4</ele>
        <time>2025-04-05T09:07:27Z</time>
      </trkpt>
      <trkpt lat="50.18144" lon="4.70281">
        <ele>213.2</ele>
        <time>2025-04-05T09:07:28Z</time>
      </trkpt>
      <trkpt lat="50.18143" lon="4.70271">
        <ele>213</ele>
        <time>2025-04-05T09:07:29Z</time>
      </trkpt>
      <trkpt lat="50.18142" lon="4.70261">
        <ele>212.8</ele>
        <time>2025-04-05T09:07:30Z</time>
      </trkpt>
      <trkpt lat="50.18141" lon="4.7025">
        <ele>212.6</ele>
        <time>2025-04-05T09:07:31Z</time>
      </trkpt>
      <trkpt lat="50.18141" lon="4.70239">
        <ele>212.2</ele>
        <time>2025-04-05T09:07:32Z</time>
      </trkpt>
      <trkpt lat="50.1814" lon="4.70231">
        <ele>212</ele>
        <time>2025-04-05T09:07:33Z</time>
      </trkpt>
      <trkpt lat="50.1814" lon="4.7022">
        <ele>211.8</ele>
        <time>2025-04-05T09:07:34Z</time>
      </trkpt>
      <trkpt lat="50.18139" lon="4.7021">
        <ele>211.6</ele>
        <time>2025-04-05T09:07:35Z</time>
      </trkpt>
      <trkpt lat="50.18139" lon="4.70199">
        <ele>211.4</ele>
        <time>2025-04-05T09:07:36Z</time>
      </trkpt>
      <trkpt lat="50.18139" lon="4.70189">
        <ele>211.2</ele>
        <time>2025-04-05T09:07:37Z</time>
      </trkpt>
      <trkpt lat="50.18138" lon="4.70176">
        <ele>210.8</ele>
        <time>2025-04-05T09:07:38Z</time>
      </trkpt>
      <trkpt lat="50.18138" lon="4.70166">
        <ele>210.6</ele>
        <time>2025-04-05T09:07:39Z</time>
      </trkpt>
      <trkpt lat="50.18137" lon="4.70156">
        <ele>210.4</ele>
        <time>2025-04-05T09:07:40Z</time>
      </trkpt>
      <trkpt lat="50.18136" lon="4.70149">
        <ele>210.2</ele>
        <time>2025-04-05T09:07:41Z</time>
      </trkpt>
      <trkpt lat="50.18135" lon="4.70138">
        <ele>210</ele>
        <time>2025-04-05T09:07:42Z</time>
      </trkpt>
      <trkpt lat="50.18135" lon="4.70129">
        <ele>209.8</ele>
        <time>2025-04-05T09:07:43Z</time>
      </trkpt>
      <trkpt lat="50.18135" lon="4.70119">
        <ele>209.4</ele>
        <time>2025-04-05T09:07:44Z</time>
      </trkpt>
      <trkpt lat="50.18134" lon="4.70109">
        <ele>209.2</ele>
        <time>2025-04-05T09:07:45Z</time>
      </trkpt>
      <trkpt lat="50.18133" lon="4.70101">
        <ele>209</ele>
        <time>2025-04-05T09:07:46Z</time>
      </trkpt>
      <trkpt lat="50.18132" lon="4.70091">
        <ele>208.6</ele>
        <time>2025-04-05T09:07:47Z</time>
      </trkpt>
      <trkpt lat="50.18131" lon="4.7008">
        <ele>208.4</ele>
        <time>2025-04-05T09:07:48Z</time>
      </trkpt>
      <trkpt lat="50.18131" lon="4.70071">
        <ele>208</ele>
        <time>2025-04-05T09:07:49Z</time>
      </trkpt>
      <trkpt lat="50.18131" lon="4.70061">
        <ele>207.6</ele>
        <time>2025-04-05T09:07:50Z</time>
      </trkpt>
      <trkpt lat="50.18131" lon="4.70051">
        <ele>207</ele>
        <time>2025-04-05T09:07:51Z</time>
      </trkpt>
      <trkpt lat="50.18131" lon="4.70041">
        <ele>206.6</ele>
        <time>2025-04-05T09:07:52Z</time>
      </trkpt>
      <trkpt lat="50.18132" lon="4.70031">
        <ele>206.2</ele>
        <time>2025-04-05T09:07:53Z</time>
      </trkpt>
      <trkpt lat="50.18132" lon="4.70021">
        <ele>205.8</ele>
        <time>2025-04-05T09:07:54Z</time>
      </trkpt>
      <trkpt lat="50.18132" lon="4.70011">
        <ele>205.4</ele>
        <time>2025-04-05T09:07:55Z</time>
      </trkpt>
      <trkpt lat="50.18132" lon="4.70002">
        <ele>205</ele>
        <time>2025-04-05T09:07:56Z</time>
      </trkpt>
      <trkpt lat="50.18132" lon="4.6999">
        <ele>204.4</ele>
        <time>2025-04-05T09:07:57Z</time>
      </trkpt>
      <trkpt lat="50.18132" lon="4.6998">
        <ele>203.8</ele>
        <time>2025-04-05T09:07:58Z</time>
      </trkpt>
      <trkpt lat="50.18132" lon="4.69971">
        <ele>203.4</ele>
        <time>2025-04-05T09:07:59Z</time>
      </trkpt>
      <trkpt lat="50.18133" lon="4.6996">
        <ele>202.8</ele>
        <time>2025-04-05T09:08:00Z</time>
      </trkpt>
      <trkpt lat="50.18135" lon="4.69949">
        <ele>202.2</ele>
        <time>2025-04-05T09:08:01Z</time>
      </trkpt>
      <trkpt lat="50.18138" lon="4.69937">
        <ele>201.6</ele>
        <time>2025-04-05T09:08:02Z</time>
      </trkpt>
      <trkpt lat="50.18142" lon="4.69928">
        <ele>201</ele>
        <time>2025-04-05T09:08:03Z</time>
      </trkpt>
      <trkpt lat="50.18146" lon="4.6992">
        <ele>200.6</ele>
        <time>2025-04-05T09:08:04Z</time>
      </trkpt>
      <trkpt lat="50.18152" lon="4.6991">
        <ele>200.4</ele>
        <time>2025-04-05T09:08:05Z</time>
      </trkpt>
      <trkpt lat="50.18156" lon="4.69902">
        <ele>200.2</ele>
        <time>2025-04-05T09:08:06Z</time>
      </trkpt>
      <trkpt lat="50.1816" lon="4.69893">
        <ele>200</ele>
        <time>2025-04-05T09:08:07Z</time>
      </trkpt>
      <trkpt lat="50.18165" lon="4.69883">
        <ele>199.8</ele>
        <time>2025-04-05T09:08:08Z</time>
      </trkpt>
      <trkpt lat="50.18167" lon="4.69875">
        <ele>199.8</ele>
        <time>2025-04-05T09:08:09Z</time>
      </trkpt>
      <trkpt lat="50.18169" lon="4.69865">
        <ele>200</ele>
        <time>2025-04-05T09:08:10Z</time>
      </trkpt>
      <trkpt lat="50.18171" lon="4.69853">
        <ele>199.8</ele>
        <time>2025-04-05T09:08:11Z</time>
      </trkpt>
      <trkpt lat="50.18172" lon="4.69845">
        <ele>200</ele>
        <time>2025-04-05T09:08:12Z</time>
      </trkpt>
      <trkpt lat="50.18172" lon="4.69837">
        <ele>200</ele>
        <time>2025-04-05T09:08:13Z</time>
      </trkpt>
      <trkpt lat="50.18172" lon="4.69828">
        <ele>200</ele>
        <time>2025-04-05T09:08:14Z</time>
      </trkpt>
      <trkpt lat="50.18171" lon="4.6982">
        <ele>200.2</ele>
        <time>2025-04-05T09:08:15Z</time>
      </trkpt>
      <trkpt lat="50.18169" lon="4.6981">
        <ele>200.2</ele>
        <time>2025-04-05T09:08:16Z</time>
      </trkpt>
      <trkpt lat="50.18168" lon="4.69801">
        <ele>200.2</ele>
        <time>2025-04-05T09:08:17Z</time>
      </trkpt>
      <trkpt lat="50.18166" lon="4.69793">
        <ele>200.2</ele>
        <time>2025-04-05T09:08:18Z</time>
      </trkpt>
      <trkpt lat="50.18164" lon="4.69783">
        <ele>200.2</ele>
        <time>2025-04-05T09:08:19Z</time>
      </trkpt>
      <trkpt lat="50.18162" lon="4.69774">
        <ele>200.2</ele>
        <time>2025-04-05T09:08:20Z</time>
      </trkpt>
      <trkpt lat="50.1816" lon="4.69767">
        <ele>200.2</ele>
        <time>2025-04-05T09:08:21Z</time>
      </trkpt>
      <trkpt lat="50.18159" lon="4.69757">
        <ele>200.2</ele>
        <time>2025-04-05T09:08:22Z</time>
      </trkpt>
      <trkpt lat="50.18157" lon="4.69748">
        <ele>200.2</ele>
        <time>2025-04-05T09:08:23Z</time>
      </trkpt>
      <trkpt lat="50.18157" lon="4.69739">
        <ele>200.2</ele>
        <time>2025-04-05T09:08:24Z</time>
      </trkpt>
      <trkpt lat="50.18163" lon="4.69729">
        <ele>200.4</ele>
        <time>2025-04-05T09:08:25Z</time>
      </trkpt>
      <trkpt lat="50.18165" lon="4.69722">
        <ele>200.6</ele>
        <time>2025-04-05T09:08:26Z</time>
      </trkpt>
      <trkpt lat="50.18169" lon="4.69716">
        <ele>201</ele>
        <time>2025-04-05T09:08:27Z</time>
      </trkpt>
      <trkpt lat="50.18173" lon="4.69712">
        <ele>201.2</ele>
        <time>2025-04-05T09:08:28Z</time>
      </trkpt>
      <trkpt lat="50.18176" lon="4.69709">
        <ele>201.6</ele>
        <time>2025-04-05T09:08:29Z</time>
      </trkpt>
      <trkpt lat="50.1818" lon="4.69706">
        <ele>202</ele>
        <time>2025-04-05T09:08:30Z</time>
      </trkpt>
      <trkpt lat="50.18182" lon="4.69704">
        <ele>202.4</ele>
        <time>2025-04-05T09:08:31Z</time>
      </trkpt>
      <trkpt lat="50.18185" lon="4.69701">
        <ele>202.8</ele>
        <time>2025-04-05T09:08:32Z</time>
      </trkpt>
      <trkpt lat="50.18188" lon="4.69698">
        <ele>203</ele>
        <time>2025-04-05T09:08:33Z</time>
      </trkpt>
      <trkpt lat="50.18191" lon="4.69695">
        <ele>203.2</ele>
        <time>2025-04-05T09:08:34Z</time>
      </trkpt>
      <trkpt lat="50.18195" lon="4.6969">
        <ele>203.4</ele>
        <time>2025-04-05T09:08:35Z</time>
      </trkpt>
      <trkpt lat="50.18198" lon="4.69685">
        <ele>203.6</ele>
        <time>2025-04-05T09:08:36Z</time>
      </trkpt>
      <trkpt lat="50.182" lon="4.69677">
        <ele>203.8</ele>
        <time>2025-04-05T09:08:37Z</time>
      </trkpt>
      <trkpt lat="50.182" lon="4.69669">
        <ele>204</ele>
        <time>2025-04-05T09:08:38Z</time>
      </trkpt>
      <trkpt lat="50.182" lon="4.69662">
        <ele>204.2</ele>
        <time>2025-04-05T09:08:39Z</time>
      </trkpt>
      <trkpt lat="50.18199" lon="4.69654">
        <ele>204.4</ele>
        <time>2025-04-05T09:08:40Z</time>
      </trkpt>
      <trkpt lat="50.18199" lon="4.69647">
        <ele>204.8</ele>
        <time>2025-04-05T09:08:41Z</time>
      </trkpt>
      <trkpt lat="50.18199" lon="4.69639">
        <ele>205</ele>
        <time>2025-04-05T09:08:42Z</time>
      </trkpt>
      <trkpt lat="50.18199" lon="4.69634">
        <ele>205.2</ele>
        <time>2025-04-05T09:08:43Z</time>
      </trkpt>
      <trkpt lat="50.182" lon="4.69626">
        <ele>205.4</ele>
        <time>2025-04-05T09:08:44Z</time>
      </trkpt>
      <trkpt lat="50.18201" lon="4.69619">
        <ele>205.8</ele>
        <time>2025-04-05T09:08:45Z</time>
      </trkpt>
      <trkpt lat="50.18202" lon="4.69613">
        <ele>206</ele>
        <time>2025-04-05T09:08:46Z</time>
      </trkpt>
      <trkpt lat="50.18203" lon="4.69607">
        <ele>206.2</ele>
        <time>2025-04-05T09:08:47Z</time>
      </trkpt>
      <trkpt lat="50.18205" lon="4.696">
        <ele>206.4</ele>
        <time>2025-04-05T09:08:48Z</time>
      </trkpt>
      <trkpt lat="50.18206" lon="4.69593">
        <ele>206.8</ele>
        <time>2025-04-05T09:08:49Z</time>
      </trkpt>
      <trkpt lat="50.18207" lon="4.69587">
        <ele>207</ele>
        <time>2025-04-05T09:08:50Z</time>
      </trkpt>
      <trkpt lat="50.18208" lon="4.69581">
        <ele>207.2</ele>
        <time>2025-04-05T09:08:51Z</time>
      </trkpt>
      <trkpt lat="50.18209" lon="4.69574">
        <ele>207.4</ele>
        <time>2025-04-05T09:08:52Z</time>
      </trkpt>
      <trkpt lat="50.1821" lon="4.69567">
        <ele>207.6</ele>
        <time>2025-04-05T09:08:53Z</time>
      </trkpt>
      <trkpt lat="50.18211" lon="4.6956">
        <ele>207.8</ele>
        <time>2025-04-05T09:08:54Z</time>
      </trkpt>
      <trkpt lat="50.18212" lon="4.69555">
        <ele>207.8</ele>
        <time>2025-04-05T09:08:55Z</time>
      </trkpt>
      <trkpt lat="50.18213" lon="4.69549">
        <ele>208</ele>
        <time>2025-04-05T09:08:56Z</time>
      </trkpt>
      <trkpt lat="50.18215" lon="4.69542">
        <ele>208.2</ele>
        <time>2025-04-05T09:08:57Z</time>
      </trkpt>
      <trkpt lat="50.18217" lon="4.69534">
        <ele>208.2</ele>
        <time>2025-04-05T09:08:58Z</time>
      </trkpt>
      <trkpt lat="50.1822" lon="4.69529">
        <ele>208.4</ele>
        <time>2025-04-05T09:08:59Z</time>
      </trkpt>
      <trkpt lat="50.18223" lon="4.69525">
        <ele>208.6</ele>
        <time>2025-04-05T09:09:00Z</time>
      </trkpt>
      <trkpt lat="50.18226" lon="4.69521">
        <ele>208.6</ele>
        <time>2025-04-05T09:09:01Z</time>
      </trkpt>
      <trkpt lat="50.18229" lon="4.69517">
        <ele>208.8</ele>
        <time>2025-04-05T09:09:02Z</time>
      </trkpt>
      <trkpt lat="50.18231" lon="4.69512">
        <ele>209</ele>
        <time>2025-04-05T09:09:03Z</time>
      </trkpt>
      <trkpt lat="50.18233" lon="4.69506">
        <ele>209</ele>
        <time>2025-04-05T09:09:04Z</time>
      </trkpt>
      <trkpt lat="50.18234" lon="4.69499">
        <ele>209</ele>
        <time>2025-04-05T09:09:05Z</time>
      </trkpt>
      <trkpt lat="50.18234" lon="4.69494">
        <ele>209.2</ele>
        <time>2025-04-05T09:09:06Z</time>
      </trkpt>
      <trkpt lat="50.18232" lon="4.69489">
        <ele>209.2</ele>
        <time>2025-04-05T09:09:07Z</time>
      </trkpt>
      <trkpt lat="50.18231" lon="4.69484">
        <ele>209.4</ele>
        <time>2025-04-05T09:09:08Z</time>
      </trkpt>
      <trkpt lat="50.18231" lon="4.69479">
        <ele>209.4</ele>
        <time>2025-04-05T09:09:09Z</time>
      </trkpt>
      <trkpt lat="50.18228" lon="4.69474">
        <ele>209.6</ele>
        <time>2025-04-05T09:09:10Z</time>
      </trkpt>
      <trkpt lat="50.18224" lon="4.69471">
        <ele>209.6</ele>
        <time>2025-04-05T09:09:11Z</time>
      </trkpt>
      <trkpt lat="50.1822" lon="4.69468">
        <ele>209.8</ele>
        <time>2025-04-05T09:09:12Z</time>
      </trkpt>
      <trkpt lat="50.18214" lon="4.69466">
        <ele>209.8</ele>
        <time>2025-04-05T09:09:13Z</time>
      </trkpt>
      <trkpt lat="50.1821" lon="4.69465">
        <ele>209.8</ele>
        <time>2025-04-05T09:09:14Z</time>
      </trkpt>
      <trkpt lat="50.18206" lon="4.69463">
        <ele>209.8</ele>
        <time>2025-04-05T09:09:15Z</time>
      </trkpt>
      <trkpt lat="50.18201" lon="4.69461">
        <ele>209.8</ele>
        <time>2025-04-05T09:09:16Z</time>
      </trkpt>
      <trkpt lat="50.18198" lon="4.6946">
        <ele>209.8</ele>
        <time>2025-04-05T09:09:17Z</time>
      </trkpt>
      <trkpt lat="50.18194" lon="4.69458">
        <ele>209.6</ele>
        <time>2025-04-05T09:09:18Z</time>
      </trkpt>
      <trkpt lat="50.1819" lon="4.69456">
        <ele>209.6</ele>
        <time>2025-04-05T09:09:19Z</time>
      </trkpt>
      <trkpt lat="50.18185" lon="4.69454">
        <ele>209.4</ele>
        <time>2025-04-05T09:09:20Z</time>
      </trkpt>
      <trkpt lat="50.18181" lon="4.69452">
        <ele>209.4</ele>
        <time>2025-04-05T09:09:21Z</time>
      </trkpt>
      <trkpt lat="50.18176" lon="4.6945">
        <ele>209.2</ele>
        <time>2025-04-05T09:09:22Z</time>
      </trkpt>
      <trkpt lat="50.18171" lon="4.69448">
        <ele>209.2</ele>
        <time>2025-04-05T09:09:23Z</time>
      </trkpt>
      <trkpt lat="50.18166" lon="4.69446">
        <ele>209</ele>
        <time>2025-04-05T09:09:24Z</time>
      </trkpt>
      <trkpt lat="50.1816" lon="4.69444">
        <ele>208.8</ele>
        <time>2025-04-05T09:09:25Z</time>
      </trkpt>
      <trkpt lat="50.18155" lon="4.69442">
        <ele>208.6</ele>
        <time>2025-04-05T09:09:26Z</time>
      </trkpt>
      <trkpt lat="50.18149" lon="4.6944">
        <ele>208.2</ele>
        <time>2025-04-05T09:09:27Z</time>
      </trkpt>
      <trkpt lat="50.18143" lon="4.69438">
        <ele>207.8</ele>
        <time>2025-04-05T09:09:28Z</time>
      </trkpt>
      <trkpt lat="50.18135" lon="4.69435">
        <ele>207.6</ele>
        <time>2025-04-05T09:09:29Z</time>
      </trkpt>
      <trkpt lat="50.18129" lon="4.69433">
        <ele>207.2</ele>
        <time>2025-04-05T09:09:30Z</time>
      </trkpt>
      <trkpt lat="50.18122" lon="4.69431">
        <ele>206.6</ele>
        <time>2025-04-05T09:09:31Z</time>
      </trkpt>
      <trkpt lat="50.18116" lon="4.69429">
        <ele>206.2</ele>
        <time>2025-04-05T09:09:32Z</time>
      </trkpt>
      <trkpt lat="50.18108" lon="4.69427">
        <ele>205.8</ele>
        <time>2025-04-05T09:09:33Z</time>
      </trkpt>
      <trkpt lat="50.18101" lon="4.69425">
        <ele>205.4</ele>
        <time>2025-04-05T09:09:34Z</time>
      </trkpt>
      <trkpt lat="50.18093" lon="4.69422">
        <ele>205.2</ele>
        <time>2025-04-05T09:09:35Z</time>
      </trkpt>
      <trkpt lat="50.18087" lon="4.69421">
        <ele>205</ele>
        <time>2025-04-05T09:09:36Z</time>
      </trkpt>
      <trkpt lat="50.18078" lon="4.69418">
        <ele>205</ele>
        <time>2025-04-05T09:09:37Z</time>
      </trkpt>
      <trkpt lat="50.18072" lon="4.69417">
        <ele>205</ele>
        <time>2025-04-05T09:09:38Z</time>
      </trkpt>
      <trkpt lat="50.18066" lon="4.69416">
        <ele>205</ele>
        <time>2025-04-05T09:09:39Z</time>
      </trkpt>
      <trkpt lat="50.18061" lon="4.69414">
        <ele>205.2</ele>
        <time>2025-04-05T09:09:40Z</time>
      </trkpt>
      <trkpt lat="50.18056" lon="4.69413">
        <ele>205.4</ele>
        <time>2025-04-05T09:09:41Z</time>
      </trkpt>
      <trkpt lat="50.18049" lon="4.69411">
        <ele>205.6</ele>
        <time>2025-04-05T09:09:42Z</time>
      </trkpt>
      <trkpt lat="50.18043" lon="4.6941">
        <ele>205.8</ele>
        <time>2025-04-05T09:09:43Z</time>
      </trkpt>
      <trkpt lat="50.18037" lon="4.69408">
        <ele>206</ele>
        <time>2025-04-05T09:09:44Z</time>
      </trkpt>
      <trkpt lat="50.18032" lon="4.69407">
        <ele>206.4</ele>
        <time>2025-04-05T09:09:45Z</time>
      </trkpt>
      <trkpt lat="50.18026" lon="4.69406">
        <ele>206.6</ele>
        <time>2025-04-05T09:09:46Z</time>
      </trkpt>
      <trkpt lat="50.18021" lon="4.69406">
        <ele>206.8</ele>
        <time>2025-04-05T09:09:47Z</time>
      </trkpt>
      <trkpt lat="50.18016" lon="4.69406">
        <ele>207.2</ele>
        <time>2025-04-05T09:09:48Z</time>
      </trkpt>
      <trkpt lat="50.18012" lon="4.69406">
        <ele>207.4</ele>
        <time>2025-04-05T09:09:49Z</time>
      </trkpt>
      <trkpt lat="50.18007" lon="4.69407">
        <ele>207.6</ele>
        <time>2025-04-05T09:09:50Z</time>
      </trkpt>
      <trkpt lat="50.18003" lon="4.69409">
        <ele>207.8</ele>
        <time>2025-04-05T09:09:51Z</time>
      </trkpt>
      <trkpt lat="50.17999" lon="4.69411">
        <ele>208</ele>
        <time>2025-04-05T09:09:52Z</time>
      </trkpt>
      <trkpt lat="50.17995" lon="4.69412">
        <ele>208.4</ele>
        <time>2025-04-05T09:09:53Z</time>
      </trkpt>
      <trkpt lat="50.17991" lon="4.69414">
        <ele>208.6</ele>
        <time>2025-04-05T09:09:54Z</time>
      </trkpt>
      <trkpt lat="50.17987" lon="4.69416">
        <ele>208.8</ele>
        <time>2025-04-05T09:09:55Z</time>
      </trkpt>
      <trkpt lat="50.17983" lon="4.69418">
        <ele>209</ele>
        <time>2025-04-05T09:09:56Z</time>
      </trkpt>
      <trkpt lat="50.17979" lon="4.6942">
        <ele>209.4</ele>
        <time>2025-04-05T09:09:57Z</time>
      </trkpt>
      <trkpt lat="50.17976" lon="4.69421">
        <ele>209.6</ele>
        <time>2025-04-05T09:09:58Z</time>
      </trkpt>
      <trkpt lat="50.17974" lon="4.69423">
        <ele>209.8</ele>
        <time>2025-04-05T09:09:59Z</time>
      </trkpt>
      <trkpt lat="50.1797" lon="4.69425">
        <ele>210</ele>
        <time>2025-04-05T09:10:00Z</time>
      </trkpt>
      <trkpt lat="50.17967" lon="4.69426">
        <ele>210.2</ele>
        <time>2025-04-05T09:10:01Z</time>
      </trkpt>
      <trkpt lat="50.17963" lon="4.69428">
        <ele>210.4</ele>
        <time>2025-04-05T09:10:02Z</time>
      </trkpt>
      <trkpt lat="50.17959" lon="4.6943">
        <ele>210.6</ele>
        <time>2025-04-05T09:10:03Z</time>
      </trkpt>
      <trkpt lat="50.17956" lon="4.69432">
        <ele>210.8</ele>
        <time>2025-04-05T09:10:04Z</time>
      </trkpt>
      <trkpt lat="50.17952" lon="4.69434">
        <ele>211</ele>
        <time>2025-04-05T09:10:05Z</time>
      </trkpt>
      <trkpt lat="50.17948" lon="4.69437">
        <ele>211.2</ele>
        <time>2025-04-05T09:10:06Z</time>
      </trkpt>
      <trkpt lat="50.17946" lon="4.69439">
        <ele>211.4</ele>
        <time>2025-04-05T09:10:07Z</time>
      </trkpt>
      <trkpt lat="50.17942" lon="4.69441">
        <ele>211.6</ele>
        <time>2025-04-05T09:10:08Z</time>
      </trkpt>
      <trkpt lat="50.17939" lon="4.69443">
        <ele>211.8</ele>
        <time>2025-04-05T09:10:09Z</time>
      </trkpt>
      <trkpt lat="50.17936" lon="4.69445">
        <ele>212</ele>
        <time>2025-04-05T09:10:10Z</time>
      </trkpt>
      <trkpt lat="50.17933" lon="4.69448">
        <ele>212.2</ele>
        <time>2025-04-05T09:10:11Z</time>
      </trkpt>
      <trkpt lat="50.1793" lon="4.69449">
        <ele>212.4</ele>
        <time>2025-04-05T09:10:12Z</time>
      </trkpt>
      <trkpt lat="50.17926" lon="4.69451">
        <ele>212.6</ele>
        <time>2025-04-05T09:10:13Z</time>
      </trkpt>
      <trkpt lat="50.17923" lon="4.69453">
        <ele>212.8</ele>
        <time>2025-04-05T09:10:14Z</time>
      </trkpt>
      <trkpt lat="50.1792" lon="4.69454">
        <ele>213</ele>
        <time>2025-04-05T09:10:15Z</time>
      </trkpt>
      <trkpt lat="50.17917" lon="4.69456">
        <ele>213.2</ele>
        <time>2025-04-05T09:10:16Z</time>
      </trkpt>
      <trkpt lat="50.17914" lon="4.69458">
        <ele>213.4</ele>
        <time>2025-04-05T09:10:17Z</time>
      </trkpt>
      <trkpt lat="50.1791" lon="4.69461">
        <ele>213.6</ele>
        <time>2025-04-05T09:10:18Z</time>
      </trkpt>
      <trkpt lat="50.17909" lon="4.69463">
        <ele>213.8</ele>
        <time>2025-04-05T09:10:19Z</time>
      </trkpt>
      <trkpt lat="50.17905" lon="4.69465">
        <ele>214</ele>
        <time>2025-04-05T09:10:20Z</time>
      </trkpt>
      <trkpt lat="50.17902" lon="4.69466">
        <ele>214.2</ele>
        <time>2025-04-05T09:10:21Z</time>
      </trkpt>
      <trkpt lat="50.17899" lon="4.69468">
        <ele>214.4</ele>
        <time>2025-04-05T09:10:22Z</time>
      </trkpt>
      <trkpt lat="50.17896" lon="4.6947">
        <ele>214.6</ele>
        <time>2025-04-05T09:10:23Z</time>
      </trkpt>
      <trkpt lat="50.17894" lon="4.69472">
        <ele>214.8</ele>
        <time>2025-04-05T09:10:24Z</time>
      </trkpt>
      <trkpt lat="50.1789" lon="4.69474">
        <ele>215</ele>
        <time>2025-04-05T09:10:25Z</time>
      </trkpt>
      <trkpt lat="50.17887" lon="4.69476">
        <ele>215.2</ele>
        <time>2025-04-05T09:10:26Z</time>
      </trkpt>
      <trkpt lat="50.17883" lon="4.69477">
        <ele>215.4</ele>
        <time>2025-04-05T09:10:27Z</time>
      </trkpt>
      <trkpt lat="50.1788" lon="4.69479">
        <ele>215.6</ele>
        <time>2025-04-05T09:10:28Z</time>
      </trkpt>
      <trkpt lat="50.17878" lon="4.6948">
        <ele>215.8</ele>
        <time>2025-04-05T09:10:29Z</time>
      </trkpt>
      <trkpt lat="50.17875" lon="4.69482">
        <ele>216</ele>
        <time>2025-04-05T09:10:30Z</time>
      </trkpt>
      <trkpt lat="50.17871" lon="4.69484">
        <ele>216.2</ele>
        <time>2025-04-05T09:10:31Z</time>
      </trkpt>
      <trkpt lat="50.17869" lon="4.69486">
        <ele>216.4</ele>
        <time>2025-04-05T09:10:32Z</time>
      </trkpt>
      <trkpt lat="50.17865" lon="4.69488">
        <ele>216.6</ele>
        <time>2025-04-05T09:10:33Z</time>
      </trkpt>
      <trkpt lat="50.17862" lon="4.6949">
        <ele>216.8</ele>
        <time>2025-04-05T09:10:34Z</time>
      </trkpt>
      <trkpt lat="50.17858" lon="4.69492">
        <ele>217</ele>
        <time>2025-04-05T09:10:35Z</time>
      </trkpt>
      <trkpt lat="50.17856" lon="4.69493">
        <ele>217.2</ele>
        <time>2025-04-05T09:10:36Z</time>
      </trkpt>
      <trkpt lat="50.17852" lon="4.69495">
        <ele>217.4</ele>
        <time>2025-04-05T09:10:37Z</time>
      </trkpt>
      <trkpt lat="50.17848" lon="4.69497">
        <ele>217.6</ele>
        <time>2025-04-05T09:10:38Z</time>
      </trkpt>
      <trkpt lat="50.17844" lon="4.69499">
        <ele>217.8</ele>
        <time>2025-04-05T09:10:39Z</time>
      </trkpt>
      <trkpt lat="50.17841" lon="4.69501">
        <ele>218</ele>
        <time>2025-04-05T09:10:40Z</time>
      </trkpt>
      <trkpt lat="50.17838" lon="4.69503">
        <ele>218.2</ele>
        <time>2025-04-05T09:10:41Z</time>
      </trkpt>
      <trkpt lat="50.17835" lon="4.69504">
        <ele>218.4</ele>
        <time>2025-04-05T09:10:42Z</time>
      </trkpt>
      <trkpt lat="50.17832" lon="4.69506">
        <ele>218.6</ele>
        <time>2025-04-05T09:10:43Z</time>
      </trkpt>
      <trkpt lat="50.17828" lon="4.69508">
        <ele>218.6</ele>
        <time>2025-04-05T09:10:44Z</time>
      </trkpt>
      <trkpt lat="50.17825" lon="4.6951">
        <ele>218.8</ele>
        <time>2025-04-05T09:10:45Z</time>
      </trkpt>
      <trkpt lat="50.17821" lon="4.69512">
        <ele>218.8</ele>
        <time>2025-04-05T09:10:46Z</time>
      </trkpt>
      <trkpt lat="50.17817" lon="4.69513">
        <ele>219</ele>
        <time>2025-04-05T09:10:47Z</time>
      </trkpt>
      <trkpt lat="50.17813" lon="4.69515">
        <ele>219</ele>
        <time>2025-04-05T09:10:48Z</time>
      </trkpt>
      <trkpt lat="50.17809" lon="4.69516">
        <ele>219.2</ele>
        <time>2025-04-05T09:10:49Z</time>
      </trkpt>
      <trkpt lat="50.17805" lon="4.69518">
        <ele>219.2</ele>
        <time>2025-04-05T09:10:50Z</time>
      </trkpt>
      <trkpt lat="50.17801" lon="4.69519">
        <ele>219.4</ele>
        <time>2025-04-05T09:10:51Z</time>
      </trkpt>
      <trkpt lat="50.17795" lon="4.6952">
        <ele>219.4</ele>
        <time>2025-04-05T09:10:52Z</time>
      </trkpt>
      <trkpt lat="50.1779" lon="4.6952">
        <ele>219.4</ele>
        <time>2025-04-05T09:10:53Z</time>
      </trkpt>
      <trkpt lat="50.17786" lon="4.69522">
        <ele>219.4</ele>
        <time>2025-04-05T09:10:54Z</time>
      </trkpt>
      <trkpt lat="50.17781" lon="4.69523">
        <ele>219.4</ele>
        <time>2025-04-05T09:10:55Z</time>
      </trkpt>
      <trkpt lat="50.17777" lon="4.69524">
        <ele>219.6</ele>
        <time>2025-04-05T09:10:56Z</time>
      </trkpt>
      <trkpt lat="50.17772" lon="4.69525">
        <ele>219.6</ele>
        <time>2025-04-05T09:10:57Z</time>
      </trkpt>
      <trkpt lat="50.17766" lon="4.69526">
        <ele>219.6</ele>
        <time>2025-04-05T09:10:58Z</time>
      </trkpt>
      <trkpt lat="50.17761" lon="4.69526">
        <ele>219.4</ele>
        <time>2025-04-05T09:10:59Z</time>
      </trkpt>
      <trkpt lat="50.17757" lon="4.69527">
        <ele>219.4</ele>
        <time>2025-04-05T09:11:00Z</time>
      </trkpt>
      <trkpt lat="50.17752" lon="4.69528">
        <ele>219.4</ele>
        <time>2025-04-05T09:11:01Z</time>
      </trkpt>
      <trkpt lat="50.17748" lon="4.69529">
        <ele>219.4</ele>
        <time>2025-04-05T09:11:02Z</time>
      </trkpt>
      <trkpt lat="50.17742" lon="4.6953">
        <ele>219.4</ele>
        <time>2025-04-05T09:11:03Z</time>
      </trkpt>
      <trkpt lat="50.17738" lon="4.6953">
        <ele>219.4</ele>
        <time>2025-04-05T09:11:04Z</time>
      </trkpt>
      <trkpt lat="50.17733" lon="4.69531">
        <ele>219.4</ele>
        <time>2025-04-05T09:11:05Z</time>
      </trkpt>
      <trkpt lat="50.17728" lon="4.69531">
        <ele>219.4</ele>
        <time>2025-04-05T09:11:06Z</time>
      </trkpt>
      <trkpt lat="50.17723" lon="4.69532">
        <ele>219.4</ele>
        <time>2025-04-05T09:11:07Z</time>
      </trkpt>
      <trkpt lat="50.17719" lon="4.69534">
        <ele>219.4</ele>
        <time>2025-04-05T09:11:08Z</time>
      </trkpt>
      <trkpt lat="50.17713" lon="4.69535">
        <ele>219.2</ele>
        <time>2025-04-05T09:11:09Z</time>
      </trkpt>
      <trkpt lat="50.17708" lon="4.69536">
        <ele>219.4</ele>
        <time>2025-04-05T09:11:10Z</time>
      </trkpt>
      <trkpt lat="50.17703" lon="4.69538">
        <ele>219.4</ele>
        <time>2025-04-05T09:11:11Z</time>
      </trkpt>
      <trkpt lat="50.17698" lon="4.69539">
        <ele>219.4</ele>
        <time>2025-04-05T09:11:12Z</time>
      </trkpt>
      <trkpt lat="50.17694" lon="4.6954">
        <ele>219.4</ele>
        <time>2025-04-05T09:11:13Z</time>
      </trkpt>
      <trkpt lat="50.17689" lon="4.69541">
        <ele>219.6</ele>
        <time>2025-04-05T09:11:14Z</time>
      </trkpt>
      <trkpt lat="50.17684" lon="4.69542">
        <ele>219.6</ele>
        <time>2025-04-05T09:11:15Z</time>
      </trkpt>
      <trkpt lat="50.1768" lon="4.69543">
        <ele>219.6</ele>
        <time>2025-04-05T09:11:16Z</time>
      </trkpt>
      <trkpt lat="50.17675" lon="4.69545">
        <ele>219.8</ele>
        <time>2025-04-05T09:11:17Z</time>
      </trkpt>
      <trkpt lat="50.1767" lon="4.69547">
        <ele>219.8</ele>
        <time>2025-04-05T09:11:18Z</time>
      </trkpt>
      <trkpt lat="50.17665" lon="4.69548">
        <ele>220</ele>
        <time>2025-04-05T09:11:19Z</time>
      </trkpt>
      <trkpt lat="50.17661" lon="4.69549">
        <ele>220</ele>
        <time>2025-04-05T09:11:20Z</time>
      </trkpt>
      <trkpt lat="50.17656" lon="4.6955">
        <ele>220</ele>
        <time>2025-04-05T09:11:21Z</time>
      </trkpt>
      <trkpt lat="50.17652" lon="4.69551">
        <ele>220.2</ele>
        <time>2025-04-05T09:11:22Z</time>
      </trkpt>
      <trkpt lat="50.17647" lon="4.69553">
        <ele>220.2</ele>
        <time>2025-04-05T09:11:23Z</time>
      </trkpt>
      <trkpt lat="50.17642" lon="4.69555">
        <ele>220.2</ele>
        <time>2025-04-05T09:11:24Z</time>
      </trkpt>
      <trkpt lat="50.17637" lon="4.69556">
        <ele>220.4</ele>
        <time>2025-04-05T09:11:25Z</time>
      </trkpt>
      <trkpt lat="50.17633" lon="4.69557">
        <ele>220.4</ele>
        <time>2025-04-05T09:11:26Z</time>
      </trkpt>
      <trkpt lat="50.17628" lon="4.69559">
        <ele>220.6</ele>
        <time>2025-04-05T09:11:27Z</time>
      </trkpt>
      <trkpt lat="50.17623" lon="4.6956">
        <ele>220.6</ele>
        <time>2025-04-05T09:11:28Z</time>
      </trkpt>
      <trkpt lat="50.17617" lon="4.69562">
        <ele>220.6</ele>
        <time>2025-04-05T09:11:29Z</time>
      </trkpt>
      <trkpt lat="50.17613" lon="4.69563">
        <ele>220.8</ele>
        <time>2025-04-05T09:11:30Z</time>
      </trkpt>
      <trkpt lat="50.17608" lon="4.69564">
        <ele>220.8</ele>
        <time>2025-04-05T09:11:31Z</time>
      </trkpt>
      <trkpt lat="50.17603" lon="4.69565">
        <ele>221</ele>
        <time>2025-04-05T09:11:32Z</time>
      </trkpt>
      <trkpt lat="50.17597" lon="4.69566">
        <ele>221</ele>
        <time>2025-04-05T09:11:33Z</time>
      </trkpt>
      <trkpt lat="50.17592" lon="4.69567">
        <ele>221</ele>
        <time>2025-04-05T09:11:34Z</time>
      </trkpt>
      <trkpt lat="50.17586" lon="4.69568">
        <ele>221.2</ele>
        <time>2025-04-05T09:11:35Z</time>
      </trkpt>
      <trkpt lat="50.17581" lon="4.6957">
        <ele>221.2</ele>
        <time>2025-04-05T09:11:36Z</time>
      </trkpt>
      <trkpt lat="50.17576" lon="4.69571">
        <ele>221.2</ele>
        <time>2025-04-05T09:11:37Z</time>
      </trkpt>
      <trkpt lat="50.17571" lon="4.69573">
        <ele>221.4</ele>
        <time>2025-04-05T09:11:38Z</time>
      </trkpt>
      <trkpt lat="50.17567" lon="4.69574">
        <ele>221.4</ele>
        <time>2025-04-05T09:11:39Z</time>
      </trkpt>
      <trkpt lat="50.17563" lon="4.69575">
        <ele>221.6</ele>
        <time>2025-04-05T09:11:40Z</time>
      </trkpt>
      <trkpt lat="50.17558" lon="4.69576">
        <ele>221.6</ele>
        <time>2025-04-05T09:11:41Z</time>
      </trkpt>
      <trkpt lat="50.17553" lon="4.69578">
        <ele>221.6</ele>
        <time>2025-04-05T09:11:42Z</time>
      </trkpt>
      <trkpt lat="50.17548" lon="4.69579">
        <ele>221.8</ele>
        <time>2025-04-05T09:11:43Z</time>
      </trkpt>
      <trkpt lat="50.17543" lon="4.6958">
        <ele>221.8</ele>
        <time>2025-04-05T09:11:44Z</time>
      </trkpt>
      <trkpt lat="50.17537" lon="4.69581">
        <ele>221.8</ele>
        <time>2025-04-05T09:11:45Z</time>
      </trkpt>
      <trkpt lat="50.17533" lon="4.69582">
        <ele>221.8</ele>
        <time>2025-04-05T09:11:46Z</time>
      </trkpt>
      <trkpt lat="50.17529" lon="4.69583">
        <ele>221.8</ele>
        <time>2025-04-05T09:11:47Z</time>
      </trkpt>
      <trkpt lat="50.17525" lon="4.69585">
        <ele>221.8</ele>
        <time>2025-04-05T09:11:48Z</time>
      </trkpt>
      <trkpt lat="50.1752" lon="4.69586">
        <ele>221.8</ele>
        <time>2025-04-05T09:11:49Z</time>
      </trkpt>
      <trkpt lat="50.17515" lon="4.69587">
        <ele>221.8</ele>
        <time>2025-04-05T09:11:50Z</time>
      </trkpt>
      <trkpt lat="50.1751" lon="4.69589">
        <ele>221.8</ele>
        <time>2025-04-05T09:11:51Z</time>
      </trkpt>
      <trkpt lat="50.17505" lon="4.69591">
        <ele>221.8</ele>
        <time>2025-04-05T09:11:52Z</time>
      </trkpt>
      <trkpt lat="50.175" lon="4.69592">
        <ele>221.6</ele>
        <time>2025-04-05T09:11:53Z</time>
      </trkpt>
      <trkpt lat="50.17494" lon="4.69594">
        <ele>221.6</ele>
        <time>2025-04-05T09:11:54Z</time>
      </trkpt>
      <trkpt lat="50.17489" lon="4.69596">
        <ele>221.4</ele>
        <time>2025-04-05T09:11:55Z</time>
      </trkpt>
      <trkpt lat="50.17485" lon="4.69599">
        <ele>221.4</ele>
        <time>2025-04-05T09:11:56Z</time>
      </trkpt>
      <trkpt lat="50.1748" lon="4.69601">
        <ele>221.2</ele>
        <time>2025-04-05T09:11:57Z</time>
      </trkpt>
      <trkpt lat="50.17474" lon="4.69604">
        <ele>221</ele>
        <time>2025-04-05T09:11:58Z</time>
      </trkpt>
      <trkpt lat="50.17469" lon="4.69607">
        <ele>221</ele>
        <time>2025-04-05T09:11:59Z</time>
      </trkpt>
      <trkpt lat="50.17464" lon="4.69609">
        <ele>220.8</ele>
        <time>2025-04-05T09:12:00Z</time>
      </trkpt>
      <trkpt lat="50.17458" lon="4.69613">
        <ele>220.6</ele>
        <time>2025-04-05T09:12:01Z</time>
      </trkpt>
      <trkpt lat="50.17452" lon="4.69616">
        <ele>220.4</ele>
        <time>2025-04-05T09:12:02Z</time>
      </trkpt>
      <trkpt lat="50.17447" lon="4.69619">
        <ele>220.2</ele>
        <time>2025-04-05T09:12:03Z</time>
      </trkpt>
      <trkpt lat="50.17442" lon="4.69622">
        <ele>220</ele>
        <time>2025-04-05T09:12:04Z</time>
      </trkpt>
      <trkpt lat="50.17435" lon="4.69626">
        <ele>220</ele>
        <time>2025-04-05T09:12:05Z</time>
      </trkpt>
      <trkpt lat="50.17429" lon="4.6963">
        <ele>219.6</ele>
        <time>2025-04-05T09:12:06Z</time>
      </trkpt>
      <trkpt lat="50.17424" lon="4.69633">
        <ele>219.4</ele>
        <time>2025-04-05T09:12:07Z</time>
      </trkpt>
      <trkpt lat="50.17418" lon="4.69637">
        <ele>219.2</ele>
        <time>2025-04-05T09:12:08Z</time>
      </trkpt>
      <trkpt lat="50.17413" lon="4.6964">
        <ele>219</ele>
        <time>2025-04-05T09:12:09Z</time>
      </trkpt>
      <trkpt lat="50.17407" lon="4.69643">
        <ele>218.8</ele>
        <time>2025-04-05T09:12:10Z</time>
      </trkpt>
      <trkpt lat="50.17401" lon="4.69647">
        <ele>218.6</ele>
        <time>2025-04-05T09:12:11Z</time>
      </trkpt>
      <trkpt lat="50.17395" lon="4.69651">
        <ele>218.4</ele>
        <time>2025-04-05T09:12:12Z</time>
      </trkpt>
      <trkpt lat="50.17387" lon="4.69655">
        <ele>218.2</ele>
        <time>2025-04-05T09:12:13Z</time>
      </trkpt>
      <trkpt lat="50.17381" lon="4.69658">
        <ele>218</ele>
        <time>2025-04-05T09:12:14Z</time>
      </trkpt>
      <trkpt lat="50.17374" lon="4.69663">
        <ele>217.6</ele>
        <time>2025-04-05T09:12:15Z</time>
      </trkpt>
      <trkpt lat="50.17367" lon="4.69668">
        <ele>217.2</ele>
        <time>2025-04-05T09:12:16Z</time>
      </trkpt>
      <trkpt lat="50.17361" lon="4.69672">
        <ele>216.8</ele>
        <time>2025-04-05T09:12:17Z</time>
      </trkpt>
      <trkpt lat="50.17354" lon="4.69679">
        <ele>216.6</ele>
        <time>2025-04-05T09:12:18Z</time>
      </trkpt>
      <trkpt lat="50.17347" lon="4.69684">
        <ele>216.2</ele>
        <time>2025-04-05T09:12:19Z</time>
      </trkpt>
      <trkpt lat="50.17341" lon="4.69689">
        <ele>215.8</ele>
        <time>2025-04-05T09:12:20Z</time>
      </trkpt>
      <trkpt lat="50.17334" lon="4.69695">
        <ele>215.6</ele>
        <time>2025-04-05T09:12:21Z</time>
      </trkpt>
      <trkpt lat="50.17328" lon="4.697">
        <ele>215.4</ele>
        <time>2025-04-05T09:12:22Z</time>
      </trkpt>
      <trkpt lat="50.17322" lon="4.69706">
        <ele>215.2</ele>
        <time>2025-04-05T09:12:23Z</time>
      </trkpt>
      <trkpt lat="50.17316" lon="4.69711">
        <ele>215</ele>
        <time>2025-04-05T09:12:24Z</time>
      </trkpt>
      <trkpt lat="50.1731" lon="4.69716">
        <ele>214.8</ele>
        <time>2025-04-05T09:12:25Z</time>
      </trkpt>
      <trkpt lat="50.17304" lon="4.69722">
        <ele>214.6</ele>
        <time>2025-04-05T09:12:26Z</time>
      </trkpt>
      <trkpt lat="50.17299" lon="4.69728">
        <ele>214.4</ele>
        <time>2025-04-05T09:12:27Z</time>
      </trkpt>
      <trkpt lat="50.17294" lon="4.69735">
        <ele>214.4</ele>
        <time>2025-04-05T09:12:28Z</time>
      </trkpt>
      <trkpt lat="50.17289" lon="4.69742">
        <ele>214.2</ele>
        <time>2025-04-05T09:12:29Z</time>
      </trkpt>
      <trkpt lat="50.17286" lon="4.6975">
        <ele>214</ele>
        <time>2025-04-05T09:12:30Z</time>
      </trkpt>
      <trkpt lat="50.17282" lon="4.69758">
        <ele>213.8</ele>
        <time>2025-04-05T09:12:31Z</time>
      </trkpt>
      <trkpt lat="50.17278" lon="4.69766">
        <ele>213.6</ele>
        <time>2025-04-05T09:12:32Z</time>
      </trkpt>
      <trkpt lat="50.17275" lon="4.69773">
        <ele>213.2</ele>
        <time>2025-04-05T09:12:33Z</time>
      </trkpt>
      <trkpt lat="50.17271" lon="4.69782">
        <ele>212.8</ele>
        <time>2025-04-05T09:12:34Z</time>
      </trkpt>
      <trkpt lat="50.17267" lon="4.69792">
        <ele>212.4</ele>
        <time>2025-04-05T09:12:35Z</time>
      </trkpt>
      <trkpt lat="50.17263" lon="4.698">
        <ele>212</ele>
        <time>2025-04-05T09:12:36Z</time>
      </trkpt>
      <trkpt lat="50.17259" lon="4.69809">
        <ele>211.8</ele>
        <time>2025-04-05T09:12:37Z</time>
      </trkpt>
      <trkpt lat="50.17255" lon="4.69817">
        <ele>211.4</ele>
        <time>2025-04-05T09:12:38Z</time>
      </trkpt>
      <trkpt lat="50.17252" lon="4.69826">
        <ele>211</ele>
        <time>2025-04-05T09:12:39Z</time>
      </trkpt>
      <trkpt lat="50.17249" lon="4.69835">
        <ele>210.8</ele>
        <time>2025-04-05T09:12:40Z</time>
      </trkpt>
      <trkpt lat="50.17246" lon="4.69846">
        <ele>210.4</ele>
        <time>2025-04-05T09:12:41Z</time>
      </trkpt>
      <trkpt lat="50.17244" lon="4.69855">
        <ele>210</ele>
        <time>2025-04-05T09:12:42Z</time>
      </trkpt>
      <trkpt lat="50.17242" lon="4.69867">
        <ele>209.6</ele>
        <time>2025-04-05T09:12:43Z</time>
      </trkpt>
      <trkpt lat="50.17242" lon="4.69879">
        <ele>209</ele>
        <time>2025-04-05T09:12:44Z</time>
      </trkpt>
      <trkpt lat="50.17242" lon="4.69891">
        <ele>208.6</ele>
        <time>2025-04-05T09:12:45Z</time>
      </trkpt>
      <trkpt lat="50.17242" lon="4.69904">
        <ele>208</ele>
        <time>2025-04-05T09:12:46Z</time>
      </trkpt>
      <trkpt lat="50.17242" lon="4.69917">
        <ele>207.4</ele>
        <time>2025-04-05T09:12:47Z</time>
      </trkpt>
      <trkpt lat="50.17242" lon="4.69929">
        <ele>207</ele>
        <time>2025-04-05T09:12:48Z</time>
      </trkpt>
      <trkpt lat="50.17242" lon="4.69942">
        <ele>206.6</ele>
        <time>2025-04-05T09:12:49Z</time>
      </trkpt>
      <trkpt lat="50.17243" lon="4.69955">
        <ele>206.2</ele>
        <time>2025-04-05T09:12:50Z</time>
      </trkpt>
      <trkpt lat="50.17243" lon="4.69965">
        <ele>205.6</ele>
        <time>2025-04-05T09:12:51Z</time>
      </trkpt>
      <trkpt lat="50.17243" lon="4.6998">
        <ele>205.2</ele>
        <time>2025-04-05T09:12:52Z</time>
      </trkpt>
      <trkpt lat="50.17242" lon="4.69992">
        <ele>204.8</ele>
        <time>2025-04-05T09:12:53Z</time>
      </trkpt>
      <trkpt lat="50.17242" lon="4.70003">
        <ele>204.4</ele>
        <time>2025-04-05T09:12:54Z</time>
      </trkpt>
      <trkpt lat="50.17242" lon="4.70014">
        <ele>204</ele>
        <time>2025-04-05T09:12:55Z</time>
      </trkpt>
      <trkpt lat="50.17241" lon="4.70025">
        <ele>203.8</ele>
        <time>2025-04-05T09:12:56Z</time>
      </trkpt>
      <trkpt lat="50.17241" lon="4.70034">
        <ele>203.6</ele>
        <time>2025-04-05T09:12:57Z</time>
      </trkpt>
      <trkpt lat="50.17241" lon="4.70042">
        <ele>203.4</ele>
        <time>2025-04-05T09:12:58Z</time>
      </trkpt>
      <trkpt lat="50.17241" lon="4.70051">
        <ele>203.2</ele>
        <time>2025-04-05T09:12:59Z</time>
      </trkpt>
      <trkpt lat="50.1724" lon="4.70057">
        <ele>203.2</ele>
        <time>2025-04-05T09:13:00Z</time>
      </trkpt>
      <trkpt lat="50.1724" lon="4.70063">
        <ele>203</ele>
        <time>2025-04-05T09:13:01Z</time>
      </trkpt>
      <trkpt lat="50.17239" lon="4.7007">
        <ele>202.8</ele>
        <time>2025-04-05T09:13:02Z</time>
      </trkpt>
      <trkpt lat="50.17239" lon="4.70076">
        <ele>202.6</ele>
        <time>2025-04-05T09:13:03Z</time>
      </trkpt>
      <trkpt lat="50.17239" lon="4.70083">
        <ele>202.6</ele>
        <time>2025-04-05T09:13:04Z</time>
      </trkpt>
      <trkpt lat="50.17238" lon="4.7009">
        <ele>202.4</ele>
        <time>2025-04-05T09:13:05Z</time>
      </trkpt>
      <trkpt lat="50.17238" lon="4.70097">
        <ele>202.2</ele>
        <time>2025-04-05T09:13:06Z</time>
      </trkpt>
      <trkpt lat="50.17236" lon="4.70104">
        <ele>202</ele>
        <time>2025-04-05T09:13:07Z</time>
      </trkpt>
      <trkpt lat="50.17235" lon="4.70112">
        <ele>201.6</ele>
        <time>2025-04-05T09:13:08Z</time>
      </trkpt>
      <trkpt lat="50.17234" lon="4.70118">
        <ele>201.4</ele>
        <time>2025-04-05T09:13:09Z</time>
      </trkpt>
      <trkpt lat="50.17232" lon="4.70127">
        <ele>201</ele>
        <time>2025-04-05T09:13:10Z</time>
      </trkpt>
      <trkpt lat="50.1723" lon="4.70136">
        <ele>200.8</ele>
        <time>2025-04-05T09:13:11Z</time>
      </trkpt>
      <trkpt lat="50.17229" lon="4.70145">
        <ele>200.4</ele>
        <time>2025-04-05T09:13:12Z</time>
      </trkpt>
      <trkpt lat="50.17228" lon="4.70155">
        <ele>199.8</ele>
        <time>2025-04-05T09:13:13Z</time>
      </trkpt>
      <trkpt lat="50.17227" lon="4.70165">
        <ele>199.2</ele>
        <time>2025-04-05T09:13:14Z</time>
      </trkpt>
      <trkpt lat="50.17225" lon="4.70174">
        <ele>198.4</ele>
        <time>2025-04-05T09:13:15Z</time>
      </trkpt>
      <trkpt lat="50.17222" lon="4.70184">
        <ele>197.8</ele>
        <time>2025-04-05T09:13:16Z</time>
      </trkpt>
      <trkpt lat="50.1722" lon="4.70193">
        <ele>196.8</ele>
        <time>2025-04-05T09:13:17Z</time>
      </trkpt>
      <trkpt lat="50.17216" lon="4.70206">
        <ele>195.8</ele>
        <time>2025-04-05T09:13:18Z</time>
      </trkpt>
      <trkpt lat="50.17214" lon="4.70217">
        <ele>195</ele>
        <time>2025-04-05T09:13:19Z</time>
      </trkpt>
      <trkpt lat="50.17212" lon="4.70229">
        <ele>194.4</ele>
        <time>2025-04-05T09:13:20Z</time>
      </trkpt>
      <trkpt lat="50.17212" lon="4.7024">
        <ele>194</ele>
        <time>2025-04-05T09:13:21Z</time>
      </trkpt>
      <trkpt lat="50.17213" lon="4.70251">
        <ele>193.4</ele>
        <time>2025-04-05T09:13:22Z</time>
      </trkpt>
      <trkpt lat="50.17214" lon="4.70262">
        <ele>193</ele>
        <time>2025-04-05T09:13:23Z</time>
      </trkpt>
      <trkpt lat="50.17215" lon="4.70272">
        <ele>192.4</ele>
        <time>2025-04-05T09:13:24Z</time>
      </trkpt>
      <trkpt lat="50.17218" lon="4.70282">
        <ele>191.8</ele>
        <time>2025-04-05T09:13:25Z</time>
      </trkpt>
      <trkpt lat="50.1722" lon="4.70291">
        <ele>191.4</ele>
        <time>2025-04-05T09:13:26Z</time>
      </trkpt>
      <trkpt lat="50.17222" lon="4.70302">
        <ele>191.2</ele>
        <time>2025-04-05T09:13:27Z</time>
      </trkpt>
      <trkpt lat="50.17225" lon="4.70313">
        <ele>190.8</ele>
        <time>2025-04-05T09:13:28Z</time>
      </trkpt>
      <trkpt lat="50.17228" lon="4.70324">
        <ele>190.4</ele>
        <time>2025-04-05T09:13:29Z</time>
      </trkpt>
      <trkpt lat="50.1723" lon="4.70335">
        <ele>190.2</ele>
        <time>2025-04-05T09:13:30Z</time>
      </trkpt>
      <trkpt lat="50.17233" lon="4.70347">
        <ele>189.8</ele>
        <time>2025-04-05T09:13:31Z</time>
      </trkpt>
      <trkpt lat="50.17236" lon="4.70359">
        <ele>189.4</ele>
        <time>2025-04-05T09:13:32Z</time>
      </trkpt>
      <trkpt lat="50.17238" lon="4.7037">
        <ele>189</ele>
        <time>2025-04-05T09:13:33Z</time>
      </trkpt>
      <trkpt lat="50.1724" lon="4.70381">
        <ele>188.6</ele>
        <time>2025-04-05T09:13:34Z</time>
      </trkpt>
      <trkpt lat="50.17242" lon="4.70394">
        <ele>188.2</ele>
        <time>2025-04-05T09:13:35Z</time>
      </trkpt>
      <trkpt lat="50.17243" lon="4.70405">
        <ele>188</ele>
        <time>2025-04-05T09:13:36Z</time>
      </trkpt>
      <trkpt lat="50.17245" lon="4.70417">
        <ele>187.6</ele>
        <time>2025-04-05T09:13:37Z</time>
      </trkpt>
      <trkpt lat="50.17246" lon="4.70426">
        <ele>187.2</ele>
        <time>2025-04-05T09:13:38Z</time>
      </trkpt>
      <trkpt lat="50.17247" lon="4.7044">
        <ele>187</ele>
        <time>2025-04-05T09:13:39Z</time>
      </trkpt>
      <trkpt lat="50.17248" lon="4.70452">
        <ele>186.6</ele>
        <time>2025-04-05T09:13:40Z</time>
      </trkpt>
      <trkpt lat="50.17249" lon="4.70464">
        <ele>186.2</ele>
        <time>2025-04-05T09:13:41Z</time>
      </trkpt>
      <trkpt lat="50.1725" lon="4.70476">
        <ele>186</ele>
        <time>2025-04-05T09:13:42Z</time>
      </trkpt>
      <trkpt lat="50.1725" lon="4.70488">
        <ele>185.4</ele>
        <time>2025-04-05T09:13:43Z</time>
      </trkpt>
      <trkpt lat="50.17249" lon="4.705">
        <ele>185.2</ele>
        <time>2025-04-05T09:13:44Z</time>
      </trkpt>
      <trkpt lat="50.17247" lon="4.7051">
        <ele>185</ele>
        <time>2025-04-05T09:13:45Z</time>
      </trkpt>
      <trkpt lat="50.17244" lon="4.70523">
        <ele>184.6</ele>
        <time>2025-04-05T09:13:46Z</time>
      </trkpt>
      <trkpt lat="50.17241" lon="4.70534">
        <ele>184.6</ele>
        <time>2025-04-05T09:13:47Z</time>
      </trkpt>
      <trkpt lat="50.17238" lon="4.70546">
        <ele>184.4</ele>
        <time>2025-04-05T09:13:48Z</time>
      </trkpt>
      <trkpt lat="50.17234" lon="4.70556">
        <ele>184.2</ele>
        <time>2025-04-05T09:13:49Z</time>
      </trkpt>
      <trkpt lat="50.17231" lon="4.70568">
        <ele>184</ele>
        <time>2025-04-05T09:13:50Z</time>
      </trkpt>
      <trkpt lat="50.17228" lon="4.70578">
        <ele>184</ele>
        <time>2025-04-05T09:13:51Z</time>
      </trkpt>
      <trkpt lat="50.17226" lon="4.70589">
        <ele>183.8</ele>
        <time>2025-04-05T09:13:52Z</time>
      </trkpt>
      <trkpt lat="50.17223" lon="4.706">
        <ele>183.6</ele>
        <time>2025-04-05T09:13:53Z</time>
      </trkpt>
      <trkpt lat="50.17221" lon="4.70611">
        <ele>183.4</ele>
        <time>2025-04-05T09:13:54Z</time>
      </trkpt>
      <trkpt lat="50.17218" lon="4.70622">
        <ele>183.2</ele>
        <time>2025-04-05T09:13:55Z</time>
      </trkpt>
      <trkpt lat="50.17216" lon="4.70632">
        <ele>183.2</ele>
        <time>2025-04-05T09:13:56Z</time>
      </trkpt>
      <trkpt lat="50.17214" lon="4.70643">
        <ele>183.2</ele>
        <time>2025-04-05T09:13:57Z</time>
      </trkpt>
      <trkpt lat="50.17213" lon="4.70653">
        <ele>183.2</ele>
        <time>2025-04-05T09:13:58Z</time>
      </trkpt>
      <trkpt lat="50.17212" lon="4.70663">
        <ele>183.2</ele>
        <time>2025-04-05T09:13:59Z</time>
      </trkpt>
      <trkpt lat="50.1721" lon="4.70672">
        <ele>183.2</ele>
        <time>2025-04-05T09:14:00Z</time>
      </trkpt>
      <trkpt lat="50.17209" lon="4.70684">
        <ele>183.2</ele>
        <time>2025-04-05T09:14:01Z</time>
      </trkpt>
      <trkpt lat="50.17208" lon="4.70693">
        <ele>183.2</ele>
        <time>2025-04-05T09:14:02Z</time>
      </trkpt>
      <trkpt lat="50.17206" lon="4.70703">
        <ele>183.2</ele>
        <time>2025-04-05T09:14:03Z</time>
      </trkpt>
      <trkpt lat="50.17204" lon="4.70713">
        <ele>183</ele>
        <time>2025-04-05T09:14:04Z</time>
      </trkpt>
      <trkpt lat="50.17202" lon="4.70722">
        <ele>182.8</ele>
        <time>2025-04-05T09:14:05Z</time>
      </trkpt>
      <trkpt lat="50.17201" lon="4.70732">
        <ele>182.8</ele>
        <time>2025-04-05T09:14:06Z</time>
      </trkpt>
      <trkpt lat="50.172" lon="4.70742">
        <ele>182.6</ele>
        <time>2025-04-05T09:14:07Z</time>
      </trkpt>
      <trkpt lat="50.17198" lon="4.70753">
        <ele>182.6</ele>
        <time>2025-04-05T09:14:08Z</time>
      </trkpt>
      <trkpt lat="50.17197" lon="4.70764">
        <ele>182.4</ele>
        <time>2025-04-05T09:14:09Z</time>
      </trkpt>
      <trkpt lat="50.17195" lon="4.70775">
        <ele>182.2</ele>
        <time>2025-04-05T09:14:10Z</time>
      </trkpt>
      <trkpt lat="50.17193" lon="4.70785">
        <ele>182</ele>
        <time>2025-04-05T09:14:11Z</time>
      </trkpt>
      <trkpt lat="50.17192" lon="4.70796">
        <ele>181.8</ele>
        <time>2025-04-05T09:14:12Z</time>
      </trkpt>
      <trkpt lat="50.17191" lon="4.70807">
        <ele>181.8</ele>
        <time>2025-04-05T09:14:13Z</time>
      </trkpt>
      <trkpt lat="50.17189" lon="4.70818">
        <ele>181.6</ele>
        <time>2025-04-05T09:14:14Z</time>
      </trkpt>
      <trkpt lat="50.17188" lon="4.70828">
        <ele>181.4</ele>
        <time>2025-04-05T09:14:15Z</time>
      </trkpt>
      <trkpt lat="50.17186" lon="4.7084">
        <ele>181</ele>
        <time>2025-04-05T09:14:16Z</time>
      </trkpt>
      <trkpt lat="50.17184" lon="4.7085">
        <ele>180.8</ele>
        <time>2025-04-05T09:14:17Z</time>
      </trkpt>
      <trkpt lat="50.17183" lon="4.70861">
        <ele>180.6</ele>
        <time>2025-04-05T09:14:18Z</time>
      </trkpt>
      <trkpt lat="50.17181" lon="4.7087">
        <ele>180.6</ele>
        <time>2025-04-05T09:14:19Z</time>
      </trkpt>
      <trkpt lat="50.1718" lon="4.70879">
        <ele>180.4</ele>
        <time>2025-04-05T09:14:20Z</time>
      </trkpt>
      <trkpt lat="50.17178" lon="4.7089">
        <ele>180.2</ele>
        <time>2025-04-05T09:14:21Z</time>
      </trkpt>
      <trkpt lat="50.17177" lon="4.709">
        <ele>180</ele>
        <time>2025-04-05T09:14:22Z</time>
      </trkpt>
      <trkpt lat="50.17175" lon="4.70912">
        <ele>179.8</ele>
        <time>2025-04-05T09:14:23Z</time>
      </trkpt>
      <trkpt lat="50.17174" lon="4.70923">
        <ele>179.6</ele>
        <time>2025-04-05T09:14:24Z</time>
      </trkpt>
      <trkpt lat="50.17172" lon="4.70933">
        <ele>179.4</ele>
        <time>2025-04-05T09:14:25Z</time>
      </trkpt>
      <trkpt lat="50.1717" lon="4.70943">
        <ele>179.4</ele>
        <time>2025-04-05T09:14:26Z</time>
      </trkpt>
      <trkpt lat="50.17169" lon="4.70954">
        <ele>179.2</ele>
        <time>2025-04-05T09:14:27Z</time>
      </trkpt>
      <trkpt lat="50.17167" lon="4.70964">
        <ele>179</ele>
        <time>2025-04-05T09:14:28Z</time>
      </trkpt>
      <trkpt lat="50.17166" lon="4.70975">
        <ele>178.8</ele>
        <time>2025-04-05T09:14:29Z</time>
      </trkpt>
      <trkpt lat="50.17165" lon="4.70985">
        <ele>178.8</ele>
        <time>2025-04-05T09:14:30Z</time>
      </trkpt>
      <trkpt lat="50.17164" lon="4.70995">
        <ele>178.4</ele>
        <time>2025-04-05T09:14:31Z</time>
      </trkpt>
      <trkpt lat="50.17162" lon="4.71006">
        <ele>178.2</ele>
        <time>2025-04-05T09:14:32Z</time>
      </trkpt>
      <trkpt lat="50.1716" lon="4.71016">
        <ele>178</ele>
        <time>2025-04-05T09:14:33Z</time>
      </trkpt>
      <trkpt lat="50.1716" lon="4.71024">
        <ele>178</ele>
        <time>2025-04-05T09:14:34Z</time>
      </trkpt>
      <trkpt lat="50.17158" lon="4.71037">
        <ele>177.6</ele>
        <time>2025-04-05T09:14:35Z</time>
      </trkpt>
      <trkpt lat="50.17156" lon="4.71048">
        <ele>177.4</ele>
        <time>2025-04-05T09:14:36Z</time>
      </trkpt>
      <trkpt lat="50.17154" lon="4.71059">
        <ele>177.2</ele>
        <time>2025-04-05T09:14:37Z</time>
      </trkpt>
      <trkpt lat="50.17152" lon="4.71071">
        <ele>176.8</ele>
        <time>2025-04-05T09:14:38Z</time>
      </trkpt>
      <trkpt lat="50.17151" lon="4.7108">
        <ele>176.4</ele>
        <time>2025-04-05T09:14:39Z</time>
      </trkpt>
      <trkpt lat="50.17149" lon="4.71091">
        <ele>176.2</ele>
        <time>2025-04-05T09:14:40Z</time>
      </trkpt>
      <trkpt lat="50.17147" lon="4.71104">
        <ele>175.8</ele>
        <time>2025-04-05T09:14:41Z</time>
      </trkpt>
      <trkpt lat="50.17145" lon="4.71114">
        <ele>175.4</ele>
        <time>2025-04-05T09:14:42Z</time>
      </trkpt>
      <trkpt lat="50.17144" lon="4.71125">
        <ele>175.2</ele>
        <time>2025-04-05T09:14:43Z</time>
      </trkpt>
      <trkpt lat="50.17143" lon="4.71137">
        <ele>174.8</ele>
        <time>2025-04-05T09:14:44Z</time>
      </trkpt>
      <trkpt lat="50.1714" lon="4.71151">
        <ele>174.4</ele>
        <time>2025-04-05T09:14:45Z</time>
      </trkpt>
      <trkpt lat="50.17138" lon="4.71164">
        <ele>174</ele>
        <time>2025-04-05T09:14:46Z</time>
      </trkpt>
      <trkpt lat="50.17136" lon="4.71174">
        <ele>173.6</ele>
        <time>2025-04-05T09:14:47Z</time>
      </trkpt>
      <trkpt lat="50.17135" lon="4.71188">
        <ele>173.2</ele>
        <time>2025-04-05T09:14:48Z</time>
      </trkpt>
      <trkpt lat="50.17133" lon="4.71201">
        <ele>172.8</ele>
        <time>2025-04-05T09:14:49Z</time>
      </trkpt>
      <trkpt lat="50.17131" lon="4.71212">
        <ele>172.2</ele>
        <time>2025-04-05T09:14:50Z</time>
      </trkpt>
      <trkpt lat="50.17129" lon="4.71225">
        <ele>171.6</ele>
        <time>2025-04-05T09:14:51Z</time>
      </trkpt>
      <trkpt lat="50.17128" lon="4.71237">
        <ele>171.2</ele>
        <time>2025-04-05T09:14:52Z</time>
      </trkpt>
      <trkpt lat="50.17126" lon="4.71249">
        <ele>170.8</ele>
        <time>2025-04-05T09:14:53Z</time>
      </trkpt>
      <trkpt lat="50.17124" lon="4.71262">
        <ele>170.4</ele>
        <time>2025-04-05T09:14:54Z</time>
      </trkpt>
      <trkpt lat="50.17122" lon="4.71273">
        <ele>169.8</ele>
        <time>2025-04-05T09:14:55Z</time>
      </trkpt>
      <trkpt lat="50.1712" lon="4.71288">
        <ele>169.2</ele>
        <time>2025-04-05T09:14:56Z</time>
      </trkpt>
      <trkpt lat="50.17118" lon="4.71302">
        <ele>168.6</ele>
        <time>2025-04-05T09:14:57Z</time>
      </trkpt>
      <trkpt lat="50.17116" lon="4.71315">
        <ele>168.2</ele>
        <time>2025-04-05T09:14:58Z</time>
      </trkpt>
      <trkpt lat="50.17114" lon="4.71327">
        <ele>167.6</ele>
        <time>2025-04-05T09:14:59Z</time>
      </trkpt>
      <trkpt lat="50.17113" lon="4.7134">
        <ele>167</ele>
        <time>2025-04-05T09:15:00Z</time>
      </trkpt>
      <trkpt lat="50.17111" lon="4.71353">
        <ele>166.4</ele>
        <time>2025-04-05T09:15:01Z</time>
      </trkpt>
      <trkpt lat="50.1711" lon="4.71367">
        <ele>165.8</ele>
        <time>2025-04-05T09:15:02Z</time>
      </trkpt>
      <trkpt lat="50.17108" lon="4.71379">
        <ele>165.2</ele>
        <time>2025-04-05T09:15:03Z</time>
      </trkpt>
      <trkpt lat="50.17107" lon="4.71393">
        <ele>164.6</ele>
        <time>2025-04-05T09:15:04Z</time>
      </trkpt>
      <trkpt lat="50.17105" lon="4.71407">
        <ele>163.8</ele>
        <time>2025-04-05T09:15:05Z</time>
      </trkpt>
      <trkpt lat="50.17104" lon="4.71424">
        <ele>163</ele>
        <time>2025-04-05T09:15:06Z</time>
      </trkpt>
      <trkpt lat="50.17103" lon="4.71439">
        <ele>162.4</ele>
        <time>2025-04-05T09:15:07Z</time>
      </trkpt>
      <trkpt lat="50.17102" lon="4.71451">
        <ele>161.8</ele>
        <time>2025-04-05T09:15:08Z</time>
      </trkpt>
      <trkpt lat="50.17102" lon="4.71467">
        <ele>161.4</ele>
        <time>2025-04-05T09:15:09Z</time>
      </trkpt>
      <trkpt lat="50.17102" lon="4.71482">
        <ele>160.8</ele>
        <time>2025-04-05T09:15:10Z</time>
      </trkpt>
      <trkpt lat="50.17101" lon="4.71497">
        <ele>160.4</ele>
        <time>2025-04-05T09:15:11Z</time>
      </trkpt>
      <trkpt lat="50.17101" lon="4.71511">
        <ele>160</ele>
        <time>2025-04-05T09:15:12Z</time>
      </trkpt>
      <trkpt lat="50.17101" lon="4.71526">
        <ele>159.4</ele>
        <time>2025-04-05T09:15:13Z</time>
      </trkpt>
      <trkpt lat="50.17102" lon="4.71541">
        <ele>158.8</ele>
        <time>2025-04-05T09:15:14Z</time>
      </trkpt>
      <trkpt lat="50.17102" lon="4.71556">
        <ele>158.2</ele>
        <time>2025-04-05T09:15:15Z</time>
      </trkpt>
      <trkpt lat="50.17103" lon="4.71568">
        <ele>157.6</ele>
        <time>2025-04-05T09:15:16Z</time>
      </trkpt>
      <trkpt lat="50.17104" lon="4.71582">
        <ele>157.2</ele>
        <time>2025-04-05T09:15:17Z</time>
      </trkpt>
      <trkpt lat="50.17106" lon="4.71599">
        <ele>156.6</ele>
        <time>2025-04-05T09:15:18Z</time>
      </trkpt>
      <trkpt lat="50.17107" lon="4.71614">
        <ele>155.8</ele>
        <time>2025-04-05T09:15:19Z</time>
      </trkpt>
      <trkpt lat="50.17109" lon="4.71629">
        <ele>155.2</ele>
        <time>2025-04-05T09:15:20Z</time>
      </trkpt>
      <trkpt lat="50.1711" lon="4.71641">
        <ele>154.6</ele>
        <time>2025-04-05T09:15:21Z</time>
      </trkpt>
      <trkpt lat="50.17111" lon="4.71654">
        <ele>154</ele>
        <time>2025-04-05T09:15:22Z</time>
      </trkpt>
      <trkpt lat="50.17113" lon="4.7167">
        <ele>153.4</ele>
        <time>2025-04-05T09:15:23Z</time>
      </trkpt>
      <trkpt lat="50.17115" lon="4.71681">
        <ele>152.8</ele>
        <time>2025-04-05T09:15:24Z</time>
      </trkpt>
      <trkpt lat="50.17116" lon="4.71694">
        <ele>152.2</ele>
        <time>2025-04-05T09:15:25Z</time>
      </trkpt>
      <trkpt lat="50.17118" lon="4.71709">
        <ele>151.4</ele>
        <time>2025-04-05T09:15:26Z</time>
      </trkpt>
      <trkpt lat="50.17121" lon="4.71724">
        <ele>151</ele>
        <time>2025-04-05T09:15:27Z</time>
      </trkpt>
      <trkpt lat="50.17123" lon="4.71739">
        <ele>150.4</ele>
        <time>2025-04-05T09:15:28Z</time>
      </trkpt>
      <trkpt lat="50.17125" lon="4.71754">
        <ele>150</ele>
        <time>2025-04-05T09:15:29Z</time>
      </trkpt>
      <trkpt lat="50.17127" lon="4.71766">
        <ele>149.4</ele>
        <time>2025-04-05T09:15:30Z</time>
      </trkpt>
      <trkpt lat="50.1713" lon="4.71783">
        <ele>148.8</ele>
        <time>2025-04-05T09:15:31Z</time>
      </trkpt>
      <trkpt lat="50.17132" lon="4.71801">
        <ele>148</ele>
        <time>2025-04-05T09:15:32Z</time>
      </trkpt>
      <trkpt lat="50.17134" lon="4.71818">
        <ele>147.4</ele>
        <time>2025-04-05T09:15:33Z</time>
      </trkpt>
      <trkpt lat="50.17136" lon="4.71835">
        <ele>147</ele>
        <time>2025-04-05T09:15:34Z</time>
      </trkpt>
      <trkpt lat="50.17138" lon="4.71851">
        <ele>146.4</ele>
        <time>2025-04-05T09:15:35Z</time>
      </trkpt>
      <trkpt lat="50.17139" lon="4.71867">
        <ele>146</ele>
        <time>2025-04-05T09:15:36Z</time>
      </trkpt>
      <trkpt lat="50.1714" lon="4.71883">
        <ele>145.8</ele>
        <time>2025-04-05T09:15:37Z</time>
      </trkpt>
      <trkpt lat="50.17141" lon="4.71899">
        <ele>145.6</ele>
        <time>2025-04-05T09:15:38Z</time>
      </trkpt>
      <trkpt lat="50.17143" lon="4.71914">
        <ele>145.4</ele>
        <time>2025-04-05T09:15:39Z</time>
      </trkpt>
      <trkpt lat="50.17144" lon="4.7193">
        <ele>145.4</ele>
        <time>2025-04-05T09:15:40Z</time>
      </trkpt>
      <trkpt lat="50.17144" lon="4.71944">
        <ele>145.2</ele>
        <time>2025-04-05T09:15:41Z</time>
      </trkpt>
      <trkpt lat="50.17144" lon="4.71954">
        <ele>145.2</ele>
        <time>2025-04-05T09:15:42Z</time>
      </trkpt>
      <trkpt lat="50.17145" lon="4.71968">
        <ele>145.6</ele>
        <time>2025-04-05T09:15:43Z</time>
      </trkpt>
      <trkpt lat="50.17146" lon="4.71979">
        <ele>146.2</ele>
        <time>2025-04-05T09:15:44Z</time>
      </trkpt>
      <trkpt lat="50.17146" lon="4.71988">
        <ele>146.6</ele>
        <time>2025-04-05T09:15:45Z</time>
      </trkpt>
      <trkpt lat="50.17146" lon="4.71998">
        <ele>147.2</ele>
        <time>2025-04-05T09:15:46Z</time>
      </trkpt>
      <trkpt lat="50.17146" lon="4.72005">
        <ele>147.6</ele>
        <time>2025-04-05T09:15:47Z</time>
      </trkpt>
      <trkpt lat="50.17146" lon="4.72015">
        <ele>148</ele>
        <time>2025-04-05T09:15:48Z</time>
      </trkpt>
      <trkpt lat="50.17145" lon="4.72022">
        <ele>148.4</ele>
        <time>2025-04-05T09:15:49Z</time>
      </trkpt>
      <trkpt lat="50.17144" lon="4.7203">
        <ele>148.6</ele>
        <time>2025-04-05T09:15:50Z</time>
      </trkpt>
      <trkpt lat="50.17143" lon="4.72036">
        <ele>149</ele>
        <time>2025-04-05T09:15:51Z</time>
      </trkpt>
      <trkpt lat="50.17141" lon="4.72043">
        <ele>149.2</ele>
        <time>2025-04-05T09:15:52Z</time>
      </trkpt>
      <trkpt lat="50.1714" lon="4.72049">
        <ele>149.6</ele>
        <time>2025-04-05T09:15:53Z</time>
      </trkpt>
      <trkpt lat="50.17138" lon="4.72055">
        <ele>150</ele>
        <time>2025-04-05T09:15:54Z</time>
      </trkpt>
      <trkpt lat="50.17136" lon="4.72062">
        <ele>150.4</ele>
        <time>2025-04-05T09:15:55Z</time>
      </trkpt>
      <trkpt lat="50.17135" lon="4.72068">
        <ele>150.8</ele>
        <time>2025-04-05T09:15:56Z</time>
      </trkpt>
      <trkpt lat="50.17133" lon="4.72074">
        <ele>151.2</ele>
        <time>2025-04-05T09:15:57Z</time>
      </trkpt>
      <trkpt lat="50.17132" lon="4.7208">
        <ele>151.4</ele>
        <time>2025-04-05T09:15:58Z</time>
      </trkpt>
      <trkpt lat="50.17131" lon="4.72085">
        <ele>151.8</ele>
        <time>2025-04-05T09:15:59Z</time>
      </trkpt>
      <trkpt lat="50.17129" lon="4.72091">
        <ele>152</ele>
        <time>2025-04-05T09:16:00Z</time>
      </trkpt>
      <trkpt lat="50.17128" lon="4.72097">
        <ele>152.2</ele>
        <time>2025-04-05T09:16:01Z</time>
      </trkpt>
      <trkpt lat="50.17127" lon="4.72102">
        <ele>152.4</ele>
        <time>2025-04-05T09:16:02Z</time>
      </trkpt>
      <trkpt lat="50.17125" lon="4.72108">
        <ele>152.6</ele>
        <time>2025-04-05T09:16:03Z</time>
      </trkpt>
      <trkpt lat="50.17125" lon="4.72114">
        <ele>152.8</ele>
        <time>2025-04-05T09:16:04Z</time>
      </trkpt>
      <trkpt lat="50.17124" lon="4.7212">
        <ele>153</ele>
        <time>2025-04-05T09:16:05Z</time>
      </trkpt>
      <trkpt lat="50.17123" lon="4.72125">
        <ele>153.4</ele>
        <time>2025-04-05T09:16:06Z</time>
      </trkpt>
      <trkpt lat="50.17122" lon="4.72131">
        <ele>153.4</ele>
        <time>2025-04-05T09:16:07Z</time>
      </trkpt>
      <trkpt lat="50.17122" lon="4.72135">
        <ele>153.8</ele>
        <time>2025-04-05T09:16:08Z</time>
      </trkpt>
      <trkpt lat="50.17121" lon="4.72141">
        <ele>154.2</ele>
        <time>2025-04-05T09:16:09Z</time>
      </trkpt>
      <trkpt lat="50.17119" lon="4.72146">
        <ele>154.4</ele>
        <time>2025-04-05T09:16:10Z</time>
      </trkpt>
      <trkpt lat="50.17118" lon="4.72151">
        <ele>154.6</ele>
        <time>2025-04-05T09:16:11Z</time>
      </trkpt>
      <trkpt lat="50.17115" lon="4.72156">
        <ele>154.8</ele>
        <time>2025-04-05T09:16:12Z</time>
      </trkpt>
      <trkpt lat="50.17112" lon="4.72162">
        <ele>155.2</ele>
        <time>2025-04-05T09:16:13Z</time>
      </trkpt>
      <trkpt lat="50.1711" lon="4.72167">
        <ele>155.4</ele>
        <time>2025-04-05T09:16:14Z</time>
      </trkpt>
      <trkpt lat="50.17109" lon="4.72173">
        <ele>155.6</ele>
        <time>2025-04-05T09:16:15Z</time>
      </trkpt>
      <trkpt lat="50.17105" lon="4.72178">
        <ele>155.8</ele>
        <time>2025-04-05T09:16:16Z</time>
      </trkpt>
      <trkpt lat="50.17104" lon="4.72182">
        <ele>156</ele>
        <time>2025-04-05T09:16:17Z</time>
      </trkpt>
      <trkpt lat="50.17102" lon="4.72187">
        <ele>156.2</ele>
        <time>2025-04-05T09:16:18Z</time>
      </trkpt>
      <trkpt lat="50.17101" lon="4.72192">
        <ele>156.4</ele>
        <time>2025-04-05T09:16:19Z</time>
      </trkpt>
      <trkpt lat="50.17098" lon="4.72196">
        <ele>156.6</ele>
        <time>2025-04-05T09:16:20Z</time>
      </trkpt>
      <trkpt lat="50.17097" lon="4.722">
        <ele>156.8</ele>
        <time>2025-04-05T09:16:21Z</time>
      </trkpt>
      <trkpt lat="50.17095" lon="4.72204">
        <ele>157</ele>
        <time>2025-04-05T09:16:22Z</time>
      </trkpt>
      <trkpt lat="50.17091" lon="4.72209">
        <ele>157.2</ele>
        <time>2025-04-05T09:16:23Z</time>
      </trkpt>
      <trkpt lat="50.17088" lon="4.72212">
        <ele>157.4</ele>
        <time>2025-04-05T09:16:24Z</time>
      </trkpt>
      <trkpt lat="50.17083" lon="4.72217">
        <ele>157.6</ele>
        <time>2025-04-05T09:16:25Z</time>
      </trkpt>
      <trkpt lat="50.1708" lon="4.72221">
        <ele>157.8</ele>
        <time>2025-04-05T09:16:26Z</time>
      </trkpt>
      <trkpt lat="50.17077" lon="4.72225">
        <ele>158</ele>
        <time>2025-04-05T09:16:27Z</time>
      </trkpt>
      <trkpt lat="50.17075" lon="4.7223">
        <ele>158.2</ele>
        <time>2025-04-05T09:16:28Z</time>
      </trkpt>
      <trkpt lat="50.17073" lon="4.72234">
        <ele>158.4</ele>
        <time>2025-04-05T09:16:29Z</time>
      </trkpt>
      <trkpt lat="50.17071" lon="4.72239">
        <ele>158.6</ele>
        <time>2025-04-05T09:16:30Z</time>
      </trkpt>
      <trkpt lat="50.1707" lon="4.72244">
        <ele>158.8</ele>
        <time>2025-04-05T09:16:31Z</time>
      </trkpt>
      <trkpt lat="50.17068" lon="4.72249">
        <ele>159</ele>
        <time>2025-04-05T09:16:32Z</time>
      </trkpt>
      <trkpt lat="50.17066" lon="4.72255">
        <ele>159.2</ele>
        <time>2025-04-05T09:16:33Z</time>
      </trkpt>
      <trkpt lat="50.17064" lon="4.7226">
        <ele>159.4</ele>
        <time>2025-04-05T09:16:34Z</time>
      </trkpt>
      <trkpt lat="50.17062" lon="4.72264">
        <ele>159.6</ele>
        <time>2025-04-05T09:16:35Z</time>
      </trkpt>
      <trkpt lat="50.17061" lon="4.72268">
        <ele>159.8</ele>
        <time>2025-04-05T09:16:36Z</time>
      </trkpt>
      <trkpt lat="50.17059" lon="4.72271">
        <ele>160</ele>
        <time>2025-04-05T09:16:37Z</time>
      </trkpt>
      <trkpt lat="50.17057" lon="4.72275">
        <ele>160.4</ele>
        <time>2025-04-05T09:16:38Z</time>
      </trkpt>
      <trkpt lat="50.17055" lon="4.72279">
        <ele>160.6</ele>
        <time>2025-04-05T09:16:39Z</time>
      </trkpt>
      <trkpt lat="50.17053" lon="4.72283">
        <ele>160.8</ele>
        <time>2025-04-05T09:16:40Z</time>
      </trkpt>
      <trkpt lat="50.17052" lon="4.72286">
        <ele>161</ele>
        <time>2025-04-05T09:16:41Z</time>
      </trkpt>
      <trkpt lat="50.1705" lon="4.72291">
        <ele>161.2</ele>
        <time>2025-04-05T09:16:42Z</time>
      </trkpt>
      <trkpt lat="50.17049" lon="4.72294">
        <ele>161.4</ele>
        <time>2025-04-05T09:16:43Z</time>
      </trkpt>
      <trkpt lat="50.17047" lon="4.72298">
        <ele>161.6</ele>
        <time>2025-04-05T09:16:44Z</time>
      </trkpt>
      <trkpt lat="50.17045" lon="4.72302">
        <ele>161.8</ele>
        <time>2025-04-05T09:16:45Z</time>
      </trkpt>
      <trkpt lat="50.17044" lon="4.72306">
        <ele>162</ele>
        <time>2025-04-05T09:16:46Z</time>
      </trkpt>
      <trkpt lat="50.17042" lon="4.7231">
        <ele>162.2</ele>
        <time>2025-04-05T09:16:47Z</time>
      </trkpt>
      <trkpt lat="50.1704" lon="4.72314">
        <ele>162.4</ele>
        <time>2025-04-05T09:16:48Z</time>
      </trkpt>
      <trkpt lat="50.17038" lon="4.72318">
        <ele>162.6</ele>
        <time>2025-04-05T09:16:49Z</time>
      </trkpt>
      <trkpt lat="50.17036" lon="4.72322">
        <ele>162.8</ele>
        <time>2025-04-05T09:16:50Z</time>
      </trkpt>
      <trkpt lat="50.17035" lon="4.72326">
        <ele>163</ele>
        <time>2025-04-05T09:16:51Z</time>
      </trkpt>
      <trkpt lat="50.17033" lon="4.7233">
        <ele>163</ele>
        <time>2025-04-05T09:16:52Z</time>
      </trkpt>
      <trkpt lat="50.17031" lon="4.72335">
        <ele>163.2</ele>
        <time>2025-04-05T09:16:53Z</time>
      </trkpt>
      <trkpt lat="50.1703" lon="4.72339">
        <ele>163.4</ele>
        <time>2025-04-05T09:16:54Z</time>
      </trkpt>
      <trkpt lat="50.17028" lon="4.72344">
        <ele>163.6</ele>
        <time>2025-04-05T09:16:55Z</time>
      </trkpt>
      <trkpt lat="50.17027" lon="4.72348">
        <ele>163.8</ele>
        <time>2025-04-05T09:16:56Z</time>
      </trkpt>
      <trkpt lat="50.17025" lon="4.72353">
        <ele>164</ele>
        <time>2025-04-05T09:16:57Z</time>
      </trkpt>
      <trkpt lat="50.17024" lon="4.72357">
        <ele>164.2</ele>
        <time>2025-04-05T09:16:58Z</time>
      </trkpt>
      <trkpt lat="50.17024" lon="4.72362">
        <ele>164.4</ele>
        <time>2025-04-05T09:16:59Z</time>
      </trkpt>
      <trkpt lat="50.17022" lon="4.72367">
        <ele>164.6</ele>
        <time>2025-04-05T09:17:00Z</time>
      </trkpt>
      <trkpt lat="50.17022" lon="4.72372">
        <ele>164.8</ele>
        <time>2025-04-05T09:17:01Z</time>
      </trkpt>
      <trkpt lat="50.1702" lon="4.72376">
        <ele>165</ele>
        <time>2025-04-05T09:17:02Z</time>
      </trkpt>
      <trkpt lat="50.1702" lon="4.72381">
        <ele>165</ele>
        <time>2025-04-05T09:17:03Z</time>
      </trkpt>
      <trkpt lat="50.17019" lon="4.72385">
        <ele>165.2</ele>
        <time>2025-04-05T09:17:04Z</time>
      </trkpt>
      <trkpt lat="50.17018" lon="4.72389">
        <ele>165.4</ele>
        <time>2025-04-05T09:17:05Z</time>
      </trkpt>
      <trkpt lat="50.17017" lon="4.72393">
        <ele>165.6</ele>
        <time>2025-04-05T09:17:06Z</time>
      </trkpt>
      <trkpt lat="50.17016" lon="4.72397">
        <ele>165.8</ele>
        <time>2025-04-05T09:17:07Z</time>
      </trkpt>
      <trkpt lat="50.17015" lon="4.72402">
        <ele>166</ele>
        <time>2025-04-05T09:17:08Z</time>
      </trkpt>
      <trkpt lat="50.17014" lon="4.72406">
        <ele>166.2</ele>
        <time>2025-04-05T09:17:09Z</time>
      </trkpt>
      <trkpt lat="50.17013" lon="4.7241">
        <ele>166.4</ele>
        <time>2025-04-05T09:17:10Z</time>
      </trkpt>
      <trkpt lat="50.17012" lon="4.72415">
        <ele>166.6</ele>
        <time>2025-04-05T09:17:11Z</time>
      </trkpt>
      <trkpt lat="50.17011" lon="4.72421">
        <ele>166.8</ele>
        <time>2025-04-05T09:17:12Z</time>
      </trkpt>
      <trkpt lat="50.17011" lon="4.72426">
        <ele>167</ele>
        <time>2025-04-05T09:17:13Z</time>
      </trkpt>
      <trkpt lat="50.1701" lon="4.72431">
        <ele>167.2</ele>
        <time>2025-04-05T09:17:14Z</time>
      </trkpt>
      <trkpt lat="50.1701" lon="4.72436">
        <ele>167.4</ele>
        <time>2025-04-05T09:17:15Z</time>
      </trkpt>
      <trkpt lat="50.1701" lon="4.7244">
        <ele>167.4</ele>
        <time>2025-04-05T09:17:16Z</time>
      </trkpt>
      <trkpt lat="50.1701" lon="4.72446">
        <ele>167.6</ele>
        <time>2025-04-05T09:17:17Z</time>
      </trkpt>
      <trkpt lat="50.17009" lon="4.72453">
        <ele>167.8</ele>
        <time>2025-04-05T09:17:18Z</time>
      </trkpt>
      <trkpt lat="50.1701" lon="4.72458">
        <ele>167.8</ele>
        <time>2025-04-05T09:17:19Z</time>
      </trkpt>
      <trkpt lat="50.1701" lon="4.72464">
        <ele>168</ele>
        <time>2025-04-05T09:17:20Z</time>
      </trkpt>
      <trkpt lat="50.1701" lon="4.7247">
        <ele>168</ele>
        <time>2025-04-05T09:17:21Z</time>
      </trkpt>
      <trkpt lat="50.17009" lon="4.72476">
        <ele>168.2</ele>
        <time>2025-04-05T09:17:22Z</time>
      </trkpt>
      <trkpt lat="50.17009" lon="4.72481">
        <ele>168.2</ele>
        <time>2025-04-05T09:17:23Z</time>
      </trkpt>
      <trkpt lat="50.17007" lon="4.72486">
        <ele>168.4</ele>
        <time>2025-04-05T09:17:24Z</time>
      </trkpt>
      <trkpt lat="50.17007" lon="4.72491">
        <ele>168.4</ele>
        <time>2025-04-05T09:17:25Z</time>
      </trkpt>
      <trkpt lat="50.17007" lon="4.72495">
        <ele>168.6</ele>
        <time>2025-04-05T09:17:26Z</time>
      </trkpt>
      <trkpt lat="50.17006" lon="4.725">
        <ele>168.6</ele>
        <time>2025-04-05T09:17:27Z</time>
      </trkpt>
      <trkpt lat="50.17006" lon="4.72507">
        <ele>168.8</ele>
        <time>2025-04-05T09:17:28Z</time>
      </trkpt>
      <trkpt lat="50.17004" lon="4.72514">
        <ele>168.8</ele>
        <time>2025-04-05T09:17:29Z</time>
      </trkpt>
      <trkpt lat="50.17003" lon="4.7252">
        <ele>168.8</ele>
        <time>2025-04-05T09:17:30Z</time>
      </trkpt>
      <trkpt lat="50.17001" lon="4.72525">
        <ele>169</ele>
        <time>2025-04-05T09:17:31Z</time>
      </trkpt>
      <trkpt lat="50.17001" lon="4.72532">
        <ele>169</ele>
        <time>2025-04-05T09:17:32Z</time>
      </trkpt>
      <trkpt lat="50.17" lon="4.72538">
        <ele>169</ele>
        <time>2025-04-05T09:17:33Z</time>
      </trkpt>
      <trkpt lat="50.16999" lon="4.72545">
        <ele>169</ele>
        <time>2025-04-05T09:17:34Z</time>
      </trkpt>
      <trkpt lat="50.16999" lon="4.72552">
        <ele>169.2</ele>
        <time>2025-04-05T09:17:35Z</time>
      </trkpt>
      <trkpt lat="50.16998" lon="4.72558">
        <ele>169.2</ele>
        <time>2025-04-05T09:17:36Z</time>
      </trkpt>
      <trkpt lat="50.16997" lon="4.72564">
        <ele>169.2</ele>
        <time>2025-04-05T09:17:37Z</time>
      </trkpt>
      <trkpt lat="50.16998" lon="4.7257">
        <ele>169.2</ele>
        <time>2025-04-05T09:17:38Z</time>
      </trkpt>
      <trkpt lat="50.16998" lon="4.72576">
        <ele>169.4</ele>
        <time>2025-04-05T09:17:39Z</time>
      </trkpt>
      <trkpt lat="50.16999" lon="4.72583">
        <ele>169.4</ele>
        <time>2025-04-05T09:17:40Z</time>
      </trkpt>
      <trkpt lat="50.16999" lon="4.7259">
        <ele>169.6</ele>
        <time>2025-04-05T09:17:41Z</time>
      </trkpt>
      <trkpt lat="50.16998" lon="4.72594">
        <ele>169.6</ele>
        <time>2025-04-05T09:17:42Z</time>
      </trkpt>
      <trkpt lat="50.16997" lon="4.726">
        <ele>169.8</ele>
        <time>2025-04-05T09:17:43Z</time>
      </trkpt>
      <trkpt lat="50.16995" lon="4.72604">
        <ele>169.8</ele>
        <time>2025-04-05T09:17:44Z</time>
      </trkpt>
      <trkpt lat="50.16993" lon="4.72609">
        <ele>169.8</ele>
        <time>2025-04-05T09:17:45Z</time>
      </trkpt>
      <trkpt lat="50.16991" lon="4.72617">
        <ele>169.8</ele>
        <time>2025-04-05T09:17:46Z</time>
      </trkpt>
      <trkpt lat="50.16989" lon="4.72623">
        <ele>170</ele>
        <time>2025-04-05T09:17:47Z</time>
      </trkpt>
      <trkpt lat="50.16988" lon="4.72628">
        <ele>170</ele>
        <time>2025-04-05T09:17:48Z</time>
      </trkpt>
      <trkpt lat="50.16989" lon="4.72633">
        <ele>170.2</ele>
        <time>2025-04-05T09:17:49Z</time>
      </trkpt>
      <trkpt lat="50.16989" lon="4.7264">
        <ele>170.4</ele>
        <time>2025-04-05T09:17:50Z</time>
      </trkpt>
      <trkpt lat="50.16988" lon="4.72646">
        <ele>170.4</ele>
        <time>2025-04-05T09:17:51Z</time>
      </trkpt>
      <trkpt lat="50.16987" lon="4.7265">
        <ele>170.6</ele>
        <time>2025-04-05T09:17:52Z</time>
      </trkpt>
      <trkpt lat="50.16987" lon="4.72654">
        <ele>170.6</ele>
        <time>2025-04-05T09:17:53Z</time>
      </trkpt>
      <trkpt lat="50.16986" lon="4.72661">
        <ele>170.8</ele>
        <time>2025-04-05T09:17:54Z</time>
      </trkpt>
      <trkpt lat="50.16987" lon="4.72668">
        <ele>170.8</ele>
        <time>2025-04-05T09:17:55Z</time>
      </trkpt>
      <trkpt lat="50.16987" lon="4.72674">
        <ele>171</ele>
        <time>2025-04-05T09:17:56Z</time>
      </trkpt>
      <trkpt lat="50.16988" lon="4.72679">
        <ele>171.2</ele>
        <time>2025-04-05T09:17:57Z</time>
      </trkpt>
      <trkpt lat="50.16989" lon="4.72685">
        <ele>171.2</ele>
        <time>2025-04-05T09:17:58Z</time>
      </trkpt>
      <trkpt lat="50.1699" lon="4.7269">
        <ele>171.2</ele>
        <time>2025-04-05T09:17:59Z</time>
      </trkpt>
      <trkpt lat="50.16991" lon="4.72695">
        <ele>171.4</ele>
        <time>2025-04-05T09:18:00Z</time>
      </trkpt>
      <trkpt lat="50.16991" lon="4.72701">
        <ele>171.4</ele>
        <time>2025-04-05T09:18:01Z</time>
      </trkpt>
      <trkpt lat="50.16991" lon="4.72706">
        <ele>171.6</ele>
        <time>2025-04-05T09:18:02Z</time>
      </trkpt>
      <trkpt lat="50.16991" lon="4.72711">
        <ele>171.6</ele>
        <time>2025-04-05T09:18:03Z</time>
      </trkpt>
      <trkpt lat="50.16992" lon="4.72717">
        <ele>171.8</ele>
        <time>2025-04-05T09:18:04Z</time>
      </trkpt>
      <trkpt lat="50.16993" lon="4.72724">
        <ele>171.8</ele>
        <time>2025-04-05T09:18:05Z</time>
      </trkpt>
      <trkpt lat="50.16993" lon="4.7273">
        <ele>172</ele>
        <time>2025-04-05T09:18:06Z</time>
      </trkpt>
      <trkpt lat="50.16993" lon="4.72735">
        <ele>172</ele>
        <time>2025-04-05T09:18:07Z</time>
      </trkpt>
      <trkpt lat="50.16993" lon="4.7274">
        <ele>172.2</ele>
        <time>2025-04-05T09:18:08Z</time>
      </trkpt>
      <trkpt lat="50.16993" lon="4.72745">
        <ele>172.4</ele>
        <time>2025-04-05T09:18:09Z</time>
      </trkpt>
      <trkpt lat="50.16993" lon="4.72752">
        <ele>172.4</ele>
        <time>2025-04-05T09:18:10Z</time>
      </trkpt>
      <trkpt lat="50.16993" lon="4.72759">
        <ele>172.6</ele>
        <time>2025-04-05T09:18:11Z</time>
      </trkpt>
      <trkpt lat="50.16994" lon="4.72766">
        <ele>172.6</ele>
        <time>2025-04-05T09:18:12Z</time>
      </trkpt>
      <trkpt lat="50.16996" lon="4.72773">
        <ele>172.8</ele>
        <time>2025-04-05T09:18:13Z</time>
      </trkpt>
      <trkpt lat="50.16996" lon="4.72778">
        <ele>173</ele>
        <time>2025-04-05T09:18:14Z</time>
      </trkpt>
      <trkpt lat="50.16996" lon="4.72785">
        <ele>173</ele>
        <time>2025-04-05T09:18:15Z</time>
      </trkpt>
      <trkpt lat="50.16996" lon="4.72792">
        <ele>173.2</ele>
        <time>2025-04-05T09:18:16Z</time>
      </trkpt>
      <trkpt lat="50.16996" lon="4.72798">
        <ele>173.2</ele>
        <time>2025-04-05T09:18:17Z</time>
      </trkpt>
      <trkpt lat="50.16995" lon="4.72803">
        <ele>173.4</ele>
        <time>2025-04-05T09:18:18Z</time>
      </trkpt>
      <trkpt lat="50.16995" lon="4.72807">
        <ele>173.6</ele>
        <time>2025-04-05T09:18:19Z</time>
      </trkpt>
      <trkpt lat="50.16995" lon="4.72813">
        <ele>173.6</ele>
        <time>2025-04-05T09:18:20Z</time>
      </trkpt>
      <trkpt lat="50.16995" lon="4.7282">
        <ele>173.8</ele>
        <time>2025-04-05T09:18:21Z</time>
      </trkpt>
      <trkpt lat="50.16993" lon="4.72827">
        <ele>173.8</ele>
        <time>2025-04-05T09:18:22Z</time>
      </trkpt>
      <trkpt lat="50.16991" lon="4.72836">
        <ele>174</ele>
        <time>2025-04-05T09:18:23Z</time>
      </trkpt>
      <trkpt lat="50.16991" lon="4.72845">
        <ele>174</ele>
        <time>2025-04-05T09:18:24Z</time>
      </trkpt>
      <trkpt lat="50.16991" lon="4.72854">
        <ele>174.2</ele>
        <time>2025-04-05T09:18:25Z</time>
      </trkpt>
      <trkpt lat="50.16991" lon="4.72861">
        <ele>174.4</ele>
        <time>2025-04-05T09:18:26Z</time>
      </trkpt>
      <trkpt lat="50.16992" lon="4.72868">
        <ele>174.4</ele>
        <time>2025-04-05T09:18:27Z</time>
      </trkpt>
      <trkpt lat="50.16993" lon="4.72875">
        <ele>174.6</ele>
        <time>2025-04-05T09:18:28Z</time>
      </trkpt>
      <trkpt lat="50.16993" lon="4.72882">
        <ele>174.6</ele>
        <time>2025-04-05T09:18:29Z</time>
      </trkpt>
      <trkpt lat="50.16995" lon="4.72889">
        <ele>174.8</ele>
        <time>2025-04-05T09:18:30Z</time>
      </trkpt>
      <trkpt lat="50.16995" lon="4.72895">
        <ele>174.8</ele>
        <time>2025-04-05T09:18:31Z</time>
      </trkpt>
      <trkpt lat="50.16993" lon="4.72901">
        <ele>175</ele>
        <time>2025-04-05T09:18:32Z</time>
      </trkpt>
      <trkpt lat="50.16994" lon="4.72906">
        <ele>175.2</ele>
        <time>2025-04-05T09:18:33Z</time>
      </trkpt>
      <trkpt lat="50.16996" lon="4.72914">
        <ele>175.4</ele>
        <time>2025-04-05T09:18:34Z</time>
      </trkpt>
      <trkpt lat="50.16997" lon="4.72921">
        <ele>175.4</ele>
        <time>2025-04-05T09:18:35Z</time>
      </trkpt>
      <trkpt lat="50.16998" lon="4.72926">
        <ele>175.6</ele>
        <time>2025-04-05T09:18:36Z</time>
      </trkpt>
      <trkpt lat="50.16999" lon="4.72932">
        <ele>175.6</ele>
        <time>2025-04-05T09:18:37Z</time>
      </trkpt>
      <trkpt lat="50.16999" lon="4.72936">
        <ele>175.8</ele>
        <time>2025-04-05T09:18:38Z</time>
      </trkpt>
      <trkpt lat="50.16999" lon="4.72944">
        <ele>175.8</ele>
        <time>2025-04-05T09:18:39Z</time>
      </trkpt>
      <trkpt lat="50.16998" lon="4.72949">
        <ele>176</ele>
        <time>2025-04-05T09:18:40Z</time>
      </trkpt>
      <trkpt lat="50.16998" lon="4.72955">
        <ele>176</ele>
        <time>2025-04-05T09:18:41Z</time>
      </trkpt>
      <trkpt lat="50.16997" lon="4.72961">
        <ele>176.2</ele>
        <time>2025-04-05T09:18:42Z</time>
      </trkpt>
      <trkpt lat="50.16996" lon="4.72968">
        <ele>176.2</ele>
        <time>2025-04-05T09:18:43Z</time>
      </trkpt>
      <trkpt lat="50.16995" lon="4.72976">
        <ele>176.4</ele>
        <time>2025-04-05T09:18:44Z</time>
      </trkpt>
      <trkpt lat="50.16994" lon="4.72982">
        <ele>176.4</ele>
        <time>2025-04-05T09:18:45Z</time>
      </trkpt>
      <trkpt lat="50.16992" lon="4.72988">
        <ele>176.6</ele>
        <time>2025-04-05T09:18:46Z</time>
      </trkpt>
      <trkpt lat="50.16991" lon="4.72995">
        <ele>176.6</ele>
        <time>2025-04-05T09:18:47Z</time>
      </trkpt>
      <trkpt lat="50.16991" lon="4.73001">
        <ele>176.8</ele>
        <time>2025-04-05T09:18:48Z</time>
      </trkpt>
      <trkpt lat="50.1699" lon="4.73007">
        <ele>176.8</ele>
        <time>2025-04-05T09:18:49Z</time>
      </trkpt>
      <trkpt lat="50.1699" lon="4.73013">
        <ele>177</ele>
        <time>2025-04-05T09:18:50Z</time>
      </trkpt>
      <trkpt lat="50.16989" lon="4.73019">
        <ele>177.2</ele>
        <time>2025-04-05T09:18:51Z</time>
      </trkpt>
      <trkpt lat="50.16988" lon="4.73025">
        <ele>177.4</ele>
        <time>2025-04-05T09:18:52Z</time>
      </trkpt>
      <trkpt lat="50.16987" lon="4.73031">
        <ele>177.6</ele>
        <time>2025-04-05T09:18:53Z</time>
      </trkpt>
      <trkpt lat="50.16985" lon="4.73037">
        <ele>177.8</ele>
        <time>2025-04-05T09:18:54Z</time>
      </trkpt>
      <trkpt lat="50.16985" lon="4.73044">
        <ele>178</ele>
        <time>2025-04-05T09:18:55Z</time>
      </trkpt>
      <trkpt lat="50.16985" lon="4.7305">
        <ele>178.2</ele>
        <time>2025-04-05T09:18:56Z</time>
      </trkpt>
      <trkpt lat="50.16984" lon="4.73056">
        <ele>178.4</ele>
        <time>2025-04-05T09:18:57Z</time>
      </trkpt>
      <trkpt lat="50.16983" lon="4.73062">
        <ele>178.6</ele>
        <time>2025-04-05T09:18:58Z</time>
      </trkpt>
      <trkpt lat="50.16982" lon="4.73068">
        <ele>178.8</ele>
        <time>2025-04-05T09:18:59Z</time>
      </trkpt>
      <trkpt lat="50.16982" lon="4.73073">
        <ele>179</ele>
        <time>2025-04-05T09:19:00Z</time>
      </trkpt>
      <trkpt lat="50.16981" lon="4.73079">
        <ele>179.2</ele>
        <time>2025-04-05T09:19:01Z</time>
      </trkpt>
      <trkpt lat="50.1698" lon="4.73085">
        <ele>179.4</ele>
        <time>2025-04-05T09:19:02Z</time>
      </trkpt>
      <trkpt lat="50.1698" lon="4.73091">
        <ele>179.6</ele>
        <time>2025-04-05T09:19:03Z</time>
      </trkpt>
      <trkpt lat="50.16979" lon="4.73096">
        <ele>179.8</ele>
        <time>2025-04-05T09:19:04Z</time>
      </trkpt>
      <trkpt lat="50.16979" lon="4.73102">
        <ele>180</ele>
        <time>2025-04-05T09:19:05Z</time>
      </trkpt>
      <trkpt lat="50.16979" lon="4.7311">
        <ele>180.2</ele>
        <time>2025-04-05T09:19:06Z</time>
      </trkpt>
      <trkpt lat="50.16978" lon="4.73116">
        <ele>180.4</ele>
        <time>2025-04-05T09:19:07Z</time>
      </trkpt>
      <trkpt lat="50.16977" lon="4.73121">
        <ele>180.6</ele>
        <time>2025-04-05T09:19:08Z</time>
      </trkpt>
      <trkpt lat="50.16977" lon="4.73128">
        <ele>180.8</ele>
        <time>2025-04-05T09:19:09Z</time>
      </trkpt>
      <trkpt lat="50.16976" lon="4.73135">
        <ele>180.8</ele>
        <time>2025-04-05T09:19:10Z</time>
      </trkpt>
      <trkpt lat="50.16976" lon="4.73139">
        <ele>181</ele>
        <time>2025-04-05T09:19:11Z</time>
      </trkpt>
      <trkpt lat="50.16977" lon="4.73146">
        <ele>181.2</ele>
        <time>2025-04-05T09:19:12Z</time>
      </trkpt>
      <trkpt lat="50.16977" lon="4.73153">
        <ele>181.4</ele>
        <time>2025-04-05T09:19:13Z</time>
      </trkpt>
      <trkpt lat="50.16979" lon="4.73159">
        <ele>181.4</ele>
        <time>2025-04-05T09:19:14Z</time>
      </trkpt>
      <trkpt lat="50.1698" lon="4.73165">
        <ele>181.4</ele>
        <time>2025-04-05T09:19:15Z</time>
      </trkpt>
      <trkpt lat="50.16982" lon="4.73172">
        <ele>181.4</ele>
        <time>2025-04-05T09:19:16Z</time>
      </trkpt>
      <trkpt lat="50.16984" lon="4.73179">
        <ele>181.4</ele>
        <time>2025-04-05T09:19:17Z</time>
      </trkpt>
      <trkpt lat="50.16986" lon="4.73185">
        <ele>181.4</ele>
        <time>2025-04-05T09:19:18Z</time>
      </trkpt>
      <trkpt lat="50.16988" lon="4.73191">
        <ele>181.4</ele>
        <time>2025-04-05T09:19:19Z</time>
      </trkpt>
      <trkpt lat="50.16989" lon="4.73199">
        <ele>181.4</ele>
        <time>2025-04-05T09:19:20Z</time>
      </trkpt>
      <trkpt lat="50.16991" lon="4.73205">
        <ele>181.4</ele>
        <time>2025-04-05T09:19:21Z</time>
      </trkpt>
      <trkpt lat="50.16993" lon="4.73211">
        <ele>181.4</ele>
        <time>2025-04-05T09:19:22Z</time>
      </trkpt>
      <trkpt lat="50.16995" lon="4.73217">
        <ele>181.6</ele>
        <time>2025-04-05T09:19:23Z</time>
      </trkpt>
      <trkpt lat="50.16996" lon="4.73222">
        <ele>181.6</ele>
        <time>2025-04-05T09:19:24Z</time>
      </trkpt>
      <trkpt lat="50.16998" lon="4.73226">
        <ele>181.6</ele>
        <time>2025-04-05T09:19:25Z</time>
      </trkpt>
      <trkpt lat="50.17" lon="4.73229">
        <ele>181.8</ele>
        <time>2025-04-05T09:19:26Z</time>
      </trkpt>
      <trkpt lat="50.17002" lon="4.73231">
        <ele>181.8</ele>
        <time>2025-04-05T09:19:27Z</time>
      </trkpt>
      <trkpt lat="50.17004" lon="4.73234">
        <ele>181.8</ele>
        <time>2025-04-05T09:19:28Z</time>
      </trkpt>
      <trkpt lat="50.17005" lon="4.73238">
        <ele>182</ele>
        <time>2025-04-05T09:19:29Z</time>
      </trkpt>
      <trkpt lat="50.17007" lon="4.73241">
        <ele>182</ele>
        <time>2025-04-05T09:19:30Z</time>
      </trkpt>
      <trkpt lat="50.17008" lon="4.73243">
        <ele>182.2</ele>
        <time>2025-04-05T09:19:31Z</time>
      </trkpt>
      <trkpt lat="50.1701" lon="4.73243">
        <ele>182.2</ele>
        <time>2025-04-05T09:19:32Z</time>
      </trkpt>
      <trkpt lat="50.17012" lon="4.73243">
        <ele>182.2</ele>
        <time>2025-04-05T09:19:33Z</time>
      </trkpt>
      <trkpt lat="50.17011" lon="4.73241">
        <ele>182.4</ele>
        <time>2025-04-05T09:19:34Z</time>
      </trkpt>
      <trkpt lat="50.17009" lon="4.7324">
        <ele>182.4</ele>
        <time>2025-04-05T09:19:35Z</time>
      </trkpt>
      <trkpt lat="50.17007" lon="4.73237">
        <ele>182.4</ele>
        <time>2025-04-05T09:19:36Z</time>
      </trkpt>
      <trkpt lat="50.17005" lon="4.73233">
        <ele>182.4</ele>
        <time>2025-04-05T09:19:37Z</time>
      </trkpt>
      <trkpt lat="50.17004" lon="4.73229">
        <ele>182.2</ele>
        <time>2025-04-05T09:19:38Z</time>
      </trkpt>
      <trkpt lat="50.17002" lon="4.73226">
        <ele>182.2</ele>
        <time>2025-04-05T09:19:39Z</time>
      </trkpt>
      <trkpt lat="50.16999" lon="4.73224">
        <ele>182</ele>
        <time>2025-04-05T09:19:40Z</time>
      </trkpt>
      <trkpt lat="50.16996" lon="4.73223">
        <ele>182</ele>
        <time>2025-04-05T09:19:41Z</time>
      </trkpt>
      <trkpt lat="50.16992" lon="4.73225">
        <ele>182</ele>
        <time>2025-04-05T09:19:42Z</time>
      </trkpt>
      <trkpt lat="50.16988" lon="4.73228">
        <ele>182</ele>
        <time>2025-04-05T09:19:43Z</time>
      </trkpt>
      <trkpt lat="50.16985" lon="4.73232">
        <ele>182</ele>
        <time>2025-04-05T09:19:44Z</time>
      </trkpt>
      <trkpt lat="50.16983" lon="4.73235">
        <ele>182</ele>
        <time>2025-04-05T09:19:45Z</time>
      </trkpt>
      <trkpt lat="50.16979" lon="4.73239">
        <ele>182</ele>
        <time>2025-04-05T09:19:46Z</time>
      </trkpt>
      <trkpt lat="50.16976" lon="4.73243">
        <ele>182.2</ele>
        <time>2025-04-05T09:19:47Z</time>
      </trkpt>
      <trkpt lat="50.16971" lon="4.73247">
        <ele>182.2</ele>
        <time>2025-04-05T09:19:48Z</time>
      </trkpt>
      <trkpt lat="50.16968" lon="4.73251">
        <ele>182.4</ele>
        <time>2025-04-05T09:19:49Z</time>
      </trkpt>
      <trkpt lat="50.16965" lon="4.73255">
        <ele>182.6</ele>
        <time>2025-04-05T09:19:50Z</time>
      </trkpt>
      <trkpt lat="50.16961" lon="4.73259">
        <ele>182.6</ele>
        <time>2025-04-05T09:19:51Z</time>
      </trkpt>
      <trkpt lat="50.16957" lon="4.73263">
        <ele>182.8</ele>
        <time>2025-04-05T09:19:52Z</time>
      </trkpt>
      <trkpt lat="50.16954" lon="4.73267">
        <ele>183</ele>
        <time>2025-04-05T09:19:53Z</time>
      </trkpt>
      <trkpt lat="50.1695" lon="4.73272">
        <ele>183</ele>
        <time>2025-04-05T09:19:54Z</time>
      </trkpt>
      <trkpt lat="50.16946" lon="4.73276">
        <ele>183.2</ele>
        <time>2025-04-05T09:19:55Z</time>
      </trkpt>
      <trkpt lat="50.16943" lon="4.7328">
        <ele>183.2</ele>
        <time>2025-04-05T09:19:56Z</time>
      </trkpt>
      <trkpt lat="50.1694" lon="4.73284">
        <ele>183.4</ele>
        <time>2025-04-05T09:19:57Z</time>
      </trkpt>
      <trkpt lat="50.16937" lon="4.73287">
        <ele>183.6</ele>
        <time>2025-04-05T09:19:58Z</time>
      </trkpt>
      <trkpt lat="50.16933" lon="4.73292">
        <ele>183.6</ele>
        <time>2025-04-05T09:19:59Z</time>
      </trkpt>
      <trkpt lat="50.16931" lon="4.73298">
        <ele>183.8</ele>
        <time>2025-04-05T09:20:00Z</time>
      </trkpt>
      <trkpt lat="50.16929" lon="4.73303">
        <ele>183.8</ele>
        <time>2025-04-05T09:20:01Z</time>
      </trkpt>
      <trkpt lat="50.16925" lon="4.73309">
        <ele>183.8</ele>
        <time>2025-04-05T09:20:02Z</time>
      </trkpt>
      <trkpt lat="50.16922" lon="4.73315">
        <ele>183.8</ele>
        <time>2025-04-05T09:20:03Z</time>
      </trkpt>
      <trkpt lat="50.16919" lon="4.73322">
        <ele>183.8</ele>
        <time>2025-04-05T09:20:04Z</time>
      </trkpt>
      <trkpt lat="50.16917" lon="4.73328">
        <ele>183.8</ele>
        <time>2025-04-05T09:20:05Z</time>
      </trkpt>
      <trkpt lat="50.16914" lon="4.73335">
        <ele>183.8</ele>
        <time>2025-04-05T09:20:06Z</time>
      </trkpt>
      <trkpt lat="50.16911" lon="4.73341">
        <ele>183.8</ele>
        <time>2025-04-05T09:20:07Z</time>
      </trkpt>
      <trkpt lat="50.16907" lon="4.73347">
        <ele>183.8</ele>
        <time>2025-04-05T09:20:08Z</time>
      </trkpt>
      <trkpt lat="50.16902" lon="4.73353">
        <ele>183.8</ele>
        <time>2025-04-05T09:20:09Z</time>
      </trkpt>
      <trkpt lat="50.16898" lon="4.73358">
        <ele>183.8</ele>
        <time>2025-04-05T09:20:10Z</time>
      </trkpt>
      <trkpt lat="50.16895" lon="4.73363">
        <ele>183.8</ele>
        <time>2025-04-05T09:20:11Z</time>
      </trkpt>
      <trkpt lat="50.16891" lon="4.73368">
        <ele>183.8</ele>
        <time>2025-04-05T09:20:12Z</time>
      </trkpt>
      <trkpt lat="50.16886" lon="4.73375">
        <ele>183.8</ele>
        <time>2025-04-05T09:20:13Z</time>
      </trkpt>
      <trkpt lat="50.16882" lon="4.73381">
        <ele>183.8</ele>
        <time>2025-04-05T09:20:14Z</time>
      </trkpt>
      <trkpt lat="50.16878" lon="4.73387">
        <ele>183.8</ele>
        <time>2025-04-05T09:20:15Z</time>
      </trkpt>
      <trkpt lat="50.16875" lon="4.73392">
        <ele>183.8</ele>
        <time>2025-04-05T09:20:16Z</time>
      </trkpt>
      <trkpt lat="50.16871" lon="4.73398">
        <ele>184</ele>
        <time>2025-04-05T09:20:17Z</time>
      </trkpt>
      <trkpt lat="50.16866" lon="4.73404">
        <ele>184</ele>
        <time>2025-04-05T09:20:18Z</time>
      </trkpt>
      <trkpt lat="50.16862" lon="4.73409">
        <ele>184</ele>
        <time>2025-04-05T09:20:19Z</time>
      </trkpt>
      <trkpt lat="50.16858" lon="4.73414">
        <ele>184.2</ele>
        <time>2025-04-05T09:20:20Z</time>
      </trkpt>
      <trkpt lat="50.16853" lon="4.73418">
        <ele>184.2</ele>
        <time>2025-04-05T09:20:21Z</time>
      </trkpt>
      <trkpt lat="50.16849" lon="4.73423">
        <ele>184.4</ele>
        <time>2025-04-05T09:20:22Z</time>
      </trkpt>
      <trkpt lat="50.16844" lon="4.73427">
        <ele>184.6</ele>
        <time>2025-04-05T09:20:23Z</time>
      </trkpt>
      <trkpt lat="50.1684" lon="4.73431">
        <ele>184.6</ele>
        <time>2025-04-05T09:20:24Z</time>
      </trkpt>
      <trkpt lat="50.16836" lon="4.73434">
        <ele>184.6</ele>
        <time>2025-04-05T09:20:25Z</time>
      </trkpt>
      <trkpt lat="50.16831" lon="4.73438">
        <ele>184.8</ele>
        <time>2025-04-05T09:20:26Z</time>
      </trkpt>
      <trkpt lat="50.16826" lon="4.73441">
        <ele>185</ele>
        <time>2025-04-05T09:20:27Z</time>
      </trkpt>
      <trkpt lat="50.16822" lon="4.73443">
        <ele>185</ele>
        <time>2025-04-05T09:20:28Z</time>
      </trkpt>
      <trkpt lat="50.16817" lon="4.73444">
        <ele>185.2</ele>
        <time>2025-04-05T09:20:29Z</time>
      </trkpt>
      <trkpt lat="50.16813" lon="4.73445">
        <ele>185.4</ele>
        <time>2025-04-05T09:20:30Z</time>
      </trkpt>
      <trkpt lat="50.16808" lon="4.73445">
        <ele>185.4</ele>
        <time>2025-04-05T09:20:31Z</time>
      </trkpt>
      <trkpt lat="50.16803" lon="4.73445">
        <ele>185.6</ele>
        <time>2025-04-05T09:20:32Z</time>
      </trkpt>
      <trkpt lat="50.16799" lon="4.73445">
        <ele>185.8</ele>
        <time>2025-04-05T09:20:33Z</time>
      </trkpt>
      <trkpt lat="50.16793" lon="4.73444">
        <ele>185.8</ele>
        <time>2025-04-05T09:20:34Z</time>
      </trkpt>
      <trkpt lat="50.16789" lon="4.73445">
        <ele>186</ele>
        <time>2025-04-05T09:20:35Z</time>
      </trkpt>
      <trkpt lat="50.16784" lon="4.73446">
        <ele>186.4</ele>
        <time>2025-04-05T09:20:36Z</time>
      </trkpt>
      <trkpt lat="50.1678" lon="4.7345">
        <ele>186.6</ele>
        <time>2025-04-05T09:20:37Z</time>
      </trkpt>
      <trkpt lat="50.16776" lon="4.73455">
        <ele>186.6</ele>
        <time>2025-04-05T09:20:38Z</time>
      </trkpt>
      <trkpt lat="50.16773" lon="4.73461">
        <ele>186.8</ele>
        <time>2025-04-05T09:20:39Z</time>
      </trkpt>
      <trkpt lat="50.16772" lon="4.73468">
        <ele>187</ele>
        <time>2025-04-05T09:20:40Z</time>
      </trkpt>
      <trkpt lat="50.16771" lon="4.73475">
        <ele>187.2</ele>
        <time>2025-04-05T09:20:41Z</time>
      </trkpt>
      <trkpt lat="50.1677" lon="4.73481">
        <ele>187.6</ele>
        <time>2025-04-05T09:20:42Z</time>
      </trkpt>
      <trkpt lat="50.1677" lon="4.73489">
        <ele>187.8</ele>
        <time>2025-04-05T09:20:43Z</time>
      </trkpt>
      <trkpt lat="50.16769" lon="4.73495">
        <ele>188</ele>
        <time>2025-04-05T09:20:44Z</time>
      </trkpt>
      <trkpt lat="50.16769" lon="4.73501">
        <ele>188.2</ele>
        <time>2025-04-05T09:20:45Z</time>
      </trkpt>
      <trkpt lat="50.16769" lon="4.73508">
        <ele>188.6</ele>
        <time>2025-04-05T09:20:46Z</time>
      </trkpt>
      <trkpt lat="50.16769" lon="4.73514">
        <ele>188.8</ele>
        <time>2025-04-05T09:20:47Z</time>
      </trkpt>
      <trkpt lat="50.16769" lon="4.73519">
        <ele>189</ele>
        <time>2025-04-05T09:20:48Z</time>
      </trkpt>
      <trkpt lat="50.16768" lon="4.73525">
        <ele>189.2</ele>
        <time>2025-04-05T09:20:49Z</time>
      </trkpt>
      <trkpt lat="50.16768" lon="4.7353">
        <ele>189.4</ele>
        <time>2025-04-05T09:20:50Z</time>
      </trkpt>
      <trkpt lat="50.16768" lon="4.73536">
        <ele>189.6</ele>
        <time>2025-04-05T09:20:51Z</time>
      </trkpt>
      <trkpt lat="50.16766" lon="4.73542">
        <ele>190</ele>
        <time>2025-04-05T09:20:52Z</time>
      </trkpt>
      <trkpt lat="50.16766" lon="4.73547">
        <ele>190.2</ele>
        <time>2025-04-05T09:20:53Z</time>
      </trkpt>
      <trkpt lat="50.16765" lon="4.73553">
        <ele>190.4</ele>
        <time>2025-04-05T09:20:54Z</time>
      </trkpt>
      <trkpt lat="50.16764" lon="4.73557">
        <ele>190.8</ele>
        <time>2025-04-05T09:20:55Z</time>
      </trkpt>
      <trkpt lat="50.16763" lon="4.73563">
        <ele>191</ele>
        <time>2025-04-05T09:20:56Z</time>
      </trkpt>
      <trkpt lat="50.16762" lon="4.73569">
        <ele>191.2</ele>
        <time>2025-04-05T09:20:57Z</time>
      </trkpt>
      <trkpt lat="50.16761" lon="4.73574">
        <ele>191.4</ele>
        <time>2025-04-05T09:20:58Z</time>
      </trkpt>
      <trkpt lat="50.1676" lon="4.73579">
        <ele>191.6</ele>
        <time>2025-04-05T09:20:59Z</time>
      </trkpt>
      <trkpt lat="50.16759" lon="4.73584">
        <ele>192</ele>
        <time>2025-04-05T09:21:00Z</time>
      </trkpt>
      <trkpt lat="50.16757" lon="4.7359">
        <ele>192</ele>
        <time>2025-04-05T09:21:01Z</time>
      </trkpt>
      <trkpt lat="50.16755" lon="4.73595">
        <ele>192.4</ele>
        <time>2025-04-05T09:21:02Z</time>
      </trkpt>
      <trkpt lat="50.16753" lon="4.73599">
        <ele>192.6</ele>
        <time>2025-04-05T09:21:03Z</time>
      </trkpt>
      <trkpt lat="50.16752" lon="4.73604">
        <ele>193</ele>
        <time>2025-04-05T09:21:04Z</time>
      </trkpt>
      <trkpt lat="50.1675" lon="4.73609">
        <ele>193.2</ele>
        <time>2025-04-05T09:21:05Z</time>
      </trkpt>
      <trkpt lat="50.16749" lon="4.73614">
        <ele>193.4</ele>
        <time>2025-04-05T09:21:06Z</time>
      </trkpt>
      <trkpt lat="50.16748" lon="4.73618">
        <ele>193.6</ele>
        <time>2025-04-05T09:21:07Z</time>
      </trkpt>
      <trkpt lat="50.16747" lon="4.73622">
        <ele>193.8</ele>
        <time>2025-04-05T09:21:08Z</time>
      </trkpt>
      <trkpt lat="50.16746" lon="4.73627">
        <ele>194</ele>
        <time>2025-04-05T09:21:09Z</time>
      </trkpt>
      <trkpt lat="50.16745" lon="4.73632">
        <ele>194.2</ele>
        <time>2025-04-05T09:21:10Z</time>
      </trkpt>
      <trkpt lat="50.16743" lon="4.73636">
        <ele>194.6</ele>
        <time>2025-04-05T09:21:11Z</time>
      </trkpt>
      <trkpt lat="50.16742" lon="4.73641">
        <ele>194.8</ele>
        <time>2025-04-05T09:21:12Z</time>
      </trkpt>
      <trkpt lat="50.16742" lon="4.73646">
        <ele>195</ele>
        <time>2025-04-05T09:21:13Z</time>
      </trkpt>
      <trkpt lat="50.1674" lon="4.73651">
        <ele>195.2</ele>
        <time>2025-04-05T09:21:14Z</time>
      </trkpt>
      <trkpt lat="50.16739" lon="4.73656">
        <ele>195.4</ele>
        <time>2025-04-05T09:21:15Z</time>
      </trkpt>
      <trkpt lat="50.16738" lon="4.73661">
        <ele>195.6</ele>
        <time>2025-04-05T09:21:16Z</time>
      </trkpt>
      <trkpt lat="50.16737" lon="4.73665">
        <ele>195.8</ele>
        <time>2025-04-05T09:21:17Z</time>
      </trkpt>
      <trkpt lat="50.16736" lon="4.73671">
        <ele>195.8</ele>
        <time>2025-04-05T09:21:18Z</time>
      </trkpt>
      <trkpt lat="50.16734" lon="4.73676">
        <ele>196</ele>
        <time>2025-04-05T09:21:19Z</time>
      </trkpt>
      <trkpt lat="50.16734" lon="4.73681">
        <ele>196.2</ele>
        <time>2025-04-05T09:21:20Z</time>
      </trkpt>
      <trkpt lat="50.16734" lon="4.73686">
        <ele>196.2</ele>
        <time>2025-04-05T09:21:21Z</time>
      </trkpt>
      <trkpt lat="50.16733" lon="4.73691">
        <ele>196.4</ele>
        <time>2025-04-05T09:21:22Z</time>
      </trkpt>
      <trkpt lat="50.16732" lon="4.73696">
        <ele>196.6</ele>
        <time>2025-04-05T09:21:23Z</time>
      </trkpt>
      <trkpt lat="50.16731" lon="4.73701">
        <ele>196.8</ele>
        <time>2025-04-05T09:21:24Z</time>
      </trkpt>
      <trkpt lat="50.16729" lon="4.73706">
        <ele>196.8</ele>
        <time>2025-04-05T09:21:25Z</time>
      </trkpt>
      <trkpt lat="50.16729" lon="4.73712">
        <ele>197</ele>
        <time>2025-04-05T09:21:26Z</time>
      </trkpt>
      <trkpt lat="50.16728" lon="4.73717">
        <ele>197</ele>
        <time>2025-04-05T09:21:27Z</time>
      </trkpt>
      <trkpt lat="50.16727" lon="4.73723">
        <ele>197.2</ele>
        <time>2025-04-05T09:21:28Z</time>
      </trkpt>
      <trkpt lat="50.16727" lon="4.73729">
        <ele>197.4</ele>
        <time>2025-04-05T09:21:29Z</time>
      </trkpt>
      <trkpt lat="50.16726" lon="4.73735">
        <ele>197.6</ele>
        <time>2025-04-05T09:21:30Z</time>
      </trkpt>
      <trkpt lat="50.16725" lon="4.7374">
        <ele>197.6</ele>
        <time>2025-04-05T09:21:31Z</time>
      </trkpt>
      <trkpt lat="50.16724" lon="4.73746">
        <ele>197.8</ele>
        <time>2025-04-05T09:21:32Z</time>
      </trkpt>
      <trkpt lat="50.16723" lon="4.7375">
        <ele>198</ele>
        <time>2025-04-05T09:21:33Z</time>
      </trkpt>
      <trkpt lat="50.16723" lon="4.73756">
        <ele>198.2</ele>
        <time>2025-04-05T09:21:34Z</time>
      </trkpt>
      <trkpt lat="50.16721" lon="4.73761">
        <ele>198.4</ele>
        <time>2025-04-05T09:21:35Z</time>
      </trkpt>
      <trkpt lat="50.16721" lon="4.73766">
        <ele>198.6</ele>
        <time>2025-04-05T09:21:36Z</time>
      </trkpt>
      <trkpt lat="50.1672" lon="4.73772">
        <ele>198.8</ele>
        <time>2025-04-05T09:21:37Z</time>
      </trkpt>
      <trkpt lat="50.16719" lon="4.73776">
        <ele>198.8</ele>
        <time>2025-04-05T09:21:38Z</time>
      </trkpt>
      <trkpt lat="50.16717" lon="4.73782">
        <ele>199</ele>
        <time>2025-04-05T09:21:39Z</time>
      </trkpt>
      <trkpt lat="50.16716" lon="4.73788">
        <ele>199.2</ele>
        <time>2025-04-05T09:21:40Z</time>
      </trkpt>
      <trkpt lat="50.16716" lon="4.73794">
        <ele>199.2</ele>
        <time>2025-04-05T09:21:41Z</time>
      </trkpt>
      <trkpt lat="50.16715" lon="4.738">
        <ele>199.4</ele>
        <time>2025-04-05T09:21:42Z</time>
      </trkpt>
      <trkpt lat="50.16714" lon="4.73806">
        <ele>199.6</ele>
        <time>2025-04-05T09:21:43Z</time>
      </trkpt>
      <trkpt lat="50.16713" lon="4.73811">
        <ele>199.6</ele>
        <time>2025-04-05T09:21:44Z</time>
      </trkpt>
      <trkpt lat="50.16712" lon="4.73817">
        <ele>199.8</ele>
        <time>2025-04-05T09:21:45Z</time>
      </trkpt>
      <trkpt lat="50.16711" lon="4.73823">
        <ele>200</ele>
        <time>2025-04-05T09:21:46Z</time>
      </trkpt>
      <trkpt lat="50.1671" lon="4.73829">
        <ele>200</ele>
        <time>2025-04-05T09:21:47Z</time>
      </trkpt>
      <trkpt lat="50.16709" lon="4.73834">
        <ele>200.2</ele>
        <time>2025-04-05T09:21:48Z</time>
      </trkpt>
      <trkpt lat="50.16708" lon="4.73841">
        <ele>200.2</ele>
        <time>2025-04-05T09:21:49Z</time>
      </trkpt>
      <trkpt lat="50.16708" lon="4.73847">
        <ele>200.4</ele>
        <time>2025-04-05T09:21:50Z</time>
      </trkpt>
      <trkpt lat="50.16707" lon="4.73852">
        <ele>200.4</ele>
        <time>2025-04-05T09:21:51Z</time>
      </trkpt>
      <trkpt lat="50.16706" lon="4.73858">
        <ele>200.6</ele>
        <time>2025-04-05T09:21:52Z</time>
      </trkpt>
      <trkpt lat="50.16705" lon="4.73864">
        <ele>200.6</ele>
        <time>2025-04-05T09:21:53Z</time>
      </trkpt>
      <trkpt lat="50.16704" lon="4.7387">
        <ele>200.8</ele>
        <time>2025-04-05T09:21:54Z</time>
      </trkpt>
      <trkpt lat="50.16703" lon="4.73875">
        <ele>200.8</ele>
        <time>2025-04-05T09:21:55Z</time>
      </trkpt>
      <trkpt lat="50.16702" lon="4.7388">
        <ele>201</ele>
        <time>2025-04-05T09:21:56Z</time>
      </trkpt>
      <trkpt lat="50.16701" lon="4.73887">
        <ele>201</ele>
        <time>2025-04-05T09:21:57Z</time>
      </trkpt>
      <trkpt lat="50.167" lon="4.73893">
        <ele>201.2</ele>
        <time>2025-04-05T09:21:58Z</time>
      </trkpt>
      <trkpt lat="50.16699" lon="4.73898">
        <ele>201.2</ele>
        <time>2025-04-05T09:21:59Z</time>
      </trkpt>
      <trkpt lat="50.16699" lon="4.73904">
        <ele>201.4</ele>
        <time>2025-04-05T09:22:00Z</time>
      </trkpt>
      <trkpt lat="50.16699" lon="4.73908">
        <ele>201.6</ele>
        <time>2025-04-05T09:22:01Z</time>
      </trkpt>
      <trkpt lat="50.16698" lon="4.73914">
        <ele>201.6</ele>
        <time>2025-04-05T09:22:02Z</time>
      </trkpt>
      <trkpt lat="50.16697" lon="4.7392">
        <ele>201.8</ele>
        <time>2025-04-05T09:22:03Z</time>
      </trkpt>
      <trkpt lat="50.16696" lon="4.73925">
        <ele>201.8</ele>
        <time>2025-04-05T09:22:04Z</time>
      </trkpt>
      <trkpt lat="50.16695" lon="4.7393">
        <ele>202</ele>
        <time>2025-04-05T09:22:05Z</time>
      </trkpt>
      <trkpt lat="50.16695" lon="4.73936">
        <ele>202</ele>
        <time>2025-04-05T09:22:06Z</time>
      </trkpt>
      <trkpt lat="50.16694" lon="4.73942">
        <ele>202.2</ele>
        <time>2025-04-05T09:22:07Z</time>
      </trkpt>
      <trkpt lat="50.16692" lon="4.73947">
        <ele>202.4</ele>
        <time>2025-04-05T09:22:08Z</time>
      </trkpt>
      <trkpt lat="50.16692" lon="4.73953">
        <ele>202.6</ele>
        <time>2025-04-05T09:22:09Z</time>
      </trkpt>
      <trkpt lat="50.1669" lon="4.73958">
        <ele>202.8</ele>
        <time>2025-04-05T09:22:10Z</time>
      </trkpt>
      <trkpt lat="50.1669" lon="4.73964">
        <ele>202.8</ele>
        <time>2025-04-05T09:22:11Z</time>
      </trkpt>
      <trkpt lat="50.16689" lon="4.7397">
        <ele>202.8</ele>
        <time>2025-04-05T09:22:12Z</time>
      </trkpt>
      <trkpt lat="50.16688" lon="4.73974">
        <ele>202.8</ele>
        <time>2025-04-05T09:22:13Z</time>
      </trkpt>
      <trkpt lat="50.16687" lon="4.73981">
        <ele>203</ele>
        <time>2025-04-05T09:22:14Z</time>
      </trkpt>
      <trkpt lat="50.16686" lon="4.73987">
        <ele>203</ele>
        <time>2025-04-05T09:22:15Z</time>
      </trkpt>
      <trkpt lat="50.16686" lon="4.73992">
        <ele>203.2</ele>
        <time>2025-04-05T09:22:16Z</time>
      </trkpt>
      <trkpt lat="50.16685" lon="4.73997">
        <ele>203.2</ele>
        <time>2025-04-05T09:22:17Z</time>
      </trkpt>
      <trkpt lat="50.16684" lon="4.74003">
        <ele>203.4</ele>
        <time>2025-04-05T09:22:18Z</time>
      </trkpt>
      <trkpt lat="50.16683" lon="4.74008">
        <ele>203.4</ele>
        <time>2025-04-05T09:22:19Z</time>
      </trkpt>
      <trkpt lat="50.16682" lon="4.74014">
        <ele>203.6</ele>
        <time>2025-04-05T09:22:20Z</time>
      </trkpt>
      <trkpt lat="50.16681" lon="4.74019">
        <ele>203.6</ele>
        <time>2025-04-05T09:22:21Z</time>
      </trkpt>
      <trkpt lat="50.1668" lon="4.74025">
        <ele>203.8</ele>
        <time>2025-04-05T09:22:22Z</time>
      </trkpt>
      <trkpt lat="50.1668" lon="4.74031">
        <ele>203.8</ele>
        <time>2025-04-05T09:22:23Z</time>
      </trkpt>
      <trkpt lat="50.16679" lon="4.74038">
        <ele>204</ele>
        <time>2025-04-05T09:22:24Z</time>
      </trkpt>
      <trkpt lat="50.16678" lon="4.74044">
        <ele>204</ele>
        <time>2025-04-05T09:22:25Z</time>
      </trkpt>
      <trkpt lat="50.16677" lon="4.7405">
        <ele>204.2</ele>
        <time>2025-04-05T09:22:26Z</time>
      </trkpt>
      <trkpt lat="50.16676" lon="4.74055">
        <ele>204.2</ele>
        <time>2025-04-05T09:22:27Z</time>
      </trkpt>
      <trkpt lat="50.16675" lon="4.74061">
        <ele>204.4</ele>
        <time>2025-04-05T09:22:28Z</time>
      </trkpt>
      <trkpt lat="50.16674" lon="4.74067">
        <ele>204.4</ele>
        <time>2025-04-05T09:22:29Z</time>
      </trkpt>
      <trkpt lat="50.16674" lon="4.74073">
        <ele>204.6</ele>
        <time>2025-04-05T09:22:30Z</time>
      </trkpt>
      <trkpt lat="50.16673" lon="4.74078">
        <ele>204.8</ele>
        <time>2025-04-05T09:22:31Z</time>
      </trkpt>
      <trkpt lat="50.16672" lon="4.74084">
        <ele>204.8</ele>
        <time>2025-04-05T09:22:32Z</time>
      </trkpt>
      <trkpt lat="50.16671" lon="4.7409">
        <ele>205</ele>
        <time>2025-04-05T09:22:33Z</time>
      </trkpt>
      <trkpt lat="50.1667" lon="4.74096">
        <ele>205</ele>
        <time>2025-04-05T09:22:34Z</time>
      </trkpt>
      <trkpt lat="50.16669" lon="4.74101">
        <ele>205</ele>
        <time>2025-04-05T09:22:35Z</time>
      </trkpt>
      <trkpt lat="50.16668" lon="4.74106">
        <ele>205</ele>
        <time>2025-04-05T09:22:36Z</time>
      </trkpt>
      <trkpt lat="50.16667" lon="4.74112">
        <ele>205.2</ele>
        <time>2025-04-05T09:22:37Z</time>
      </trkpt>
      <trkpt lat="50.16666" lon="4.74118">
        <ele>205.2</ele>
        <time>2025-04-05T09:22:38Z</time>
      </trkpt>
      <trkpt lat="50.16666" lon="4.74123">
        <ele>205.4</ele>
        <time>2025-04-05T09:22:39Z</time>
      </trkpt>
      <trkpt lat="50.16665" lon="4.74128">
        <ele>205.4</ele>
        <time>2025-04-05T09:22:40Z</time>
      </trkpt>
      <trkpt lat="50.16664" lon="4.74134">
        <ele>205.6</ele>
        <time>2025-04-05T09:22:41Z</time>
      </trkpt>
      <trkpt lat="50.16663" lon="4.7414">
        <ele>205.8</ele>
        <time>2025-04-05T09:22:42Z</time>
      </trkpt>
      <trkpt lat="50.16662" lon="4.74145">
        <ele>205.8</ele>
        <time>2025-04-05T09:22:43Z</time>
      </trkpt>
      <trkpt lat="50.16662" lon="4.74151">
        <ele>206</ele>
        <time>2025-04-05T09:22:44Z</time>
      </trkpt>
      <trkpt lat="50.16661" lon="4.74156">
        <ele>206</ele>
        <time>2025-04-05T09:22:45Z</time>
      </trkpt>
      <trkpt lat="50.1666" lon="4.74162">
        <ele>206</ele>
        <time>2025-04-05T09:22:46Z</time>
      </trkpt>
      <trkpt lat="50.16659" lon="4.74167">
        <ele>206.2</ele>
        <time>2025-04-05T09:22:47Z</time>
      </trkpt>
      <trkpt lat="50.16658" lon="4.74173">
        <ele>206.2</ele>
        <time>2025-04-05T09:22:48Z</time>
      </trkpt>
      <trkpt lat="50.16657" lon="4.74178">
        <ele>206.4</ele>
        <time>2025-04-05T09:22:49Z</time>
      </trkpt>
      <trkpt lat="50.16656" lon="4.74185">
        <ele>206.4</ele>
        <time>2025-04-05T09:22:50Z</time>
      </trkpt>
      <trkpt lat="50.16655" lon="4.74191">
        <ele>206.6</ele>
        <time>2025-04-05T09:22:51Z</time>
      </trkpt>
      <trkpt lat="50.16654" lon="4.74197">
        <ele>206.6</ele>
        <time>2025-04-05T09:22:52Z</time>
      </trkpt>
      <trkpt lat="50.16653" lon="4.74203">
        <ele>206.8</ele>
        <time>2025-04-05T09:22:53Z</time>
      </trkpt>
      <trkpt lat="50.16653" lon="4.74209">
        <ele>207</ele>
        <time>2025-04-05T09:22:54Z</time>
      </trkpt>
      <trkpt lat="50.16652" lon="4.74215">
        <ele>207</ele>
        <time>2025-04-05T09:22:55Z</time>
      </trkpt>
      <trkpt lat="50.1665" lon="4.74221">
        <ele>207.2</ele>
        <time>2025-04-05T09:22:56Z</time>
      </trkpt>
      <trkpt lat="50.1665" lon="4.74227">
        <ele>207.4</ele>
        <time>2025-04-05T09:22:57Z</time>
      </trkpt>
      <trkpt lat="50.16649" lon="4.74233">
        <ele>207.4</ele>
        <time>2025-04-05T09:22:58Z</time>
      </trkpt>
      <trkpt lat="50.16648" lon="4.74239">
        <ele>207.6</ele>
        <time>2025-04-05T09:22:59Z</time>
      </trkpt>
      <trkpt lat="50.16647" lon="4.74245">
        <ele>207.6</ele>
        <time>2025-04-05T09:23:00Z</time>
      </trkpt>
      <trkpt lat="50.16646" lon="4.7425">
        <ele>207.8</ele>
        <time>2025-04-05T09:23:01Z</time>
      </trkpt>
      <trkpt lat="50.16646" lon="4.74256">
        <ele>207.8</ele>
        <time>2025-04-05T09:23:02Z</time>
      </trkpt>
      <trkpt lat="50.16645" lon="4.74262">
        <ele>208</ele>
        <time>2025-04-05T09:23:03Z</time>
      </trkpt>
      <trkpt lat="50.16644" lon="4.74268">
        <ele>208</ele>
        <time>2025-04-05T09:23:04Z</time>
      </trkpt>
      <trkpt lat="50.16643" lon="4.74276">
        <ele>208.2</ele>
        <time>2025-04-05T09:23:05Z</time>
      </trkpt>
      <trkpt lat="50.16642" lon="4.74282">
        <ele>208.2</ele>
        <time>2025-04-05T09:23:06Z</time>
      </trkpt>
      <trkpt lat="50.16641" lon="4.74288">
        <ele>208.4</ele>
        <time>2025-04-05T09:23:07Z</time>
      </trkpt>
      <trkpt lat="50.16641" lon="4.74294">
        <ele>208.4</ele>
        <time>2025-04-05T09:23:08Z</time>
      </trkpt>
      <trkpt lat="50.1664" lon="4.74299">
        <ele>208.4</ele>
        <time>2025-04-05T09:23:09Z</time>
      </trkpt>
      <trkpt lat="50.16639" lon="4.74305">
        <ele>208.6</ele>
        <time>2025-04-05T09:23:10Z</time>
      </trkpt>
      <trkpt lat="50.16638" lon="4.74312">
        <ele>208.6</ele>
        <time>2025-04-05T09:23:11Z</time>
      </trkpt>
      <trkpt lat="50.16638" lon="4.74318">
        <ele>208.8</ele>
        <time>2025-04-05T09:23:12Z</time>
      </trkpt>
      <trkpt lat="50.16637" lon="4.74325">
        <ele>208.8</ele>
        <time>2025-04-05T09:23:13Z</time>
      </trkpt>
      <trkpt lat="50.16637" lon="4.74332">
        <ele>209</ele>
        <time>2025-04-05T09:23:14Z</time>
      </trkpt>
      <trkpt lat="50.16636" lon="4.74338">
        <ele>209</ele>
        <time>2025-04-05T09:23:15Z</time>
      </trkpt>
      <trkpt lat="50.16635" lon="4.74344">
        <ele>209</ele>
        <time>2025-04-05T09:23:16Z</time>
      </trkpt>
      <trkpt lat="50.16635" lon="4.7435">
        <ele>209.2</ele>
        <time>2025-04-05T09:23:17Z</time>
      </trkpt>
      <trkpt lat="50.16634" lon="4.74357">
        <ele>209.2</ele>
        <time>2025-04-05T09:23:18Z</time>
      </trkpt>
      <trkpt lat="50.16633" lon="4.74363">
        <ele>209.2</ele>
        <time>2025-04-05T09:23:19Z</time>
      </trkpt>
      <trkpt lat="50.16633" lon="4.7437">
        <ele>209.4</ele>
        <time>2025-04-05T09:23:20Z</time>
      </trkpt>
      <trkpt lat="50.16632" lon="4.74376">
        <ele>209.4</ele>
        <time>2025-04-05T09:23:21Z</time>
      </trkpt>
      <trkpt lat="50.16631" lon="4.74384">
        <ele>209.6</ele>
        <time>2025-04-05T09:23:22Z</time>
      </trkpt>
      <trkpt lat="50.16631" lon="4.74391">
        <ele>209.6</ele>
        <time>2025-04-05T09:23:23Z</time>
      </trkpt>
      <trkpt lat="50.1663" lon="4.74396">
        <ele>209.8</ele>
        <time>2025-04-05T09:23:24Z</time>
      </trkpt>
      <trkpt lat="50.1663" lon="4.74404">
        <ele>209.8</ele>
        <time>2025-04-05T09:23:25Z</time>
      </trkpt>
      <trkpt lat="50.16629" lon="4.74411">
        <ele>209.8</ele>
        <time>2025-04-05T09:23:26Z</time>
      </trkpt>
      <trkpt lat="50.16629" lon="4.74416">
        <ele>210</ele>
        <time>2025-04-05T09:23:27Z</time>
      </trkpt>
      <trkpt lat="50.16628" lon="4.74424">
        <ele>210</ele>
        <time>2025-04-05T09:23:28Z</time>
      </trkpt>
      <trkpt lat="50.16628" lon="4.74429">
        <ele>209.8</ele>
        <time>2025-04-05T09:23:29Z</time>
      </trkpt>
      <trkpt lat="50.16627" lon="4.74436">
        <ele>209.8</ele>
        <time>2025-04-05T09:23:30Z</time>
      </trkpt>
      <trkpt lat="50.16626" lon="4.74444">
        <ele>209.8</ele>
        <time>2025-04-05T09:23:31Z</time>
      </trkpt>
      <trkpt lat="50.16626" lon="4.7445">
        <ele>210</ele>
        <time>2025-04-05T09:23:32Z</time>
      </trkpt>
      <trkpt lat="50.16625" lon="4.74455">
        <ele>210.2</ele>
        <time>2025-04-05T09:23:33Z</time>
      </trkpt>
      <trkpt lat="50.16624" lon="4.74463">
        <ele>210.4</ele>
        <time>2025-04-05T09:23:34Z</time>
      </trkpt>
      <trkpt lat="50.16624" lon="4.74469">
        <ele>210.4</ele>
        <time>2025-04-05T09:23:35Z</time>
      </trkpt>
      <trkpt lat="50.16623" lon="4.74475">
        <ele>210.6</ele>
        <time>2025-04-05T09:23:36Z</time>
      </trkpt>
      <trkpt lat="50.16623" lon="4.74482">
        <ele>210.6</ele>
        <time>2025-04-05T09:23:37Z</time>
      </trkpt>
      <trkpt lat="50.16622" lon="4.74489">
        <ele>210.8</ele>
        <time>2025-04-05T09:23:38Z</time>
      </trkpt>
      <trkpt lat="50.16621" lon="4.74495">
        <ele>211</ele>
        <time>2025-04-05T09:23:39Z</time>
      </trkpt>
      <trkpt lat="50.16621" lon="4.74502">
        <ele>211</ele>
        <time>2025-04-05T09:23:40Z</time>
      </trkpt>
      <trkpt lat="50.1662" lon="4.74507">
        <ele>211</ele>
        <time>2025-04-05T09:23:41Z</time>
      </trkpt>
      <trkpt lat="50.1662" lon="4.74514">
        <ele>211.2</ele>
        <time>2025-04-05T09:23:42Z</time>
      </trkpt>
      <trkpt lat="50.16619" lon="4.7452">
        <ele>211.2</ele>
        <time>2025-04-05T09:23:43Z</time>
      </trkpt>
      <trkpt lat="50.16618" lon="4.74527">
        <ele>211.4</ele>
        <time>2025-04-05T09:23:44Z</time>
      </trkpt>
      <trkpt lat="50.16618" lon="4.74534">
        <ele>211.6</ele>
        <time>2025-04-05T09:23:45Z</time>
      </trkpt>
      <trkpt lat="50.16617" lon="4.7454">
        <ele>211.6</ele>
        <time>2025-04-05T09:23:46Z</time>
      </trkpt>
      <trkpt lat="50.16617" lon="4.74547">
        <ele>211.8</ele>
        <time>2025-04-05T09:23:47Z</time>
      </trkpt>
      <trkpt lat="50.16616" lon="4.74554">
        <ele>211.8</ele>
        <time>2025-04-05T09:23:48Z</time>
      </trkpt>
      <trkpt lat="50.16615" lon="4.7456">
        <ele>212</ele>
        <time>2025-04-05T09:23:49Z</time>
      </trkpt>
      <trkpt lat="50.16615" lon="4.74567">
        <ele>212</ele>
        <time>2025-04-05T09:23:50Z</time>
      </trkpt>
      <trkpt lat="50.16614" lon="4.74573">
        <ele>212.2</ele>
        <time>2025-04-05T09:23:51Z</time>
      </trkpt>
      <trkpt lat="50.16613" lon="4.74581">
        <ele>212.2</ele>
        <time>2025-04-05T09:23:52Z</time>
      </trkpt>
      <trkpt lat="50.16613" lon="4.74586">
        <ele>212.4</ele>
        <time>2025-04-05T09:23:53Z</time>
      </trkpt>
      <trkpt lat="50.16613" lon="4.74594">
        <ele>212.4</ele>
        <time>2025-04-05T09:23:54Z</time>
      </trkpt>
      <trkpt lat="50.16612" lon="4.74601">
        <ele>212.4</ele>
        <time>2025-04-05T09:23:55Z</time>
      </trkpt>
      <trkpt lat="50.16611" lon="4.74607">
        <ele>212.6</ele>
        <time>2025-04-05T09:23:56Z</time>
      </trkpt>
      <trkpt lat="50.16611" lon="4.74614">
        <ele>212.6</ele>
        <time>2025-04-05T09:23:57Z</time>
      </trkpt>
      <trkpt lat="50.1661" lon="4.74621">
        <ele>212.8</ele>
        <time>2025-04-05T09:23:58Z</time>
      </trkpt>
      <trkpt lat="50.1661" lon="4.74627">
        <ele>213</ele>
        <time>2025-04-05T09:23:59Z</time>
      </trkpt>
      <trkpt lat="50.16609" lon="4.74633">
        <ele>213</ele>
        <time>2025-04-05T09:24:00Z</time>
      </trkpt>
      <trkpt lat="50.16608" lon="4.74641">
        <ele>213.2</ele>
        <time>2025-04-05T09:24:01Z</time>
      </trkpt>
      <trkpt lat="50.16608" lon="4.74648">
        <ele>213.2</ele>
        <time>2025-04-05T09:24:02Z</time>
      </trkpt>
      <trkpt lat="50.16607" lon="4.74654">
        <ele>213.2</ele>
        <time>2025-04-05T09:24:03Z</time>
      </trkpt>
      <trkpt lat="50.16607" lon="4.7466">
        <ele>213.2</ele>
        <time>2025-04-05T09:24:04Z</time>
      </trkpt>
      <trkpt lat="50.16605" lon="4.74666">
        <ele>213.4</ele>
        <time>2025-04-05T09:24:05Z</time>
      </trkpt>
      <trkpt lat="50.16605" lon="4.74673">
        <ele>213.6</ele>
        <time>2025-04-05T09:24:06Z</time>
      </trkpt>
      <trkpt lat="50.16605" lon="4.74681">
        <ele>213.6</ele>
        <time>2025-04-05T09:24:07Z</time>
      </trkpt>
      <trkpt lat="50.16604" lon="4.74688">
        <ele>213.8</ele>
        <time>2025-04-05T09:24:08Z</time>
      </trkpt>
      <trkpt lat="50.16604" lon="4.74693">
        <ele>213.8</ele>
        <time>2025-04-05T09:24:09Z</time>
      </trkpt>
      <trkpt lat="50.16603" lon="4.74701">
        <ele>214</ele>
        <time>2025-04-05T09:24:10Z</time>
      </trkpt>
      <trkpt lat="50.16603" lon="4.74708">
        <ele>214</ele>
        <time>2025-04-05T09:24:11Z</time>
      </trkpt>
      <trkpt lat="50.16602" lon="4.74713">
        <ele>214</ele>
        <time>2025-04-05T09:24:12Z</time>
      </trkpt>
      <trkpt lat="50.16602" lon="4.74721">
        <ele>214.2</ele>
        <time>2025-04-05T09:24:13Z</time>
      </trkpt>
      <trkpt lat="50.16601" lon="4.74728">
        <ele>214.2</ele>
        <time>2025-04-05T09:24:14Z</time>
      </trkpt>
      <trkpt lat="50.166" lon="4.74735">
        <ele>214.4</ele>
        <time>2025-04-05T09:24:15Z</time>
      </trkpt>
      <trkpt lat="50.166" lon="4.74742">
        <ele>214.4</ele>
        <time>2025-04-05T09:24:16Z</time>
      </trkpt>
      <trkpt lat="50.166" lon="4.74748">
        <ele>214.6</ele>
        <time>2025-04-05T09:24:17Z</time>
      </trkpt>
      <trkpt lat="50.16599" lon="4.74755">
        <ele>214.6</ele>
        <time>2025-04-05T09:24:18Z</time>
      </trkpt>
      <trkpt lat="50.16597" lon="4.74762">
        <ele>214.6</ele>
        <time>2025-04-05T09:24:19Z</time>
      </trkpt>
      <trkpt lat="50.16597" lon="4.74769">
        <ele>214.8</ele>
        <time>2025-04-05T09:24:20Z</time>
      </trkpt>
      <trkpt lat="50.16596" lon="4.74775">
        <ele>214.8</ele>
        <time>2025-04-05T09:24:21Z</time>
      </trkpt>
      <trkpt lat="50.16596" lon="4.74782">
        <ele>214.8</ele>
        <time>2025-04-05T09:24:22Z</time>
      </trkpt>
      <trkpt lat="50.16596" lon="4.7479">
        <ele>215</ele>
        <time>2025-04-05T09:24:23Z</time>
      </trkpt>
      <trkpt lat="50.16595" lon="4.74798">
        <ele>215</ele>
        <time>2025-04-05T09:24:24Z</time>
      </trkpt>
      <trkpt lat="50.16594" lon="4.74805">
        <ele>215.2</ele>
        <time>2025-04-05T09:24:25Z</time>
      </trkpt>
      <trkpt lat="50.16594" lon="4.7481">
        <ele>215.2</ele>
        <time>2025-04-05T09:24:26Z</time>
      </trkpt>
      <trkpt lat="50.16594" lon="4.74817">
        <ele>215.2</ele>
        <time>2025-04-05T09:24:27Z</time>
      </trkpt>
      <trkpt lat="50.16594" lon="4.74824">
        <ele>215.2</ele>
        <time>2025-04-05T09:24:28Z</time>
      </trkpt>
      <trkpt lat="50.16594" lon="4.74831">
        <ele>215.2</ele>
        <time>2025-04-05T09:24:29Z</time>
      </trkpt>
      <trkpt lat="50.16594" lon="4.74838">
        <ele>215.2</ele>
        <time>2025-04-05T09:24:30Z</time>
      </trkpt>
      <trkpt lat="50.16594" lon="4.74845">
        <ele>215.2</ele>
        <time>2025-04-05T09:24:31Z</time>
      </trkpt>
      <trkpt lat="50.16594" lon="4.74853">
        <ele>215.2</ele>
        <time>2025-04-05T09:24:32Z</time>
      </trkpt>
      <trkpt lat="50.16594" lon="4.74859">
        <ele>215.4</ele>
        <time>2025-04-05T09:24:33Z</time>
      </trkpt>
      <trkpt lat="50.16594" lon="4.74865">
        <ele>215.4</ele>
        <time>2025-04-05T09:24:34Z</time>
      </trkpt>
      <trkpt lat="50.16594" lon="4.74872">
        <ele>215.4</ele>
        <time>2025-04-05T09:24:35Z</time>
      </trkpt>
      <trkpt lat="50.16594" lon="4.74879">
        <ele>215.4</ele>
        <time>2025-04-05T09:24:36Z</time>
      </trkpt>
      <trkpt lat="50.16595" lon="4.74886">
        <ele>215.6</ele>
        <time>2025-04-05T09:24:37Z</time>
      </trkpt>
      <trkpt lat="50.16594" lon="4.74893">
        <ele>215.8</ele>
        <time>2025-04-05T09:24:38Z</time>
      </trkpt>
      <trkpt lat="50.16594" lon="4.74899">
        <ele>216</ele>
        <time>2025-04-05T09:24:39Z</time>
      </trkpt>
      <trkpt lat="50.16594" lon="4.74905">
        <ele>216</ele>
        <time>2025-04-05T09:24:40Z</time>
      </trkpt>
      <trkpt lat="50.16594" lon="4.74912">
        <ele>216.2</ele>
        <time>2025-04-05T09:24:41Z</time>
      </trkpt>
      <trkpt lat="50.16594" lon="4.74919">
        <ele>216.2</ele>
        <time>2025-04-05T09:24:42Z</time>
      </trkpt>
      <trkpt lat="50.16594" lon="4.74927">
        <ele>216.4</ele>
        <time>2025-04-05T09:24:43Z</time>
      </trkpt>
      <trkpt lat="50.16594" lon="4.74934">
        <ele>216.4</ele>
        <time>2025-04-05T09:24:44Z</time>
      </trkpt>
      <trkpt lat="50.16595" lon="4.74941">
        <ele>216.4</ele>
        <time>2025-04-05T09:24:45Z</time>
      </trkpt>
      <trkpt lat="50.16595" lon="4.7495">
        <ele>216.4</ele>
        <time>2025-04-05T09:24:46Z</time>
      </trkpt>
      <trkpt lat="50.16596" lon="4.74957">
        <ele>216.6</ele>
        <time>2025-04-05T09:24:47Z</time>
      </trkpt>
      <trkpt lat="50.16596" lon="4.74963">
        <ele>216.6</ele>
        <time>2025-04-05T09:24:48Z</time>
      </trkpt>
      <trkpt lat="50.16597" lon="4.74971">
        <ele>216.6</ele>
        <time>2025-04-05T09:24:49Z</time>
      </trkpt>
      <trkpt lat="50.16597" lon="4.74978">
        <ele>216.6</ele>
        <time>2025-04-05T09:24:50Z</time>
      </trkpt>
      <trkpt lat="50.16598" lon="4.74987">
        <ele>216.6</ele>
        <time>2025-04-05T09:24:51Z</time>
      </trkpt>
      <trkpt lat="50.16599" lon="4.74994">
        <ele>216.6</ele>
        <time>2025-04-05T09:24:52Z</time>
      </trkpt>
      <trkpt lat="50.16599" lon="4.75002">
        <ele>216.6</ele>
        <time>2025-04-05T09:24:53Z</time>
      </trkpt>
      <trkpt lat="50.16599" lon="4.7501">
        <ele>216.6</ele>
        <time>2025-04-05T09:24:54Z</time>
      </trkpt>
      <trkpt lat="50.166" lon="4.75018">
        <ele>216.6</ele>
        <time>2025-04-05T09:24:55Z</time>
      </trkpt>
      <trkpt lat="50.166" lon="4.75028">
        <ele>216.6</ele>
        <time>2025-04-05T09:24:56Z</time>
      </trkpt>
      <trkpt lat="50.166" lon="4.75035">
        <ele>216.6</ele>
        <time>2025-04-05T09:24:57Z</time>
      </trkpt>
      <trkpt lat="50.16601" lon="4.75043">
        <ele>216.6</ele>
        <time>2025-04-05T09:24:58Z</time>
      </trkpt>
      <trkpt lat="50.16602" lon="4.75053">
        <ele>216.6</ele>
        <time>2025-04-05T09:24:59Z</time>
      </trkpt>
      <trkpt lat="50.16602" lon="4.7506">
        <ele>216.8</ele>
        <time>2025-04-05T09:25:00Z</time>
      </trkpt>
      <trkpt lat="50.16602" lon="4.75068">
        <ele>216.8</ele>
        <time>2025-04-05T09:25:01Z</time>
      </trkpt>
      <trkpt lat="50.16602" lon="4.75076">
        <ele>216.8</ele>
        <time>2025-04-05T09:25:02Z</time>
      </trkpt>
      <trkpt lat="50.16602" lon="4.75085">
        <ele>216.8</ele>
        <time>2025-04-05T09:25:03Z</time>
      </trkpt>
      <trkpt lat="50.16601" lon="4.75093">
        <ele>216.8</ele>
        <time>2025-04-05T09:25:04Z</time>
      </trkpt>
      <trkpt lat="50.166" lon="4.75103">
        <ele>216.8</ele>
        <time>2025-04-05T09:25:05Z</time>
      </trkpt>
      <trkpt lat="50.16599" lon="4.75108">
        <ele>216.8</ele>
        <time>2025-04-05T09:25:06Z</time>
      </trkpt>
      <trkpt lat="50.16598" lon="4.75115">
        <ele>216.8</ele>
        <time>2025-04-05T09:25:07Z</time>
      </trkpt>
      <trkpt lat="50.16597" lon="4.75122">
        <ele>216.8</ele>
        <time>2025-04-05T09:25:08Z</time>
      </trkpt>
      <trkpt lat="50.16596" lon="4.75129">
        <ele>216.8</ele>
        <time>2025-04-05T09:25:09Z</time>
      </trkpt>
      <trkpt lat="50.16595" lon="4.75137">
        <ele>216.8</ele>
        <time>2025-04-05T09:25:10Z</time>
      </trkpt>
      <trkpt lat="50.16595" lon="4.75144">
        <ele>216.8</ele>
        <time>2025-04-05T09:25:11Z</time>
      </trkpt>
      <trkpt lat="50.16595" lon="4.75152">
        <ele>216.8</ele>
        <time>2025-04-05T09:25:12Z</time>
      </trkpt>
      <trkpt lat="50.16596" lon="4.75159">
        <ele>216.8</ele>
        <time>2025-04-05T09:25:13Z</time>
      </trkpt>
      <trkpt lat="50.16596" lon="4.75167">
        <ele>216.8</ele>
        <time>2025-04-05T09:25:14Z</time>
      </trkpt>
      <trkpt lat="50.16596" lon="4.75175">
        <ele>216.8</ele>
        <time>2025-04-05T09:25:15Z</time>
      </trkpt>
      <trkpt lat="50.16593" lon="4.75183">
        <ele>217</ele>
        <time>2025-04-05T09:25:16Z</time>
      </trkpt>
      <trkpt lat="50.1659" lon="4.75191">
        <ele>217</ele>
        <time>2025-04-05T09:25:17Z</time>
      </trkpt>
      <trkpt lat="50.16588" lon="4.75199">
        <ele>217</ele>
        <time>2025-04-05T09:25:18Z</time>
      </trkpt>
      <trkpt lat="50.16586" lon="4.75207">
        <ele>217.2</ele>
        <time>2025-04-05T09:25:19Z</time>
      </trkpt>
      <trkpt lat="50.16584" lon="4.75216">
        <ele>217.2</ele>
        <time>2025-04-05T09:25:20Z</time>
      </trkpt>
      <trkpt lat="50.16584" lon="4.75224">
        <ele>217.2</ele>
        <time>2025-04-05T09:25:21Z</time>
      </trkpt>
      <trkpt lat="50.16583" lon="4.75232">
        <ele>217.4</ele>
        <time>2025-04-05T09:25:22Z</time>
      </trkpt>
      <trkpt lat="50.16581" lon="4.75241">
        <ele>217.4</ele>
        <time>2025-04-05T09:25:23Z</time>
      </trkpt>
      <trkpt lat="50.16579" lon="4.75248">
        <ele>217.6</ele>
        <time>2025-04-05T09:25:24Z</time>
      </trkpt>
      <trkpt lat="50.16579" lon="4.75257">
        <ele>217.6</ele>
        <time>2025-04-05T09:25:25Z</time>
      </trkpt>
      <trkpt lat="50.16578" lon="4.75266">
        <ele>217.6</ele>
        <time>2025-04-05T09:25:26Z</time>
      </trkpt>
      <trkpt lat="50.16577" lon="4.75274">
        <ele>217.8</ele>
        <time>2025-04-05T09:25:27Z</time>
      </trkpt>
      <trkpt lat="50.16575" lon="4.75284">
        <ele>217.8</ele>
        <time>2025-04-05T09:25:28Z</time>
      </trkpt>
      <trkpt lat="50.16573" lon="4.75292">
        <ele>218</ele>
        <time>2025-04-05T09:25:29Z</time>
      </trkpt>
      <trkpt lat="50.1657" lon="4.753">
        <ele>218</ele>
        <time>2025-04-05T09:25:30Z</time>
      </trkpt>
      <trkpt lat="50.16568" lon="4.75308">
        <ele>218.2</ele>
        <time>2025-04-05T09:25:31Z</time>
      </trkpt>
      <trkpt lat="50.16566" lon="4.75315">
        <ele>218.4</ele>
        <time>2025-04-05T09:25:32Z</time>
      </trkpt>
      <trkpt lat="50.16566" lon="4.75324">
        <ele>218.4</ele>
        <time>2025-04-05T09:25:33Z</time>
      </trkpt>
      <trkpt lat="50.16564" lon="4.75332">
        <ele>218.6</ele>
        <time>2025-04-05T09:25:34Z</time>
      </trkpt>
      <trkpt lat="50.16562" lon="4.75338">
        <ele>218.8</ele>
        <time>2025-04-05T09:25:35Z</time>
      </trkpt>
      <trkpt lat="50.16561" lon="4.75346">
        <ele>218.8</ele>
        <time>2025-04-05T09:25:36Z</time>
      </trkpt>
      <trkpt lat="50.1656" lon="4.75353">
        <ele>219</ele>
        <time>2025-04-05T09:25:37Z</time>
      </trkpt>
      <trkpt lat="50.16558" lon="4.7536">
        <ele>219</ele>
        <time>2025-04-05T09:25:38Z</time>
      </trkpt>
      <trkpt lat="50.16556" lon="4.75367">
        <ele>219.2</ele>
        <time>2025-04-05T09:25:39Z</time>
      </trkpt>
      <trkpt lat="50.16554" lon="4.75373">
        <ele>219.2</ele>
        <time>2025-04-05T09:25:40Z</time>
      </trkpt>
      <trkpt lat="50.16552" lon="4.7538">
        <ele>219.2</ele>
        <time>2025-04-05T09:25:41Z</time>
      </trkpt>
      <trkpt lat="50.1655" lon="4.75389">
        <ele>219.4</ele>
        <time>2025-04-05T09:25:42Z</time>
      </trkpt>
      <trkpt lat="50.16548" lon="4.75396">
        <ele>219.4</ele>
        <time>2025-04-05T09:25:43Z</time>
      </trkpt>
      <trkpt lat="50.16545" lon="4.75404">
        <ele>219.4</ele>
        <time>2025-04-05T09:25:44Z</time>
      </trkpt>
      <trkpt lat="50.16542" lon="4.75413">
        <ele>219.4</ele>
        <time>2025-04-05T09:25:45Z</time>
      </trkpt>
      <trkpt lat="50.16541" lon="4.7542">
        <ele>219.4</ele>
        <time>2025-04-05T09:25:46Z</time>
      </trkpt>
      <trkpt lat="50.16539" lon="4.75427">
        <ele>219.4</ele>
        <time>2025-04-05T09:25:47Z</time>
      </trkpt>
      <trkpt lat="50.16538" lon="4.75434">
        <ele>219.4</ele>
        <time>2025-04-05T09:25:48Z</time>
      </trkpt>
      <trkpt lat="50.16536" lon="4.7544">
        <ele>219.6</ele>
        <time>2025-04-05T09:25:49Z</time>
      </trkpt>
      <trkpt lat="50.16533" lon="4.75447">
        <ele>219.6</ele>
        <time>2025-04-05T09:25:50Z</time>
      </trkpt>
      <trkpt lat="50.16532" lon="4.75453">
        <ele>219.6</ele>
        <time>2025-04-05T09:25:51Z</time>
      </trkpt>
      <trkpt lat="50.16531" lon="4.75459">
        <ele>219.6</ele>
        <time>2025-04-05T09:25:52Z</time>
      </trkpt>
      <trkpt lat="50.16529" lon="4.75467">
        <ele>219.6</ele>
        <time>2025-04-05T09:25:53Z</time>
      </trkpt>
      <trkpt lat="50.16528" lon="4.75473">
        <ele>219.6</ele>
        <time>2025-04-05T09:25:54Z</time>
      </trkpt>
      <trkpt lat="50.16525" lon="4.7548">
        <ele>219.6</ele>
        <time>2025-04-05T09:25:55Z</time>
      </trkpt>
      <trkpt lat="50.16524" lon="4.75486">
        <ele>219.6</ele>
        <time>2025-04-05T09:25:56Z</time>
      </trkpt>
      <trkpt lat="50.16523" lon="4.75494">
        <ele>219.6</ele>
        <time>2025-04-05T09:25:57Z</time>
      </trkpt>
      <trkpt lat="50.16521" lon="4.75503">
        <ele>219.6</ele>
        <time>2025-04-05T09:25:58Z</time>
      </trkpt>
      <trkpt lat="50.16518" lon="4.7551">
        <ele>219.6</ele>
        <time>2025-04-05T09:25:59Z</time>
      </trkpt>
      <trkpt lat="50.16516" lon="4.75518">
        <ele>219.6</ele>
        <time>2025-04-05T09:26:00Z</time>
      </trkpt>
      <trkpt lat="50.16513" lon="4.75524">
        <ele>219.6</ele>
        <time>2025-04-05T09:26:01Z</time>
      </trkpt>
      <trkpt lat="50.16512" lon="4.75531">
        <ele>219.6</ele>
        <time>2025-04-05T09:26:02Z</time>
      </trkpt>
      <trkpt lat="50.1651" lon="4.75539">
        <ele>219.6</ele>
        <time>2025-04-05T09:26:03Z</time>
      </trkpt>
      <trkpt lat="50.16509" lon="4.75547">
        <ele>219.8</ele>
        <time>2025-04-05T09:26:04Z</time>
      </trkpt>
      <trkpt lat="50.16507" lon="4.75553">
        <ele>219.8</ele>
        <time>2025-04-05T09:26:05Z</time>
      </trkpt>
      <trkpt lat="50.16506" lon="4.75559">
        <ele>219.8</ele>
        <time>2025-04-05T09:26:06Z</time>
      </trkpt>
      <trkpt lat="50.16505" lon="4.75567">
        <ele>219.8</ele>
        <time>2025-04-05T09:26:07Z</time>
      </trkpt>
      <trkpt lat="50.16504" lon="4.75574">
        <ele>219.8</ele>
        <time>2025-04-05T09:26:08Z</time>
      </trkpt>
      <trkpt lat="50.16502" lon="4.75581">
        <ele>219.8</ele>
        <time>2025-04-05T09:26:09Z</time>
      </trkpt>
      <trkpt lat="50.16501" lon="4.75587">
        <ele>219.8</ele>
        <time>2025-04-05T09:26:10Z</time>
      </trkpt>
      <trkpt lat="50.16499" lon="4.75593">
        <ele>219.8</ele>
        <time>2025-04-05T09:26:11Z</time>
      </trkpt>
      <trkpt lat="50.16497" lon="4.75602">
        <ele>219.8</ele>
        <time>2025-04-05T09:26:12Z</time>
      </trkpt>
      <trkpt lat="50.16496" lon="4.75608">
        <ele>219.8</ele>
        <time>2025-04-05T09:26:13Z</time>
      </trkpt>
      <trkpt lat="50.16495" lon="4.75615">
        <ele>219.8</ele>
        <time>2025-04-05T09:26:14Z</time>
      </trkpt>
      <trkpt lat="50.16493" lon="4.75623">
        <ele>219.8</ele>
        <time>2025-04-05T09:26:15Z</time>
      </trkpt>
      <trkpt lat="50.16491" lon="4.75631">
        <ele>219.8</ele>
        <time>2025-04-05T09:26:16Z</time>
      </trkpt>
      <trkpt lat="50.16489" lon="4.75638">
        <ele>219.8</ele>
        <time>2025-04-05T09:26:17Z</time>
      </trkpt>
      <trkpt lat="50.16488" lon="4.75645">
        <ele>219.8</ele>
        <time>2025-04-05T09:26:18Z</time>
      </trkpt>
      <trkpt lat="50.16486" lon="4.75652">
        <ele>219.6</ele>
        <time>2025-04-05T09:26:19Z</time>
      </trkpt>
      <trkpt lat="50.16484" lon="4.75661">
        <ele>219.6</ele>
        <time>2025-04-05T09:26:20Z</time>
      </trkpt>
      <trkpt lat="50.16481" lon="4.75668">
        <ele>219.4</ele>
        <time>2025-04-05T09:26:21Z</time>
      </trkpt>
      <trkpt lat="50.1648" lon="4.75676">
        <ele>219.4</ele>
        <time>2025-04-05T09:26:22Z</time>
      </trkpt>
      <trkpt lat="50.16478" lon="4.75683">
        <ele>219.2</ele>
        <time>2025-04-05T09:26:23Z</time>
      </trkpt>
      <trkpt lat="50.16476" lon="4.75691">
        <ele>219.2</ele>
        <time>2025-04-05T09:26:24Z</time>
      </trkpt>
      <trkpt lat="50.16474" lon="4.75699">
        <ele>219</ele>
        <time>2025-04-05T09:26:25Z</time>
      </trkpt>
      <trkpt lat="50.16472" lon="4.75707">
        <ele>218.8</ele>
        <time>2025-04-05T09:26:26Z</time>
      </trkpt>
      <trkpt lat="50.16471" lon="4.75714">
        <ele>218.8</ele>
        <time>2025-04-05T09:26:27Z</time>
      </trkpt>
      <trkpt lat="50.16468" lon="4.75722">
        <ele>218.6</ele>
        <time>2025-04-05T09:26:28Z</time>
      </trkpt>
      <trkpt lat="50.16465" lon="4.75732">
        <ele>218.4</ele>
        <time>2025-04-05T09:26:29Z</time>
      </trkpt>
      <trkpt lat="50.16463" lon="4.75739">
        <ele>218.2</ele>
        <time>2025-04-05T09:26:30Z</time>
      </trkpt>
      <trkpt lat="50.16461" lon="4.75747">
        <ele>218.2</ele>
        <time>2025-04-05T09:26:31Z</time>
      </trkpt>
      <trkpt lat="50.16459" lon="4.75755">
        <ele>218</ele>
        <time>2025-04-05T09:26:32Z</time>
      </trkpt>
      <trkpt lat="50.16457" lon="4.75764">
        <ele>218</ele>
        <time>2025-04-05T09:26:33Z</time>
      </trkpt>
      <trkpt lat="50.16455" lon="4.75772">
        <ele>217.8</ele>
        <time>2025-04-05T09:26:34Z</time>
      </trkpt>
      <trkpt lat="50.16453" lon="4.7578">
        <ele>217.8</ele>
        <time>2025-04-05T09:26:35Z</time>
      </trkpt>
      <trkpt lat="50.16451" lon="4.75789">
        <ele>217.6</ele>
        <time>2025-04-05T09:26:36Z</time>
      </trkpt>
      <trkpt lat="50.16449" lon="4.75797">
        <ele>217.4</ele>
        <time>2025-04-05T09:26:37Z</time>
      </trkpt>
      <trkpt lat="50.16446" lon="4.75806">
        <ele>217.4</ele>
        <time>2025-04-05T09:26:38Z</time>
      </trkpt>
      <trkpt lat="50.16444" lon="4.75813">
        <ele>217.2</ele>
        <time>2025-04-05T09:26:39Z</time>
      </trkpt>
      <trkpt lat="50.16442" lon="4.75823">
        <ele>217.2</ele>
        <time>2025-04-05T09:26:40Z</time>
      </trkpt>
      <trkpt lat="50.16439" lon="4.7583">
        <ele>217</ele>
        <time>2025-04-05T09:26:41Z</time>
      </trkpt>
      <trkpt lat="50.16437" lon="4.7584">
        <ele>217</ele>
        <time>2025-04-05T09:26:42Z</time>
      </trkpt>
      <trkpt lat="50.16435" lon="4.75849">
        <ele>216.8</ele>
        <time>2025-04-05T09:26:43Z</time>
      </trkpt>
      <trkpt lat="50.16432" lon="4.75858">
        <ele>216.6</ele>
        <time>2025-04-05T09:26:44Z</time>
      </trkpt>
      <trkpt lat="50.16429" lon="4.75866">
        <ele>216.6</ele>
        <time>2025-04-05T09:26:45Z</time>
      </trkpt>
      <trkpt lat="50.16426" lon="4.75878">
        <ele>216.4</ele>
        <time>2025-04-05T09:26:46Z</time>
      </trkpt>
      <trkpt lat="50.16423" lon="4.75888">
        <ele>216.4</ele>
        <time>2025-04-05T09:26:47Z</time>
      </trkpt>
      <trkpt lat="50.16421" lon="4.75898">
        <ele>216.2</ele>
        <time>2025-04-05T09:26:48Z</time>
      </trkpt>
      <trkpt lat="50.16419" lon="4.75906">
        <ele>216.2</ele>
        <time>2025-04-05T09:26:49Z</time>
      </trkpt>
      <trkpt lat="50.16416" lon="4.75919">
        <ele>216</ele>
        <time>2025-04-05T09:26:50Z</time>
      </trkpt>
      <trkpt lat="50.16415" lon="4.7593">
        <ele>215.8</ele>
        <time>2025-04-05T09:26:51Z</time>
      </trkpt>
      <trkpt lat="50.16414" lon="4.75938">
        <ele>215.8</ele>
        <time>2025-04-05T09:26:52Z</time>
      </trkpt>
      <trkpt lat="50.16412" lon="4.75948">
        <ele>215.8</ele>
        <time>2025-04-05T09:26:53Z</time>
      </trkpt>
      <trkpt lat="50.16412" lon="4.75958">
        <ele>215.6</ele>
        <time>2025-04-05T09:26:54Z</time>
      </trkpt>
      <trkpt lat="50.16411" lon="4.7597">
        <ele>215.6</ele>
        <time>2025-04-05T09:26:55Z</time>
      </trkpt>
      <trkpt lat="50.1641" lon="4.75982">
        <ele>215.6</ele>
        <time>2025-04-05T09:26:56Z</time>
      </trkpt>
      <trkpt lat="50.1641" lon="4.75992">
        <ele>215.6</ele>
        <time>2025-04-05T09:26:57Z</time>
      </trkpt>
      <trkpt lat="50.1641" lon="4.76002">
        <ele>215.4</ele>
        <time>2025-04-05T09:26:58Z</time>
      </trkpt>
      <trkpt lat="50.16411" lon="4.76013">
        <ele>215.4</ele>
        <time>2025-04-05T09:26:59Z</time>
      </trkpt>
      <trkpt lat="50.16412" lon="4.76022">
        <ele>215.4</ele>
        <time>2025-04-05T09:27:00Z</time>
      </trkpt>
      <trkpt lat="50.16412" lon="4.76029">
        <ele>215.4</ele>
        <time>2025-04-05T09:27:01Z</time>
      </trkpt>
      <trkpt lat="50.16412" lon="4.76039">
        <ele>215.4</ele>
        <time>2025-04-05T09:27:02Z</time>
      </trkpt>
      <trkpt lat="50.16412" lon="4.76046">
        <ele>215.6</ele>
        <time>2025-04-05T09:27:03Z</time>
      </trkpt>
      <trkpt lat="50.16413" lon="4.76055">
        <ele>215.6</ele>
        <time>2025-04-05T09:27:04Z</time>
      </trkpt>
      <trkpt lat="50.16415" lon="4.76066">
        <ele>215.6</ele>
        <time>2025-04-05T09:27:05Z</time>
      </trkpt>
      <trkpt lat="50.16416" lon="4.76077">
        <ele>215.8</ele>
        <time>2025-04-05T09:27:06Z</time>
      </trkpt>
      <trkpt lat="50.16418" lon="4.76086">
        <ele>215.8</ele>
        <time>2025-04-05T09:27:07Z</time>
      </trkpt>
      <trkpt lat="50.1642" lon="4.761">
        <ele>216</ele>
        <time>2025-04-05T09:27:08Z</time>
      </trkpt>
      <trkpt lat="50.1642" lon="4.76113">
        <ele>216.2</ele>
        <time>2025-04-05T09:27:09Z</time>
      </trkpt>
      <trkpt lat="50.16419" lon="4.76122">
        <ele>216.2</ele>
        <time>2025-04-05T09:27:10Z</time>
      </trkpt>
      <trkpt lat="50.16418" lon="4.76132">
        <ele>216.2</ele>
        <time>2025-04-05T09:27:11Z</time>
      </trkpt>
      <trkpt lat="50.16416" lon="4.76142">
        <ele>216.4</ele>
        <time>2025-04-05T09:27:12Z</time>
      </trkpt>
      <trkpt lat="50.16415" lon="4.7615">
        <ele>216.4</ele>
        <time>2025-04-05T09:27:13Z</time>
      </trkpt>
      <trkpt lat="50.16411" lon="4.76162">
        <ele>216.4</ele>
        <time>2025-04-05T09:27:14Z</time>
      </trkpt>
      <trkpt lat="50.16411" lon="4.76174">
        <ele>216.6</ele>
        <time>2025-04-05T09:27:15Z</time>
      </trkpt>
      <trkpt lat="50.16414" lon="4.76183">
        <ele>216.6</ele>
        <time>2025-04-05T09:27:16Z</time>
      </trkpt>
      <trkpt lat="50.16417" lon="4.76191">
        <ele>216.8</ele>
        <time>2025-04-05T09:27:17Z</time>
      </trkpt>
      <trkpt lat="50.16419" lon="4.76198">
        <ele>216.8</ele>
        <time>2025-04-05T09:27:18Z</time>
      </trkpt>
      <trkpt lat="50.1642" lon="4.76204">
        <ele>217</ele>
        <time>2025-04-05T09:27:19Z</time>
      </trkpt>
      <trkpt lat="50.16422" lon="4.76213">
        <ele>217</ele>
        <time>2025-04-05T09:27:20Z</time>
      </trkpt>
      <trkpt lat="50.16424" lon="4.76222">
        <ele>217.2</ele>
        <time>2025-04-05T09:27:21Z</time>
      </trkpt>
      <trkpt lat="50.16425" lon="4.76232">
        <ele>217.4</ele>
        <time>2025-04-05T09:27:22Z</time>
      </trkpt>
      <trkpt lat="50.16425" lon="4.76241">
        <ele>217.4</ele>
        <time>2025-04-05T09:27:23Z</time>
      </trkpt>
      <trkpt lat="50.16427" lon="4.76249">
        <ele>217.6</ele>
        <time>2025-04-05T09:27:24Z</time>
      </trkpt>
      <trkpt lat="50.16428" lon="4.76255">
        <ele>217.6</ele>
        <time>2025-04-05T09:27:25Z</time>
      </trkpt>
      <trkpt lat="50.16429" lon="4.76258">
        <ele>217.8</ele>
        <time>2025-04-05T09:27:26Z</time>
      </trkpt>
      <trkpt lat="50.1643" lon="4.76261">
        <ele>217.8</ele>
        <time>2025-04-05T09:27:27Z</time>
      </trkpt>
      <trkpt lat="50.1643" lon="4.76263">
        <ele>218</ele>
        <time>2025-04-05T09:27:28Z</time>
      </trkpt>
      <trkpt lat="50.1643" lon="4.76265">
        <ele>218</ele>
        <time>2025-04-05T09:27:29Z</time>
      </trkpt>
      <trkpt lat="50.1643" lon="4.76268">
        <ele>218.2</ele>
        <time>2025-04-05T09:27:30Z</time>
      </trkpt>
      <trkpt lat="50.1643" lon="4.76271">
        <ele>218.2</ele>
        <time>2025-04-05T09:27:31Z</time>
      </trkpt>
      <trkpt lat="50.16429" lon="4.76274">
        <ele>218.2</ele>
        <time>2025-04-05T09:27:32Z</time>
      </trkpt>
      <trkpt lat="50.1643" lon="4.76279">
        <ele>218.2</ele>
        <time>2025-04-05T09:27:33Z</time>
      </trkpt>
      <trkpt lat="50.16431" lon="4.76284">
        <ele>218.2</ele>
        <time>2025-04-05T09:27:34Z</time>
      </trkpt>
      <trkpt lat="50.16432" lon="4.76289">
        <ele>218.2</ele>
        <time>2025-04-05T09:27:35Z</time>
      </trkpt>
      <trkpt lat="50.16434" lon="4.76295">
        <ele>218.2</ele>
        <time>2025-04-05T09:27:36Z</time>
      </trkpt>
      <trkpt lat="50.16435" lon="4.76299">
        <ele>218.2</ele>
        <time>2025-04-05T09:27:37Z</time>
      </trkpt>
      <trkpt lat="50.16435" lon="4.76305">
        <ele>218.2</ele>
        <time>2025-04-05T09:27:38Z</time>
      </trkpt>
      <trkpt lat="50.16436" lon="4.76311">
        <ele>218.2</ele>
        <time>2025-04-05T09:27:39Z</time>
      </trkpt>
      <trkpt lat="50.16436" lon="4.76317">
        <ele>218.2</ele>
        <time>2025-04-05T09:27:40Z</time>
      </trkpt>
      <trkpt lat="50.16436" lon="4.76322">
        <ele>218.2</ele>
        <time>2025-04-05T09:27:41Z</time>
      </trkpt>
      <trkpt lat="50.16436" lon="4.76328">
        <ele>218.4</ele>
        <time>2025-04-05T09:27:42Z</time>
      </trkpt>
      <trkpt lat="50.16436" lon="4.76334">
        <ele>218.4</ele>
        <time>2025-04-05T09:27:43Z</time>
      </trkpt>
      <trkpt lat="50.16436" lon="4.7634">
        <ele>218.4</ele>
        <time>2025-04-05T09:27:44Z</time>
      </trkpt>
      <trkpt lat="50.16437" lon="4.76346">
        <ele>218.4</ele>
        <time>2025-04-05T09:27:45Z</time>
      </trkpt>
      <trkpt lat="50.16438" lon="4.76352">
        <ele>218.4</ele>
        <time>2025-04-05T09:27:46Z</time>
      </trkpt>
      <trkpt lat="50.16439" lon="4.76356">
        <ele>218.4</ele>
        <time>2025-04-05T09:27:47Z</time>
      </trkpt>
      <trkpt lat="50.1644" lon="4.76361">
        <ele>218.4</ele>
        <time>2025-04-05T09:27:48Z</time>
      </trkpt>
      <trkpt lat="50.16441" lon="4.76367">
        <ele>218.4</ele>
        <time>2025-04-05T09:27:49Z</time>
      </trkpt>
      <trkpt lat="50.16442" lon="4.76371">
        <ele>218.4</ele>
        <time>2025-04-05T09:27:50Z</time>
      </trkpt>
      <trkpt lat="50.16443" lon="4.76376">
        <ele>218.4</ele>
        <time>2025-04-05T09:27:51Z</time>
      </trkpt>
      <trkpt lat="50.16443" lon="4.76383">
        <ele>218.6</ele>
        <time>2025-04-05T09:27:52Z</time>
      </trkpt>
      <trkpt lat="50.16443" lon="4.76392">
        <ele>218.6</ele>
        <time>2025-04-05T09:27:53Z</time>
      </trkpt>
      <trkpt lat="50.16443" lon="4.764">
        <ele>218.6</ele>
        <time>2025-04-05T09:27:54Z</time>
      </trkpt>
      <trkpt lat="50.16444" lon="4.76408">
        <ele>218.6</ele>
        <time>2025-04-05T09:27:55Z</time>
      </trkpt>
      <trkpt lat="50.16445" lon="4.76416">
        <ele>218.6</ele>
        <time>2025-04-05T09:27:56Z</time>
      </trkpt>
      <trkpt lat="50.16446" lon="4.76427">
        <ele>218.6</ele>
        <time>2025-04-05T09:27:57Z</time>
      </trkpt>
      <trkpt lat="50.16448" lon="4.76436">
        <ele>218.8</ele>
        <time>2025-04-05T09:27:58Z</time>
      </trkpt>
      <trkpt lat="50.16449" lon="4.76445">
        <ele>218.8</ele>
        <time>2025-04-05T09:27:59Z</time>
      </trkpt>
      <trkpt lat="50.1645" lon="4.76455">
        <ele>218.8</ele>
        <time>2025-04-05T09:28:00Z</time>
      </trkpt>
      <trkpt lat="50.1645" lon="4.76463">
        <ele>218.8</ele>
        <time>2025-04-05T09:28:01Z</time>
      </trkpt>
      <trkpt lat="50.16451" lon="4.76469">
        <ele>218.8</ele>
        <time>2025-04-05T09:28:02Z</time>
      </trkpt>
      <trkpt lat="50.16451" lon="4.76475">
        <ele>218.8</ele>
        <time>2025-04-05T09:28:03Z</time>
      </trkpt>
      <trkpt lat="50.16452" lon="4.76483">
        <ele>219</ele>
        <time>2025-04-05T09:28:04Z</time>
      </trkpt>
      <trkpt lat="50.16452" lon="4.76492">
        <ele>219</ele>
        <time>2025-04-05T09:28:05Z</time>
      </trkpt>
      <trkpt lat="50.16454" lon="4.76499">
        <ele>219</ele>
        <time>2025-04-05T09:28:06Z</time>
      </trkpt>
      <trkpt lat="50.16457" lon="4.76506">
        <ele>219</ele>
        <time>2025-04-05T09:28:07Z</time>
      </trkpt>
      <trkpt lat="50.16459" lon="4.76514">
        <ele>219</ele>
        <time>2025-04-05T09:28:08Z</time>
      </trkpt>
      <trkpt lat="50.16458" lon="4.76525">
        <ele>219.2</ele>
        <time>2025-04-05T09:28:09Z</time>
      </trkpt>
      <trkpt lat="50.16457" lon="4.76533">
        <ele>219.2</ele>
        <time>2025-04-05T09:28:10Z</time>
      </trkpt>
      <trkpt lat="50.16457" lon="4.76541">
        <ele>219.2</ele>
        <time>2025-04-05T09:28:11Z</time>
      </trkpt>
      <trkpt lat="50.16458" lon="4.76556">
        <ele>219.4</ele>
        <time>2025-04-05T09:28:12Z</time>
      </trkpt>
      <trkpt lat="50.16459" lon="4.76565">
        <ele>219.4</ele>
        <time>2025-04-05T09:28:13Z</time>
      </trkpt>
      <trkpt lat="50.16461" lon="4.76573">
        <ele>219.4</ele>
        <time>2025-04-05T09:28:14Z</time>
      </trkpt>
      <trkpt lat="50.16463" lon="4.76586">
        <ele>219.6</ele>
        <time>2025-04-05T09:28:15Z</time>
      </trkpt>
      <trkpt lat="50.16464" lon="4.76596">
        <ele>219.6</ele>
        <time>2025-04-05T09:28:16Z</time>
      </trkpt>
      <trkpt lat="50.16466" lon="4.766">
        <ele>219.6</ele>
        <time>2025-04-05T09:28:17Z</time>
      </trkpt>
      <trkpt lat="50.16466" lon="4.76604">
        <ele>219.6</ele>
        <time>2025-04-05T09:28:18Z</time>
      </trkpt>
      <trkpt lat="50.16465" lon="4.76612">
        <ele>219.8</ele>
        <time>2025-04-05T09:28:19Z</time>
      </trkpt>
      <trkpt lat="50.16465" lon="4.76621">
        <ele>219.8</ele>
        <time>2025-04-05T09:28:20Z</time>
      </trkpt>
      <trkpt lat="50.16466" lon="4.7663">
        <ele>219.8</ele>
        <time>2025-04-05T09:28:21Z</time>
      </trkpt>
      <trkpt lat="50.16467" lon="4.76635">
        <ele>219.8</ele>
        <time>2025-04-05T09:28:22Z</time>
      </trkpt>
      <trkpt lat="50.16468" lon="4.7664">
        <ele>220</ele>
        <time>2025-04-05T09:28:23Z</time>
      </trkpt>
      <trkpt lat="50.16468" lon="4.76644">
        <ele>220</ele>
        <time>2025-04-05T09:28:24Z</time>
      </trkpt>
      <trkpt lat="50.16468" lon="4.76648">
        <ele>220</ele>
        <time>2025-04-05T09:28:25Z</time>
      </trkpt>
      <trkpt lat="50.1647" lon="4.76651">
        <ele>220.2</ele>
        <time>2025-04-05T09:28:26Z</time>
      </trkpt>
      <trkpt lat="50.1647" lon="4.76659">
        <ele>220.2</ele>
        <time>2025-04-05T09:28:27Z</time>
      </trkpt>
      <trkpt lat="50.1647" lon="4.76669">
        <ele>220.2</ele>
        <time>2025-04-05T09:28:28Z</time>
      </trkpt>
      <trkpt lat="50.16472" lon="4.7668">
        <ele>220.4</ele>
        <time>2025-04-05T09:28:29Z</time>
      </trkpt>
      <trkpt lat="50.16472" lon="4.76687">
        <ele>220.4</ele>
        <time>2025-04-05T09:28:30Z</time>
      </trkpt>
      <trkpt lat="50.16473" lon="4.76694">
        <ele>220.4</ele>
        <time>2025-04-05T09:28:31Z</time>
      </trkpt>
      <trkpt lat="50.16473" lon="4.76701">
        <ele>220.4</ele>
        <time>2025-04-05T09:28:32Z</time>
      </trkpt>
      <trkpt lat="50.16474" lon="4.76708">
        <ele>220.6</ele>
        <time>2025-04-05T09:28:33Z</time>
      </trkpt>
      <trkpt lat="50.16474" lon="4.76716">
        <ele>220.6</ele>
        <time>2025-04-05T09:28:34Z</time>
      </trkpt>
      <trkpt lat="50.16474" lon="4.76722">
        <ele>220.6</ele>
        <time>2025-04-05T09:28:35Z</time>
      </trkpt>
      <trkpt lat="50.16475" lon="4.7673">
        <ele>220.8</ele>
        <time>2025-04-05T09:28:36Z</time>
      </trkpt>
      <trkpt lat="50.16476" lon="4.76738">
        <ele>220.8</ele>
        <time>2025-04-05T09:28:37Z</time>
      </trkpt>
      <trkpt lat="50.16478" lon="4.76744">
        <ele>220.8</ele>
        <time>2025-04-05T09:28:38Z</time>
      </trkpt>
      <trkpt lat="50.16479" lon="4.7675">
        <ele>220.8</ele>
        <time>2025-04-05T09:28:39Z</time>
      </trkpt>
      <trkpt lat="50.16481" lon="4.76759">
        <ele>220.8</ele>
        <time>2025-04-05T09:28:40Z</time>
      </trkpt>
      <trkpt lat="50.16482" lon="4.76767">
        <ele>221</ele>
        <time>2025-04-05T09:28:41Z</time>
      </trkpt>
      <trkpt lat="50.16483" lon="4.76773">
        <ele>221</ele>
        <time>2025-04-05T09:28:42Z</time>
      </trkpt>
      <trkpt lat="50.16484" lon="4.76782">
        <ele>221</ele>
        <time>2025-04-05T09:28:43Z</time>
      </trkpt>
      <trkpt lat="50.16484" lon="4.76793">
        <ele>221</ele>
        <time>2025-04-05T09:28:44Z</time>
      </trkpt>
      <trkpt lat="50.16484" lon="4.76806">
        <ele>221</ele>
        <time>2025-04-05T09:28:45Z</time>
      </trkpt>
      <trkpt lat="50.16485" lon="4.76815">
        <ele>221.2</ele>
        <time>2025-04-05T09:28:46Z</time>
      </trkpt>
      <trkpt lat="50.16486" lon="4.76824">
        <ele>221.2</ele>
        <time>2025-04-05T09:28:47Z</time>
      </trkpt>
      <trkpt lat="50.16487" lon="4.76831">
        <ele>221.2</ele>
        <time>2025-04-05T09:28:48Z</time>
      </trkpt>
      <trkpt lat="50.16487" lon="4.7684">
        <ele>221.2</ele>
        <time>2025-04-05T09:28:49Z</time>
      </trkpt>
      <trkpt lat="50.16488" lon="4.7685">
        <ele>221.2</ele>
        <time>2025-04-05T09:28:50Z</time>
      </trkpt>
      <trkpt lat="50.16488" lon="4.76859">
        <ele>221.2</ele>
        <time>2025-04-05T09:28:51Z</time>
      </trkpt>
      <trkpt lat="50.16489" lon="4.76868">
        <ele>221.4</ele>
        <time>2025-04-05T09:28:52Z</time>
      </trkpt>
      <trkpt lat="50.16489" lon="4.76878">
        <ele>221.4</ele>
        <time>2025-04-05T09:28:53Z</time>
      </trkpt>
      <trkpt lat="50.16491" lon="4.76888">
        <ele>221.4</ele>
        <time>2025-04-05T09:28:54Z</time>
      </trkpt>
      <trkpt lat="50.1649" lon="4.76898">
        <ele>221.4</ele>
        <time>2025-04-05T09:28:55Z</time>
      </trkpt>
      <trkpt lat="50.16491" lon="4.76905">
        <ele>221.4</ele>
        <time>2025-04-05T09:28:56Z</time>
      </trkpt>
      <trkpt lat="50.16492" lon="4.76914">
        <ele>221.4</ele>
        <time>2025-04-05T09:28:57Z</time>
      </trkpt>
      <trkpt lat="50.16493" lon="4.76922">
        <ele>221.4</ele>
        <time>2025-04-05T09:28:58Z</time>
      </trkpt>
      <trkpt lat="50.16494" lon="4.7693">
        <ele>221.4</ele>
        <time>2025-04-05T09:28:59Z</time>
      </trkpt>
      <trkpt lat="50.16496" lon="4.76941">
        <ele>221.6</ele>
        <time>2025-04-05T09:29:00Z</time>
      </trkpt>
      <trkpt lat="50.16496" lon="4.76949">
        <ele>221.6</ele>
        <time>2025-04-05T09:29:01Z</time>
      </trkpt>
      <trkpt lat="50.16497" lon="4.76956">
        <ele>221.6</ele>
        <time>2025-04-05T09:29:02Z</time>
      </trkpt>
      <trkpt lat="50.16498" lon="4.76965">
        <ele>221.8</ele>
        <time>2025-04-05T09:29:03Z</time>
      </trkpt>
      <trkpt lat="50.16499" lon="4.76974">
        <ele>221.8</ele>
        <time>2025-04-05T09:29:04Z</time>
      </trkpt>
      <trkpt lat="50.16499" lon="4.76979">
        <ele>222</ele>
        <time>2025-04-05T09:29:05Z</time>
      </trkpt>
      <trkpt lat="50.16499" lon="4.76987">
        <ele>222</ele>
        <time>2025-04-05T09:29:06Z</time>
      </trkpt>
      <trkpt lat="50.165" lon="4.76994">
        <ele>222</ele>
        <time>2025-04-05T09:29:07Z</time>
      </trkpt>
      <trkpt lat="50.165" lon="4.77001">
        <ele>222.2</ele>
        <time>2025-04-05T09:29:08Z</time>
      </trkpt>
      <trkpt lat="50.165" lon="4.77009">
        <ele>222.2</ele>
        <time>2025-04-05T09:29:09Z</time>
      </trkpt>
      <trkpt lat="50.165" lon="4.77015">
        <ele>222.4</ele>
        <time>2025-04-05T09:29:10Z</time>
      </trkpt>
      <trkpt lat="50.165" lon="4.77023">
        <ele>222.4</ele>
        <time>2025-04-05T09:29:11Z</time>
      </trkpt>
      <trkpt lat="50.165" lon="4.77033">
        <ele>222.6</ele>
        <time>2025-04-05T09:29:12Z</time>
      </trkpt>
      <trkpt lat="50.165" lon="4.77042">
        <ele>222.6</ele>
        <time>2025-04-05T09:29:13Z</time>
      </trkpt>
      <trkpt lat="50.165" lon="4.77049">
        <ele>222.6</ele>
        <time>2025-04-05T09:29:14Z</time>
      </trkpt>
      <trkpt lat="50.165" lon="4.77057">
        <ele>222.6</ele>
        <time>2025-04-05T09:29:15Z</time>
      </trkpt>
      <trkpt lat="50.16501" lon="4.77065">
        <ele>222.8</ele>
        <time>2025-04-05T09:29:16Z</time>
      </trkpt>
      <trkpt lat="50.16502" lon="4.77075">
        <ele>222.8</ele>
        <time>2025-04-05T09:29:17Z</time>
      </trkpt>
      <trkpt lat="50.16502" lon="4.77083">
        <ele>223</ele>
        <time>2025-04-05T09:29:18Z</time>
      </trkpt>
      <trkpt lat="50.16501" lon="4.7709">
        <ele>223</ele>
        <time>2025-04-05T09:29:19Z</time>
      </trkpt>
      <trkpt lat="50.16501" lon="4.77099">
        <ele>223</ele>
        <time>2025-04-05T09:29:20Z</time>
      </trkpt>
      <trkpt lat="50.165" lon="4.77108">
        <ele>223.2</ele>
        <time>2025-04-05T09:29:21Z</time>
      </trkpt>
      <trkpt lat="50.16501" lon="4.77115">
        <ele>223.2</ele>
        <time>2025-04-05T09:29:22Z</time>
      </trkpt>
      <trkpt lat="50.16501" lon="4.77123">
        <ele>223.4</ele>
        <time>2025-04-05T09:29:23Z</time>
      </trkpt>
      <trkpt lat="50.165" lon="4.77133">
        <ele>223.4</ele>
        <time>2025-04-05T09:29:24Z</time>
      </trkpt>
      <trkpt lat="50.165" lon="4.77141">
        <ele>223.4</ele>
        <time>2025-04-05T09:29:25Z</time>
      </trkpt>
      <trkpt lat="50.16501" lon="4.77149">
        <ele>223.6</ele>
        <time>2025-04-05T09:29:26Z</time>
      </trkpt>
      <trkpt lat="50.165" lon="4.77157">
        <ele>223.6</ele>
        <time>2025-04-05T09:29:27Z</time>
      </trkpt>
      <trkpt lat="50.16501" lon="4.77165">
        <ele>223.6</ele>
        <time>2025-04-05T09:29:28Z</time>
      </trkpt>
      <trkpt lat="50.16501" lon="4.77173">
        <ele>223.8</ele>
        <time>2025-04-05T09:29:29Z</time>
      </trkpt>
      <trkpt lat="50.16502" lon="4.77182">
        <ele>223.8</ele>
        <time>2025-04-05T09:29:30Z</time>
      </trkpt>
      <trkpt lat="50.16502" lon="4.7719">
        <ele>223.8</ele>
        <time>2025-04-05T09:29:31Z</time>
      </trkpt>
      <trkpt lat="50.16502" lon="4.77196">
        <ele>224</ele>
        <time>2025-04-05T09:29:32Z</time>
      </trkpt>
      <trkpt lat="50.16502" lon="4.77206">
        <ele>224</ele>
        <time>2025-04-05T09:29:33Z</time>
      </trkpt>
      <trkpt lat="50.16502" lon="4.77214">
        <ele>224</ele>
        <time>2025-04-05T09:29:34Z</time>
      </trkpt>
      <trkpt lat="50.16502" lon="4.7722">
        <ele>224</ele>
        <time>2025-04-05T09:29:35Z</time>
      </trkpt>
      <trkpt lat="50.16502" lon="4.77229">
        <ele>224</ele>
        <time>2025-04-05T09:29:36Z</time>
      </trkpt>
      <trkpt lat="50.16503" lon="4.77237">
        <ele>224</ele>
        <time>2025-04-05T09:29:37Z</time>
      </trkpt>
      <trkpt lat="50.16502" lon="4.77244">
        <ele>223.8</ele>
        <time>2025-04-05T09:29:38Z</time>
      </trkpt>
      <trkpt lat="50.16502" lon="4.77252">
        <ele>223.8</ele>
        <time>2025-04-05T09:29:39Z</time>
      </trkpt>
      <trkpt lat="50.16502" lon="4.77258">
        <ele>223.8</ele>
        <time>2025-04-05T09:29:40Z</time>
      </trkpt>
      <trkpt lat="50.16501" lon="4.77265">
        <ele>223.6</ele>
        <time>2025-04-05T09:29:41Z</time>
      </trkpt>
      <trkpt lat="50.16501" lon="4.77274">
        <ele>223.6</ele>
        <time>2025-04-05T09:29:42Z</time>
      </trkpt>
      <trkpt lat="50.16501" lon="4.77283">
        <ele>223.4</ele>
        <time>2025-04-05T09:29:43Z</time>
      </trkpt>
      <trkpt lat="50.16501" lon="4.7729">
        <ele>223.2</ele>
        <time>2025-04-05T09:29:44Z</time>
      </trkpt>
      <trkpt lat="50.165" lon="4.77299">
        <ele>223.2</ele>
        <time>2025-04-05T09:29:45Z</time>
      </trkpt>
      <trkpt lat="50.16499" lon="4.77308">
        <ele>223</ele>
        <time>2025-04-05T09:29:46Z</time>
      </trkpt>
      <trkpt lat="50.165" lon="4.77318">
        <ele>223</ele>
        <time>2025-04-05T09:29:47Z</time>
      </trkpt>
      <trkpt lat="50.165" lon="4.77328">
        <ele>222.8</ele>
        <time>2025-04-05T09:29:48Z</time>
      </trkpt>
      <trkpt lat="50.165" lon="4.77336">
        <ele>222.6</ele>
        <time>2025-04-05T09:29:49Z</time>
      </trkpt>
      <trkpt lat="50.165" lon="4.77347">
        <ele>222.4</ele>
        <time>2025-04-05T09:29:50Z</time>
      </trkpt>
      <trkpt lat="50.16501" lon="4.77358">
        <ele>222</ele>
        <time>2025-04-05T09:29:51Z</time>
      </trkpt>
      <trkpt lat="50.16501" lon="4.77366">
        <ele>221.8</ele>
        <time>2025-04-05T09:29:52Z</time>
      </trkpt>
      <trkpt lat="50.16501" lon="4.77376">
        <ele>221.6</ele>
        <time>2025-04-05T09:29:53Z</time>
      </trkpt>
      <trkpt lat="50.16501" lon="4.77386">
        <ele>221.4</ele>
        <time>2025-04-05T09:29:54Z</time>
      </trkpt>
      <trkpt lat="50.16502" lon="4.77398">
        <ele>221.2</ele>
        <time>2025-04-05T09:29:55Z</time>
      </trkpt>
      <trkpt lat="50.16502" lon="4.7741">
        <ele>220.8</ele>
        <time>2025-04-05T09:29:56Z</time>
      </trkpt>
      <trkpt lat="50.16502" lon="4.7742">
        <ele>220.4</ele>
        <time>2025-04-05T09:29:57Z</time>
      </trkpt>
      <trkpt lat="50.16503" lon="4.7743">
        <ele>220.2</ele>
        <time>2025-04-05T09:29:58Z</time>
      </trkpt>
      <trkpt lat="50.16504" lon="4.77443">
        <ele>220</ele>
        <time>2025-04-05T09:29:59Z</time>
      </trkpt>
      <trkpt lat="50.16504" lon="4.77453">
        <ele>219.8</ele>
        <time>2025-04-05T09:30:00Z</time>
      </trkpt>
      <trkpt lat="50.16505" lon="4.77464">
        <ele>219.6</ele>
        <time>2025-04-05T09:30:01Z</time>
      </trkpt>
      <trkpt lat="50.16505" lon="4.77475">
        <ele>219.4</ele>
        <time>2025-04-05T09:30:02Z</time>
      </trkpt>
      <trkpt lat="50.16505" lon="4.77489">
        <ele>219.2</ele>
        <time>2025-04-05T09:30:03Z</time>
      </trkpt>
      <trkpt lat="50.16506" lon="4.77501">
        <ele>219</ele>
        <time>2025-04-05T09:30:04Z</time>
      </trkpt>
      <trkpt lat="50.16506" lon="4.77511">
        <ele>218.6</ele>
        <time>2025-04-05T09:30:05Z</time>
      </trkpt>
      <trkpt lat="50.16507" lon="4.77522">
        <ele>218.4</ele>
        <time>2025-04-05T09:30:06Z</time>
      </trkpt>
      <trkpt lat="50.16507" lon="4.77533">
        <ele>218.4</ele>
        <time>2025-04-05T09:30:07Z</time>
      </trkpt>
      <trkpt lat="50.16508" lon="4.77547">
        <ele>218.2</ele>
        <time>2025-04-05T09:30:08Z</time>
      </trkpt>
      <trkpt lat="50.16509" lon="4.77559">
        <ele>217.8</ele>
        <time>2025-04-05T09:30:09Z</time>
      </trkpt>
      <trkpt lat="50.16509" lon="4.77568">
        <ele>217.6</ele>
        <time>2025-04-05T09:30:10Z</time>
      </trkpt>
      <trkpt lat="50.16509" lon="4.77579">
        <ele>217.4</ele>
        <time>2025-04-05T09:30:11Z</time>
      </trkpt>
      <trkpt lat="50.16509" lon="4.77591">
        <ele>217</ele>
        <time>2025-04-05T09:30:12Z</time>
      </trkpt>
      <trkpt lat="50.16508" lon="4.77603">
        <ele>216.8</ele>
        <time>2025-04-05T09:30:13Z</time>
      </trkpt>
      <trkpt lat="50.16508" lon="4.77614">
        <ele>216.4</ele>
        <time>2025-04-05T09:30:14Z</time>
      </trkpt>
      <trkpt lat="50.16508" lon="4.77626">
        <ele>216.2</ele>
        <time>2025-04-05T09:30:15Z</time>
      </trkpt>
      <trkpt lat="50.16508" lon="4.77638">
        <ele>216</ele>
        <time>2025-04-05T09:30:16Z</time>
      </trkpt>
      <trkpt lat="50.16507" lon="4.7765">
        <ele>215.8</ele>
        <time>2025-04-05T09:30:17Z</time>
      </trkpt>
      <trkpt lat="50.16507" lon="4.77662">
        <ele>215.4</ele>
        <time>2025-04-05T09:30:18Z</time>
      </trkpt>
      <trkpt lat="50.16507" lon="4.77674">
        <ele>215.2</ele>
        <time>2025-04-05T09:30:19Z</time>
      </trkpt>
      <trkpt lat="50.16507" lon="4.77687">
        <ele>215</ele>
        <time>2025-04-05T09:30:20Z</time>
      </trkpt>
      <trkpt lat="50.16507" lon="4.77701">
        <ele>214.8</ele>
        <time>2025-04-05T09:30:21Z</time>
      </trkpt>
      <trkpt lat="50.16507" lon="4.77713">
        <ele>214.6</ele>
        <time>2025-04-05T09:30:22Z</time>
      </trkpt>
      <trkpt lat="50.16507" lon="4.77722">
        <ele>214.4</ele>
        <time>2025-04-05T09:30:23Z</time>
      </trkpt>
      <trkpt lat="50.16507" lon="4.77733">
        <ele>214.2</ele>
        <time>2025-04-05T09:30:24Z</time>
      </trkpt>
      <trkpt lat="50.16508" lon="4.77745">
        <ele>213.8</ele>
        <time>2025-04-05T09:30:25Z</time>
      </trkpt>
      <trkpt lat="50.16507" lon="4.77757">
        <ele>213.4</ele>
        <time>2025-04-05T09:30:26Z</time>
      </trkpt>
      <trkpt lat="50.16508" lon="4.77772">
        <ele>213</ele>
        <time>2025-04-05T09:30:27Z</time>
      </trkpt>
      <trkpt lat="50.16507" lon="4.77783">
        <ele>212.6</ele>
        <time>2025-04-05T09:30:28Z</time>
      </trkpt>
      <trkpt lat="50.16507" lon="4.77795">
        <ele>212.4</ele>
        <time>2025-04-05T09:30:29Z</time>
      </trkpt>
      <trkpt lat="50.16508" lon="4.77808">
        <ele>212</ele>
        <time>2025-04-05T09:30:30Z</time>
      </trkpt>
      <trkpt lat="50.16509" lon="4.77824">
        <ele>211.6</ele>
        <time>2025-04-05T09:30:31Z</time>
      </trkpt>
      <trkpt lat="50.16509" lon="4.77836">
        <ele>211</ele>
        <time>2025-04-05T09:30:32Z</time>
      </trkpt>
      <trkpt lat="50.1651" lon="4.7785">
        <ele>210.4</ele>
        <time>2025-04-05T09:30:33Z</time>
      </trkpt>
      <trkpt lat="50.16511" lon="4.77865">
        <ele>209.8</ele>
        <time>2025-04-05T09:30:34Z</time>
      </trkpt>
      <trkpt lat="50.16512" lon="4.7788">
        <ele>209.2</ele>
        <time>2025-04-05T09:30:35Z</time>
      </trkpt>
      <trkpt lat="50.16512" lon="4.77895">
        <ele>208.6</ele>
        <time>2025-04-05T09:30:36Z</time>
      </trkpt>
      <trkpt lat="50.16512" lon="4.77909">
        <ele>208</ele>
        <time>2025-04-05T09:30:37Z</time>
      </trkpt>
      <trkpt lat="50.16513" lon="4.77924">
        <ele>207.6</ele>
        <time>2025-04-05T09:30:38Z</time>
      </trkpt>
      <trkpt lat="50.16513" lon="4.7794">
        <ele>207</ele>
        <time>2025-04-05T09:30:39Z</time>
      </trkpt>
      <trkpt lat="50.16513" lon="4.77958">
        <ele>206.2</ele>
        <time>2025-04-05T09:30:40Z</time>
      </trkpt>
      <trkpt lat="50.16513" lon="4.77975">
        <ele>205.6</ele>
        <time>2025-04-05T09:30:41Z</time>
      </trkpt>
      <trkpt lat="50.16513" lon="4.77988">
        <ele>204.8</ele>
        <time>2025-04-05T09:30:42Z</time>
      </trkpt>
      <trkpt lat="50.16513" lon="4.78007">
        <ele>204.2</ele>
        <time>2025-04-05T09:30:43Z</time>
      </trkpt>
      <trkpt lat="50.16513" lon="4.78021">
        <ele>203.6</ele>
        <time>2025-04-05T09:30:44Z</time>
      </trkpt>
      <trkpt lat="50.16513" lon="4.78037">
        <ele>203</ele>
        <time>2025-04-05T09:30:45Z</time>
      </trkpt>
      <trkpt lat="50.16513" lon="4.78054">
        <ele>202.4</ele>
        <time>2025-04-05T09:30:46Z</time>
      </trkpt>
      <trkpt lat="50.16513" lon="4.7807">
        <ele>201.8</ele>
        <time>2025-04-05T09:30:47Z</time>
      </trkpt>
      <trkpt lat="50.16514" lon="4.78085">
        <ele>201</ele>
        <time>2025-04-05T09:30:48Z</time>
      </trkpt>
      <trkpt lat="50.16515" lon="4.78104">
        <ele>200.4</ele>
        <time>2025-04-05T09:30:49Z</time>
      </trkpt>
      <trkpt lat="50.16515" lon="4.78118">
        <ele>199.6</ele>
        <time>2025-04-05T09:30:50Z</time>
      </trkpt>
      <trkpt lat="50.16517" lon="4.78134">
        <ele>198.8</ele>
        <time>2025-04-05T09:30:51Z</time>
      </trkpt>
      <trkpt lat="50.16518" lon="4.78152">
        <ele>198</ele>
        <time>2025-04-05T09:30:52Z</time>
      </trkpt>
      <trkpt lat="50.16521" lon="4.78168">
        <ele>197.2</ele>
        <time>2025-04-05T09:30:53Z</time>
      </trkpt>
      <trkpt lat="50.16525" lon="4.78182">
        <ele>196.4</ele>
        <time>2025-04-05T09:30:54Z</time>
      </trkpt>
      <trkpt lat="50.16528" lon="4.78198">
        <ele>195.8</ele>
        <time>2025-04-05T09:30:55Z</time>
      </trkpt>
      <trkpt lat="50.16531" lon="4.78215">
        <ele>195</ele>
        <time>2025-04-05T09:30:56Z</time>
      </trkpt>
      <trkpt lat="50.16535" lon="4.78231">
        <ele>194.4</ele>
        <time>2025-04-05T09:30:57Z</time>
      </trkpt>
      <trkpt lat="50.16539" lon="4.78248">
        <ele>193.6</ele>
        <time>2025-04-05T09:30:58Z</time>
      </trkpt>
      <trkpt lat="50.16544" lon="4.78265">
        <ele>193</ele>
        <time>2025-04-05T09:30:59Z</time>
      </trkpt>
      <trkpt lat="50.16548" lon="4.78282">
        <ele>192.4</ele>
        <time>2025-04-05T09:31:00Z</time>
      </trkpt>
      <trkpt lat="50.16551" lon="4.78303">
        <ele>191.6</ele>
        <time>2025-04-05T09:31:01Z</time>
      </trkpt>
      <trkpt lat="50.16553" lon="4.78321">
        <ele>190.8</ele>
        <time>2025-04-05T09:31:02Z</time>
      </trkpt>
      <trkpt lat="50.16554" lon="4.7834">
        <ele>190.2</ele>
        <time>2025-04-05T09:31:03Z</time>
      </trkpt>
      <trkpt lat="50.16555" lon="4.78355">
        <ele>189.4</ele>
        <time>2025-04-05T09:31:04Z</time>
      </trkpt>
      <trkpt lat="50.16554" lon="4.78373">
        <ele>188.6</ele>
        <time>2025-04-05T09:31:05Z</time>
      </trkpt>
      <trkpt lat="50.16553" lon="4.78393">
        <ele>187.8</ele>
        <time>2025-04-05T09:31:06Z</time>
      </trkpt>
      <trkpt lat="50.16553" lon="4.78409">
        <ele>187.2</ele>
        <time>2025-04-05T09:31:07Z</time>
      </trkpt>
      <trkpt lat="50.16554" lon="4.78428">
        <ele>186.4</ele>
        <time>2025-04-05T09:31:08Z</time>
      </trkpt>
      <trkpt lat="50.16553" lon="4.78443">
        <ele>185.6</ele>
        <time>2025-04-05T09:31:09Z</time>
      </trkpt>
      <trkpt lat="50.16552" lon="4.78458">
        <ele>185</ele>
        <time>2025-04-05T09:31:10Z</time>
      </trkpt>
      <trkpt lat="50.16552" lon="4.78476">
        <ele>184.4</ele>
        <time>2025-04-05T09:31:11Z</time>
      </trkpt>
      <trkpt lat="50.16552" lon="4.78493">
        <ele>183.8</ele>
        <time>2025-04-05T09:31:12Z</time>
      </trkpt>
      <trkpt lat="50.16552" lon="4.78506">
        <ele>183.4</ele>
        <time>2025-04-05T09:31:13Z</time>
      </trkpt>
      <trkpt lat="50.16551" lon="4.78523">
        <ele>183</ele>
        <time>2025-04-05T09:31:14Z</time>
      </trkpt>
      <trkpt lat="50.16552" lon="4.78536">
        <ele>182.4</ele>
        <time>2025-04-05T09:31:15Z</time>
      </trkpt>
      <trkpt lat="50.16553" lon="4.78552">
        <ele>181.8</ele>
        <time>2025-04-05T09:31:16Z</time>
      </trkpt>
      <trkpt lat="50.16554" lon="4.78565">
        <ele>181.2</ele>
        <time>2025-04-05T09:31:17Z</time>
      </trkpt>
      <trkpt lat="50.16553" lon="4.78579">
        <ele>180.4</ele>
        <time>2025-04-05T09:31:18Z</time>
      </trkpt>
      <trkpt lat="50.16552" lon="4.78594">
        <ele>179.6</ele>
        <time>2025-04-05T09:31:19Z</time>
      </trkpt>
      <trkpt lat="50.1655" lon="4.78609">
        <ele>178.8</ele>
        <time>2025-04-05T09:31:20Z</time>
      </trkpt>
      <trkpt lat="50.16547" lon="4.78626">
        <ele>178</ele>
        <time>2025-04-05T09:31:21Z</time>
      </trkpt>
      <trkpt lat="50.16542" lon="4.78638">
        <ele>177.2</ele>
        <time>2025-04-05T09:31:22Z</time>
      </trkpt>
      <trkpt lat="50.16536" lon="4.78654">
        <ele>176.4</ele>
        <time>2025-04-05T09:31:23Z</time>
      </trkpt>
      <trkpt lat="50.16529" lon="4.7867">
        <ele>175.6</ele>
        <time>2025-04-05T09:31:24Z</time>
      </trkpt>
      <trkpt lat="50.16522" lon="4.78684">
        <ele>175</ele>
        <time>2025-04-05T09:31:25Z</time>
      </trkpt>
      <trkpt lat="50.16517" lon="4.78699">
        <ele>174.2</ele>
        <time>2025-04-05T09:31:26Z</time>
      </trkpt>
      <trkpt lat="50.1651" lon="4.78714">
        <ele>173.6</ele>
        <time>2025-04-05T09:31:27Z</time>
      </trkpt>
      <trkpt lat="50.16504" lon="4.78727">
        <ele>172.8</ele>
        <time>2025-04-05T09:31:28Z</time>
      </trkpt>
      <trkpt lat="50.16498" lon="4.78745">
        <ele>172.2</ele>
        <time>2025-04-05T09:31:29Z</time>
      </trkpt>
      <trkpt lat="50.16493" lon="4.78761">
        <ele>171.6</ele>
        <time>2025-04-05T09:31:30Z</time>
      </trkpt>
      <trkpt lat="50.16488" lon="4.78774">
        <ele>171</ele>
        <time>2025-04-05T09:31:31Z</time>
      </trkpt>
      <trkpt lat="50.16483" lon="4.78791">
        <ele>170.2</ele>
        <time>2025-04-05T09:31:32Z</time>
      </trkpt>
      <trkpt lat="50.16478" lon="4.78807">
        <ele>169.8</ele>
        <time>2025-04-05T09:31:33Z</time>
      </trkpt>
      <trkpt lat="50.16474" lon="4.78822">
        <ele>169.4</ele>
        <time>2025-04-05T09:31:34Z</time>
      </trkpt>
      <trkpt lat="50.1647" lon="4.78838">
        <ele>169</ele>
        <time>2025-04-05T09:31:35Z</time>
      </trkpt>
      <trkpt lat="50.16466" lon="4.78853">
        <ele>168.8</ele>
        <time>2025-04-05T09:31:36Z</time>
      </trkpt>
      <trkpt lat="50.16463" lon="4.78866">
        <ele>168.8</ele>
        <time>2025-04-05T09:31:37Z</time>
      </trkpt>
      <trkpt lat="50.1646" lon="4.78881">
        <ele>168.8</ele>
        <time>2025-04-05T09:31:38Z</time>
      </trkpt>
      <trkpt lat="50.16459" lon="4.78893">
        <ele>169</ele>
        <time>2025-04-05T09:31:39Z</time>
      </trkpt>
      <trkpt lat="50.16459" lon="4.78903">
        <ele>169.4</ele>
        <time>2025-04-05T09:31:40Z</time>
      </trkpt>
      <trkpt lat="50.16457" lon="4.78914">
        <ele>169.8</ele>
        <time>2025-04-05T09:31:41Z</time>
      </trkpt>
      <trkpt lat="50.16455" lon="4.78922">
        <ele>170</ele>
        <time>2025-04-05T09:31:42Z</time>
      </trkpt>
      <trkpt lat="50.16451" lon="4.78929">
        <ele>170.4</ele>
        <time>2025-04-05T09:31:43Z</time>
      </trkpt>
      <trkpt lat="50.16449" lon="4.78936">
        <ele>170.6</ele>
        <time>2025-04-05T09:31:44Z</time>
      </trkpt>
      <trkpt lat="50.16447" lon="4.78944">
        <ele>170.6</ele>
        <time>2025-04-05T09:31:45Z</time>
      </trkpt>
      <trkpt lat="50.16447" lon="4.78954">
        <ele>170.4</ele>
        <time>2025-04-05T09:31:46Z</time>
      </trkpt>
      <trkpt lat="50.16449" lon="4.78962">
        <ele>170.6</ele>
        <time>2025-04-05T09:31:47Z</time>
      </trkpt>
      <trkpt lat="50.16452" lon="4.78969">
        <ele>170.6</ele>
        <time>2025-04-05T09:31:48Z</time>
      </trkpt>
      <trkpt lat="50.16456" lon="4.78975">
        <ele>170.6</ele>
        <time>2025-04-05T09:31:49Z</time>
      </trkpt>
      <trkpt lat="50.16459" lon="4.78982">
        <ele>170.6</ele>
        <time>2025-04-05T09:31:50Z</time>
      </trkpt>
      <trkpt lat="50.16464" lon="4.78991">
        <ele>170.4</ele>
        <time>2025-04-05T09:31:51Z</time>
      </trkpt>
      <trkpt lat="50.16468" lon="4.78999">
        <ele>170.4</ele>
        <time>2025-04-05T09:31:52Z</time>
      </trkpt>
      <trkpt lat="50.16471" lon="4.79006">
        <ele>170.4</ele>
        <time>2025-04-05T09:31:53Z</time>
      </trkpt>
      <trkpt lat="50.16475" lon="4.79015">
        <ele>170.2</ele>
        <time>2025-04-05T09:31:54Z</time>
      </trkpt>
      <trkpt lat="50.16479" lon="4.79023">
        <ele>170.2</ele>
        <time>2025-04-05T09:31:55Z</time>
      </trkpt>
      <trkpt lat="50.16483" lon="4.7903">
        <ele>170</ele>
        <time>2025-04-05T09:31:56Z</time>
      </trkpt>
      <trkpt lat="50.16486" lon="4.79039">
        <ele>169.6</ele>
        <time>2025-04-05T09:31:57Z</time>
      </trkpt>
      <trkpt lat="50.16489" lon="4.79051">
        <ele>169.4</ele>
        <time>2025-04-05T09:31:58Z</time>
      </trkpt>
      <trkpt lat="50.16493" lon="4.79059">
        <ele>169.2</ele>
        <time>2025-04-05T09:31:59Z</time>
      </trkpt>
      <trkpt lat="50.16496" lon="4.79071">
        <ele>169</ele>
        <time>2025-04-05T09:32:00Z</time>
      </trkpt>
      <trkpt lat="50.16497" lon="4.7908">
        <ele>168.8</ele>
        <time>2025-04-05T09:32:01Z</time>
      </trkpt>
      <trkpt lat="50.16499" lon="4.79091">
        <ele>168.4</ele>
        <time>2025-04-05T09:32:02Z</time>
      </trkpt>
      <trkpt lat="50.165" lon="4.79105">
        <ele>168.2</ele>
        <time>2025-04-05T09:32:03Z</time>
      </trkpt>
      <trkpt lat="50.16501" lon="4.79118">
        <ele>167.6</ele>
        <time>2025-04-05T09:32:04Z</time>
      </trkpt>
      <trkpt lat="50.16501" lon="4.79129">
        <ele>167</ele>
        <time>2025-04-05T09:32:05Z</time>
      </trkpt>
      <trkpt lat="50.16501" lon="4.79144">
        <ele>166.4</ele>
        <time>2025-04-05T09:32:06Z</time>
      </trkpt>
      <trkpt lat="50.16502" lon="4.79157">
        <ele>165.8</ele>
        <time>2025-04-05T09:32:07Z</time>
      </trkpt>
      <trkpt lat="50.16503" lon="4.7917">
        <ele>165.2</ele>
        <time>2025-04-05T09:32:08Z</time>
      </trkpt>
      <trkpt lat="50.16504" lon="4.79184">
        <ele>164.6</ele>
        <time>2025-04-05T09:32:09Z</time>
      </trkpt>
      <trkpt lat="50.16503" lon="4.79195">
        <ele>164.2</ele>
        <time>2025-04-05T09:32:10Z</time>
      </trkpt>
      <trkpt lat="50.16501" lon="4.79206">
        <ele>164</ele>
        <time>2025-04-05T09:32:11Z</time>
      </trkpt>
      <trkpt lat="50.16496" lon="4.79221">
        <ele>164</ele>
        <time>2025-04-05T09:32:12Z</time>
      </trkpt>
      <trkpt lat="50.16492" lon="4.79231">
        <ele>163.8</ele>
        <time>2025-04-05T09:32:13Z</time>
      </trkpt>
      <trkpt lat="50.16488" lon="4.79241">
        <ele>163.6</ele>
        <time>2025-04-05T09:32:14Z</time>
      </trkpt>
      <trkpt lat="50.16483" lon="4.7925">
        <ele>163.2</ele>
        <time>2025-04-05T09:32:15Z</time>
      </trkpt>
      <trkpt lat="50.16478" lon="4.7926">
        <ele>163</ele>
        <time>2025-04-05T09:32:16Z</time>
      </trkpt>
      <trkpt lat="50.16472" lon="4.7927">
        <ele>162.6</ele>
        <time>2025-04-05T09:32:17Z</time>
      </trkpt>
      <trkpt lat="50.16467" lon="4.79278">
        <ele>162.6</ele>
        <time>2025-04-05T09:32:18Z</time>
      </trkpt>
      <trkpt lat="50.16463" lon="4.79287">
        <ele>162.4</ele>
        <time>2025-04-05T09:32:19Z</time>
      </trkpt>
      <trkpt lat="50.16458" lon="4.79296">
        <ele>162.2</ele>
        <time>2025-04-05T09:32:20Z</time>
      </trkpt>
      <trkpt lat="50.16454" lon="4.79304">
        <ele>162</ele>
        <time>2025-04-05T09:32:21Z</time>
      </trkpt>
      <trkpt lat="50.16448" lon="4.79312">
        <ele>161.8</ele>
        <time>2025-04-05T09:32:22Z</time>
      </trkpt>
      <trkpt lat="50.16443" lon="4.79322">
        <ele>161.4</ele>
        <time>2025-04-05T09:32:23Z</time>
      </trkpt>
      <trkpt lat="50.16439" lon="4.79332">
        <ele>161.2</ele>
        <time>2025-04-05T09:32:24Z</time>
      </trkpt>
      <trkpt lat="50.16435" lon="4.79343">
        <ele>161</ele>
        <time>2025-04-05T09:32:25Z</time>
      </trkpt>
      <trkpt lat="50.16431" lon="4.79353">
        <ele>160.4</ele>
        <time>2025-04-05T09:32:26Z</time>
      </trkpt>
      <trkpt lat="50.16427" lon="4.79365">
        <ele>160</ele>
        <time>2025-04-05T09:32:27Z</time>
      </trkpt>
      <trkpt lat="50.16422" lon="4.79378">
        <ele>159.6</ele>
        <time>2025-04-05T09:32:28Z</time>
      </trkpt>
      <trkpt lat="50.16418" lon="4.79387">
        <ele>159.2</ele>
        <time>2025-04-05T09:32:29Z</time>
      </trkpt>
      <trkpt lat="50.16412" lon="4.79399">
        <ele>158.8</ele>
        <time>2025-04-05T09:32:30Z</time>
      </trkpt>
      <trkpt lat="50.16407" lon="4.79406">
        <ele>158.6</ele>
        <time>2025-04-05T09:32:31Z</time>
      </trkpt>
      <trkpt lat="50.164" lon="4.79414">
        <ele>158.2</ele>
        <time>2025-04-05T09:32:32Z</time>
      </trkpt>
      <trkpt lat="50.16393" lon="4.79421">
        <ele>158</ele>
        <time>2025-04-05T09:32:33Z</time>
      </trkpt>
      <trkpt lat="50.16385" lon="4.79428">
        <ele>157.6</ele>
        <time>2025-04-05T09:32:34Z</time>
      </trkpt>
      <trkpt lat="50.16378" lon="4.79434">
        <ele>157.4</ele>
        <time>2025-04-05T09:32:35Z</time>
      </trkpt>
      <trkpt lat="50.16369" lon="4.79441">
        <ele>157</ele>
        <time>2025-04-05T09:32:36Z</time>
      </trkpt>
      <trkpt lat="50.16362" lon="4.79446">
        <ele>157</ele>
        <time>2025-04-05T09:32:37Z</time>
      </trkpt>
      <trkpt lat="50.16354" lon="4.79452">
        <ele>156.8</ele>
        <time>2025-04-05T09:32:38Z</time>
      </trkpt>
      <trkpt lat="50.16348" lon="4.79457">
        <ele>156.4</ele>
        <time>2025-04-05T09:32:39Z</time>
      </trkpt>
      <trkpt lat="50.16341" lon="4.79463">
        <ele>156</ele>
        <time>2025-04-05T09:32:40Z</time>
      </trkpt>
      <trkpt lat="50.16334" lon="4.79468">
        <ele>155.8</ele>
        <time>2025-04-05T09:32:41Z</time>
      </trkpt>
      <trkpt lat="50.16327" lon="4.79472">
        <ele>155.6</ele>
        <time>2025-04-05T09:32:42Z</time>
      </trkpt>
      <trkpt lat="50.1632" lon="4.79474">
        <ele>155.4</ele>
        <time>2025-04-05T09:32:43Z</time>
      </trkpt>
      <trkpt lat="50.16313" lon="4.79475">
        <ele>155.4</ele>
        <time>2025-04-05T09:32:44Z</time>
      </trkpt>
      <trkpt lat="50.16306" lon="4.79475">
        <ele>155.4</ele>
        <time>2025-04-05T09:32:45Z</time>
      </trkpt>
      <trkpt lat="50.16298" lon="4.79474">
        <ele>155.4</ele>
        <time>2025-04-05T09:32:46Z</time>
      </trkpt>
      <trkpt lat="50.16291" lon="4.79474">
        <ele>155.2</ele>
        <time>2025-04-05T09:32:47Z</time>
      </trkpt>
      <trkpt lat="50.16284" lon="4.79473">
        <ele>155</ele>
        <time>2025-04-05T09:32:48Z</time>
      </trkpt>
      <trkpt lat="50.16275" lon="4.79472">
        <ele>155</ele>
        <time>2025-04-05T09:32:49Z</time>
      </trkpt>
      <trkpt lat="50.16269" lon="4.79471">
        <ele>154.8</ele>
        <time>2025-04-05T09:32:50Z</time>
      </trkpt>
      <trkpt lat="50.16261" lon="4.79469">
        <ele>154.6</ele>
        <time>2025-04-05T09:32:51Z</time>
      </trkpt>
      <trkpt lat="50.16254" lon="4.79468">
        <ele>154.4</ele>
        <time>2025-04-05T09:32:52Z</time>
      </trkpt>
      <trkpt lat="50.16246" lon="4.79466">
        <ele>154.2</ele>
        <time>2025-04-05T09:32:53Z</time>
      </trkpt>
      <trkpt lat="50.1624" lon="4.79464">
        <ele>154</ele>
        <time>2025-04-05T09:32:54Z</time>
      </trkpt>
      <trkpt lat="50.16233" lon="4.79461">
        <ele>154</ele>
        <time>2025-04-05T09:32:55Z</time>
      </trkpt>
      <trkpt lat="50.16226" lon="4.79457">
        <ele>153.8</ele>
        <time>2025-04-05T09:32:56Z</time>
      </trkpt>
      <trkpt lat="50.16218" lon="4.79454">
        <ele>153.4</ele>
        <time>2025-04-05T09:32:57Z</time>
      </trkpt>
      <trkpt lat="50.16209" lon="4.79449">
        <ele>153.2</ele>
        <time>2025-04-05T09:32:58Z</time>
      </trkpt>
      <trkpt lat="50.16203" lon="4.79445">
        <ele>152.8</ele>
        <time>2025-04-05T09:32:59Z</time>
      </trkpt>
      <trkpt lat="50.16195" lon="4.79441">
        <ele>152.6</ele>
        <time>2025-04-05T09:33:00Z</time>
      </trkpt>
      <trkpt lat="50.16188" lon="4.79437">
        <ele>152.2</ele>
        <time>2025-04-05T09:33:01Z</time>
      </trkpt>
      <trkpt lat="50.1618" lon="4.79434">
        <ele>152</ele>
        <time>2025-04-05T09:33:02Z</time>
      </trkpt>
      <trkpt lat="50.16172" lon="4.79431">
        <ele>151.8</ele>
        <time>2025-04-05T09:33:03Z</time>
      </trkpt>
      <trkpt lat="50.16165" lon="4.79429">
        <ele>151.4</ele>
        <time>2025-04-05T09:33:04Z</time>
      </trkpt>
      <trkpt lat="50.16157" lon="4.79427">
        <ele>151.2</ele>
        <time>2025-04-05T09:33:05Z</time>
      </trkpt>
      <trkpt lat="50.16149" lon="4.79425">
        <ele>150.8</ele>
        <time>2025-04-05T09:33:06Z</time>
      </trkpt>
      <trkpt lat="50.16141" lon="4.79423">
        <ele>150.4</ele>
        <time>2025-04-05T09:33:07Z</time>
      </trkpt>
      <trkpt lat="50.16133" lon="4.7942">
        <ele>149.8</ele>
        <time>2025-04-05T09:33:08Z</time>
      </trkpt>
      <trkpt lat="50.16126" lon="4.79417">
        <ele>149.4</ele>
        <time>2025-04-05T09:33:09Z</time>
      </trkpt>
      <trkpt lat="50.16118" lon="4.79413">
        <ele>149.2</ele>
        <time>2025-04-05T09:33:10Z</time>
      </trkpt>
      <trkpt lat="50.16108" lon="4.79408">
        <ele>148.6</ele>
        <time>2025-04-05T09:33:11Z</time>
      </trkpt>
      <trkpt lat="50.161" lon="4.79404">
        <ele>148.2</ele>
        <time>2025-04-05T09:33:12Z</time>
      </trkpt>
      <trkpt lat="50.16094" lon="4.794">
        <ele>147.6</ele>
        <time>2025-04-05T09:33:13Z</time>
      </trkpt>
      <trkpt lat="50.16085" lon="4.79396">
        <ele>147.2</ele>
        <time>2025-04-05T09:33:14Z</time>
      </trkpt>
      <trkpt lat="50.16078" lon="4.79393">
        <ele>146.6</ele>
        <time>2025-04-05T09:33:15Z</time>
      </trkpt>
      <trkpt lat="50.16071" lon="4.7939">
        <ele>146</ele>
        <time>2025-04-05T09:33:16Z</time>
      </trkpt>
      <trkpt lat="50.16063" lon="4.79387">
        <ele>145.4</ele>
        <time>2025-04-05T09:33:17Z</time>
      </trkpt>
      <trkpt lat="50.16055" lon="4.79383">
        <ele>144.6</ele>
        <time>2025-04-05T09:33:18Z</time>
      </trkpt>
      <trkpt lat="50.16048" lon="4.7938">
        <ele>144</ele>
        <time>2025-04-05T09:33:19Z</time>
      </trkpt>
      <trkpt lat="50.16039" lon="4.79376">
        <ele>143.4</ele>
        <time>2025-04-05T09:33:20Z</time>
      </trkpt>
      <trkpt lat="50.16033" lon="4.79373">
        <ele>142.8</ele>
        <time>2025-04-05T09:33:21Z</time>
      </trkpt>
      <trkpt lat="50.16028" lon="4.79371">
        <ele>142.2</ele>
        <time>2025-04-05T09:33:22Z</time>
      </trkpt>
      <trkpt lat="50.16021" lon="4.79368">
        <ele>141.6</ele>
        <time>2025-04-05T09:33:23Z</time>
      </trkpt>
      <trkpt lat="50.16015" lon="4.79365">
        <ele>141.2</ele>
        <time>2025-04-05T09:33:24Z</time>
      </trkpt>
      <trkpt lat="50.16009" lon="4.79363">
        <ele>140.6</ele>
        <time>2025-04-05T09:33:25Z</time>
      </trkpt>
      <trkpt lat="50.16003" lon="4.79361">
        <ele>140.2</ele>
        <time>2025-04-05T09:33:26Z</time>
      </trkpt>
      <trkpt lat="50.15998" lon="4.7936">
        <ele>139.8</ele>
        <time>2025-04-05T09:33:27Z</time>
      </trkpt>
      <trkpt lat="50.15992" lon="4.79361">
        <ele>139.4</ele>
        <time>2025-04-05T09:33:28Z</time>
      </trkpt>
      <trkpt lat="50.15987" lon="4.79364">
        <ele>138.8</ele>
        <time>2025-04-05T09:33:29Z</time>
      </trkpt>
      <trkpt lat="50.15982" lon="4.79368">
        <ele>138.4</ele>
        <time>2025-04-05T09:33:30Z</time>
      </trkpt>
      <trkpt lat="50.15978" lon="4.79375">
        <ele>137.8</ele>
        <time>2025-04-05T09:33:31Z</time>
      </trkpt>
      <trkpt lat="50.15974" lon="4.79383">
        <ele>137.2</ele>
        <time>2025-04-05T09:33:32Z</time>
      </trkpt>
      <trkpt lat="50.15973" lon="4.79394">
        <ele>136.8</ele>
        <time>2025-04-05T09:33:33Z</time>
      </trkpt>
      <trkpt lat="50.15973" lon="4.79402">
        <ele>136.4</ele>
        <time>2025-04-05T09:33:34Z</time>
      </trkpt>
      <trkpt lat="50.15973" lon="4.79411">
        <ele>135.8</ele>
        <time>2025-04-05T09:33:35Z</time>
      </trkpt>
      <trkpt lat="50.15974" lon="4.79421">
        <ele>135.4</ele>
        <time>2025-04-05T09:33:36Z</time>
      </trkpt>
      <trkpt lat="50.15976" lon="4.79432">
        <ele>135</ele>
        <time>2025-04-05T09:33:37Z</time>
      </trkpt>
      <trkpt lat="50.15977" lon="4.79443">
        <ele>134.4</ele>
        <time>2025-04-05T09:33:38Z</time>
      </trkpt>
      <trkpt lat="50.15978" lon="4.79455">
        <ele>134</ele>
        <time>2025-04-05T09:33:39Z</time>
      </trkpt>
      <trkpt lat="50.15979" lon="4.79468">
        <ele>133.6</ele>
        <time>2025-04-05T09:33:40Z</time>
      </trkpt>
      <trkpt lat="50.1598" lon="4.7948">
        <ele>133.2</ele>
        <time>2025-04-05T09:33:41Z</time>
      </trkpt>
      <trkpt lat="50.15981" lon="4.79489">
        <ele>132.6</ele>
        <time>2025-04-05T09:33:42Z</time>
      </trkpt>
      <trkpt lat="50.15983" lon="4.79499">
        <ele>132</ele>
        <time>2025-04-05T09:33:43Z</time>
      </trkpt>
      <trkpt lat="50.15984" lon="4.79508">
        <ele>131.6</ele>
        <time>2025-04-05T09:33:44Z</time>
      </trkpt>
      <trkpt lat="50.15983" lon="4.79516">
        <ele>131</ele>
        <time>2025-04-05T09:33:45Z</time>
      </trkpt>
      <trkpt lat="50.1598" lon="4.79524">
        <ele>130.6</ele>
        <time>2025-04-05T09:33:46Z</time>
      </trkpt>
      <trkpt lat="50.15976" lon="4.79528">
        <ele>130</ele>
        <time>2025-04-05T09:33:47Z</time>
      </trkpt>
      <trkpt lat="50.1597" lon="4.79529">
        <ele>129.6</ele>
        <time>2025-04-05T09:33:48Z</time>
      </trkpt>
      <trkpt lat="50.15963" lon="4.79525">
        <ele>129</ele>
        <time>2025-04-05T09:33:49Z</time>
      </trkpt>
      <trkpt lat="50.15957" lon="4.79519">
        <ele>128.6</ele>
        <time>2025-04-05T09:33:50Z</time>
      </trkpt>
      <trkpt lat="50.15953" lon="4.79511">
        <ele>128</ele>
        <time>2025-04-05T09:33:51Z</time>
      </trkpt>
      <trkpt lat="50.1595" lon="4.795">
        <ele>127.6</ele>
        <time>2025-04-05T09:33:52Z</time>
      </trkpt>
      <trkpt lat="50.15949" lon="4.79488">
        <ele>127.2</ele>
        <time>2025-04-05T09:33:53Z</time>
      </trkpt>
      <trkpt lat="50.15946" lon="4.79476">
        <ele>126.8</ele>
        <time>2025-04-05T09:33:54Z</time>
      </trkpt>
      <trkpt lat="50.15944" lon="4.79463">
        <ele>126.2</ele>
        <time>2025-04-05T09:33:55Z</time>
      </trkpt>
      <trkpt lat="50.15942" lon="4.79449">
        <ele>125.8</ele>
        <time>2025-04-05T09:33:56Z</time>
      </trkpt>
      <trkpt lat="50.1594" lon="4.79436">
        <ele>125.4</ele>
        <time>2025-04-05T09:33:57Z</time>
      </trkpt>
      <trkpt lat="50.15937" lon="4.79425">
        <ele>125</ele>
        <time>2025-04-05T09:33:58Z</time>
      </trkpt>
      <trkpt lat="50.15934" lon="4.79411">
        <ele>124.6</ele>
        <time>2025-04-05T09:33:59Z</time>
      </trkpt>
      <trkpt lat="50.15933" lon="4.79401">
        <ele>124</ele>
        <time>2025-04-05T09:34:00Z</time>
      </trkpt>
      <trkpt lat="50.15931" lon="4.7939">
        <ele>123.6</ele>
        <time>2025-04-05T09:34:01Z</time>
      </trkpt>
      <trkpt lat="50.15928" lon="4.79379">
        <ele>123.4</ele>
        <time>2025-04-05T09:34:02Z</time>
      </trkpt>
      <trkpt lat="50.15926" lon="4.79368">
        <ele>123</ele>
        <time>2025-04-05T09:34:03Z</time>
      </trkpt>
      <trkpt lat="50.15923" lon="4.79357">
        <ele>122.6</ele>
        <time>2025-04-05T09:34:04Z</time>
      </trkpt>
      <trkpt lat="50.15919" lon="4.79346">
        <ele>122.4</ele>
        <time>2025-04-05T09:34:05Z</time>
      </trkpt>
      <trkpt lat="50.15915" lon="4.79339">
        <ele>121.8</ele>
        <time>2025-04-05T09:34:06Z</time>
      </trkpt>
      <trkpt lat="50.15909" lon="4.7933">
        <ele>121.2</ele>
        <time>2025-04-05T09:34:07Z</time>
      </trkpt>
      <trkpt lat="50.15902" lon="4.79322">
        <ele>120.8</ele>
        <time>2025-04-05T09:34:08Z</time>
      </trkpt>
      <trkpt lat="50.15896" lon="4.79315">
        <ele>120.2</ele>
        <time>2025-04-05T09:34:09Z</time>
      </trkpt>
      <trkpt lat="50.15888" lon="4.7931">
        <ele>119.6</ele>
        <time>2025-04-05T09:34:10Z</time>
      </trkpt>
      <trkpt lat="50.15879" lon="4.79305">
        <ele>119</ele>
        <time>2025-04-05T09:34:11Z</time>
      </trkpt>
      <trkpt lat="50.1587" lon="4.79302">
        <ele>118.6</ele>
        <time>2025-04-05T09:34:12Z</time>
      </trkpt>
      <trkpt lat="50.15861" lon="4.79299">
        <ele>118</ele>
        <time>2025-04-05T09:34:13Z</time>
      </trkpt>
      <trkpt lat="50.15851" lon="4.79296">
        <ele>117.4</ele>
        <time>2025-04-05T09:34:14Z</time>
      </trkpt>
      <trkpt lat="50.15842" lon="4.79293">
        <ele>116.8</ele>
        <time>2025-04-05T09:34:15Z</time>
      </trkpt>
      <trkpt lat="50.15833" lon="4.79291">
        <ele>116.4</ele>
        <time>2025-04-05T09:34:16Z</time>
      </trkpt>
      <trkpt lat="50.15824" lon="4.79289">
        <ele>116.2</ele>
        <time>2025-04-05T09:34:17Z</time>
      </trkpt>
      <trkpt lat="50.15814" lon="4.79288">
        <ele>116</ele>
        <time>2025-04-05T09:34:18Z</time>
      </trkpt>
      <trkpt lat="50.15808" lon="4.79288">
        <ele>116</ele>
        <time>2025-04-05T09:34:19Z</time>
      </trkpt>
      <trkpt lat="50.15803" lon="4.79292">
        <ele>116</ele>
        <time>2025-04-05T09:34:20Z</time>
      </trkpt>
      <trkpt lat="50.158" lon="4.79298">
        <ele>116.2</ele>
        <time>2025-04-05T09:34:21Z</time>
      </trkpt>
      <trkpt lat="50.15797" lon="4.79308">
        <ele>116.4</ele>
        <time>2025-04-05T09:34:22Z</time>
      </trkpt>
      <trkpt lat="50.15796" lon="4.79315">
        <ele>116.6</ele>
        <time>2025-04-05T09:34:23Z</time>
      </trkpt>
      <trkpt lat="50.15797" lon="4.79322">
        <ele>116.8</ele>
        <time>2025-04-05T09:34:24Z</time>
      </trkpt>
      <trkpt lat="50.15797" lon="4.79329">
        <ele>117.2</ele>
        <time>2025-04-05T09:34:25Z</time>
      </trkpt>
      <trkpt lat="50.15797" lon="4.79336">
        <ele>117.4</ele>
        <time>2025-04-05T09:34:26Z</time>
      </trkpt>
      <trkpt lat="50.15797" lon="4.79343">
        <ele>117.8</ele>
        <time>2025-04-05T09:34:27Z</time>
      </trkpt>
      <trkpt lat="50.15798" lon="4.79349">
        <ele>118</ele>
        <time>2025-04-05T09:34:28Z</time>
      </trkpt>
      <trkpt lat="50.15799" lon="4.79355">
        <ele>118.4</ele>
        <time>2025-04-05T09:34:29Z</time>
      </trkpt>
      <trkpt lat="50.15801" lon="4.79361">
        <ele>118.6</ele>
        <time>2025-04-05T09:34:30Z</time>
      </trkpt>
      <trkpt lat="50.15801" lon="4.79367">
        <ele>119</ele>
        <time>2025-04-05T09:34:31Z</time>
      </trkpt>
      <trkpt lat="50.15801" lon="4.79373">
        <ele>119.4</ele>
        <time>2025-04-05T09:34:32Z</time>
      </trkpt>
      <trkpt lat="50.158" lon="4.79379">
        <ele>119.6</ele>
        <time>2025-04-05T09:34:33Z</time>
      </trkpt>
      <trkpt lat="50.15801" lon="4.79385">
        <ele>120</ele>
        <time>2025-04-05T09:34:34Z</time>
      </trkpt>
      <trkpt lat="50.15801" lon="4.79392">
        <ele>120.2</ele>
        <time>2025-04-05T09:34:35Z</time>
      </trkpt>
      <trkpt lat="50.15801" lon="4.79399">
        <ele>120.4</ele>
        <time>2025-04-05T09:34:36Z</time>
      </trkpt>
      <trkpt lat="50.158" lon="4.79405">
        <ele>120.8</ele>
        <time>2025-04-05T09:34:37Z</time>
      </trkpt>
      <trkpt lat="50.15799" lon="4.79413">
        <ele>121</ele>
        <time>2025-04-05T09:34:38Z</time>
      </trkpt>
      <trkpt lat="50.15797" lon="4.79419">
        <ele>121.2</ele>
        <time>2025-04-05T09:34:39Z</time>
      </trkpt>
      <trkpt lat="50.15795" lon="4.79424">
        <ele>121.4</ele>
        <time>2025-04-05T09:34:40Z</time>
      </trkpt>
      <trkpt lat="50.15793" lon="4.7943">
        <ele>121.8</ele>
        <time>2025-04-05T09:34:41Z</time>
      </trkpt>
      <trkpt lat="50.1579" lon="4.79435">
        <ele>122</ele>
        <time>2025-04-05T09:34:42Z</time>
      </trkpt>
      <trkpt lat="50.15787" lon="4.79441">
        <ele>122.4</ele>
        <time>2025-04-05T09:34:43Z</time>
      </trkpt>
      <trkpt lat="50.15784" lon="4.79444">
        <ele>122.8</ele>
        <time>2025-04-05T09:34:44Z</time>
      </trkpt>
      <trkpt lat="50.15781" lon="4.79448">
        <ele>123</ele>
        <time>2025-04-05T09:34:45Z</time>
      </trkpt>
      <trkpt lat="50.15778" lon="4.7945">
        <ele>123.4</ele>
        <time>2025-04-05T09:34:46Z</time>
      </trkpt>
      <trkpt lat="50.15775" lon="4.79453">
        <ele>123.8</ele>
        <time>2025-04-05T09:34:47Z</time>
      </trkpt>
      <trkpt lat="50.15772" lon="4.79455">
        <ele>124.2</ele>
        <time>2025-04-05T09:34:48Z</time>
      </trkpt>
      <trkpt lat="50.15769" lon="4.79458">
        <ele>124.4</ele>
        <time>2025-04-05T09:34:49Z</time>
      </trkpt>
      <trkpt lat="50.15766" lon="4.7946">
        <ele>124.8</ele>
        <time>2025-04-05T09:34:50Z</time>
      </trkpt>
      <trkpt lat="50.15763" lon="4.79462">
        <ele>125</ele>
        <time>2025-04-05T09:34:51Z</time>
      </trkpt>
      <trkpt lat="50.1576" lon="4.79464">
        <ele>125.4</ele>
        <time>2025-04-05T09:34:52Z</time>
      </trkpt>
      <trkpt lat="50.15758" lon="4.79465">
        <ele>125.6</ele>
        <time>2025-04-05T09:34:53Z</time>
      </trkpt>
      <trkpt lat="50.15756" lon="4.79467">
        <ele>125.8</ele>
        <time>2025-04-05T09:34:54Z</time>
      </trkpt>
      <trkpt lat="50.15754" lon="4.79468">
        <ele>126</ele>
        <time>2025-04-05T09:34:55Z</time>
      </trkpt>
      <trkpt lat="50.15751" lon="4.79469">
        <ele>126.2</ele>
        <time>2025-04-05T09:34:56Z</time>
      </trkpt>
      <trkpt lat="50.1575" lon="4.79469">
        <ele>126.4</ele>
        <time>2025-04-05T09:34:57Z</time>
      </trkpt>
      <trkpt lat="50.15749" lon="4.79469">
        <ele>126.4</ele>
        <time>2025-04-05T09:34:58Z</time>
      </trkpt>
      <trkpt lat="50.1575" lon="4.79467">
        <ele>127.2</ele>
        <time>2025-04-05T09:35:28Z</time>
      </trkpt>
      <trkpt lat="50.15751" lon="4.79467">
        <ele>127.2</ele>
        <time>2025-04-05T09:35:29Z</time>
      </trkpt>
      <trkpt lat="50.1575" lon="4.79466">
        <ele>127</ele>
        <time>2025-04-05T09:35:30Z</time>
      </trkpt>
      <trkpt lat="50.1575" lon="4.79465">
        <ele>127</ele>
        <time>2025-04-05T09:35:31Z</time>
      </trkpt>
      <trkpt lat="50.1575" lon="4.79464">
        <ele>127</ele>
        <time>2025-04-05T09:35:32Z</time>
      </trkpt>
      <trkpt lat="50.1575" lon="4.79464">
        <ele>127</ele>
        <time>2025-04-05T09:35:33Z</time>
      </trkpt>
      <trkpt lat="50.15727" lon="4.79484">
        <ele>126.8</ele>
        <time>2025-04-05T09:52:04Z</time>
      </trkpt>
      <trkpt lat="50.15723" lon="4.79487">
        <ele>126.8</ele>
        <time>2025-04-05T09:52:05Z</time>
      </trkpt>
      <trkpt lat="50.1572" lon="4.7949">
        <ele>126.6</ele>
        <time>2025-04-05T09:52:06Z</time>
      </trkpt>
      <trkpt lat="50.15716" lon="4.79493">
        <ele>126.6</ele>
        <time>2025-04-05T09:52:07Z</time>
      </trkpt>
      <trkpt lat="50.15712" lon="4.79496">
        <ele>126.6</ele>
        <time>2025-04-05T09:52:08Z</time>
      </trkpt>
      <trkpt lat="50.15709" lon="4.79499">
        <ele>126.6</ele>
        <time>2025-04-05T09:52:09Z</time>
      </trkpt>
      <trkpt lat="50.15705" lon="4.79503">
        <ele>126.4</ele>
        <time>2025-04-05T09:52:10Z</time>
      </trkpt>
      <trkpt lat="50.15701" lon="4.79507">
        <ele>126.4</ele>
        <time>2025-04-05T09:52:11Z</time>
      </trkpt>
      <trkpt lat="50.15697" lon="4.7951">
        <ele>126.4</ele>
        <time>2025-04-05T09:52:12Z</time>
      </trkpt>
      <trkpt lat="50.15692" lon="4.79514">
        <ele>126.4</ele>
        <time>2025-04-05T09:52:13Z</time>
      </trkpt>
      <trkpt lat="50.15688" lon="4.79517">
        <ele>126.2</ele>
        <time>2025-04-05T09:52:14Z</time>
      </trkpt>
      <trkpt lat="50.15684" lon="4.79521">
        <ele>126.2</ele>
        <time>2025-04-05T09:52:15Z</time>
      </trkpt>
      <trkpt lat="50.1568" lon="4.79524">
        <ele>126.2</ele>
        <time>2025-04-05T09:52:16Z</time>
      </trkpt>
      <trkpt lat="50.15676" lon="4.79527">
        <ele>126.2</ele>
        <time>2025-04-05T09:52:17Z</time>
      </trkpt>
      <trkpt lat="50.15672" lon="4.7953">
        <ele>126.2</ele>
        <time>2025-04-05T09:52:18Z</time>
      </trkpt>
      <trkpt lat="50.15668" lon="4.79533">
        <ele>126.2</ele>
        <time>2025-04-05T09:52:19Z</time>
      </trkpt>
      <trkpt lat="50.15664" lon="4.79537">
        <ele>126.2</ele>
        <time>2025-04-05T09:52:20Z</time>
      </trkpt>
      <trkpt lat="50.15659" lon="4.7954">
        <ele>126.2</ele>
        <time>2025-04-05T09:52:21Z</time>
      </trkpt>
      <trkpt lat="50.15656" lon="4.79543">
        <ele>126.2</ele>
        <time>2025-04-05T09:52:22Z</time>
      </trkpt>
      <trkpt lat="50.15652" lon="4.79546">
        <ele>126.2</ele>
        <time>2025-04-05T09:52:23Z</time>
      </trkpt>
      <trkpt lat="50.15647" lon="4.7955">
        <ele>126.4</ele>
        <time>2025-04-05T09:52:24Z</time>
      </trkpt>
      <trkpt lat="50.15643" lon="4.79554">
        <ele>126.4</ele>
        <time>2025-04-05T09:52:25Z</time>
      </trkpt>
      <trkpt lat="50.15639" lon="4.79557">
        <ele>126.6</ele>
        <time>2025-04-05T09:52:26Z</time>
      </trkpt>
      <trkpt lat="50.15635" lon="4.79561">
        <ele>126.6</ele>
        <time>2025-04-05T09:52:27Z</time>
      </trkpt>
      <trkpt lat="50.15631" lon="4.79564">
        <ele>126.8</ele>
        <time>2025-04-05T09:52:28Z</time>
      </trkpt>
      <trkpt lat="50.15627" lon="4.79568">
        <ele>126.8</ele>
        <time>2025-04-05T09:52:29Z</time>
      </trkpt>
      <trkpt lat="50.15623" lon="4.79571">
        <ele>126.8</ele>
        <time>2025-04-05T09:52:30Z</time>
      </trkpt>
      <trkpt lat="50.15619" lon="4.79574">
        <ele>126.8</ele>
        <time>2025-04-05T09:52:31Z</time>
      </trkpt>
      <trkpt lat="50.15615" lon="4.79577">
        <ele>126.8</ele>
        <time>2025-04-05T09:52:32Z</time>
      </trkpt>
      <trkpt lat="50.1561" lon="4.7958">
        <ele>126.8</ele>
        <time>2025-04-05T09:52:33Z</time>
      </trkpt>
      <trkpt lat="50.15606" lon="4.79584">
        <ele>126.8</ele>
        <time>2025-04-05T09:52:34Z</time>
      </trkpt>
      <trkpt lat="50.15601" lon="4.79587">
        <ele>126.8</ele>
        <time>2025-04-05T09:52:35Z</time>
      </trkpt>
      <trkpt lat="50.15596" lon="4.79591">
        <ele>126.8</ele>
        <time>2025-04-05T09:52:36Z</time>
      </trkpt>
      <trkpt lat="50.15593" lon="4.79595">
        <ele>126.6</ele>
        <time>2025-04-05T09:52:37Z</time>
      </trkpt>
      <trkpt lat="50.15587" lon="4.796">
        <ele>126.6</ele>
        <time>2025-04-05T09:52:38Z</time>
      </trkpt>
      <trkpt lat="50.15582" lon="4.79604">
        <ele>126.4</ele>
        <time>2025-04-05T09:52:39Z</time>
      </trkpt>
      <trkpt lat="50.15577" lon="4.79608">
        <ele>126.4</ele>
        <time>2025-04-05T09:52:40Z</time>
      </trkpt>
      <trkpt lat="50.15572" lon="4.79612">
        <ele>126.2</ele>
        <time>2025-04-05T09:52:41Z</time>
      </trkpt>
      <trkpt lat="50.15567" lon="4.79616">
        <ele>126</ele>
        <time>2025-04-05T09:52:42Z</time>
      </trkpt>
      <trkpt lat="50.15562" lon="4.7962">
        <ele>126</ele>
        <time>2025-04-05T09:52:43Z</time>
      </trkpt>
      <trkpt lat="50.15556" lon="4.79625">
        <ele>125.8</ele>
        <time>2025-04-05T09:52:44Z</time>
      </trkpt>
      <trkpt lat="50.15551" lon="4.79629">
        <ele>125.6</ele>
        <time>2025-04-05T09:52:45Z</time>
      </trkpt>
      <trkpt lat="50.15544" lon="4.79634">
        <ele>125.2</ele>
        <time>2025-04-05T09:52:46Z</time>
      </trkpt>
      <trkpt lat="50.15537" lon="4.79639">
        <ele>125</ele>
        <time>2025-04-05T09:52:47Z</time>
      </trkpt>
      <trkpt lat="50.1553" lon="4.79644">
        <ele>124.6</ele>
        <time>2025-04-05T09:52:48Z</time>
      </trkpt>
      <trkpt lat="50.15524" lon="4.79649">
        <ele>124.2</ele>
        <time>2025-04-05T09:52:49Z</time>
      </trkpt>
      <trkpt lat="50.15517" lon="4.79653">
        <ele>123.8</ele>
        <time>2025-04-05T09:52:50Z</time>
      </trkpt>
      <trkpt lat="50.15509" lon="4.79658">
        <ele>123.4</ele>
        <time>2025-04-05T09:52:51Z</time>
      </trkpt>
      <trkpt lat="50.15501" lon="4.79662">
        <ele>122.8</ele>
        <time>2025-04-05T09:52:52Z</time>
      </trkpt>
      <trkpt lat="50.15494" lon="4.79665">
        <ele>122.4</ele>
        <time>2025-04-05T09:52:53Z</time>
      </trkpt>
      <trkpt lat="50.15485" lon="4.79669">
        <ele>121.8</ele>
        <time>2025-04-05T09:52:54Z</time>
      </trkpt>
      <trkpt lat="50.15476" lon="4.79672">
        <ele>121.4</ele>
        <time>2025-04-05T09:52:55Z</time>
      </trkpt>
      <trkpt lat="50.15467" lon="4.79675">
        <ele>120.8</ele>
        <time>2025-04-05T09:52:56Z</time>
      </trkpt>
      <trkpt lat="50.15458" lon="4.79679">
        <ele>120.2</ele>
        <time>2025-04-05T09:52:57Z</time>
      </trkpt>
      <trkpt lat="50.15448" lon="4.79682">
        <ele>119.6</ele>
        <time>2025-04-05T09:52:58Z</time>
      </trkpt>
      <trkpt lat="50.15439" lon="4.79686">
        <ele>119</ele>
        <time>2025-04-05T09:52:59Z</time>
      </trkpt>
      <trkpt lat="50.15429" lon="4.7969">
        <ele>118.4</ele>
        <time>2025-04-05T09:53:00Z</time>
      </trkpt>
      <trkpt lat="50.15421" lon="4.79693">
        <ele>118</ele>
        <time>2025-04-05T09:53:01Z</time>
      </trkpt>
      <trkpt lat="50.15411" lon="4.79696">
        <ele>117.4</ele>
        <time>2025-04-05T09:53:02Z</time>
      </trkpt>
      <trkpt lat="50.15398" lon="4.797">
        <ele>116.8</ele>
        <time>2025-04-05T09:53:03Z</time>
      </trkpt>
      <trkpt lat="50.15387" lon="4.79704">
        <ele>116.2</ele>
        <time>2025-04-05T09:53:04Z</time>
      </trkpt>
      <trkpt lat="50.15376" lon="4.79708">
        <ele>115.4</ele>
        <time>2025-04-05T09:53:05Z</time>
      </trkpt>
      <trkpt lat="50.15365" lon="4.79712">
        <ele>114.8</ele>
        <time>2025-04-05T09:53:06Z</time>
      </trkpt>
      <trkpt lat="50.15354" lon="4.79716">
        <ele>114</ele>
        <time>2025-04-05T09:53:07Z</time>
      </trkpt>
      <trkpt lat="50.15343" lon="4.79721">
        <ele>113.4</ele>
        <time>2025-04-05T09:53:08Z</time>
      </trkpt>
      <trkpt lat="50.15332" lon="4.79725">
        <ele>112.6</ele>
        <time>2025-04-05T09:53:09Z</time>
      </trkpt>
      <trkpt lat="50.15322" lon="4.79728">
        <ele>112</ele>
        <time>2025-04-05T09:53:10Z</time>
      </trkpt>
      <trkpt lat="50.1531" lon="4.79733">
        <ele>111.4</ele>
        <time>2025-04-05T09:53:11Z</time>
      </trkpt>
      <trkpt lat="50.15297" lon="4.79738">
        <ele>110.6</ele>
        <time>2025-04-05T09:53:12Z</time>
      </trkpt>
      <trkpt lat="50.15286" lon="4.79742">
        <ele>110</ele>
        <time>2025-04-05T09:53:13Z</time>
      </trkpt>
      <trkpt lat="50.15277" lon="4.79745">
        <ele>109.8</ele>
        <time>2025-04-05T09:53:14Z</time>
      </trkpt>
      <trkpt lat="50.15267" lon="4.79749">
        <ele>109.2</ele>
        <time>2025-04-05T09:53:15Z</time>
      </trkpt>
      <trkpt lat="50.15255" lon="4.79753">
        <ele>108.6</ele>
        <time>2025-04-05T09:53:16Z</time>
      </trkpt>
      <trkpt lat="50.15243" lon="4.79757">
        <ele>108</ele>
        <time>2025-04-05T09:53:17Z</time>
      </trkpt>
      <trkpt lat="50.15232" lon="4.79761">
        <ele>107.4</ele>
        <time>2025-04-05T09:53:18Z</time>
      </trkpt>
      <trkpt lat="50.15221" lon="4.79765">
        <ele>107.2</ele>
        <time>2025-04-05T09:53:19Z</time>
      </trkpt>
      <trkpt lat="50.15211" lon="4.79769">
        <ele>107</ele>
        <time>2025-04-05T09:53:20Z</time>
      </trkpt>
      <trkpt lat="50.15202" lon="4.79772">
        <ele>107.2</ele>
        <time>2025-04-05T09:53:21Z</time>
      </trkpt>
      <trkpt lat="50.15193" lon="4.79778">
        <ele>107.2</ele>
        <time>2025-04-05T09:53:22Z</time>
      </trkpt>
      <trkpt lat="50.15187" lon="4.79783">
        <ele>107.6</ele>
        <time>2025-04-05T09:53:23Z</time>
      </trkpt>
      <trkpt lat="50.1518" lon="4.79792">
        <ele>108</ele>
        <time>2025-04-05T09:53:24Z</time>
      </trkpt>
      <trkpt lat="50.15176" lon="4.79801">
        <ele>108.4</ele>
        <time>2025-04-05T09:53:25Z</time>
      </trkpt>
      <trkpt lat="50.15171" lon="4.7981">
        <ele>109</ele>
        <time>2025-04-05T09:53:26Z</time>
      </trkpt>
      <trkpt lat="50.15168" lon="4.7982">
        <ele>109.4</ele>
        <time>2025-04-05T09:53:27Z</time>
      </trkpt>
      <trkpt lat="50.15165" lon="4.79827">
        <ele>109.8</ele>
        <time>2025-04-05T09:53:28Z</time>
      </trkpt>
      <trkpt lat="50.15162" lon="4.79836">
        <ele>110.2</ele>
        <time>2025-04-05T09:53:29Z</time>
      </trkpt>
      <trkpt lat="50.15159" lon="4.79844">
        <ele>110.6</ele>
        <time>2025-04-05T09:53:30Z</time>
      </trkpt>
      <trkpt lat="50.15155" lon="4.7985">
        <ele>111</ele>
        <time>2025-04-05T09:53:31Z</time>
      </trkpt>
      <trkpt lat="50.15152" lon="4.79857">
        <ele>111.4</ele>
        <time>2025-04-05T09:53:32Z</time>
      </trkpt>
      <trkpt lat="50.15149" lon="4.79864">
        <ele>111.8</ele>
        <time>2025-04-05T09:53:33Z</time>
      </trkpt>
      <trkpt lat="50.15145" lon="4.79871">
        <ele>112.2</ele>
        <time>2025-04-05T09:53:34Z</time>
      </trkpt>
      <trkpt lat="50.15142" lon="4.79877">
        <ele>112.6</ele>
        <time>2025-04-05T09:53:35Z</time>
      </trkpt>
      <trkpt lat="50.15139" lon="4.79882">
        <ele>112.8</ele>
        <time>2025-04-05T09:53:36Z</time>
      </trkpt>
      <trkpt lat="50.15136" lon="4.79888">
        <ele>113.2</ele>
        <time>2025-04-05T09:53:37Z</time>
      </trkpt>
      <trkpt lat="50.15133" lon="4.79895">
        <ele>113.6</ele>
        <time>2025-04-05T09:53:38Z</time>
      </trkpt>
      <trkpt lat="50.15129" lon="4.79901">
        <ele>113.8</ele>
        <time>2025-04-05T09:53:39Z</time>
      </trkpt>
      <trkpt lat="50.15126" lon="4.79906">
        <ele>114.2</ele>
        <time>2025-04-05T09:53:40Z</time>
      </trkpt>
      <trkpt lat="50.15122" lon="4.79912">
        <ele>114.4</ele>
        <time>2025-04-05T09:53:41Z</time>
      </trkpt>
      <trkpt lat="50.15118" lon="4.79917">
        <ele>114.6</ele>
        <time>2025-04-05T09:53:42Z</time>
      </trkpt>
      <trkpt lat="50.15113" lon="4.79922">
        <ele>114.8</ele>
        <time>2025-04-05T09:53:43Z</time>
      </trkpt>
      <trkpt lat="50.1511" lon="4.79927">
        <ele>115</ele>
        <time>2025-04-05T09:53:44Z</time>
      </trkpt>
      <trkpt lat="50.15106" lon="4.79932">
        <ele>115.2</ele>
        <time>2025-04-05T09:53:45Z</time>
      </trkpt>
      <trkpt lat="50.15102" lon="4.79938">
        <ele>115.4</ele>
        <time>2025-04-05T09:53:46Z</time>
      </trkpt>
      <trkpt lat="50.15097" lon="4.79943">
        <ele>115.4</ele>
        <time>2025-04-05T09:53:47Z</time>
      </trkpt>
      <trkpt lat="50.15094" lon="4.79947">
        <ele>115.6</ele>
        <time>2025-04-05T09:53:48Z</time>
      </trkpt>
      <trkpt lat="50.1509" lon="4.79952">
        <ele>115.8</ele>
        <time>2025-04-05T09:53:49Z</time>
      </trkpt>
      <trkpt lat="50.15086" lon="4.79958">
        <ele>115.8</ele>
        <time>2025-04-05T09:53:50Z</time>
      </trkpt>
      <trkpt lat="50.15082" lon="4.79962">
        <ele>116</ele>
        <time>2025-04-05T09:53:51Z</time>
      </trkpt>
      <trkpt lat="50.15078" lon="4.79967">
        <ele>116.2</ele>
        <time>2025-04-05T09:53:52Z</time>
      </trkpt>
      <trkpt lat="50.15075" lon="4.7997">
        <ele>116.4</ele>
        <time>2025-04-05T09:53:53Z</time>
      </trkpt>
      <trkpt lat="50.15071" lon="4.79975">
        <ele>116.4</ele>
        <time>2025-04-05T09:53:54Z</time>
      </trkpt>
      <trkpt lat="50.15067" lon="4.79979">
        <ele>116.6</ele>
        <time>2025-04-05T09:53:55Z</time>
      </trkpt>
      <trkpt lat="50.15064" lon="4.79983">
        <ele>116.8</ele>
        <time>2025-04-05T09:53:56Z</time>
      </trkpt>
      <trkpt lat="50.15061" lon="4.79987">
        <ele>117</ele>
        <time>2025-04-05T09:53:57Z</time>
      </trkpt>
      <trkpt lat="50.15059" lon="4.7999">
        <ele>117</ele>
        <time>2025-04-05T09:53:58Z</time>
      </trkpt>
      <trkpt lat="50.15056" lon="4.79993">
        <ele>117.2</ele>
        <time>2025-04-05T09:53:59Z</time>
      </trkpt>
      <trkpt lat="50.15052" lon="4.79995">
        <ele>117.2</ele>
        <time>2025-04-05T09:54:00Z</time>
      </trkpt>
      <trkpt lat="50.15049" lon="4.79996">
        <ele>117.4</ele>
        <time>2025-04-05T09:54:01Z</time>
      </trkpt>
      <trkpt lat="50.15045" lon="4.79996">
        <ele>117.6</ele>
        <time>2025-04-05T09:54:02Z</time>
      </trkpt>
      <trkpt lat="50.15042" lon="4.79994">
        <ele>117.6</ele>
        <time>2025-04-05T09:54:03Z</time>
      </trkpt>
      <trkpt lat="50.15039" lon="4.79989">
        <ele>117.8</ele>
        <time>2025-04-05T09:54:04Z</time>
      </trkpt>
      <trkpt lat="50.15037" lon="4.79983">
        <ele>117.8</ele>
        <time>2025-04-05T09:54:05Z</time>
      </trkpt>
      <trkpt lat="50.15035" lon="4.79977">
        <ele>117.8</ele>
        <time>2025-04-05T09:54:06Z</time>
      </trkpt>
      <trkpt lat="50.15032" lon="4.79971">
        <ele>118</ele>
        <time>2025-04-05T09:54:07Z</time>
      </trkpt>
      <trkpt lat="50.1503" lon="4.79964">
        <ele>118</ele>
        <time>2025-04-05T09:54:08Z</time>
      </trkpt>
      <trkpt lat="50.15027" lon="4.79958">
        <ele>118</ele>
        <time>2025-04-05T09:54:09Z</time>
      </trkpt>
      <trkpt lat="50.15026" lon="4.79953">
        <ele>118.2</ele>
        <time>2025-04-05T09:54:10Z</time>
      </trkpt>
      <trkpt lat="50.15023" lon="4.79946">
        <ele>118.2</ele>
        <time>2025-04-05T09:54:11Z</time>
      </trkpt>
      <trkpt lat="50.15021" lon="4.79939">
        <ele>118.4</ele>
        <time>2025-04-05T09:54:12Z</time>
      </trkpt>
      <trkpt lat="50.15019" lon="4.79932">
        <ele>118.4</ele>
        <time>2025-04-05T09:54:13Z</time>
      </trkpt>
      <trkpt lat="50.15016" lon="4.79925">
        <ele>118.4</ele>
        <time>2025-04-05T09:54:14Z</time>
      </trkpt>
      <trkpt lat="50.15014" lon="4.7992">
        <ele>118.4</ele>
        <time>2025-04-05T09:54:15Z</time>
      </trkpt>
      <trkpt lat="50.15012" lon="4.79913">
        <ele>118.6</ele>
        <time>2025-04-05T09:54:16Z</time>
      </trkpt>
      <trkpt lat="50.15008" lon="4.79904">
        <ele>118.6</ele>
        <time>2025-04-05T09:54:17Z</time>
      </trkpt>
      <trkpt lat="50.15006" lon="4.79898">
        <ele>118.6</ele>
        <time>2025-04-05T09:54:18Z</time>
      </trkpt>
      <trkpt lat="50.15003" lon="4.79891">
        <ele>118.8</ele>
        <time>2025-04-05T09:54:19Z</time>
      </trkpt>
      <trkpt lat="50.15" lon="4.79883">
        <ele>118.8</ele>
        <time>2025-04-05T09:54:20Z</time>
      </trkpt>
      <trkpt lat="50.14997" lon="4.79876">
        <ele>118.8</ele>
        <time>2025-04-05T09:54:21Z</time>
      </trkpt>
      <trkpt lat="50.14994" lon="4.79868">
        <ele>118.8</ele>
        <time>2025-04-05T09:54:22Z</time>
      </trkpt>
      <trkpt lat="50.14991" lon="4.7986">
        <ele>119</ele>
        <time>2025-04-05T09:54:23Z</time>
      </trkpt>
      <trkpt lat="50.14989" lon="4.79853">
        <ele>119</ele>
        <time>2025-04-05T09:54:24Z</time>
      </trkpt>
      <trkpt lat="50.14986" lon="4.79846">
        <ele>119</ele>
        <time>2025-04-05T09:54:25Z</time>
      </trkpt>
      <trkpt lat="50.14983" lon="4.79839">
        <ele>119.2</ele>
        <time>2025-04-05T09:54:26Z</time>
      </trkpt>
      <trkpt lat="50.14981" lon="4.79833">
        <ele>119.2</ele>
        <time>2025-04-05T09:54:27Z</time>
      </trkpt>
      <trkpt lat="50.14978" lon="4.79825">
        <ele>119.4</ele>
        <time>2025-04-05T09:54:28Z</time>
      </trkpt>
      <trkpt lat="50.14975" lon="4.79817">
        <ele>119.4</ele>
        <time>2025-04-05T09:54:29Z</time>
      </trkpt>
      <trkpt lat="50.14973" lon="4.79809">
        <ele>119.4</ele>
        <time>2025-04-05T09:54:30Z</time>
      </trkpt>
      <trkpt lat="50.1497" lon="4.79802">
        <ele>119.6</ele>
        <time>2025-04-05T09:54:31Z</time>
      </trkpt>
      <trkpt lat="50.14968" lon="4.79796">
        <ele>119.6</ele>
        <time>2025-04-05T09:54:32Z</time>
      </trkpt>
      <trkpt lat="50.14965" lon="4.79789">
        <ele>119.8</ele>
        <time>2025-04-05T09:54:33Z</time>
      </trkpt>
      <trkpt lat="50.14962" lon="4.7978">
        <ele>119.8</ele>
        <time>2025-04-05T09:54:34Z</time>
      </trkpt>
      <trkpt lat="50.14959" lon="4.79774">
        <ele>119.8</ele>
        <time>2025-04-05T09:54:35Z</time>
      </trkpt>
      <trkpt lat="50.14957" lon="4.79766">
        <ele>120</ele>
        <time>2025-04-05T09:54:36Z</time>
      </trkpt>
      <trkpt lat="50.14954" lon="4.79758">
        <ele>120</ele>
        <time>2025-04-05T09:54:37Z</time>
      </trkpt>
      <trkpt lat="50.1495" lon="4.7975">
        <ele>120</ele>
        <time>2025-04-05T09:54:38Z</time>
      </trkpt>
      <trkpt lat="50.14948" lon="4.79743">
        <ele>120</ele>
        <time>2025-04-05T09:54:39Z</time>
      </trkpt>
      <trkpt lat="50.14944" lon="4.79736">
        <ele>120.2</ele>
        <time>2025-04-05T09:54:40Z</time>
      </trkpt>
      <trkpt lat="50.14941" lon="4.79729">
        <ele>120.2</ele>
        <time>2025-04-05T09:54:41Z</time>
      </trkpt>
      <trkpt lat="50.14939" lon="4.79722">
        <ele>120.2</ele>
        <time>2025-04-05T09:54:42Z</time>
      </trkpt>
      <trkpt lat="50.14936" lon="4.79714">
        <ele>120.4</ele>
        <time>2025-04-05T09:54:43Z</time>
      </trkpt>
      <trkpt lat="50.14932" lon="4.79706">
        <ele>120.4</ele>
        <time>2025-04-05T09:54:44Z</time>
      </trkpt>
      <trkpt lat="50.1493" lon="4.79699">
        <ele>120.6</ele>
        <time>2025-04-05T09:54:45Z</time>
      </trkpt>
      <trkpt lat="50.14926" lon="4.7969">
        <ele>120.4</ele>
        <time>2025-04-05T09:54:46Z</time>
      </trkpt>
      <trkpt lat="50.14924" lon="4.79682">
        <ele>120.6</ele>
        <time>2025-04-05T09:54:47Z</time>
      </trkpt>
      <trkpt lat="50.14921" lon="4.79674">
        <ele>120.6</ele>
        <time>2025-04-05T09:54:48Z</time>
      </trkpt>
      <trkpt lat="50.14919" lon="4.79666">
        <ele>120.6</ele>
        <time>2025-04-05T09:54:49Z</time>
      </trkpt>
      <trkpt lat="50.14916" lon="4.79658">
        <ele>120.8</ele>
        <time>2025-04-05T09:54:50Z</time>
      </trkpt>
      <trkpt lat="50.14913" lon="4.79651">
        <ele>120.8</ele>
        <time>2025-04-05T09:54:51Z</time>
      </trkpt>
      <trkpt lat="50.1491" lon="4.79643">
        <ele>121</ele>
        <time>2025-04-05T09:54:52Z</time>
      </trkpt>
      <trkpt lat="50.14908" lon="4.79637">
        <ele>121</ele>
        <time>2025-04-05T09:54:53Z</time>
      </trkpt>
      <trkpt lat="50.14906" lon="4.79628">
        <ele>121</ele>
        <time>2025-04-05T09:54:54Z</time>
      </trkpt>
      <trkpt lat="50.14904" lon="4.79621">
        <ele>121.2</ele>
        <time>2025-04-05T09:54:55Z</time>
      </trkpt>
      <trkpt lat="50.14903" lon="4.79614">
        <ele>121.2</ele>
        <time>2025-04-05T09:54:56Z</time>
      </trkpt>
      <trkpt lat="50.14901" lon="4.7961">
        <ele>121.4</ele>
        <time>2025-04-05T09:54:57Z</time>
      </trkpt>
      <trkpt lat="50.149" lon="4.79607">
        <ele>121.4</ele>
        <time>2025-04-05T09:54:58Z</time>
      </trkpt>
      <trkpt lat="50.149" lon="4.79604">
        <ele>121.6</ele>
        <time>2025-04-05T09:54:59Z</time>
      </trkpt>
      <trkpt lat="50.14899" lon="4.79602">
        <ele>121.6</ele>
        <time>2025-04-05T09:55:00Z</time>
      </trkpt>
      <trkpt lat="50.14899" lon="4.796">
        <ele>121.6</ele>
        <time>2025-04-05T09:55:01Z</time>
      </trkpt>
      <trkpt lat="50.14897" lon="4.79599">
        <ele>121.8</ele>
        <time>2025-04-05T09:55:02Z</time>
      </trkpt>
      <trkpt lat="50.14895" lon="4.796">
        <ele>121.8</ele>
        <time>2025-04-05T09:55:03Z</time>
      </trkpt>
      <trkpt lat="50.14892" lon="4.79602">
        <ele>121.8</ele>
        <time>2025-04-05T09:55:04Z</time>
      </trkpt>
      <trkpt lat="50.1489" lon="4.79607">
        <ele>121.8</ele>
        <time>2025-04-05T09:55:05Z</time>
      </trkpt>
      <trkpt lat="50.14888" lon="4.79614">
        <ele>121.6</ele>
        <time>2025-04-05T09:55:06Z</time>
      </trkpt>
      <trkpt lat="50.14886" lon="4.79621">
        <ele>121.6</ele>
        <time>2025-04-05T09:55:07Z</time>
      </trkpt>
      <trkpt lat="50.14884" lon="4.7963">
        <ele>121.4</ele>
        <time>2025-04-05T09:55:08Z</time>
      </trkpt>
      <trkpt lat="50.14882" lon="4.79638">
        <ele>121.4</ele>
        <time>2025-04-05T09:55:09Z</time>
      </trkpt>
      <trkpt lat="50.1488" lon="4.79645">
        <ele>121.2</ele>
        <time>2025-04-05T09:55:10Z</time>
      </trkpt>
      <trkpt lat="50.14876" lon="4.79654">
        <ele>121.2</ele>
        <time>2025-04-05T09:55:11Z</time>
      </trkpt>
      <trkpt lat="50.14872" lon="4.79663">
        <ele>121</ele>
        <time>2025-04-05T09:55:12Z</time>
      </trkpt>
      <trkpt lat="50.14869" lon="4.79671">
        <ele>121</ele>
        <time>2025-04-05T09:55:13Z</time>
      </trkpt>
      <trkpt lat="50.14865" lon="4.79679">
        <ele>120.8</ele>
        <time>2025-04-05T09:55:14Z</time>
      </trkpt>
      <trkpt lat="50.14861" lon="4.79687">
        <ele>120.8</ele>
        <time>2025-04-05T09:55:15Z</time>
      </trkpt>
      <trkpt lat="50.14857" lon="4.79695">
        <ele>120.8</ele>
        <time>2025-04-05T09:55:16Z</time>
      </trkpt>
      <trkpt lat="50.14853" lon="4.79703">
        <ele>120.6</ele>
        <time>2025-04-05T09:55:17Z</time>
      </trkpt>
      <trkpt lat="50.14849" lon="4.79709">
        <ele>120.6</ele>
        <time>2025-04-05T09:55:18Z</time>
      </trkpt>
      <trkpt lat="50.14845" lon="4.79718">
        <ele>120.4</ele>
        <time>2025-04-05T09:55:19Z</time>
      </trkpt>
      <trkpt lat="50.1484" lon="4.79726">
        <ele>120.2</ele>
        <time>2025-04-05T09:55:20Z</time>
      </trkpt>
      <trkpt lat="50.14836" lon="4.79734">
        <ele>120</ele>
        <time>2025-04-05T09:55:21Z</time>
      </trkpt>
      <trkpt lat="50.14832" lon="4.79742">
        <ele>119.8</ele>
        <time>2025-04-05T09:55:22Z</time>
      </trkpt>
      <trkpt lat="50.14827" lon="4.79751">
        <ele>119.6</ele>
        <time>2025-04-05T09:55:23Z</time>
      </trkpt>
      <trkpt lat="50.14823" lon="4.79759">
        <ele>119.2</ele>
        <time>2025-04-05T09:55:24Z</time>
      </trkpt>
      <trkpt lat="50.14819" lon="4.79767">
        <ele>118.8</ele>
        <time>2025-04-05T09:55:25Z</time>
      </trkpt>
      <trkpt lat="50.14814" lon="4.79776">
        <ele>118.6</ele>
        <time>2025-04-05T09:55:26Z</time>
      </trkpt>
      <trkpt lat="50.14809" lon="4.79785">
        <ele>118.2</ele>
        <time>2025-04-05T09:55:27Z</time>
      </trkpt>
      <trkpt lat="50.14805" lon="4.79794">
        <ele>118</ele>
        <time>2025-04-05T09:55:28Z</time>
      </trkpt>
      <trkpt lat="50.148" lon="4.79803">
        <ele>117.6</ele>
        <time>2025-04-05T09:55:29Z</time>
      </trkpt>
      <trkpt lat="50.14795" lon="4.79812">
        <ele>117.2</ele>
        <time>2025-04-05T09:55:30Z</time>
      </trkpt>
      <trkpt lat="50.1479" lon="4.79821">
        <ele>117</ele>
        <time>2025-04-05T09:55:31Z</time>
      </trkpt>
      <trkpt lat="50.14785" lon="4.7983">
        <ele>116.6</ele>
        <time>2025-04-05T09:55:32Z</time>
      </trkpt>
      <trkpt lat="50.14779" lon="4.79841">
        <ele>116.2</ele>
        <time>2025-04-05T09:55:33Z</time>
      </trkpt>
      <trkpt lat="50.14773" lon="4.79851">
        <ele>116</ele>
        <time>2025-04-05T09:55:34Z</time>
      </trkpt>
      <trkpt lat="50.14768" lon="4.79861">
        <ele>115.6</ele>
        <time>2025-04-05T09:55:35Z</time>
      </trkpt>
      <trkpt lat="50.14763" lon="4.79871">
        <ele>115.2</ele>
        <time>2025-04-05T09:55:36Z</time>
      </trkpt>
      <trkpt lat="50.14758" lon="4.7988">
        <ele>115</ele>
        <time>2025-04-05T09:55:37Z</time>
      </trkpt>
      <trkpt lat="50.14753" lon="4.7989">
        <ele>114.6</ele>
        <time>2025-04-05T09:55:38Z</time>
      </trkpt>
      <trkpt lat="50.14747" lon="4.79902">
        <ele>114.2</ele>
        <time>2025-04-05T09:55:39Z</time>
      </trkpt>
      <trkpt lat="50.14742" lon="4.79911">
        <ele>114</ele>
        <time>2025-04-05T09:55:40Z</time>
      </trkpt>
      <trkpt lat="50.14736" lon="4.79921">
        <ele>113.8</ele>
        <time>2025-04-05T09:55:41Z</time>
      </trkpt>
      <trkpt lat="50.1473" lon="4.79934">
        <ele>113.4</ele>
        <time>2025-04-05T09:55:42Z</time>
      </trkpt>
      <trkpt lat="50.14724" lon="4.79945">
        <ele>113</ele>
        <time>2025-04-05T09:55:43Z</time>
      </trkpt>
      <trkpt lat="50.14718" lon="4.79956">
        <ele>112.6</ele>
        <time>2025-04-05T09:55:44Z</time>
      </trkpt>
      <trkpt lat="50.14713" lon="4.79966">
        <ele>112</ele>
        <time>2025-04-05T09:55:45Z</time>
      </trkpt>
      <trkpt lat="50.14708" lon="4.79976">
        <ele>111.8</ele>
        <time>2025-04-05T09:55:46Z</time>
      </trkpt>
      <trkpt lat="50.14701" lon="4.79988">
        <ele>111.4</ele>
        <time>2025-04-05T09:55:47Z</time>
      </trkpt>
      <trkpt lat="50.14695" lon="4.79999">
        <ele>111.2</ele>
        <time>2025-04-05T09:55:48Z</time>
      </trkpt>
      <trkpt lat="50.1469" lon="4.80009">
        <ele>110.8</ele>
        <time>2025-04-05T09:55:49Z</time>
      </trkpt>
      <trkpt lat="50.14684" lon="4.80021">
        <ele>110.4</ele>
        <time>2025-04-05T09:55:50Z</time>
      </trkpt>
      <trkpt lat="50.14678" lon="4.80033">
        <ele>110</ele>
        <time>2025-04-05T09:55:51Z</time>
      </trkpt>
      <trkpt lat="50.14672" lon="4.80044">
        <ele>109.6</ele>
        <time>2025-04-05T09:55:52Z</time>
      </trkpt>
      <trkpt lat="50.14666" lon="4.80054">
        <ele>109.4</ele>
        <time>2025-04-05T09:55:53Z</time>
      </trkpt>
      <trkpt lat="50.1466" lon="4.80066">
        <ele>109.2</ele>
        <time>2025-04-05T09:55:54Z</time>
      </trkpt>
      <trkpt lat="50.14655" lon="4.80075">
        <ele>108.8</ele>
        <time>2025-04-05T09:55:55Z</time>
      </trkpt>
      <trkpt lat="50.14649" lon="4.80086">
        <ele>108.4</ele>
        <time>2025-04-05T09:55:56Z</time>
      </trkpt>
      <trkpt lat="50.14644" lon="4.80096">
        <ele>108</ele>
        <time>2025-04-05T09:55:57Z</time>
      </trkpt>
      <trkpt lat="50.14639" lon="4.80106">
        <ele>107.8</ele>
        <time>2025-04-05T09:55:58Z</time>
      </trkpt>
      <trkpt lat="50.14632" lon="4.80119">
        <ele>107.6</ele>
        <time>2025-04-05T09:55:59Z</time>
      </trkpt>
      <trkpt lat="50.14626" lon="4.8013">
        <ele>107.4</ele>
        <time>2025-04-05T09:56:00Z</time>
      </trkpt>
      <trkpt lat="50.14621" lon="4.8014">
        <ele>107.2</ele>
        <time>2025-04-05T09:56:01Z</time>
      </trkpt>
      <trkpt lat="50.14615" lon="4.8015">
        <ele>107</ele>
        <time>2025-04-05T09:56:02Z</time>
      </trkpt>
      <trkpt lat="50.1461" lon="4.8016">
        <ele>106.8</ele>
        <time>2025-04-05T09:56:03Z</time>
      </trkpt>
      <trkpt lat="50.14605" lon="4.8017">
        <ele>106.6</ele>
        <time>2025-04-05T09:56:04Z</time>
      </trkpt>
      <trkpt lat="50.14599" lon="4.8018">
        <ele>106.4</ele>
        <time>2025-04-05T09:56:05Z</time>
      </trkpt>
      <trkpt lat="50.14594" lon="4.8019">
        <ele>106.2</ele>
        <time>2025-04-05T09:56:06Z</time>
      </trkpt>
      <trkpt lat="50.14589" lon="4.802">
        <ele>106.2</ele>
        <time>2025-04-05T09:56:07Z</time>
      </trkpt>
      <trkpt lat="50.14584" lon="4.80208">
        <ele>106</ele>
        <time>2025-04-05T09:56:08Z</time>
      </trkpt>
      <trkpt lat="50.14579" lon="4.80218">
        <ele>105.6</ele>
        <time>2025-04-05T09:56:09Z</time>
      </trkpt>
      <trkpt lat="50.14573" lon="4.80228">
        <ele>105.4</ele>
        <time>2025-04-05T09:56:10Z</time>
      </trkpt>
      <trkpt lat="50.14568" lon="4.80238">
        <ele>105.2</ele>
        <time>2025-04-05T09:56:11Z</time>
      </trkpt>
      <trkpt lat="50.14563" lon="4.80248">
        <ele>105</ele>
        <time>2025-04-05T09:56:12Z</time>
      </trkpt>
      <trkpt lat="50.14558" lon="4.80257">
        <ele>104.8</ele>
        <time>2025-04-05T09:56:13Z</time>
      </trkpt>
      <trkpt lat="50.14552" lon="4.80268">
        <ele>104.8</ele>
        <time>2025-04-05T09:56:14Z</time>
      </trkpt>
      <trkpt lat="50.14547" lon="4.80277">
        <ele>104.6</ele>
        <time>2025-04-05T09:56:15Z</time>
      </trkpt>
      <trkpt lat="50.14542" lon="4.80287">
        <ele>104.4</ele>
        <time>2025-04-05T09:56:16Z</time>
      </trkpt>
      <trkpt lat="50.14537" lon="4.80297">
        <ele>104.4</ele>
        <time>2025-04-05T09:56:17Z</time>
      </trkpt>
      <trkpt lat="50.14531" lon="4.80309">
        <ele>104.4</ele>
        <time>2025-04-05T09:56:18Z</time>
      </trkpt>
      <trkpt lat="50.14525" lon="4.80319">
        <ele>104.4</ele>
        <time>2025-04-05T09:56:19Z</time>
      </trkpt>
      <trkpt lat="50.1452" lon="4.80329">
        <ele>104.4</ele>
        <time>2025-04-05T09:56:20Z</time>
      </trkpt>
      <trkpt lat="50.14515" lon="4.80338">
        <ele>104.2</ele>
        <time>2025-04-05T09:56:21Z</time>
      </trkpt>
      <trkpt lat="50.1451" lon="4.80347">
        <ele>104.4</ele>
        <time>2025-04-05T09:56:22Z</time>
      </trkpt>
      <trkpt lat="50.14505" lon="4.80356">
        <ele>104.4</ele>
        <time>2025-04-05T09:56:23Z</time>
      </trkpt>
      <trkpt lat="50.14501" lon="4.80365">
        <ele>104.6</ele>
        <time>2025-04-05T09:56:24Z</time>
      </trkpt>
      <trkpt lat="50.14497" lon="4.80373">
        <ele>104.8</ele>
        <time>2025-04-05T09:56:25Z</time>
      </trkpt>
      <trkpt lat="50.14492" lon="4.80381">
        <ele>105</ele>
        <time>2025-04-05T09:56:26Z</time>
      </trkpt>
      <trkpt lat="50.14488" lon="4.80389">
        <ele>105</ele>
        <time>2025-04-05T09:56:27Z</time>
      </trkpt>
      <trkpt lat="50.14484" lon="4.80397">
        <ele>105.2</ele>
        <time>2025-04-05T09:56:28Z</time>
      </trkpt>
      <trkpt lat="50.1448" lon="4.80403">
        <ele>105.2</ele>
        <time>2025-04-05T09:56:29Z</time>
      </trkpt>
      <trkpt lat="50.14475" lon="4.80412">
        <ele>105.4</ele>
        <time>2025-04-05T09:56:30Z</time>
      </trkpt>
      <trkpt lat="50.14471" lon="4.80419">
        <ele>105.6</ele>
        <time>2025-04-05T09:56:31Z</time>
      </trkpt>
      <trkpt lat="50.14467" lon="4.80427">
        <ele>105.8</ele>
        <time>2025-04-05T09:56:32Z</time>
      </trkpt>
      <trkpt lat="50.14463" lon="4.80434">
        <ele>106</ele>
        <time>2025-04-05T09:56:33Z</time>
      </trkpt>
      <trkpt lat="50.14459" lon="4.80441">
        <ele>106.2</ele>
        <time>2025-04-05T09:56:34Z</time>
      </trkpt>
      <trkpt lat="50.14456" lon="4.80448">
        <ele>106.2</ele>
        <time>2025-04-05T09:56:35Z</time>
      </trkpt>
      <trkpt lat="50.14452" lon="4.80455">
        <ele>106.4</ele>
        <time>2025-04-05T09:56:36Z</time>
      </trkpt>
      <trkpt lat="50.14449" lon="4.80462">
        <ele>106.6</ele>
        <time>2025-04-05T09:56:37Z</time>
      </trkpt>
      <trkpt lat="50.14444" lon="4.8047">
        <ele>106.6</ele>
        <time>2025-04-05T09:56:38Z</time>
      </trkpt>
      <trkpt lat="50.14441" lon="4.80477">
        <ele>106.8</ele>
        <time>2025-04-05T09:56:39Z</time>
      </trkpt>
      <trkpt lat="50.14437" lon="4.80484">
        <ele>106.8</ele>
        <time>2025-04-05T09:56:40Z</time>
      </trkpt>
      <trkpt lat="50.14433" lon="4.80491">
        <ele>107</ele>
        <time>2025-04-05T09:56:41Z</time>
      </trkpt>
      <trkpt lat="50.1443" lon="4.80497">
        <ele>107.2</ele>
        <time>2025-04-05T09:56:42Z</time>
      </trkpt>
      <trkpt lat="50.14426" lon="4.80504">
        <ele>107.4</ele>
        <time>2025-04-05T09:56:43Z</time>
      </trkpt>
      <trkpt lat="50.14422" lon="4.80512">
        <ele>107.4</ele>
        <time>2025-04-05T09:56:44Z</time>
      </trkpt>
      <trkpt lat="50.14418" lon="4.80519">
        <ele>107.6</ele>
        <time>2025-04-05T09:56:45Z</time>
      </trkpt>
      <trkpt lat="50.14415" lon="4.80525">
        <ele>107.8</ele>
        <time>2025-04-05T09:56:46Z</time>
      </trkpt>
      <trkpt lat="50.14411" lon="4.80532">
        <ele>107.8</ele>
        <time>2025-04-05T09:56:47Z</time>
      </trkpt>
      <trkpt lat="50.14407" lon="4.8054">
        <ele>108</ele>
        <time>2025-04-05T09:56:48Z</time>
      </trkpt>
      <trkpt lat="50.14404" lon="4.80546">
        <ele>108</ele>
        <time>2025-04-05T09:56:49Z</time>
      </trkpt>
      <trkpt lat="50.144" lon="4.80553">
        <ele>108.2</ele>
        <time>2025-04-05T09:56:50Z</time>
      </trkpt>
      <trkpt lat="50.14396" lon="4.8056">
        <ele>108.2</ele>
        <time>2025-04-05T09:56:51Z</time>
      </trkpt>
      <trkpt lat="50.14393" lon="4.80567">
        <ele>108.4</ele>
        <time>2025-04-05T09:56:52Z</time>
      </trkpt>
      <trkpt lat="50.14389" lon="4.80575">
        <ele>108.4</ele>
        <time>2025-04-05T09:56:53Z</time>
      </trkpt>
      <trkpt lat="50.14385" lon="4.80582">
        <ele>108.6</ele>
        <time>2025-04-05T09:56:54Z</time>
      </trkpt>
      <trkpt lat="50.14381" lon="4.80589">
        <ele>108.6</ele>
        <time>2025-04-05T09:56:55Z</time>
      </trkpt>
      <trkpt lat="50.14378" lon="4.80596">
        <ele>108.8</ele>
        <time>2025-04-05T09:56:56Z</time>
      </trkpt>
      <trkpt lat="50.14374" lon="4.80603">
        <ele>108.8</ele>
        <time>2025-04-05T09:56:57Z</time>
      </trkpt>
      <trkpt lat="50.1437" lon="4.8061">
        <ele>108.8</ele>
        <time>2025-04-05T09:56:58Z</time>
      </trkpt>
      <trkpt lat="50.14366" lon="4.80618">
        <ele>109</ele>
        <time>2025-04-05T09:56:59Z</time>
      </trkpt>
      <trkpt lat="50.14362" lon="4.80625">
        <ele>109</ele>
        <time>2025-04-05T09:57:00Z</time>
      </trkpt>
      <trkpt lat="50.14358" lon="4.80633">
        <ele>109</ele>
        <time>2025-04-05T09:57:01Z</time>
      </trkpt>
      <trkpt lat="50.14354" lon="4.8064">
        <ele>109</ele>
        <time>2025-04-05T09:57:02Z</time>
      </trkpt>
      <trkpt lat="50.1435" lon="4.80647">
        <ele>109.2</ele>
        <time>2025-04-05T09:57:03Z</time>
      </trkpt>
      <trkpt lat="50.14347" lon="4.80654">
        <ele>109.2</ele>
        <time>2025-04-05T09:57:04Z</time>
      </trkpt>
      <trkpt lat="50.14343" lon="4.80661">
        <ele>109.2</ele>
        <time>2025-04-05T09:57:05Z</time>
      </trkpt>
      <trkpt lat="50.14339" lon="4.80668">
        <ele>109.4</ele>
        <time>2025-04-05T09:57:06Z</time>
      </trkpt>
      <trkpt lat="50.14335" lon="4.80676">
        <ele>109.4</ele>
        <time>2025-04-05T09:57:07Z</time>
      </trkpt>
      <trkpt lat="50.14332" lon="4.80682">
        <ele>109.4</ele>
        <time>2025-04-05T09:57:08Z</time>
      </trkpt>
      <trkpt lat="50.14328" lon="4.8069">
        <ele>109.4</ele>
        <time>2025-04-05T09:57:09Z</time>
      </trkpt>
      <trkpt lat="50.14323" lon="4.80698">
        <ele>109.6</ele>
        <time>2025-04-05T09:57:10Z</time>
      </trkpt>
      <trkpt lat="50.1432" lon="4.80705">
        <ele>109.6</ele>
        <time>2025-04-05T09:57:11Z</time>
      </trkpt>
      <trkpt lat="50.14317" lon="4.80711">
        <ele>109.6</ele>
        <time>2025-04-05T09:57:12Z</time>
      </trkpt>
      <trkpt lat="50.14312" lon="4.80719">
        <ele>109.8</ele>
        <time>2025-04-05T09:57:13Z</time>
      </trkpt>
      <trkpt lat="50.14309" lon="4.80726">
        <ele>109.8</ele>
        <time>2025-04-05T09:57:14Z</time>
      </trkpt>
      <trkpt lat="50.14305" lon="4.80734">
        <ele>109.8</ele>
        <time>2025-04-05T09:57:15Z</time>
      </trkpt>
      <trkpt lat="50.14301" lon="4.8074">
        <ele>109.8</ele>
        <time>2025-04-05T09:57:16Z</time>
      </trkpt>
      <trkpt lat="50.14298" lon="4.80747">
        <ele>109.8</ele>
        <time>2025-04-05T09:57:17Z</time>
      </trkpt>
      <trkpt lat="50.14293" lon="4.80754">
        <ele>110</ele>
        <time>2025-04-05T09:57:18Z</time>
      </trkpt>
      <trkpt lat="50.14289" lon="4.80762">
        <ele>110</ele>
        <time>2025-04-05T09:57:19Z</time>
      </trkpt>
      <trkpt lat="50.14285" lon="4.8077">
        <ele>110</ele>
        <time>2025-04-05T09:57:20Z</time>
      </trkpt>
      <trkpt lat="50.14282" lon="4.80777">
        <ele>110</ele>
        <time>2025-04-05T09:57:21Z</time>
      </trkpt>
      <trkpt lat="50.14278" lon="4.80785">
        <ele>110.2</ele>
        <time>2025-04-05T09:57:22Z</time>
      </trkpt>
      <trkpt lat="50.14274" lon="4.80792">
        <ele>110.2</ele>
        <time>2025-04-05T09:57:23Z</time>
      </trkpt>
      <trkpt lat="50.1427" lon="4.80799">
        <ele>110.2</ele>
        <time>2025-04-05T09:57:24Z</time>
      </trkpt>
      <trkpt lat="50.14265" lon="4.80807">
        <ele>110.2</ele>
        <time>2025-04-05T09:57:25Z</time>
      </trkpt>
      <trkpt lat="50.14261" lon="4.80814">
        <ele>110.2</ele>
        <time>2025-04-05T09:57:26Z</time>
      </trkpt>
      <trkpt lat="50.14258" lon="4.80821">
        <ele>110.2</ele>
        <time>2025-04-05T09:57:27Z</time>
      </trkpt>
      <trkpt lat="50.14253" lon="4.8083">
        <ele>110.2</ele>
        <time>2025-04-05T09:57:28Z</time>
      </trkpt>
      <trkpt lat="50.14249" lon="4.80838">
        <ele>110.2</ele>
        <time>2025-04-05T09:57:29Z</time>
      </trkpt>
      <trkpt lat="50.14245" lon="4.80846">
        <ele>110.2</ele>
        <time>2025-04-05T09:57:30Z</time>
      </trkpt>
      <trkpt lat="50.14242" lon="4.80852">
        <ele>110.2</ele>
        <time>2025-04-05T09:57:31Z</time>
      </trkpt>
      <trkpt lat="50.14237" lon="4.8086">
        <ele>110.2</ele>
        <time>2025-04-05T09:57:32Z</time>
      </trkpt>
      <trkpt lat="50.14233" lon="4.80867">
        <ele>110.2</ele>
        <time>2025-04-05T09:57:33Z</time>
      </trkpt>
      <trkpt lat="50.1423" lon="4.80875">
        <ele>110.2</ele>
        <time>2025-04-05T09:57:34Z</time>
      </trkpt>
      <trkpt lat="50.14225" lon="4.80883">
        <ele>110.4</ele>
        <time>2025-04-05T09:57:35Z</time>
      </trkpt>
      <trkpt lat="50.14221" lon="4.80891">
        <ele>110.4</ele>
        <time>2025-04-05T09:57:36Z</time>
      </trkpt>
      <trkpt lat="50.14217" lon="4.80899">
        <ele>110.4</ele>
        <time>2025-04-05T09:57:37Z</time>
      </trkpt>
      <trkpt lat="50.14213" lon="4.80907">
        <ele>110.2</ele>
        <time>2025-04-05T09:57:38Z</time>
      </trkpt>
      <trkpt lat="50.14209" lon="4.80915">
        <ele>110.2</ele>
        <time>2025-04-05T09:57:39Z</time>
      </trkpt>
      <trkpt lat="50.14204" lon="4.80924">
        <ele>110.2</ele>
        <time>2025-04-05T09:57:40Z</time>
      </trkpt>
      <trkpt lat="50.142" lon="4.80932">
        <ele>110</ele>
        <time>2025-04-05T09:57:41Z</time>
      </trkpt>
      <trkpt lat="50.14196" lon="4.8094">
        <ele>110</ele>
        <time>2025-04-05T09:57:42Z</time>
      </trkpt>
      <trkpt lat="50.14192" lon="4.80947">
        <ele>109.8</ele>
        <time>2025-04-05T09:57:43Z</time>
      </trkpt>
      <trkpt lat="50.14187" lon="4.80956">
        <ele>109.8</ele>
        <time>2025-04-05T09:57:44Z</time>
      </trkpt>
      <trkpt lat="50.14183" lon="4.80964">
        <ele>109.6</ele>
        <time>2025-04-05T09:57:45Z</time>
      </trkpt>
      <trkpt lat="50.14179" lon="4.80972">
        <ele>109.4</ele>
        <time>2025-04-05T09:57:46Z</time>
      </trkpt>
      <trkpt lat="50.14175" lon="4.8098">
        <ele>109.4</ele>
        <time>2025-04-05T09:57:47Z</time>
      </trkpt>
      <trkpt lat="50.1417" lon="4.80988">
        <ele>109</ele>
        <time>2025-04-05T09:57:48Z</time>
      </trkpt>
      <trkpt lat="50.14166" lon="4.80997">
        <ele>108.8</ele>
        <time>2025-04-05T09:57:49Z</time>
      </trkpt>
      <trkpt lat="50.14161" lon="4.81005">
        <ele>108.4</ele>
        <time>2025-04-05T09:57:50Z</time>
      </trkpt>
      <trkpt lat="50.14157" lon="4.81012">
        <ele>108.2</ele>
        <time>2025-04-05T09:57:51Z</time>
      </trkpt>
      <trkpt lat="50.14152" lon="4.81022">
        <ele>108</ele>
        <time>2025-04-05T09:57:52Z</time>
      </trkpt>
      <trkpt lat="50.14147" lon="4.81031">
        <ele>107.8</ele>
        <time>2025-04-05T09:57:53Z</time>
      </trkpt>
      <trkpt lat="50.14143" lon="4.8104">
        <ele>107.4</ele>
        <time>2025-04-05T09:57:54Z</time>
      </trkpt>
      <trkpt lat="50.14138" lon="4.8105">
        <ele>107.2</ele>
        <time>2025-04-05T09:57:55Z</time>
      </trkpt>
      <trkpt lat="50.14133" lon="4.81058">
        <ele>106.8</ele>
        <time>2025-04-05T09:57:56Z</time>
      </trkpt>
      <trkpt lat="50.14129" lon="4.81067">
        <ele>106.6</ele>
        <time>2025-04-05T09:57:57Z</time>
      </trkpt>
      <trkpt lat="50.14123" lon="4.81078">
        <ele>106.2</ele>
        <time>2025-04-05T09:57:58Z</time>
      </trkpt>
      <trkpt lat="50.14117" lon="4.81088">
        <ele>106</ele>
        <time>2025-04-05T09:57:59Z</time>
      </trkpt>
      <trkpt lat="50.14113" lon="4.81097">
        <ele>105.6</ele>
        <time>2025-04-05T09:58:00Z</time>
      </trkpt>
      <trkpt lat="50.14107" lon="4.81108">
        <ele>105.4</ele>
        <time>2025-04-05T09:58:01Z</time>
      </trkpt>
      <trkpt lat="50.14101" lon="4.81119">
        <ele>105</ele>
        <time>2025-04-05T09:58:02Z</time>
      </trkpt>
      <trkpt lat="50.14095" lon="4.81129">
        <ele>104.6</ele>
        <time>2025-04-05T09:58:03Z</time>
      </trkpt>
      <trkpt lat="50.1409" lon="4.8114">
        <ele>104.4</ele>
        <time>2025-04-05T09:58:04Z</time>
      </trkpt>
      <trkpt lat="50.14085" lon="4.81151">
        <ele>104</ele>
        <time>2025-04-05T09:58:05Z</time>
      </trkpt>
      <trkpt lat="50.14079" lon="4.81161">
        <ele>103.6</ele>
        <time>2025-04-05T09:58:06Z</time>
      </trkpt>
      <trkpt lat="50.14073" lon="4.81172">
        <ele>103.2</ele>
        <time>2025-04-05T09:58:07Z</time>
      </trkpt>
      <trkpt lat="50.14068" lon="4.81182">
        <ele>103</ele>
        <time>2025-04-05T09:58:08Z</time>
      </trkpt>
      <trkpt lat="50.14061" lon="4.81194">
        <ele>102.6</ele>
        <time>2025-04-05T09:58:09Z</time>
      </trkpt>
      <trkpt lat="50.14055" lon="4.81206">
        <ele>102.2</ele>
        <time>2025-04-05T09:58:10Z</time>
      </trkpt>
      <trkpt lat="50.14049" lon="4.81218">
        <ele>101.8</ele>
        <time>2025-04-05T09:58:11Z</time>
      </trkpt>
      <trkpt lat="50.14043" lon="4.81229">
        <ele>101.4</ele>
        <time>2025-04-05T09:58:12Z</time>
      </trkpt>
      <trkpt lat="50.14039" lon="4.81239">
        <ele>101</ele>
        <time>2025-04-05T09:58:13Z</time>
      </trkpt>
      <trkpt lat="50.14032" lon="4.81251">
        <ele>100.8</ele>
        <time>2025-04-05T09:58:14Z</time>
      </trkpt>
      <trkpt lat="50.14026" lon="4.81264">
        <ele>100.4</ele>
        <time>2025-04-05T09:58:15Z</time>
      </trkpt>
      <trkpt lat="50.1402" lon="4.81274">
        <ele>100</ele>
        <time>2025-04-05T09:58:16Z</time>
      </trkpt>
      <trkpt lat="50.14014" lon="4.81285">
        <ele>99.6</ele>
        <time>2025-04-05T09:58:17Z</time>
      </trkpt>
      <trkpt lat="50.14008" lon="4.81297">
        <ele>99.2</ele>
        <time>2025-04-05T09:58:18Z</time>
      </trkpt>
      <trkpt lat="50.14002" lon="4.81308">
        <ele>98.8</ele>
        <time>2025-04-05T09:58:19Z</time>
      </trkpt>
      <trkpt lat="50.13995" lon="4.8132">
        <ele>98.4</ele>
        <time>2025-04-05T09:58:20Z</time>
      </trkpt>
      <trkpt lat="50.1399" lon="4.81332">
        <ele>98.2</ele>
        <time>2025-04-05T09:58:21Z</time>
      </trkpt>
      <trkpt lat="50.13984" lon="4.81344">
        <ele>98</ele>
        <time>2025-04-05T09:58:22Z</time>
      </trkpt>
      <trkpt lat="50.13977" lon="4.81355">
        <ele>97.8</ele>
        <time>2025-04-05T09:58:23Z</time>
      </trkpt>
      <trkpt lat="50.13971" lon="4.81369">
        <ele>97.4</ele>
        <time>2025-04-05T09:58:24Z</time>
      </trkpt>
      <trkpt lat="50.13965" lon="4.81379">
        <ele>97.2</ele>
        <time>2025-04-05T09:58:25Z</time>
      </trkpt>
      <trkpt lat="50.13959" lon="4.8139">
        <ele>97</ele>
        <time>2025-04-05T09:58:26Z</time>
      </trkpt>
      <trkpt lat="50.13953" lon="4.81401">
        <ele>96.8</ele>
        <time>2025-04-05T09:58:27Z</time>
      </trkpt>
      <trkpt lat="50.13947" lon="4.81414">
        <ele>96.8</ele>
        <time>2025-04-05T09:58:28Z</time>
      </trkpt>
      <trkpt lat="50.1394" lon="4.81425">
        <ele>96.6</ele>
        <time>2025-04-05T09:58:29Z</time>
      </trkpt>
      <trkpt lat="50.13935" lon="4.81436">
        <ele>96.4</ele>
        <time>2025-04-05T09:58:30Z</time>
      </trkpt>
      <trkpt lat="50.13929" lon="4.81446">
        <ele>96.4</ele>
        <time>2025-04-05T09:58:31Z</time>
      </trkpt>
      <trkpt lat="50.13924" lon="4.81456">
        <ele>96.2</ele>
        <time>2025-04-05T09:58:32Z</time>
      </trkpt>
      <trkpt lat="50.13918" lon="4.81467">
        <ele>96.2</ele>
        <time>2025-04-05T09:58:33Z</time>
      </trkpt>
      <trkpt lat="50.13913" lon="4.81478">
        <ele>96.2</ele>
        <time>2025-04-05T09:58:34Z</time>
      </trkpt>
      <trkpt lat="50.13908" lon="4.81487">
        <ele>96.2</ele>
        <time>2025-04-05T09:58:35Z</time>
      </trkpt>
      <trkpt lat="50.13902" lon="4.81497">
        <ele>96</ele>
        <time>2025-04-05T09:58:36Z</time>
      </trkpt>
      <trkpt lat="50.13897" lon="4.81506">
        <ele>96</ele>
        <time>2025-04-05T09:58:37Z</time>
      </trkpt>
      <trkpt lat="50.13893" lon="4.81515">
        <ele>96</ele>
        <time>2025-04-05T09:58:38Z</time>
      </trkpt>
      <trkpt lat="50.13888" lon="4.81524">
        <ele>95.8</ele>
        <time>2025-04-05T09:58:39Z</time>
      </trkpt>
      <trkpt lat="50.13882" lon="4.81534">
        <ele>95.8</ele>
        <time>2025-04-05T09:58:40Z</time>
      </trkpt>
      <trkpt lat="50.13878" lon="4.81544">
        <ele>95.8</ele>
        <time>2025-04-05T09:58:41Z</time>
      </trkpt>
      <trkpt lat="50.13872" lon="4.81555">
        <ele>95.6</ele>
        <time>2025-04-05T09:58:42Z</time>
      </trkpt>
      <trkpt lat="50.13868" lon="4.81563">
        <ele>95.6</ele>
        <time>2025-04-05T09:58:43Z</time>
      </trkpt>
      <trkpt lat="50.13863" lon="4.81573">
        <ele>95.4</ele>
        <time>2025-04-05T09:58:44Z</time>
      </trkpt>
      <trkpt lat="50.13857" lon="4.81583">
        <ele>95.4</ele>
        <time>2025-04-05T09:58:45Z</time>
      </trkpt>
      <trkpt lat="50.13853" lon="4.81592">
        <ele>95.2</ele>
        <time>2025-04-05T09:58:46Z</time>
      </trkpt>
      <trkpt lat="50.13849" lon="4.81599">
        <ele>95.2</ele>
        <time>2025-04-05T09:58:47Z</time>
      </trkpt>
      <trkpt lat="50.13844" lon="4.81608">
        <ele>95.2</ele>
        <time>2025-04-05T09:58:48Z</time>
      </trkpt>
      <trkpt lat="50.13838" lon="4.81618">
        <ele>95.2</ele>
        <time>2025-04-05T09:58:49Z</time>
      </trkpt>
      <trkpt lat="50.13834" lon="4.81627">
        <ele>95.2</ele>
        <time>2025-04-05T09:58:50Z</time>
      </trkpt>
      <trkpt lat="50.13829" lon="4.81634">
        <ele>95.2</ele>
        <time>2025-04-05T09:58:51Z</time>
      </trkpt>
      <trkpt lat="50.13825" lon="4.81642">
        <ele>95.4</ele>
        <time>2025-04-05T09:58:52Z</time>
      </trkpt>
      <trkpt lat="50.13821" lon="4.8165">
        <ele>95.6</ele>
        <time>2025-04-05T09:58:53Z</time>
      </trkpt>
      <trkpt lat="50.13816" lon="4.81658">
        <ele>96</ele>
        <time>2025-04-05T09:58:54Z</time>
      </trkpt>
      <trkpt lat="50.13813" lon="4.81665">
        <ele>96.2</ele>
        <time>2025-04-05T09:58:55Z</time>
      </trkpt>
      <trkpt lat="50.13808" lon="4.81673">
        <ele>96.4</ele>
        <time>2025-04-05T09:58:56Z</time>
      </trkpt>
      <trkpt lat="50.13805" lon="4.81681">
        <ele>96.6</ele>
        <time>2025-04-05T09:58:57Z</time>
      </trkpt>
      <trkpt lat="50.13801" lon="4.81688">
        <ele>97</ele>
        <time>2025-04-05T09:58:58Z</time>
      </trkpt>
      <trkpt lat="50.13797" lon="4.81695">
        <ele>97.2</ele>
        <time>2025-04-05T09:58:59Z</time>
      </trkpt>
      <trkpt lat="50.13794" lon="4.81702">
        <ele>97.6</ele>
        <time>2025-04-05T09:59:00Z</time>
      </trkpt>
      <trkpt lat="50.13791" lon="4.81707">
        <ele>97.8</ele>
        <time>2025-04-05T09:59:01Z</time>
      </trkpt>
      <trkpt lat="50.13787" lon="4.81714">
        <ele>98</ele>
        <time>2025-04-05T09:59:02Z</time>
      </trkpt>
      <trkpt lat="50.13784" lon="4.81721">
        <ele>98.2</ele>
        <time>2025-04-05T09:59:03Z</time>
      </trkpt>
      <trkpt lat="50.1378" lon="4.81727">
        <ele>98.4</ele>
        <time>2025-04-05T09:59:04Z</time>
      </trkpt>
      <trkpt lat="50.13777" lon="4.81734">
        <ele>98.6</ele>
        <time>2025-04-05T09:59:05Z</time>
      </trkpt>
      <trkpt lat="50.13773" lon="4.81741">
        <ele>98.6</ele>
        <time>2025-04-05T09:59:06Z</time>
      </trkpt>
      <trkpt lat="50.13769" lon="4.81749">
        <ele>98.6</ele>
        <time>2025-04-05T09:59:07Z</time>
      </trkpt>
      <trkpt lat="50.13765" lon="4.81756">
        <ele>98.6</ele>
        <time>2025-04-05T09:59:08Z</time>
      </trkpt>
      <trkpt lat="50.13762" lon="4.81762">
        <ele>98.6</ele>
        <time>2025-04-05T09:59:09Z</time>
      </trkpt>
      <trkpt lat="50.13758" lon="4.8177">
        <ele>98.4</ele>
        <time>2025-04-05T09:59:10Z</time>
      </trkpt>
      <trkpt lat="50.13753" lon="4.81779">
        <ele>98.2</ele>
        <time>2025-04-05T09:59:11Z</time>
      </trkpt>
      <trkpt lat="50.1375" lon="4.81786">
        <ele>98.2</ele>
        <time>2025-04-05T09:59:12Z</time>
      </trkpt>
      <trkpt lat="50.13746" lon="4.81793">
        <ele>98</ele>
        <time>2025-04-05T09:59:13Z</time>
      </trkpt>
      <trkpt lat="50.13741" lon="4.81802">
        <ele>97.8</ele>
        <time>2025-04-05T09:59:14Z</time>
      </trkpt>
      <trkpt lat="50.13737" lon="4.8181">
        <ele>97.6</ele>
        <time>2025-04-05T09:59:15Z</time>
      </trkpt>
      <trkpt lat="50.13733" lon="4.81818">
        <ele>97.2</ele>
        <time>2025-04-05T09:59:16Z</time>
      </trkpt>
      <trkpt lat="50.13728" lon="4.81827">
        <ele>97</ele>
        <time>2025-04-05T09:59:17Z</time>
      </trkpt>
      <trkpt lat="50.13725" lon="4.81834">
        <ele>96.6</ele>
        <time>2025-04-05T09:59:18Z</time>
      </trkpt>
      <trkpt lat="50.13719" lon="4.81844">
        <ele>96.4</ele>
        <time>2025-04-05T09:59:19Z</time>
      </trkpt>
      <trkpt lat="50.13715" lon="4.81853">
        <ele>96</ele>
        <time>2025-04-05T09:59:20Z</time>
      </trkpt>
      <trkpt lat="50.1371" lon="4.81862">
        <ele>95.8</ele>
        <time>2025-04-05T09:59:21Z</time>
      </trkpt>
      <trkpt lat="50.13706" lon="4.81871">
        <ele>95.4</ele>
        <time>2025-04-05T09:59:22Z</time>
      </trkpt>
      <trkpt lat="50.13701" lon="4.81879">
        <ele>95.2</ele>
        <time>2025-04-05T09:59:23Z</time>
      </trkpt>
      <trkpt lat="50.13696" lon="4.81888">
        <ele>94.8</ele>
        <time>2025-04-05T09:59:24Z</time>
      </trkpt>
      <trkpt lat="50.13693" lon="4.81896">
        <ele>94.6</ele>
        <time>2025-04-05T09:59:25Z</time>
      </trkpt>
      <trkpt lat="50.13688" lon="4.81906">
        <ele>94.2</ele>
        <time>2025-04-05T09:59:26Z</time>
      </trkpt>
      <trkpt lat="50.13683" lon="4.81916">
        <ele>93.8</ele>
        <time>2025-04-05T09:59:27Z</time>
      </trkpt>
      <trkpt lat="50.13678" lon="4.81925">
        <ele>93.4</ele>
        <time>2025-04-05T09:59:28Z</time>
      </trkpt>
      <trkpt lat="50.13673" lon="4.81935">
        <ele>93</ele>
        <time>2025-04-05T09:59:29Z</time>
      </trkpt>
      <trkpt lat="50.13669" lon="4.81943">
        <ele>92.8</ele>
        <time>2025-04-05T09:59:30Z</time>
      </trkpt>
      <trkpt lat="50.13664" lon="4.81952">
        <ele>92.6</ele>
        <time>2025-04-05T09:59:31Z</time>
      </trkpt>
      <trkpt lat="50.1366" lon="4.81962">
        <ele>92.4</ele>
        <time>2025-04-05T09:59:32Z</time>
      </trkpt>
      <trkpt lat="50.13655" lon="4.81971">
        <ele>92.2</ele>
        <time>2025-04-05T09:59:33Z</time>
      </trkpt>
      <trkpt lat="50.13651" lon="4.81978">
        <ele>92.2</ele>
        <time>2025-04-05T09:59:34Z</time>
      </trkpt>
      <trkpt lat="50.13647" lon="4.81986">
        <ele>92.2</ele>
        <time>2025-04-05T09:59:35Z</time>
      </trkpt>
      <trkpt lat="50.13643" lon="4.81995">
        <ele>92</ele>
        <time>2025-04-05T09:59:36Z</time>
      </trkpt>
      <trkpt lat="50.13639" lon="4.82002">
        <ele>92</ele>
        <time>2025-04-05T09:59:37Z</time>
      </trkpt>
      <trkpt lat="50.13635" lon="4.8201">
        <ele>91.8</ele>
        <time>2025-04-05T09:59:38Z</time>
      </trkpt>
      <trkpt lat="50.13631" lon="4.82016">
        <ele>91.8</ele>
        <time>2025-04-05T09:59:39Z</time>
      </trkpt>
      <trkpt lat="50.13625" lon="4.82021">
        <ele>91.6</ele>
        <time>2025-04-05T09:59:40Z</time>
      </trkpt>
      <trkpt lat="50.1362" lon="4.82025">
        <ele>91.6</ele>
        <time>2025-04-05T09:59:41Z</time>
      </trkpt>
      <trkpt lat="50.13614" lon="4.82028">
        <ele>91.6</ele>
        <time>2025-04-05T09:59:42Z</time>
      </trkpt>
      <trkpt lat="50.13607" lon="4.8203">
        <ele>91.6</ele>
        <time>2025-04-05T09:59:43Z</time>
      </trkpt>
      <trkpt lat="50.13601" lon="4.82032">
        <ele>91.4</ele>
        <time>2025-04-05T09:59:44Z</time>
      </trkpt>
      <trkpt lat="50.13594" lon="4.82034">
        <ele>91.4</ele>
        <time>2025-04-05T09:59:45Z</time>
      </trkpt>
      <trkpt lat="50.13589" lon="4.82035">
        <ele>91.4</ele>
        <time>2025-04-05T09:59:46Z</time>
      </trkpt>
      <trkpt lat="50.13582" lon="4.82037">
        <ele>91.2</ele>
        <time>2025-04-05T09:59:47Z</time>
      </trkpt>
      <trkpt lat="50.13575" lon="4.82038">
        <ele>91.2</ele>
        <time>2025-04-05T09:59:48Z</time>
      </trkpt>
      <trkpt lat="50.13569" lon="4.8204">
        <ele>91.2</ele>
        <time>2025-04-05T09:59:49Z</time>
      </trkpt>
      <trkpt lat="50.13562" lon="4.82041">
        <ele>91.2</ele>
        <time>2025-04-05T09:59:50Z</time>
      </trkpt>
      <trkpt lat="50.13557" lon="4.82043">
        <ele>91.2</ele>
        <time>2025-04-05T09:59:51Z</time>
      </trkpt>
      <trkpt lat="50.1355" lon="4.82045">
        <ele>91.2</ele>
        <time>2025-04-05T09:59:52Z</time>
      </trkpt>
      <trkpt lat="50.13543" lon="4.82047">
        <ele>91</ele>
        <time>2025-04-05T09:59:53Z</time>
      </trkpt>
      <trkpt lat="50.13537" lon="4.82048">
        <ele>91</ele>
        <time>2025-04-05T09:59:54Z</time>
      </trkpt>
      <trkpt lat="50.13531" lon="4.8205">
        <ele>91</ele>
        <time>2025-04-05T09:59:55Z</time>
      </trkpt>
      <trkpt lat="50.13525" lon="4.82052">
        <ele>91.2</ele>
        <time>2025-04-05T09:59:56Z</time>
      </trkpt>
      <trkpt lat="50.13519" lon="4.82054">
        <ele>91.2</ele>
        <time>2025-04-05T09:59:57Z</time>
      </trkpt>
      <trkpt lat="50.13513" lon="4.82056">
        <ele>91.2</ele>
        <time>2025-04-05T09:59:58Z</time>
      </trkpt>
      <trkpt lat="50.13508" lon="4.82058">
        <ele>91.2</ele>
        <time>2025-04-05T09:59:59Z</time>
      </trkpt>
      <trkpt lat="50.13504" lon="4.8206">
        <ele>91.4</ele>
        <time>2025-04-05T10:00:00Z</time>
      </trkpt>
      <trkpt lat="50.13499" lon="4.82061">
        <ele>91.4</ele>
        <time>2025-04-05T10:00:01Z</time>
      </trkpt>
      <trkpt lat="50.13496" lon="4.82063">
        <ele>91.4</ele>
        <time>2025-04-05T10:00:02Z</time>
      </trkpt>
      <trkpt lat="50.13492" lon="4.82065">
        <ele>91.6</ele>
        <time>2025-04-05T10:00:03Z</time>
      </trkpt>
      <trkpt lat="50.13488" lon="4.82067">
        <ele>91.6</ele>
        <time>2025-04-05T10:00:04Z</time>
      </trkpt>
      <trkpt lat="50.13484" lon="4.8207">
        <ele>91.6</ele>
        <time>2025-04-05T10:00:05Z</time>
      </trkpt>
      <trkpt lat="50.1348" lon="4.82075">
        <ele>91.6</ele>
        <time>2025-04-05T10:00:06Z</time>
      </trkpt>
      <trkpt lat="50.13477" lon="4.8208">
        <ele>91.6</ele>
        <time>2025-04-05T10:00:07Z</time>
      </trkpt>
      <trkpt lat="50.13475" lon="4.82087">
        <ele>91.6</ele>
        <time>2025-04-05T10:00:08Z</time>
      </trkpt>
      <trkpt lat="50.13474" lon="4.82094">
        <ele>91.6</ele>
        <time>2025-04-05T10:00:09Z</time>
      </trkpt>
      <trkpt lat="50.13473" lon="4.82101">
        <ele>91.4</ele>
        <time>2025-04-05T10:00:10Z</time>
      </trkpt>
      <trkpt lat="50.13472" lon="4.82107">
        <ele>91.4</ele>
        <time>2025-04-05T10:00:11Z</time>
      </trkpt>
      <trkpt lat="50.13471" lon="4.82114">
        <ele>91.4</ele>
        <time>2025-04-05T10:00:12Z</time>
      </trkpt>
      <trkpt lat="50.13471" lon="4.82119">
        <ele>91.2</ele>
        <time>2025-04-05T10:00:13Z</time>
      </trkpt>
      <trkpt lat="50.1347" lon="4.82125">
        <ele>91.2</ele>
        <time>2025-04-05T10:00:14Z</time>
      </trkpt>
      <trkpt lat="50.1347" lon="4.8213">
        <ele>91.2</ele>
        <time>2025-04-05T10:00:15Z</time>
      </trkpt>
      <trkpt lat="50.13471" lon="4.82135">
        <ele>91.2</ele>
        <time>2025-04-05T10:00:16Z</time>
      </trkpt>
      <trkpt lat="50.13471" lon="4.82139">
        <ele>91</ele>
        <time>2025-04-05T10:00:17Z</time>
      </trkpt>
      <trkpt lat="50.13472" lon="4.82143">
        <ele>91</ele>
        <time>2025-04-05T10:00:18Z</time>
      </trkpt>
      <trkpt lat="50.13472" lon="4.82146">
        <ele>91</ele>
        <time>2025-04-05T10:00:19Z</time>
      </trkpt>
      <trkpt lat="50.13473" lon="4.82149">
        <ele>91</ele>
        <time>2025-04-05T10:00:20Z</time>
      </trkpt>
      <trkpt lat="50.13474" lon="4.82152">
        <ele>91</ele>
        <time>2025-04-05T10:00:21Z</time>
      </trkpt>
      <trkpt lat="50.13474" lon="4.82155">
        <ele>91</ele>
        <time>2025-04-05T10:00:22Z</time>
      </trkpt>
      <trkpt lat="50.13475" lon="4.82157">
        <ele>91</ele>
        <time>2025-04-05T10:00:23Z</time>
      </trkpt>
      <trkpt lat="50.13475" lon="4.8216">
        <ele>91</ele>
        <time>2025-04-05T10:00:24Z</time>
      </trkpt>
      <trkpt lat="50.13476" lon="4.82163">
        <ele>91</ele>
        <time>2025-04-05T10:00:25Z</time>
      </trkpt>
      <trkpt lat="50.13477" lon="4.82167">
        <ele>91</ele>
        <time>2025-04-05T10:00:26Z</time>
      </trkpt>
      <trkpt lat="50.13477" lon="4.82172">
        <ele>91</ele>
        <time>2025-04-05T10:00:27Z</time>
      </trkpt>
      <trkpt lat="50.13478" lon="4.82175">
        <ele>90.8</ele>
        <time>2025-04-05T10:00:28Z</time>
      </trkpt>
      <trkpt lat="50.13479" lon="4.82179">
        <ele>90.8</ele>
        <time>2025-04-05T10:00:29Z</time>
      </trkpt>
      <trkpt lat="50.1348" lon="4.82185">
        <ele>90.8</ele>
        <time>2025-04-05T10:00:30Z</time>
      </trkpt>
      <trkpt lat="50.13481" lon="4.8219">
        <ele>90.8</ele>
        <time>2025-04-05T10:00:31Z</time>
      </trkpt>
      <trkpt lat="50.13482" lon="4.82196">
        <ele>90.6</ele>
        <time>2025-04-05T10:00:32Z</time>
      </trkpt>
      <trkpt lat="50.13482" lon="4.822">
        <ele>90.6</ele>
        <time>2025-04-05T10:00:33Z</time>
      </trkpt>
      <trkpt lat="50.13483" lon="4.82206">
        <ele>90.6</ele>
        <time>2025-04-05T10:00:34Z</time>
      </trkpt>
      <trkpt lat="50.13484" lon="4.82212">
        <ele>90.6</ele>
        <time>2025-04-05T10:00:35Z</time>
      </trkpt>
      <trkpt lat="50.13485" lon="4.82218">
        <ele>90.4</ele>
        <time>2025-04-05T10:00:36Z</time>
      </trkpt>
      <trkpt lat="50.13487" lon="4.82223">
        <ele>90.4</ele>
        <time>2025-04-05T10:00:37Z</time>
      </trkpt>
      <trkpt lat="50.13488" lon="4.82229">
        <ele>90.4</ele>
        <time>2025-04-05T10:00:38Z</time>
      </trkpt>
      <trkpt lat="50.13489" lon="4.82236">
        <ele>90.4</ele>
        <time>2025-04-05T10:00:39Z</time>
      </trkpt>
      <trkpt lat="50.1349" lon="4.82242">
        <ele>90.4</ele>
        <time>2025-04-05T10:00:40Z</time>
      </trkpt>
      <trkpt lat="50.13491" lon="4.82249">
        <ele>90.2</ele>
        <time>2025-04-05T10:00:41Z</time>
      </trkpt>
      <trkpt lat="50.13493" lon="4.82257">
        <ele>90.2</ele>
        <time>2025-04-05T10:00:42Z</time>
      </trkpt>
      <trkpt lat="50.13494" lon="4.82264">
        <ele>90.2</ele>
        <time>2025-04-05T10:00:43Z</time>
      </trkpt>
      <trkpt lat="50.13495" lon="4.82272">
        <ele>90</ele>
        <time>2025-04-05T10:00:44Z</time>
      </trkpt>
      <trkpt lat="50.13496" lon="4.82279">
        <ele>90</ele>
        <time>2025-04-05T10:00:45Z</time>
      </trkpt>
      <trkpt lat="50.13497" lon="4.82287">
        <ele>90</ele>
        <time>2025-04-05T10:00:46Z</time>
      </trkpt>
      <trkpt lat="50.13498" lon="4.82293">
        <ele>90</ele>
        <time>2025-04-05T10:00:47Z</time>
      </trkpt>
      <trkpt lat="50.13499" lon="4.823">
        <ele>90</ele>
        <time>2025-04-05T10:00:48Z</time>
      </trkpt>
      <trkpt lat="50.13501" lon="4.82307">
        <ele>90</ele>
        <time>2025-04-05T10:00:49Z</time>
      </trkpt>
      <trkpt lat="50.13502" lon="4.82313">
        <ele>90.2</ele>
        <time>2025-04-05T10:00:50Z</time>
      </trkpt>
      <trkpt lat="50.13503" lon="4.8232">
        <ele>90.2</ele>
        <time>2025-04-05T10:00:51Z</time>
      </trkpt>
      <trkpt lat="50.13505" lon="4.82328">
        <ele>90.2</ele>
        <time>2025-04-05T10:00:52Z</time>
      </trkpt>
      <trkpt lat="50.13507" lon="4.82335">
        <ele>90.2</ele>
        <time>2025-04-05T10:00:53Z</time>
      </trkpt>
      <trkpt lat="50.13509" lon="4.82342">
        <ele>90.2</ele>
        <time>2025-04-05T10:00:54Z</time>
      </trkpt>
      <trkpt lat="50.13511" lon="4.82348">
        <ele>90.2</ele>
        <time>2025-04-05T10:00:55Z</time>
      </trkpt>
      <trkpt lat="50.13514" lon="4.82354">
        <ele>90.2</ele>
        <time>2025-04-05T10:00:56Z</time>
      </trkpt>
      <trkpt lat="50.13516" lon="4.8236">
        <ele>90.2</ele>
        <time>2025-04-05T10:00:57Z</time>
      </trkpt>
      <trkpt lat="50.13518" lon="4.82366">
        <ele>90.4</ele>
        <time>2025-04-05T10:00:58Z</time>
      </trkpt>
      <trkpt lat="50.1352" lon="4.82373">
        <ele>90.4</ele>
        <time>2025-04-05T10:00:59Z</time>
      </trkpt>
      <trkpt lat="50.13522" lon="4.8238">
        <ele>90.6</ele>
        <time>2025-04-05T10:01:00Z</time>
      </trkpt>
      <trkpt lat="50.13523" lon="4.82387">
        <ele>90.6</ele>
        <time>2025-04-05T10:01:01Z</time>
      </trkpt>
      <trkpt lat="50.13523" lon="4.82395">
        <ele>90.6</ele>
        <time>2025-04-05T10:01:02Z</time>
      </trkpt>
      <trkpt lat="50.13524" lon="4.82404">
        <ele>90.6</ele>
        <time>2025-04-05T10:01:03Z</time>
      </trkpt>
      <trkpt lat="50.13524" lon="4.82412">
        <ele>90.6</ele>
        <time>2025-04-05T10:01:04Z</time>
      </trkpt>
      <trkpt lat="50.13526" lon="4.8242">
        <ele>90.6</ele>
        <time>2025-04-05T10:01:05Z</time>
      </trkpt>
      <trkpt lat="50.13528" lon="4.82428">
        <ele>90.6</ele>
        <time>2025-04-05T10:01:06Z</time>
      </trkpt>
      <trkpt lat="50.1353" lon="4.82436">
        <ele>90.6</ele>
        <time>2025-04-05T10:01:07Z</time>
      </trkpt>
      <trkpt lat="50.13532" lon="4.82443">
        <ele>90.6</ele>
        <time>2025-04-05T10:01:08Z</time>
      </trkpt>
      <trkpt lat="50.13535" lon="4.82451">
        <ele>90.6</ele>
        <time>2025-04-05T10:01:09Z</time>
      </trkpt>
      <trkpt lat="50.13537" lon="4.82458">
        <ele>90.6</ele>
        <time>2025-04-05T10:01:10Z</time>
      </trkpt>
      <trkpt lat="50.13539" lon="4.82467">
        <ele>90.6</ele>
        <time>2025-04-05T10:01:11Z</time>
      </trkpt>
      <trkpt lat="50.13541" lon="4.82474">
        <ele>90.4</ele>
        <time>2025-04-05T10:01:12Z</time>
      </trkpt>
      <trkpt lat="50.13544" lon="4.82483">
        <ele>90.2</ele>
        <time>2025-04-05T10:01:13Z</time>
      </trkpt>
      <trkpt lat="50.13546" lon="4.82491">
        <ele>90.2</ele>
        <time>2025-04-05T10:01:14Z</time>
      </trkpt>
      <trkpt lat="50.13549" lon="4.825">
        <ele>90.2</ele>
        <time>2025-04-05T10:01:15Z</time>
      </trkpt>
      <trkpt lat="50.13551" lon="4.82509">
        <ele>90</ele>
        <time>2025-04-05T10:01:16Z</time>
      </trkpt>
      <trkpt lat="50.13554" lon="4.82518">
        <ele>90</ele>
        <time>2025-04-05T10:01:17Z</time>
      </trkpt>
      <trkpt lat="50.13557" lon="4.82526">
        <ele>90.2</ele>
        <time>2025-04-05T10:01:18Z</time>
      </trkpt>
      <trkpt lat="50.1356" lon="4.82534">
        <ele>90.2</ele>
        <time>2025-04-05T10:01:19Z</time>
      </trkpt>
      <trkpt lat="50.13562" lon="4.82543">
        <ele>90.2</ele>
        <time>2025-04-05T10:01:20Z</time>
      </trkpt>
      <trkpt lat="50.13565" lon="4.82551">
        <ele>90.4</ele>
        <time>2025-04-05T10:01:21Z</time>
      </trkpt>
      <trkpt lat="50.13568" lon="4.82559">
        <ele>90.2</ele>
        <time>2025-04-05T10:01:22Z</time>
      </trkpt>
      <trkpt lat="50.13571" lon="4.82567">
        <ele>90.2</ele>
        <time>2025-04-05T10:01:23Z</time>
      </trkpt>
      <trkpt lat="50.13574" lon="4.82576">
        <ele>90.2</ele>
        <time>2025-04-05T10:01:24Z</time>
      </trkpt>
      <trkpt lat="50.13577" lon="4.82584">
        <ele>90.2</ele>
        <time>2025-04-05T10:01:25Z</time>
      </trkpt>
      <trkpt lat="50.1358" lon="4.82593">
        <ele>90.2</ele>
        <time>2025-04-05T10:01:26Z</time>
      </trkpt>
      <trkpt lat="50.13583" lon="4.82601">
        <ele>90.2</ele>
        <time>2025-04-05T10:01:27Z</time>
      </trkpt>
      <trkpt lat="50.13586" lon="4.82609">
        <ele>90.2</ele>
        <time>2025-04-05T10:01:28Z</time>
      </trkpt>
      <trkpt lat="50.13589" lon="4.82617">
        <ele>90.4</ele>
        <time>2025-04-05T10:01:29Z</time>
      </trkpt>
      <trkpt lat="50.13592" lon="4.82626">
        <ele>90.6</ele>
        <time>2025-04-05T10:01:30Z</time>
      </trkpt>
      <trkpt lat="50.13595" lon="4.82634">
        <ele>90.8</ele>
        <time>2025-04-05T10:01:31Z</time>
      </trkpt>
      <trkpt lat="50.13598" lon="4.82641">
        <ele>91</ele>
        <time>2025-04-05T10:01:32Z</time>
      </trkpt>
      <trkpt lat="50.136" lon="4.82648">
        <ele>91.4</ele>
        <time>2025-04-05T10:01:33Z</time>
      </trkpt>
      <trkpt lat="50.13603" lon="4.82654">
        <ele>91.6</ele>
        <time>2025-04-05T10:01:34Z</time>
      </trkpt>
      <trkpt lat="50.13606" lon="4.8266">
        <ele>92</ele>
        <time>2025-04-05T10:01:35Z</time>
      </trkpt>
      <trkpt lat="50.13608" lon="4.82664">
        <ele>92.4</ele>
        <time>2025-04-05T10:01:36Z</time>
      </trkpt>
      <trkpt lat="50.13611" lon="4.8267">
        <ele>92.8</ele>
        <time>2025-04-05T10:01:37Z</time>
      </trkpt>
      <trkpt lat="50.13613" lon="4.82676">
        <ele>93.2</ele>
        <time>2025-04-05T10:01:38Z</time>
      </trkpt>
      <trkpt lat="50.13614" lon="4.82682">
        <ele>93.6</ele>
        <time>2025-04-05T10:01:39Z</time>
      </trkpt>
      <trkpt lat="50.13613" lon="4.82687">
        <ele>93.8</ele>
        <time>2025-04-05T10:01:40Z</time>
      </trkpt>
      <trkpt lat="50.13611" lon="4.82692">
        <ele>94.2</ele>
        <time>2025-04-05T10:01:41Z</time>
      </trkpt>
      <trkpt lat="50.13607" lon="4.82696">
        <ele>94.4</ele>
        <time>2025-04-05T10:01:42Z</time>
      </trkpt>
      <trkpt lat="50.13605" lon="4.827">
        <ele>94.8</ele>
        <time>2025-04-05T10:01:43Z</time>
      </trkpt>
      <trkpt lat="50.13601" lon="4.82704">
        <ele>95</ele>
        <time>2025-04-05T10:01:44Z</time>
      </trkpt>
      <trkpt lat="50.13598" lon="4.82709">
        <ele>95.2</ele>
        <time>2025-04-05T10:01:45Z</time>
      </trkpt>
      <trkpt lat="50.13594" lon="4.82713">
        <ele>95.4</ele>
        <time>2025-04-05T10:01:46Z</time>
      </trkpt>
      <trkpt lat="50.13591" lon="4.82717">
        <ele>95.6</ele>
        <time>2025-04-05T10:01:47Z</time>
      </trkpt>
      <trkpt lat="50.13587" lon="4.82721">
        <ele>95.8</ele>
        <time>2025-04-05T10:01:48Z</time>
      </trkpt>
      <trkpt lat="50.13584" lon="4.82726">
        <ele>96</ele>
        <time>2025-04-05T10:01:49Z</time>
      </trkpt>
      <trkpt lat="50.1358" lon="4.8273">
        <ele>96</ele>
        <time>2025-04-05T10:01:50Z</time>
      </trkpt>
      <trkpt lat="50.13577" lon="4.82735">
        <ele>96.2</ele>
        <time>2025-04-05T10:01:51Z</time>
      </trkpt>
      <trkpt lat="50.13573" lon="4.82738">
        <ele>96.2</ele>
        <time>2025-04-05T10:01:52Z</time>
      </trkpt>
      <trkpt lat="50.13569" lon="4.82744">
        <ele>96.2</ele>
        <time>2025-04-05T10:01:53Z</time>
      </trkpt>
      <trkpt lat="50.13565" lon="4.82749">
        <ele>96.2</ele>
        <time>2025-04-05T10:01:54Z</time>
      </trkpt>
      <trkpt lat="50.13561" lon="4.82753">
        <ele>96.2</ele>
        <time>2025-04-05T10:01:55Z</time>
      </trkpt>
      <trkpt lat="50.13557" lon="4.82758">
        <ele>96</ele>
        <time>2025-04-05T10:01:56Z</time>
      </trkpt>
      <trkpt lat="50.13553" lon="4.82764">
        <ele>96</ele>
        <time>2025-04-05T10:01:57Z</time>
      </trkpt>
      <trkpt lat="50.13548" lon="4.8277">
        <ele>96</ele>
        <time>2025-04-05T10:01:58Z</time>
      </trkpt>
      <trkpt lat="50.13543" lon="4.82776">
        <ele>95.8</ele>
        <time>2025-04-05T10:01:59Z</time>
      </trkpt>
      <trkpt lat="50.13539" lon="4.82782">
        <ele>95.6</ele>
        <time>2025-04-05T10:02:00Z</time>
      </trkpt>
      <trkpt lat="50.13535" lon="4.82787">
        <ele>95.4</ele>
        <time>2025-04-05T10:02:01Z</time>
      </trkpt>
      <trkpt lat="50.13531" lon="4.82792">
        <ele>95.2</ele>
        <time>2025-04-05T10:02:02Z</time>
      </trkpt>
      <trkpt lat="50.13527" lon="4.82798">
        <ele>94.8</ele>
        <time>2025-04-05T10:02:03Z</time>
      </trkpt>
      <trkpt lat="50.13523" lon="4.82803">
        <ele>94.4</ele>
        <time>2025-04-05T10:02:04Z</time>
      </trkpt>
      <trkpt lat="50.13519" lon="4.8281">
        <ele>94.2</ele>
        <time>2025-04-05T10:02:05Z</time>
      </trkpt>
      <trkpt lat="50.13515" lon="4.82816">
        <ele>93.8</ele>
        <time>2025-04-05T10:02:06Z</time>
      </trkpt>
      <trkpt lat="50.13511" lon="4.82824">
        <ele>93.4</ele>
        <time>2025-04-05T10:02:07Z</time>
      </trkpt>
      <trkpt lat="50.13508" lon="4.82833">
        <ele>93.2</ele>
        <time>2025-04-05T10:02:08Z</time>
      </trkpt>
      <trkpt lat="50.13505" lon="4.8284">
        <ele>92.8</ele>
        <time>2025-04-05T10:02:09Z</time>
      </trkpt>
      <trkpt lat="50.13501" lon="4.8285">
        <ele>92.4</ele>
        <time>2025-04-05T10:02:10Z</time>
      </trkpt>
      <trkpt lat="50.13497" lon="4.82859">
        <ele>92</ele>
        <time>2025-04-05T10:02:11Z</time>
      </trkpt>
      <trkpt lat="50.13493" lon="4.82868">
        <ele>91.6</ele>
        <time>2025-04-05T10:02:12Z</time>
      </trkpt>
      <trkpt lat="50.13489" lon="4.82878">
        <ele>91.4</ele>
        <time>2025-04-05T10:02:13Z</time>
      </trkpt>
      <trkpt lat="50.13485" lon="4.82886">
        <ele>91</ele>
        <time>2025-04-05T10:02:14Z</time>
      </trkpt>
      <trkpt lat="50.13482" lon="4.82895">
        <ele>90.8</ele>
        <time>2025-04-05T10:02:15Z</time>
      </trkpt>
      <trkpt lat="50.13477" lon="4.82905">
        <ele>90.8</ele>
        <time>2025-04-05T10:02:16Z</time>
      </trkpt>
      <trkpt lat="50.13472" lon="4.82914">
        <ele>90.8</ele>
        <time>2025-04-05T10:02:17Z</time>
      </trkpt>
      <trkpt lat="50.13468" lon="4.82921">
        <ele>90.8</ele>
        <time>2025-04-05T10:02:18Z</time>
      </trkpt>
      <trkpt lat="50.13463" lon="4.82931">
        <ele>90.8</ele>
        <time>2025-04-05T10:02:19Z</time>
      </trkpt>
      <trkpt lat="50.13458" lon="4.82941">
        <ele>90.8</ele>
        <time>2025-04-05T10:02:20Z</time>
      </trkpt>
      <trkpt lat="50.13454" lon="4.8295">
        <ele>90.8</ele>
        <time>2025-04-05T10:02:21Z</time>
      </trkpt>
      <trkpt lat="50.13449" lon="4.8296">
        <ele>90.8</ele>
        <time>2025-04-05T10:02:22Z</time>
      </trkpt>
      <trkpt lat="50.13445" lon="4.82967">
        <ele>90.6</ele>
        <time>2025-04-05T10:02:23Z</time>
      </trkpt>
      <trkpt lat="50.1344" lon="4.82976">
        <ele>90.4</ele>
        <time>2025-04-05T10:02:24Z</time>
      </trkpt>
      <trkpt lat="50.13436" lon="4.82986">
        <ele>90.4</ele>
        <time>2025-04-05T10:02:25Z</time>
      </trkpt>
      <trkpt lat="50.13432" lon="4.82994">
        <ele>90.4</ele>
        <time>2025-04-05T10:02:26Z</time>
      </trkpt>
      <trkpt lat="50.13428" lon="4.83003">
        <ele>90.4</ele>
        <time>2025-04-05T10:02:27Z</time>
      </trkpt>
      <trkpt lat="50.13423" lon="4.83013">
        <ele>90.4</ele>
        <time>2025-04-05T10:02:28Z</time>
      </trkpt>
      <trkpt lat="50.13418" lon="4.83022">
        <ele>90.4</ele>
        <time>2025-04-05T10:02:29Z</time>
      </trkpt>
      <trkpt lat="50.13414" lon="4.8303">
        <ele>90.4</ele>
        <time>2025-04-05T10:02:30Z</time>
      </trkpt>
      <trkpt lat="50.13409" lon="4.83039">
        <ele>90.4</ele>
        <time>2025-04-05T10:02:31Z</time>
      </trkpt>
      <trkpt lat="50.13405" lon="4.83048">
        <ele>90.2</ele>
        <time>2025-04-05T10:02:32Z</time>
      </trkpt>
      <trkpt lat="50.13401" lon="4.83056">
        <ele>90.2</ele>
        <time>2025-04-05T10:02:33Z</time>
      </trkpt>
      <trkpt lat="50.13397" lon="4.83065">
        <ele>90.2</ele>
        <time>2025-04-05T10:02:34Z</time>
      </trkpt>
      <trkpt lat="50.13393" lon="4.83072">
        <ele>90.2</ele>
        <time>2025-04-05T10:02:35Z</time>
      </trkpt>
      <trkpt lat="50.13388" lon="4.83081">
        <ele>90.2</ele>
        <time>2025-04-05T10:02:36Z</time>
      </trkpt>
      <trkpt lat="50.13385" lon="4.8309">
        <ele>90.4</ele>
        <time>2025-04-05T10:02:37Z</time>
      </trkpt>
      <trkpt lat="50.13381" lon="4.83098">
        <ele>90.4</ele>
        <time>2025-04-05T10:02:38Z</time>
      </trkpt>
      <trkpt lat="50.13377" lon="4.83105">
        <ele>90.4</ele>
        <time>2025-04-05T10:02:39Z</time>
      </trkpt>
      <trkpt lat="50.13374" lon="4.83113">
        <ele>90.6</ele>
        <time>2025-04-05T10:02:40Z</time>
      </trkpt>
      <trkpt lat="50.1337" lon="4.83123">
        <ele>90.6</ele>
        <time>2025-04-05T10:02:41Z</time>
      </trkpt>
      <trkpt lat="50.13366" lon="4.83132">
        <ele>90.8</ele>
        <time>2025-04-05T10:02:42Z</time>
      </trkpt>
      <trkpt lat="50.13363" lon="4.83139">
        <ele>90.8</ele>
        <time>2025-04-05T10:02:43Z</time>
      </trkpt>
      <trkpt lat="50.13359" lon="4.83147">
        <ele>90.8</ele>
        <time>2025-04-05T10:02:44Z</time>
      </trkpt>
      <trkpt lat="50.13355" lon="4.83155">
        <ele>90.8</ele>
        <time>2025-04-05T10:02:45Z</time>
      </trkpt>
      <trkpt lat="50.13351" lon="4.83162">
        <ele>90.8</ele>
        <time>2025-04-05T10:02:46Z</time>
      </trkpt>
      <trkpt lat="50.13347" lon="4.8317">
        <ele>91</ele>
        <time>2025-04-05T10:02:47Z</time>
      </trkpt>
      <trkpt lat="50.13343" lon="4.83178">
        <ele>91</ele>
        <time>2025-04-05T10:02:48Z</time>
      </trkpt>
      <trkpt lat="50.1334" lon="4.83185">
        <ele>91.2</ele>
        <time>2025-04-05T10:02:49Z</time>
      </trkpt>
      <trkpt lat="50.13336" lon="4.83193">
        <ele>91.2</ele>
        <time>2025-04-05T10:02:50Z</time>
      </trkpt>
      <trkpt lat="50.13332" lon="4.83201">
        <ele>91.2</ele>
        <time>2025-04-05T10:02:51Z</time>
      </trkpt>
      <trkpt lat="50.13329" lon="4.83209">
        <ele>91.4</ele>
        <time>2025-04-05T10:02:52Z</time>
      </trkpt>
      <trkpt lat="50.13326" lon="4.83215">
        <ele>91.4</ele>
        <time>2025-04-05T10:02:53Z</time>
      </trkpt>
      <trkpt lat="50.13322" lon="4.83224">
        <ele>91.4</ele>
        <time>2025-04-05T10:02:54Z</time>
      </trkpt>
      <trkpt lat="50.13318" lon="4.83233">
        <ele>91.4</ele>
        <time>2025-04-05T10:02:55Z</time>
      </trkpt>
      <trkpt lat="50.13314" lon="4.83241">
        <ele>91.6</ele>
        <time>2025-04-05T10:02:56Z</time>
      </trkpt>
      <trkpt lat="50.13312" lon="4.83248">
        <ele>91.6</ele>
        <time>2025-04-05T10:02:57Z</time>
      </trkpt>
      <trkpt lat="50.13308" lon="4.83257">
        <ele>91.6</ele>
        <time>2025-04-05T10:02:58Z</time>
      </trkpt>
      <trkpt lat="50.13304" lon="4.83267">
        <ele>91.6</ele>
        <time>2025-04-05T10:02:59Z</time>
      </trkpt>
      <trkpt lat="50.133" lon="4.83275">
        <ele>91.8</ele>
        <time>2025-04-05T10:03:00Z</time>
      </trkpt>
      <trkpt lat="50.13297" lon="4.83282">
        <ele>91.8</ele>
        <time>2025-04-05T10:03:01Z</time>
      </trkpt>
      <trkpt lat="50.13293" lon="4.83291">
        <ele>91.8</ele>
        <time>2025-04-05T10:03:02Z</time>
      </trkpt>
      <trkpt lat="50.13289" lon="4.833">
        <ele>91.8</ele>
        <time>2025-04-05T10:03:03Z</time>
      </trkpt>
      <trkpt lat="50.13285" lon="4.83308">
        <ele>91.8</ele>
        <time>2025-04-05T10:03:04Z</time>
      </trkpt>
      <trkpt lat="50.13281" lon="4.83316">
        <ele>91.6</ele>
        <time>2025-04-05T10:03:05Z</time>
      </trkpt>
      <trkpt lat="50.13278" lon="4.83323">
        <ele>91.6</ele>
        <time>2025-04-05T10:03:06Z</time>
      </trkpt>
      <trkpt lat="50.13274" lon="4.83333">
        <ele>91.6</ele>
        <time>2025-04-05T10:03:07Z</time>
      </trkpt>
      <trkpt lat="50.13269" lon="4.83342">
        <ele>91.4</ele>
        <time>2025-04-05T10:03:08Z</time>
      </trkpt>
      <trkpt lat="50.13265" lon="4.83351">
        <ele>91.6</ele>
        <time>2025-04-05T10:03:09Z</time>
      </trkpt>
      <trkpt lat="50.1326" lon="4.83359">
        <ele>91.6</ele>
        <time>2025-04-05T10:03:10Z</time>
      </trkpt>
      <trkpt lat="50.13255" lon="4.83367">
        <ele>91.6</ele>
        <time>2025-04-05T10:03:11Z</time>
      </trkpt>
      <trkpt lat="50.13251" lon="4.83376">
        <ele>91.6</ele>
        <time>2025-04-05T10:03:12Z</time>
      </trkpt>
      <trkpt lat="50.13247" lon="4.83385">
        <ele>91.6</ele>
        <time>2025-04-05T10:03:13Z</time>
      </trkpt>
      <trkpt lat="50.13243" lon="4.83394">
        <ele>91.6</ele>
        <time>2025-04-05T10:03:14Z</time>
      </trkpt>
      <trkpt lat="50.13239" lon="4.83402">
        <ele>91.4</ele>
        <time>2025-04-05T10:03:15Z</time>
      </trkpt>
      <trkpt lat="50.13235" lon="4.83411">
        <ele>91.4</ele>
        <time>2025-04-05T10:03:16Z</time>
      </trkpt>
      <trkpt lat="50.13231" lon="4.83419">
        <ele>91.4</ele>
        <time>2025-04-05T10:03:17Z</time>
      </trkpt>
      <trkpt lat="50.13227" lon="4.83428">
        <ele>91.4</ele>
        <time>2025-04-05T10:03:18Z</time>
      </trkpt>
      <trkpt lat="50.13223" lon="4.83436">
        <ele>91.6</ele>
        <time>2025-04-05T10:03:19Z</time>
      </trkpt>
      <trkpt lat="50.1322" lon="4.83445">
        <ele>91.6</ele>
        <time>2025-04-05T10:03:20Z</time>
      </trkpt>
      <trkpt lat="50.13216" lon="4.83453">
        <ele>91.6</ele>
        <time>2025-04-05T10:03:21Z</time>
      </trkpt>
      <trkpt lat="50.13212" lon="4.83461">
        <ele>91.8</ele>
        <time>2025-04-05T10:03:22Z</time>
      </trkpt>
      <trkpt lat="50.13209" lon="4.83468">
        <ele>91.8</ele>
        <time>2025-04-05T10:03:23Z</time>
      </trkpt>
      <trkpt lat="50.13204" lon="4.83477">
        <ele>91.8</ele>
        <time>2025-04-05T10:03:24Z</time>
      </trkpt>
      <trkpt lat="50.132" lon="4.83485">
        <ele>91.8</ele>
        <time>2025-04-05T10:03:25Z</time>
      </trkpt>
      <trkpt lat="50.13197" lon="4.83493">
        <ele>91.8</ele>
        <time>2025-04-05T10:03:26Z</time>
      </trkpt>
      <trkpt lat="50.13193" lon="4.83501">
        <ele>92</ele>
        <time>2025-04-05T10:03:27Z</time>
      </trkpt>
      <trkpt lat="50.13189" lon="4.83509">
        <ele>92</ele>
        <time>2025-04-05T10:03:28Z</time>
      </trkpt>
      <trkpt lat="50.13186" lon="4.83517">
        <ele>92.2</ele>
        <time>2025-04-05T10:03:29Z</time>
      </trkpt>
      <trkpt lat="50.13183" lon="4.83526">
        <ele>92.2</ele>
        <time>2025-04-05T10:03:30Z</time>
      </trkpt>
      <trkpt lat="50.13179" lon="4.83534">
        <ele>92.4</ele>
        <time>2025-04-05T10:03:31Z</time>
      </trkpt>
      <trkpt lat="50.13176" lon="4.83542">
        <ele>92.4</ele>
        <time>2025-04-05T10:03:32Z</time>
      </trkpt>
      <trkpt lat="50.13172" lon="4.83551">
        <ele>92.6</ele>
        <time>2025-04-05T10:03:33Z</time>
      </trkpt>
      <trkpt lat="50.13168" lon="4.83558">
        <ele>92.8</ele>
        <time>2025-04-05T10:03:34Z</time>
      </trkpt>
      <trkpt lat="50.13165" lon="4.83566">
        <ele>93</ele>
        <time>2025-04-05T10:03:35Z</time>
      </trkpt>
      <trkpt lat="50.13164" lon="4.83574">
        <ele>93.2</ele>
        <time>2025-04-05T10:03:36Z</time>
      </trkpt>
      <trkpt lat="50.13164" lon="4.83581">
        <ele>93.6</ele>
        <time>2025-04-05T10:03:37Z</time>
      </trkpt>
      <trkpt lat="50.13166" lon="4.83588">
        <ele>93.6</ele>
        <time>2025-04-05T10:03:38Z</time>
      </trkpt>
      <trkpt lat="50.1317" lon="4.83594">
        <ele>93.8</ele>
        <time>2025-04-05T10:03:39Z</time>
      </trkpt>
      <trkpt lat="50.13174" lon="4.83599">
        <ele>94</ele>
        <time>2025-04-05T10:03:40Z</time>
      </trkpt>
      <trkpt lat="50.13179" lon="4.83603">
        <ele>94.2</ele>
        <time>2025-04-05T10:03:41Z</time>
      </trkpt>
      <trkpt lat="50.13184" lon="4.83608">
        <ele>94.4</ele>
        <time>2025-04-05T10:03:42Z</time>
      </trkpt>
      <trkpt lat="50.13189" lon="4.83613">
        <ele>94.4</ele>
        <time>2025-04-05T10:03:43Z</time>
      </trkpt>
      <trkpt lat="50.13192" lon="4.83617">
        <ele>94.6</ele>
        <time>2025-04-05T10:03:44Z</time>
      </trkpt>
      <trkpt lat="50.13197" lon="4.83622">
        <ele>94.8</ele>
        <time>2025-04-05T10:03:45Z</time>
      </trkpt>
      <trkpt lat="50.13202" lon="4.83627">
        <ele>94.8</ele>
        <time>2025-04-05T10:03:46Z</time>
      </trkpt>
      <trkpt lat="50.13207" lon="4.83632">
        <ele>94.8</ele>
        <time>2025-04-05T10:03:47Z</time>
      </trkpt>
      <trkpt lat="50.13212" lon="4.83637">
        <ele>94.8</ele>
        <time>2025-04-05T10:03:48Z</time>
      </trkpt>
      <trkpt lat="50.13217" lon="4.83642">
        <ele>94.8</ele>
        <time>2025-04-05T10:03:49Z</time>
      </trkpt>
      <trkpt lat="50.13223" lon="4.83647">
        <ele>94.8</ele>
        <time>2025-04-05T10:03:50Z</time>
      </trkpt>
      <trkpt lat="50.13227" lon="4.8365">
        <ele>94.8</ele>
        <time>2025-04-05T10:03:51Z</time>
      </trkpt>
      <trkpt lat="50.13233" lon="4.83656">
        <ele>94.8</ele>
        <time>2025-04-05T10:03:52Z</time>
      </trkpt>
      <trkpt lat="50.13239" lon="4.8366">
        <ele>94.6</ele>
        <time>2025-04-05T10:03:53Z</time>
      </trkpt>
      <trkpt lat="50.13244" lon="4.83665">
        <ele>94.6</ele>
        <time>2025-04-05T10:03:54Z</time>
      </trkpt>
      <trkpt lat="50.13251" lon="4.8367">
        <ele>94.4</ele>
        <time>2025-04-05T10:03:55Z</time>
      </trkpt>
      <trkpt lat="50.13257" lon="4.83674">
        <ele>94.4</ele>
        <time>2025-04-05T10:03:56Z</time>
      </trkpt>
      <trkpt lat="50.13262" lon="4.83677">
        <ele>94.2</ele>
        <time>2025-04-05T10:03:57Z</time>
      </trkpt>
      <trkpt lat="50.13268" lon="4.83682">
        <ele>94.2</ele>
        <time>2025-04-05T10:03:58Z</time>
      </trkpt>
      <trkpt lat="50.13274" lon="4.83687">
        <ele>94.2</ele>
        <time>2025-04-05T10:03:59Z</time>
      </trkpt>
      <trkpt lat="50.13279" lon="4.83693">
        <ele>94</ele>
        <time>2025-04-05T10:04:00Z</time>
      </trkpt>
      <trkpt lat="50.13283" lon="4.837">
        <ele>94</ele>
        <time>2025-04-05T10:04:01Z</time>
      </trkpt>
      <trkpt lat="50.13286" lon="4.83707">
        <ele>93.8</ele>
        <time>2025-04-05T10:04:02Z</time>
      </trkpt>
      <trkpt lat="50.13289" lon="4.83717">
        <ele>93.8</ele>
        <time>2025-04-05T10:04:03Z</time>
      </trkpt>
      <trkpt lat="50.13292" lon="4.83727">
        <ele>93.6</ele>
        <time>2025-04-05T10:04:04Z</time>
      </trkpt>
      <trkpt lat="50.13294" lon="4.83736">
        <ele>93.6</ele>
        <time>2025-04-05T10:04:05Z</time>
      </trkpt>
      <trkpt lat="50.13295" lon="4.83746">
        <ele>93.8</ele>
        <time>2025-04-05T10:04:06Z</time>
      </trkpt>
      <trkpt lat="50.13295" lon="4.83756">
        <ele>93.8</ele>
        <time>2025-04-05T10:04:07Z</time>
      </trkpt>
      <trkpt lat="50.13295" lon="4.83768">
        <ele>93.8</ele>
        <time>2025-04-05T10:04:08Z</time>
      </trkpt>
      <trkpt lat="50.13295" lon="4.83779">
        <ele>93.8</ele>
        <time>2025-04-05T10:04:09Z</time>
      </trkpt>
      <trkpt lat="50.13295" lon="4.83789">
        <ele>94</ele>
        <time>2025-04-05T10:04:10Z</time>
      </trkpt>
      <trkpt lat="50.13295" lon="4.83798">
        <ele>94</ele>
        <time>2025-04-05T10:04:11Z</time>
      </trkpt>
      <trkpt lat="50.13295" lon="4.83808">
        <ele>94.2</ele>
        <time>2025-04-05T10:04:12Z</time>
      </trkpt>
      <trkpt lat="50.13295" lon="4.83818">
        <ele>94.4</ele>
        <time>2025-04-05T10:04:13Z</time>
      </trkpt>
      <trkpt lat="50.13295" lon="4.83827">
        <ele>94.6</ele>
        <time>2025-04-05T10:04:14Z</time>
      </trkpt>
      <trkpt lat="50.13296" lon="4.83836">
        <ele>94.8</ele>
        <time>2025-04-05T10:04:15Z</time>
      </trkpt>
      <trkpt lat="50.13298" lon="4.83844">
        <ele>95</ele>
        <time>2025-04-05T10:04:16Z</time>
      </trkpt>
      <trkpt lat="50.133" lon="4.83853">
        <ele>95</ele>
        <time>2025-04-05T10:04:17Z</time>
      </trkpt>
      <trkpt lat="50.13302" lon="4.83861">
        <ele>95.2</ele>
        <time>2025-04-05T10:04:18Z</time>
      </trkpt>
      <trkpt lat="50.13305" lon="4.83869">
        <ele>95.2</ele>
        <time>2025-04-05T10:04:19Z</time>
      </trkpt>
      <trkpt lat="50.13306" lon="4.83875">
        <ele>95.4</ele>
        <time>2025-04-05T10:04:20Z</time>
      </trkpt>
      <trkpt lat="50.13309" lon="4.83884">
        <ele>95.4</ele>
        <time>2025-04-05T10:04:21Z</time>
      </trkpt>
      <trkpt lat="50.13311" lon="4.83892">
        <ele>95.6</ele>
        <time>2025-04-05T10:04:22Z</time>
      </trkpt>
      <trkpt lat="50.13314" lon="4.839">
        <ele>95.8</ele>
        <time>2025-04-05T10:04:23Z</time>
      </trkpt>
      <trkpt lat="50.13316" lon="4.83906">
        <ele>96</ele>
        <time>2025-04-05T10:04:24Z</time>
      </trkpt>
      <trkpt lat="50.13319" lon="4.83914">
        <ele>96</ele>
        <time>2025-04-05T10:04:25Z</time>
      </trkpt>
      <trkpt lat="50.13321" lon="4.83921">
        <ele>96.2</ele>
        <time>2025-04-05T10:04:26Z</time>
      </trkpt>
      <trkpt lat="50.13323" lon="4.83929">
        <ele>96.4</ele>
        <time>2025-04-05T10:04:27Z</time>
      </trkpt>
      <trkpt lat="50.13326" lon="4.83936">
        <ele>96.4</ele>
        <time>2025-04-05T10:04:28Z</time>
      </trkpt>
      <trkpt lat="50.13327" lon="4.83942">
        <ele>96.6</ele>
        <time>2025-04-05T10:04:29Z</time>
      </trkpt>
      <trkpt lat="50.13328" lon="4.8395">
        <ele>96.8</ele>
        <time>2025-04-05T10:04:30Z</time>
      </trkpt>
      <trkpt lat="50.13328" lon="4.83958">
        <ele>96.8</ele>
        <time>2025-04-05T10:04:31Z</time>
      </trkpt>
      <trkpt lat="50.13327" lon="4.83966">
        <ele>96.8</ele>
        <time>2025-04-05T10:04:32Z</time>
      </trkpt>
      <trkpt lat="50.13326" lon="4.83975">
        <ele>96.8</ele>
        <time>2025-04-05T10:04:33Z</time>
      </trkpt>
      <trkpt lat="50.13326" lon="4.83983">
        <ele>96.8</ele>
        <time>2025-04-05T10:04:34Z</time>
      </trkpt>
      <trkpt lat="50.13327" lon="4.8399">
        <ele>97</ele>
        <time>2025-04-05T10:04:35Z</time>
      </trkpt>
      <trkpt lat="50.13329" lon="4.83998">
        <ele>97</ele>
        <time>2025-04-05T10:04:36Z</time>
      </trkpt>
      <trkpt lat="50.13331" lon="4.84006">
        <ele>97</ele>
        <time>2025-04-05T10:04:37Z</time>
      </trkpt>
      <trkpt lat="50.13332" lon="4.84014">
        <ele>97</ele>
        <time>2025-04-05T10:04:38Z</time>
      </trkpt>
      <trkpt lat="50.13333" lon="4.84022">
        <ele>97</ele>
        <time>2025-04-05T10:04:39Z</time>
      </trkpt>
      <trkpt lat="50.13332" lon="4.84031">
        <ele>97.2</ele>
        <time>2025-04-05T10:04:40Z</time>
      </trkpt>
      <trkpt lat="50.13331" lon="4.8404">
        <ele>97.2</ele>
        <time>2025-04-05T10:04:41Z</time>
      </trkpt>
      <trkpt lat="50.13331" lon="4.84048">
        <ele>97.4</ele>
        <time>2025-04-05T10:04:42Z</time>
      </trkpt>
      <trkpt lat="50.1333" lon="4.84057">
        <ele>97.4</ele>
        <time>2025-04-05T10:04:43Z</time>
      </trkpt>
      <trkpt lat="50.1333" lon="4.84066">
        <ele>97.6</ele>
        <time>2025-04-05T10:04:44Z</time>
      </trkpt>
      <trkpt lat="50.1333" lon="4.84075">
        <ele>97.8</ele>
        <time>2025-04-05T10:04:45Z</time>
      </trkpt>
      <trkpt lat="50.1333" lon="4.84084">
        <ele>98</ele>
        <time>2025-04-05T10:04:46Z</time>
      </trkpt>
      <trkpt lat="50.1333" lon="4.84092">
        <ele>98.2</ele>
        <time>2025-04-05T10:04:47Z</time>
      </trkpt>
      <trkpt lat="50.13329" lon="4.84099">
        <ele>98.4</ele>
        <time>2025-04-05T10:04:48Z</time>
      </trkpt>
      <trkpt lat="50.13328" lon="4.84106">
        <ele>98.6</ele>
        <time>2025-04-05T10:04:49Z</time>
      </trkpt>
      <trkpt lat="50.13326" lon="4.84113">
        <ele>98.8</ele>
        <time>2025-04-05T10:04:50Z</time>
      </trkpt>
      <trkpt lat="50.13324" lon="4.8412">
        <ele>99</ele>
        <time>2025-04-05T10:04:51Z</time>
      </trkpt>
      <trkpt lat="50.13321" lon="4.84126">
        <ele>99.2</ele>
        <time>2025-04-05T10:04:52Z</time>
      </trkpt>
      <trkpt lat="50.13318" lon="4.84131">
        <ele>99.6</ele>
        <time>2025-04-05T10:04:53Z</time>
      </trkpt>
      <trkpt lat="50.13314" lon="4.84137">
        <ele>99.8</ele>
        <time>2025-04-05T10:04:54Z</time>
      </trkpt>
      <trkpt lat="50.13311" lon="4.84142">
        <ele>100</ele>
        <time>2025-04-05T10:04:55Z</time>
      </trkpt>
      <trkpt lat="50.13308" lon="4.84146">
        <ele>100.4</ele>
        <time>2025-04-05T10:04:56Z</time>
      </trkpt>
      <trkpt lat="50.13305" lon="4.84151">
        <ele>100.6</ele>
        <time>2025-04-05T10:04:57Z</time>
      </trkpt>
      <trkpt lat="50.13302" lon="4.84156">
        <ele>101</ele>
        <time>2025-04-05T10:04:58Z</time>
      </trkpt>
      <trkpt lat="50.13298" lon="4.8416">
        <ele>101.2</ele>
        <time>2025-04-05T10:04:59Z</time>
      </trkpt>
      <trkpt lat="50.13295" lon="4.84164">
        <ele>101.6</ele>
        <time>2025-04-05T10:05:00Z</time>
      </trkpt>
      <trkpt lat="50.13292" lon="4.84169">
        <ele>101.8</ele>
        <time>2025-04-05T10:05:01Z</time>
      </trkpt>
      <trkpt lat="50.13288" lon="4.84174">
        <ele>102.2</ele>
        <time>2025-04-05T10:05:02Z</time>
      </trkpt>
      <trkpt lat="50.13285" lon="4.84179">
        <ele>102.4</ele>
        <time>2025-04-05T10:05:03Z</time>
      </trkpt>
      <trkpt lat="50.13283" lon="4.84183">
        <ele>102.8</ele>
        <time>2025-04-05T10:05:04Z</time>
      </trkpt>
      <trkpt lat="50.1328" lon="4.84187">
        <ele>103</ele>
        <time>2025-04-05T10:05:05Z</time>
      </trkpt>
      <trkpt lat="50.13277" lon="4.84192">
        <ele>103.4</ele>
        <time>2025-04-05T10:05:06Z</time>
      </trkpt>
      <trkpt lat="50.13274" lon="4.84197">
        <ele>103.6</ele>
        <time>2025-04-05T10:05:07Z</time>
      </trkpt>
      <trkpt lat="50.1327" lon="4.84202">
        <ele>104</ele>
        <time>2025-04-05T10:05:08Z</time>
      </trkpt>
      <trkpt lat="50.13268" lon="4.84206">
        <ele>104.2</ele>
        <time>2025-04-05T10:05:09Z</time>
      </trkpt>
      <trkpt lat="50.13266" lon="4.84211">
        <ele>104.4</ele>
        <time>2025-04-05T10:05:10Z</time>
      </trkpt>
      <trkpt lat="50.13263" lon="4.84216">
        <ele>104.8</ele>
        <time>2025-04-05T10:05:11Z</time>
      </trkpt>
      <trkpt lat="50.1326" lon="4.84221">
        <ele>105</ele>
        <time>2025-04-05T10:05:12Z</time>
      </trkpt>
      <trkpt lat="50.13258" lon="4.84225">
        <ele>105.2</ele>
        <time>2025-04-05T10:05:13Z</time>
      </trkpt>
      <trkpt lat="50.13256" lon="4.84229">
        <ele>105.4</ele>
        <time>2025-04-05T10:05:14Z</time>
      </trkpt>
      <trkpt lat="50.13253" lon="4.84235">
        <ele>105.8</ele>
        <time>2025-04-05T10:05:15Z</time>
      </trkpt>
      <trkpt lat="50.13251" lon="4.8424">
        <ele>106</ele>
        <time>2025-04-05T10:05:16Z</time>
      </trkpt>
      <trkpt lat="50.13249" lon="4.84245">
        <ele>106.2</ele>
        <time>2025-04-05T10:05:17Z</time>
      </trkpt>
      <trkpt lat="50.13247" lon="4.8425">
        <ele>106.4</ele>
        <time>2025-04-05T10:05:18Z</time>
      </trkpt>
      <trkpt lat="50.13245" lon="4.84255">
        <ele>106.6</ele>
        <time>2025-04-05T10:05:19Z</time>
      </trkpt>
      <trkpt lat="50.13243" lon="4.84261">
        <ele>106.8</ele>
        <time>2025-04-05T10:05:20Z</time>
      </trkpt>
      <trkpt lat="50.1324" lon="4.84267">
        <ele>107</ele>
        <time>2025-04-05T10:05:21Z</time>
      </trkpt>
      <trkpt lat="50.13239" lon="4.84272">
        <ele>107.2</ele>
        <time>2025-04-05T10:05:22Z</time>
      </trkpt>
      <trkpt lat="50.13237" lon="4.84278">
        <ele>107.4</ele>
        <time>2025-04-05T10:05:23Z</time>
      </trkpt>
      <trkpt lat="50.13235" lon="4.84283">
        <ele>107.6</ele>
        <time>2025-04-05T10:05:24Z</time>
      </trkpt>
      <trkpt lat="50.13234" lon="4.84288">
        <ele>107.8</ele>
        <time>2025-04-05T10:05:25Z</time>
      </trkpt>
      <trkpt lat="50.13232" lon="4.84293">
        <ele>108</ele>
        <time>2025-04-05T10:05:26Z</time>
      </trkpt>
      <trkpt lat="50.13231" lon="4.843">
        <ele>108.2</ele>
        <time>2025-04-05T10:05:27Z</time>
      </trkpt>
      <trkpt lat="50.13229" lon="4.84305">
        <ele>108.4</ele>
        <time>2025-04-05T10:05:28Z</time>
      </trkpt>
      <trkpt lat="50.13228" lon="4.84311">
        <ele>108.6</ele>
        <time>2025-04-05T10:05:29Z</time>
      </trkpt>
      <trkpt lat="50.13227" lon="4.84317">
        <ele>108.8</ele>
        <time>2025-04-05T10:05:30Z</time>
      </trkpt>
      <trkpt lat="50.13226" lon="4.84322">
        <ele>109</ele>
        <time>2025-04-05T10:05:31Z</time>
      </trkpt>
      <trkpt lat="50.13224" lon="4.84327">
        <ele>109.2</ele>
        <time>2025-04-05T10:05:32Z</time>
      </trkpt>
      <trkpt lat="50.13223" lon="4.84333">
        <ele>109.4</ele>
        <time>2025-04-05T10:05:33Z</time>
      </trkpt>
      <trkpt lat="50.13222" lon="4.84338">
        <ele>109.4</ele>
        <time>2025-04-05T10:05:34Z</time>
      </trkpt>
      <trkpt lat="50.1322" lon="4.84343">
        <ele>109.6</ele>
        <time>2025-04-05T10:05:35Z</time>
      </trkpt>
      <trkpt lat="50.13219" lon="4.84349">
        <ele>109.8</ele>
        <time>2025-04-05T10:05:36Z</time>
      </trkpt>
      <trkpt lat="50.13218" lon="4.84354">
        <ele>110</ele>
        <time>2025-04-05T10:05:37Z</time>
      </trkpt>
      <trkpt lat="50.13216" lon="4.8436">
        <ele>110</ele>
        <time>2025-04-05T10:05:38Z</time>
      </trkpt>
      <trkpt lat="50.13215" lon="4.84366">
        <ele>110.2</ele>
        <time>2025-04-05T10:05:39Z</time>
      </trkpt>
      <trkpt lat="50.13213" lon="4.84372">
        <ele>110.4</ele>
        <time>2025-04-05T10:05:40Z</time>
      </trkpt>
      <trkpt lat="50.13211" lon="4.84377">
        <ele>110.6</ele>
        <time>2025-04-05T10:05:41Z</time>
      </trkpt>
      <trkpt lat="50.1321" lon="4.84383">
        <ele>110.8</ele>
        <time>2025-04-05T10:05:42Z</time>
      </trkpt>
      <trkpt lat="50.13209" lon="4.84389">
        <ele>111</ele>
        <time>2025-04-05T10:05:43Z</time>
      </trkpt>
      <trkpt lat="50.13207" lon="4.84394">
        <ele>111.2</ele>
        <time>2025-04-05T10:05:44Z</time>
      </trkpt>
      <trkpt lat="50.13206" lon="4.84399">
        <ele>111.2</ele>
        <time>2025-04-05T10:05:45Z</time>
      </trkpt>
      <trkpt lat="50.13204" lon="4.84405">
        <ele>111.4</ele>
        <time>2025-04-05T10:05:46Z</time>
      </trkpt>
      <trkpt lat="50.13203" lon="4.8441">
        <ele>111.6</ele>
        <time>2025-04-05T10:05:47Z</time>
      </trkpt>
      <trkpt lat="50.13202" lon="4.84416">
        <ele>111.8</ele>
        <time>2025-04-05T10:05:48Z</time>
      </trkpt>
      <trkpt lat="50.132" lon="4.84422">
        <ele>112</ele>
        <time>2025-04-05T10:05:49Z</time>
      </trkpt>
      <trkpt lat="50.13199" lon="4.84427">
        <ele>112.2</ele>
        <time>2025-04-05T10:05:50Z</time>
      </trkpt>
      <trkpt lat="50.13197" lon="4.84433">
        <ele>112.4</ele>
        <time>2025-04-05T10:05:51Z</time>
      </trkpt>
      <trkpt lat="50.13196" lon="4.84439">
        <ele>112.6</ele>
        <time>2025-04-05T10:05:52Z</time>
      </trkpt>
      <trkpt lat="50.13195" lon="4.84443">
        <ele>112.8</ele>
        <time>2025-04-05T10:05:53Z</time>
      </trkpt>
      <trkpt lat="50.13194" lon="4.84449">
        <ele>112.8</ele>
        <time>2025-04-05T10:05:54Z</time>
      </trkpt>
      <trkpt lat="50.13192" lon="4.84456">
        <ele>113</ele>
        <time>2025-04-05T10:05:55Z</time>
      </trkpt>
      <trkpt lat="50.1319" lon="4.84462">
        <ele>113.2</ele>
        <time>2025-04-05T10:05:56Z</time>
      </trkpt>
      <trkpt lat="50.13189" lon="4.84467">
        <ele>113.2</ele>
        <time>2025-04-05T10:05:57Z</time>
      </trkpt>
      <trkpt lat="50.13187" lon="4.84473">
        <ele>113.4</ele>
        <time>2025-04-05T10:05:58Z</time>
      </trkpt>
      <trkpt lat="50.13186" lon="4.84479">
        <ele>113.6</ele>
        <time>2025-04-05T10:05:59Z</time>
      </trkpt>
      <trkpt lat="50.13185" lon="4.84482">
        <ele>113.6</ele>
        <time>2025-04-05T10:06:00Z</time>
      </trkpt>
      <trkpt lat="50.13184" lon="4.84484">
        <ele>113.8</ele>
        <time>2025-04-05T10:06:01Z</time>
      </trkpt>
      <trkpt lat="50.13183" lon="4.84489">
        <ele>113.8</ele>
        <time>2025-04-05T10:06:02Z</time>
      </trkpt>
      <trkpt lat="50.13179" lon="4.84501">
        <ele>113.8</ele>
        <time>2025-04-05T10:06:03Z</time>
      </trkpt>
      <trkpt lat="50.13177" lon="4.84509">
        <ele>113.8</ele>
        <time>2025-04-05T10:06:04Z</time>
      </trkpt>
      <trkpt lat="50.13175" lon="4.84515">
        <ele>113.8</ele>
        <time>2025-04-05T10:06:05Z</time>
      </trkpt>
      <trkpt lat="50.13174" lon="4.84522">
        <ele>114</ele>
        <time>2025-04-05T10:06:06Z</time>
      </trkpt>
      <trkpt lat="50.13172" lon="4.84528">
        <ele>114</ele>
        <time>2025-04-05T10:06:07Z</time>
      </trkpt>
      <trkpt lat="50.1317" lon="4.84535">
        <ele>114</ele>
        <time>2025-04-05T10:06:08Z</time>
      </trkpt>
      <trkpt lat="50.13168" lon="4.84543">
        <ele>114</ele>
        <time>2025-04-05T10:06:09Z</time>
      </trkpt>
      <trkpt lat="50.13166" lon="4.8455">
        <ele>114</ele>
        <time>2025-04-05T10:06:10Z</time>
      </trkpt>
      <trkpt lat="50.13163" lon="4.84557">
        <ele>114</ele>
        <time>2025-04-05T10:06:11Z</time>
      </trkpt>
      <trkpt lat="50.13161" lon="4.84564">
        <ele>113.8</ele>
        <time>2025-04-05T10:06:12Z</time>
      </trkpt>
      <trkpt lat="50.13158" lon="4.84571">
        <ele>113.8</ele>
        <time>2025-04-05T10:06:13Z</time>
      </trkpt>
      <trkpt lat="50.13156" lon="4.84577">
        <ele>113.6</ele>
        <time>2025-04-05T10:06:14Z</time>
      </trkpt>
      <trkpt lat="50.13153" lon="4.84584">
        <ele>113.6</ele>
        <time>2025-04-05T10:06:15Z</time>
      </trkpt>
      <trkpt lat="50.13149" lon="4.84594">
        <ele>113.4</ele>
        <time>2025-04-05T10:06:16Z</time>
      </trkpt>
      <trkpt lat="50.13146" lon="4.84603">
        <ele>113.2</ele>
        <time>2025-04-05T10:06:17Z</time>
      </trkpt>
      <trkpt lat="50.13143" lon="4.8461">
        <ele>113.2</ele>
        <time>2025-04-05T10:06:18Z</time>
      </trkpt>
      <trkpt lat="50.13139" lon="4.84619">
        <ele>113.2</ele>
        <time>2025-04-05T10:06:19Z</time>
      </trkpt>
      <trkpt lat="50.13136" lon="4.84627">
        <ele>113</ele>
        <time>2025-04-05T10:06:20Z</time>
      </trkpt>
      <trkpt lat="50.13133" lon="4.84636">
        <ele>113</ele>
        <time>2025-04-05T10:06:21Z</time>
      </trkpt>
      <trkpt lat="50.13129" lon="4.84644">
        <ele>112.8</ele>
        <time>2025-04-05T10:06:22Z</time>
      </trkpt>
      <trkpt lat="50.13126" lon="4.84653">
        <ele>112.8</ele>
        <time>2025-04-05T10:06:23Z</time>
      </trkpt>
      <trkpt lat="50.13123" lon="4.84662">
        <ele>112.8</ele>
        <time>2025-04-05T10:06:24Z</time>
      </trkpt>
      <trkpt lat="50.13119" lon="4.84671">
        <ele>112.6</ele>
        <time>2025-04-05T10:06:25Z</time>
      </trkpt>
      <trkpt lat="50.13116" lon="4.8468">
        <ele>112.6</ele>
        <time>2025-04-05T10:06:26Z</time>
      </trkpt>
      <trkpt lat="50.13112" lon="4.84689">
        <ele>112.4</ele>
        <time>2025-04-05T10:06:27Z</time>
      </trkpt>
      <trkpt lat="50.1311" lon="4.84697">
        <ele>112.2</ele>
        <time>2025-04-05T10:06:28Z</time>
      </trkpt>
      <trkpt lat="50.13106" lon="4.84707">
        <ele>112</ele>
        <time>2025-04-05T10:06:29Z</time>
      </trkpt>
      <trkpt lat="50.13102" lon="4.84717">
        <ele>111.8</ele>
        <time>2025-04-05T10:06:30Z</time>
      </trkpt>
      <trkpt lat="50.13098" lon="4.84727">
        <ele>111.8</ele>
        <time>2025-04-05T10:06:31Z</time>
      </trkpt>
      <trkpt lat="50.13094" lon="4.84737">
        <ele>111.8</ele>
        <time>2025-04-05T10:06:32Z</time>
      </trkpt>
      <trkpt lat="50.13091" lon="4.84746">
        <ele>111.6</ele>
        <time>2025-04-05T10:06:33Z</time>
      </trkpt>
      <trkpt lat="50.13087" lon="4.84756">
        <ele>111.4</ele>
        <time>2025-04-05T10:06:34Z</time>
      </trkpt>
      <trkpt lat="50.13083" lon="4.84766">
        <ele>111.2</ele>
        <time>2025-04-05T10:06:35Z</time>
      </trkpt>
      <trkpt lat="50.1308" lon="4.84776">
        <ele>111</ele>
        <time>2025-04-05T10:06:36Z</time>
      </trkpt>
      <trkpt lat="50.13076" lon="4.84784">
        <ele>110.8</ele>
        <time>2025-04-05T10:06:37Z</time>
      </trkpt>
      <trkpt lat="50.13072" lon="4.84795">
        <ele>110.6</ele>
        <time>2025-04-05T10:06:38Z</time>
      </trkpt>
      <trkpt lat="50.13068" lon="4.84806">
        <ele>110.6</ele>
        <time>2025-04-05T10:06:39Z</time>
      </trkpt>
      <trkpt lat="50.13064" lon="4.84816">
        <ele>110.4</ele>
        <time>2025-04-05T10:06:40Z</time>
      </trkpt>
      <trkpt lat="50.1306" lon="4.84826">
        <ele>110.4</ele>
        <time>2025-04-05T10:06:41Z</time>
      </trkpt>
      <trkpt lat="50.13057" lon="4.84835">
        <ele>110.2</ele>
        <time>2025-04-05T10:06:42Z</time>
      </trkpt>
      <trkpt lat="50.13053" lon="4.84845">
        <ele>110.2</ele>
        <time>2025-04-05T10:06:43Z</time>
      </trkpt>
      <trkpt lat="50.13049" lon="4.84855">
        <ele>110.2</ele>
        <time>2025-04-05T10:06:44Z</time>
      </trkpt>
      <trkpt lat="50.13045" lon="4.84865">
        <ele>110.2</ele>
        <time>2025-04-05T10:06:45Z</time>
      </trkpt>
      <trkpt lat="50.13042" lon="4.84873">
        <ele>110.2</ele>
        <time>2025-04-05T10:06:46Z</time>
      </trkpt>
      <trkpt lat="50.13038" lon="4.84884">
        <ele>110.2</ele>
        <time>2025-04-05T10:06:47Z</time>
      </trkpt>
      <trkpt lat="50.13034" lon="4.84894">
        <ele>110.2</ele>
        <time>2025-04-05T10:06:48Z</time>
      </trkpt>
      <trkpt lat="50.1303" lon="4.84905">
        <ele>110.2</ele>
        <time>2025-04-05T10:06:49Z</time>
      </trkpt>
      <trkpt lat="50.13026" lon="4.84915">
        <ele>110.2</ele>
        <time>2025-04-05T10:06:50Z</time>
      </trkpt>
      <trkpt lat="50.13023" lon="4.84925">
        <ele>110.4</ele>
        <time>2025-04-05T10:06:51Z</time>
      </trkpt>
      <trkpt lat="50.13019" lon="4.84934">
        <ele>110.4</ele>
        <time>2025-04-05T10:06:52Z</time>
      </trkpt>
      <trkpt lat="50.13015" lon="4.84943">
        <ele>110.4</ele>
        <time>2025-04-05T10:06:53Z</time>
      </trkpt>
      <trkpt lat="50.13011" lon="4.84953">
        <ele>110.6</ele>
        <time>2025-04-05T10:06:54Z</time>
      </trkpt>
      <trkpt lat="50.13007" lon="4.84961">
        <ele>110.6</ele>
        <time>2025-04-05T10:06:55Z</time>
      </trkpt>
      <trkpt lat="50.13003" lon="4.8497">
        <ele>110.8</ele>
        <time>2025-04-05T10:06:56Z</time>
      </trkpt>
      <trkpt lat="50.12999" lon="4.84979">
        <ele>110.8</ele>
        <time>2025-04-05T10:06:57Z</time>
      </trkpt>
      <trkpt lat="50.12995" lon="4.84986">
        <ele>110.8</ele>
        <time>2025-04-05T10:06:58Z</time>
      </trkpt>
      <trkpt lat="50.12991" lon="4.84994">
        <ele>111</ele>
        <time>2025-04-05T10:06:59Z</time>
      </trkpt>
      <trkpt lat="50.12987" lon="4.85002">
        <ele>111</ele>
        <time>2025-04-05T10:07:00Z</time>
      </trkpt>
      <trkpt lat="50.12982" lon="4.85012">
        <ele>111.2</ele>
        <time>2025-04-05T10:07:01Z</time>
      </trkpt>
      <trkpt lat="50.12978" lon="4.8502">
        <ele>111.4</ele>
        <time>2025-04-05T10:07:02Z</time>
      </trkpt>
      <trkpt lat="50.12975" lon="4.85027">
        <ele>111.4</ele>
        <time>2025-04-05T10:07:03Z</time>
      </trkpt>
      <trkpt lat="50.1297" lon="4.85036">
        <ele>111.6</ele>
        <time>2025-04-05T10:07:04Z</time>
      </trkpt>
      <trkpt lat="50.12966" lon="4.85044">
        <ele>111.6</ele>
        <time>2025-04-05T10:07:05Z</time>
      </trkpt>
      <trkpt lat="50.12962" lon="4.85052">
        <ele>111.6</ele>
        <time>2025-04-05T10:07:06Z</time>
      </trkpt>
      <trkpt lat="50.12958" lon="4.8506">
        <ele>111.8</ele>
        <time>2025-04-05T10:07:07Z</time>
      </trkpt>
      <trkpt lat="50.12954" lon="4.85066">
        <ele>111.8</ele>
        <time>2025-04-05T10:07:08Z</time>
      </trkpt>
      <trkpt lat="50.1295" lon="4.85075">
        <ele>111.8</ele>
        <time>2025-04-05T10:07:09Z</time>
      </trkpt>
      <trkpt lat="50.12945" lon="4.85083">
        <ele>111.8</ele>
        <time>2025-04-05T10:07:10Z</time>
      </trkpt>
      <trkpt lat="50.12941" lon="4.85091">
        <ele>111.8</ele>
        <time>2025-04-05T10:07:11Z</time>
      </trkpt>
      <trkpt lat="50.12936" lon="4.85099">
        <ele>112</ele>
        <time>2025-04-05T10:07:12Z</time>
      </trkpt>
      <trkpt lat="50.12932" lon="4.85107">
        <ele>112</ele>
        <time>2025-04-05T10:07:13Z</time>
      </trkpt>
      <trkpt lat="50.12928" lon="4.85115">
        <ele>112</ele>
        <time>2025-04-05T10:07:14Z</time>
      </trkpt>
      <trkpt lat="50.12924" lon="4.85122">
        <ele>112</ele>
        <time>2025-04-05T10:07:15Z</time>
      </trkpt>
      <trkpt lat="50.1292" lon="4.8513">
        <ele>112</ele>
        <time>2025-04-05T10:07:16Z</time>
      </trkpt>
      <trkpt lat="50.12916" lon="4.85137">
        <ele>112</ele>
        <time>2025-04-05T10:07:17Z</time>
      </trkpt>
      <trkpt lat="50.12912" lon="4.85144">
        <ele>112</ele>
        <time>2025-04-05T10:07:18Z</time>
      </trkpt>
      <trkpt lat="50.12908" lon="4.85151">
        <ele>111.8</ele>
        <time>2025-04-05T10:07:19Z</time>
      </trkpt>
      <trkpt lat="50.12904" lon="4.85158">
        <ele>111.8</ele>
        <time>2025-04-05T10:07:20Z</time>
      </trkpt>
      <trkpt lat="50.129" lon="4.85164">
        <ele>111.8</ele>
        <time>2025-04-05T10:07:21Z</time>
      </trkpt>
      <trkpt lat="50.12896" lon="4.85171">
        <ele>111.8</ele>
        <time>2025-04-05T10:07:22Z</time>
      </trkpt>
      <trkpt lat="50.12892" lon="4.85179">
        <ele>111.8</ele>
        <time>2025-04-05T10:07:23Z</time>
      </trkpt>
      <trkpt lat="50.12888" lon="4.85186">
        <ele>111.8</ele>
        <time>2025-04-05T10:07:24Z</time>
      </trkpt>
      <trkpt lat="50.12884" lon="4.85192">
        <ele>111.8</ele>
        <time>2025-04-05T10:07:25Z</time>
      </trkpt>
      <trkpt lat="50.1288" lon="4.852">
        <ele>111.8</ele>
        <time>2025-04-05T10:07:26Z</time>
      </trkpt>
      <trkpt lat="50.12877" lon="4.85207">
        <ele>111.8</ele>
        <time>2025-04-05T10:07:27Z</time>
      </trkpt>
      <trkpt lat="50.12873" lon="4.85214">
        <ele>111.6</ele>
        <time>2025-04-05T10:07:28Z</time>
      </trkpt>
      <trkpt lat="50.12869" lon="4.85221">
        <ele>111.6</ele>
        <time>2025-04-05T10:07:29Z</time>
      </trkpt>
      <trkpt lat="50.12865" lon="4.85228">
        <ele>111.6</ele>
        <time>2025-04-05T10:07:30Z</time>
      </trkpt>
      <trkpt lat="50.12861" lon="4.85235">
        <ele>111.6</ele>
        <time>2025-04-05T10:07:31Z</time>
      </trkpt>
      <trkpt lat="50.12857" lon="4.85241">
        <ele>111.4</ele>
        <time>2025-04-05T10:07:32Z</time>
      </trkpt>
      <trkpt lat="50.12853" lon="4.85248">
        <ele>111.4</ele>
        <time>2025-04-05T10:07:33Z</time>
      </trkpt>
      <trkpt lat="50.12849" lon="4.85254">
        <ele>111.4</ele>
        <time>2025-04-05T10:07:34Z</time>
      </trkpt>
      <trkpt lat="50.12846" lon="4.85261">
        <ele>111.4</ele>
        <time>2025-04-05T10:07:35Z</time>
      </trkpt>
      <trkpt lat="50.12842" lon="4.85268">
        <ele>111.4</ele>
        <time>2025-04-05T10:07:36Z</time>
      </trkpt>
      <trkpt lat="50.12838" lon="4.85276">
        <ele>111.2</ele>
        <time>2025-04-05T10:07:37Z</time>
      </trkpt>
      <trkpt lat="50.12834" lon="4.85283">
        <ele>111</ele>
        <time>2025-04-05T10:07:38Z</time>
      </trkpt>
      <trkpt lat="50.1283" lon="4.8529">
        <ele>111</ele>
        <time>2025-04-05T10:07:39Z</time>
      </trkpt>
      <trkpt lat="50.12826" lon="4.85298">
        <ele>111</ele>
        <time>2025-04-05T10:07:40Z</time>
      </trkpt>
      <trkpt lat="50.12822" lon="4.85306">
        <ele>111</ele>
        <time>2025-04-05T10:07:41Z</time>
      </trkpt>
      <trkpt lat="50.12818" lon="4.85313">
        <ele>111</ele>
        <time>2025-04-05T10:07:42Z</time>
      </trkpt>
      <trkpt lat="50.12814" lon="4.85321">
        <ele>110.8</ele>
        <time>2025-04-05T10:07:43Z</time>
      </trkpt>
      <trkpt lat="50.1281" lon="4.85329">
        <ele>110.8</ele>
        <time>2025-04-05T10:07:44Z</time>
      </trkpt>
      <trkpt lat="50.12805" lon="4.85338">
        <ele>110.8</ele>
        <time>2025-04-05T10:07:45Z</time>
      </trkpt>
      <trkpt lat="50.128" lon="4.85346">
        <ele>110.6</ele>
        <time>2025-04-05T10:07:46Z</time>
      </trkpt>
      <trkpt lat="50.12796" lon="4.85353">
        <ele>110.6</ele>
        <time>2025-04-05T10:07:47Z</time>
      </trkpt>
      <trkpt lat="50.12791" lon="4.85362">
        <ele>110.6</ele>
        <time>2025-04-05T10:07:48Z</time>
      </trkpt>
      <trkpt lat="50.12785" lon="4.85371">
        <ele>110.4</ele>
        <time>2025-04-05T10:07:49Z</time>
      </trkpt>
      <trkpt lat="50.12781" lon="4.8538">
        <ele>110.4</ele>
        <time>2025-04-05T10:07:50Z</time>
      </trkpt>
      <trkpt lat="50.12776" lon="4.85388">
        <ele>110.2</ele>
        <time>2025-04-05T10:07:51Z</time>
      </trkpt>
      <trkpt lat="50.12772" lon="4.85395">
        <ele>110.2</ele>
        <time>2025-04-05T10:07:52Z</time>
      </trkpt>
      <trkpt lat="50.12766" lon="4.85403">
        <ele>110</ele>
        <time>2025-04-05T10:07:53Z</time>
      </trkpt>
      <trkpt lat="50.12761" lon="4.85411">
        <ele>110</ele>
        <time>2025-04-05T10:07:54Z</time>
      </trkpt>
      <trkpt lat="50.12756" lon="4.85418">
        <ele>109.8</ele>
        <time>2025-04-05T10:07:55Z</time>
      </trkpt>
      <trkpt lat="50.1275" lon="4.85425">
        <ele>109.6</ele>
        <time>2025-04-05T10:07:56Z</time>
      </trkpt>
      <trkpt lat="50.12745" lon="4.85431">
        <ele>109.6</ele>
        <time>2025-04-05T10:07:57Z</time>
      </trkpt>
      <trkpt lat="50.1274" lon="4.85438">
        <ele>109.4</ele>
        <time>2025-04-05T10:07:58Z</time>
      </trkpt>
      <trkpt lat="50.12734" lon="4.85445">
        <ele>109.4</ele>
        <time>2025-04-05T10:07:59Z</time>
      </trkpt>
      <trkpt lat="50.12729" lon="4.85451">
        <ele>109.4</ele>
        <time>2025-04-05T10:08:00Z</time>
      </trkpt>
      <trkpt lat="50.12724" lon="4.85457">
        <ele>109.4</ele>
        <time>2025-04-05T10:08:01Z</time>
      </trkpt>
      <trkpt lat="50.12719" lon="4.85464">
        <ele>109.2</ele>
        <time>2025-04-05T10:08:02Z</time>
      </trkpt>
      <trkpt lat="50.12714" lon="4.8547">
        <ele>109</ele>
        <time>2025-04-05T10:08:03Z</time>
      </trkpt>
      <trkpt lat="50.12709" lon="4.85476">
        <ele>108.8</ele>
        <time>2025-04-05T10:08:04Z</time>
      </trkpt>
      <trkpt lat="50.12703" lon="4.85482">
        <ele>108.6</ele>
        <time>2025-04-05T10:08:05Z</time>
      </trkpt>
      <trkpt lat="50.12697" lon="4.8549">
        <ele>108.2</ele>
        <time>2025-04-05T10:08:06Z</time>
      </trkpt>
      <trkpt lat="50.12691" lon="4.85497">
        <ele>107.8</ele>
        <time>2025-04-05T10:08:07Z</time>
      </trkpt>
      <trkpt lat="50.12685" lon="4.85505">
        <ele>107.4</ele>
        <time>2025-04-05T10:08:08Z</time>
      </trkpt>
      <trkpt lat="50.12678" lon="4.85511">
        <ele>107</ele>
        <time>2025-04-05T10:08:09Z</time>
      </trkpt>
      <trkpt lat="50.1267" lon="4.85515">
        <ele>106.4</ele>
        <time>2025-04-05T10:08:10Z</time>
      </trkpt>
      <trkpt lat="50.12662" lon="4.85518">
        <ele>106</ele>
        <time>2025-04-05T10:08:11Z</time>
      </trkpt>
      <trkpt lat="50.12654" lon="4.8552">
        <ele>105.6</ele>
        <time>2025-04-05T10:08:12Z</time>
      </trkpt>
      <trkpt lat="50.12644" lon="4.85523">
        <ele>105.2</ele>
        <time>2025-04-05T10:08:13Z</time>
      </trkpt>
      <trkpt lat="50.12635" lon="4.85525">
        <ele>105</ele>
        <time>2025-04-05T10:08:14Z</time>
      </trkpt>
      <trkpt lat="50.12627" lon="4.85528">
        <ele>105</ele>
        <time>2025-04-05T10:08:15Z</time>
      </trkpt>
      <trkpt lat="50.12619" lon="4.85533">
        <ele>104.8</ele>
        <time>2025-04-05T10:08:16Z</time>
      </trkpt>
      <trkpt lat="50.12613" lon="4.85541">
        <ele>104.6</ele>
        <time>2025-04-05T10:08:17Z</time>
      </trkpt>
      <trkpt lat="50.12606" lon="4.85549">
        <ele>104.4</ele>
        <time>2025-04-05T10:08:18Z</time>
      </trkpt>
      <trkpt lat="50.126" lon="4.85558">
        <ele>104.4</ele>
        <time>2025-04-05T10:08:19Z</time>
      </trkpt>
      <trkpt lat="50.12595" lon="4.85566">
        <ele>104.4</ele>
        <time>2025-04-05T10:08:20Z</time>
      </trkpt>
      <trkpt lat="50.12589" lon="4.85575">
        <ele>104.4</ele>
        <time>2025-04-05T10:08:21Z</time>
      </trkpt>
      <trkpt lat="50.12584" lon="4.85583">
        <ele>104.6</ele>
        <time>2025-04-05T10:08:22Z</time>
      </trkpt>
      <trkpt lat="50.12578" lon="4.85591">
        <ele>104.6</ele>
        <time>2025-04-05T10:08:23Z</time>
      </trkpt>
      <trkpt lat="50.12573" lon="4.85598">
        <ele>104.6</ele>
        <time>2025-04-05T10:08:24Z</time>
      </trkpt>
      <trkpt lat="50.12568" lon="4.85606">
        <ele>104.8</ele>
        <time>2025-04-05T10:08:25Z</time>
      </trkpt>
      <trkpt lat="50.12562" lon="4.85614">
        <ele>105</ele>
        <time>2025-04-05T10:08:26Z</time>
      </trkpt>
      <trkpt lat="50.12557" lon="4.85622">
        <ele>105</ele>
        <time>2025-04-05T10:08:27Z</time>
      </trkpt>
      <trkpt lat="50.12551" lon="4.8563">
        <ele>105.2</ele>
        <time>2025-04-05T10:08:28Z</time>
      </trkpt>
      <trkpt lat="50.12546" lon="4.85637">
        <ele>105.2</ele>
        <time>2025-04-05T10:08:29Z</time>
      </trkpt>
      <trkpt lat="50.1254" lon="4.85645">
        <ele>105.4</ele>
        <time>2025-04-05T10:08:30Z</time>
      </trkpt>
      <trkpt lat="50.12536" lon="4.85651">
        <ele>105.8</ele>
        <time>2025-04-05T10:08:31Z</time>
      </trkpt>
      <trkpt lat="50.12531" lon="4.85659">
        <ele>106</ele>
        <time>2025-04-05T10:08:32Z</time>
      </trkpt>
      <trkpt lat="50.12526" lon="4.85666">
        <ele>106.2</ele>
        <time>2025-04-05T10:08:33Z</time>
      </trkpt>
      <trkpt lat="50.12521" lon="4.85673">
        <ele>106.4</ele>
        <time>2025-04-05T10:08:34Z</time>
      </trkpt>
      <trkpt lat="50.12516" lon="4.85679">
        <ele>106.6</ele>
        <time>2025-04-05T10:08:35Z</time>
      </trkpt>
      <trkpt lat="50.12512" lon="4.85684">
        <ele>106.8</ele>
        <time>2025-04-05T10:08:36Z</time>
      </trkpt>
      <trkpt lat="50.12507" lon="4.85691">
        <ele>107.2</ele>
        <time>2025-04-05T10:08:37Z</time>
      </trkpt>
      <trkpt lat="50.12502" lon="4.85697">
        <ele>107.4</ele>
        <time>2025-04-05T10:08:38Z</time>
      </trkpt>
      <trkpt lat="50.12497" lon="4.85704">
        <ele>107.6</ele>
        <time>2025-04-05T10:08:39Z</time>
      </trkpt>
      <trkpt lat="50.12492" lon="4.8571">
        <ele>107.6</ele>
        <time>2025-04-05T10:08:40Z</time>
      </trkpt>
      <trkpt lat="50.12487" lon="4.85715">
        <ele>107.8</ele>
        <time>2025-04-05T10:08:41Z</time>
      </trkpt>
      <trkpt lat="50.12481" lon="4.85721">
        <ele>107.8</ele>
        <time>2025-04-05T10:08:42Z</time>
      </trkpt>
      <trkpt lat="50.12476" lon="4.85726">
        <ele>107.8</ele>
        <time>2025-04-05T10:08:43Z</time>
      </trkpt>
      <trkpt lat="50.12471" lon="4.85731">
        <ele>107.8</ele>
        <time>2025-04-05T10:08:44Z</time>
      </trkpt>
      <trkpt lat="50.12465" lon="4.85735">
        <ele>107.8</ele>
        <time>2025-04-05T10:08:45Z</time>
      </trkpt>
      <trkpt lat="50.1246" lon="4.85739">
        <ele>108</ele>
        <time>2025-04-05T10:08:46Z</time>
      </trkpt>
      <trkpt lat="50.12454" lon="4.85743">
        <ele>108.2</ele>
        <time>2025-04-05T10:08:47Z</time>
      </trkpt>
      <trkpt lat="50.12447" lon="4.85746">
        <ele>108.2</ele>
        <time>2025-04-05T10:08:48Z</time>
      </trkpt>
      <trkpt lat="50.12442" lon="4.85749">
        <ele>108.2</ele>
        <time>2025-04-05T10:08:49Z</time>
      </trkpt>
      <trkpt lat="50.12436" lon="4.85753">
        <ele>108.2</ele>
        <time>2025-04-05T10:08:50Z</time>
      </trkpt>
      <trkpt lat="50.12429" lon="4.85756">
        <ele>108.2</ele>
        <time>2025-04-05T10:08:51Z</time>
      </trkpt>
      <trkpt lat="50.12423" lon="4.85759">
        <ele>108.2</ele>
        <time>2025-04-05T10:08:52Z</time>
      </trkpt>
      <trkpt lat="50.12418" lon="4.85761">
        <ele>108.2</ele>
        <time>2025-04-05T10:08:53Z</time>
      </trkpt>
      <trkpt lat="50.12411" lon="4.85764">
        <ele>108</ele>
        <time>2025-04-05T10:08:54Z</time>
      </trkpt>
      <trkpt lat="50.12404" lon="4.85766">
        <ele>108</ele>
        <time>2025-04-05T10:08:55Z</time>
      </trkpt>
      <trkpt lat="50.12397" lon="4.85769">
        <ele>107.8</ele>
        <time>2025-04-05T10:08:56Z</time>
      </trkpt>
      <trkpt lat="50.1239" lon="4.85772">
        <ele>107.6</ele>
        <time>2025-04-05T10:08:57Z</time>
      </trkpt>
      <trkpt lat="50.12384" lon="4.85775">
        <ele>107.4</ele>
        <time>2025-04-05T10:08:58Z</time>
      </trkpt>
      <trkpt lat="50.12377" lon="4.85778">
        <ele>107.4</ele>
        <time>2025-04-05T10:08:59Z</time>
      </trkpt>
      <trkpt lat="50.1237" lon="4.85781">
        <ele>107.4</ele>
        <time>2025-04-05T10:09:00Z</time>
      </trkpt>
      <trkpt lat="50.12365" lon="4.85785">
        <ele>107.2</ele>
        <time>2025-04-05T10:09:01Z</time>
      </trkpt>
      <trkpt lat="50.12358" lon="4.85787">
        <ele>107.2</ele>
        <time>2025-04-05T10:09:02Z</time>
      </trkpt>
      <trkpt lat="50.12352" lon="4.8579">
        <ele>107.2</ele>
        <time>2025-04-05T10:09:03Z</time>
      </trkpt>
      <trkpt lat="50.12346" lon="4.85792">
        <ele>107</ele>
        <time>2025-04-05T10:09:04Z</time>
      </trkpt>
      <trkpt lat="50.1234" lon="4.85794">
        <ele>107</ele>
        <time>2025-04-05T10:09:05Z</time>
      </trkpt>
      <trkpt lat="50.12334" lon="4.85795">
        <ele>107.2</ele>
        <time>2025-04-05T10:09:06Z</time>
      </trkpt>
      <trkpt lat="50.1233" lon="4.85794">
        <ele>107.2</ele>
        <time>2025-04-05T10:09:07Z</time>
      </trkpt>
      <trkpt lat="50.12326" lon="4.85793">
        <ele>107.2</ele>
        <time>2025-04-05T10:09:08Z</time>
      </trkpt>
      <trkpt lat="50.12323" lon="4.85793">
        <ele>107.4</ele>
        <time>2025-04-05T10:09:09Z</time>
      </trkpt>
      <trkpt lat="50.1232" lon="4.85793">
        <ele>107.4</ele>
        <time>2025-04-05T10:09:10Z</time>
      </trkpt>
      <trkpt lat="50.12316" lon="4.85792">
        <ele>107.4</ele>
        <time>2025-04-05T10:09:11Z</time>
      </trkpt>
      <trkpt lat="50.12312" lon="4.85793">
        <ele>107.4</ele>
        <time>2025-04-05T10:09:12Z</time>
      </trkpt>
      <trkpt lat="50.12309" lon="4.85795">
        <ele>107.4</ele>
        <time>2025-04-05T10:09:13Z</time>
      </trkpt>
      <trkpt lat="50.12307" lon="4.858">
        <ele>107.4</ele>
        <time>2025-04-05T10:09:14Z</time>
      </trkpt>
      <trkpt lat="50.12305" lon="4.85804">
        <ele>107.4</ele>
        <time>2025-04-05T10:09:15Z</time>
      </trkpt>
      <trkpt lat="50.12303" lon="4.85808">
        <ele>107.6</ele>
        <time>2025-04-05T10:09:16Z</time>
      </trkpt>
      <trkpt lat="50.123" lon="4.85813">
        <ele>107.6</ele>
        <time>2025-04-05T10:09:17Z</time>
      </trkpt>
      <trkpt lat="50.12295" lon="4.85818">
        <ele>107.6</ele>
        <time>2025-04-05T10:09:18Z</time>
      </trkpt>
      <trkpt lat="50.1229" lon="4.85823">
        <ele>107.8</ele>
        <time>2025-04-05T10:09:19Z</time>
      </trkpt>
      <trkpt lat="50.12285" lon="4.85829">
        <ele>107.8</ele>
        <time>2025-04-05T10:09:20Z</time>
      </trkpt>
      <trkpt lat="50.12281" lon="4.85835">
        <ele>107.8</ele>
        <time>2025-04-05T10:09:21Z</time>
      </trkpt>
      <trkpt lat="50.12277" lon="4.8584">
        <ele>107.8</ele>
        <time>2025-04-05T10:09:22Z</time>
      </trkpt>
      <trkpt lat="50.12273" lon="4.85846">
        <ele>107.8</ele>
        <time>2025-04-05T10:09:23Z</time>
      </trkpt>
      <trkpt lat="50.12268" lon="4.85852">
        <ele>108</ele>
        <time>2025-04-05T10:09:24Z</time>
      </trkpt>
      <trkpt lat="50.12263" lon="4.85858">
        <ele>108</ele>
        <time>2025-04-05T10:09:25Z</time>
      </trkpt>
      <trkpt lat="50.12258" lon="4.85863">
        <ele>108.2</ele>
        <time>2025-04-05T10:09:26Z</time>
      </trkpt>
      <trkpt lat="50.12254" lon="4.85869">
        <ele>108.4</ele>
        <time>2025-04-05T10:09:27Z</time>
      </trkpt>
      <trkpt lat="50.1225" lon="4.85873">
        <ele>108.6</ele>
        <time>2025-04-05T10:09:28Z</time>
      </trkpt>
      <trkpt lat="50.12245" lon="4.85878">
        <ele>108.8</ele>
        <time>2025-04-05T10:09:29Z</time>
      </trkpt>
      <trkpt lat="50.12241" lon="4.85882">
        <ele>109</ele>
        <time>2025-04-05T10:09:30Z</time>
      </trkpt>
      <trkpt lat="50.12236" lon="4.85886">
        <ele>109.2</ele>
        <time>2025-04-05T10:09:31Z</time>
      </trkpt>
      <trkpt lat="50.12233" lon="4.8589">
        <ele>109.4</ele>
        <time>2025-04-05T10:09:32Z</time>
      </trkpt>
      <trkpt lat="50.12229" lon="4.85894">
        <ele>109.8</ele>
        <time>2025-04-05T10:09:33Z</time>
      </trkpt>
      <trkpt lat="50.12225" lon="4.85898">
        <ele>110</ele>
        <time>2025-04-05T10:09:34Z</time>
      </trkpt>
      <trkpt lat="50.1222" lon="4.85902">
        <ele>110.2</ele>
        <time>2025-04-05T10:09:35Z</time>
      </trkpt>
      <trkpt lat="50.12217" lon="4.85906">
        <ele>110.6</ele>
        <time>2025-04-05T10:09:36Z</time>
      </trkpt>
      <trkpt lat="50.12213" lon="4.8591">
        <ele>110.8</ele>
        <time>2025-04-05T10:09:37Z</time>
      </trkpt>
      <trkpt lat="50.12209" lon="4.85914">
        <ele>111.2</ele>
        <time>2025-04-05T10:09:38Z</time>
      </trkpt>
      <trkpt lat="50.12206" lon="4.85918">
        <ele>111.4</ele>
        <time>2025-04-05T10:09:39Z</time>
      </trkpt>
      <trkpt lat="50.12202" lon="4.85922">
        <ele>111.8</ele>
        <time>2025-04-05T10:09:40Z</time>
      </trkpt>
      <trkpt lat="50.12198" lon="4.85925">
        <ele>112</ele>
        <time>2025-04-05T10:09:41Z</time>
      </trkpt>
      <trkpt lat="50.12195" lon="4.85929">
        <ele>112.4</ele>
        <time>2025-04-05T10:09:42Z</time>
      </trkpt>
      <trkpt lat="50.12191" lon="4.85932">
        <ele>112.6</ele>
        <time>2025-04-05T10:09:43Z</time>
      </trkpt>
      <trkpt lat="50.12188" lon="4.85936">
        <ele>112.8</ele>
        <time>2025-04-05T10:09:44Z</time>
      </trkpt>
      <trkpt lat="50.12184" lon="4.85939">
        <ele>113.2</ele>
        <time>2025-04-05T10:09:45Z</time>
      </trkpt>
      <trkpt lat="50.12181" lon="4.85943">
        <ele>113.4</ele>
        <time>2025-04-05T10:09:46Z</time>
      </trkpt>
      <trkpt lat="50.12178" lon="4.85947">
        <ele>113.8</ele>
        <time>2025-04-05T10:09:47Z</time>
      </trkpt>
      <trkpt lat="50.12175" lon="4.8595">
        <ele>114</ele>
        <time>2025-04-05T10:09:48Z</time>
      </trkpt>
      <trkpt lat="50.12172" lon="4.85954">
        <ele>114.4</ele>
        <time>2025-04-05T10:09:49Z</time>
      </trkpt>
      <trkpt lat="50.12169" lon="4.85957">
        <ele>114.6</ele>
        <time>2025-04-05T10:09:50Z</time>
      </trkpt>
      <trkpt lat="50.12166" lon="4.85961">
        <ele>114.8</ele>
        <time>2025-04-05T10:09:51Z</time>
      </trkpt>
      <trkpt lat="50.12163" lon="4.85965">
        <ele>115</ele>
        <time>2025-04-05T10:09:52Z</time>
      </trkpt>
      <trkpt lat="50.12161" lon="4.85968">
        <ele>115.2</ele>
        <time>2025-04-05T10:09:53Z</time>
      </trkpt>
      <trkpt lat="50.12158" lon="4.85971">
        <ele>115.6</ele>
        <time>2025-04-05T10:09:54Z</time>
      </trkpt>
      <trkpt lat="50.12154" lon="4.85975">
        <ele>115.8</ele>
        <time>2025-04-05T10:09:55Z</time>
      </trkpt>
      <trkpt lat="50.12151" lon="4.85979">
        <ele>116.2</ele>
        <time>2025-04-05T10:09:56Z</time>
      </trkpt>
      <trkpt lat="50.12148" lon="4.85981">
        <ele>116.4</ele>
        <time>2025-04-05T10:09:57Z</time>
      </trkpt>
      <trkpt lat="50.12144" lon="4.85982">
        <ele>116.6</ele>
        <time>2025-04-05T10:09:58Z</time>
      </trkpt>
      <trkpt lat="50.1214" lon="4.85983">
        <ele>117</ele>
        <time>2025-04-05T10:09:59Z</time>
      </trkpt>
      <trkpt lat="50.12137" lon="4.85984">
        <ele>117.2</ele>
        <time>2025-04-05T10:10:00Z</time>
      </trkpt>
      <trkpt lat="50.12133" lon="4.85985">
        <ele>117.4</ele>
        <time>2025-04-05T10:10:01Z</time>
      </trkpt>
      <trkpt lat="50.12129" lon="4.85986">
        <ele>117.6</ele>
        <time>2025-04-05T10:10:02Z</time>
      </trkpt>
      <trkpt lat="50.12125" lon="4.85987">
        <ele>117.8</ele>
        <time>2025-04-05T10:10:03Z</time>
      </trkpt>
      <trkpt lat="50.12121" lon="4.85988">
        <ele>118</ele>
        <time>2025-04-05T10:10:04Z</time>
      </trkpt>
      <trkpt lat="50.12117" lon="4.85989">
        <ele>118.2</ele>
        <time>2025-04-05T10:10:05Z</time>
      </trkpt>
      <trkpt lat="50.12113" lon="4.85991">
        <ele>118.2</ele>
        <time>2025-04-05T10:10:06Z</time>
      </trkpt>
      <trkpt lat="50.12109" lon="4.85993">
        <ele>118.4</ele>
        <time>2025-04-05T10:10:07Z</time>
      </trkpt>
      <trkpt lat="50.12105" lon="4.85994">
        <ele>118.6</ele>
        <time>2025-04-05T10:10:08Z</time>
      </trkpt>
      <trkpt lat="50.12101" lon="4.85996">
        <ele>118.8</ele>
        <time>2025-04-05T10:10:09Z</time>
      </trkpt>
      <trkpt lat="50.12096" lon="4.85997">
        <ele>118.8</ele>
        <time>2025-04-05T10:10:10Z</time>
      </trkpt>
      <trkpt lat="50.12093" lon="4.85998">
        <ele>118.8</ele>
        <time>2025-04-05T10:10:11Z</time>
      </trkpt>
      <trkpt lat="50.12089" lon="4.86">
        <ele>119</ele>
        <time>2025-04-05T10:10:12Z</time>
      </trkpt>
      <trkpt lat="50.12084" lon="4.86002">
        <ele>119</ele>
        <time>2025-04-05T10:10:13Z</time>
      </trkpt>
      <trkpt lat="50.1208" lon="4.86004">
        <ele>119.2</ele>
        <time>2025-04-05T10:10:14Z</time>
      </trkpt>
      <trkpt lat="50.12076" lon="4.86006">
        <ele>119.2</ele>
        <time>2025-04-05T10:10:15Z</time>
      </trkpt>
      <trkpt lat="50.12071" lon="4.86009">
        <ele>119.2</ele>
        <time>2025-04-05T10:10:16Z</time>
      </trkpt>
      <trkpt lat="50.12066" lon="4.86012">
        <ele>119.2</ele>
        <time>2025-04-05T10:10:17Z</time>
      </trkpt>
      <trkpt lat="50.12062" lon="4.86015">
        <ele>119.4</ele>
        <time>2025-04-05T10:10:18Z</time>
      </trkpt>
      <trkpt lat="50.12057" lon="4.86018">
        <ele>119.4</ele>
        <time>2025-04-05T10:10:19Z</time>
      </trkpt>
      <trkpt lat="50.12053" lon="4.86021">
        <ele>119.6</ele>
        <time>2025-04-05T10:10:20Z</time>
      </trkpt>
      <trkpt lat="50.12049" lon="4.86025">
        <ele>119.6</ele>
        <time>2025-04-05T10:10:21Z</time>
      </trkpt>
      <trkpt lat="50.12045" lon="4.86029">
        <ele>119.8</ele>
        <time>2025-04-05T10:10:22Z</time>
      </trkpt>
      <trkpt lat="50.12041" lon="4.86033">
        <ele>119.8</ele>
        <time>2025-04-05T10:10:23Z</time>
      </trkpt>
      <trkpt lat="50.12037" lon="4.86038">
        <ele>120</ele>
        <time>2025-04-05T10:10:24Z</time>
      </trkpt>
      <trkpt lat="50.12034" lon="4.86041">
        <ele>120</ele>
        <time>2025-04-05T10:10:25Z</time>
      </trkpt>
      <trkpt lat="50.1203" lon="4.86046">
        <ele>120</ele>
        <time>2025-04-05T10:10:26Z</time>
      </trkpt>
      <trkpt lat="50.12026" lon="4.86051">
        <ele>120</ele>
        <time>2025-04-05T10:10:27Z</time>
      </trkpt>
      <trkpt lat="50.12022" lon="4.86056">
        <ele>120</ele>
        <time>2025-04-05T10:10:28Z</time>
      </trkpt>
      <trkpt lat="50.12018" lon="4.86061">
        <ele>120</ele>
        <time>2025-04-05T10:10:29Z</time>
      </trkpt>
      <trkpt lat="50.12014" lon="4.86067">
        <ele>120</ele>
        <time>2025-04-05T10:10:30Z</time>
      </trkpt>
      <trkpt lat="50.12011" lon="4.86073">
        <ele>120</ele>
        <time>2025-04-05T10:10:31Z</time>
      </trkpt>
      <trkpt lat="50.12007" lon="4.86078">
        <ele>120</ele>
        <time>2025-04-05T10:10:32Z</time>
      </trkpt>
      <trkpt lat="50.12003" lon="4.86083">
        <ele>120</ele>
        <time>2025-04-05T10:10:33Z</time>
      </trkpt>
      <trkpt lat="50.11999" lon="4.86088">
        <ele>120.2</ele>
        <time>2025-04-05T10:10:34Z</time>
      </trkpt>
      <trkpt lat="50.11996" lon="4.86093">
        <ele>120.2</ele>
        <time>2025-04-05T10:10:35Z</time>
      </trkpt>
      <trkpt lat="50.11992" lon="4.86098">
        <ele>120.2</ele>
        <time>2025-04-05T10:10:36Z</time>
      </trkpt>
      <trkpt lat="50.11987" lon="4.86103">
        <ele>120.2</ele>
        <time>2025-04-05T10:10:37Z</time>
      </trkpt>
      <trkpt lat="50.11984" lon="4.86107">
        <ele>120.4</ele>
        <time>2025-04-05T10:10:38Z</time>
      </trkpt>
      <trkpt lat="50.11979" lon="4.86111">
        <ele>120.4</ele>
        <time>2025-04-05T10:10:39Z</time>
      </trkpt>
      <trkpt lat="50.11974" lon="4.86116">
        <ele>120.6</ele>
        <time>2025-04-05T10:10:40Z</time>
      </trkpt>
      <trkpt lat="50.11969" lon="4.8612">
        <ele>120.6</ele>
        <time>2025-04-05T10:10:41Z</time>
      </trkpt>
      <trkpt lat="50.11966" lon="4.86123">
        <ele>120.6</ele>
        <time>2025-04-05T10:10:42Z</time>
      </trkpt>
      <trkpt lat="50.1196" lon="4.86127">
        <ele>120.8</ele>
        <time>2025-04-05T10:10:43Z</time>
      </trkpt>
      <trkpt lat="50.11955" lon="4.86131">
        <ele>121</ele>
        <time>2025-04-05T10:10:44Z</time>
      </trkpt>
      <trkpt lat="50.11951" lon="4.86133">
        <ele>121</ele>
        <time>2025-04-05T10:10:45Z</time>
      </trkpt>
      <trkpt lat="50.11945" lon="4.86136">
        <ele>121.2</ele>
        <time>2025-04-05T10:10:46Z</time>
      </trkpt>
      <trkpt lat="50.1194" lon="4.86139">
        <ele>121.4</ele>
        <time>2025-04-05T10:10:47Z</time>
      </trkpt>
      <trkpt lat="50.11935" lon="4.86142">
        <ele>121.4</ele>
        <time>2025-04-05T10:10:48Z</time>
      </trkpt>
      <trkpt lat="50.11931" lon="4.86145">
        <ele>121.6</ele>
        <time>2025-04-05T10:10:49Z</time>
      </trkpt>
      <trkpt lat="50.11926" lon="4.86149">
        <ele>121.8</ele>
        <time>2025-04-05T10:10:50Z</time>
      </trkpt>
      <trkpt lat="50.11921" lon="4.86153">
        <ele>121.8</ele>
        <time>2025-04-05T10:10:51Z</time>
      </trkpt>
      <trkpt lat="50.11917" lon="4.86156">
        <ele>122</ele>
        <time>2025-04-05T10:10:52Z</time>
      </trkpt>
      <trkpt lat="50.11912" lon="4.86159">
        <ele>122.2</ele>
        <time>2025-04-05T10:10:53Z</time>
      </trkpt>
      <trkpt lat="50.11907" lon="4.86163">
        <ele>122.2</ele>
        <time>2025-04-05T10:10:54Z</time>
      </trkpt>
      <trkpt lat="50.11902" lon="4.86166">
        <ele>122.4</ele>
        <time>2025-04-05T10:10:55Z</time>
      </trkpt>
      <trkpt lat="50.11897" lon="4.8617">
        <ele>122.6</ele>
        <time>2025-04-05T10:10:56Z</time>
      </trkpt>
      <trkpt lat="50.11892" lon="4.86174">
        <ele>122.8</ele>
        <time>2025-04-05T10:10:57Z</time>
      </trkpt>
      <trkpt lat="50.11888" lon="4.86177">
        <ele>122.8</ele>
        <time>2025-04-05T10:10:58Z</time>
      </trkpt>
      <trkpt lat="50.11884" lon="4.86182">
        <ele>123</ele>
        <time>2025-04-05T10:10:59Z</time>
      </trkpt>
      <trkpt lat="50.11881" lon="4.86187">
        <ele>123</ele>
        <time>2025-04-05T10:11:00Z</time>
      </trkpt>
      <trkpt lat="50.11877" lon="4.86192">
        <ele>123.2</ele>
        <time>2025-04-05T10:11:01Z</time>
      </trkpt>
      <trkpt lat="50.11873" lon="4.86198">
        <ele>123.4</ele>
        <time>2025-04-05T10:11:02Z</time>
      </trkpt>
      <trkpt lat="50.11869" lon="4.86203">
        <ele>123.4</ele>
        <time>2025-04-05T10:11:03Z</time>
      </trkpt>
      <trkpt lat="50.11866" lon="4.86209">
        <ele>123.6</ele>
        <time>2025-04-05T10:11:04Z</time>
      </trkpt>
      <trkpt lat="50.11863" lon="4.86214">
        <ele>123.8</ele>
        <time>2025-04-05T10:11:05Z</time>
      </trkpt>
      <trkpt lat="50.11861" lon="4.8622">
        <ele>123.8</ele>
        <time>2025-04-05T10:11:06Z</time>
      </trkpt>
      <trkpt lat="50.11858" lon="4.86227">
        <ele>124</ele>
        <time>2025-04-05T10:11:07Z</time>
      </trkpt>
      <trkpt lat="50.11855" lon="4.86233">
        <ele>124</ele>
        <time>2025-04-05T10:11:08Z</time>
      </trkpt>
      <trkpt lat="50.11852" lon="4.8624">
        <ele>124.2</ele>
        <time>2025-04-05T10:11:09Z</time>
      </trkpt>
      <trkpt lat="50.1185" lon="4.86246">
        <ele>124.4</ele>
        <time>2025-04-05T10:11:10Z</time>
      </trkpt>
      <trkpt lat="50.11848" lon="4.86253">
        <ele>124.6</ele>
        <time>2025-04-05T10:11:11Z</time>
      </trkpt>
      <trkpt lat="50.11846" lon="4.86259">
        <ele>124.8</ele>
        <time>2025-04-05T10:11:12Z</time>
      </trkpt>
      <trkpt lat="50.11845" lon="4.86265">
        <ele>125</ele>
        <time>2025-04-05T10:11:13Z</time>
      </trkpt>
      <trkpt lat="50.11843" lon="4.86271">
        <ele>125</ele>
        <time>2025-04-05T10:11:14Z</time>
      </trkpt>
      <trkpt lat="50.11842" lon="4.86277">
        <ele>125.2</ele>
        <time>2025-04-05T10:11:15Z</time>
      </trkpt>
      <trkpt lat="50.1184" lon="4.86283">
        <ele>125.4</ele>
        <time>2025-04-05T10:11:16Z</time>
      </trkpt>
      <trkpt lat="50.11839" lon="4.86289">
        <ele>125.6</ele>
        <time>2025-04-05T10:11:17Z</time>
      </trkpt>
      <trkpt lat="50.11837" lon="4.86296">
        <ele>125.8</ele>
        <time>2025-04-05T10:11:18Z</time>
      </trkpt>
      <trkpt lat="50.11836" lon="4.86303">
        <ele>126</ele>
        <time>2025-04-05T10:11:19Z</time>
      </trkpt>
      <trkpt lat="50.11835" lon="4.86309">
        <ele>126.2</ele>
        <time>2025-04-05T10:11:20Z</time>
      </trkpt>
      <trkpt lat="50.11834" lon="4.86316">
        <ele>126.4</ele>
        <time>2025-04-05T10:11:21Z</time>
      </trkpt>
      <trkpt lat="50.11833" lon="4.86322">
        <ele>126.4</ele>
        <time>2025-04-05T10:11:22Z</time>
      </trkpt>
      <trkpt lat="50.11833" lon="4.8633">
        <ele>126.6</ele>
        <time>2025-04-05T10:11:23Z</time>
      </trkpt>
      <trkpt lat="50.11834" lon="4.86338">
        <ele>126.8</ele>
        <time>2025-04-05T10:11:24Z</time>
      </trkpt>
      <trkpt lat="50.11834" lon="4.86345">
        <ele>127</ele>
        <time>2025-04-05T10:11:25Z</time>
      </trkpt>
      <trkpt lat="50.11834" lon="4.86351">
        <ele>127.2</ele>
        <time>2025-04-05T10:11:26Z</time>
      </trkpt>
      <trkpt lat="50.11835" lon="4.86359">
        <ele>127.2</ele>
        <time>2025-04-05T10:11:27Z</time>
      </trkpt>
      <trkpt lat="50.11836" lon="4.86366">
        <ele>127.4</ele>
        <time>2025-04-05T10:11:28Z</time>
      </trkpt>
      <trkpt lat="50.11837" lon="4.86373">
        <ele>127.6</ele>
        <time>2025-04-05T10:11:29Z</time>
      </trkpt>
      <trkpt lat="50.11838" lon="4.8638">
        <ele>127.8</ele>
        <time>2025-04-05T10:11:30Z</time>
      </trkpt>
      <trkpt lat="50.1184" lon="4.86386">
        <ele>128</ele>
        <time>2025-04-05T10:11:31Z</time>
      </trkpt>
      <trkpt lat="50.11842" lon="4.86393">
        <ele>128.2</ele>
        <time>2025-04-05T10:11:32Z</time>
      </trkpt>
      <trkpt lat="50.11844" lon="4.864">
        <ele>128.4</ele>
        <time>2025-04-05T10:11:33Z</time>
      </trkpt>
      <trkpt lat="50.11845" lon="4.86405">
        <ele>128.6</ele>
        <time>2025-04-05T10:11:34Z</time>
      </trkpt>
      <trkpt lat="50.11846" lon="4.86411">
        <ele>128.6</ele>
        <time>2025-04-05T10:11:35Z</time>
      </trkpt>
      <trkpt lat="50.11847" lon="4.86419">
        <ele>128.8</ele>
        <time>2025-04-05T10:11:36Z</time>
      </trkpt>
      <trkpt lat="50.11848" lon="4.86427">
        <ele>129</ele>
        <time>2025-04-05T10:11:37Z</time>
      </trkpt>
      <trkpt lat="50.1185" lon="4.86433">
        <ele>129.2</ele>
        <time>2025-04-05T10:11:38Z</time>
      </trkpt>
      <trkpt lat="50.1185" lon="4.86439">
        <ele>129.2</ele>
        <time>2025-04-05T10:11:39Z</time>
      </trkpt>
      <trkpt lat="50.11851" lon="4.86446">
        <ele>129.4</ele>
        <time>2025-04-05T10:11:40Z</time>
      </trkpt>
      <trkpt lat="50.11852" lon="4.86452">
        <ele>129.6</ele>
        <time>2025-04-05T10:11:41Z</time>
      </trkpt>
      <trkpt lat="50.11853" lon="4.86459">
        <ele>129.8</ele>
        <time>2025-04-05T10:11:42Z</time>
      </trkpt>
      <trkpt lat="50.11854" lon="4.86464">
        <ele>129.8</ele>
        <time>2025-04-05T10:11:43Z</time>
      </trkpt>
      <trkpt lat="50.11855" lon="4.86471">
        <ele>130</ele>
        <time>2025-04-05T10:11:44Z</time>
      </trkpt>
      <trkpt lat="50.11855" lon="4.86479">
        <ele>130.2</ele>
        <time>2025-04-05T10:11:45Z</time>
      </trkpt>
      <trkpt lat="50.11856" lon="4.86486">
        <ele>130.4</ele>
        <time>2025-04-05T10:11:46Z</time>
      </trkpt>
      <trkpt lat="50.11857" lon="4.86492">
        <ele>130.6</ele>
        <time>2025-04-05T10:11:47Z</time>
      </trkpt>
      <trkpt lat="50.11857" lon="4.86499">
        <ele>130.8</ele>
        <time>2025-04-05T10:11:48Z</time>
      </trkpt>
      <trkpt lat="50.11858" lon="4.86506">
        <ele>130.8</ele>
        <time>2025-04-05T10:11:49Z</time>
      </trkpt>
      <trkpt lat="50.11858" lon="4.86512">
        <ele>131</ele>
        <time>2025-04-05T10:11:50Z</time>
      </trkpt>
      <trkpt lat="50.11858" lon="4.86519">
        <ele>131.2</ele>
        <time>2025-04-05T10:11:51Z</time>
      </trkpt>
      <trkpt lat="50.11858" lon="4.86526">
        <ele>131.2</ele>
        <time>2025-04-05T10:11:52Z</time>
      </trkpt>
      <trkpt lat="50.11859" lon="4.86533">
        <ele>131.4</ele>
        <time>2025-04-05T10:11:53Z</time>
      </trkpt>
      <trkpt lat="50.11859" lon="4.8654">
        <ele>131.4</ele>
        <time>2025-04-05T10:11:54Z</time>
      </trkpt>
      <trkpt lat="50.11859" lon="4.86547">
        <ele>131.6</ele>
        <time>2025-04-05T10:11:55Z</time>
      </trkpt>
      <trkpt lat="50.1186" lon="4.86554">
        <ele>131.6</ele>
        <time>2025-04-05T10:11:56Z</time>
      </trkpt>
      <trkpt lat="50.11859" lon="4.8656">
        <ele>131.8</ele>
        <time>2025-04-05T10:11:57Z</time>
      </trkpt>
      <trkpt lat="50.11859" lon="4.86567">
        <ele>132</ele>
        <time>2025-04-05T10:11:58Z</time>
      </trkpt>
      <trkpt lat="50.11859" lon="4.86573">
        <ele>132</ele>
        <time>2025-04-05T10:11:59Z</time>
      </trkpt>
      <trkpt lat="50.11858" lon="4.86579">
        <ele>132.2</ele>
        <time>2025-04-05T10:12:00Z</time>
      </trkpt>
      <trkpt lat="50.11858" lon="4.86585">
        <ele>132.2</ele>
        <time>2025-04-05T10:12:01Z</time>
      </trkpt>
      <trkpt lat="50.11857" lon="4.86592">
        <ele>132.4</ele>
        <time>2025-04-05T10:12:02Z</time>
      </trkpt>
      <trkpt lat="50.11857" lon="4.86599">
        <ele>132.4</ele>
        <time>2025-04-05T10:12:03Z</time>
      </trkpt>
      <trkpt lat="50.11857" lon="4.86605">
        <ele>132.4</ele>
        <time>2025-04-05T10:12:04Z</time>
      </trkpt>
      <trkpt lat="50.11857" lon="4.86611">
        <ele>132.4</ele>
        <time>2025-04-05T10:12:05Z</time>
      </trkpt>
      <trkpt lat="50.11856" lon="4.86618">
        <ele>132.4</ele>
        <time>2025-04-05T10:12:06Z</time>
      </trkpt>
      <trkpt lat="50.11856" lon="4.86625">
        <ele>132.4</ele>
        <time>2025-04-05T10:12:07Z</time>
      </trkpt>
      <trkpt lat="50.11855" lon="4.86633">
        <ele>132.4</ele>
        <time>2025-04-05T10:12:08Z</time>
      </trkpt>
      <trkpt lat="50.11854" lon="4.8664">
        <ele>132.2</ele>
        <time>2025-04-05T10:12:09Z</time>
      </trkpt>
      <trkpt lat="50.11854" lon="4.86647">
        <ele>132.2</ele>
        <time>2025-04-05T10:12:10Z</time>
      </trkpt>
      <trkpt lat="50.11854" lon="4.86655">
        <ele>132</ele>
        <time>2025-04-05T10:12:11Z</time>
      </trkpt>
      <trkpt lat="50.11855" lon="4.86664">
        <ele>132</ele>
        <time>2025-04-05T10:12:12Z</time>
      </trkpt>
      <trkpt lat="50.11855" lon="4.86672">
        <ele>132</ele>
        <time>2025-04-05T10:12:13Z</time>
      </trkpt>
      <trkpt lat="50.11855" lon="4.86679">
        <ele>131.8</ele>
        <time>2025-04-05T10:12:14Z</time>
      </trkpt>
      <trkpt lat="50.11856" lon="4.86689">
        <ele>131.8</ele>
        <time>2025-04-05T10:12:15Z</time>
      </trkpt>
      <trkpt lat="50.11857" lon="4.86697">
        <ele>131.8</ele>
        <time>2025-04-05T10:12:16Z</time>
      </trkpt>
      <trkpt lat="50.11858" lon="4.86705">
        <ele>131.6</ele>
        <time>2025-04-05T10:12:17Z</time>
      </trkpt>
      <trkpt lat="50.11859" lon="4.86712">
        <ele>131.6</ele>
        <time>2025-04-05T10:12:18Z</time>
      </trkpt>
      <trkpt lat="50.1186" lon="4.86719">
        <ele>131.6</ele>
        <time>2025-04-05T10:12:19Z</time>
      </trkpt>
      <trkpt lat="50.11861" lon="4.86726">
        <ele>131.6</ele>
        <time>2025-04-05T10:12:20Z</time>
      </trkpt>
      <trkpt lat="50.11862" lon="4.86732">
        <ele>131.6</ele>
        <time>2025-04-05T10:12:21Z</time>
      </trkpt>
      <trkpt lat="50.11863" lon="4.86738">
        <ele>131.6</ele>
        <time>2025-04-05T10:12:22Z</time>
      </trkpt>
      <trkpt lat="50.11865" lon="4.86744">
        <ele>131.6</ele>
        <time>2025-04-05T10:12:23Z</time>
      </trkpt>
      <trkpt lat="50.11866" lon="4.86751">
        <ele>131.6</ele>
        <time>2025-04-05T10:12:24Z</time>
      </trkpt>
      <trkpt lat="50.11868" lon="4.86759">
        <ele>131.8</ele>
        <time>2025-04-05T10:12:25Z</time>
      </trkpt>
      <trkpt lat="50.11869" lon="4.86766">
        <ele>131.8</ele>
        <time>2025-04-05T10:12:26Z</time>
      </trkpt>
      <trkpt lat="50.11871" lon="4.86773">
        <ele>131.8</ele>
        <time>2025-04-05T10:12:27Z</time>
      </trkpt>
      <trkpt lat="50.11872" lon="4.8678">
        <ele>131.8</ele>
        <time>2025-04-05T10:12:28Z</time>
      </trkpt>
      <trkpt lat="50.11874" lon="4.86787">
        <ele>131.8</ele>
        <time>2025-04-05T10:12:29Z</time>
      </trkpt>
      <trkpt lat="50.11876" lon="4.86794">
        <ele>132</ele>
        <time>2025-04-05T10:12:30Z</time>
      </trkpt>
      <trkpt lat="50.11877" lon="4.868">
        <ele>132</ele>
        <time>2025-04-05T10:12:31Z</time>
      </trkpt>
      <trkpt lat="50.11878" lon="4.86807">
        <ele>132</ele>
        <time>2025-04-05T10:12:32Z</time>
      </trkpt>
      <trkpt lat="50.1188" lon="4.86813">
        <ele>132</ele>
        <time>2025-04-05T10:12:33Z</time>
      </trkpt>
      <trkpt lat="50.11882" lon="4.86818">
        <ele>132.2</ele>
        <time>2025-04-05T10:12:34Z</time>
      </trkpt>
      <trkpt lat="50.11884" lon="4.86824">
        <ele>132.2</ele>
        <time>2025-04-05T10:12:35Z</time>
      </trkpt>
      <trkpt lat="50.11885" lon="4.86829">
        <ele>132.4</ele>
        <time>2025-04-05T10:12:36Z</time>
      </trkpt>
      <trkpt lat="50.11887" lon="4.86835">
        <ele>132.4</ele>
        <time>2025-04-05T10:12:37Z</time>
      </trkpt>
      <trkpt lat="50.11888" lon="4.86841">
        <ele>132.4</ele>
        <time>2025-04-05T10:12:38Z</time>
      </trkpt>
      <trkpt lat="50.1189" lon="4.86847">
        <ele>132.6</ele>
        <time>2025-04-05T10:12:39Z</time>
      </trkpt>
      <trkpt lat="50.11891" lon="4.86853">
        <ele>132.8</ele>
        <time>2025-04-05T10:12:40Z</time>
      </trkpt>
      <trkpt lat="50.11893" lon="4.86859">
        <ele>132.8</ele>
        <time>2025-04-05T10:12:41Z</time>
      </trkpt>
      <trkpt lat="50.11895" lon="4.86865">
        <ele>133</ele>
        <time>2025-04-05T10:12:42Z</time>
      </trkpt>
      <trkpt lat="50.11897" lon="4.86871">
        <ele>133.2</ele>
        <time>2025-04-05T10:12:43Z</time>
      </trkpt>
      <trkpt lat="50.11898" lon="4.86876">
        <ele>133.4</ele>
        <time>2025-04-05T10:12:44Z</time>
      </trkpt>
      <trkpt lat="50.119" lon="4.86882">
        <ele>133.6</ele>
        <time>2025-04-05T10:12:45Z</time>
      </trkpt>
      <trkpt lat="50.11902" lon="4.86888">
        <ele>133.8</ele>
        <time>2025-04-05T10:12:46Z</time>
      </trkpt>
      <trkpt lat="50.11903" lon="4.86893">
        <ele>133.8</ele>
        <time>2025-04-05T10:12:47Z</time>
      </trkpt>
      <trkpt lat="50.11905" lon="4.86899">
        <ele>134</ele>
        <time>2025-04-05T10:12:48Z</time>
      </trkpt>
      <trkpt lat="50.11906" lon="4.86904">
        <ele>134.2</ele>
        <time>2025-04-05T10:12:49Z</time>
      </trkpt>
      <trkpt lat="50.11908" lon="4.8691">
        <ele>134.4</ele>
        <time>2025-04-05T10:12:50Z</time>
      </trkpt>
      <trkpt lat="50.1191" lon="4.86916">
        <ele>134.6</ele>
        <time>2025-04-05T10:12:51Z</time>
      </trkpt>
      <trkpt lat="50.11913" lon="4.86922">
        <ele>134.8</ele>
        <time>2025-04-05T10:12:52Z</time>
      </trkpt>
      <trkpt lat="50.11914" lon="4.86928">
        <ele>135</ele>
        <time>2025-04-05T10:12:53Z</time>
      </trkpt>
      <trkpt lat="50.11916" lon="4.86934">
        <ele>135.2</ele>
        <time>2025-04-05T10:12:54Z</time>
      </trkpt>
      <trkpt lat="50.11918" lon="4.8694">
        <ele>135.4</ele>
        <time>2025-04-05T10:12:55Z</time>
      </trkpt>
      <trkpt lat="50.11921" lon="4.86946">
        <ele>135.6</ele>
        <time>2025-04-05T10:12:56Z</time>
      </trkpt>
      <trkpt lat="50.11923" lon="4.86951">
        <ele>135.8</ele>
        <time>2025-04-05T10:12:57Z</time>
      </trkpt>
      <trkpt lat="50.11925" lon="4.86956">
        <ele>136</ele>
        <time>2025-04-05T10:12:58Z</time>
      </trkpt>
      <trkpt lat="50.11928" lon="4.86961">
        <ele>136.2</ele>
        <time>2025-04-05T10:12:59Z</time>
      </trkpt>
      <trkpt lat="50.1193" lon="4.86966">
        <ele>136.4</ele>
        <time>2025-04-05T10:13:00Z</time>
      </trkpt>
      <trkpt lat="50.11932" lon="4.8697">
        <ele>136.6</ele>
        <time>2025-04-05T10:13:01Z</time>
      </trkpt>
      <trkpt lat="50.11934" lon="4.86975">
        <ele>136.8</ele>
        <time>2025-04-05T10:13:02Z</time>
      </trkpt>
      <trkpt lat="50.11937" lon="4.8698">
        <ele>137</ele>
        <time>2025-04-05T10:13:03Z</time>
      </trkpt>
      <trkpt lat="50.11939" lon="4.86985">
        <ele>137.2</ele>
        <time>2025-04-05T10:13:04Z</time>
      </trkpt>
      <trkpt lat="50.11941" lon="4.86989">
        <ele>137.4</ele>
        <time>2025-04-05T10:13:05Z</time>
      </trkpt>
      <trkpt lat="50.11943" lon="4.86993">
        <ele>137.6</ele>
        <time>2025-04-05T10:13:06Z</time>
      </trkpt>
      <trkpt lat="50.11945" lon="4.86997">
        <ele>137.8</ele>
        <time>2025-04-05T10:13:07Z</time>
      </trkpt>
      <trkpt lat="50.11948" lon="4.87001">
        <ele>137.8</ele>
        <time>2025-04-05T10:13:08Z</time>
      </trkpt>
      <trkpt lat="50.11951" lon="4.87005">
        <ele>138</ele>
        <time>2025-04-05T10:13:09Z</time>
      </trkpt>
      <trkpt lat="50.11954" lon="4.87009">
        <ele>138.2</ele>
        <time>2025-04-05T10:13:10Z</time>
      </trkpt>
      <trkpt lat="50.11957" lon="4.87014">
        <ele>138.2</ele>
        <time>2025-04-05T10:13:11Z</time>
      </trkpt>
      <trkpt lat="50.1196" lon="4.87019">
        <ele>138.4</ele>
        <time>2025-04-05T10:13:12Z</time>
      </trkpt>
      <trkpt lat="50.11963" lon="4.87025">
        <ele>138.4</ele>
        <time>2025-04-05T10:13:13Z</time>
      </trkpt>
      <trkpt lat="50.11966" lon="4.8703">
        <ele>138.6</ele>
        <time>2025-04-05T10:13:14Z</time>
      </trkpt>
      <trkpt lat="50.11969" lon="4.87034">
        <ele>138.6</ele>
        <time>2025-04-05T10:13:15Z</time>
      </trkpt>
      <trkpt lat="50.11972" lon="4.87039">
        <ele>138.6</ele>
        <time>2025-04-05T10:13:16Z</time>
      </trkpt>
      <trkpt lat="50.11975" lon="4.87045">
        <ele>138.8</ele>
        <time>2025-04-05T10:13:17Z</time>
      </trkpt>
      <trkpt lat="50.11977" lon="4.8705">
        <ele>138.8</ele>
        <time>2025-04-05T10:13:18Z</time>
      </trkpt>
      <trkpt lat="50.11981" lon="4.87054">
        <ele>139</ele>
        <time>2025-04-05T10:13:19Z</time>
      </trkpt>
      <trkpt lat="50.11984" lon="4.87058">
        <ele>139</ele>
        <time>2025-04-05T10:13:20Z</time>
      </trkpt>
      <trkpt lat="50.11986" lon="4.87062">
        <ele>139.2</ele>
        <time>2025-04-05T10:13:21Z</time>
      </trkpt>
      <trkpt lat="50.11989" lon="4.87067">
        <ele>139.2</ele>
        <time>2025-04-05T10:13:22Z</time>
      </trkpt>
      <trkpt lat="50.11992" lon="4.87071">
        <ele>139.4</ele>
        <time>2025-04-05T10:13:23Z</time>
      </trkpt>
      <trkpt lat="50.11995" lon="4.87077">
        <ele>139.4</ele>
        <time>2025-04-05T10:13:24Z</time>
      </trkpt>
      <trkpt lat="50.11998" lon="4.87083">
        <ele>139.4</ele>
        <time>2025-04-05T10:13:25Z</time>
      </trkpt>
      <trkpt lat="50.12001" lon="4.87088">
        <ele>139.4</ele>
        <time>2025-04-05T10:13:26Z</time>
      </trkpt>
      <trkpt lat="50.12005" lon="4.87094">
        <ele>139.6</ele>
        <time>2025-04-05T10:13:27Z</time>
      </trkpt>
      <trkpt lat="50.12008" lon="4.87097">
        <ele>139.6</ele>
        <time>2025-04-05T10:13:28Z</time>
      </trkpt>
      <trkpt lat="50.12011" lon="4.87102">
        <ele>139.6</ele>
        <time>2025-04-05T10:13:29Z</time>
      </trkpt>
      <trkpt lat="50.12015" lon="4.87107">
        <ele>139.8</ele>
        <time>2025-04-05T10:13:30Z</time>
      </trkpt>
      <trkpt lat="50.12018" lon="4.87112">
        <ele>139.8</ele>
        <time>2025-04-05T10:13:31Z</time>
      </trkpt>
      <trkpt lat="50.12021" lon="4.87117">
        <ele>139.8</ele>
        <time>2025-04-05T10:13:32Z</time>
      </trkpt>
      <trkpt lat="50.12024" lon="4.87122">
        <ele>140</ele>
        <time>2025-04-05T10:13:33Z</time>
      </trkpt>
      <trkpt lat="50.12027" lon="4.87127">
        <ele>140</ele>
        <time>2025-04-05T10:13:34Z</time>
      </trkpt>
      <trkpt lat="50.12029" lon="4.87132">
        <ele>140</ele>
        <time>2025-04-05T10:13:35Z</time>
      </trkpt>
      <trkpt lat="50.12032" lon="4.87138">
        <ele>140.2</ele>
        <time>2025-04-05T10:13:36Z</time>
      </trkpt>
      <trkpt lat="50.12034" lon="4.87143">
        <ele>140.2</ele>
        <time>2025-04-05T10:13:37Z</time>
      </trkpt>
      <trkpt lat="50.12037" lon="4.87148">
        <ele>140.2</ele>
        <time>2025-04-05T10:13:38Z</time>
      </trkpt>
      <trkpt lat="50.1204" lon="4.87154">
        <ele>140.4</ele>
        <time>2025-04-05T10:13:39Z</time>
      </trkpt>
      <trkpt lat="50.12043" lon="4.87158">
        <ele>140.4</ele>
        <time>2025-04-05T10:13:40Z</time>
      </trkpt>
      <trkpt lat="50.12045" lon="4.87163">
        <ele>140.6</ele>
        <time>2025-04-05T10:13:41Z</time>
      </trkpt>
      <trkpt lat="50.12048" lon="4.87167">
        <ele>140.6</ele>
        <time>2025-04-05T10:13:42Z</time>
      </trkpt>
      <trkpt lat="50.12051" lon="4.87172">
        <ele>140.6</ele>
        <time>2025-04-05T10:13:43Z</time>
      </trkpt>
      <trkpt lat="50.12053" lon="4.87178">
        <ele>140.8</ele>
        <time>2025-04-05T10:13:44Z</time>
      </trkpt>
      <trkpt lat="50.12058" lon="4.87184">
        <ele>140.8</ele>
        <time>2025-04-05T10:13:45Z</time>
      </trkpt>
      <trkpt lat="50.12061" lon="4.87189">
        <ele>140.8</ele>
        <time>2025-04-05T10:13:46Z</time>
      </trkpt>
      <trkpt lat="50.12064" lon="4.87195">
        <ele>140.8</ele>
        <time>2025-04-05T10:13:47Z</time>
      </trkpt>
      <trkpt lat="50.12067" lon="4.87201">
        <ele>140.8</ele>
        <time>2025-04-05T10:13:48Z</time>
      </trkpt>
      <trkpt lat="50.12071" lon="4.87207">
        <ele>140.8</ele>
        <time>2025-04-05T10:13:49Z</time>
      </trkpt>
      <trkpt lat="50.12073" lon="4.87212">
        <ele>141</ele>
        <time>2025-04-05T10:13:50Z</time>
      </trkpt>
      <trkpt lat="50.12076" lon="4.87217">
        <ele>141</ele>
        <time>2025-04-05T10:13:51Z</time>
      </trkpt>
      <trkpt lat="50.12079" lon="4.87222">
        <ele>141</ele>
        <time>2025-04-05T10:13:52Z</time>
      </trkpt>
      <trkpt lat="50.12082" lon="4.87226">
        <ele>141.2</ele>
        <time>2025-04-05T10:13:53Z</time>
      </trkpt>
      <trkpt lat="50.12085" lon="4.87231">
        <ele>141.2</ele>
        <time>2025-04-05T10:13:54Z</time>
      </trkpt>
      <trkpt lat="50.12089" lon="4.87235">
        <ele>141.4</ele>
        <time>2025-04-05T10:13:55Z</time>
      </trkpt>
      <trkpt lat="50.12092" lon="4.87241">
        <ele>141.4</ele>
        <time>2025-04-05T10:13:56Z</time>
      </trkpt>
      <trkpt lat="50.12095" lon="4.87245">
        <ele>141.6</ele>
        <time>2025-04-05T10:13:57Z</time>
      </trkpt>
      <trkpt lat="50.12098" lon="4.8725">
        <ele>141.6</ele>
        <time>2025-04-05T10:13:58Z</time>
      </trkpt>
      <trkpt lat="50.12101" lon="4.87255">
        <ele>141.6</ele>
        <time>2025-04-05T10:13:59Z</time>
      </trkpt>
      <trkpt lat="50.12104" lon="4.8726">
        <ele>141.8</ele>
        <time>2025-04-05T10:14:00Z</time>
      </trkpt>
      <trkpt lat="50.12106" lon="4.87264">
        <ele>141.8</ele>
        <time>2025-04-05T10:14:01Z</time>
      </trkpt>
      <trkpt lat="50.12109" lon="4.87269">
        <ele>141.8</ele>
        <time>2025-04-05T10:14:02Z</time>
      </trkpt>
      <trkpt lat="50.12112" lon="4.87273">
        <ele>142</ele>
        <time>2025-04-05T10:14:03Z</time>
      </trkpt>
      <trkpt lat="50.12115" lon="4.87278">
        <ele>142</ele>
        <time>2025-04-05T10:14:04Z</time>
      </trkpt>
      <trkpt lat="50.12117" lon="4.87283">
        <ele>142.2</ele>
        <time>2025-04-05T10:14:05Z</time>
      </trkpt>
      <trkpt lat="50.1212" lon="4.87288">
        <ele>142.4</ele>
        <time>2025-04-05T10:14:06Z</time>
      </trkpt>
      <trkpt lat="50.12123" lon="4.87294">
        <ele>142.4</ele>
        <time>2025-04-05T10:14:07Z</time>
      </trkpt>
      <trkpt lat="50.12125" lon="4.873">
        <ele>142.6</ele>
        <time>2025-04-05T10:14:08Z</time>
      </trkpt>
      <trkpt lat="50.12128" lon="4.87306">
        <ele>142.6</ele>
        <time>2025-04-05T10:14:09Z</time>
      </trkpt>
      <trkpt lat="50.12132" lon="4.87312">
        <ele>142.6</ele>
        <time>2025-04-05T10:14:10Z</time>
      </trkpt>
      <trkpt lat="50.12134" lon="4.87318">
        <ele>142.8</ele>
        <time>2025-04-05T10:14:11Z</time>
      </trkpt>
      <trkpt lat="50.12137" lon="4.87324">
        <ele>142.8</ele>
        <time>2025-04-05T10:14:12Z</time>
      </trkpt>
      <trkpt lat="50.12139" lon="4.8733">
        <ele>142.8</ele>
        <time>2025-04-05T10:14:13Z</time>
      </trkpt>
      <trkpt lat="50.12141" lon="4.87337">
        <ele>142.8</ele>
        <time>2025-04-05T10:14:14Z</time>
      </trkpt>
      <trkpt lat="50.12144" lon="4.87343">
        <ele>143</ele>
        <time>2025-04-05T10:14:15Z</time>
      </trkpt>
      <trkpt lat="50.12146" lon="4.87349">
        <ele>143</ele>
        <time>2025-04-05T10:14:16Z</time>
      </trkpt>
      <trkpt lat="50.12148" lon="4.87355">
        <ele>142.8</ele>
        <time>2025-04-05T10:14:17Z</time>
      </trkpt>
      <trkpt lat="50.12151" lon="4.87361">
        <ele>142.8</ele>
        <time>2025-04-05T10:14:18Z</time>
      </trkpt>
      <trkpt lat="50.12153" lon="4.87368">
        <ele>143</ele>
        <time>2025-04-05T10:14:19Z</time>
      </trkpt>
      <trkpt lat="50.12155" lon="4.87373">
        <ele>143</ele>
        <time>2025-04-05T10:14:20Z</time>
      </trkpt>
      <trkpt lat="50.12157" lon="4.87379">
        <ele>143</ele>
        <time>2025-04-05T10:14:21Z</time>
      </trkpt>
      <trkpt lat="50.1216" lon="4.87384">
        <ele>143</ele>
        <time>2025-04-05T10:14:22Z</time>
      </trkpt>
      <trkpt lat="50.12162" lon="4.8739">
        <ele>143.2</ele>
        <time>2025-04-05T10:14:23Z</time>
      </trkpt>
      <trkpt lat="50.12164" lon="4.87396">
        <ele>143.2</ele>
        <time>2025-04-05T10:14:24Z</time>
      </trkpt>
      <trkpt lat="50.12166" lon="4.87401">
        <ele>143.4</ele>
        <time>2025-04-05T10:14:25Z</time>
      </trkpt>
      <trkpt lat="50.12169" lon="4.87407">
        <ele>143.4</ele>
        <time>2025-04-05T10:14:26Z</time>
      </trkpt>
      <trkpt lat="50.1217" lon="4.87412">
        <ele>143.6</ele>
        <time>2025-04-05T10:14:27Z</time>
      </trkpt>
      <trkpt lat="50.12173" lon="4.87417">
        <ele>143.6</ele>
        <time>2025-04-05T10:14:28Z</time>
      </trkpt>
      <trkpt lat="50.12175" lon="4.87423">
        <ele>143.8</ele>
        <time>2025-04-05T10:14:29Z</time>
      </trkpt>
      <trkpt lat="50.12177" lon="4.87429">
        <ele>144</ele>
        <time>2025-04-05T10:14:30Z</time>
      </trkpt>
      <trkpt lat="50.1218" lon="4.87435">
        <ele>144</ele>
        <time>2025-04-05T10:14:31Z</time>
      </trkpt>
      <trkpt lat="50.12182" lon="4.87441">
        <ele>144.2</ele>
        <time>2025-04-05T10:14:32Z</time>
      </trkpt>
      <trkpt lat="50.12184" lon="4.87446">
        <ele>144.2</ele>
        <time>2025-04-05T10:14:33Z</time>
      </trkpt>
      <trkpt lat="50.12186" lon="4.87452">
        <ele>144.4</ele>
        <time>2025-04-05T10:14:34Z</time>
      </trkpt>
      <trkpt lat="50.12188" lon="4.87458">
        <ele>144.6</ele>
        <time>2025-04-05T10:14:35Z</time>
      </trkpt>
      <trkpt lat="50.12191" lon="4.87464">
        <ele>144.8</ele>
        <time>2025-04-05T10:14:36Z</time>
      </trkpt>
      <trkpt lat="50.12193" lon="4.8747">
        <ele>144.8</ele>
        <time>2025-04-05T10:14:37Z</time>
      </trkpt>
      <trkpt lat="50.12196" lon="4.87475">
        <ele>145</ele>
        <time>2025-04-05T10:14:38Z</time>
      </trkpt>
      <trkpt lat="50.12198" lon="4.87481">
        <ele>145.2</ele>
        <time>2025-04-05T10:14:39Z</time>
      </trkpt>
      <trkpt lat="50.122" lon="4.87487">
        <ele>145.2</ele>
        <time>2025-04-05T10:14:40Z</time>
      </trkpt>
      <trkpt lat="50.12202" lon="4.87493">
        <ele>145.4</ele>
        <time>2025-04-05T10:14:41Z</time>
      </trkpt>
      <trkpt lat="50.12204" lon="4.87498">
        <ele>145.6</ele>
        <time>2025-04-05T10:14:42Z</time>
      </trkpt>
      <trkpt lat="50.12206" lon="4.87504">
        <ele>145.8</ele>
        <time>2025-04-05T10:14:43Z</time>
      </trkpt>
      <trkpt lat="50.12208" lon="4.8751">
        <ele>145.8</ele>
        <time>2025-04-05T10:14:44Z</time>
      </trkpt>
      <trkpt lat="50.1221" lon="4.87516">
        <ele>146</ele>
        <time>2025-04-05T10:14:45Z</time>
      </trkpt>
      <trkpt lat="50.12212" lon="4.87522">
        <ele>146.2</ele>
        <time>2025-04-05T10:14:46Z</time>
      </trkpt>
      <trkpt lat="50.12214" lon="4.87527">
        <ele>146.2</ele>
        <time>2025-04-05T10:14:47Z</time>
      </trkpt>
      <trkpt lat="50.12216" lon="4.87533">
        <ele>146.4</ele>
        <time>2025-04-05T10:14:48Z</time>
      </trkpt>
      <trkpt lat="50.12217" lon="4.87539">
        <ele>146.6</ele>
        <time>2025-04-05T10:14:49Z</time>
      </trkpt>
      <trkpt lat="50.12219" lon="4.87546">
        <ele>146.6</ele>
        <time>2025-04-05T10:14:50Z</time>
      </trkpt>
      <trkpt lat="50.1222" lon="4.87551">
        <ele>146.8</ele>
        <time>2025-04-05T10:14:51Z</time>
      </trkpt>
      <trkpt lat="50.12222" lon="4.87557">
        <ele>147</ele>
        <time>2025-04-05T10:14:52Z</time>
      </trkpt>
      <trkpt lat="50.12223" lon="4.87563">
        <ele>147</ele>
        <time>2025-04-05T10:14:53Z</time>
      </trkpt>
      <trkpt lat="50.12225" lon="4.87569">
        <ele>147.2</ele>
        <time>2025-04-05T10:14:54Z</time>
      </trkpt>
      <trkpt lat="50.12226" lon="4.87575">
        <ele>147.4</ele>
        <time>2025-04-05T10:14:55Z</time>
      </trkpt>
      <trkpt lat="50.12227" lon="4.87581">
        <ele>147.4</ele>
        <time>2025-04-05T10:14:56Z</time>
      </trkpt>
      <trkpt lat="50.12229" lon="4.87586">
        <ele>147.6</ele>
        <time>2025-04-05T10:14:57Z</time>
      </trkpt>
      <trkpt lat="50.1223" lon="4.87592">
        <ele>147.8</ele>
        <time>2025-04-05T10:14:58Z</time>
      </trkpt>
      <trkpt lat="50.12231" lon="4.87598">
        <ele>147.8</ele>
        <time>2025-04-05T10:14:59Z</time>
      </trkpt>
      <trkpt lat="50.12232" lon="4.87604">
        <ele>148</ele>
        <time>2025-04-05T10:15:00Z</time>
      </trkpt>
      <trkpt lat="50.12233" lon="4.87609">
        <ele>148.2</ele>
        <time>2025-04-05T10:15:01Z</time>
      </trkpt>
      <trkpt lat="50.12235" lon="4.87616">
        <ele>148.2</ele>
        <time>2025-04-05T10:15:02Z</time>
      </trkpt>
      <trkpt lat="50.12236" lon="4.87622">
        <ele>148.4</ele>
        <time>2025-04-05T10:15:03Z</time>
      </trkpt>
      <trkpt lat="50.12237" lon="4.87628">
        <ele>148.4</ele>
        <time>2025-04-05T10:15:04Z</time>
      </trkpt>
      <trkpt lat="50.12238" lon="4.87634">
        <ele>148.6</ele>
        <time>2025-04-05T10:15:05Z</time>
      </trkpt>
      <trkpt lat="50.1224" lon="4.87641">
        <ele>148.6</ele>
        <time>2025-04-05T10:15:06Z</time>
      </trkpt>
      <trkpt lat="50.12241" lon="4.87647">
        <ele>148.8</ele>
        <time>2025-04-05T10:15:07Z</time>
      </trkpt>
      <trkpt lat="50.12242" lon="4.87654">
        <ele>148.8</ele>
        <time>2025-04-05T10:15:08Z</time>
      </trkpt>
      <trkpt lat="50.12243" lon="4.8766">
        <ele>149</ele>
        <time>2025-04-05T10:15:09Z</time>
      </trkpt>
      <trkpt lat="50.12244" lon="4.87667">
        <ele>149</ele>
        <time>2025-04-05T10:15:10Z</time>
      </trkpt>
      <trkpt lat="50.12246" lon="4.87673">
        <ele>149</ele>
        <time>2025-04-05T10:15:11Z</time>
      </trkpt>
      <trkpt lat="50.12246" lon="4.87679">
        <ele>149.2</ele>
        <time>2025-04-05T10:15:12Z</time>
      </trkpt>
      <trkpt lat="50.12248" lon="4.87686">
        <ele>149.2</ele>
        <time>2025-04-05T10:15:13Z</time>
      </trkpt>
      <trkpt lat="50.12248" lon="4.87693">
        <ele>149.4</ele>
        <time>2025-04-05T10:15:14Z</time>
      </trkpt>
      <trkpt lat="50.12249" lon="4.87699">
        <ele>149.4</ele>
        <time>2025-04-05T10:15:15Z</time>
      </trkpt>
      <trkpt lat="50.12249" lon="4.87706">
        <ele>149.4</ele>
        <time>2025-04-05T10:15:16Z</time>
      </trkpt>
      <trkpt lat="50.12249" lon="4.87713">
        <ele>149.6</ele>
        <time>2025-04-05T10:15:17Z</time>
      </trkpt>
      <trkpt lat="50.12247" lon="4.87719">
        <ele>149.6</ele>
        <time>2025-04-05T10:15:18Z</time>
      </trkpt>
      <trkpt lat="50.12244" lon="4.87725">
        <ele>149.6</ele>
        <time>2025-04-05T10:15:19Z</time>
      </trkpt>
      <trkpt lat="50.12241" lon="4.8773">
        <ele>149.6</ele>
        <time>2025-04-05T10:15:20Z</time>
      </trkpt>
      <trkpt lat="50.12238" lon="4.87734">
        <ele>149.8</ele>
        <time>2025-04-05T10:15:21Z</time>
      </trkpt>
      <trkpt lat="50.12234" lon="4.87737">
        <ele>149.8</ele>
        <time>2025-04-05T10:15:22Z</time>
      </trkpt>
      <trkpt lat="50.1223" lon="4.87739">
        <ele>150</ele>
        <time>2025-04-05T10:15:23Z</time>
      </trkpt>
      <trkpt lat="50.12226" lon="4.87741">
        <ele>150</ele>
        <time>2025-04-05T10:15:24Z</time>
      </trkpt>
      <trkpt lat="50.12222" lon="4.87743">
        <ele>150</ele>
        <time>2025-04-05T10:15:25Z</time>
      </trkpt>
      <trkpt lat="50.12218" lon="4.87745">
        <ele>150.2</ele>
        <time>2025-04-05T10:15:26Z</time>
      </trkpt>
      <trkpt lat="50.12213" lon="4.87746">
        <ele>150.2</ele>
        <time>2025-04-05T10:15:27Z</time>
      </trkpt>
      <trkpt lat="50.12209" lon="4.87747">
        <ele>150.4</ele>
        <time>2025-04-05T10:15:28Z</time>
      </trkpt>
      <trkpt lat="50.12205" lon="4.87749">
        <ele>150.4</ele>
        <time>2025-04-05T10:15:29Z</time>
      </trkpt>
      <trkpt lat="50.12201" lon="4.87751">
        <ele>150.6</ele>
        <time>2025-04-05T10:15:30Z</time>
      </trkpt>
      <trkpt lat="50.12198" lon="4.87752">
        <ele>151</ele>
        <time>2025-04-05T10:15:31Z</time>
      </trkpt>
      <trkpt lat="50.12194" lon="4.87754">
        <ele>151.2</ele>
        <time>2025-04-05T10:15:32Z</time>
      </trkpt>
      <trkpt lat="50.12191" lon="4.87756">
        <ele>151.4</ele>
        <time>2025-04-05T10:15:33Z</time>
      </trkpt>
      <trkpt lat="50.12187" lon="4.87757">
        <ele>151.6</ele>
        <time>2025-04-05T10:15:34Z</time>
      </trkpt>
      <trkpt lat="50.12183" lon="4.87759">
        <ele>152</ele>
        <time>2025-04-05T10:15:35Z</time>
      </trkpt>
      <trkpt lat="50.1218" lon="4.87761">
        <ele>152.2</ele>
        <time>2025-04-05T10:15:36Z</time>
      </trkpt>
      <trkpt lat="50.12177" lon="4.87762">
        <ele>152.4</ele>
        <time>2025-04-05T10:15:37Z</time>
      </trkpt>
      <trkpt lat="50.12174" lon="4.87763">
        <ele>152.8</ele>
        <time>2025-04-05T10:15:38Z</time>
      </trkpt>
      <trkpt lat="50.1217" lon="4.87764">
        <ele>153</ele>
        <time>2025-04-05T10:15:39Z</time>
      </trkpt>
      <trkpt lat="50.12168" lon="4.87766">
        <ele>153.2</ele>
        <time>2025-04-05T10:15:40Z</time>
      </trkpt>
      <trkpt lat="50.12165" lon="4.87769">
        <ele>153.6</ele>
        <time>2025-04-05T10:15:41Z</time>
      </trkpt>
      <trkpt lat="50.12163" lon="4.87772">
        <ele>153.8</ele>
        <time>2025-04-05T10:15:42Z</time>
      </trkpt>
      <trkpt lat="50.12161" lon="4.87776">
        <ele>154.2</ele>
        <time>2025-04-05T10:15:43Z</time>
      </trkpt>
      <trkpt lat="50.12161" lon="4.87781">
        <ele>154.4</ele>
        <time>2025-04-05T10:15:44Z</time>
      </trkpt>
      <trkpt lat="50.12162" lon="4.87786">
        <ele>154.6</ele>
        <time>2025-04-05T10:15:45Z</time>
      </trkpt>
      <trkpt lat="50.12163" lon="4.87792">
        <ele>154.8</ele>
        <time>2025-04-05T10:15:46Z</time>
      </trkpt>
      <trkpt lat="50.12164" lon="4.87797">
        <ele>155</ele>
        <time>2025-04-05T10:15:47Z</time>
      </trkpt>
      <trkpt lat="50.12166" lon="4.87803">
        <ele>155.2</ele>
        <time>2025-04-05T10:15:48Z</time>
      </trkpt>
      <trkpt lat="50.12168" lon="4.87808">
        <ele>155.4</ele>
        <time>2025-04-05T10:15:49Z</time>
      </trkpt>
      <trkpt lat="50.1217" lon="4.87813">
        <ele>155.4</ele>
        <time>2025-04-05T10:15:50Z</time>
      </trkpt>
      <trkpt lat="50.12172" lon="4.87819">
        <ele>155.6</ele>
        <time>2025-04-05T10:15:51Z</time>
      </trkpt>
      <trkpt lat="50.12174" lon="4.87824">
        <ele>155.8</ele>
        <time>2025-04-05T10:15:52Z</time>
      </trkpt>
      <trkpt lat="50.12175" lon="4.87829">
        <ele>155.8</ele>
        <time>2025-04-05T10:15:53Z</time>
      </trkpt>
      <trkpt lat="50.12178" lon="4.87834">
        <ele>156</ele>
        <time>2025-04-05T10:15:54Z</time>
      </trkpt>
      <trkpt lat="50.12179" lon="4.87839">
        <ele>156</ele>
        <time>2025-04-05T10:15:55Z</time>
      </trkpt>
      <trkpt lat="50.12181" lon="4.87845">
        <ele>156.2</ele>
        <time>2025-04-05T10:15:56Z</time>
      </trkpt>
      <trkpt lat="50.12183" lon="4.8785">
        <ele>156.2</ele>
        <time>2025-04-05T10:15:57Z</time>
      </trkpt>
      <trkpt lat="50.12184" lon="4.87855">
        <ele>156.2</ele>
        <time>2025-04-05T10:15:58Z</time>
      </trkpt>
      <trkpt lat="50.12186" lon="4.87859">
        <ele>156.4</ele>
        <time>2025-04-05T10:15:59Z</time>
      </trkpt>
      <trkpt lat="50.12188" lon="4.87865">
        <ele>156.6</ele>
        <time>2025-04-05T10:16:00Z</time>
      </trkpt>
      <trkpt lat="50.1219" lon="4.8787">
        <ele>156.6</ele>
        <time>2025-04-05T10:16:01Z</time>
      </trkpt>
      <trkpt lat="50.12191" lon="4.87876">
        <ele>156.6</ele>
        <time>2025-04-05T10:16:02Z</time>
      </trkpt>
      <trkpt lat="50.12193" lon="4.87881">
        <ele>156.8</ele>
        <time>2025-04-05T10:16:03Z</time>
      </trkpt>
      <trkpt lat="50.12195" lon="4.87887">
        <ele>156.8</ele>
        <time>2025-04-05T10:16:04Z</time>
      </trkpt>
      <trkpt lat="50.12196" lon="4.87892">
        <ele>157</ele>
        <time>2025-04-05T10:16:05Z</time>
      </trkpt>
      <trkpt lat="50.12197" lon="4.87897">
        <ele>157.2</ele>
        <time>2025-04-05T10:16:06Z</time>
      </trkpt>
      <trkpt lat="50.12198" lon="4.87903">
        <ele>157.2</ele>
        <time>2025-04-05T10:16:07Z</time>
      </trkpt>
      <trkpt lat="50.12199" lon="4.87908">
        <ele>157.4</ele>
        <time>2025-04-05T10:16:08Z</time>
      </trkpt>
      <trkpt lat="50.122" lon="4.87915">
        <ele>157.6</ele>
        <time>2025-04-05T10:16:09Z</time>
      </trkpt>
      <trkpt lat="50.12201" lon="4.8792">
        <ele>157.6</ele>
        <time>2025-04-05T10:16:10Z</time>
      </trkpt>
      <trkpt lat="50.12202" lon="4.87927">
        <ele>157.8</ele>
        <time>2025-04-05T10:16:11Z</time>
      </trkpt>
      <trkpt lat="50.12203" lon="4.87933">
        <ele>158</ele>
        <time>2025-04-05T10:16:12Z</time>
      </trkpt>
      <trkpt lat="50.12203" lon="4.87938">
        <ele>158</ele>
        <time>2025-04-05T10:16:13Z</time>
      </trkpt>
      <trkpt lat="50.12204" lon="4.87944">
        <ele>158.2</ele>
        <time>2025-04-05T10:16:14Z</time>
      </trkpt>
      <trkpt lat="50.12204" lon="4.8795">
        <ele>158.4</ele>
        <time>2025-04-05T10:16:15Z</time>
      </trkpt>
      <trkpt lat="50.12205" lon="4.87956">
        <ele>158.4</ele>
        <time>2025-04-05T10:16:16Z</time>
      </trkpt>
      <trkpt lat="50.12206" lon="4.87961">
        <ele>158.6</ele>
        <time>2025-04-05T10:16:17Z</time>
      </trkpt>
      <trkpt lat="50.12206" lon="4.87967">
        <ele>158.8</ele>
        <time>2025-04-05T10:16:18Z</time>
      </trkpt>
      <trkpt lat="50.12207" lon="4.87973">
        <ele>158.8</ele>
        <time>2025-04-05T10:16:19Z</time>
      </trkpt>
      <trkpt lat="50.12207" lon="4.87979">
        <ele>159</ele>
        <time>2025-04-05T10:16:20Z</time>
      </trkpt>
      <trkpt lat="50.12207" lon="4.87985">
        <ele>159</ele>
        <time>2025-04-05T10:16:21Z</time>
      </trkpt>
      <trkpt lat="50.12208" lon="4.87991">
        <ele>159.2</ele>
        <time>2025-04-05T10:16:22Z</time>
      </trkpt>
      <trkpt lat="50.12209" lon="4.87996">
        <ele>159.2</ele>
        <time>2025-04-05T10:16:23Z</time>
      </trkpt>
      <trkpt lat="50.12209" lon="4.88002">
        <ele>159.4</ele>
        <time>2025-04-05T10:16:24Z</time>
      </trkpt>
      <trkpt lat="50.12209" lon="4.88007">
        <ele>159.4</ele>
        <time>2025-04-05T10:16:25Z</time>
      </trkpt>
      <trkpt lat="50.12209" lon="4.88013">
        <ele>159.6</ele>
        <time>2025-04-05T10:16:26Z</time>
      </trkpt>
      <trkpt lat="50.1221" lon="4.88018">
        <ele>159.6</ele>
        <time>2025-04-05T10:16:27Z</time>
      </trkpt>
      <trkpt lat="50.1221" lon="4.88024">
        <ele>159.8</ele>
        <time>2025-04-05T10:16:28Z</time>
      </trkpt>
      <trkpt lat="50.1221" lon="4.88029">
        <ele>159.8</ele>
        <time>2025-04-05T10:16:29Z</time>
      </trkpt>
      <trkpt lat="50.12209" lon="4.88035">
        <ele>160</ele>
        <time>2025-04-05T10:16:30Z</time>
      </trkpt>
      <trkpt lat="50.12209" lon="4.88041">
        <ele>160</ele>
        <time>2025-04-05T10:16:31Z</time>
      </trkpt>
      <trkpt lat="50.12209" lon="4.88047">
        <ele>160.2</ele>
        <time>2025-04-05T10:16:32Z</time>
      </trkpt>
      <trkpt lat="50.1221" lon="4.88052">
        <ele>160.2</ele>
        <time>2025-04-05T10:16:33Z</time>
      </trkpt>
      <trkpt lat="50.12211" lon="4.88058">
        <ele>160</ele>
        <time>2025-04-05T10:16:34Z</time>
      </trkpt>
      <trkpt lat="50.12211" lon="4.88064">
        <ele>159.8</ele>
        <time>2025-04-05T10:16:35Z</time>
      </trkpt>
      <trkpt lat="50.12211" lon="4.8807">
        <ele>159.6</ele>
        <time>2025-04-05T10:16:36Z</time>
      </trkpt>
      <trkpt lat="50.12212" lon="4.88077">
        <ele>159.4</ele>
        <time>2025-04-05T10:16:37Z</time>
      </trkpt>
      <trkpt lat="50.12212" lon="4.88084">
        <ele>159.2</ele>
        <time>2025-04-05T10:16:38Z</time>
      </trkpt>
      <trkpt lat="50.12213" lon="4.88092">
        <ele>158.8</ele>
        <time>2025-04-05T10:16:39Z</time>
      </trkpt>
      <trkpt lat="50.12214" lon="4.88099">
        <ele>158.6</ele>
        <time>2025-04-05T10:16:40Z</time>
      </trkpt>
      <trkpt lat="50.12217" lon="4.88105">
        <ele>158.6</ele>
        <time>2025-04-05T10:16:41Z</time>
      </trkpt>
      <trkpt lat="50.12221" lon="4.8811">
        <ele>158.4</ele>
        <time>2025-04-05T10:16:42Z</time>
      </trkpt>
      <trkpt lat="50.12225" lon="4.88113">
        <ele>158.4</ele>
        <time>2025-04-05T10:16:43Z</time>
      </trkpt>
      <trkpt lat="50.12229" lon="4.88115">
        <ele>158.2</ele>
        <time>2025-04-05T10:16:44Z</time>
      </trkpt>
      <trkpt lat="50.12233" lon="4.88118">
        <ele>158.2</ele>
        <time>2025-04-05T10:16:45Z</time>
      </trkpt>
      <trkpt lat="50.12238" lon="4.8812">
        <ele>158.2</ele>
        <time>2025-04-05T10:16:46Z</time>
      </trkpt>
      <trkpt lat="50.12242" lon="4.88123">
        <ele>158.2</ele>
        <time>2025-04-05T10:16:47Z</time>
      </trkpt>
      <trkpt lat="50.12246" lon="4.88127">
        <ele>158.2</ele>
        <time>2025-04-05T10:16:48Z</time>
      </trkpt>
      <trkpt lat="50.12251" lon="4.88131">
        <ele>158.2</ele>
        <time>2025-04-05T10:16:49Z</time>
      </trkpt>
      <trkpt lat="50.12254" lon="4.88136">
        <ele>158.2</ele>
        <time>2025-04-05T10:16:50Z</time>
      </trkpt>
      <trkpt lat="50.12258" lon="4.88141">
        <ele>158.2</ele>
        <time>2025-04-05T10:16:51Z</time>
      </trkpt>
      <trkpt lat="50.12261" lon="4.88145">
        <ele>158.2</ele>
        <time>2025-04-05T10:16:52Z</time>
      </trkpt>
      <trkpt lat="50.12265" lon="4.8815">
        <ele>158.2</ele>
        <time>2025-04-05T10:16:53Z</time>
      </trkpt>
      <trkpt lat="50.12267" lon="4.88155">
        <ele>158.2</ele>
        <time>2025-04-05T10:16:54Z</time>
      </trkpt>
      <trkpt lat="50.1227" lon="4.88159">
        <ele>158.4</ele>
        <time>2025-04-05T10:16:55Z</time>
      </trkpt>
      <trkpt lat="50.12273" lon="4.88164">
        <ele>158.4</ele>
        <time>2025-04-05T10:16:56Z</time>
      </trkpt>
      <trkpt lat="50.12276" lon="4.88169">
        <ele>158.6</ele>
        <time>2025-04-05T10:16:57Z</time>
      </trkpt>
      <trkpt lat="50.12278" lon="4.88173">
        <ele>158.6</ele>
        <time>2025-04-05T10:16:58Z</time>
      </trkpt>
      <trkpt lat="50.1228" lon="4.88178">
        <ele>158.8</ele>
        <time>2025-04-05T10:16:59Z</time>
      </trkpt>
      <trkpt lat="50.12281" lon="4.88182">
        <ele>159</ele>
        <time>2025-04-05T10:17:00Z</time>
      </trkpt>
      <trkpt lat="50.12283" lon="4.88186">
        <ele>159.2</ele>
        <time>2025-04-05T10:17:01Z</time>
      </trkpt>
      <trkpt lat="50.12286" lon="4.8819">
        <ele>159.4</ele>
        <time>2025-04-05T10:17:02Z</time>
      </trkpt>
      <trkpt lat="50.12288" lon="4.88193">
        <ele>159.6</ele>
        <time>2025-04-05T10:17:03Z</time>
      </trkpt>
      <trkpt lat="50.12291" lon="4.88197">
        <ele>159.8</ele>
        <time>2025-04-05T10:17:04Z</time>
      </trkpt>
      <trkpt lat="50.12294" lon="4.882">
        <ele>160.2</ele>
        <time>2025-04-05T10:17:05Z</time>
      </trkpt>
      <trkpt lat="50.12297" lon="4.88203">
        <ele>160.4</ele>
        <time>2025-04-05T10:17:06Z</time>
      </trkpt>
      <trkpt lat="50.12299" lon="4.88206">
        <ele>160.6</ele>
        <time>2025-04-05T10:17:07Z</time>
      </trkpt>
      <trkpt lat="50.12302" lon="4.88209">
        <ele>161</ele>
        <time>2025-04-05T10:17:08Z</time>
      </trkpt>
      <trkpt lat="50.12305" lon="4.88212">
        <ele>161.2</ele>
        <time>2025-04-05T10:17:09Z</time>
      </trkpt>
      <trkpt lat="50.12307" lon="4.88215">
        <ele>161.6</ele>
        <time>2025-04-05T10:17:10Z</time>
      </trkpt>
      <trkpt lat="50.1231" lon="4.88218">
        <ele>162</ele>
        <time>2025-04-05T10:17:11Z</time>
      </trkpt>
      <trkpt lat="50.12312" lon="4.88221">
        <ele>162.4</ele>
        <time>2025-04-05T10:17:12Z</time>
      </trkpt>
      <trkpt lat="50.12314" lon="4.88224">
        <ele>162.8</ele>
        <time>2025-04-05T10:17:13Z</time>
      </trkpt>
      <trkpt lat="50.12317" lon="4.88227">
        <ele>163</ele>
        <time>2025-04-05T10:17:14Z</time>
      </trkpt>
      <trkpt lat="50.12319" lon="4.8823">
        <ele>163.4</ele>
        <time>2025-04-05T10:17:15Z</time>
      </trkpt>
      <trkpt lat="50.1232" lon="4.88233">
        <ele>163.6</ele>
        <time>2025-04-05T10:17:16Z</time>
      </trkpt>
      <trkpt lat="50.12322" lon="4.88235">
        <ele>164</ele>
        <time>2025-04-05T10:17:17Z</time>
      </trkpt>
      <trkpt lat="50.12323" lon="4.88238">
        <ele>164.2</ele>
        <time>2025-04-05T10:17:18Z</time>
      </trkpt>
      <trkpt lat="50.12325" lon="4.88241">
        <ele>164.6</ele>
        <time>2025-04-05T10:17:19Z</time>
      </trkpt>
      <trkpt lat="50.12327" lon="4.88244">
        <ele>164.8</ele>
        <time>2025-04-05T10:17:20Z</time>
      </trkpt>
      <trkpt lat="50.12328" lon="4.88247">
        <ele>165.2</ele>
        <time>2025-04-05T10:17:21Z</time>
      </trkpt>
      <trkpt lat="50.12329" lon="4.88251">
        <ele>165.4</ele>
        <time>2025-04-05T10:17:22Z</time>
      </trkpt>
      <trkpt lat="50.12331" lon="4.88254">
        <ele>165.8</ele>
        <time>2025-04-05T10:17:23Z</time>
      </trkpt>
      <trkpt lat="50.12332" lon="4.88258">
        <ele>166</ele>
        <time>2025-04-05T10:17:24Z</time>
      </trkpt>
      <trkpt lat="50.12333" lon="4.88261">
        <ele>166.4</ele>
        <time>2025-04-05T10:17:25Z</time>
      </trkpt>
      <trkpt lat="50.12334" lon="4.88265">
        <ele>166.6</ele>
        <time>2025-04-05T10:17:26Z</time>
      </trkpt>
      <trkpt lat="50.12334" lon="4.88268">
        <ele>167</ele>
        <time>2025-04-05T10:17:27Z</time>
      </trkpt>
      <trkpt lat="50.12335" lon="4.88272">
        <ele>167.4</ele>
        <time>2025-04-05T10:17:28Z</time>
      </trkpt>
      <trkpt lat="50.12335" lon="4.88275">
        <ele>167.6</ele>
        <time>2025-04-05T10:17:29Z</time>
      </trkpt>
      <trkpt lat="50.12336" lon="4.88279">
        <ele>168</ele>
        <time>2025-04-05T10:17:30Z</time>
      </trkpt>
      <trkpt lat="50.12337" lon="4.88283">
        <ele>168.2</ele>
        <time>2025-04-05T10:17:31Z</time>
      </trkpt>
      <trkpt lat="50.12338" lon="4.88287">
        <ele>168.6</ele>
        <time>2025-04-05T10:17:32Z</time>
      </trkpt>
      <trkpt lat="50.12338" lon="4.88291">
        <ele>168.8</ele>
        <time>2025-04-05T10:17:33Z</time>
      </trkpt>
      <trkpt lat="50.12338" lon="4.88294">
        <ele>169.2</ele>
        <time>2025-04-05T10:17:34Z</time>
      </trkpt>
      <trkpt lat="50.12339" lon="4.88298">
        <ele>169.4</ele>
        <time>2025-04-05T10:17:35Z</time>
      </trkpt>
      <trkpt lat="50.12339" lon="4.88302">
        <ele>169.6</ele>
        <time>2025-04-05T10:17:36Z</time>
      </trkpt>
      <trkpt lat="50.12339" lon="4.88305">
        <ele>170</ele>
        <time>2025-04-05T10:17:37Z</time>
      </trkpt>
      <trkpt lat="50.12339" lon="4.88309">
        <ele>170.2</ele>
        <time>2025-04-05T10:17:38Z</time>
      </trkpt>
      <trkpt lat="50.12339" lon="4.88312">
        <ele>170.6</ele>
        <time>2025-04-05T10:17:39Z</time>
      </trkpt>
      <trkpt lat="50.12339" lon="4.88316">
        <ele>170.8</ele>
        <time>2025-04-05T10:17:40Z</time>
      </trkpt>
      <trkpt lat="50.12339" lon="4.8832">
        <ele>171</ele>
        <time>2025-04-05T10:17:41Z</time>
      </trkpt>
      <trkpt lat="50.12339" lon="4.88324">
        <ele>171.2</ele>
        <time>2025-04-05T10:17:42Z</time>
      </trkpt>
      <trkpt lat="50.12339" lon="4.88327">
        <ele>171.4</ele>
        <time>2025-04-05T10:17:43Z</time>
      </trkpt>
      <trkpt lat="50.12338" lon="4.88331">
        <ele>171.6</ele>
        <time>2025-04-05T10:17:44Z</time>
      </trkpt>
      <trkpt lat="50.12338" lon="4.88335">
        <ele>171.8</ele>
        <time>2025-04-05T10:17:45Z</time>
      </trkpt>
      <trkpt lat="50.12338" lon="4.88338">
        <ele>172</ele>
        <time>2025-04-05T10:17:46Z</time>
      </trkpt>
      <trkpt lat="50.12338" lon="4.88342">
        <ele>172.2</ele>
        <time>2025-04-05T10:17:47Z</time>
      </trkpt>
      <trkpt lat="50.12338" lon="4.88346">
        <ele>172.6</ele>
        <time>2025-04-05T10:17:48Z</time>
      </trkpt>
      <trkpt lat="50.12338" lon="4.8835">
        <ele>172.8</ele>
        <time>2025-04-05T10:17:49Z</time>
      </trkpt>
      <trkpt lat="50.12338" lon="4.88353">
        <ele>173</ele>
        <time>2025-04-05T10:17:50Z</time>
      </trkpt>
      <trkpt lat="50.12338" lon="4.88357">
        <ele>173.2</ele>
        <time>2025-04-05T10:17:51Z</time>
      </trkpt>
      <trkpt lat="50.12339" lon="4.8836">
        <ele>173.4</ele>
        <time>2025-04-05T10:17:52Z</time>
      </trkpt>
      <trkpt lat="50.12339" lon="4.88363">
        <ele>173.8</ele>
        <time>2025-04-05T10:17:53Z</time>
      </trkpt>
      <trkpt lat="50.12339" lon="4.88366">
        <ele>174</ele>
        <time>2025-04-05T10:17:54Z</time>
      </trkpt>
      <trkpt lat="50.12339" lon="4.88368">
        <ele>174.2</ele>
        <time>2025-04-05T10:17:55Z</time>
      </trkpt>
      <trkpt lat="50.12339" lon="4.88371">
        <ele>174.4</ele>
        <time>2025-04-05T10:17:56Z</time>
      </trkpt>
      <trkpt lat="50.12339" lon="4.88375">
        <ele>174.6</ele>
        <time>2025-04-05T10:17:57Z</time>
      </trkpt>
      <trkpt lat="50.12339" lon="4.88378">
        <ele>174.8</ele>
        <time>2025-04-05T10:17:58Z</time>
      </trkpt>
      <trkpt lat="50.12339" lon="4.88382">
        <ele>175</ele>
        <time>2025-04-05T10:17:59Z</time>
      </trkpt>
      <trkpt lat="50.1234" lon="4.88385">
        <ele>175.2</ele>
        <time>2025-04-05T10:18:00Z</time>
      </trkpt>
      <trkpt lat="50.1234" lon="4.88389">
        <ele>175.4</ele>
        <time>2025-04-05T10:18:01Z</time>
      </trkpt>
      <trkpt lat="50.1234" lon="4.88393">
        <ele>175.6</ele>
        <time>2025-04-05T10:18:02Z</time>
      </trkpt>
      <trkpt lat="50.1234" lon="4.88397">
        <ele>175.6</ele>
        <time>2025-04-05T10:18:03Z</time>
      </trkpt>
      <trkpt lat="50.12341" lon="4.88401">
        <ele>175.8</ele>
        <time>2025-04-05T10:18:04Z</time>
      </trkpt>
      <trkpt lat="50.12341" lon="4.88405">
        <ele>176</ele>
        <time>2025-04-05T10:18:05Z</time>
      </trkpt>
      <trkpt lat="50.12341" lon="4.88409">
        <ele>176.2</ele>
        <time>2025-04-05T10:18:06Z</time>
      </trkpt>
      <trkpt lat="50.12342" lon="4.88413">
        <ele>176.2</ele>
        <time>2025-04-05T10:18:07Z</time>
      </trkpt>
      <trkpt lat="50.12342" lon="4.88416">
        <ele>176.4</ele>
        <time>2025-04-05T10:18:08Z</time>
      </trkpt>
      <trkpt lat="50.12343" lon="4.88421">
        <ele>176.4</ele>
        <time>2025-04-05T10:18:09Z</time>
      </trkpt>
      <trkpt lat="50.12344" lon="4.88425">
        <ele>176.6</ele>
        <time>2025-04-05T10:18:10Z</time>
      </trkpt>
      <trkpt lat="50.12345" lon="4.88429">
        <ele>176.6</ele>
        <time>2025-04-05T10:18:11Z</time>
      </trkpt>
      <trkpt lat="50.12346" lon="4.88433">
        <ele>176.6</ele>
        <time>2025-04-05T10:18:12Z</time>
      </trkpt>
      <trkpt lat="50.12346" lon="4.88437">
        <ele>176.8</ele>
        <time>2025-04-05T10:18:13Z</time>
      </trkpt>
      <trkpt lat="50.12347" lon="4.88441">
        <ele>176.8</ele>
        <time>2025-04-05T10:18:14Z</time>
      </trkpt>
      <trkpt lat="50.12347" lon="4.88446">
        <ele>177</ele>
        <time>2025-04-05T10:18:15Z</time>
      </trkpt>
      <trkpt lat="50.12348" lon="4.8845">
        <ele>177</ele>
        <time>2025-04-05T10:18:16Z</time>
      </trkpt>
      <trkpt lat="50.12349" lon="4.88454">
        <ele>177</ele>
        <time>2025-04-05T10:18:17Z</time>
      </trkpt>
      <trkpt lat="50.12349" lon="4.88458">
        <ele>177</ele>
        <time>2025-04-05T10:18:18Z</time>
      </trkpt>
      <trkpt lat="50.12351" lon="4.88463">
        <ele>177.2</ele>
        <time>2025-04-05T10:18:19Z</time>
      </trkpt>
      <trkpt lat="50.12352" lon="4.88468">
        <ele>177.4</ele>
        <time>2025-04-05T10:18:20Z</time>
      </trkpt>
      <trkpt lat="50.12352" lon="4.88472">
        <ele>177.6</ele>
        <time>2025-04-05T10:18:21Z</time>
      </trkpt>
      <trkpt lat="50.12353" lon="4.88476">
        <ele>177.6</ele>
        <time>2025-04-05T10:18:22Z</time>
      </trkpt>
      <trkpt lat="50.12354" lon="4.8848">
        <ele>177.8</ele>
        <time>2025-04-05T10:18:23Z</time>
      </trkpt>
      <trkpt lat="50.12355" lon="4.88484">
        <ele>178</ele>
        <time>2025-04-05T10:18:24Z</time>
      </trkpt>
      <trkpt lat="50.12356" lon="4.88487">
        <ele>178</ele>
        <time>2025-04-05T10:18:25Z</time>
      </trkpt>
      <trkpt lat="50.12356" lon="4.8849">
        <ele>178.2</ele>
        <time>2025-04-05T10:18:26Z</time>
      </trkpt>
      <trkpt lat="50.12357" lon="4.88494">
        <ele>178.4</ele>
        <time>2025-04-05T10:18:27Z</time>
      </trkpt>
      <trkpt lat="50.12358" lon="4.88499">
        <ele>178.6</ele>
        <time>2025-04-05T10:18:28Z</time>
      </trkpt>
      <trkpt lat="50.12359" lon="4.88503">
        <ele>178.8</ele>
        <time>2025-04-05T10:18:29Z</time>
      </trkpt>
      <trkpt lat="50.12361" lon="4.88508">
        <ele>178.8</ele>
        <time>2025-04-05T10:18:30Z</time>
      </trkpt>
      <trkpt lat="50.12362" lon="4.88512">
        <ele>179</ele>
        <time>2025-04-05T10:18:31Z</time>
      </trkpt>
      <trkpt lat="50.12363" lon="4.88517">
        <ele>179.2</ele>
        <time>2025-04-05T10:18:32Z</time>
      </trkpt>
      <trkpt lat="50.12364" lon="4.8852">
        <ele>179.4</ele>
        <time>2025-04-05T10:18:33Z</time>
      </trkpt>
      <trkpt lat="50.12365" lon="4.88524">
        <ele>179.6</ele>
        <time>2025-04-05T10:18:34Z</time>
      </trkpt>
      <trkpt lat="50.12366" lon="4.88528">
        <ele>179.8</ele>
        <time>2025-04-05T10:18:35Z</time>
      </trkpt>
      <trkpt lat="50.12367" lon="4.88531">
        <ele>180</ele>
        <time>2025-04-05T10:18:36Z</time>
      </trkpt>
      <trkpt lat="50.12368" lon="4.88535">
        <ele>180.4</ele>
        <time>2025-04-05T10:18:37Z</time>
      </trkpt>
      <trkpt lat="50.12368" lon="4.88539">
        <ele>180.6</ele>
        <time>2025-04-05T10:18:38Z</time>
      </trkpt>
      <trkpt lat="50.12369" lon="4.88544">
        <ele>180.8</ele>
        <time>2025-04-05T10:18:39Z</time>
      </trkpt>
      <trkpt lat="50.1237" lon="4.88549">
        <ele>181</ele>
        <time>2025-04-05T10:18:40Z</time>
      </trkpt>
      <trkpt lat="50.1237" lon="4.88552">
        <ele>181.2</ele>
        <time>2025-04-05T10:18:41Z</time>
      </trkpt>
      <trkpt lat="50.12371" lon="4.88556">
        <ele>181.6</ele>
        <time>2025-04-05T10:18:42Z</time>
      </trkpt>
      <trkpt lat="50.12371" lon="4.8856">
        <ele>181.8</ele>
        <time>2025-04-05T10:18:43Z</time>
      </trkpt>
      <trkpt lat="50.12371" lon="4.88564">
        <ele>182</ele>
        <time>2025-04-05T10:18:44Z</time>
      </trkpt>
      <trkpt lat="50.12372" lon="4.88569">
        <ele>182.2</ele>
        <time>2025-04-05T10:18:45Z</time>
      </trkpt>
      <trkpt lat="50.12372" lon="4.88573">
        <ele>182.6</ele>
        <time>2025-04-05T10:18:46Z</time>
      </trkpt>
      <trkpt lat="50.12372" lon="4.88577">
        <ele>182.8</ele>
        <time>2025-04-05T10:18:47Z</time>
      </trkpt>
      <trkpt lat="50.12372" lon="4.88581">
        <ele>183</ele>
        <time>2025-04-05T10:18:48Z</time>
      </trkpt>
      <trkpt lat="50.12372" lon="4.88585">
        <ele>183.4</ele>
        <time>2025-04-05T10:18:49Z</time>
      </trkpt>
      <trkpt lat="50.12371" lon="4.88588">
        <ele>183.6</ele>
        <time>2025-04-05T10:18:50Z</time>
      </trkpt>
      <trkpt lat="50.12371" lon="4.88591">
        <ele>183.8</ele>
        <time>2025-04-05T10:18:51Z</time>
      </trkpt>
      <trkpt lat="50.12369" lon="4.88594">
        <ele>184.2</ele>
        <time>2025-04-05T10:18:52Z</time>
      </trkpt>
      <trkpt lat="50.12367" lon="4.88597">
        <ele>184.4</ele>
        <time>2025-04-05T10:18:53Z</time>
      </trkpt>
      <trkpt lat="50.12366" lon="4.88601">
        <ele>184.8</ele>
        <time>2025-04-05T10:18:54Z</time>
      </trkpt>
      <trkpt lat="50.12365" lon="4.88605">
        <ele>185</ele>
        <time>2025-04-05T10:18:55Z</time>
      </trkpt>
      <trkpt lat="50.12363" lon="4.88609">
        <ele>185.2</ele>
        <time>2025-04-05T10:18:56Z</time>
      </trkpt>
      <trkpt lat="50.12362" lon="4.88614">
        <ele>185.4</ele>
        <time>2025-04-05T10:18:57Z</time>
      </trkpt>
      <trkpt lat="50.12361" lon="4.88618">
        <ele>185.8</ele>
        <time>2025-04-05T10:18:58Z</time>
      </trkpt>
      <trkpt lat="50.1236" lon="4.88622">
        <ele>186</ele>
        <time>2025-04-05T10:18:59Z</time>
      </trkpt>
      <trkpt lat="50.12359" lon="4.88626">
        <ele>186.2</ele>
        <time>2025-04-05T10:19:00Z</time>
      </trkpt>
      <trkpt lat="50.12357" lon="4.88631">
        <ele>186.6</ele>
        <time>2025-04-05T10:19:01Z</time>
      </trkpt>
      <trkpt lat="50.12355" lon="4.88637">
        <ele>186.8</ele>
        <time>2025-04-05T10:19:02Z</time>
      </trkpt>
      <trkpt lat="50.12352" lon="4.88643">
        <ele>187</ele>
        <time>2025-04-05T10:19:03Z</time>
      </trkpt>
      <trkpt lat="50.1235" lon="4.88648">
        <ele>187.2</ele>
        <time>2025-04-05T10:19:04Z</time>
      </trkpt>
      <trkpt lat="50.12349" lon="4.88652">
        <ele>187.6</ele>
        <time>2025-04-05T10:19:05Z</time>
      </trkpt>
      <trkpt lat="50.12347" lon="4.88657">
        <ele>187.8</ele>
        <time>2025-04-05T10:19:06Z</time>
      </trkpt>
      <trkpt lat="50.12346" lon="4.88661">
        <ele>188</ele>
        <time>2025-04-05T10:19:07Z</time>
      </trkpt>
      <trkpt lat="50.12346" lon="4.88664">
        <ele>188.2</ele>
        <time>2025-04-05T10:19:08Z</time>
      </trkpt>
      <trkpt lat="50.12344" lon="4.88668">
        <ele>188.6</ele>
        <time>2025-04-05T10:19:09Z</time>
      </trkpt>
      <trkpt lat="50.12343" lon="4.88673">
        <ele>188.8</ele>
        <time>2025-04-05T10:19:10Z</time>
      </trkpt>
      <trkpt lat="50.12341" lon="4.88676">
        <ele>189</ele>
        <time>2025-04-05T10:19:11Z</time>
      </trkpt>
      <trkpt lat="50.12339" lon="4.88679">
        <ele>189.4</ele>
        <time>2025-04-05T10:19:12Z</time>
      </trkpt>
      <trkpt lat="50.12337" lon="4.88681">
        <ele>189.6</ele>
        <time>2025-04-05T10:19:13Z</time>
      </trkpt>
      <trkpt lat="50.12336" lon="4.88684">
        <ele>189.8</ele>
        <time>2025-04-05T10:19:14Z</time>
      </trkpt>
      <trkpt lat="50.12334" lon="4.88687">
        <ele>190</ele>
        <time>2025-04-05T10:19:15Z</time>
      </trkpt>
      <trkpt lat="50.12333" lon="4.88689">
        <ele>190.2</ele>
        <time>2025-04-05T10:19:16Z</time>
      </trkpt>
      <trkpt lat="50.12332" lon="4.88691">
        <ele>190.4</ele>
        <time>2025-04-05T10:19:17Z</time>
      </trkpt>
      <trkpt lat="50.12331" lon="4.88694">
        <ele>190.6</ele>
        <time>2025-04-05T10:19:18Z</time>
      </trkpt>
      <trkpt lat="50.1233" lon="4.88697">
        <ele>190.8</ele>
        <time>2025-04-05T10:19:19Z</time>
      </trkpt>
      <trkpt lat="50.12328" lon="4.887">
        <ele>191</ele>
        <time>2025-04-05T10:19:20Z</time>
      </trkpt>
      <trkpt lat="50.12326" lon="4.88704">
        <ele>191.2</ele>
        <time>2025-04-05T10:19:21Z</time>
      </trkpt>
      <trkpt lat="50.12325" lon="4.88707">
        <ele>191.4</ele>
        <time>2025-04-05T10:19:22Z</time>
      </trkpt>
      <trkpt lat="50.12323" lon="4.88711">
        <ele>191.4</ele>
        <time>2025-04-05T10:19:23Z</time>
      </trkpt>
      <trkpt lat="50.12322" lon="4.88714">
        <ele>191.6</ele>
        <time>2025-04-05T10:19:24Z</time>
      </trkpt>
      <trkpt lat="50.1232" lon="4.88717">
        <ele>191.8</ele>
        <time>2025-04-05T10:19:25Z</time>
      </trkpt>
      <trkpt lat="50.12318" lon="4.88719">
        <ele>192</ele>
        <time>2025-04-05T10:19:26Z</time>
      </trkpt>
      <trkpt lat="50.12316" lon="4.88723">
        <ele>192.2</ele>
        <time>2025-04-05T10:19:27Z</time>
      </trkpt>
      <trkpt lat="50.12314" lon="4.88727">
        <ele>192.4</ele>
        <time>2025-04-05T10:19:28Z</time>
      </trkpt>
      <trkpt lat="50.12312" lon="4.8873">
        <ele>192.6</ele>
        <time>2025-04-05T10:19:29Z</time>
      </trkpt>
      <trkpt lat="50.1231" lon="4.88734">
        <ele>192.8</ele>
        <time>2025-04-05T10:19:30Z</time>
      </trkpt>
      <trkpt lat="50.12309" lon="4.88738">
        <ele>193</ele>
        <time>2025-04-05T10:19:31Z</time>
      </trkpt>
      <trkpt lat="50.12308" lon="4.88742">
        <ele>193.2</ele>
        <time>2025-04-05T10:19:32Z</time>
      </trkpt>
      <trkpt lat="50.12307" lon="4.88746">
        <ele>193.4</ele>
        <time>2025-04-05T10:19:33Z</time>
      </trkpt>
      <trkpt lat="50.12306" lon="4.8875">
        <ele>193.6</ele>
        <time>2025-04-05T10:19:34Z</time>
      </trkpt>
      <trkpt lat="50.12306" lon="4.88754">
        <ele>193.8</ele>
        <time>2025-04-05T10:19:35Z</time>
      </trkpt>
      <trkpt lat="50.12305" lon="4.88758">
        <ele>194</ele>
        <time>2025-04-05T10:19:36Z</time>
      </trkpt>
      <trkpt lat="50.12304" lon="4.88762">
        <ele>194.2</ele>
        <time>2025-04-05T10:19:37Z</time>
      </trkpt>
      <trkpt lat="50.12304" lon="4.88766">
        <ele>194.4</ele>
        <time>2025-04-05T10:19:38Z</time>
      </trkpt>
      <trkpt lat="50.12303" lon="4.8877">
        <ele>194.6</ele>
        <time>2025-04-05T10:19:39Z</time>
      </trkpt>
      <trkpt lat="50.12302" lon="4.88775">
        <ele>194.6</ele>
        <time>2025-04-05T10:19:40Z</time>
      </trkpt>
      <trkpt lat="50.12301" lon="4.8878">
        <ele>194.8</ele>
        <time>2025-04-05T10:19:41Z</time>
      </trkpt>
      <trkpt lat="50.12301" lon="4.88784">
        <ele>195</ele>
        <time>2025-04-05T10:19:42Z</time>
      </trkpt>
      <trkpt lat="50.12301" lon="4.88789">
        <ele>195.2</ele>
        <time>2025-04-05T10:19:43Z</time>
      </trkpt>
      <trkpt lat="50.12301" lon="4.88793">
        <ele>195.2</ele>
        <time>2025-04-05T10:19:44Z</time>
      </trkpt>
      <trkpt lat="50.12301" lon="4.88798">
        <ele>195.4</ele>
        <time>2025-04-05T10:19:45Z</time>
      </trkpt>
      <trkpt lat="50.123" lon="4.88803">
        <ele>195.6</ele>
        <time>2025-04-05T10:19:46Z</time>
      </trkpt>
      <trkpt lat="50.123" lon="4.88808">
        <ele>195.6</ele>
        <time>2025-04-05T10:19:47Z</time>
      </trkpt>
      <trkpt lat="50.12299" lon="4.88812">
        <ele>195.8</ele>
        <time>2025-04-05T10:19:48Z</time>
      </trkpt>
      <trkpt lat="50.12299" lon="4.88817">
        <ele>196</ele>
        <time>2025-04-05T10:19:49Z</time>
      </trkpt>
      <trkpt lat="50.12299" lon="4.88822">
        <ele>196.2</ele>
        <time>2025-04-05T10:19:50Z</time>
      </trkpt>
      <trkpt lat="50.12299" lon="4.88827">
        <ele>196.2</ele>
        <time>2025-04-05T10:19:51Z</time>
      </trkpt>
      <trkpt lat="50.123" lon="4.88832">
        <ele>196.4</ele>
        <time>2025-04-05T10:19:52Z</time>
      </trkpt>
      <trkpt lat="50.12301" lon="4.88837">
        <ele>196.6</ele>
        <time>2025-04-05T10:19:53Z</time>
      </trkpt>
      <trkpt lat="50.12301" lon="4.88842">
        <ele>196.8</ele>
        <time>2025-04-05T10:19:54Z</time>
      </trkpt>
      <trkpt lat="50.12302" lon="4.88846">
        <ele>197</ele>
        <time>2025-04-05T10:19:55Z</time>
      </trkpt>
      <trkpt lat="50.12303" lon="4.88851">
        <ele>197.2</ele>
        <time>2025-04-05T10:19:56Z</time>
      </trkpt>
      <trkpt lat="50.12304" lon="4.88855">
        <ele>197.4</ele>
        <time>2025-04-05T10:19:57Z</time>
      </trkpt>
      <trkpt lat="50.12304" lon="4.88859">
        <ele>197.6</ele>
        <time>2025-04-05T10:19:58Z</time>
      </trkpt>
      <trkpt lat="50.12306" lon="4.88863">
        <ele>197.6</ele>
        <time>2025-04-05T10:19:59Z</time>
      </trkpt>
      <trkpt lat="50.12306" lon="4.88867">
        <ele>197.8</ele>
        <time>2025-04-05T10:20:00Z</time>
      </trkpt>
      <trkpt lat="50.12307" lon="4.88871">
        <ele>198</ele>
        <time>2025-04-05T10:20:01Z</time>
      </trkpt>
      <trkpt lat="50.12308" lon="4.88875">
        <ele>198.2</ele>
        <time>2025-04-05T10:20:02Z</time>
      </trkpt>
      <trkpt lat="50.12309" lon="4.8888">
        <ele>198.4</ele>
        <time>2025-04-05T10:20:03Z</time>
      </trkpt>
      <trkpt lat="50.1231" lon="4.88883">
        <ele>198.6</ele>
        <time>2025-04-05T10:20:04Z</time>
      </trkpt>
      <trkpt lat="50.12311" lon="4.88887">
        <ele>198.6</ele>
        <time>2025-04-05T10:20:05Z</time>
      </trkpt>
      <trkpt lat="50.12312" lon="4.88892">
        <ele>198.8</ele>
        <time>2025-04-05T10:20:06Z</time>
      </trkpt>
      <trkpt lat="50.12313" lon="4.88896">
        <ele>199</ele>
        <time>2025-04-05T10:20:07Z</time>
      </trkpt>
      <trkpt lat="50.12314" lon="4.889">
        <ele>199.2</ele>
        <time>2025-04-05T10:20:08Z</time>
      </trkpt>
      <trkpt lat="50.12315" lon="4.88904">
        <ele>199.4</ele>
        <time>2025-04-05T10:20:09Z</time>
      </trkpt>
      <trkpt lat="50.12316" lon="4.88908">
        <ele>199.6</ele>
        <time>2025-04-05T10:20:10Z</time>
      </trkpt>
      <trkpt lat="50.12317" lon="4.88912">
        <ele>199.8</ele>
        <time>2025-04-05T10:20:11Z</time>
      </trkpt>
      <trkpt lat="50.12318" lon="4.88916">
        <ele>200</ele>
        <time>2025-04-05T10:20:12Z</time>
      </trkpt>
      <trkpt lat="50.1232" lon="4.8892">
        <ele>200</ele>
        <time>2025-04-05T10:20:13Z</time>
      </trkpt>
      <trkpt lat="50.12321" lon="4.88924">
        <ele>200.2</ele>
        <time>2025-04-05T10:20:14Z</time>
      </trkpt>
      <trkpt lat="50.12322" lon="4.88928">
        <ele>200.4</ele>
        <time>2025-04-05T10:20:15Z</time>
      </trkpt>
      <trkpt lat="50.12322" lon="4.88932">
        <ele>200.6</ele>
        <time>2025-04-05T10:20:16Z</time>
      </trkpt>
      <trkpt lat="50.12323" lon="4.88936">
        <ele>200.8</ele>
        <time>2025-04-05T10:20:17Z</time>
      </trkpt>
      <trkpt lat="50.12324" lon="4.8894">
        <ele>201</ele>
        <time>2025-04-05T10:20:18Z</time>
      </trkpt>
      <trkpt lat="50.12325" lon="4.88944">
        <ele>201.2</ele>
        <time>2025-04-05T10:20:19Z</time>
      </trkpt>
      <trkpt lat="50.12326" lon="4.88948">
        <ele>201.4</ele>
        <time>2025-04-05T10:20:20Z</time>
      </trkpt>
      <trkpt lat="50.12328" lon="4.88953">
        <ele>201.6</ele>
        <time>2025-04-05T10:20:21Z</time>
      </trkpt>
      <trkpt lat="50.12329" lon="4.88957">
        <ele>201.8</ele>
        <time>2025-04-05T10:20:22Z</time>
      </trkpt>
      <trkpt lat="50.12331" lon="4.8896">
        <ele>201.8</ele>
        <time>2025-04-05T10:20:23Z</time>
      </trkpt>
      <trkpt lat="50.12332" lon="4.88964">
        <ele>202</ele>
        <time>2025-04-05T10:20:24Z</time>
      </trkpt>
      <trkpt lat="50.12334" lon="4.88966">
        <ele>202</ele>
        <time>2025-04-05T10:20:25Z</time>
      </trkpt>
      <trkpt lat="50.12336" lon="4.88969">
        <ele>202.2</ele>
        <time>2025-04-05T10:20:26Z</time>
      </trkpt>
      <trkpt lat="50.12338" lon="4.88971">
        <ele>202.4</ele>
        <time>2025-04-05T10:20:27Z</time>
      </trkpt>
      <trkpt lat="50.1234" lon="4.88974">
        <ele>202.4</ele>
        <time>2025-04-05T10:20:28Z</time>
      </trkpt>
      <trkpt lat="50.12342" lon="4.88976">
        <ele>202.4</ele>
        <time>2025-04-05T10:20:29Z</time>
      </trkpt>
      <trkpt lat="50.12345" lon="4.88979">
        <ele>202.4</ele>
        <time>2025-04-05T10:20:30Z</time>
      </trkpt>
      <trkpt lat="50.12347" lon="4.88983">
        <ele>202.2</ele>
        <time>2025-04-05T10:20:31Z</time>
      </trkpt>
      <trkpt lat="50.12351" lon="4.88987">
        <ele>202.2</ele>
        <time>2025-04-05T10:20:32Z</time>
      </trkpt>
      <trkpt lat="50.12354" lon="4.88992">
        <ele>202.2</ele>
        <time>2025-04-05T10:20:33Z</time>
      </trkpt>
      <trkpt lat="50.12357" lon="4.88997">
        <ele>202.2</ele>
        <time>2025-04-05T10:20:34Z</time>
      </trkpt>
      <trkpt lat="50.12361" lon="4.89003">
        <ele>202</ele>
        <time>2025-04-05T10:20:35Z</time>
      </trkpt>
      <trkpt lat="50.12365" lon="4.89009">
        <ele>202</ele>
        <time>2025-04-05T10:20:36Z</time>
      </trkpt>
      <trkpt lat="50.12368" lon="4.89016">
        <ele>202</ele>
        <time>2025-04-05T10:20:37Z</time>
      </trkpt>
      <trkpt lat="50.1237" lon="4.89023">
        <ele>202</ele>
        <time>2025-04-05T10:20:38Z</time>
      </trkpt>
      <trkpt lat="50.12372" lon="4.8903">
        <ele>201.8</ele>
        <time>2025-04-05T10:20:39Z</time>
      </trkpt>
      <trkpt lat="50.12373" lon="4.89036">
        <ele>201.8</ele>
        <time>2025-04-05T10:20:40Z</time>
      </trkpt>
      <trkpt lat="50.12375" lon="4.89043">
        <ele>201.8</ele>
        <time>2025-04-05T10:20:41Z</time>
      </trkpt>
      <trkpt lat="50.12376" lon="4.89051">
        <ele>201.8</ele>
        <time>2025-04-05T10:20:42Z</time>
      </trkpt>
      <trkpt lat="50.12376" lon="4.89057">
        <ele>201.8</ele>
        <time>2025-04-05T10:20:43Z</time>
      </trkpt>
      <trkpt lat="50.12378" lon="4.89064">
        <ele>201.8</ele>
        <time>2025-04-05T10:20:44Z</time>
      </trkpt>
      <trkpt lat="50.12379" lon="4.89069">
        <ele>202</ele>
        <time>2025-04-05T10:20:45Z</time>
      </trkpt>
      <trkpt lat="50.1238" lon="4.89075">
        <ele>202</ele>
        <time>2025-04-05T10:20:46Z</time>
      </trkpt>
      <trkpt lat="50.12382" lon="4.89081">
        <ele>202.2</ele>
        <time>2025-04-05T10:20:47Z</time>
      </trkpt>
      <trkpt lat="50.12383" lon="4.89087">
        <ele>202.2</ele>
        <time>2025-04-05T10:20:48Z</time>
      </trkpt>
      <trkpt lat="50.12385" lon="4.89093">
        <ele>202.4</ele>
        <time>2025-04-05T10:20:49Z</time>
      </trkpt>
      <trkpt lat="50.12387" lon="4.89098">
        <ele>202.6</ele>
        <time>2025-04-05T10:20:50Z</time>
      </trkpt>
      <trkpt lat="50.12389" lon="4.89102">
        <ele>202.8</ele>
        <time>2025-04-05T10:20:51Z</time>
      </trkpt>
      <trkpt lat="50.12392" lon="4.89106">
        <ele>203</ele>
        <time>2025-04-05T10:20:52Z</time>
      </trkpt>
      <trkpt lat="50.12394" lon="4.89109">
        <ele>203.2</ele>
        <time>2025-04-05T10:20:53Z</time>
      </trkpt>
      <trkpt lat="50.12396" lon="4.89112">
        <ele>203.4</ele>
        <time>2025-04-05T10:20:54Z</time>
      </trkpt>
      <trkpt lat="50.12397" lon="4.89115">
        <ele>203.6</ele>
        <time>2025-04-05T10:20:55Z</time>
      </trkpt>
      <trkpt lat="50.12398" lon="4.89117">
        <ele>203.8</ele>
        <time>2025-04-05T10:20:56Z</time>
      </trkpt>
      <trkpt lat="50.12399" lon="4.8912">
        <ele>204</ele>
        <time>2025-04-05T10:20:57Z</time>
      </trkpt>
      <trkpt lat="50.12401" lon="4.89124">
        <ele>204</ele>
        <time>2025-04-05T10:20:58Z</time>
      </trkpt>
      <trkpt lat="50.12404" lon="4.89128">
        <ele>204</ele>
        <time>2025-04-05T10:20:59Z</time>
      </trkpt>
      <trkpt lat="50.12405" lon="4.89132">
        <ele>204</ele>
        <time>2025-04-05T10:21:00Z</time>
      </trkpt>
      <trkpt lat="50.12408" lon="4.89137">
        <ele>204</ele>
        <time>2025-04-05T10:21:01Z</time>
      </trkpt>
      <trkpt lat="50.1241" lon="4.89143">
        <ele>203.8</ele>
        <time>2025-04-05T10:21:02Z</time>
      </trkpt>
      <trkpt lat="50.12413" lon="4.8915">
        <ele>203.4</ele>
        <time>2025-04-05T10:21:03Z</time>
      </trkpt>
      <trkpt lat="50.12416" lon="4.89157">
        <ele>203.2</ele>
        <time>2025-04-05T10:21:04Z</time>
      </trkpt>
      <trkpt lat="50.12419" lon="4.89164">
        <ele>202.6</ele>
        <time>2025-04-05T10:21:05Z</time>
      </trkpt>
      <trkpt lat="50.12423" lon="4.89172">
        <ele>202.2</ele>
        <time>2025-04-05T10:21:06Z</time>
      </trkpt>
      <trkpt lat="50.12425" lon="4.89179">
        <ele>201.6</ele>
        <time>2025-04-05T10:21:07Z</time>
      </trkpt>
      <trkpt lat="50.12426" lon="4.89189">
        <ele>201.2</ele>
        <time>2025-04-05T10:21:08Z</time>
      </trkpt>
      <trkpt lat="50.12427" lon="4.89199">
        <ele>200.6</ele>
        <time>2025-04-05T10:21:09Z</time>
      </trkpt>
      <trkpt lat="50.12426" lon="4.89209">
        <ele>200</ele>
        <time>2025-04-05T10:21:10Z</time>
      </trkpt>
      <trkpt lat="50.12427" lon="4.89221">
        <ele>199.4</ele>
        <time>2025-04-05T10:21:11Z</time>
      </trkpt>
      <trkpt lat="50.12427" lon="4.89232">
        <ele>198.8</ele>
        <time>2025-04-05T10:21:12Z</time>
      </trkpt>
      <trkpt lat="50.12428" lon="4.89244">
        <ele>198.2</ele>
        <time>2025-04-05T10:21:13Z</time>
      </trkpt>
      <trkpt lat="50.12428" lon="4.89256">
        <ele>197.4</ele>
        <time>2025-04-05T10:21:14Z</time>
      </trkpt>
      <trkpt lat="50.12429" lon="4.89268">
        <ele>196.8</ele>
        <time>2025-04-05T10:21:15Z</time>
      </trkpt>
      <trkpt lat="50.12429" lon="4.89279">
        <ele>196</ele>
        <time>2025-04-05T10:21:16Z</time>
      </trkpt>
      <trkpt lat="50.12429" lon="4.8929">
        <ele>195.4</ele>
        <time>2025-04-05T10:21:17Z</time>
      </trkpt>
      <trkpt lat="50.12429" lon="4.89303">
        <ele>194.8</ele>
        <time>2025-04-05T10:21:18Z</time>
      </trkpt>
      <trkpt lat="50.1243" lon="4.89315">
        <ele>194.2</ele>
        <time>2025-04-05T10:21:19Z</time>
      </trkpt>
      <trkpt lat="50.1243" lon="4.89326">
        <ele>193.6</ele>
        <time>2025-04-05T10:21:20Z</time>
      </trkpt>
      <trkpt lat="50.1243" lon="4.89337">
        <ele>192.8</ele>
        <time>2025-04-05T10:21:21Z</time>
      </trkpt>
      <trkpt lat="50.1243" lon="4.89347">
        <ele>192</ele>
        <time>2025-04-05T10:21:22Z</time>
      </trkpt>
      <trkpt lat="50.12431" lon="4.89358">
        <ele>191.4</ele>
        <time>2025-04-05T10:21:23Z</time>
      </trkpt>
      <trkpt lat="50.12431" lon="4.89368">
        <ele>190.8</ele>
        <time>2025-04-05T10:21:24Z</time>
      </trkpt>
      <trkpt lat="50.12431" lon="4.89379">
        <ele>190</ele>
        <time>2025-04-05T10:21:25Z</time>
      </trkpt>
      <trkpt lat="50.12432" lon="4.8939">
        <ele>189.2</ele>
        <time>2025-04-05T10:21:26Z</time>
      </trkpt>
      <trkpt lat="50.12432" lon="4.894">
        <ele>188.6</ele>
        <time>2025-04-05T10:21:27Z</time>
      </trkpt>
      <trkpt lat="50.12433" lon="4.8941">
        <ele>187.8</ele>
        <time>2025-04-05T10:21:28Z</time>
      </trkpt>
      <trkpt lat="50.12434" lon="4.8942">
        <ele>187</ele>
        <time>2025-04-05T10:21:29Z</time>
      </trkpt>
      <trkpt lat="50.12436" lon="4.89429">
        <ele>186.2</ele>
        <time>2025-04-05T10:21:30Z</time>
      </trkpt>
      <trkpt lat="50.12437" lon="4.89438">
        <ele>185.4</ele>
        <time>2025-04-05T10:21:31Z</time>
      </trkpt>
      <trkpt lat="50.12441" lon="4.89446">
        <ele>184.4</ele>
        <time>2025-04-05T10:21:32Z</time>
      </trkpt>
      <trkpt lat="50.12444" lon="4.89454">
        <ele>183.4</ele>
        <time>2025-04-05T10:21:33Z</time>
      </trkpt>
      <trkpt lat="50.12448" lon="4.89461">
        <ele>182.6</ele>
        <time>2025-04-05T10:21:34Z</time>
      </trkpt>
      <trkpt lat="50.12452" lon="4.89468">
        <ele>181.6</ele>
        <time>2025-04-05T10:21:35Z</time>
      </trkpt>
      <trkpt lat="50.12457" lon="4.89474">
        <ele>180.6</ele>
        <time>2025-04-05T10:21:36Z</time>
      </trkpt>
      <trkpt lat="50.12461" lon="4.8948">
        <ele>179.8</ele>
        <time>2025-04-05T10:21:37Z</time>
      </trkpt>
      <trkpt lat="50.12465" lon="4.89486">
        <ele>179</ele>
        <time>2025-04-05T10:21:38Z</time>
      </trkpt>
      <trkpt lat="50.12469" lon="4.8949">
        <ele>178.2</ele>
        <time>2025-04-05T10:21:39Z</time>
      </trkpt>
      <trkpt lat="50.12473" lon="4.89495">
        <ele>177.4</ele>
        <time>2025-04-05T10:21:40Z</time>
      </trkpt>
      <trkpt lat="50.12476" lon="4.895">
        <ele>176.8</ele>
        <time>2025-04-05T10:21:41Z</time>
      </trkpt>
      <trkpt lat="50.12479" lon="4.89503">
        <ele>176.2</ele>
        <time>2025-04-05T10:21:42Z</time>
      </trkpt>
      <trkpt lat="50.12482" lon="4.89507">
        <ele>175.4</ele>
        <time>2025-04-05T10:21:43Z</time>
      </trkpt>
      <trkpt lat="50.12484" lon="4.89511">
        <ele>174.8</ele>
        <time>2025-04-05T10:21:44Z</time>
      </trkpt>
      <trkpt lat="50.12487" lon="4.89513">
        <ele>174.4</ele>
        <time>2025-04-05T10:21:45Z</time>
      </trkpt>
      <trkpt lat="50.12489" lon="4.89516">
        <ele>173.8</ele>
        <time>2025-04-05T10:21:46Z</time>
      </trkpt>
      <trkpt lat="50.12492" lon="4.8952">
        <ele>173.4</ele>
        <time>2025-04-05T10:21:47Z</time>
      </trkpt>
      <trkpt lat="50.12495" lon="4.89523">
        <ele>172.8</ele>
        <time>2025-04-05T10:21:48Z</time>
      </trkpt>
      <trkpt lat="50.12498" lon="4.89524">
        <ele>172.4</ele>
        <time>2025-04-05T10:21:49Z</time>
      </trkpt>
      <trkpt lat="50.12501" lon="4.89525">
        <ele>172</ele>
        <time>2025-04-05T10:21:50Z</time>
      </trkpt>
      <trkpt lat="50.12503" lon="4.89525">
        <ele>171.8</ele>
        <time>2025-04-05T10:21:51Z</time>
      </trkpt>
      <trkpt lat="50.12504" lon="4.89524">
        <ele>171.6</ele>
        <time>2025-04-05T10:21:52Z</time>
      </trkpt>
      <trkpt lat="50.12506" lon="4.89522">
        <ele>171</ele>
        <time>2025-04-05T10:21:58Z</time>
      </trkpt>
      <trkpt lat="50.12508" lon="4.89521">
        <ele>170.8</ele>
        <time>2025-04-05T10:21:59Z</time>
      </trkpt>
      <trkpt lat="50.1251" lon="4.89519">
        <ele>170.8</ele>
        <time>2025-04-05T10:22:00Z</time>
      </trkpt>
      <trkpt lat="50.12512" lon="4.89517">
        <ele>170.8</ele>
        <time>2025-04-05T10:22:01Z</time>
      </trkpt>
      <trkpt lat="50.12515" lon="4.89514">
        <ele>170.6</ele>
        <time>2025-04-05T10:22:02Z</time>
      </trkpt>
      <trkpt lat="50.12518" lon="4.89511">
        <ele>170.4</ele>
        <time>2025-04-05T10:22:03Z</time>
      </trkpt>
      <trkpt lat="50.12522" lon="4.89509">
        <ele>170.2</ele>
        <time>2025-04-05T10:22:04Z</time>
      </trkpt>
      <trkpt lat="50.12526" lon="4.89507">
        <ele>170</ele>
        <time>2025-04-05T10:22:05Z</time>
      </trkpt>
      <trkpt lat="50.12531" lon="4.89505">
        <ele>169.6</ele>
        <time>2025-04-05T10:22:06Z</time>
      </trkpt>
      <trkpt lat="50.12535" lon="4.89503">
        <ele>169.4</ele>
        <time>2025-04-05T10:22:07Z</time>
      </trkpt>
      <trkpt lat="50.1254" lon="4.89502">
        <ele>169</ele>
        <time>2025-04-05T10:22:08Z</time>
      </trkpt>
      <trkpt lat="50.12546" lon="4.89501">
        <ele>168.6</ele>
        <time>2025-04-05T10:22:09Z</time>
      </trkpt>
      <trkpt lat="50.12552" lon="4.89501">
        <ele>168.2</ele>
        <time>2025-04-05T10:22:10Z</time>
      </trkpt>
      <trkpt lat="50.12558" lon="4.89502">
        <ele>167.8</ele>
        <time>2025-04-05T10:22:11Z</time>
      </trkpt>
      <trkpt lat="50.12563" lon="4.89504">
        <ele>167.4</ele>
        <time>2025-04-05T10:22:12Z</time>
      </trkpt>
      <trkpt lat="50.12571" lon="4.89508">
        <ele>166.8</ele>
        <time>2025-04-05T10:22:13Z</time>
      </trkpt>
      <trkpt lat="50.12577" lon="4.89512">
        <ele>166.2</ele>
        <time>2025-04-05T10:22:14Z</time>
      </trkpt>
      <trkpt lat="50.12584" lon="4.89515">
        <ele>165.8</ele>
        <time>2025-04-05T10:22:15Z</time>
      </trkpt>
      <trkpt lat="50.12592" lon="4.89519">
        <ele>165.2</ele>
        <time>2025-04-05T10:22:16Z</time>
      </trkpt>
      <trkpt lat="50.12597" lon="4.89523">
        <ele>164.6</ele>
        <time>2025-04-05T10:22:17Z</time>
      </trkpt>
      <trkpt lat="50.12605" lon="4.89527">
        <ele>164</ele>
        <time>2025-04-05T10:22:18Z</time>
      </trkpt>
      <trkpt lat="50.12612" lon="4.89531">
        <ele>163.4</ele>
        <time>2025-04-05T10:22:19Z</time>
      </trkpt>
      <trkpt lat="50.12619" lon="4.89534">
        <ele>163</ele>
        <time>2025-04-05T10:22:20Z</time>
      </trkpt>
      <trkpt lat="50.12626" lon="4.89538">
        <ele>162.4</ele>
        <time>2025-04-05T10:22:21Z</time>
      </trkpt>
      <trkpt lat="50.12634" lon="4.89541">
        <ele>161.8</ele>
        <time>2025-04-05T10:22:22Z</time>
      </trkpt>
      <trkpt lat="50.12641" lon="4.89545">
        <ele>161.4</ele>
        <time>2025-04-05T10:22:23Z</time>
      </trkpt>
      <trkpt lat="50.12649" lon="4.89549">
        <ele>161</ele>
        <time>2025-04-05T10:22:24Z</time>
      </trkpt>
      <trkpt lat="50.12656" lon="4.89553">
        <ele>160.4</ele>
        <time>2025-04-05T10:22:25Z</time>
      </trkpt>
      <trkpt lat="50.12664" lon="4.89557">
        <ele>160</ele>
        <time>2025-04-05T10:22:26Z</time>
      </trkpt>
      <trkpt lat="50.12672" lon="4.89561">
        <ele>159.6</ele>
        <time>2025-04-05T10:22:27Z</time>
      </trkpt>
      <trkpt lat="50.12678" lon="4.89564">
        <ele>159.2</ele>
        <time>2025-04-05T10:22:28Z</time>
      </trkpt>
      <trkpt lat="50.12684" lon="4.89567">
        <ele>158.8</ele>
        <time>2025-04-05T10:22:29Z</time>
      </trkpt>
      <trkpt lat="50.12692" lon="4.89571">
        <ele>158.6</ele>
        <time>2025-04-05T10:22:30Z</time>
      </trkpt>
      <trkpt lat="50.12699" lon="4.89575">
        <ele>158.2</ele>
        <time>2025-04-05T10:22:31Z</time>
      </trkpt>
      <trkpt lat="50.12705" lon="4.89578">
        <ele>157.8</ele>
        <time>2025-04-05T10:22:32Z</time>
      </trkpt>
      <trkpt lat="50.12711" lon="4.89581">
        <ele>157.4</ele>
        <time>2025-04-05T10:22:33Z</time>
      </trkpt>
      <trkpt lat="50.12717" lon="4.89585">
        <ele>156.8</ele>
        <time>2025-04-05T10:22:34Z</time>
      </trkpt>
      <trkpt lat="50.12724" lon="4.89589">
        <ele>156.2</ele>
        <time>2025-04-05T10:22:35Z</time>
      </trkpt>
      <trkpt lat="50.12731" lon="4.89593">
        <ele>155.6</ele>
        <time>2025-04-05T10:22:36Z</time>
      </trkpt>
      <trkpt lat="50.12737" lon="4.89596">
        <ele>155</ele>
        <time>2025-04-05T10:22:37Z</time>
      </trkpt>
      <trkpt lat="50.12745" lon="4.896">
        <ele>154.4</ele>
        <time>2025-04-05T10:22:38Z</time>
      </trkpt>
      <trkpt lat="50.12753" lon="4.89604">
        <ele>153.8</ele>
        <time>2025-04-05T10:22:39Z</time>
      </trkpt>
      <trkpt lat="50.12759" lon="4.89607">
        <ele>153.2</ele>
        <time>2025-04-05T10:22:40Z</time>
      </trkpt>
      <trkpt lat="50.12766" lon="4.89609">
        <ele>152.6</ele>
        <time>2025-04-05T10:22:41Z</time>
      </trkpt>
      <trkpt lat="50.12773" lon="4.89609">
        <ele>152.2</ele>
        <time>2025-04-05T10:22:42Z</time>
      </trkpt>
      <trkpt lat="50.12779" lon="4.89608">
        <ele>151.8</ele>
        <time>2025-04-05T10:22:43Z</time>
      </trkpt>
      <trkpt lat="50.12785" lon="4.89605">
        <ele>151.2</ele>
        <time>2025-04-05T10:22:44Z</time>
      </trkpt>
      <trkpt lat="50.12791" lon="4.89601">
        <ele>150.8</ele>
        <time>2025-04-05T10:22:45Z</time>
      </trkpt>
      <trkpt lat="50.12797" lon="4.89596">
        <ele>150.4</ele>
        <time>2025-04-05T10:22:46Z</time>
      </trkpt>
      <trkpt lat="50.12803" lon="4.89589">
        <ele>149.8</ele>
        <time>2025-04-05T10:22:47Z</time>
      </trkpt>
      <trkpt lat="50.12808" lon="4.89583">
        <ele>149.2</ele>
        <time>2025-04-05T10:22:48Z</time>
      </trkpt>
      <trkpt lat="50.12813" lon="4.89576">
        <ele>148.4</ele>
        <time>2025-04-05T10:22:49Z</time>
      </trkpt>
      <trkpt lat="50.12818" lon="4.89572">
        <ele>147.8</ele>
        <time>2025-04-05T10:22:50Z</time>
      </trkpt>
      <trkpt lat="50.12824" lon="4.89568">
        <ele>147.2</ele>
        <time>2025-04-05T10:22:51Z</time>
      </trkpt>
      <trkpt lat="50.1283" lon="4.89566">
        <ele>146.8</ele>
        <time>2025-04-05T10:22:52Z</time>
      </trkpt>
      <trkpt lat="50.12835" lon="4.89566">
        <ele>146.6</ele>
        <time>2025-04-05T10:22:53Z</time>
      </trkpt>
      <trkpt lat="50.12838" lon="4.89567">
        <ele>146.6</ele>
        <time>2025-04-05T10:22:54Z</time>
      </trkpt>
      <trkpt lat="50.12841" lon="4.8957">
        <ele>146.4</ele>
        <time>2025-04-05T10:22:55Z</time>
      </trkpt>
      <trkpt lat="50.12845" lon="4.89574">
        <ele>146.6</ele>
        <time>2025-04-05T10:22:56Z</time>
      </trkpt>
      <trkpt lat="50.12847" lon="4.89578">
        <ele>146.6</ele>
        <time>2025-04-05T10:22:57Z</time>
      </trkpt>
      <trkpt lat="50.1285" lon="4.89583">
        <ele>146.6</ele>
        <time>2025-04-05T10:22:58Z</time>
      </trkpt>
      <trkpt lat="50.12854" lon="4.89586">
        <ele>146.6</ele>
        <time>2025-04-05T10:22:59Z</time>
      </trkpt>
      <trkpt lat="50.12857" lon="4.89588">
        <ele>146.4</ele>
        <time>2025-04-05T10:23:00Z</time>
      </trkpt>
      <trkpt lat="50.12861" lon="4.89589">
        <ele>146.2</ele>
        <time>2025-04-05T10:23:01Z</time>
      </trkpt>
      <trkpt lat="50.12867" lon="4.89589">
        <ele>146</ele>
        <time>2025-04-05T10:23:02Z</time>
      </trkpt>
      <trkpt lat="50.12872" lon="4.89589">
        <ele>145.8</ele>
        <time>2025-04-05T10:23:03Z</time>
      </trkpt>
      <trkpt lat="50.12877" lon="4.8959">
        <ele>145.6</ele>
        <time>2025-04-05T10:23:04Z</time>
      </trkpt>
      <trkpt lat="50.12882" lon="4.89595">
        <ele>145.6</ele>
        <time>2025-04-05T10:23:05Z</time>
      </trkpt>
      <trkpt lat="50.12886" lon="4.89601">
        <ele>145.4</ele>
        <time>2025-04-05T10:23:06Z</time>
      </trkpt>
      <trkpt lat="50.12889" lon="4.89609">
        <ele>145.2</ele>
        <time>2025-04-05T10:23:07Z</time>
      </trkpt>
      <trkpt lat="50.12891" lon="4.89616">
        <ele>145</ele>
        <time>2025-04-05T10:23:08Z</time>
      </trkpt>
      <trkpt lat="50.12892" lon="4.89625">
        <ele>145</ele>
        <time>2025-04-05T10:23:09Z</time>
      </trkpt>
      <trkpt lat="50.12893" lon="4.89634">
        <ele>144.8</ele>
        <time>2025-04-05T10:23:10Z</time>
      </trkpt>
      <trkpt lat="50.12894" lon="4.89642">
        <ele>144.8</ele>
        <time>2025-04-05T10:23:11Z</time>
      </trkpt>
      <trkpt lat="50.12896" lon="4.8965">
        <ele>144.6</ele>
        <time>2025-04-05T10:23:12Z</time>
      </trkpt>
      <trkpt lat="50.12897" lon="4.89658">
        <ele>144.6</ele>
        <time>2025-04-05T10:23:13Z</time>
      </trkpt>
      <trkpt lat="50.12898" lon="4.89665">
        <ele>144.6</ele>
        <time>2025-04-05T10:23:14Z</time>
      </trkpt>
      <trkpt lat="50.12899" lon="4.89671">
        <ele>144.6</ele>
        <time>2025-04-05T10:23:15Z</time>
      </trkpt>
      <trkpt lat="50.12901" lon="4.89676">
        <ele>144.4</ele>
        <time>2025-04-05T10:23:16Z</time>
      </trkpt>
      <trkpt lat="50.12903" lon="4.8968">
        <ele>144.4</ele>
        <time>2025-04-05T10:23:17Z</time>
      </trkpt>
      <trkpt lat="50.12904" lon="4.89683">
        <ele>144.4</ele>
        <time>2025-04-05T10:23:18Z</time>
      </trkpt>
      <trkpt lat="50.12905" lon="4.89684">
        <ele>144.4</ele>
        <time>2025-04-05T10:23:19Z</time>
      </trkpt>
      <trkpt lat="50.12906" lon="4.89685">
        <ele>144.2</ele>
        <time>2025-04-05T10:24:16Z</time>
      </trkpt>
      <trkpt lat="50.12907" lon="4.89685">
        <ele>144.2</ele>
        <time>2025-04-05T10:24:17Z</time>
      </trkpt>
      <trkpt lat="50.12909" lon="4.89686">
        <ele>144.2</ele>
        <time>2025-04-05T10:24:18Z</time>
      </trkpt>
      <trkpt lat="50.12911" lon="4.89688">
        <ele>144.2</ele>
        <time>2025-04-05T10:24:19Z</time>
      </trkpt>
      <trkpt lat="50.12914" lon="4.89689">
        <ele>144.2</ele>
        <time>2025-04-05T10:24:20Z</time>
      </trkpt>
      <trkpt lat="50.12916" lon="4.8969">
        <ele>144.2</ele>
        <time>2025-04-05T10:24:21Z</time>
      </trkpt>
      <trkpt lat="50.12919" lon="4.89693">
        <ele>144.2</ele>
        <time>2025-04-05T10:24:22Z</time>
      </trkpt>
      <trkpt lat="50.12923" lon="4.89695">
        <ele>144</ele>
        <time>2025-04-05T10:24:23Z</time>
      </trkpt>
      <trkpt lat="50.12927" lon="4.89697">
        <ele>144</ele>
        <time>2025-04-05T10:24:24Z</time>
      </trkpt>
      <trkpt lat="50.12932" lon="4.897">
        <ele>143.8</ele>
        <time>2025-04-05T10:24:25Z</time>
      </trkpt>
      <trkpt lat="50.12937" lon="4.89702">
        <ele>143.6</ele>
        <time>2025-04-05T10:24:26Z</time>
      </trkpt>
      <trkpt lat="50.12941" lon="4.89705">
        <ele>143.4</ele>
        <time>2025-04-05T10:24:27Z</time>
      </trkpt>
      <trkpt lat="50.12948" lon="4.89707">
        <ele>143.2</ele>
        <time>2025-04-05T10:24:28Z</time>
      </trkpt>
      <trkpt lat="50.12953" lon="4.8971">
        <ele>143</ele>
        <time>2025-04-05T10:24:29Z</time>
      </trkpt>
      <trkpt lat="50.12959" lon="4.89713">
        <ele>143</ele>
        <time>2025-04-05T10:24:30Z</time>
      </trkpt>
      <trkpt lat="50.12965" lon="4.89716">
        <ele>142.6</ele>
        <time>2025-04-05T10:24:31Z</time>
      </trkpt>
      <trkpt lat="50.1297" lon="4.89719">
        <ele>142.4</ele>
        <time>2025-04-05T10:24:32Z</time>
      </trkpt>
      <trkpt lat="50.12976" lon="4.89723">
        <ele>142.2</ele>
        <time>2025-04-05T10:24:33Z</time>
      </trkpt>
      <trkpt lat="50.12982" lon="4.89726">
        <ele>142</ele>
        <time>2025-04-05T10:24:34Z</time>
      </trkpt>
      <trkpt lat="50.12988" lon="4.89729">
        <ele>141.6</ele>
        <time>2025-04-05T10:24:35Z</time>
      </trkpt>
      <trkpt lat="50.12994" lon="4.89733">
        <ele>141.4</ele>
        <time>2025-04-05T10:24:36Z</time>
      </trkpt>
      <trkpt lat="50.13001" lon="4.89736">
        <ele>141.2</ele>
        <time>2025-04-05T10:24:37Z</time>
      </trkpt>
      <trkpt lat="50.13007" lon="4.89739">
        <ele>140.8</ele>
        <time>2025-04-05T10:24:38Z</time>
      </trkpt>
      <trkpt lat="50.13013" lon="4.89743">
        <ele>140.6</ele>
        <time>2025-04-05T10:24:39Z</time>
      </trkpt>
      <trkpt lat="50.1302" lon="4.89747">
        <ele>140.4</ele>
        <time>2025-04-05T10:24:40Z</time>
      </trkpt>
      <trkpt lat="50.13026" lon="4.8975">
        <ele>140</ele>
        <time>2025-04-05T10:24:41Z</time>
      </trkpt>
      <trkpt lat="50.13033" lon="4.89754">
        <ele>139.8</ele>
        <time>2025-04-05T10:24:42Z</time>
      </trkpt>
      <trkpt lat="50.13039" lon="4.89757">
        <ele>139.6</ele>
        <time>2025-04-05T10:24:43Z</time>
      </trkpt>
      <trkpt lat="50.13046" lon="4.8976">
        <ele>139.4</ele>
        <time>2025-04-05T10:24:44Z</time>
      </trkpt>
      <trkpt lat="50.13053" lon="4.89764">
        <ele>139.2</ele>
        <time>2025-04-05T10:24:45Z</time>
      </trkpt>
      <trkpt lat="50.1306" lon="4.89768">
        <ele>139</ele>
        <time>2025-04-05T10:24:46Z</time>
      </trkpt>
      <trkpt lat="50.13067" lon="4.89771">
        <ele>138.8</ele>
        <time>2025-04-05T10:24:47Z</time>
      </trkpt>
      <trkpt lat="50.13074" lon="4.89775">
        <ele>138.6</ele>
        <time>2025-04-05T10:24:48Z</time>
      </trkpt>
      <trkpt lat="50.1308" lon="4.89778">
        <ele>138.4</ele>
        <time>2025-04-05T10:24:49Z</time>
      </trkpt>
      <trkpt lat="50.13088" lon="4.89782">
        <ele>138</ele>
        <time>2025-04-05T10:24:50Z</time>
      </trkpt>
      <trkpt lat="50.13095" lon="4.89787">
        <ele>137.8</ele>
        <time>2025-04-05T10:24:51Z</time>
      </trkpt>
      <trkpt lat="50.13102" lon="4.89791">
        <ele>137.6</ele>
        <time>2025-04-05T10:24:52Z</time>
      </trkpt>
      <trkpt lat="50.13109" lon="4.89796">
        <ele>137.2</ele>
        <time>2025-04-05T10:24:53Z</time>
      </trkpt>
      <trkpt lat="50.13116" lon="4.89801">
        <ele>137</ele>
        <time>2025-04-05T10:24:54Z</time>
      </trkpt>
      <trkpt lat="50.13123" lon="4.89806">
        <ele>136.6</ele>
        <time>2025-04-05T10:24:55Z</time>
      </trkpt>
      <trkpt lat="50.13129" lon="4.89813">
        <ele>136.2</ele>
        <time>2025-04-05T10:24:56Z</time>
      </trkpt>
      <trkpt lat="50.13136" lon="4.8982">
        <ele>136</ele>
        <time>2025-04-05T10:24:57Z</time>
      </trkpt>
      <trkpt lat="50.13142" lon="4.89827">
        <ele>135.6</ele>
        <time>2025-04-05T10:24:58Z</time>
      </trkpt>
      <trkpt lat="50.13149" lon="4.89834">
        <ele>135.4</ele>
        <time>2025-04-05T10:24:59Z</time>
      </trkpt>
      <trkpt lat="50.13156" lon="4.89842">
        <ele>135.2</ele>
        <time>2025-04-05T10:25:00Z</time>
      </trkpt>
      <trkpt lat="50.13162" lon="4.89849">
        <ele>134.8</ele>
        <time>2025-04-05T10:25:01Z</time>
      </trkpt>
      <trkpt lat="50.13169" lon="4.89857">
        <ele>134.6</ele>
        <time>2025-04-05T10:25:02Z</time>
      </trkpt>
      <trkpt lat="50.13176" lon="4.89867">
        <ele>134.4</ele>
        <time>2025-04-05T10:25:03Z</time>
      </trkpt>
      <trkpt lat="50.13182" lon="4.89875">
        <ele>134</ele>
        <time>2025-04-05T10:25:04Z</time>
      </trkpt>
      <trkpt lat="50.13188" lon="4.89884">
        <ele>133.8</ele>
        <time>2025-04-05T10:25:05Z</time>
      </trkpt>
      <trkpt lat="50.13194" lon="4.89894">
        <ele>133.6</ele>
        <time>2025-04-05T10:25:06Z</time>
      </trkpt>
      <trkpt lat="50.13199" lon="4.89904">
        <ele>133.6</ele>
        <time>2025-04-05T10:25:07Z</time>
      </trkpt>
      <trkpt lat="50.13204" lon="4.89913">
        <ele>133.4</ele>
        <time>2025-04-05T10:25:08Z</time>
      </trkpt>
      <trkpt lat="50.13208" lon="4.89923">
        <ele>133.2</ele>
        <time>2025-04-05T10:25:09Z</time>
      </trkpt>
      <trkpt lat="50.13212" lon="4.89932">
        <ele>133</ele>
        <time>2025-04-05T10:25:10Z</time>
      </trkpt>
      <trkpt lat="50.13216" lon="4.89941">
        <ele>133</ele>
        <time>2025-04-05T10:25:11Z</time>
      </trkpt>
      <trkpt lat="50.1322" lon="4.89953">
        <ele>132.8</ele>
        <time>2025-04-05T10:25:12Z</time>
      </trkpt>
      <trkpt lat="50.13224" lon="4.89963">
        <ele>132.8</ele>
        <time>2025-04-05T10:25:13Z</time>
      </trkpt>
      <trkpt lat="50.13227" lon="4.89974">
        <ele>132.6</ele>
        <time>2025-04-05T10:25:14Z</time>
      </trkpt>
      <trkpt lat="50.13231" lon="4.89984">
        <ele>132.6</ele>
        <time>2025-04-05T10:25:15Z</time>
      </trkpt>
      <trkpt lat="50.13234" lon="4.89995">
        <ele>132.4</ele>
        <time>2025-04-05T10:25:16Z</time>
      </trkpt>
      <trkpt lat="50.13237" lon="4.90005">
        <ele>132.4</ele>
        <time>2025-04-05T10:25:17Z</time>
      </trkpt>
      <trkpt lat="50.13239" lon="4.90014">
        <ele>132.4</ele>
        <time>2025-04-05T10:25:18Z</time>
      </trkpt>
      <trkpt lat="50.13242" lon="4.90024">
        <ele>132.4</ele>
        <time>2025-04-05T10:25:19Z</time>
      </trkpt>
      <trkpt lat="50.13244" lon="4.90035">
        <ele>132.2</ele>
        <time>2025-04-05T10:25:20Z</time>
      </trkpt>
      <trkpt lat="50.13246" lon="4.90045">
        <ele>132.4</ele>
        <time>2025-04-05T10:25:21Z</time>
      </trkpt>
      <trkpt lat="50.13248" lon="4.90055">
        <ele>132.4</ele>
        <time>2025-04-05T10:25:22Z</time>
      </trkpt>
      <trkpt lat="50.13251" lon="4.90064">
        <ele>132.4</ele>
        <time>2025-04-05T10:25:23Z</time>
      </trkpt>
      <trkpt lat="50.13253" lon="4.90074">
        <ele>132.6</ele>
        <time>2025-04-05T10:25:24Z</time>
      </trkpt>
      <trkpt lat="50.13255" lon="4.90083">
        <ele>132.6</ele>
        <time>2025-04-05T10:25:25Z</time>
      </trkpt>
      <trkpt lat="50.13257" lon="4.90091">
        <ele>132.6</ele>
        <time>2025-04-05T10:25:26Z</time>
      </trkpt>
      <trkpt lat="50.13258" lon="4.90099">
        <ele>132.8</ele>
        <time>2025-04-05T10:25:27Z</time>
      </trkpt>
      <trkpt lat="50.1326" lon="4.90108">
        <ele>132.8</ele>
        <time>2025-04-05T10:25:28Z</time>
      </trkpt>
      <trkpt lat="50.13262" lon="4.90116">
        <ele>133</ele>
        <time>2025-04-05T10:25:29Z</time>
      </trkpt>
      <trkpt lat="50.13264" lon="4.90124">
        <ele>133</ele>
        <time>2025-04-05T10:25:30Z</time>
      </trkpt>
      <trkpt lat="50.13266" lon="4.90132">
        <ele>133</ele>
        <time>2025-04-05T10:25:31Z</time>
      </trkpt>
      <trkpt lat="50.13268" lon="4.9014">
        <ele>133.2</ele>
        <time>2025-04-05T10:25:32Z</time>
      </trkpt>
      <trkpt lat="50.1327" lon="4.90149">
        <ele>133.2</ele>
        <time>2025-04-05T10:25:33Z</time>
      </trkpt>
      <trkpt lat="50.13273" lon="4.90157">
        <ele>133.2</ele>
        <time>2025-04-05T10:25:34Z</time>
      </trkpt>
      <trkpt lat="50.13276" lon="4.90165">
        <ele>133.4</ele>
        <time>2025-04-05T10:25:35Z</time>
      </trkpt>
      <trkpt lat="50.13279" lon="4.90172">
        <ele>133.6</ele>
        <time>2025-04-05T10:25:36Z</time>
      </trkpt>
      <trkpt lat="50.13281" lon="4.9018">
        <ele>133.6</ele>
        <time>2025-04-05T10:25:37Z</time>
      </trkpt>
      <trkpt lat="50.13284" lon="4.90186">
        <ele>133.8</ele>
        <time>2025-04-05T10:25:38Z</time>
      </trkpt>
      <trkpt lat="50.13288" lon="4.90193">
        <ele>133.8</ele>
        <time>2025-04-05T10:25:39Z</time>
      </trkpt>
      <trkpt lat="50.13291" lon="4.902">
        <ele>134</ele>
        <time>2025-04-05T10:25:40Z</time>
      </trkpt>
      <trkpt lat="50.13295" lon="4.90206">
        <ele>134.2</ele>
        <time>2025-04-05T10:25:41Z</time>
      </trkpt>
      <trkpt lat="50.13299" lon="4.90212">
        <ele>134.2</ele>
        <time>2025-04-05T10:25:42Z</time>
      </trkpt>
      <trkpt lat="50.13303" lon="4.90218">
        <ele>134.4</ele>
        <time>2025-04-05T10:25:43Z</time>
      </trkpt>
      <trkpt lat="50.13307" lon="4.90223">
        <ele>134.4</ele>
        <time>2025-04-05T10:25:44Z</time>
      </trkpt>
      <trkpt lat="50.13311" lon="4.90229">
        <ele>134.4</ele>
        <time>2025-04-05T10:25:45Z</time>
      </trkpt>
      <trkpt lat="50.13316" lon="4.90234">
        <ele>134.6</ele>
        <time>2025-04-05T10:25:46Z</time>
      </trkpt>
      <trkpt lat="50.1332" lon="4.90238">
        <ele>134.6</ele>
        <time>2025-04-05T10:25:47Z</time>
      </trkpt>
      <trkpt lat="50.13324" lon="4.90242">
        <ele>134.8</ele>
        <time>2025-04-05T10:25:48Z</time>
      </trkpt>
      <trkpt lat="50.13328" lon="4.90246">
        <ele>134.8</ele>
        <time>2025-04-05T10:25:49Z</time>
      </trkpt>
      <trkpt lat="50.13332" lon="4.9025">
        <ele>135</ele>
        <time>2025-04-05T10:25:50Z</time>
      </trkpt>
      <trkpt lat="50.13336" lon="4.90253">
        <ele>135</ele>
        <time>2025-04-05T10:25:51Z</time>
      </trkpt>
      <trkpt lat="50.13341" lon="4.90257">
        <ele>135.2</ele>
        <time>2025-04-05T10:25:52Z</time>
      </trkpt>
      <trkpt lat="50.13345" lon="4.9026">
        <ele>135.4</ele>
        <time>2025-04-05T10:25:53Z</time>
      </trkpt>
      <trkpt lat="50.1335" lon="4.90263">
        <ele>135.4</ele>
        <time>2025-04-05T10:25:54Z</time>
      </trkpt>
      <trkpt lat="50.13355" lon="4.90266">
        <ele>135.6</ele>
        <time>2025-04-05T10:25:55Z</time>
      </trkpt>
      <trkpt lat="50.13359" lon="4.90269">
        <ele>135.6</ele>
        <time>2025-04-05T10:25:56Z</time>
      </trkpt>
      <trkpt lat="50.13364" lon="4.90271">
        <ele>135.8</ele>
        <time>2025-04-05T10:25:57Z</time>
      </trkpt>
      <trkpt lat="50.13369" lon="4.90274">
        <ele>135.8</ele>
        <time>2025-04-05T10:25:58Z</time>
      </trkpt>
      <trkpt lat="50.13373" lon="4.90277">
        <ele>136</ele>
        <time>2025-04-05T10:25:59Z</time>
      </trkpt>
      <trkpt lat="50.13378" lon="4.9028">
        <ele>136.4</ele>
        <time>2025-04-05T10:26:00Z</time>
      </trkpt>
      <trkpt lat="50.13382" lon="4.90283">
        <ele>136.4</ele>
        <time>2025-04-05T10:26:01Z</time>
      </trkpt>
      <trkpt lat="50.13387" lon="4.90287">
        <ele>136.6</ele>
        <time>2025-04-05T10:26:02Z</time>
      </trkpt>
      <trkpt lat="50.13392" lon="4.90289">
        <ele>136.8</ele>
        <time>2025-04-05T10:26:03Z</time>
      </trkpt>
      <trkpt lat="50.13396" lon="4.90293">
        <ele>136.8</ele>
        <time>2025-04-05T10:26:04Z</time>
      </trkpt>
      <trkpt lat="50.134" lon="4.90295">
        <ele>137</ele>
        <time>2025-04-05T10:26:05Z</time>
      </trkpt>
      <trkpt lat="50.13405" lon="4.90297">
        <ele>137.2</ele>
        <time>2025-04-05T10:26:06Z</time>
      </trkpt>
      <trkpt lat="50.13409" lon="4.90299">
        <ele>137.4</ele>
        <time>2025-04-05T10:26:07Z</time>
      </trkpt>
      <trkpt lat="50.13413" lon="4.90302">
        <ele>137.6</ele>
        <time>2025-04-05T10:26:08Z</time>
      </trkpt>
      <trkpt lat="50.13417" lon="4.90304">
        <ele>137.8</ele>
        <time>2025-04-05T10:26:09Z</time>
      </trkpt>
      <trkpt lat="50.13421" lon="4.90307">
        <ele>138</ele>
        <time>2025-04-05T10:26:10Z</time>
      </trkpt>
      <trkpt lat="50.13425" lon="4.9031">
        <ele>138.2</ele>
        <time>2025-04-05T10:26:11Z</time>
      </trkpt>
      <trkpt lat="50.13429" lon="4.90312">
        <ele>138.6</ele>
        <time>2025-04-05T10:26:12Z</time>
      </trkpt>
      <trkpt lat="50.13432" lon="4.90315">
        <ele>138.8</ele>
        <time>2025-04-05T10:26:13Z</time>
      </trkpt>
      <trkpt lat="50.13435" lon="4.90317">
        <ele>139</ele>
        <time>2025-04-05T10:26:14Z</time>
      </trkpt>
      <trkpt lat="50.13439" lon="4.9032">
        <ele>139.2</ele>
        <time>2025-04-05T10:26:15Z</time>
      </trkpt>
      <trkpt lat="50.13442" lon="4.90322">
        <ele>139.2</ele>
        <time>2025-04-05T10:26:16Z</time>
      </trkpt>
      <trkpt lat="50.13446" lon="4.90324">
        <ele>139.4</ele>
        <time>2025-04-05T10:26:17Z</time>
      </trkpt>
      <trkpt lat="50.13448" lon="4.90326">
        <ele>139.6</ele>
        <time>2025-04-05T10:26:18Z</time>
      </trkpt>
      <trkpt lat="50.13451" lon="4.90328">
        <ele>139.8</ele>
        <time>2025-04-05T10:26:19Z</time>
      </trkpt>
      <trkpt lat="50.13454" lon="4.90331">
        <ele>140</ele>
        <time>2025-04-05T10:26:20Z</time>
      </trkpt>
      <trkpt lat="50.13458" lon="4.90333">
        <ele>140.2</ele>
        <time>2025-04-05T10:26:21Z</time>
      </trkpt>
      <trkpt lat="50.13461" lon="4.90335">
        <ele>140.4</ele>
        <time>2025-04-05T10:26:22Z</time>
      </trkpt>
      <trkpt lat="50.13464" lon="4.90336">
        <ele>140.4</ele>
        <time>2025-04-05T10:26:23Z</time>
      </trkpt>
      <trkpt lat="50.13466" lon="4.90338">
        <ele>140.6</ele>
        <time>2025-04-05T10:26:24Z</time>
      </trkpt>
      <trkpt lat="50.1347" lon="4.9034">
        <ele>140.8</ele>
        <time>2025-04-05T10:26:25Z</time>
      </trkpt>
      <trkpt lat="50.13473" lon="4.90342">
        <ele>141</ele>
        <time>2025-04-05T10:26:26Z</time>
      </trkpt>
      <trkpt lat="50.13475" lon="4.90344">
        <ele>141.2</ele>
        <time>2025-04-05T10:26:27Z</time>
      </trkpt>
      <trkpt lat="50.13478" lon="4.90346">
        <ele>141.2</ele>
        <time>2025-04-05T10:26:28Z</time>
      </trkpt>
      <trkpt lat="50.1348" lon="4.90348">
        <ele>141.4</ele>
        <time>2025-04-05T10:26:29Z</time>
      </trkpt>
      <trkpt lat="50.13483" lon="4.9035">
        <ele>141.4</ele>
        <time>2025-04-05T10:26:30Z</time>
      </trkpt>
      <trkpt lat="50.13487" lon="4.90352">
        <ele>141.6</ele>
        <time>2025-04-05T10:26:31Z</time>
      </trkpt>
      <trkpt lat="50.1349" lon="4.90354">
        <ele>141.8</ele>
        <time>2025-04-05T10:26:32Z</time>
      </trkpt>
      <trkpt lat="50.13493" lon="4.90357">
        <ele>141.8</ele>
        <time>2025-04-05T10:26:33Z</time>
      </trkpt>
      <trkpt lat="50.13496" lon="4.90359">
        <ele>142</ele>
        <time>2025-04-05T10:26:34Z</time>
      </trkpt>
      <trkpt lat="50.135" lon="4.90362">
        <ele>142.2</ele>
        <time>2025-04-05T10:26:35Z</time>
      </trkpt>
      <trkpt lat="50.13504" lon="4.90365">
        <ele>142.4</ele>
        <time>2025-04-05T10:26:36Z</time>
      </trkpt>
      <trkpt lat="50.13506" lon="4.90366">
        <ele>142.6</ele>
        <time>2025-04-05T10:26:37Z</time>
      </trkpt>
      <trkpt lat="50.1351" lon="4.90368">
        <ele>142.8</ele>
        <time>2025-04-05T10:26:38Z</time>
      </trkpt>
      <trkpt lat="50.13513" lon="4.90371">
        <ele>143</ele>
        <time>2025-04-05T10:26:39Z</time>
      </trkpt>
      <trkpt lat="50.13516" lon="4.90372">
        <ele>143.2</ele>
        <time>2025-04-05T10:26:40Z</time>
      </trkpt>
      <trkpt lat="50.13519" lon="4.90374">
        <ele>143.4</ele>
        <time>2025-04-05T10:26:41Z</time>
      </trkpt>
      <trkpt lat="50.13522" lon="4.90376">
        <ele>143.4</ele>
        <time>2025-04-05T10:26:42Z</time>
      </trkpt>
      <trkpt lat="50.13525" lon="4.90378">
        <ele>143.6</ele>
        <time>2025-04-05T10:26:43Z</time>
      </trkpt>
      <trkpt lat="50.13528" lon="4.9038">
        <ele>143.8</ele>
        <time>2025-04-05T10:26:44Z</time>
      </trkpt>
      <trkpt lat="50.13531" lon="4.90382">
        <ele>144</ele>
        <time>2025-04-05T10:26:45Z</time>
      </trkpt>
      <trkpt lat="50.13533" lon="4.90384">
        <ele>144.2</ele>
        <time>2025-04-05T10:26:46Z</time>
      </trkpt>
      <trkpt lat="50.13536" lon="4.90386">
        <ele>144.4</ele>
        <time>2025-04-05T10:26:47Z</time>
      </trkpt>
      <trkpt lat="50.13539" lon="4.90388">
        <ele>144.6</ele>
        <time>2025-04-05T10:26:48Z</time>
      </trkpt>
      <trkpt lat="50.13542" lon="4.9039">
        <ele>144.8</ele>
        <time>2025-04-05T10:26:49Z</time>
      </trkpt>
      <trkpt lat="50.13546" lon="4.90393">
        <ele>145</ele>
        <time>2025-04-05T10:26:50Z</time>
      </trkpt>
      <trkpt lat="50.13549" lon="4.90395">
        <ele>145</ele>
        <time>2025-04-05T10:26:51Z</time>
      </trkpt>
      <trkpt lat="50.13552" lon="4.90397">
        <ele>145.2</ele>
        <time>2025-04-05T10:26:52Z</time>
      </trkpt>
      <trkpt lat="50.13555" lon="4.90399">
        <ele>145.4</ele>
        <time>2025-04-05T10:26:53Z</time>
      </trkpt>
      <trkpt lat="50.13558" lon="4.904">
        <ele>145.6</ele>
        <time>2025-04-05T10:26:54Z</time>
      </trkpt>
      <trkpt lat="50.13561" lon="4.90402">
        <ele>145.8</ele>
        <time>2025-04-05T10:26:55Z</time>
      </trkpt>
      <trkpt lat="50.13564" lon="4.90404">
        <ele>146</ele>
        <time>2025-04-05T10:26:56Z</time>
      </trkpt>
      <trkpt lat="50.13567" lon="4.90406">
        <ele>146.2</ele>
        <time>2025-04-05T10:26:57Z</time>
      </trkpt>
      <trkpt lat="50.1357" lon="4.90408">
        <ele>146.4</ele>
        <time>2025-04-05T10:26:58Z</time>
      </trkpt>
      <trkpt lat="50.13574" lon="4.9041">
        <ele>146.6</ele>
        <time>2025-04-05T10:26:59Z</time>
      </trkpt>
      <trkpt lat="50.13577" lon="4.90412">
        <ele>146.8</ele>
        <time>2025-04-05T10:27:00Z</time>
      </trkpt>
      <trkpt lat="50.1358" lon="4.90414">
        <ele>146.8</ele>
        <time>2025-04-05T10:27:01Z</time>
      </trkpt>
      <trkpt lat="50.13583" lon="4.90416">
        <ele>147</ele>
        <time>2025-04-05T10:27:02Z</time>
      </trkpt>
      <trkpt lat="50.13586" lon="4.90418">
        <ele>147.2</ele>
        <time>2025-04-05T10:27:03Z</time>
      </trkpt>
      <trkpt lat="50.13589" lon="4.9042">
        <ele>147.4</ele>
        <time>2025-04-05T10:27:04Z</time>
      </trkpt>
      <trkpt lat="50.13592" lon="4.90422">
        <ele>147.6</ele>
        <time>2025-04-05T10:27:05Z</time>
      </trkpt>
      <trkpt lat="50.13595" lon="4.90424">
        <ele>147.8</ele>
        <time>2025-04-05T10:27:06Z</time>
      </trkpt>
      <trkpt lat="50.13597" lon="4.90425">
        <ele>147.8</ele>
        <time>2025-04-05T10:27:07Z</time>
      </trkpt>
      <trkpt lat="50.13599" lon="4.90427">
        <ele>148</ele>
        <time>2025-04-05T10:27:08Z</time>
      </trkpt>
      <trkpt lat="50.13602" lon="4.90429">
        <ele>148.2</ele>
        <time>2025-04-05T10:27:09Z</time>
      </trkpt>
      <trkpt lat="50.13605" lon="4.90431">
        <ele>148.2</ele>
        <time>2025-04-05T10:27:10Z</time>
      </trkpt>
      <trkpt lat="50.13607" lon="4.90433">
        <ele>148.4</ele>
        <time>2025-04-05T10:27:11Z</time>
      </trkpt>
      <trkpt lat="50.1361" lon="4.90435">
        <ele>148.6</ele>
        <time>2025-04-05T10:27:12Z</time>
      </trkpt>
      <trkpt lat="50.13613" lon="4.90437">
        <ele>148.8</ele>
        <time>2025-04-05T10:27:13Z</time>
      </trkpt>
      <trkpt lat="50.13616" lon="4.90439">
        <ele>149</ele>
        <time>2025-04-05T10:27:14Z</time>
      </trkpt>
      <trkpt lat="50.13619" lon="4.90441">
        <ele>149.2</ele>
        <time>2025-04-05T10:27:15Z</time>
      </trkpt>
      <trkpt lat="50.13622" lon="4.90442">
        <ele>149.4</ele>
        <time>2025-04-05T10:27:16Z</time>
      </trkpt>
      <trkpt lat="50.13624" lon="4.90444">
        <ele>149.4</ele>
        <time>2025-04-05T10:27:17Z</time>
      </trkpt>
      <trkpt lat="50.13627" lon="4.90447">
        <ele>149.6</ele>
        <time>2025-04-05T10:27:18Z</time>
      </trkpt>
      <trkpt lat="50.13631" lon="4.90449">
        <ele>149.8</ele>
        <time>2025-04-05T10:27:19Z</time>
      </trkpt>
      <trkpt lat="50.13634" lon="4.90451">
        <ele>150</ele>
        <time>2025-04-05T10:27:20Z</time>
      </trkpt>
      <trkpt lat="50.13637" lon="4.90453">
        <ele>150.2</ele>
        <time>2025-04-05T10:27:21Z</time>
      </trkpt>
      <trkpt lat="50.1364" lon="4.90455">
        <ele>150.4</ele>
        <time>2025-04-05T10:27:22Z</time>
      </trkpt>
      <trkpt lat="50.13643" lon="4.90458">
        <ele>150.6</ele>
        <time>2025-04-05T10:27:23Z</time>
      </trkpt>
      <trkpt lat="50.13646" lon="4.9046">
        <ele>150.6</ele>
        <time>2025-04-05T10:27:24Z</time>
      </trkpt>
      <trkpt lat="50.13648" lon="4.90463">
        <ele>150.8</ele>
        <time>2025-04-05T10:27:25Z</time>
      </trkpt>
      <trkpt lat="50.13651" lon="4.90465">
        <ele>151</ele>
        <time>2025-04-05T10:27:26Z</time>
      </trkpt>
      <trkpt lat="50.13654" lon="4.90467">
        <ele>151.2</ele>
        <time>2025-04-05T10:27:27Z</time>
      </trkpt>
      <trkpt lat="50.13657" lon="4.9047">
        <ele>151.6</ele>
        <time>2025-04-05T10:27:28Z</time>
      </trkpt>
      <trkpt lat="50.1366" lon="4.90471">
        <ele>151.6</ele>
        <time>2025-04-05T10:27:29Z</time>
      </trkpt>
      <trkpt lat="50.13663" lon="4.90474">
        <ele>151.8</ele>
        <time>2025-04-05T10:27:30Z</time>
      </trkpt>
      <trkpt lat="50.13666" lon="4.90476">
        <ele>152</ele>
        <time>2025-04-05T10:27:31Z</time>
      </trkpt>
      <trkpt lat="50.13668" lon="4.90479">
        <ele>152.2</ele>
        <time>2025-04-05T10:27:32Z</time>
      </trkpt>
      <trkpt lat="50.13672" lon="4.90481">
        <ele>152.2</ele>
        <time>2025-04-05T10:27:33Z</time>
      </trkpt>
      <trkpt lat="50.13674" lon="4.90483">
        <ele>152.4</ele>
        <time>2025-04-05T10:27:34Z</time>
      </trkpt>
      <trkpt lat="50.13677" lon="4.90486">
        <ele>152.6</ele>
        <time>2025-04-05T10:27:35Z</time>
      </trkpt>
      <trkpt lat="50.1368" lon="4.90489">
        <ele>152.6</ele>
        <time>2025-04-05T10:27:36Z</time>
      </trkpt>
      <trkpt lat="50.13683" lon="4.90491">
        <ele>153</ele>
        <time>2025-04-05T10:27:37Z</time>
      </trkpt>
      <trkpt lat="50.13685" lon="4.90493">
        <ele>153</ele>
        <time>2025-04-05T10:27:38Z</time>
      </trkpt>
      <trkpt lat="50.13688" lon="4.90496">
        <ele>153.2</ele>
        <time>2025-04-05T10:27:39Z</time>
      </trkpt>
      <trkpt lat="50.13691" lon="4.90498">
        <ele>153.4</ele>
        <time>2025-04-05T10:27:40Z</time>
      </trkpt>
      <trkpt lat="50.13693" lon="4.905">
        <ele>153.6</ele>
        <time>2025-04-05T10:27:41Z</time>
      </trkpt>
      <trkpt lat="50.13696" lon="4.90502">
        <ele>153.8</ele>
        <time>2025-04-05T10:27:42Z</time>
      </trkpt>
      <trkpt lat="50.13699" lon="4.90504">
        <ele>154</ele>
        <time>2025-04-05T10:27:43Z</time>
      </trkpt>
      <trkpt lat="50.13701" lon="4.90507">
        <ele>154.2</ele>
        <time>2025-04-05T10:27:44Z</time>
      </trkpt>
      <trkpt lat="50.13704" lon="4.90509">
        <ele>154.4</ele>
        <time>2025-04-05T10:27:45Z</time>
      </trkpt>
      <trkpt lat="50.13706" lon="4.90511">
        <ele>154.6</ele>
        <time>2025-04-05T10:27:46Z</time>
      </trkpt>
      <trkpt lat="50.13709" lon="4.90514">
        <ele>154.8</ele>
        <time>2025-04-05T10:27:47Z</time>
      </trkpt>
      <trkpt lat="50.13711" lon="4.90517">
        <ele>155</ele>
        <time>2025-04-05T10:27:48Z</time>
      </trkpt>
      <trkpt lat="50.13714" lon="4.90519">
        <ele>155</ele>
        <time>2025-04-05T10:27:49Z</time>
      </trkpt>
      <trkpt lat="50.13717" lon="4.90522">
        <ele>155.2</ele>
        <time>2025-04-05T10:27:50Z</time>
      </trkpt>
      <trkpt lat="50.13719" lon="4.90525">
        <ele>155.4</ele>
        <time>2025-04-05T10:27:51Z</time>
      </trkpt>
      <trkpt lat="50.13722" lon="4.90528">
        <ele>155.6</ele>
        <time>2025-04-05T10:27:52Z</time>
      </trkpt>
      <trkpt lat="50.13725" lon="4.9053">
        <ele>155.8</ele>
        <time>2025-04-05T10:27:53Z</time>
      </trkpt>
      <trkpt lat="50.13726" lon="4.90532">
        <ele>156</ele>
        <time>2025-04-05T10:27:54Z</time>
      </trkpt>
      <trkpt lat="50.13729" lon="4.90534">
        <ele>156.2</ele>
        <time>2025-04-05T10:27:55Z</time>
      </trkpt>
      <trkpt lat="50.13732" lon="4.90536">
        <ele>156.4</ele>
        <time>2025-04-05T10:27:56Z</time>
      </trkpt>
      <trkpt lat="50.13734" lon="4.90538">
        <ele>156.4</ele>
        <time>2025-04-05T10:27:57Z</time>
      </trkpt>
      <trkpt lat="50.13737" lon="4.9054">
        <ele>156.6</ele>
        <time>2025-04-05T10:27:58Z</time>
      </trkpt>
      <trkpt lat="50.13739" lon="4.90542">
        <ele>156.8</ele>
        <time>2025-04-05T10:27:59Z</time>
      </trkpt>
      <trkpt lat="50.13742" lon="4.90545">
        <ele>157</ele>
        <time>2025-04-05T10:28:00Z</time>
      </trkpt>
      <trkpt lat="50.13744" lon="4.90547">
        <ele>157.2</ele>
        <time>2025-04-05T10:28:01Z</time>
      </trkpt>
      <trkpt lat="50.13747" lon="4.90549">
        <ele>157.4</ele>
        <time>2025-04-05T10:28:02Z</time>
      </trkpt>
      <trkpt lat="50.13749" lon="4.90552">
        <ele>157.4</ele>
        <time>2025-04-05T10:28:03Z</time>
      </trkpt>
      <trkpt lat="50.13751" lon="4.90554">
        <ele>157.6</ele>
        <time>2025-04-05T10:28:04Z</time>
      </trkpt>
      <trkpt lat="50.13754" lon="4.90557">
        <ele>157.8</ele>
        <time>2025-04-05T10:28:05Z</time>
      </trkpt>
      <trkpt lat="50.13756" lon="4.9056">
        <ele>158</ele>
        <time>2025-04-05T10:28:06Z</time>
      </trkpt>
      <trkpt lat="50.13759" lon="4.90562">
        <ele>158.2</ele>
        <time>2025-04-05T10:28:07Z</time>
      </trkpt>
      <trkpt lat="50.13762" lon="4.90565">
        <ele>158.4</ele>
        <time>2025-04-05T10:28:08Z</time>
      </trkpt>
      <trkpt lat="50.13764" lon="4.90567">
        <ele>158.6</ele>
        <time>2025-04-05T10:28:09Z</time>
      </trkpt>
      <trkpt lat="50.13766" lon="4.9057">
        <ele>158.8</ele>
        <time>2025-04-05T10:28:10Z</time>
      </trkpt>
      <trkpt lat="50.13768" lon="4.90572">
        <ele>159</ele>
        <time>2025-04-05T10:28:11Z</time>
      </trkpt>
      <trkpt lat="50.13771" lon="4.90574">
        <ele>159.2</ele>
        <time>2025-04-05T10:28:12Z</time>
      </trkpt>
      <trkpt lat="50.13773" lon="4.90576">
        <ele>159.2</ele>
        <time>2025-04-05T10:28:13Z</time>
      </trkpt>
      <trkpt lat="50.13776" lon="4.90579">
        <ele>159.4</ele>
        <time>2025-04-05T10:28:14Z</time>
      </trkpt>
      <trkpt lat="50.13778" lon="4.90581">
        <ele>159.6</ele>
        <time>2025-04-05T10:28:15Z</time>
      </trkpt>
      <trkpt lat="50.13781" lon="4.90583">
        <ele>159.8</ele>
        <time>2025-04-05T10:28:16Z</time>
      </trkpt>
      <trkpt lat="50.13783" lon="4.90585">
        <ele>160</ele>
        <time>2025-04-05T10:28:17Z</time>
      </trkpt>
      <trkpt lat="50.13785" lon="4.90587">
        <ele>160</ele>
        <time>2025-04-05T10:28:18Z</time>
      </trkpt>
      <trkpt lat="50.13788" lon="4.90589">
        <ele>160.2</ele>
        <time>2025-04-05T10:28:19Z</time>
      </trkpt>
      <trkpt lat="50.1379" lon="4.9059">
        <ele>160.4</ele>
        <time>2025-04-05T10:28:20Z</time>
      </trkpt>
      <trkpt lat="50.13793" lon="4.90592">
        <ele>160.6</ele>
        <time>2025-04-05T10:28:21Z</time>
      </trkpt>
      <trkpt lat="50.13796" lon="4.90594">
        <ele>160.6</ele>
        <time>2025-04-05T10:28:22Z</time>
      </trkpt>
      <trkpt lat="50.13798" lon="4.90596">
        <ele>160.6</ele>
        <time>2025-04-05T10:28:23Z</time>
      </trkpt>
      <trkpt lat="50.13801" lon="4.90598">
        <ele>160.6</ele>
        <time>2025-04-05T10:28:24Z</time>
      </trkpt>
      <trkpt lat="50.13803" lon="4.90599">
        <ele>160.8</ele>
        <time>2025-04-05T10:28:25Z</time>
      </trkpt>
      <trkpt lat="50.13806" lon="4.90601">
        <ele>160.8</ele>
        <time>2025-04-05T10:28:26Z</time>
      </trkpt>
      <trkpt lat="50.13809" lon="4.90602">
        <ele>161</ele>
        <time>2025-04-05T10:28:27Z</time>
      </trkpt>
      <trkpt lat="50.13812" lon="4.90603">
        <ele>161.2</ele>
        <time>2025-04-05T10:28:28Z</time>
      </trkpt>
      <trkpt lat="50.13814" lon="4.90605">
        <ele>161.4</ele>
        <time>2025-04-05T10:28:29Z</time>
      </trkpt>
      <trkpt lat="50.13816" lon="4.90606">
        <ele>161.6</ele>
        <time>2025-04-05T10:28:30Z</time>
      </trkpt>
      <trkpt lat="50.13819" lon="4.90608">
        <ele>161.8</ele>
        <time>2025-04-05T10:28:31Z</time>
      </trkpt>
      <trkpt lat="50.13822" lon="4.90609">
        <ele>161.8</ele>
        <time>2025-04-05T10:28:32Z</time>
      </trkpt>
      <trkpt lat="50.13824" lon="4.9061">
        <ele>162</ele>
        <time>2025-04-05T10:28:33Z</time>
      </trkpt>
      <trkpt lat="50.13827" lon="4.90611">
        <ele>162.2</ele>
        <time>2025-04-05T10:28:34Z</time>
      </trkpt>
      <trkpt lat="50.13829" lon="4.90613">
        <ele>162.2</ele>
        <time>2025-04-05T10:28:35Z</time>
      </trkpt>
      <trkpt lat="50.13832" lon="4.90614">
        <ele>162.4</ele>
        <time>2025-04-05T10:28:36Z</time>
      </trkpt>
      <trkpt lat="50.13834" lon="4.90615">
        <ele>162.6</ele>
        <time>2025-04-05T10:28:37Z</time>
      </trkpt>
      <trkpt lat="50.13837" lon="4.90616">
        <ele>162.8</ele>
        <time>2025-04-05T10:28:38Z</time>
      </trkpt>
      <trkpt lat="50.1384" lon="4.90617">
        <ele>163</ele>
        <time>2025-04-05T10:28:39Z</time>
      </trkpt>
      <trkpt lat="50.13843" lon="4.90618">
        <ele>163.2</ele>
        <time>2025-04-05T10:28:40Z</time>
      </trkpt>
      <trkpt lat="50.13846" lon="4.90619">
        <ele>163.4</ele>
        <time>2025-04-05T10:28:41Z</time>
      </trkpt>
      <trkpt lat="50.13848" lon="4.9062">
        <ele>163.6</ele>
        <time>2025-04-05T10:28:42Z</time>
      </trkpt>
      <trkpt lat="50.13851" lon="4.90621">
        <ele>163.6</ele>
        <time>2025-04-05T10:28:43Z</time>
      </trkpt>
      <trkpt lat="50.13854" lon="4.90622">
        <ele>163.8</ele>
        <time>2025-04-05T10:28:44Z</time>
      </trkpt>
      <trkpt lat="50.13857" lon="4.90623">
        <ele>164</ele>
        <time>2025-04-05T10:28:45Z</time>
      </trkpt>
      <trkpt lat="50.1386" lon="4.90623">
        <ele>164.2</ele>
        <time>2025-04-05T10:28:46Z</time>
      </trkpt>
      <trkpt lat="50.13862" lon="4.90624">
        <ele>164.4</ele>
        <time>2025-04-05T10:28:47Z</time>
      </trkpt>
      <trkpt lat="50.13865" lon="4.90625">
        <ele>164.6</ele>
        <time>2025-04-05T10:28:48Z</time>
      </trkpt>
      <trkpt lat="50.13868" lon="4.90625">
        <ele>164.8</ele>
        <time>2025-04-05T10:28:49Z</time>
      </trkpt>
      <trkpt lat="50.13871" lon="4.90626">
        <ele>165</ele>
        <time>2025-04-05T10:28:50Z</time>
      </trkpt>
      <trkpt lat="50.13874" lon="4.90626">
        <ele>165.2</ele>
        <time>2025-04-05T10:28:51Z</time>
      </trkpt>
      <trkpt lat="50.13876" lon="4.90627">
        <ele>165.4</ele>
        <time>2025-04-05T10:28:52Z</time>
      </trkpt>
      <trkpt lat="50.13879" lon="4.90627">
        <ele>165.4</ele>
        <time>2025-04-05T10:28:53Z</time>
      </trkpt>
      <trkpt lat="50.13882" lon="4.90627">
        <ele>165.6</ele>
        <time>2025-04-05T10:28:54Z</time>
      </trkpt>
      <trkpt lat="50.13885" lon="4.90628">
        <ele>165.8</ele>
        <time>2025-04-05T10:28:55Z</time>
      </trkpt>
      <trkpt lat="50.13887" lon="4.90628">
        <ele>166</ele>
        <time>2025-04-05T10:28:56Z</time>
      </trkpt>
      <trkpt lat="50.1389" lon="4.90628">
        <ele>166.2</ele>
        <time>2025-04-05T10:28:57Z</time>
      </trkpt>
      <trkpt lat="50.13893" lon="4.90628">
        <ele>166.4</ele>
        <time>2025-04-05T10:28:58Z</time>
      </trkpt>
      <trkpt lat="50.13896" lon="4.90628">
        <ele>166.6</ele>
        <time>2025-04-05T10:28:59Z</time>
      </trkpt>
      <trkpt lat="50.13899" lon="4.90628">
        <ele>166.8</ele>
        <time>2025-04-05T10:29:00Z</time>
      </trkpt>
      <trkpt lat="50.13902" lon="4.90627">
        <ele>166.8</ele>
        <time>2025-04-05T10:29:01Z</time>
      </trkpt>
      <trkpt lat="50.13905" lon="4.90627">
        <ele>167</ele>
        <time>2025-04-05T10:29:02Z</time>
      </trkpt>
      <trkpt lat="50.13908" lon="4.90627">
        <ele>167.2</ele>
        <time>2025-04-05T10:29:03Z</time>
      </trkpt>
      <trkpt lat="50.1391" lon="4.90626">
        <ele>167.4</ele>
        <time>2025-04-05T10:29:04Z</time>
      </trkpt>
      <trkpt lat="50.13913" lon="4.90626">
        <ele>167.6</ele>
        <time>2025-04-05T10:29:05Z</time>
      </trkpt>
      <trkpt lat="50.13916" lon="4.90625">
        <ele>167.8</ele>
        <time>2025-04-05T10:29:06Z</time>
      </trkpt>
      <trkpt lat="50.13919" lon="4.90625">
        <ele>168</ele>
        <time>2025-04-05T10:29:07Z</time>
      </trkpt>
      <trkpt lat="50.13922" lon="4.90624">
        <ele>168.2</ele>
        <time>2025-04-05T10:29:08Z</time>
      </trkpt>
      <trkpt lat="50.13925" lon="4.90623">
        <ele>168.4</ele>
        <time>2025-04-05T10:29:09Z</time>
      </trkpt>
      <trkpt lat="50.13928" lon="4.90622">
        <ele>168.6</ele>
        <time>2025-04-05T10:29:10Z</time>
      </trkpt>
      <trkpt lat="50.1393" lon="4.90622">
        <ele>168.8</ele>
        <time>2025-04-05T10:29:11Z</time>
      </trkpt>
      <trkpt lat="50.13933" lon="4.90621">
        <ele>169</ele>
        <time>2025-04-05T10:29:12Z</time>
      </trkpt>
      <trkpt lat="50.13936" lon="4.9062">
        <ele>169.2</ele>
        <time>2025-04-05T10:29:13Z</time>
      </trkpt>
      <trkpt lat="50.13939" lon="4.90619">
        <ele>169.4</ele>
        <time>2025-04-05T10:29:14Z</time>
      </trkpt>
      <trkpt lat="50.13941" lon="4.90618">
        <ele>169.6</ele>
        <time>2025-04-05T10:29:15Z</time>
      </trkpt>
      <trkpt lat="50.13944" lon="4.90617">
        <ele>169.8</ele>
        <time>2025-04-05T10:29:16Z</time>
      </trkpt>
      <trkpt lat="50.13946" lon="4.90616">
        <ele>170</ele>
        <time>2025-04-05T10:29:17Z</time>
      </trkpt>
      <trkpt lat="50.13949" lon="4.90615">
        <ele>170.2</ele>
        <time>2025-04-05T10:29:18Z</time>
      </trkpt>
      <trkpt lat="50.13952" lon="4.90614">
        <ele>170.4</ele>
        <time>2025-04-05T10:29:19Z</time>
      </trkpt>
      <trkpt lat="50.13955" lon="4.90613">
        <ele>170.6</ele>
        <time>2025-04-05T10:29:20Z</time>
      </trkpt>
      <trkpt lat="50.13958" lon="4.90612">
        <ele>170.6</ele>
        <time>2025-04-05T10:29:21Z</time>
      </trkpt>
      <trkpt lat="50.1396" lon="4.90611">
        <ele>170.8</ele>
        <time>2025-04-05T10:29:22Z</time>
      </trkpt>
      <trkpt lat="50.13963" lon="4.9061">
        <ele>170.8</ele>
        <time>2025-04-05T10:29:23Z</time>
      </trkpt>
      <trkpt lat="50.13965" lon="4.90609">
        <ele>171</ele>
        <time>2025-04-05T10:29:24Z</time>
      </trkpt>
      <trkpt lat="50.13968" lon="4.90607">
        <ele>171.2</ele>
        <time>2025-04-05T10:29:25Z</time>
      </trkpt>
      <trkpt lat="50.13971" lon="4.90606">
        <ele>171.4</ele>
        <time>2025-04-05T10:29:26Z</time>
      </trkpt>
      <trkpt lat="50.13974" lon="4.90604">
        <ele>171.6</ele>
        <time>2025-04-05T10:29:27Z</time>
      </trkpt>
      <trkpt lat="50.13976" lon="4.90603">
        <ele>171.8</ele>
        <time>2025-04-05T10:29:28Z</time>
      </trkpt>
      <trkpt lat="50.13979" lon="4.90601">
        <ele>171.8</ele>
        <time>2025-04-05T10:29:29Z</time>
      </trkpt>
      <trkpt lat="50.13981" lon="4.90599">
        <ele>172</ele>
        <time>2025-04-05T10:29:30Z</time>
      </trkpt>
      <trkpt lat="50.13984" lon="4.90598">
        <ele>172.2</ele>
        <time>2025-04-05T10:29:31Z</time>
      </trkpt>
      <trkpt lat="50.13986" lon="4.90597">
        <ele>172.4</ele>
        <time>2025-04-05T10:29:32Z</time>
      </trkpt>
      <trkpt lat="50.13989" lon="4.90595">
        <ele>172.6</ele>
        <time>2025-04-05T10:29:33Z</time>
      </trkpt>
      <trkpt lat="50.13992" lon="4.90593">
        <ele>172.8</ele>
        <time>2025-04-05T10:29:34Z</time>
      </trkpt>
      <trkpt lat="50.13994" lon="4.90591">
        <ele>173</ele>
        <time>2025-04-05T10:29:35Z</time>
      </trkpt>
      <trkpt lat="50.13996" lon="4.9059">
        <ele>173.2</ele>
        <time>2025-04-05T10:29:36Z</time>
      </trkpt>
      <trkpt lat="50.13998" lon="4.90588">
        <ele>173.2</ele>
        <time>2025-04-05T10:29:37Z</time>
      </trkpt>
      <trkpt lat="50.14001" lon="4.90586">
        <ele>173.4</ele>
        <time>2025-04-05T10:29:38Z</time>
      </trkpt>
      <trkpt lat="50.14003" lon="4.90583">
        <ele>173.6</ele>
        <time>2025-04-05T10:29:39Z</time>
      </trkpt>
      <trkpt lat="50.14005" lon="4.90581">
        <ele>173.8</ele>
        <time>2025-04-05T10:29:40Z</time>
      </trkpt>
      <trkpt lat="50.14008" lon="4.90579">
        <ele>174</ele>
        <time>2025-04-05T10:29:41Z</time>
      </trkpt>
      <trkpt lat="50.14011" lon="4.90576">
        <ele>174.2</ele>
        <time>2025-04-05T10:29:42Z</time>
      </trkpt>
      <trkpt lat="50.14013" lon="4.90574">
        <ele>174.4</ele>
        <time>2025-04-05T10:29:43Z</time>
      </trkpt>
      <trkpt lat="50.14015" lon="4.90571">
        <ele>174.4</ele>
        <time>2025-04-05T10:29:44Z</time>
      </trkpt>
      <trkpt lat="50.14017" lon="4.90569">
        <ele>174.6</ele>
        <time>2025-04-05T10:29:45Z</time>
      </trkpt>
      <trkpt lat="50.14019" lon="4.90566">
        <ele>174.8</ele>
        <time>2025-04-05T10:29:46Z</time>
      </trkpt>
      <trkpt lat="50.14022" lon="4.90564">
        <ele>174.8</ele>
        <time>2025-04-05T10:29:47Z</time>
      </trkpt>
      <trkpt lat="50.14024" lon="4.90561">
        <ele>175</ele>
        <time>2025-04-05T10:29:48Z</time>
      </trkpt>
      <trkpt lat="50.14026" lon="4.90559">
        <ele>175.2</ele>
        <time>2025-04-05T10:29:49Z</time>
      </trkpt>
      <trkpt lat="50.14029" lon="4.90556">
        <ele>175.2</ele>
        <time>2025-04-05T10:29:50Z</time>
      </trkpt>
      <trkpt lat="50.14031" lon="4.90553">
        <ele>175.4</ele>
        <time>2025-04-05T10:29:51Z</time>
      </trkpt>
      <trkpt lat="50.14034" lon="4.9055">
        <ele>175.6</ele>
        <time>2025-04-05T10:29:52Z</time>
      </trkpt>
      <trkpt lat="50.14036" lon="4.90547">
        <ele>175.8</ele>
        <time>2025-04-05T10:29:53Z</time>
      </trkpt>
      <trkpt lat="50.14038" lon="4.90545">
        <ele>176</ele>
        <time>2025-04-05T10:29:54Z</time>
      </trkpt>
      <trkpt lat="50.1404" lon="4.90542">
        <ele>176.2</ele>
        <time>2025-04-05T10:29:55Z</time>
      </trkpt>
      <trkpt lat="50.14042" lon="4.90539">
        <ele>176.2</ele>
        <time>2025-04-05T10:29:56Z</time>
      </trkpt>
      <trkpt lat="50.14044" lon="4.90537">
        <ele>176.4</ele>
        <time>2025-04-05T10:29:57Z</time>
      </trkpt>
      <trkpt lat="50.14046" lon="4.90534">
        <ele>176.6</ele>
        <time>2025-04-05T10:29:58Z</time>
      </trkpt>
      <trkpt lat="50.14048" lon="4.90531">
        <ele>176.8</ele>
        <time>2025-04-05T10:29:59Z</time>
      </trkpt>
      <trkpt lat="50.1405" lon="4.90527">
        <ele>177</ele>
        <time>2025-04-05T10:30:00Z</time>
      </trkpt>
      <trkpt lat="50.14053" lon="4.90524">
        <ele>177.2</ele>
        <time>2025-04-05T10:30:01Z</time>
      </trkpt>
      <trkpt lat="50.14055" lon="4.90522">
        <ele>177.2</ele>
        <time>2025-04-05T10:30:02Z</time>
      </trkpt>
      <trkpt lat="50.14056" lon="4.90519">
        <ele>177.4</ele>
        <time>2025-04-05T10:30:03Z</time>
      </trkpt>
      <trkpt lat="50.14058" lon="4.90516">
        <ele>177.6</ele>
        <time>2025-04-05T10:30:04Z</time>
      </trkpt>
      <trkpt lat="50.1406" lon="4.90513">
        <ele>177.8</ele>
        <time>2025-04-05T10:30:05Z</time>
      </trkpt>
      <trkpt lat="50.14061" lon="4.9051">
        <ele>177.8</ele>
        <time>2025-04-05T10:30:06Z</time>
      </trkpt>
      <trkpt lat="50.14063" lon="4.90507">
        <ele>178</ele>
        <time>2025-04-05T10:30:07Z</time>
      </trkpt>
      <trkpt lat="50.14065" lon="4.90504">
        <ele>178</ele>
        <time>2025-04-05T10:30:08Z</time>
      </trkpt>
      <trkpt lat="50.14067" lon="4.90501">
        <ele>178.2</ele>
        <time>2025-04-05T10:30:09Z</time>
      </trkpt>
      <trkpt lat="50.14069" lon="4.90497">
        <ele>178.6</ele>
        <time>2025-04-05T10:30:10Z</time>
      </trkpt>
      <trkpt lat="50.14072" lon="4.90494">
        <ele>178.8</ele>
        <time>2025-04-05T10:30:11Z</time>
      </trkpt>
      <trkpt lat="50.14074" lon="4.90492">
        <ele>179</ele>
        <time>2025-04-05T10:30:12Z</time>
      </trkpt>
      <trkpt lat="50.14076" lon="4.90489">
        <ele>179.2</ele>
        <time>2025-04-05T10:30:13Z</time>
      </trkpt>
      <trkpt lat="50.14077" lon="4.90485">
        <ele>179.4</ele>
        <time>2025-04-05T10:30:14Z</time>
      </trkpt>
      <trkpt lat="50.1408" lon="4.90482">
        <ele>179.4</ele>
        <time>2025-04-05T10:30:15Z</time>
      </trkpt>
      <trkpt lat="50.14082" lon="4.90479">
        <ele>179.6</ele>
        <time>2025-04-05T10:30:16Z</time>
      </trkpt>
      <trkpt lat="50.14084" lon="4.90476">
        <ele>179.8</ele>
        <time>2025-04-05T10:30:17Z</time>
      </trkpt>
      <trkpt lat="50.14085" lon="4.90472">
        <ele>179.8</ele>
        <time>2025-04-05T10:30:18Z</time>
      </trkpt>
      <trkpt lat="50.14087" lon="4.90469">
        <ele>180</ele>
        <time>2025-04-05T10:30:19Z</time>
      </trkpt>
      <trkpt lat="50.14089" lon="4.90467">
        <ele>180.2</ele>
        <time>2025-04-05T10:30:20Z</time>
      </trkpt>
      <trkpt lat="50.14091" lon="4.90463">
        <ele>180.4</ele>
        <time>2025-04-05T10:30:21Z</time>
      </trkpt>
      <trkpt lat="50.14093" lon="4.9046">
        <ele>180.4</ele>
        <time>2025-04-05T10:30:22Z</time>
      </trkpt>
      <trkpt lat="50.14095" lon="4.90457">
        <ele>180.6</ele>
        <time>2025-04-05T10:30:23Z</time>
      </trkpt>
      <trkpt lat="50.14097" lon="4.90454">
        <ele>180.8</ele>
        <time>2025-04-05T10:30:24Z</time>
      </trkpt>
      <trkpt lat="50.14098" lon="4.90451">
        <ele>180.8</ele>
        <time>2025-04-05T10:30:25Z</time>
      </trkpt>
      <trkpt lat="50.141" lon="4.90448">
        <ele>181</ele>
        <time>2025-04-05T10:30:26Z</time>
      </trkpt>
      <trkpt lat="50.14103" lon="4.90445">
        <ele>181.2</ele>
        <time>2025-04-05T10:30:27Z</time>
      </trkpt>
      <trkpt lat="50.14105" lon="4.90442">
        <ele>181.2</ele>
        <time>2025-04-05T10:30:28Z</time>
      </trkpt>
      <trkpt lat="50.14106" lon="4.90439">
        <ele>181.4</ele>
        <time>2025-04-05T10:30:29Z</time>
      </trkpt>
      <trkpt lat="50.14108" lon="4.90436">
        <ele>181.6</ele>
        <time>2025-04-05T10:30:30Z</time>
      </trkpt>
      <trkpt lat="50.14111" lon="4.90433">
        <ele>181.8</ele>
        <time>2025-04-05T10:30:31Z</time>
      </trkpt>
      <trkpt lat="50.14113" lon="4.9043">
        <ele>182</ele>
        <time>2025-04-05T10:30:32Z</time>
      </trkpt>
      <trkpt lat="50.14115" lon="4.90427">
        <ele>182.2</ele>
        <time>2025-04-05T10:30:33Z</time>
      </trkpt>
      <trkpt lat="50.14117" lon="4.90425">
        <ele>182.4</ele>
        <time>2025-04-05T10:30:34Z</time>
      </trkpt>
      <trkpt lat="50.14119" lon="4.90422">
        <ele>182.6</ele>
        <time>2025-04-05T10:30:35Z</time>
      </trkpt>
      <trkpt lat="50.14121" lon="4.9042">
        <ele>182.8</ele>
        <time>2025-04-05T10:30:36Z</time>
      </trkpt>
      <trkpt lat="50.14123" lon="4.90419">
        <ele>183</ele>
        <time>2025-04-05T10:30:37Z</time>
      </trkpt>
      <trkpt lat="50.14125" lon="4.90417">
        <ele>183.2</ele>
        <time>2025-04-05T10:30:38Z</time>
      </trkpt>
      <trkpt lat="50.14128" lon="4.90414">
        <ele>183.2</ele>
        <time>2025-04-05T10:30:39Z</time>
      </trkpt>
      <trkpt lat="50.14131" lon="4.90412">
        <ele>183.4</ele>
        <time>2025-04-05T10:30:40Z</time>
      </trkpt>
      <trkpt lat="50.14133" lon="4.9041">
        <ele>183.6</ele>
        <time>2025-04-05T10:30:41Z</time>
      </trkpt>
      <trkpt lat="50.14136" lon="4.90409">
        <ele>183.8</ele>
        <time>2025-04-05T10:30:42Z</time>
      </trkpt>
      <trkpt lat="50.14138" lon="4.90407">
        <ele>184</ele>
        <time>2025-04-05T10:30:43Z</time>
      </trkpt>
      <trkpt lat="50.1414" lon="4.90406">
        <ele>184.2</ele>
        <time>2025-04-05T10:30:44Z</time>
      </trkpt>
      <trkpt lat="50.14143" lon="4.90404">
        <ele>184.4</ele>
        <time>2025-04-05T10:30:45Z</time>
      </trkpt>
      <trkpt lat="50.14146" lon="4.90403">
        <ele>184.4</ele>
        <time>2025-04-05T10:30:46Z</time>
      </trkpt>
      <trkpt lat="50.14148" lon="4.90401">
        <ele>184.6</ele>
        <time>2025-04-05T10:30:47Z</time>
      </trkpt>
      <trkpt lat="50.14151" lon="4.904">
        <ele>184.8</ele>
        <time>2025-04-05T10:30:48Z</time>
      </trkpt>
      <trkpt lat="50.14153" lon="4.90398">
        <ele>184.8</ele>
        <time>2025-04-05T10:30:49Z</time>
      </trkpt>
      <trkpt lat="50.14156" lon="4.90397">
        <ele>185</ele>
        <time>2025-04-05T10:30:50Z</time>
      </trkpt>
      <trkpt lat="50.14158" lon="4.90396">
        <ele>185.2</ele>
        <time>2025-04-05T10:30:51Z</time>
      </trkpt>
      <trkpt lat="50.14161" lon="4.90395">
        <ele>185.4</ele>
        <time>2025-04-05T10:30:52Z</time>
      </trkpt>
      <trkpt lat="50.14164" lon="4.90395">
        <ele>185.4</ele>
        <time>2025-04-05T10:30:53Z</time>
      </trkpt>
      <trkpt lat="50.14166" lon="4.90393">
        <ele>185.6</ele>
        <time>2025-04-05T10:30:54Z</time>
      </trkpt>
      <trkpt lat="50.14169" lon="4.90392">
        <ele>185.8</ele>
        <time>2025-04-05T10:30:55Z</time>
      </trkpt>
      <trkpt lat="50.14172" lon="4.90392">
        <ele>186</ele>
        <time>2025-04-05T10:30:56Z</time>
      </trkpt>
      <trkpt lat="50.14175" lon="4.90391">
        <ele>186.4</ele>
        <time>2025-04-05T10:30:57Z</time>
      </trkpt>
      <trkpt lat="50.14178" lon="4.9039">
        <ele>186.6</ele>
        <time>2025-04-05T10:30:58Z</time>
      </trkpt>
      <trkpt lat="50.1418" lon="4.90389">
        <ele>186.8</ele>
        <time>2025-04-05T10:30:59Z</time>
      </trkpt>
      <trkpt lat="50.14183" lon="4.90389">
        <ele>186.8</ele>
        <time>2025-04-05T10:31:00Z</time>
      </trkpt>
      <trkpt lat="50.14185" lon="4.90389">
        <ele>187</ele>
        <time>2025-04-05T10:31:01Z</time>
      </trkpt>
      <trkpt lat="50.14188" lon="4.90389">
        <ele>187.2</ele>
        <time>2025-04-05T10:31:02Z</time>
      </trkpt>
      <trkpt lat="50.14191" lon="4.90389">
        <ele>187.4</ele>
        <time>2025-04-05T10:31:03Z</time>
      </trkpt>
      <trkpt lat="50.14193" lon="4.90389">
        <ele>187.4</ele>
        <time>2025-04-05T10:31:04Z</time>
      </trkpt>
      <trkpt lat="50.14196" lon="4.90388">
        <ele>187.6</ele>
        <time>2025-04-05T10:31:05Z</time>
      </trkpt>
      <trkpt lat="50.14199" lon="4.90388">
        <ele>187.8</ele>
        <time>2025-04-05T10:31:06Z</time>
      </trkpt>
      <trkpt lat="50.14202" lon="4.90388">
        <ele>188</ele>
        <time>2025-04-05T10:31:07Z</time>
      </trkpt>
      <trkpt lat="50.14205" lon="4.90389">
        <ele>188</ele>
        <time>2025-04-05T10:31:08Z</time>
      </trkpt>
      <trkpt lat="50.14208" lon="4.90389">
        <ele>188.2</ele>
        <time>2025-04-05T10:31:09Z</time>
      </trkpt>
      <trkpt lat="50.1421" lon="4.90389">
        <ele>188.4</ele>
        <time>2025-04-05T10:31:10Z</time>
      </trkpt>
      <trkpt lat="50.14212" lon="4.9039">
        <ele>188.6</ele>
        <time>2025-04-05T10:31:11Z</time>
      </trkpt>
      <trkpt lat="50.14215" lon="4.90391">
        <ele>188.8</ele>
        <time>2025-04-05T10:31:12Z</time>
      </trkpt>
      <trkpt lat="50.14217" lon="4.90392">
        <ele>189</ele>
        <time>2025-04-05T10:31:13Z</time>
      </trkpt>
      <trkpt lat="50.1422" lon="4.90393">
        <ele>189.2</ele>
        <time>2025-04-05T10:31:14Z</time>
      </trkpt>
      <trkpt lat="50.14223" lon="4.90395">
        <ele>189.4</ele>
        <time>2025-04-05T10:31:15Z</time>
      </trkpt>
      <trkpt lat="50.14225" lon="4.90395">
        <ele>189.6</ele>
        <time>2025-04-05T10:31:16Z</time>
      </trkpt>
      <trkpt lat="50.14227" lon="4.90396">
        <ele>189.8</ele>
        <time>2025-04-05T10:31:17Z</time>
      </trkpt>
      <trkpt lat="50.1423" lon="4.90397">
        <ele>190</ele>
        <time>2025-04-05T10:31:18Z</time>
      </trkpt>
      <trkpt lat="50.14232" lon="4.90399">
        <ele>190.2</ele>
        <time>2025-04-05T10:31:19Z</time>
      </trkpt>
      <trkpt lat="50.14235" lon="4.904">
        <ele>190.4</ele>
        <time>2025-04-05T10:31:20Z</time>
      </trkpt>
      <trkpt lat="50.14238" lon="4.90402">
        <ele>190.4</ele>
        <time>2025-04-05T10:31:21Z</time>
      </trkpt>
      <trkpt lat="50.1424" lon="4.90403">
        <ele>190.6</ele>
        <time>2025-04-05T10:31:22Z</time>
      </trkpt>
      <trkpt lat="50.14243" lon="4.90406">
        <ele>190.8</ele>
        <time>2025-04-05T10:31:23Z</time>
      </trkpt>
      <trkpt lat="50.14246" lon="4.90407">
        <ele>190.8</ele>
        <time>2025-04-05T10:31:24Z</time>
      </trkpt>
      <trkpt lat="50.14248" lon="4.90408">
        <ele>191</ele>
        <time>2025-04-05T10:31:25Z</time>
      </trkpt>
      <trkpt lat="50.14251" lon="4.90409">
        <ele>191.2</ele>
        <time>2025-04-05T10:31:26Z</time>
      </trkpt>
      <trkpt lat="50.14253" lon="4.9041">
        <ele>191.4</ele>
        <time>2025-04-05T10:31:27Z</time>
      </trkpt>
      <trkpt lat="50.14255" lon="4.90412">
        <ele>191.6</ele>
        <time>2025-04-05T10:31:28Z</time>
      </trkpt>
      <trkpt lat="50.14258" lon="4.90413">
        <ele>191.8</ele>
        <time>2025-04-05T10:31:29Z</time>
      </trkpt>
      <trkpt lat="50.1426" lon="4.90415">
        <ele>192</ele>
        <time>2025-04-05T10:31:30Z</time>
      </trkpt>
      <trkpt lat="50.14263" lon="4.90416">
        <ele>192.2</ele>
        <time>2025-04-05T10:31:31Z</time>
      </trkpt>
      <trkpt lat="50.14265" lon="4.90417">
        <ele>192.4</ele>
        <time>2025-04-05T10:31:32Z</time>
      </trkpt>
      <trkpt lat="50.14268" lon="4.90419">
        <ele>192.6</ele>
        <time>2025-04-05T10:31:33Z</time>
      </trkpt>
      <trkpt lat="50.1427" lon="4.9042">
        <ele>192.8</ele>
        <time>2025-04-05T10:31:34Z</time>
      </trkpt>
      <trkpt lat="50.14273" lon="4.90421">
        <ele>193</ele>
        <time>2025-04-05T10:31:35Z</time>
      </trkpt>
      <trkpt lat="50.14276" lon="4.90423">
        <ele>193</ele>
        <time>2025-04-05T10:31:36Z</time>
      </trkpt>
      <trkpt lat="50.14278" lon="4.90424">
        <ele>193.2</ele>
        <time>2025-04-05T10:31:37Z</time>
      </trkpt>
      <trkpt lat="50.14281" lon="4.90425">
        <ele>193.4</ele>
        <time>2025-04-05T10:31:38Z</time>
      </trkpt>
      <trkpt lat="50.14284" lon="4.90427">
        <ele>193.4</ele>
        <time>2025-04-05T10:31:39Z</time>
      </trkpt>
      <trkpt lat="50.14286" lon="4.90428">
        <ele>193.6</ele>
        <time>2025-04-05T10:31:40Z</time>
      </trkpt>
      <trkpt lat="50.14288" lon="4.90429">
        <ele>193.8</ele>
        <time>2025-04-05T10:31:41Z</time>
      </trkpt>
      <trkpt lat="50.14291" lon="4.90431">
        <ele>194</ele>
        <time>2025-04-05T10:31:42Z</time>
      </trkpt>
      <trkpt lat="50.14293" lon="4.90432">
        <ele>194.2</ele>
        <time>2025-04-05T10:31:43Z</time>
      </trkpt>
      <trkpt lat="50.14296" lon="4.90433">
        <ele>194.4</ele>
        <time>2025-04-05T10:31:44Z</time>
      </trkpt>
      <trkpt lat="50.14299" lon="4.90434">
        <ele>194.4</ele>
        <time>2025-04-05T10:31:45Z</time>
      </trkpt>
      <trkpt lat="50.14301" lon="4.90436">
        <ele>194.6</ele>
        <time>2025-04-05T10:31:46Z</time>
      </trkpt>
      <trkpt lat="50.14304" lon="4.90437">
        <ele>194.8</ele>
        <time>2025-04-05T10:31:47Z</time>
      </trkpt>
      <trkpt lat="50.14307" lon="4.90438">
        <ele>195</ele>
        <time>2025-04-05T10:31:48Z</time>
      </trkpt>
      <trkpt lat="50.1431" lon="4.90439">
        <ele>195.2</ele>
        <time>2025-04-05T10:31:49Z</time>
      </trkpt>
      <trkpt lat="50.14312" lon="4.9044">
        <ele>195.2</ele>
        <time>2025-04-05T10:31:50Z</time>
      </trkpt>
      <trkpt lat="50.14315" lon="4.9044">
        <ele>195.4</ele>
        <time>2025-04-05T10:31:51Z</time>
      </trkpt>
      <trkpt lat="50.14318" lon="4.90441">
        <ele>195.6</ele>
        <time>2025-04-05T10:31:52Z</time>
      </trkpt>
      <trkpt lat="50.1432" lon="4.90442">
        <ele>195.8</ele>
        <time>2025-04-05T10:31:53Z</time>
      </trkpt>
      <trkpt lat="50.14323" lon="4.90443">
        <ele>195.8</ele>
        <time>2025-04-05T10:31:54Z</time>
      </trkpt>
      <trkpt lat="50.14326" lon="4.90444">
        <ele>196</ele>
        <time>2025-04-05T10:31:55Z</time>
      </trkpt>
      <trkpt lat="50.14328" lon="4.90444">
        <ele>196</ele>
        <time>2025-04-05T10:31:56Z</time>
      </trkpt>
      <trkpt lat="50.14331" lon="4.90445">
        <ele>196.2</ele>
        <time>2025-04-05T10:31:57Z</time>
      </trkpt>
      <trkpt lat="50.14334" lon="4.90445">
        <ele>196.4</ele>
        <time>2025-04-05T10:31:58Z</time>
      </trkpt>
      <trkpt lat="50.14337" lon="4.90446">
        <ele>196.6</ele>
        <time>2025-04-05T10:31:59Z</time>
      </trkpt>
      <trkpt lat="50.1434" lon="4.90447">
        <ele>196.8</ele>
        <time>2025-04-05T10:32:00Z</time>
      </trkpt>
      <trkpt lat="50.14343" lon="4.90447">
        <ele>196.8</ele>
        <time>2025-04-05T10:32:01Z</time>
      </trkpt>
      <trkpt lat="50.14345" lon="4.90448">
        <ele>197</ele>
        <time>2025-04-05T10:32:02Z</time>
      </trkpt>
      <trkpt lat="50.14348" lon="4.90448">
        <ele>197.2</ele>
        <time>2025-04-05T10:32:03Z</time>
      </trkpt>
      <trkpt lat="50.14351" lon="4.90448">
        <ele>197.4</ele>
        <time>2025-04-05T10:32:04Z</time>
      </trkpt>
      <trkpt lat="50.14354" lon="4.90449">
        <ele>197.4</ele>
        <time>2025-04-05T10:32:05Z</time>
      </trkpt>
      <trkpt lat="50.14357" lon="4.90449">
        <ele>197.6</ele>
        <time>2025-04-05T10:32:06Z</time>
      </trkpt>
      <trkpt lat="50.1436" lon="4.9045">
        <ele>197.6</ele>
        <time>2025-04-05T10:32:07Z</time>
      </trkpt>
      <trkpt lat="50.14363" lon="4.9045">
        <ele>197.8</ele>
        <time>2025-04-05T10:32:08Z</time>
      </trkpt>
      <trkpt lat="50.14365" lon="4.90451">
        <ele>198</ele>
        <time>2025-04-05T10:32:09Z</time>
      </trkpt>
      <trkpt lat="50.14368" lon="4.90451">
        <ele>198.2</ele>
        <time>2025-04-05T10:32:10Z</time>
      </trkpt>
      <trkpt lat="50.14371" lon="4.90451">
        <ele>198.4</ele>
        <time>2025-04-05T10:32:11Z</time>
      </trkpt>
      <trkpt lat="50.14373" lon="4.90452">
        <ele>198.6</ele>
        <time>2025-04-05T10:32:12Z</time>
      </trkpt>
      <trkpt lat="50.14376" lon="4.90452">
        <ele>198.6</ele>
        <time>2025-04-05T10:32:13Z</time>
      </trkpt>
      <trkpt lat="50.14378" lon="4.90453">
        <ele>198.8</ele>
        <time>2025-04-05T10:32:14Z</time>
      </trkpt>
      <trkpt lat="50.14381" lon="4.90453">
        <ele>199</ele>
        <time>2025-04-05T10:32:15Z</time>
      </trkpt>
      <trkpt lat="50.14383" lon="4.90454">
        <ele>199.2</ele>
        <time>2025-04-05T10:32:16Z</time>
      </trkpt>
      <trkpt lat="50.14386" lon="4.90455">
        <ele>199.4</ele>
        <time>2025-04-05T10:32:17Z</time>
      </trkpt>
      <trkpt lat="50.14389" lon="4.90456">
        <ele>199.6</ele>
        <time>2025-04-05T10:32:18Z</time>
      </trkpt>
      <trkpt lat="50.14391" lon="4.90457">
        <ele>199.6</ele>
        <time>2025-04-05T10:32:19Z</time>
      </trkpt>
      <trkpt lat="50.14394" lon="4.90458">
        <ele>199.8</ele>
        <time>2025-04-05T10:32:20Z</time>
      </trkpt>
      <trkpt lat="50.14397" lon="4.90459">
        <ele>200</ele>
        <time>2025-04-05T10:32:21Z</time>
      </trkpt>
      <trkpt lat="50.14399" lon="4.9046">
        <ele>200.2</ele>
        <time>2025-04-05T10:32:22Z</time>
      </trkpt>
      <trkpt lat="50.14402" lon="4.90462">
        <ele>200.2</ele>
        <time>2025-04-05T10:32:23Z</time>
      </trkpt>
      <trkpt lat="50.14405" lon="4.90463">
        <ele>200.4</ele>
        <time>2025-04-05T10:32:24Z</time>
      </trkpt>
      <trkpt lat="50.14407" lon="4.90465">
        <ele>200.6</ele>
        <time>2025-04-05T10:32:25Z</time>
      </trkpt>
      <trkpt lat="50.1441" lon="4.90467">
        <ele>200.8</ele>
        <time>2025-04-05T10:32:26Z</time>
      </trkpt>
      <trkpt lat="50.14412" lon="4.90468">
        <ele>201</ele>
        <time>2025-04-05T10:32:27Z</time>
      </trkpt>
      <trkpt lat="50.14415" lon="4.9047">
        <ele>201.2</ele>
        <time>2025-04-05T10:32:28Z</time>
      </trkpt>
      <trkpt lat="50.14417" lon="4.90472">
        <ele>201.4</ele>
        <time>2025-04-05T10:32:29Z</time>
      </trkpt>
      <trkpt lat="50.1442" lon="4.90473">
        <ele>201.6</ele>
        <time>2025-04-05T10:32:30Z</time>
      </trkpt>
      <trkpt lat="50.14422" lon="4.90475">
        <ele>201.6</ele>
        <time>2025-04-05T10:32:31Z</time>
      </trkpt>
      <trkpt lat="50.14425" lon="4.90477">
        <ele>201.8</ele>
        <time>2025-04-05T10:32:32Z</time>
      </trkpt>
      <trkpt lat="50.14427" lon="4.90478">
        <ele>202</ele>
        <time>2025-04-05T10:32:33Z</time>
      </trkpt>
      <trkpt lat="50.14429" lon="4.9048">
        <ele>202</ele>
        <time>2025-04-05T10:32:34Z</time>
      </trkpt>
      <trkpt lat="50.14431" lon="4.90482">
        <ele>202.2</ele>
        <time>2025-04-05T10:32:35Z</time>
      </trkpt>
      <trkpt lat="50.14434" lon="4.90484">
        <ele>202.4</ele>
        <time>2025-04-05T10:32:36Z</time>
      </trkpt>
      <trkpt lat="50.14437" lon="4.90486">
        <ele>202.6</ele>
        <time>2025-04-05T10:32:37Z</time>
      </trkpt>
      <trkpt lat="50.14439" lon="4.90488">
        <ele>202.8</ele>
        <time>2025-04-05T10:32:38Z</time>
      </trkpt>
      <trkpt lat="50.14442" lon="4.9049">
        <ele>203</ele>
        <time>2025-04-05T10:32:39Z</time>
      </trkpt>
      <trkpt lat="50.14444" lon="4.90492">
        <ele>203.2</ele>
        <time>2025-04-05T10:32:40Z</time>
      </trkpt>
      <trkpt lat="50.14447" lon="4.90494">
        <ele>203.4</ele>
        <time>2025-04-05T10:32:41Z</time>
      </trkpt>
      <trkpt lat="50.14449" lon="4.90497">
        <ele>203.4</ele>
        <time>2025-04-05T10:32:42Z</time>
      </trkpt>
      <trkpt lat="50.14452" lon="4.90499">
        <ele>203.6</ele>
        <time>2025-04-05T10:32:43Z</time>
      </trkpt>
      <trkpt lat="50.14454" lon="4.90501">
        <ele>203.8</ele>
        <time>2025-04-05T10:32:44Z</time>
      </trkpt>
      <trkpt lat="50.14457" lon="4.90503">
        <ele>204</ele>
        <time>2025-04-05T10:32:45Z</time>
      </trkpt>
      <trkpt lat="50.14459" lon="4.90505">
        <ele>204.2</ele>
        <time>2025-04-05T10:32:46Z</time>
      </trkpt>
      <trkpt lat="50.14462" lon="4.90507">
        <ele>204.2</ele>
        <time>2025-04-05T10:32:47Z</time>
      </trkpt>
      <trkpt lat="50.14464" lon="4.90509">
        <ele>204.4</ele>
        <time>2025-04-05T10:32:48Z</time>
      </trkpt>
      <trkpt lat="50.14467" lon="4.90512">
        <ele>204.8</ele>
        <time>2025-04-05T10:32:49Z</time>
      </trkpt>
      <trkpt lat="50.14468" lon="4.90513">
        <ele>204.8</ele>
        <time>2025-04-05T10:32:50Z</time>
      </trkpt>
      <trkpt lat="50.1447" lon="4.90514">
        <ele>205</ele>
        <time>2025-04-05T10:32:51Z</time>
      </trkpt>
      <trkpt lat="50.14473" lon="4.90517">
        <ele>205.2</ele>
        <time>2025-04-05T10:32:52Z</time>
      </trkpt>
      <trkpt lat="50.14475" lon="4.90519">
        <ele>205.4</ele>
        <time>2025-04-05T10:32:53Z</time>
      </trkpt>
      <trkpt lat="50.14478" lon="4.90521">
        <ele>205.6</ele>
        <time>2025-04-05T10:32:54Z</time>
      </trkpt>
      <trkpt lat="50.1448" lon="4.90523">
        <ele>205.8</ele>
        <time>2025-04-05T10:32:55Z</time>
      </trkpt>
      <trkpt lat="50.14483" lon="4.90525">
        <ele>206</ele>
        <time>2025-04-05T10:32:56Z</time>
      </trkpt>
      <trkpt lat="50.14485" lon="4.90527">
        <ele>206.2</ele>
        <time>2025-04-05T10:32:57Z</time>
      </trkpt>
      <trkpt lat="50.14487" lon="4.90529">
        <ele>206.4</ele>
        <time>2025-04-05T10:32:58Z</time>
      </trkpt>
      <trkpt lat="50.1449" lon="4.90532">
        <ele>206.6</ele>
        <time>2025-04-05T10:32:59Z</time>
      </trkpt>
      <trkpt lat="50.14492" lon="4.90533">
        <ele>206.8</ele>
        <time>2025-04-05T10:33:00Z</time>
      </trkpt>
      <trkpt lat="50.14494" lon="4.90535">
        <ele>206.8</ele>
        <time>2025-04-05T10:33:01Z</time>
      </trkpt>
      <trkpt lat="50.14497" lon="4.90537">
        <ele>207</ele>
        <time>2025-04-05T10:33:02Z</time>
      </trkpt>
      <trkpt lat="50.145" lon="4.9054">
        <ele>207.2</ele>
        <time>2025-04-05T10:33:03Z</time>
      </trkpt>
      <trkpt lat="50.14502" lon="4.90542">
        <ele>207.4</ele>
        <time>2025-04-05T10:33:04Z</time>
      </trkpt>
      <trkpt lat="50.14505" lon="4.90544">
        <ele>207.4</ele>
        <time>2025-04-05T10:33:05Z</time>
      </trkpt>
      <trkpt lat="50.14507" lon="4.90547">
        <ele>207.6</ele>
        <time>2025-04-05T10:33:06Z</time>
      </trkpt>
      <trkpt lat="50.14509" lon="4.90549">
        <ele>207.8</ele>
        <time>2025-04-05T10:33:07Z</time>
      </trkpt>
      <trkpt lat="50.14512" lon="4.90551">
        <ele>208</ele>
        <time>2025-04-05T10:33:08Z</time>
      </trkpt>
      <trkpt lat="50.14513" lon="4.90553">
        <ele>208</ele>
        <time>2025-04-05T10:33:09Z</time>
      </trkpt>
      <trkpt lat="50.14516" lon="4.90555">
        <ele>208.2</ele>
        <time>2025-04-05T10:33:10Z</time>
      </trkpt>
      <trkpt lat="50.14519" lon="4.90558">
        <ele>208.4</ele>
        <time>2025-04-05T10:33:11Z</time>
      </trkpt>
      <trkpt lat="50.14521" lon="4.90561">
        <ele>208.6</ele>
        <time>2025-04-05T10:33:12Z</time>
      </trkpt>
      <trkpt lat="50.14524" lon="4.90564">
        <ele>208.6</ele>
        <time>2025-04-05T10:33:13Z</time>
      </trkpt>
      <trkpt lat="50.14527" lon="4.90567">
        <ele>208.8</ele>
        <time>2025-04-05T10:33:14Z</time>
      </trkpt>
      <trkpt lat="50.1453" lon="4.90569">
        <ele>208.8</ele>
        <time>2025-04-05T10:33:15Z</time>
      </trkpt>
      <trkpt lat="50.14533" lon="4.90572">
        <ele>209</ele>
        <time>2025-04-05T10:33:16Z</time>
      </trkpt>
      <trkpt lat="50.14535" lon="4.90574">
        <ele>209.2</ele>
        <time>2025-04-05T10:33:17Z</time>
      </trkpt>
      <trkpt lat="50.14537" lon="4.90576">
        <ele>209.2</ele>
        <time>2025-04-05T10:33:18Z</time>
      </trkpt>
      <trkpt lat="50.1454" lon="4.90579">
        <ele>209.4</ele>
        <time>2025-04-05T10:33:19Z</time>
      </trkpt>
      <trkpt lat="50.14543" lon="4.90581">
        <ele>209.6</ele>
        <time>2025-04-05T10:33:20Z</time>
      </trkpt>
      <trkpt lat="50.14545" lon="4.90584">
        <ele>209.6</ele>
        <time>2025-04-05T10:33:21Z</time>
      </trkpt>
      <trkpt lat="50.14547" lon="4.90586">
        <ele>209.8</ele>
        <time>2025-04-05T10:33:22Z</time>
      </trkpt>
      <trkpt lat="50.1455" lon="4.90589">
        <ele>209.8</ele>
        <time>2025-04-05T10:33:23Z</time>
      </trkpt>
      <trkpt lat="50.14553" lon="4.90592">
        <ele>210</ele>
        <time>2025-04-05T10:33:24Z</time>
      </trkpt>
      <trkpt lat="50.14555" lon="4.90594">
        <ele>210</ele>
        <time>2025-04-05T10:33:25Z</time>
      </trkpt>
      <trkpt lat="50.14557" lon="4.90597">
        <ele>210.2</ele>
        <time>2025-04-05T10:33:26Z</time>
      </trkpt>
      <trkpt lat="50.1456" lon="4.906">
        <ele>210.4</ele>
        <time>2025-04-05T10:33:27Z</time>
      </trkpt>
      <trkpt lat="50.14562" lon="4.90603">
        <ele>210.4</ele>
        <time>2025-04-05T10:33:28Z</time>
      </trkpt>
      <trkpt lat="50.14564" lon="4.90605">
        <ele>210.6</ele>
        <time>2025-04-05T10:33:29Z</time>
      </trkpt>
      <trkpt lat="50.14566" lon="4.90608">
        <ele>210.6</ele>
        <time>2025-04-05T10:33:30Z</time>
      </trkpt>
      <trkpt lat="50.14568" lon="4.90611">
        <ele>210.8</ele>
        <time>2025-04-05T10:33:31Z</time>
      </trkpt>
      <trkpt lat="50.14571" lon="4.90614">
        <ele>210.8</ele>
        <time>2025-04-05T10:33:32Z</time>
      </trkpt>
      <trkpt lat="50.14574" lon="4.90618">
        <ele>211</ele>
        <time>2025-04-05T10:33:33Z</time>
      </trkpt>
      <trkpt lat="50.14576" lon="4.90621">
        <ele>211.2</ele>
        <time>2025-04-05T10:33:34Z</time>
      </trkpt>
      <trkpt lat="50.14578" lon="4.90624">
        <ele>211.2</ele>
        <time>2025-04-05T10:33:35Z</time>
      </trkpt>
      <trkpt lat="50.14581" lon="4.90628">
        <ele>211.2</ele>
        <time>2025-04-05T10:33:36Z</time>
      </trkpt>
      <trkpt lat="50.14583" lon="4.90631">
        <ele>211.4</ele>
        <time>2025-04-05T10:33:37Z</time>
      </trkpt>
      <trkpt lat="50.14586" lon="4.90633">
        <ele>211.4</ele>
        <time>2025-04-05T10:33:38Z</time>
      </trkpt>
      <trkpt lat="50.14588" lon="4.90636">
        <ele>211.6</ele>
        <time>2025-04-05T10:33:39Z</time>
      </trkpt>
      <trkpt lat="50.14591" lon="4.90639">
        <ele>211.6</ele>
        <time>2025-04-05T10:33:40Z</time>
      </trkpt>
      <trkpt lat="50.14593" lon="4.90642">
        <ele>211.6</ele>
        <time>2025-04-05T10:33:41Z</time>
      </trkpt>
      <trkpt lat="50.14596" lon="4.90645">
        <ele>211.6</ele>
        <time>2025-04-05T10:33:42Z</time>
      </trkpt>
      <trkpt lat="50.14599" lon="4.90649">
        <ele>211.8</ele>
        <time>2025-04-05T10:33:43Z</time>
      </trkpt>
      <trkpt lat="50.14601" lon="4.90652">
        <ele>211.8</ele>
        <time>2025-04-05T10:33:44Z</time>
      </trkpt>
      <trkpt lat="50.14604" lon="4.90656">
        <ele>212</ele>
        <time>2025-04-05T10:33:45Z</time>
      </trkpt>
      <trkpt lat="50.14607" lon="4.90659">
        <ele>212</ele>
        <time>2025-04-05T10:33:46Z</time>
      </trkpt>
      <trkpt lat="50.1461" lon="4.90663">
        <ele>212</ele>
        <time>2025-04-05T10:33:47Z</time>
      </trkpt>
      <trkpt lat="50.14612" lon="4.90666">
        <ele>212.2</ele>
        <time>2025-04-05T10:33:48Z</time>
      </trkpt>
      <trkpt lat="50.14614" lon="4.90669">
        <ele>212.2</ele>
        <time>2025-04-05T10:33:49Z</time>
      </trkpt>
      <trkpt lat="50.14617" lon="4.90673">
        <ele>212.2</ele>
        <time>2025-04-05T10:33:50Z</time>
      </trkpt>
      <trkpt lat="50.1462" lon="4.90676">
        <ele>212.2</ele>
        <time>2025-04-05T10:33:51Z</time>
      </trkpt>
      <trkpt lat="50.14622" lon="4.90679">
        <ele>212.2</ele>
        <time>2025-04-05T10:33:52Z</time>
      </trkpt>
      <trkpt lat="50.14624" lon="4.90682">
        <ele>212.2</ele>
        <time>2025-04-05T10:33:53Z</time>
      </trkpt>
      <trkpt lat="50.14628" lon="4.90685">
        <ele>212.2</ele>
        <time>2025-04-05T10:33:54Z</time>
      </trkpt>
      <trkpt lat="50.14631" lon="4.90689">
        <ele>212.2</ele>
        <time>2025-04-05T10:33:55Z</time>
      </trkpt>
      <trkpt lat="50.14634" lon="4.90693">
        <ele>212.2</ele>
        <time>2025-04-05T10:33:56Z</time>
      </trkpt>
      <trkpt lat="50.14636" lon="4.90696">
        <ele>212.2</ele>
        <time>2025-04-05T10:33:57Z</time>
      </trkpt>
      <trkpt lat="50.1464" lon="4.907">
        <ele>212.2</ele>
        <time>2025-04-05T10:33:58Z</time>
      </trkpt>
      <trkpt lat="50.14642" lon="4.90704">
        <ele>212.4</ele>
        <time>2025-04-05T10:33:59Z</time>
      </trkpt>
      <trkpt lat="50.14645" lon="4.90708">
        <ele>212.4</ele>
        <time>2025-04-05T10:34:00Z</time>
      </trkpt>
      <trkpt lat="50.14648" lon="4.90711">
        <ele>212.4</ele>
        <time>2025-04-05T10:34:01Z</time>
      </trkpt>
      <trkpt lat="50.14651" lon="4.90715">
        <ele>212.4</ele>
        <time>2025-04-05T10:34:02Z</time>
      </trkpt>
      <trkpt lat="50.14654" lon="4.90719">
        <ele>212.4</ele>
        <time>2025-04-05T10:34:03Z</time>
      </trkpt>
      <trkpt lat="50.14657" lon="4.90724">
        <ele>212.2</ele>
        <time>2025-04-05T10:34:04Z</time>
      </trkpt>
      <trkpt lat="50.1466" lon="4.90728">
        <ele>212.2</ele>
        <time>2025-04-05T10:34:05Z</time>
      </trkpt>
      <trkpt lat="50.14664" lon="4.90732">
        <ele>212.2</ele>
        <time>2025-04-05T10:34:06Z</time>
      </trkpt>
      <trkpt lat="50.14667" lon="4.90736">
        <ele>212.2</ele>
        <time>2025-04-05T10:34:07Z</time>
      </trkpt>
      <trkpt lat="50.14671" lon="4.9074">
        <ele>212.2</ele>
        <time>2025-04-05T10:34:08Z</time>
      </trkpt>
      <trkpt lat="50.14674" lon="4.90745">
        <ele>212.2</ele>
        <time>2025-04-05T10:34:09Z</time>
      </trkpt>
      <trkpt lat="50.14677" lon="4.90749">
        <ele>212.2</ele>
        <time>2025-04-05T10:34:10Z</time>
      </trkpt>
      <trkpt lat="50.14681" lon="4.90753">
        <ele>212.2</ele>
        <time>2025-04-05T10:34:11Z</time>
      </trkpt>
      <trkpt lat="50.14684" lon="4.90758">
        <ele>212.2</ele>
        <time>2025-04-05T10:34:12Z</time>
      </trkpt>
      <trkpt lat="50.14688" lon="4.90763">
        <ele>212.2</ele>
        <time>2025-04-05T10:34:13Z</time>
      </trkpt>
      <trkpt lat="50.14691" lon="4.90767">
        <ele>212</ele>
        <time>2025-04-05T10:34:14Z</time>
      </trkpt>
      <trkpt lat="50.14695" lon="4.90772">
        <ele>212</ele>
        <time>2025-04-05T10:34:15Z</time>
      </trkpt>
      <trkpt lat="50.14698" lon="4.90776">
        <ele>212</ele>
        <time>2025-04-05T10:34:16Z</time>
      </trkpt>
      <trkpt lat="50.14702" lon="4.90781">
        <ele>212</ele>
        <time>2025-04-05T10:34:17Z</time>
      </trkpt>
      <trkpt lat="50.14705" lon="4.90785">
        <ele>212</ele>
        <time>2025-04-05T10:34:18Z</time>
      </trkpt>
      <trkpt lat="50.14708" lon="4.90788">
        <ele>212</ele>
        <time>2025-04-05T10:34:19Z</time>
      </trkpt>
      <trkpt lat="50.14711" lon="4.90792">
        <ele>212</ele>
        <time>2025-04-05T10:34:20Z</time>
      </trkpt>
      <trkpt lat="50.14714" lon="4.90797">
        <ele>212</ele>
        <time>2025-04-05T10:34:21Z</time>
      </trkpt>
      <trkpt lat="50.14718" lon="4.90801">
        <ele>212</ele>
        <time>2025-04-05T10:34:22Z</time>
      </trkpt>
      <trkpt lat="50.14721" lon="4.90805">
        <ele>212</ele>
        <time>2025-04-05T10:34:23Z</time>
      </trkpt>
      <trkpt lat="50.14724" lon="4.9081">
        <ele>212.2</ele>
        <time>2025-04-05T10:34:24Z</time>
      </trkpt>
      <trkpt lat="50.14728" lon="4.90814">
        <ele>212.2</ele>
        <time>2025-04-05T10:34:25Z</time>
      </trkpt>
      <trkpt lat="50.14732" lon="4.90818">
        <ele>212.2</ele>
        <time>2025-04-05T10:34:26Z</time>
      </trkpt>
      <trkpt lat="50.14735" lon="4.90823">
        <ele>212.2</ele>
        <time>2025-04-05T10:34:27Z</time>
      </trkpt>
      <trkpt lat="50.14739" lon="4.90827">
        <ele>212.4</ele>
        <time>2025-04-05T10:34:28Z</time>
      </trkpt>
      <trkpt lat="50.14742" lon="4.90831">
        <ele>212.4</ele>
        <time>2025-04-05T10:34:29Z</time>
      </trkpt>
      <trkpt lat="50.14745" lon="4.90836">
        <ele>212.4</ele>
        <time>2025-04-05T10:34:30Z</time>
      </trkpt>
      <trkpt lat="50.14749" lon="4.90841">
        <ele>212.4</ele>
        <time>2025-04-05T10:34:31Z</time>
      </trkpt>
      <trkpt lat="50.14752" lon="4.90845">
        <ele>212.6</ele>
        <time>2025-04-05T10:34:32Z</time>
      </trkpt>
      <trkpt lat="50.14755" lon="4.90849">
        <ele>212.6</ele>
        <time>2025-04-05T10:34:33Z</time>
      </trkpt>
      <trkpt lat="50.14758" lon="4.90853">
        <ele>212.6</ele>
        <time>2025-04-05T10:34:34Z</time>
      </trkpt>
      <trkpt lat="50.14761" lon="4.90858">
        <ele>212.8</ele>
        <time>2025-04-05T10:34:35Z</time>
      </trkpt>
      <trkpt lat="50.14764" lon="4.90862">
        <ele>212.8</ele>
        <time>2025-04-05T10:34:36Z</time>
      </trkpt>
      <trkpt lat="50.14767" lon="4.90866">
        <ele>212.8</ele>
        <time>2025-04-05T10:34:37Z</time>
      </trkpt>
      <trkpt lat="50.14771" lon="4.9087">
        <ele>213</ele>
        <time>2025-04-05T10:34:38Z</time>
      </trkpt>
      <trkpt lat="50.14774" lon="4.90874">
        <ele>213</ele>
        <time>2025-04-05T10:34:39Z</time>
      </trkpt>
      <trkpt lat="50.14778" lon="4.90879">
        <ele>213.2</ele>
        <time>2025-04-05T10:34:40Z</time>
      </trkpt>
      <trkpt lat="50.14781" lon="4.90882">
        <ele>213.2</ele>
        <time>2025-04-05T10:34:41Z</time>
      </trkpt>
      <trkpt lat="50.14784" lon="4.90886">
        <ele>213.4</ele>
        <time>2025-04-05T10:34:42Z</time>
      </trkpt>
      <trkpt lat="50.14787" lon="4.9089">
        <ele>213.4</ele>
        <time>2025-04-05T10:34:43Z</time>
      </trkpt>
      <trkpt lat="50.1479" lon="4.90894">
        <ele>213.6</ele>
        <time>2025-04-05T10:34:44Z</time>
      </trkpt>
      <trkpt lat="50.14793" lon="4.90898">
        <ele>213.6</ele>
        <time>2025-04-05T10:34:45Z</time>
      </trkpt>
      <trkpt lat="50.14796" lon="4.90902">
        <ele>213.6</ele>
        <time>2025-04-05T10:34:46Z</time>
      </trkpt>
      <trkpt lat="50.14799" lon="4.90906">
        <ele>213.6</ele>
        <time>2025-04-05T10:34:47Z</time>
      </trkpt>
      <trkpt lat="50.14802" lon="4.9091">
        <ele>213.8</ele>
        <time>2025-04-05T10:34:48Z</time>
      </trkpt>
      <trkpt lat="50.14806" lon="4.90915">
        <ele>214</ele>
        <time>2025-04-05T10:34:49Z</time>
      </trkpt>
      <trkpt lat="50.14809" lon="4.90918">
        <ele>214</ele>
        <time>2025-04-05T10:34:50Z</time>
      </trkpt>
      <trkpt lat="50.14812" lon="4.90922">
        <ele>214.2</ele>
        <time>2025-04-05T10:34:51Z</time>
      </trkpt>
      <trkpt lat="50.14815" lon="4.90927">
        <ele>214.2</ele>
        <time>2025-04-05T10:34:52Z</time>
      </trkpt>
      <trkpt lat="50.14818" lon="4.90931">
        <ele>214.4</ele>
        <time>2025-04-05T10:34:53Z</time>
      </trkpt>
      <trkpt lat="50.14821" lon="4.90934">
        <ele>214.4</ele>
        <time>2025-04-05T10:34:54Z</time>
      </trkpt>
      <trkpt lat="50.14824" lon="4.90938">
        <ele>214.6</ele>
        <time>2025-04-05T10:34:55Z</time>
      </trkpt>
      <trkpt lat="50.14827" lon="4.90943">
        <ele>214.6</ele>
        <time>2025-04-05T10:34:56Z</time>
      </trkpt>
      <trkpt lat="50.1483" lon="4.90947">
        <ele>214.8</ele>
        <time>2025-04-05T10:34:57Z</time>
      </trkpt>
      <trkpt lat="50.14833" lon="4.9095">
        <ele>215</ele>
        <time>2025-04-05T10:34:58Z</time>
      </trkpt>
      <trkpt lat="50.14836" lon="4.90955">
        <ele>215</ele>
        <time>2025-04-05T10:34:59Z</time>
      </trkpt>
      <trkpt lat="50.14839" lon="4.90959">
        <ele>215</ele>
        <time>2025-04-05T10:35:00Z</time>
      </trkpt>
      <trkpt lat="50.14842" lon="4.90964">
        <ele>215</ele>
        <time>2025-04-05T10:35:01Z</time>
      </trkpt>
      <trkpt lat="50.14845" lon="4.90969">
        <ele>215.2</ele>
        <time>2025-04-05T10:35:02Z</time>
      </trkpt>
      <trkpt lat="50.14848" lon="4.90973">
        <ele>215.2</ele>
        <time>2025-04-05T10:35:03Z</time>
      </trkpt>
      <trkpt lat="50.1485" lon="4.90978">
        <ele>215.4</ele>
        <time>2025-04-05T10:35:04Z</time>
      </trkpt>
      <trkpt lat="50.14852" lon="4.90983">
        <ele>215.4</ele>
        <time>2025-04-05T10:35:05Z</time>
      </trkpt>
      <trkpt lat="50.14855" lon="4.90988">
        <ele>215.6</ele>
        <time>2025-04-05T10:35:06Z</time>
      </trkpt>
      <trkpt lat="50.14857" lon="4.90994">
        <ele>215.8</ele>
        <time>2025-04-05T10:35:07Z</time>
      </trkpt>
      <trkpt lat="50.14859" lon="4.90999">
        <ele>216</ele>
        <time>2025-04-05T10:35:08Z</time>
      </trkpt>
      <trkpt lat="50.14861" lon="4.91004">
        <ele>216</ele>
        <time>2025-04-05T10:35:09Z</time>
      </trkpt>
      <trkpt lat="50.14863" lon="4.91009">
        <ele>216.2</ele>
        <time>2025-04-05T10:35:10Z</time>
      </trkpt>
      <trkpt lat="50.14864" lon="4.91014">
        <ele>216.4</ele>
        <time>2025-04-05T10:35:11Z</time>
      </trkpt>
      <trkpt lat="50.14866" lon="4.9102">
        <ele>216.4</ele>
        <time>2025-04-05T10:35:12Z</time>
      </trkpt>
      <trkpt lat="50.14867" lon="4.91025">
        <ele>216.6</ele>
        <time>2025-04-05T10:35:13Z</time>
      </trkpt>
      <trkpt lat="50.14868" lon="4.9103">
        <ele>216.8</ele>
        <time>2025-04-05T10:35:14Z</time>
      </trkpt>
      <trkpt lat="50.14869" lon="4.91035">
        <ele>217</ele>
        <time>2025-04-05T10:35:15Z</time>
      </trkpt>
      <trkpt lat="50.1487" lon="4.9104">
        <ele>217.2</ele>
        <time>2025-04-05T10:35:16Z</time>
      </trkpt>
      <trkpt lat="50.14871" lon="4.91046">
        <ele>217.4</ele>
        <time>2025-04-05T10:35:17Z</time>
      </trkpt>
      <trkpt lat="50.14872" lon="4.9105">
        <ele>217.6</ele>
        <time>2025-04-05T10:35:18Z</time>
      </trkpt>
      <trkpt lat="50.14873" lon="4.91055">
        <ele>217.8</ele>
        <time>2025-04-05T10:35:19Z</time>
      </trkpt>
      <trkpt lat="50.14874" lon="4.9106">
        <ele>218</ele>
        <time>2025-04-05T10:35:20Z</time>
      </trkpt>
      <trkpt lat="50.14875" lon="4.91066">
        <ele>218.2</ele>
        <time>2025-04-05T10:35:21Z</time>
      </trkpt>
      <trkpt lat="50.14876" lon="4.91071">
        <ele>218.4</ele>
        <time>2025-04-05T10:35:22Z</time>
      </trkpt>
      <trkpt lat="50.14877" lon="4.91076">
        <ele>218.8</ele>
        <time>2025-04-05T10:35:23Z</time>
      </trkpt>
      <trkpt lat="50.14877" lon="4.91081">
        <ele>218.8</ele>
        <time>2025-04-05T10:35:24Z</time>
      </trkpt>
      <trkpt lat="50.14879" lon="4.91086">
        <ele>219</ele>
        <time>2025-04-05T10:35:25Z</time>
      </trkpt>
      <trkpt lat="50.1488" lon="4.91091">
        <ele>219.2</ele>
        <time>2025-04-05T10:35:26Z</time>
      </trkpt>
      <trkpt lat="50.14881" lon="4.91096">
        <ele>219.4</ele>
        <time>2025-04-05T10:35:27Z</time>
      </trkpt>
      <trkpt lat="50.14882" lon="4.91101">
        <ele>219.6</ele>
        <time>2025-04-05T10:35:28Z</time>
      </trkpt>
      <trkpt lat="50.14883" lon="4.91106">
        <ele>219.6</ele>
        <time>2025-04-05T10:35:29Z</time>
      </trkpt>
      <trkpt lat="50.14884" lon="4.91111">
        <ele>219.8</ele>
        <time>2025-04-05T10:35:30Z</time>
      </trkpt>
      <trkpt lat="50.14885" lon="4.91116">
        <ele>220</ele>
        <time>2025-04-05T10:35:31Z</time>
      </trkpt>
      <trkpt lat="50.14886" lon="4.91121">
        <ele>220.2</ele>
        <time>2025-04-05T10:35:32Z</time>
      </trkpt>
      <trkpt lat="50.14887" lon="4.91126">
        <ele>220.2</ele>
        <time>2025-04-05T10:35:33Z</time>
      </trkpt>
      <trkpt lat="50.14888" lon="4.91131">
        <ele>220.4</ele>
        <time>2025-04-05T10:35:34Z</time>
      </trkpt>
      <trkpt lat="50.14889" lon="4.91136">
        <ele>220.6</ele>
        <time>2025-04-05T10:35:35Z</time>
      </trkpt>
      <trkpt lat="50.1489" lon="4.91141">
        <ele>220.6</ele>
        <time>2025-04-05T10:35:36Z</time>
      </trkpt>
      <trkpt lat="50.14891" lon="4.91145">
        <ele>220.8</ele>
        <time>2025-04-05T10:35:37Z</time>
      </trkpt>
      <trkpt lat="50.14891" lon="4.9115">
        <ele>220.8</ele>
        <time>2025-04-05T10:35:38Z</time>
      </trkpt>
      <trkpt lat="50.14893" lon="4.91155">
        <ele>221</ele>
        <time>2025-04-05T10:35:39Z</time>
      </trkpt>
      <trkpt lat="50.14894" lon="4.9116">
        <ele>221</ele>
        <time>2025-04-05T10:35:40Z</time>
      </trkpt>
      <trkpt lat="50.14895" lon="4.91165">
        <ele>221</ele>
        <time>2025-04-05T10:35:41Z</time>
      </trkpt>
      <trkpt lat="50.14896" lon="4.9117">
        <ele>221.2</ele>
        <time>2025-04-05T10:35:42Z</time>
      </trkpt>
      <trkpt lat="50.14897" lon="4.91174">
        <ele>221.4</ele>
        <time>2025-04-05T10:35:43Z</time>
      </trkpt>
      <trkpt lat="50.14898" lon="4.91179">
        <ele>221.4</ele>
        <time>2025-04-05T10:35:44Z</time>
      </trkpt>
      <trkpt lat="50.14899" lon="4.91183">
        <ele>221.6</ele>
        <time>2025-04-05T10:35:45Z</time>
      </trkpt>
      <trkpt lat="50.14899" lon="4.91187">
        <ele>221.6</ele>
        <time>2025-04-05T10:35:46Z</time>
      </trkpt>
      <trkpt lat="50.149" lon="4.91191">
        <ele>221.8</ele>
        <time>2025-04-05T10:35:47Z</time>
      </trkpt>
      <trkpt lat="50.14901" lon="4.91196">
        <ele>222</ele>
        <time>2025-04-05T10:35:48Z</time>
      </trkpt>
      <trkpt lat="50.14902" lon="4.91201">
        <ele>222.2</ele>
        <time>2025-04-05T10:35:49Z</time>
      </trkpt>
      <trkpt lat="50.14903" lon="4.91205">
        <ele>222.4</ele>
        <time>2025-04-05T10:35:50Z</time>
      </trkpt>
      <trkpt lat="50.14904" lon="4.91209">
        <ele>222.6</ele>
        <time>2025-04-05T10:35:51Z</time>
      </trkpt>
      <trkpt lat="50.14905" lon="4.91214">
        <ele>222.8</ele>
        <time>2025-04-05T10:35:52Z</time>
      </trkpt>
      <trkpt lat="50.14906" lon="4.91218">
        <ele>223</ele>
        <time>2025-04-05T10:35:53Z</time>
      </trkpt>
      <trkpt lat="50.14908" lon="4.91222">
        <ele>223.2</ele>
        <time>2025-04-05T10:35:54Z</time>
      </trkpt>
      <trkpt lat="50.14909" lon="4.91226">
        <ele>223.4</ele>
        <time>2025-04-05T10:35:55Z</time>
      </trkpt>
      <trkpt lat="50.1491" lon="4.9123">
        <ele>223.6</ele>
        <time>2025-04-05T10:35:56Z</time>
      </trkpt>
      <trkpt lat="50.14911" lon="4.91234">
        <ele>223.8</ele>
        <time>2025-04-05T10:35:57Z</time>
      </trkpt>
      <trkpt lat="50.14913" lon="4.91238">
        <ele>223.8</ele>
        <time>2025-04-05T10:35:58Z</time>
      </trkpt>
      <trkpt lat="50.14914" lon="4.91243">
        <ele>224</ele>
        <time>2025-04-05T10:35:59Z</time>
      </trkpt>
      <trkpt lat="50.14916" lon="4.91247">
        <ele>224.2</ele>
        <time>2025-04-05T10:36:00Z</time>
      </trkpt>
      <trkpt lat="50.14917" lon="4.91251">
        <ele>224.4</ele>
        <time>2025-04-05T10:36:01Z</time>
      </trkpt>
      <trkpt lat="50.14918" lon="4.91254">
        <ele>224.6</ele>
        <time>2025-04-05T10:36:02Z</time>
      </trkpt>
      <trkpt lat="50.14919" lon="4.91258">
        <ele>224.8</ele>
        <time>2025-04-05T10:36:03Z</time>
      </trkpt>
      <trkpt lat="50.14921" lon="4.91262">
        <ele>224.8</ele>
        <time>2025-04-05T10:36:04Z</time>
      </trkpt>
      <trkpt lat="50.14922" lon="4.91267">
        <ele>225</ele>
        <time>2025-04-05T10:36:05Z</time>
      </trkpt>
      <trkpt lat="50.14924" lon="4.91271">
        <ele>225.2</ele>
        <time>2025-04-05T10:36:06Z</time>
      </trkpt>
      <trkpt lat="50.14925" lon="4.91274">
        <ele>225.2</ele>
        <time>2025-04-05T10:36:07Z</time>
      </trkpt>
      <trkpt lat="50.14927" lon="4.91277">
        <ele>225.4</ele>
        <time>2025-04-05T10:36:08Z</time>
      </trkpt>
      <trkpt lat="50.14929" lon="4.9128">
        <ele>225.4</ele>
        <time>2025-04-05T10:36:09Z</time>
      </trkpt>
      <trkpt lat="50.1493" lon="4.91283">
        <ele>225.6</ele>
        <time>2025-04-05T10:36:10Z</time>
      </trkpt>
      <trkpt lat="50.14932" lon="4.91287">
        <ele>225.8</ele>
        <time>2025-04-05T10:36:11Z</time>
      </trkpt>
      <trkpt lat="50.14934" lon="4.9129">
        <ele>226</ele>
        <time>2025-04-05T10:36:12Z</time>
      </trkpt>
      <trkpt lat="50.14936" lon="4.91294">
        <ele>226.2</ele>
        <time>2025-04-05T10:36:13Z</time>
      </trkpt>
      <trkpt lat="50.14937" lon="4.91297">
        <ele>226.2</ele>
        <time>2025-04-05T10:36:14Z</time>
      </trkpt>
      <trkpt lat="50.14939" lon="4.91301">
        <ele>226.4</ele>
        <time>2025-04-05T10:36:15Z</time>
      </trkpt>
      <trkpt lat="50.14941" lon="4.91304">
        <ele>226.6</ele>
        <time>2025-04-05T10:36:16Z</time>
      </trkpt>
      <trkpt lat="50.14943" lon="4.91308">
        <ele>226.8</ele>
        <time>2025-04-05T10:36:17Z</time>
      </trkpt>
      <trkpt lat="50.14945" lon="4.91311">
        <ele>227</ele>
        <time>2025-04-05T10:36:18Z</time>
      </trkpt>
      <trkpt lat="50.14947" lon="4.91314">
        <ele>227</ele>
        <time>2025-04-05T10:36:19Z</time>
      </trkpt>
      <trkpt lat="50.14949" lon="4.91318">
        <ele>227.2</ele>
        <time>2025-04-05T10:36:20Z</time>
      </trkpt>
      <trkpt lat="50.14951" lon="4.91321">
        <ele>227.4</ele>
        <time>2025-04-05T10:36:21Z</time>
      </trkpt>
      <trkpt lat="50.14953" lon="4.91324">
        <ele>227.6</ele>
        <time>2025-04-05T10:36:22Z</time>
      </trkpt>
      <trkpt lat="50.14954" lon="4.91328">
        <ele>227.6</ele>
        <time>2025-04-05T10:36:23Z</time>
      </trkpt>
      <trkpt lat="50.14956" lon="4.9133">
        <ele>227.8</ele>
        <time>2025-04-05T10:36:24Z</time>
      </trkpt>
      <trkpt lat="50.14958" lon="4.91334">
        <ele>227.8</ele>
        <time>2025-04-05T10:36:25Z</time>
      </trkpt>
      <trkpt lat="50.1496" lon="4.91338">
        <ele>228</ele>
        <time>2025-04-05T10:36:26Z</time>
      </trkpt>
      <trkpt lat="50.14962" lon="4.91341">
        <ele>228.2</ele>
        <time>2025-04-05T10:36:27Z</time>
      </trkpt>
      <trkpt lat="50.14964" lon="4.91344">
        <ele>228.4</ele>
        <time>2025-04-05T10:36:28Z</time>
      </trkpt>
      <trkpt lat="50.14966" lon="4.91347">
        <ele>228.6</ele>
        <time>2025-04-05T10:36:29Z</time>
      </trkpt>
      <trkpt lat="50.14968" lon="4.91349">
        <ele>228.6</ele>
        <time>2025-04-05T10:36:30Z</time>
      </trkpt>
      <trkpt lat="50.1497" lon="4.91352">
        <ele>228.8</ele>
        <time>2025-04-05T10:36:31Z</time>
      </trkpt>
      <trkpt lat="50.14972" lon="4.91355">
        <ele>229</ele>
        <time>2025-04-05T10:36:32Z</time>
      </trkpt>
      <trkpt lat="50.14974" lon="4.91358">
        <ele>229.2</ele>
        <time>2025-04-05T10:36:33Z</time>
      </trkpt>
      <trkpt lat="50.14977" lon="4.91361">
        <ele>229.4</ele>
        <time>2025-04-05T10:36:34Z</time>
      </trkpt>
      <trkpt lat="50.14978" lon="4.91364">
        <ele>229.4</ele>
        <time>2025-04-05T10:36:35Z</time>
      </trkpt>
      <trkpt lat="50.14981" lon="4.91366">
        <ele>229.6</ele>
        <time>2025-04-05T10:36:36Z</time>
      </trkpt>
      <trkpt lat="50.14983" lon="4.91369">
        <ele>229.8</ele>
        <time>2025-04-05T10:36:37Z</time>
      </trkpt>
      <trkpt lat="50.14986" lon="4.91372">
        <ele>229.8</ele>
        <time>2025-04-05T10:36:38Z</time>
      </trkpt>
      <trkpt lat="50.14988" lon="4.91375">
        <ele>230</ele>
        <time>2025-04-05T10:36:39Z</time>
      </trkpt>
      <trkpt lat="50.14991" lon="4.91377">
        <ele>230</ele>
        <time>2025-04-05T10:36:40Z</time>
      </trkpt>
      <trkpt lat="50.14993" lon="4.91379">
        <ele>230.2</ele>
        <time>2025-04-05T10:36:41Z</time>
      </trkpt>
      <trkpt lat="50.14995" lon="4.91381">
        <ele>230.2</ele>
        <time>2025-04-05T10:36:42Z</time>
      </trkpt>
      <trkpt lat="50.14998" lon="4.91384">
        <ele>230.4</ele>
        <time>2025-04-05T10:36:43Z</time>
      </trkpt>
      <trkpt lat="50.15" lon="4.91387">
        <ele>230.6</ele>
        <time>2025-04-05T10:36:44Z</time>
      </trkpt>
      <trkpt lat="50.15002" lon="4.91389">
        <ele>230.6</ele>
        <time>2025-04-05T10:36:45Z</time>
      </trkpt>
      <trkpt lat="50.15004" lon="4.91391">
        <ele>230.8</ele>
        <time>2025-04-05T10:36:46Z</time>
      </trkpt>
      <trkpt lat="50.15007" lon="4.91394">
        <ele>231</ele>
        <time>2025-04-05T10:36:47Z</time>
      </trkpt>
      <trkpt lat="50.1501" lon="4.91397">
        <ele>231.2</ele>
        <time>2025-04-05T10:36:48Z</time>
      </trkpt>
      <trkpt lat="50.15012" lon="4.91399">
        <ele>231.4</ele>
        <time>2025-04-05T10:36:49Z</time>
      </trkpt>
      <trkpt lat="50.15014" lon="4.91401">
        <ele>231.6</ele>
        <time>2025-04-05T10:36:50Z</time>
      </trkpt>
      <trkpt lat="50.15017" lon="4.91404">
        <ele>231.6</ele>
        <time>2025-04-05T10:36:51Z</time>
      </trkpt>
      <trkpt lat="50.15019" lon="4.91406">
        <ele>231.8</ele>
        <time>2025-04-05T10:36:52Z</time>
      </trkpt>
      <trkpt lat="50.15022" lon="4.91408">
        <ele>232</ele>
        <time>2025-04-05T10:36:53Z</time>
      </trkpt>
      <trkpt lat="50.15024" lon="4.9141">
        <ele>232</ele>
        <time>2025-04-05T10:36:54Z</time>
      </trkpt>
      <trkpt lat="50.15026" lon="4.91412">
        <ele>232.2</ele>
        <time>2025-04-05T10:36:55Z</time>
      </trkpt>
      <trkpt lat="50.15028" lon="4.91414">
        <ele>232.4</ele>
        <time>2025-04-05T10:36:56Z</time>
      </trkpt>
      <trkpt lat="50.1503" lon="4.91417">
        <ele>232.6</ele>
        <time>2025-04-05T10:36:57Z</time>
      </trkpt>
      <trkpt lat="50.15033" lon="4.9142">
        <ele>232.6</ele>
        <time>2025-04-05T10:36:58Z</time>
      </trkpt>
      <trkpt lat="50.15035" lon="4.91422">
        <ele>232.8</ele>
        <time>2025-04-05T10:36:59Z</time>
      </trkpt>
      <trkpt lat="50.15038" lon="4.91425">
        <ele>233</ele>
        <time>2025-04-05T10:37:00Z</time>
      </trkpt>
      <trkpt lat="50.1504" lon="4.91427">
        <ele>233.2</ele>
        <time>2025-04-05T10:37:01Z</time>
      </trkpt>
      <trkpt lat="50.15043" lon="4.91429">
        <ele>233.4</ele>
        <time>2025-04-05T10:37:02Z</time>
      </trkpt>
      <trkpt lat="50.15045" lon="4.91431">
        <ele>233.4</ele>
        <time>2025-04-05T10:37:03Z</time>
      </trkpt>
      <trkpt lat="50.15048" lon="4.91434">
        <ele>233.6</ele>
        <time>2025-04-05T10:37:04Z</time>
      </trkpt>
      <trkpt lat="50.1505" lon="4.91436">
        <ele>233.6</ele>
        <time>2025-04-05T10:37:05Z</time>
      </trkpt>
      <trkpt lat="50.15052" lon="4.91439">
        <ele>233.8</ele>
        <time>2025-04-05T10:37:06Z</time>
      </trkpt>
      <trkpt lat="50.15054" lon="4.91441">
        <ele>233.8</ele>
        <time>2025-04-05T10:37:07Z</time>
      </trkpt>
      <trkpt lat="50.15057" lon="4.91443">
        <ele>234</ele>
        <time>2025-04-05T10:37:08Z</time>
      </trkpt>
      <trkpt lat="50.15059" lon="4.91445">
        <ele>234.2</ele>
        <time>2025-04-05T10:37:09Z</time>
      </trkpt>
      <trkpt lat="50.15062" lon="4.91448">
        <ele>234.2</ele>
        <time>2025-04-05T10:37:10Z</time>
      </trkpt>
      <trkpt lat="50.15064" lon="4.9145">
        <ele>234.4</ele>
        <time>2025-04-05T10:37:11Z</time>
      </trkpt>
      <trkpt lat="50.15067" lon="4.91452">
        <ele>234.6</ele>
        <time>2025-04-05T10:37:12Z</time>
      </trkpt>
      <trkpt lat="50.15069" lon="4.91454">
        <ele>234.8</ele>
        <time>2025-04-05T10:37:13Z</time>
      </trkpt>
      <trkpt lat="50.15071" lon="4.91456">
        <ele>235</ele>
        <time>2025-04-05T10:37:14Z</time>
      </trkpt>
      <trkpt lat="50.15073" lon="4.91458">
        <ele>235</ele>
        <time>2025-04-05T10:37:15Z</time>
      </trkpt>
      <trkpt lat="50.15075" lon="4.9146">
        <ele>235.2</ele>
        <time>2025-04-05T10:37:16Z</time>
      </trkpt>
      <trkpt lat="50.15078" lon="4.91463">
        <ele>235.4</ele>
        <time>2025-04-05T10:37:17Z</time>
      </trkpt>
      <trkpt lat="50.1508" lon="4.91465">
        <ele>235.6</ele>
        <time>2025-04-05T10:37:18Z</time>
      </trkpt>
      <trkpt lat="50.15083" lon="4.91467">
        <ele>235.8</ele>
        <time>2025-04-05T10:37:19Z</time>
      </trkpt>
      <trkpt lat="50.15085" lon="4.9147">
        <ele>235.8</ele>
        <time>2025-04-05T10:37:20Z</time>
      </trkpt>
      <trkpt lat="50.15087" lon="4.91472">
        <ele>236</ele>
        <time>2025-04-05T10:37:21Z</time>
      </trkpt>
      <trkpt lat="50.15089" lon="4.91475">
        <ele>236.2</ele>
        <time>2025-04-05T10:37:22Z</time>
      </trkpt>
      <trkpt lat="50.15092" lon="4.91477">
        <ele>236.2</ele>
        <time>2025-04-05T10:37:23Z</time>
      </trkpt>
      <trkpt lat="50.15094" lon="4.9148">
        <ele>236.4</ele>
        <time>2025-04-05T10:37:24Z</time>
      </trkpt>
      <trkpt lat="50.15097" lon="4.91482">
        <ele>236.4</ele>
        <time>2025-04-05T10:37:25Z</time>
      </trkpt>
      <trkpt lat="50.15099" lon="4.91484">
        <ele>236.6</ele>
        <time>2025-04-05T10:37:26Z</time>
      </trkpt>
      <trkpt lat="50.15102" lon="4.91486">
        <ele>236.6</ele>
        <time>2025-04-05T10:37:27Z</time>
      </trkpt>
      <trkpt lat="50.15104" lon="4.91489">
        <ele>237</ele>
        <time>2025-04-05T10:37:28Z</time>
      </trkpt>
      <trkpt lat="50.15106" lon="4.9149">
        <ele>237.2</ele>
        <time>2025-04-05T10:37:29Z</time>
      </trkpt>
      <trkpt lat="50.15108" lon="4.91492">
        <ele>237.4</ele>
        <time>2025-04-05T10:37:30Z</time>
      </trkpt>
      <trkpt lat="50.1511" lon="4.91495">
        <ele>237.6</ele>
        <time>2025-04-05T10:37:31Z</time>
      </trkpt>
      <trkpt lat="50.15113" lon="4.91498">
        <ele>237.8</ele>
        <time>2025-04-05T10:37:32Z</time>
      </trkpt>
      <trkpt lat="50.15115" lon="4.915">
        <ele>238</ele>
        <time>2025-04-05T10:37:33Z</time>
      </trkpt>
      <trkpt lat="50.15117" lon="4.91502">
        <ele>238.2</ele>
        <time>2025-04-05T10:37:34Z</time>
      </trkpt>
      <trkpt lat="50.1512" lon="4.91504">
        <ele>238.6</ele>
        <time>2025-04-05T10:37:35Z</time>
      </trkpt>
      <trkpt lat="50.15122" lon="4.91506">
        <ele>238.8</ele>
        <time>2025-04-05T10:37:36Z</time>
      </trkpt>
      <trkpt lat="50.15125" lon="4.91508">
        <ele>239</ele>
        <time>2025-04-05T10:37:37Z</time>
      </trkpt>
      <trkpt lat="50.15127" lon="4.9151">
        <ele>239</ele>
        <time>2025-04-05T10:37:38Z</time>
      </trkpt>
      <trkpt lat="50.1513" lon="4.91512">
        <ele>239.2</ele>
        <time>2025-04-05T10:37:39Z</time>
      </trkpt>
      <trkpt lat="50.15132" lon="4.91515">
        <ele>239.2</ele>
        <time>2025-04-05T10:37:40Z</time>
      </trkpt>
      <trkpt lat="50.15135" lon="4.91517">
        <ele>239.4</ele>
        <time>2025-04-05T10:37:41Z</time>
      </trkpt>
      <trkpt lat="50.15137" lon="4.91519">
        <ele>239.6</ele>
        <time>2025-04-05T10:37:42Z</time>
      </trkpt>
      <trkpt lat="50.15139" lon="4.91521">
        <ele>239.8</ele>
        <time>2025-04-05T10:37:43Z</time>
      </trkpt>
      <trkpt lat="50.15142" lon="4.91523">
        <ele>240</ele>
        <time>2025-04-05T10:37:44Z</time>
      </trkpt>
      <trkpt lat="50.15144" lon="4.91526">
        <ele>240</ele>
        <time>2025-04-05T10:37:45Z</time>
      </trkpt>
      <trkpt lat="50.15146" lon="4.91528">
        <ele>240.2</ele>
        <time>2025-04-05T10:37:46Z</time>
      </trkpt>
      <trkpt lat="50.15148" lon="4.9153">
        <ele>240.4</ele>
        <time>2025-04-05T10:37:47Z</time>
      </trkpt>
      <trkpt lat="50.1515" lon="4.91533">
        <ele>240.6</ele>
        <time>2025-04-05T10:37:48Z</time>
      </trkpt>
      <trkpt lat="50.15152" lon="4.91536">
        <ele>240.8</ele>
        <time>2025-04-05T10:37:49Z</time>
      </trkpt>
      <trkpt lat="50.15154" lon="4.91538">
        <ele>241</ele>
        <time>2025-04-05T10:37:50Z</time>
      </trkpt>
      <trkpt lat="50.15156" lon="4.91541">
        <ele>241</ele>
        <time>2025-04-05T10:37:51Z</time>
      </trkpt>
      <trkpt lat="50.15159" lon="4.91543">
        <ele>241.2</ele>
        <time>2025-04-05T10:37:52Z</time>
      </trkpt>
      <trkpt lat="50.1516" lon="4.91545">
        <ele>241.4</ele>
        <time>2025-04-05T10:37:53Z</time>
      </trkpt>
      <trkpt lat="50.15162" lon="4.91548">
        <ele>241.6</ele>
        <time>2025-04-05T10:37:54Z</time>
      </trkpt>
      <trkpt lat="50.15165" lon="4.9155">
        <ele>241.8</ele>
        <time>2025-04-05T10:37:55Z</time>
      </trkpt>
      <trkpt lat="50.15167" lon="4.91553">
        <ele>242</ele>
        <time>2025-04-05T10:37:56Z</time>
      </trkpt>
      <trkpt lat="50.15169" lon="4.91556">
        <ele>242.2</ele>
        <time>2025-04-05T10:37:57Z</time>
      </trkpt>
      <trkpt lat="50.15171" lon="4.91559">
        <ele>242.2</ele>
        <time>2025-04-05T10:37:58Z</time>
      </trkpt>
      <trkpt lat="50.15173" lon="4.91562">
        <ele>242.4</ele>
        <time>2025-04-05T10:37:59Z</time>
      </trkpt>
      <trkpt lat="50.15175" lon="4.91564">
        <ele>242.6</ele>
        <time>2025-04-05T10:38:00Z</time>
      </trkpt>
      <trkpt lat="50.15177" lon="4.91566">
        <ele>242.6</ele>
        <time>2025-04-05T10:38:01Z</time>
      </trkpt>
      <trkpt lat="50.15179" lon="4.9157">
        <ele>242.8</ele>
        <time>2025-04-05T10:38:02Z</time>
      </trkpt>
      <trkpt lat="50.15182" lon="4.91573">
        <ele>243</ele>
        <time>2025-04-05T10:38:03Z</time>
      </trkpt>
      <trkpt lat="50.15184" lon="4.91576">
        <ele>243.2</ele>
        <time>2025-04-05T10:38:04Z</time>
      </trkpt>
      <trkpt lat="50.15186" lon="4.91578">
        <ele>243.4</ele>
        <time>2025-04-05T10:38:05Z</time>
      </trkpt>
      <trkpt lat="50.15188" lon="4.91581">
        <ele>243.6</ele>
        <time>2025-04-05T10:38:06Z</time>
      </trkpt>
      <trkpt lat="50.1519" lon="4.91585">
        <ele>243.6</ele>
        <time>2025-04-05T10:38:07Z</time>
      </trkpt>
      <trkpt lat="50.15192" lon="4.91588">
        <ele>243.8</ele>
        <time>2025-04-05T10:38:08Z</time>
      </trkpt>
      <trkpt lat="50.15194" lon="4.91591">
        <ele>244</ele>
        <time>2025-04-05T10:38:09Z</time>
      </trkpt>
      <trkpt lat="50.15196" lon="4.91594">
        <ele>244.2</ele>
        <time>2025-04-05T10:38:10Z</time>
      </trkpt>
      <trkpt lat="50.15198" lon="4.91598">
        <ele>244.4</ele>
        <time>2025-04-05T10:38:11Z</time>
      </trkpt>
      <trkpt lat="50.152" lon="4.91601">
        <ele>244.6</ele>
        <time>2025-04-05T10:38:12Z</time>
      </trkpt>
      <trkpt lat="50.15202" lon="4.91604">
        <ele>244.8</ele>
        <time>2025-04-05T10:38:13Z</time>
      </trkpt>
      <trkpt lat="50.15204" lon="4.91607">
        <ele>245</ele>
        <time>2025-04-05T10:38:14Z</time>
      </trkpt>
      <trkpt lat="50.15205" lon="4.91611">
        <ele>245</ele>
        <time>2025-04-05T10:38:15Z</time>
      </trkpt>
      <trkpt lat="50.15207" lon="4.91614">
        <ele>245.2</ele>
        <time>2025-04-05T10:38:16Z</time>
      </trkpt>
      <trkpt lat="50.15208" lon="4.91617">
        <ele>245.4</ele>
        <time>2025-04-05T10:38:17Z</time>
      </trkpt>
      <trkpt lat="50.1521" lon="4.9162">
        <ele>245.4</ele>
        <time>2025-04-05T10:38:18Z</time>
      </trkpt>
      <trkpt lat="50.15211" lon="4.91624">
        <ele>245.6</ele>
        <time>2025-04-05T10:38:19Z</time>
      </trkpt>
      <trkpt lat="50.15213" lon="4.91628">
        <ele>245.6</ele>
        <time>2025-04-05T10:38:20Z</time>
      </trkpt>
      <trkpt lat="50.15215" lon="4.91631">
        <ele>245.8</ele>
        <time>2025-04-05T10:38:21Z</time>
      </trkpt>
      <trkpt lat="50.15216" lon="4.91635">
        <ele>246</ele>
        <time>2025-04-05T10:38:22Z</time>
      </trkpt>
      <trkpt lat="50.15218" lon="4.91638">
        <ele>246.2</ele>
        <time>2025-04-05T10:38:23Z</time>
      </trkpt>
      <trkpt lat="50.1522" lon="4.91641">
        <ele>246.4</ele>
        <time>2025-04-05T10:38:24Z</time>
      </trkpt>
      <trkpt lat="50.15222" lon="4.91645">
        <ele>246.4</ele>
        <time>2025-04-05T10:38:25Z</time>
      </trkpt>
      <trkpt lat="50.15223" lon="4.91648">
        <ele>246.6</ele>
        <time>2025-04-05T10:38:26Z</time>
      </trkpt>
      <trkpt lat="50.15225" lon="4.91652">
        <ele>246.8</ele>
        <time>2025-04-05T10:38:27Z</time>
      </trkpt>
      <trkpt lat="50.15226" lon="4.91655">
        <ele>247</ele>
        <time>2025-04-05T10:38:28Z</time>
      </trkpt>
      <trkpt lat="50.15228" lon="4.91659">
        <ele>247</ele>
        <time>2025-04-05T10:38:29Z</time>
      </trkpt>
      <trkpt lat="50.1523" lon="4.91662">
        <ele>247.2</ele>
        <time>2025-04-05T10:38:30Z</time>
      </trkpt>
      <trkpt lat="50.15232" lon="4.91666">
        <ele>247.4</ele>
        <time>2025-04-05T10:38:31Z</time>
      </trkpt>
      <trkpt lat="50.15233" lon="4.91669">
        <ele>247.6</ele>
        <time>2025-04-05T10:38:32Z</time>
      </trkpt>
      <trkpt lat="50.15235" lon="4.91672">
        <ele>247.8</ele>
        <time>2025-04-05T10:38:33Z</time>
      </trkpt>
      <trkpt lat="50.15237" lon="4.91675">
        <ele>248</ele>
        <time>2025-04-05T10:38:34Z</time>
      </trkpt>
      <trkpt lat="50.15238" lon="4.91678">
        <ele>248.2</ele>
        <time>2025-04-05T10:38:35Z</time>
      </trkpt>
      <trkpt lat="50.1524" lon="4.91682">
        <ele>248.4</ele>
        <time>2025-04-05T10:38:36Z</time>
      </trkpt>
      <trkpt lat="50.15242" lon="4.91685">
        <ele>248.6</ele>
        <time>2025-04-05T10:38:37Z</time>
      </trkpt>
      <trkpt lat="50.15244" lon="4.91689">
        <ele>248.6</ele>
        <time>2025-04-05T10:38:38Z</time>
      </trkpt>
      <trkpt lat="50.15245" lon="4.91692">
        <ele>248.8</ele>
        <time>2025-04-05T10:38:39Z</time>
      </trkpt>
      <trkpt lat="50.15247" lon="4.91696">
        <ele>249</ele>
        <time>2025-04-05T10:38:40Z</time>
      </trkpt>
      <trkpt lat="50.15249" lon="4.917">
        <ele>249.2</ele>
        <time>2025-04-05T10:38:41Z</time>
      </trkpt>
      <trkpt lat="50.15251" lon="4.91704">
        <ele>249.2</ele>
        <time>2025-04-05T10:38:42Z</time>
      </trkpt>
      <trkpt lat="50.15253" lon="4.91708">
        <ele>249.4</ele>
        <time>2025-04-05T10:38:43Z</time>
      </trkpt>
      <trkpt lat="50.15255" lon="4.91711">
        <ele>249.6</ele>
        <time>2025-04-05T10:38:44Z</time>
      </trkpt>
      <trkpt lat="50.15256" lon="4.91714">
        <ele>249.8</ele>
        <time>2025-04-05T10:38:45Z</time>
      </trkpt>
      <trkpt lat="50.15257" lon="4.91718">
        <ele>249.8</ele>
        <time>2025-04-05T10:38:46Z</time>
      </trkpt>
      <trkpt lat="50.15259" lon="4.91722">
        <ele>250</ele>
        <time>2025-04-05T10:38:47Z</time>
      </trkpt>
      <trkpt lat="50.15261" lon="4.91726">
        <ele>250</ele>
        <time>2025-04-05T10:38:48Z</time>
      </trkpt>
      <trkpt lat="50.15263" lon="4.91729">
        <ele>250.2</ele>
        <time>2025-04-05T10:38:49Z</time>
      </trkpt>
      <trkpt lat="50.15264" lon="4.91733">
        <ele>250.4</ele>
        <time>2025-04-05T10:38:50Z</time>
      </trkpt>
      <trkpt lat="50.15266" lon="4.91736">
        <ele>250.6</ele>
        <time>2025-04-05T10:38:51Z</time>
      </trkpt>
      <trkpt lat="50.15268" lon="4.9174">
        <ele>250.6</ele>
        <time>2025-04-05T10:38:52Z</time>
      </trkpt>
      <trkpt lat="50.1527" lon="4.91743">
        <ele>250.8</ele>
        <time>2025-04-05T10:38:53Z</time>
      </trkpt>
      <trkpt lat="50.15271" lon="4.91747">
        <ele>250.8</ele>
        <time>2025-04-05T10:38:54Z</time>
      </trkpt>
      <trkpt lat="50.15273" lon="4.9175">
        <ele>251</ele>
        <time>2025-04-05T10:38:55Z</time>
      </trkpt>
      <trkpt lat="50.15274" lon="4.91753">
        <ele>251.2</ele>
        <time>2025-04-05T10:38:56Z</time>
      </trkpt>
      <trkpt lat="50.15276" lon="4.91757">
        <ele>251.2</ele>
        <time>2025-04-05T10:38:57Z</time>
      </trkpt>
      <trkpt lat="50.15278" lon="4.9176">
        <ele>251.2</ele>
        <time>2025-04-05T10:38:58Z</time>
      </trkpt>
      <trkpt lat="50.1528" lon="4.91764">
        <ele>251.4</ele>
        <time>2025-04-05T10:38:59Z</time>
      </trkpt>
      <trkpt lat="50.15281" lon="4.91768">
        <ele>251.6</ele>
        <time>2025-04-05T10:39:00Z</time>
      </trkpt>
      <trkpt lat="50.15283" lon="4.91771">
        <ele>251.8</ele>
        <time>2025-04-05T10:39:01Z</time>
      </trkpt>
      <trkpt lat="50.15284" lon="4.91775">
        <ele>251.8</ele>
        <time>2025-04-05T10:39:02Z</time>
      </trkpt>
      <trkpt lat="50.15286" lon="4.91779">
        <ele>252</ele>
        <time>2025-04-05T10:39:03Z</time>
      </trkpt>
      <trkpt lat="50.15288" lon="4.91782">
        <ele>252.2</ele>
        <time>2025-04-05T10:39:04Z</time>
      </trkpt>
      <trkpt lat="50.15289" lon="4.91786">
        <ele>252.4</ele>
        <time>2025-04-05T10:39:05Z</time>
      </trkpt>
      <trkpt lat="50.1529" lon="4.91789">
        <ele>252.4</ele>
        <time>2025-04-05T10:39:06Z</time>
      </trkpt>
      <trkpt lat="50.15292" lon="4.91792">
        <ele>252.6</ele>
        <time>2025-04-05T10:39:07Z</time>
      </trkpt>
      <trkpt lat="50.15294" lon="4.91796">
        <ele>252.8</ele>
        <time>2025-04-05T10:39:08Z</time>
      </trkpt>
      <trkpt lat="50.15296" lon="4.91799">
        <ele>252.8</ele>
        <time>2025-04-05T10:39:09Z</time>
      </trkpt>
      <trkpt lat="50.15298" lon="4.91803">
        <ele>253</ele>
        <time>2025-04-05T10:39:10Z</time>
      </trkpt>
      <trkpt lat="50.153" lon="4.91806">
        <ele>253.2</ele>
        <time>2025-04-05T10:39:11Z</time>
      </trkpt>
      <trkpt lat="50.15301" lon="4.91809">
        <ele>253.6</ele>
        <time>2025-04-05T10:39:12Z</time>
      </trkpt>
      <trkpt lat="50.15303" lon="4.91813">
        <ele>253.6</ele>
        <time>2025-04-05T10:39:13Z</time>
      </trkpt>
      <trkpt lat="50.15305" lon="4.91816">
        <ele>253.8</ele>
        <time>2025-04-05T10:39:14Z</time>
      </trkpt>
      <trkpt lat="50.15307" lon="4.9182">
        <ele>254</ele>
        <time>2025-04-05T10:39:15Z</time>
      </trkpt>
      <trkpt lat="50.15308" lon="4.91823">
        <ele>254.2</ele>
        <time>2025-04-05T10:39:16Z</time>
      </trkpt>
      <trkpt lat="50.1531" lon="4.91827">
        <ele>254.4</ele>
        <time>2025-04-05T10:39:17Z</time>
      </trkpt>
      <trkpt lat="50.15311" lon="4.9183">
        <ele>254.6</ele>
        <time>2025-04-05T10:39:18Z</time>
      </trkpt>
      <trkpt lat="50.15313" lon="4.91834">
        <ele>254.6</ele>
        <time>2025-04-05T10:39:19Z</time>
      </trkpt>
      <trkpt lat="50.15315" lon="4.91838">
        <ele>254.8</ele>
        <time>2025-04-05T10:39:20Z</time>
      </trkpt>
      <trkpt lat="50.15316" lon="4.91842">
        <ele>255</ele>
        <time>2025-04-05T10:39:21Z</time>
      </trkpt>
      <trkpt lat="50.15318" lon="4.91846">
        <ele>255.2</ele>
        <time>2025-04-05T10:39:22Z</time>
      </trkpt>
      <trkpt lat="50.15319" lon="4.91849">
        <ele>255.4</ele>
        <time>2025-04-05T10:39:23Z</time>
      </trkpt>
      <trkpt lat="50.15321" lon="4.91852">
        <ele>255.6</ele>
        <time>2025-04-05T10:39:24Z</time>
      </trkpt>
      <trkpt lat="50.15323" lon="4.91856">
        <ele>255.6</ele>
        <time>2025-04-05T10:39:25Z</time>
      </trkpt>
      <trkpt lat="50.15325" lon="4.9186">
        <ele>255.8</ele>
        <time>2025-04-05T10:39:26Z</time>
      </trkpt>
      <trkpt lat="50.15326" lon="4.91863">
        <ele>256</ele>
        <time>2025-04-05T10:39:27Z</time>
      </trkpt>
      <trkpt lat="50.15328" lon="4.91867">
        <ele>256.2</ele>
        <time>2025-04-05T10:39:28Z</time>
      </trkpt>
      <trkpt lat="50.1533" lon="4.9187">
        <ele>256.2</ele>
        <time>2025-04-05T10:39:29Z</time>
      </trkpt>
      <trkpt lat="50.15332" lon="4.91874">
        <ele>256.4</ele>
        <time>2025-04-05T10:39:30Z</time>
      </trkpt>
      <trkpt lat="50.15334" lon="4.91878">
        <ele>256.6</ele>
        <time>2025-04-05T10:39:31Z</time>
      </trkpt>
      <trkpt lat="50.15336" lon="4.91881">
        <ele>256.8</ele>
        <time>2025-04-05T10:39:32Z</time>
      </trkpt>
      <trkpt lat="50.15337" lon="4.91885">
        <ele>257</ele>
        <time>2025-04-05T10:39:33Z</time>
      </trkpt>
      <trkpt lat="50.15339" lon="4.91889">
        <ele>257.2</ele>
        <time>2025-04-05T10:39:34Z</time>
      </trkpt>
      <trkpt lat="50.15341" lon="4.91892">
        <ele>257.2</ele>
        <time>2025-04-05T10:39:35Z</time>
      </trkpt>
      <trkpt lat="50.15342" lon="4.91896">
        <ele>257.4</ele>
        <time>2025-04-05T10:39:36Z</time>
      </trkpt>
      <trkpt lat="50.15344" lon="4.919">
        <ele>257.6</ele>
        <time>2025-04-05T10:39:37Z</time>
      </trkpt>
      <trkpt lat="50.15346" lon="4.91903">
        <ele>257.6</ele>
        <time>2025-04-05T10:39:38Z</time>
      </trkpt>
      <trkpt lat="50.15348" lon="4.91907">
        <ele>257.8</ele>
        <time>2025-04-05T10:39:39Z</time>
      </trkpt>
      <trkpt lat="50.15349" lon="4.9191">
        <ele>257.8</ele>
        <time>2025-04-05T10:39:40Z</time>
      </trkpt>
      <trkpt lat="50.15351" lon="4.91914">
        <ele>258</ele>
        <time>2025-04-05T10:39:41Z</time>
      </trkpt>
      <trkpt lat="50.15353" lon="4.91918">
        <ele>258.2</ele>
        <time>2025-04-05T10:39:42Z</time>
      </trkpt>
      <trkpt lat="50.15354" lon="4.91922">
        <ele>258.2</ele>
        <time>2025-04-05T10:39:43Z</time>
      </trkpt>
      <trkpt lat="50.15356" lon="4.91926">
        <ele>258.4</ele>
        <time>2025-04-05T10:39:44Z</time>
      </trkpt>
      <trkpt lat="50.15358" lon="4.9193">
        <ele>258.6</ele>
        <time>2025-04-05T10:39:45Z</time>
      </trkpt>
      <trkpt lat="50.1536" lon="4.91934">
        <ele>258.6</ele>
        <time>2025-04-05T10:39:46Z</time>
      </trkpt>
      <trkpt lat="50.15362" lon="4.91938">
        <ele>258.8</ele>
        <time>2025-04-05T10:39:47Z</time>
      </trkpt>
      <trkpt lat="50.15364" lon="4.91941">
        <ele>259</ele>
        <time>2025-04-05T10:39:48Z</time>
      </trkpt>
      <trkpt lat="50.15366" lon="4.91945">
        <ele>259</ele>
        <time>2025-04-05T10:39:49Z</time>
      </trkpt>
      <trkpt lat="50.15367" lon="4.91949">
        <ele>259.2</ele>
        <time>2025-04-05T10:39:50Z</time>
      </trkpt>
      <trkpt lat="50.15369" lon="4.91952">
        <ele>259.2</ele>
        <time>2025-04-05T10:39:51Z</time>
      </trkpt>
      <trkpt lat="50.15371" lon="4.91956">
        <ele>259.2</ele>
        <time>2025-04-05T10:39:52Z</time>
      </trkpt>
      <trkpt lat="50.15373" lon="4.9196">
        <ele>259.4</ele>
        <time>2025-04-05T10:39:53Z</time>
      </trkpt>
      <trkpt lat="50.15374" lon="4.91964">
        <ele>259.4</ele>
        <time>2025-04-05T10:39:54Z</time>
      </trkpt>
      <trkpt lat="50.15376" lon="4.91967">
        <ele>259.6</ele>
        <time>2025-04-05T10:39:55Z</time>
      </trkpt>
      <trkpt lat="50.15377" lon="4.91971">
        <ele>259.6</ele>
        <time>2025-04-05T10:39:56Z</time>
      </trkpt>
      <trkpt lat="50.15379" lon="4.91975">
        <ele>259.8</ele>
        <time>2025-04-05T10:39:57Z</time>
      </trkpt>
      <trkpt lat="50.15381" lon="4.91979">
        <ele>259.8</ele>
        <time>2025-04-05T10:39:58Z</time>
      </trkpt>
      <trkpt lat="50.15383" lon="4.91983">
        <ele>259.8</ele>
        <time>2025-04-05T10:39:59Z</time>
      </trkpt>
      <trkpt lat="50.15385" lon="4.91986">
        <ele>260</ele>
        <time>2025-04-05T10:40:00Z</time>
      </trkpt>
      <trkpt lat="50.15387" lon="4.9199">
        <ele>260</ele>
        <time>2025-04-05T10:40:01Z</time>
      </trkpt>
      <trkpt lat="50.15389" lon="4.91994">
        <ele>260</ele>
        <time>2025-04-05T10:40:02Z</time>
      </trkpt>
      <trkpt lat="50.1539" lon="4.91998">
        <ele>260.2</ele>
        <time>2025-04-05T10:40:03Z</time>
      </trkpt>
      <trkpt lat="50.15392" lon="4.92001">
        <ele>260.4</ele>
        <time>2025-04-05T10:40:04Z</time>
      </trkpt>
      <trkpt lat="50.15393" lon="4.92005">
        <ele>260.6</ele>
        <time>2025-04-05T10:40:05Z</time>
      </trkpt>
      <trkpt lat="50.15395" lon="4.92008">
        <ele>260.6</ele>
        <time>2025-04-05T10:40:06Z</time>
      </trkpt>
      <trkpt lat="50.15397" lon="4.92012">
        <ele>260.8</ele>
        <time>2025-04-05T10:40:07Z</time>
      </trkpt>
      <trkpt lat="50.15399" lon="4.92017">
        <ele>260.8</ele>
        <time>2025-04-05T10:40:08Z</time>
      </trkpt>
      <trkpt lat="50.15401" lon="4.9202">
        <ele>261</ele>
        <time>2025-04-05T10:40:09Z</time>
      </trkpt>
      <trkpt lat="50.15403" lon="4.92024">
        <ele>261</ele>
        <time>2025-04-05T10:40:10Z</time>
      </trkpt>
      <trkpt lat="50.15405" lon="4.92028">
        <ele>261</ele>
        <time>2025-04-05T10:40:11Z</time>
      </trkpt>
      <trkpt lat="50.15407" lon="4.92032">
        <ele>261</ele>
        <time>2025-04-05T10:40:12Z</time>
      </trkpt>
      <trkpt lat="50.15409" lon="4.92035">
        <ele>261.2</ele>
        <time>2025-04-05T10:40:13Z</time>
      </trkpt>
      <trkpt lat="50.15411" lon="4.92039">
        <ele>261.4</ele>
        <time>2025-04-05T10:40:14Z</time>
      </trkpt>
      <trkpt lat="50.15412" lon="4.92043">
        <ele>261.4</ele>
        <time>2025-04-05T10:40:15Z</time>
      </trkpt>
      <trkpt lat="50.15414" lon="4.92046">
        <ele>261.4</ele>
        <time>2025-04-05T10:40:16Z</time>
      </trkpt>
      <trkpt lat="50.15415" lon="4.92049">
        <ele>261.4</ele>
        <time>2025-04-05T10:40:17Z</time>
      </trkpt>
      <trkpt lat="50.15417" lon="4.92052">
        <ele>261.6</ele>
        <time>2025-04-05T10:40:18Z</time>
      </trkpt>
      <trkpt lat="50.15419" lon="4.92054">
        <ele>261.8</ele>
        <time>2025-04-05T10:40:19Z</time>
      </trkpt>
      <trkpt lat="50.15421" lon="4.92056">
        <ele>261.8</ele>
        <time>2025-04-05T10:40:20Z</time>
      </trkpt>
      <trkpt lat="50.15423" lon="4.92058">
        <ele>262</ele>
        <time>2025-04-05T10:40:21Z</time>
      </trkpt>
      <trkpt lat="50.15426" lon="4.92058">
        <ele>262</ele>
        <time>2025-04-05T10:40:22Z</time>
      </trkpt>
      <trkpt lat="50.15429" lon="4.92058">
        <ele>262.2</ele>
        <time>2025-04-05T10:40:23Z</time>
      </trkpt>
      <trkpt lat="50.15432" lon="4.92057">
        <ele>262.4</ele>
        <time>2025-04-05T10:40:24Z</time>
      </trkpt>
      <trkpt lat="50.15435" lon="4.92055">
        <ele>262.6</ele>
        <time>2025-04-05T10:40:25Z</time>
      </trkpt>
      <trkpt lat="50.15437" lon="4.92053">
        <ele>262.8</ele>
        <time>2025-04-05T10:40:26Z</time>
      </trkpt>
      <trkpt lat="50.1544" lon="4.92051">
        <ele>263</ele>
        <time>2025-04-05T10:40:27Z</time>
      </trkpt>
      <trkpt lat="50.15442" lon="4.92049">
        <ele>263</ele>
        <time>2025-04-05T10:40:28Z</time>
      </trkpt>
      <trkpt lat="50.15444" lon="4.92047">
        <ele>263.2</ele>
        <time>2025-04-05T10:40:29Z</time>
      </trkpt>
      <trkpt lat="50.15447" lon="4.92044">
        <ele>263.2</ele>
        <time>2025-04-05T10:40:30Z</time>
      </trkpt>
      <trkpt lat="50.1545" lon="4.92041">
        <ele>263.4</ele>
        <time>2025-04-05T10:40:31Z</time>
      </trkpt>
      <trkpt lat="50.15452" lon="4.92038">
        <ele>263.6</ele>
        <time>2025-04-05T10:40:32Z</time>
      </trkpt>
      <trkpt lat="50.15455" lon="4.92036">
        <ele>263.8</ele>
        <time>2025-04-05T10:40:33Z</time>
      </trkpt>
      <trkpt lat="50.15457" lon="4.92033">
        <ele>264</ele>
        <time>2025-04-05T10:40:34Z</time>
      </trkpt>
      <trkpt lat="50.15459" lon="4.92031">
        <ele>264.2</ele>
        <time>2025-04-05T10:40:35Z</time>
      </trkpt>
      <trkpt lat="50.15462" lon="4.92028">
        <ele>264.4</ele>
        <time>2025-04-05T10:40:36Z</time>
      </trkpt>
      <trkpt lat="50.15465" lon="4.92025">
        <ele>264.8</ele>
        <time>2025-04-05T10:40:37Z</time>
      </trkpt>
      <trkpt lat="50.15467" lon="4.92022">
        <ele>265</ele>
        <time>2025-04-05T10:40:38Z</time>
      </trkpt>
      <trkpt lat="50.1547" lon="4.9202">
        <ele>265.2</ele>
        <time>2025-04-05T10:40:39Z</time>
      </trkpt>
      <trkpt lat="50.15472" lon="4.92017">
        <ele>265.4</ele>
        <time>2025-04-05T10:40:40Z</time>
      </trkpt>
      <trkpt lat="50.15475" lon="4.92015">
        <ele>265.6</ele>
        <time>2025-04-05T10:40:41Z</time>
      </trkpt>
      <trkpt lat="50.15477" lon="4.92012">
        <ele>265.8</ele>
        <time>2025-04-05T10:40:42Z</time>
      </trkpt>
      <trkpt lat="50.15479" lon="4.9201">
        <ele>266</ele>
        <time>2025-04-05T10:40:43Z</time>
      </trkpt>
      <trkpt lat="50.15482" lon="4.92007">
        <ele>266.2</ele>
        <time>2025-04-05T10:40:44Z</time>
      </trkpt>
      <trkpt lat="50.15484" lon="4.92005">
        <ele>266.6</ele>
        <time>2025-04-05T10:40:45Z</time>
      </trkpt>
      <trkpt lat="50.15485" lon="4.92003">
        <ele>266.8</ele>
        <time>2025-04-05T10:40:46Z</time>
      </trkpt>
      <trkpt lat="50.15488" lon="4.92">
        <ele>267</ele>
        <time>2025-04-05T10:40:47Z</time>
      </trkpt>
      <trkpt lat="50.1549" lon="4.91998">
        <ele>267.2</ele>
        <time>2025-04-05T10:40:48Z</time>
      </trkpt>
      <trkpt lat="50.15492" lon="4.91995">
        <ele>267.6</ele>
        <time>2025-04-05T10:40:49Z</time>
      </trkpt>
      <trkpt lat="50.15494" lon="4.91993">
        <ele>267.8</ele>
        <time>2025-04-05T10:40:50Z</time>
      </trkpt>
      <trkpt lat="50.15496" lon="4.91991">
        <ele>268.2</ele>
        <time>2025-04-05T10:40:51Z</time>
      </trkpt>
      <trkpt lat="50.15498" lon="4.91988">
        <ele>268.4</ele>
        <time>2025-04-05T10:40:52Z</time>
      </trkpt>
      <trkpt lat="50.15501" lon="4.91986">
        <ele>268.6</ele>
        <time>2025-04-05T10:40:53Z</time>
      </trkpt>
      <trkpt lat="50.15503" lon="4.91983">
        <ele>268.8</ele>
        <time>2025-04-05T10:40:54Z</time>
      </trkpt>
      <trkpt lat="50.15505" lon="4.91981">
        <ele>269</ele>
        <time>2025-04-05T10:40:55Z</time>
      </trkpt>
      <trkpt lat="50.15506" lon="4.91979">
        <ele>269.2</ele>
        <time>2025-04-05T10:40:56Z</time>
      </trkpt>
      <trkpt lat="50.15508" lon="4.91976">
        <ele>269.4</ele>
        <time>2025-04-05T10:40:57Z</time>
      </trkpt>
      <trkpt lat="50.15511" lon="4.91974">
        <ele>269.6</ele>
        <time>2025-04-05T10:40:58Z</time>
      </trkpt>
      <trkpt lat="50.15513" lon="4.91972">
        <ele>269.8</ele>
        <time>2025-04-05T10:40:59Z</time>
      </trkpt>
      <trkpt lat="50.15515" lon="4.91969">
        <ele>269.8</ele>
        <time>2025-04-05T10:41:00Z</time>
      </trkpt>
      <trkpt lat="50.15517" lon="4.91967">
        <ele>270</ele>
        <time>2025-04-05T10:41:01Z</time>
      </trkpt>
      <trkpt lat="50.15519" lon="4.91965">
        <ele>270.2</ele>
        <time>2025-04-05T10:41:02Z</time>
      </trkpt>
      <trkpt lat="50.15521" lon="4.91962">
        <ele>270.4</ele>
        <time>2025-04-05T10:41:03Z</time>
      </trkpt>
      <trkpt lat="50.15523" lon="4.9196">
        <ele>270.4</ele>
        <time>2025-04-05T10:41:04Z</time>
      </trkpt>
      <trkpt lat="50.15525" lon="4.91958">
        <ele>270.6</ele>
        <time>2025-04-05T10:41:05Z</time>
      </trkpt>
      <trkpt lat="50.15528" lon="4.91955">
        <ele>270.8</ele>
        <time>2025-04-05T10:41:06Z</time>
      </trkpt>
      <trkpt lat="50.1553" lon="4.91953">
        <ele>271</ele>
        <time>2025-04-05T10:41:07Z</time>
      </trkpt>
      <trkpt lat="50.15533" lon="4.91951">
        <ele>271</ele>
        <time>2025-04-05T10:41:08Z</time>
      </trkpt>
      <trkpt lat="50.15535" lon="4.91948">
        <ele>271.2</ele>
        <time>2025-04-05T10:41:09Z</time>
      </trkpt>
      <trkpt lat="50.15537" lon="4.91946">
        <ele>271.4</ele>
        <time>2025-04-05T10:41:10Z</time>
      </trkpt>
      <trkpt lat="50.15539" lon="4.91944">
        <ele>271.6</ele>
        <time>2025-04-05T10:41:11Z</time>
      </trkpt>
      <trkpt lat="50.15542" lon="4.91941">
        <ele>271.6</ele>
        <time>2025-04-05T10:41:12Z</time>
      </trkpt>
      <trkpt lat="50.15544" lon="4.91939">
        <ele>271.8</ele>
        <time>2025-04-05T10:41:13Z</time>
      </trkpt>
      <trkpt lat="50.15546" lon="4.91936">
        <ele>272</ele>
        <time>2025-04-05T10:41:14Z</time>
      </trkpt>
      <trkpt lat="50.15548" lon="4.91934">
        <ele>272</ele>
        <time>2025-04-05T10:41:15Z</time>
      </trkpt>
      <trkpt lat="50.15551" lon="4.91931">
        <ele>272.2</ele>
        <time>2025-04-05T10:41:16Z</time>
      </trkpt>
      <trkpt lat="50.15553" lon="4.91929">
        <ele>272.4</ele>
        <time>2025-04-05T10:41:17Z</time>
      </trkpt>
      <trkpt lat="50.15556" lon="4.91926">
        <ele>272.4</ele>
        <time>2025-04-05T10:41:18Z</time>
      </trkpt>
      <trkpt lat="50.15559" lon="4.91924">
        <ele>272.6</ele>
        <time>2025-04-05T10:41:19Z</time>
      </trkpt>
      <trkpt lat="50.15562" lon="4.91921">
        <ele>272.6</ele>
        <time>2025-04-05T10:41:20Z</time>
      </trkpt>
      <trkpt lat="50.15564" lon="4.91918">
        <ele>272.8</ele>
        <time>2025-04-05T10:41:21Z</time>
      </trkpt>
      <trkpt lat="50.15567" lon="4.91915">
        <ele>272.8</ele>
        <time>2025-04-05T10:41:22Z</time>
      </trkpt>
      <trkpt lat="50.1557" lon="4.91913">
        <ele>272.8</ele>
        <time>2025-04-05T10:41:23Z</time>
      </trkpt>
      <trkpt lat="50.15572" lon="4.9191">
        <ele>273</ele>
        <time>2025-04-05T10:41:24Z</time>
      </trkpt>
      <trkpt lat="50.15575" lon="4.91907">
        <ele>273</ele>
        <time>2025-04-05T10:41:25Z</time>
      </trkpt>
      <trkpt lat="50.15578" lon="4.91904">
        <ele>273</ele>
        <time>2025-04-05T10:41:26Z</time>
      </trkpt>
      <trkpt lat="50.1558" lon="4.91902">
        <ele>273</ele>
        <time>2025-04-05T10:41:27Z</time>
      </trkpt>
      <trkpt lat="50.15582" lon="4.919">
        <ele>273</ele>
        <time>2025-04-05T10:41:28Z</time>
      </trkpt>
      <trkpt lat="50.15585" lon="4.91898">
        <ele>273</ele>
        <time>2025-04-05T10:41:29Z</time>
      </trkpt>
      <trkpt lat="50.15587" lon="4.91897">
        <ele>273</ele>
        <time>2025-04-05T10:41:30Z</time>
      </trkpt>
      <trkpt lat="50.15589" lon="4.91895">
        <ele>273</ele>
        <time>2025-04-05T10:41:31Z</time>
      </trkpt>
      <trkpt lat="50.15591" lon="4.91893">
        <ele>273</ele>
        <time>2025-04-05T10:41:32Z</time>
      </trkpt>
      <trkpt lat="50.15594" lon="4.91892">
        <ele>273.2</ele>
        <time>2025-04-05T10:41:33Z</time>
      </trkpt>
      <trkpt lat="50.15596" lon="4.9189">
        <ele>273.2</ele>
        <time>2025-04-05T10:41:34Z</time>
      </trkpt>
      <trkpt lat="50.15598" lon="4.91889">
        <ele>273.2</ele>
        <time>2025-04-05T10:41:35Z</time>
      </trkpt>
      <trkpt lat="50.156" lon="4.91887">
        <ele>273.2</ele>
        <time>2025-04-05T10:41:36Z</time>
      </trkpt>
      <trkpt lat="50.15601" lon="4.91886">
        <ele>273.2</ele>
        <time>2025-04-05T10:41:37Z</time>
      </trkpt>
      <trkpt lat="50.15602" lon="4.91886">
        <ele>273.2</ele>
        <time>2025-04-05T10:41:38Z</time>
      </trkpt>
      <trkpt lat="50.15609" lon="4.91877">
        <ele>273.2</ele>
        <time>2025-04-05T10:44:13Z</time>
      </trkpt>
      <trkpt lat="50.15611" lon="4.91874">
        <ele>273.2</ele>
        <time>2025-04-05T10:44:14Z</time>
      </trkpt>
      <trkpt lat="50.15614" lon="4.91871">
        <ele>273.2</ele>
        <time>2025-04-05T10:44:15Z</time>
      </trkpt>
      <trkpt lat="50.15617" lon="4.91868">
        <ele>273.2</ele>
        <time>2025-04-05T10:44:16Z</time>
      </trkpt>
      <trkpt lat="50.15619" lon="4.91865">
        <ele>273</ele>
        <time>2025-04-05T10:44:17Z</time>
      </trkpt>
      <trkpt lat="50.15622" lon="4.91861">
        <ele>273</ele>
        <time>2025-04-05T10:44:18Z</time>
      </trkpt>
      <trkpt lat="50.15624" lon="4.91858">
        <ele>273</ele>
        <time>2025-04-05T10:44:19Z</time>
      </trkpt>
      <trkpt lat="50.15626" lon="4.91854">
        <ele>273</ele>
        <time>2025-04-05T10:44:20Z</time>
      </trkpt>
      <trkpt lat="50.15629" lon="4.91851">
        <ele>273.2</ele>
        <time>2025-04-05T10:44:21Z</time>
      </trkpt>
      <trkpt lat="50.15632" lon="4.91848">
        <ele>273</ele>
        <time>2025-04-05T10:44:22Z</time>
      </trkpt>
      <trkpt lat="50.15636" lon="4.91845">
        <ele>273</ele>
        <time>2025-04-05T10:44:23Z</time>
      </trkpt>
      <trkpt lat="50.1564" lon="4.9184">
        <ele>273</ele>
        <time>2025-04-05T10:44:24Z</time>
      </trkpt>
      <trkpt lat="50.15643" lon="4.91836">
        <ele>272.8</ele>
        <time>2025-04-05T10:44:25Z</time>
      </trkpt>
      <trkpt lat="50.15647" lon="4.91833">
        <ele>272.8</ele>
        <time>2025-04-05T10:44:26Z</time>
      </trkpt>
      <trkpt lat="50.1565" lon="4.91829">
        <ele>272.6</ele>
        <time>2025-04-05T10:44:27Z</time>
      </trkpt>
      <trkpt lat="50.15654" lon="4.91825">
        <ele>272.4</ele>
        <time>2025-04-05T10:44:28Z</time>
      </trkpt>
      <trkpt lat="50.15659" lon="4.9182">
        <ele>272.4</ele>
        <time>2025-04-05T10:44:29Z</time>
      </trkpt>
      <trkpt lat="50.15663" lon="4.91816">
        <ele>272.2</ele>
        <time>2025-04-05T10:44:30Z</time>
      </trkpt>
      <trkpt lat="50.15667" lon="4.91812">
        <ele>272.2</ele>
        <time>2025-04-05T10:44:31Z</time>
      </trkpt>
      <trkpt lat="50.1567" lon="4.91808">
        <ele>272</ele>
        <time>2025-04-05T10:44:32Z</time>
      </trkpt>
      <trkpt lat="50.15675" lon="4.91803">
        <ele>272</ele>
        <time>2025-04-05T10:44:33Z</time>
      </trkpt>
      <trkpt lat="50.15679" lon="4.91799">
        <ele>272.2</ele>
        <time>2025-04-05T10:44:34Z</time>
      </trkpt>
      <trkpt lat="50.15683" lon="4.91795">
        <ele>272.2</ele>
        <time>2025-04-05T10:44:35Z</time>
      </trkpt>
      <trkpt lat="50.15687" lon="4.91791">
        <ele>272.2</ele>
        <time>2025-04-05T10:44:36Z</time>
      </trkpt>
      <trkpt lat="50.15692" lon="4.91786">
        <ele>272.2</ele>
        <time>2025-04-05T10:44:37Z</time>
      </trkpt>
      <trkpt lat="50.15696" lon="4.91782">
        <ele>272.2</ele>
        <time>2025-04-05T10:44:38Z</time>
      </trkpt>
      <trkpt lat="50.15701" lon="4.91777">
        <ele>272.2</ele>
        <time>2025-04-05T10:44:39Z</time>
      </trkpt>
      <trkpt lat="50.15705" lon="4.91773">
        <ele>272.2</ele>
        <time>2025-04-05T10:44:40Z</time>
      </trkpt>
      <trkpt lat="50.1571" lon="4.91768">
        <ele>272</ele>
        <time>2025-04-05T10:44:41Z</time>
      </trkpt>
      <trkpt lat="50.15714" lon="4.91764">
        <ele>272</ele>
        <time>2025-04-05T10:44:42Z</time>
      </trkpt>
      <trkpt lat="50.15718" lon="4.91759">
        <ele>272</ele>
        <time>2025-04-05T10:44:43Z</time>
      </trkpt>
      <trkpt lat="50.15722" lon="4.91756">
        <ele>271.8</ele>
        <time>2025-04-05T10:44:44Z</time>
      </trkpt>
      <trkpt lat="50.15727" lon="4.91751">
        <ele>271.8</ele>
        <time>2025-04-05T10:44:45Z</time>
      </trkpt>
      <trkpt lat="50.15731" lon="4.91746">
        <ele>271.6</ele>
        <time>2025-04-05T10:44:46Z</time>
      </trkpt>
      <trkpt lat="50.15736" lon="4.91742">
        <ele>271.4</ele>
        <time>2025-04-05T10:44:47Z</time>
      </trkpt>
      <trkpt lat="50.1574" lon="4.91738">
        <ele>271.4</ele>
        <time>2025-04-05T10:44:48Z</time>
      </trkpt>
      <trkpt lat="50.15744" lon="4.91733">
        <ele>271.4</ele>
        <time>2025-04-05T10:44:49Z</time>
      </trkpt>
      <trkpt lat="50.15749" lon="4.91728">
        <ele>271.2</ele>
        <time>2025-04-05T10:44:50Z</time>
      </trkpt>
      <trkpt lat="50.15754" lon="4.91723">
        <ele>271.2</ele>
        <time>2025-04-05T10:44:51Z</time>
      </trkpt>
      <trkpt lat="50.1576" lon="4.91718">
        <ele>271</ele>
        <time>2025-04-05T10:44:52Z</time>
      </trkpt>
      <trkpt lat="50.15764" lon="4.91713">
        <ele>270.8</ele>
        <time>2025-04-05T10:44:53Z</time>
      </trkpt>
      <trkpt lat="50.15769" lon="4.91707">
        <ele>270.8</ele>
        <time>2025-04-05T10:44:54Z</time>
      </trkpt>
      <trkpt lat="50.15775" lon="4.91702">
        <ele>270.6</ele>
        <time>2025-04-05T10:44:55Z</time>
      </trkpt>
      <trkpt lat="50.1578" lon="4.91697">
        <ele>270.4</ele>
        <time>2025-04-05T10:44:56Z</time>
      </trkpt>
      <trkpt lat="50.15785" lon="4.91691">
        <ele>270.2</ele>
        <time>2025-04-05T10:44:57Z</time>
      </trkpt>
      <trkpt lat="50.15791" lon="4.91686">
        <ele>270</ele>
        <time>2025-04-05T10:44:58Z</time>
      </trkpt>
      <trkpt lat="50.15796" lon="4.9168">
        <ele>270</ele>
        <time>2025-04-05T10:44:59Z</time>
      </trkpt>
      <trkpt lat="50.15801" lon="4.91675">
        <ele>269.8</ele>
        <time>2025-04-05T10:45:00Z</time>
      </trkpt>
      <trkpt lat="50.15806" lon="4.9167">
        <ele>269.6</ele>
        <time>2025-04-05T10:45:01Z</time>
      </trkpt>
      <trkpt lat="50.1581" lon="4.91665">
        <ele>269.4</ele>
        <time>2025-04-05T10:45:02Z</time>
      </trkpt>
      <trkpt lat="50.15816" lon="4.91659">
        <ele>269.4</ele>
        <time>2025-04-05T10:45:03Z</time>
      </trkpt>
      <trkpt lat="50.15822" lon="4.91653">
        <ele>269.2</ele>
        <time>2025-04-05T10:45:04Z</time>
      </trkpt>
      <trkpt lat="50.15827" lon="4.91648">
        <ele>269</ele>
        <time>2025-04-05T10:45:05Z</time>
      </trkpt>
      <trkpt lat="50.15832" lon="4.91643">
        <ele>268.8</ele>
        <time>2025-04-05T10:45:06Z</time>
      </trkpt>
      <trkpt lat="50.15836" lon="4.91638">
        <ele>268.6</ele>
        <time>2025-04-05T10:45:07Z</time>
      </trkpt>
      <trkpt lat="50.15841" lon="4.91633">
        <ele>268.6</ele>
        <time>2025-04-05T10:45:08Z</time>
      </trkpt>
      <trkpt lat="50.15847" lon="4.91627">
        <ele>268.4</ele>
        <time>2025-04-05T10:45:09Z</time>
      </trkpt>
      <trkpt lat="50.15853" lon="4.91621">
        <ele>268.2</ele>
        <time>2025-04-05T10:45:10Z</time>
      </trkpt>
      <trkpt lat="50.15859" lon="4.91615">
        <ele>268</ele>
        <time>2025-04-05T10:45:11Z</time>
      </trkpt>
      <trkpt lat="50.15864" lon="4.9161">
        <ele>267.8</ele>
        <time>2025-04-05T10:45:12Z</time>
      </trkpt>
      <trkpt lat="50.1587" lon="4.91604">
        <ele>267.4</ele>
        <time>2025-04-05T10:45:13Z</time>
      </trkpt>
      <trkpt lat="50.15875" lon="4.91599">
        <ele>267.2</ele>
        <time>2025-04-05T10:45:14Z</time>
      </trkpt>
      <trkpt lat="50.15881" lon="4.91593">
        <ele>267</ele>
        <time>2025-04-05T10:45:15Z</time>
      </trkpt>
      <trkpt lat="50.15888" lon="4.91586">
        <ele>267</ele>
        <time>2025-04-05T10:45:16Z</time>
      </trkpt>
      <trkpt lat="50.15894" lon="4.9158">
        <ele>266.8</ele>
        <time>2025-04-05T10:45:17Z</time>
      </trkpt>
      <trkpt lat="50.15899" lon="4.91574">
        <ele>266.8</ele>
        <time>2025-04-05T10:45:18Z</time>
      </trkpt>
      <trkpt lat="50.15904" lon="4.91569">
        <ele>266.8</ele>
        <time>2025-04-05T10:45:19Z</time>
      </trkpt>
      <trkpt lat="50.15909" lon="4.91564">
        <ele>266.6</ele>
        <time>2025-04-05T10:45:20Z</time>
      </trkpt>
      <trkpt lat="50.15913" lon="4.91559">
        <ele>266.8</ele>
        <time>2025-04-05T10:45:21Z</time>
      </trkpt>
      <trkpt lat="50.15919" lon="4.91553">
        <ele>267</ele>
        <time>2025-04-05T10:45:22Z</time>
      </trkpt>
      <trkpt lat="50.15924" lon="4.91548">
        <ele>267</ele>
        <time>2025-04-05T10:45:23Z</time>
      </trkpt>
      <trkpt lat="50.15929" lon="4.91543">
        <ele>266.8</ele>
        <time>2025-04-05T10:45:24Z</time>
      </trkpt>
      <trkpt lat="50.15934" lon="4.91538">
        <ele>267</ele>
        <time>2025-04-05T10:45:25Z</time>
      </trkpt>
      <trkpt lat="50.15939" lon="4.91533">
        <ele>267</ele>
        <time>2025-04-05T10:45:26Z</time>
      </trkpt>
      <trkpt lat="50.15944" lon="4.91528">
        <ele>267.2</ele>
        <time>2025-04-05T10:45:27Z</time>
      </trkpt>
      <trkpt lat="50.15949" lon="4.91523">
        <ele>267.4</ele>
        <time>2025-04-05T10:45:28Z</time>
      </trkpt>
      <trkpt lat="50.15953" lon="4.91519">
        <ele>267.6</ele>
        <time>2025-04-05T10:45:29Z</time>
      </trkpt>
      <trkpt lat="50.15958" lon="4.91514">
        <ele>267.8</ele>
        <time>2025-04-05T10:45:30Z</time>
      </trkpt>
      <trkpt lat="50.15962" lon="4.9151">
        <ele>267.8</ele>
        <time>2025-04-05T10:45:31Z</time>
      </trkpt>
      <trkpt lat="50.15966" lon="4.91506">
        <ele>268</ele>
        <time>2025-04-05T10:45:32Z</time>
      </trkpt>
      <trkpt lat="50.15971" lon="4.91501">
        <ele>268.4</ele>
        <time>2025-04-05T10:45:33Z</time>
      </trkpt>
      <trkpt lat="50.15975" lon="4.91497">
        <ele>268.6</ele>
        <time>2025-04-05T10:45:34Z</time>
      </trkpt>
      <trkpt lat="50.1598" lon="4.91492">
        <ele>269</ele>
        <time>2025-04-05T10:45:35Z</time>
      </trkpt>
      <trkpt lat="50.15985" lon="4.91487">
        <ele>269</ele>
        <time>2025-04-05T10:45:36Z</time>
      </trkpt>
      <trkpt lat="50.15989" lon="4.91482">
        <ele>269.2</ele>
        <time>2025-04-05T10:45:37Z</time>
      </trkpt>
      <trkpt lat="50.15993" lon="4.91478">
        <ele>269.4</ele>
        <time>2025-04-05T10:45:38Z</time>
      </trkpt>
      <trkpt lat="50.15997" lon="4.91474">
        <ele>269.4</ele>
        <time>2025-04-05T10:45:39Z</time>
      </trkpt>
      <trkpt lat="50.16002" lon="4.91469">
        <ele>269.6</ele>
        <time>2025-04-05T10:45:40Z</time>
      </trkpt>
      <trkpt lat="50.16005" lon="4.91465">
        <ele>269.8</ele>
        <time>2025-04-05T10:45:41Z</time>
      </trkpt>
      <trkpt lat="50.16009" lon="4.91462">
        <ele>270</ele>
        <time>2025-04-05T10:45:42Z</time>
      </trkpt>
      <trkpt lat="50.16013" lon="4.91457">
        <ele>270.2</ele>
        <time>2025-04-05T10:45:43Z</time>
      </trkpt>
      <trkpt lat="50.16017" lon="4.91453">
        <ele>270.6</ele>
        <time>2025-04-05T10:45:44Z</time>
      </trkpt>
      <trkpt lat="50.16021" lon="4.91449">
        <ele>270.8</ele>
        <time>2025-04-05T10:45:45Z</time>
      </trkpt>
      <trkpt lat="50.16025" lon="4.91445">
        <ele>271</ele>
        <time>2025-04-05T10:45:46Z</time>
      </trkpt>
      <trkpt lat="50.16029" lon="4.91441">
        <ele>271.2</ele>
        <time>2025-04-05T10:45:47Z</time>
      </trkpt>
      <trkpt lat="50.16033" lon="4.91437">
        <ele>271.2</ele>
        <time>2025-04-05T10:45:48Z</time>
      </trkpt>
      <trkpt lat="50.16037" lon="4.91433">
        <ele>271.6</ele>
        <time>2025-04-05T10:45:49Z</time>
      </trkpt>
      <trkpt lat="50.1604" lon="4.9143">
        <ele>271.8</ele>
        <time>2025-04-05T10:45:50Z</time>
      </trkpt>
      <trkpt lat="50.16043" lon="4.91426">
        <ele>272</ele>
        <time>2025-04-05T10:45:51Z</time>
      </trkpt>
      <trkpt lat="50.16047" lon="4.91423">
        <ele>272</ele>
        <time>2025-04-05T10:45:52Z</time>
      </trkpt>
      <trkpt lat="50.1605" lon="4.91419">
        <ele>272.2</ele>
        <time>2025-04-05T10:45:53Z</time>
      </trkpt>
      <trkpt lat="50.16054" lon="4.91415">
        <ele>272.4</ele>
        <time>2025-04-05T10:45:54Z</time>
      </trkpt>
      <trkpt lat="50.16058" lon="4.91412">
        <ele>272.6</ele>
        <time>2025-04-05T10:45:55Z</time>
      </trkpt>
      <trkpt lat="50.16061" lon="4.91408">
        <ele>273</ele>
        <time>2025-04-05T10:45:56Z</time>
      </trkpt>
      <trkpt lat="50.16064" lon="4.91405">
        <ele>273.2</ele>
        <time>2025-04-05T10:45:57Z</time>
      </trkpt>
      <trkpt lat="50.16067" lon="4.91402">
        <ele>273.4</ele>
        <time>2025-04-05T10:45:58Z</time>
      </trkpt>
      <trkpt lat="50.16071" lon="4.91398">
        <ele>273.6</ele>
        <time>2025-04-05T10:45:59Z</time>
      </trkpt>
      <trkpt lat="50.16074" lon="4.91395">
        <ele>273.8</ele>
        <time>2025-04-05T10:46:00Z</time>
      </trkpt>
      <trkpt lat="50.16077" lon="4.91391">
        <ele>274</ele>
        <time>2025-04-05T10:46:01Z</time>
      </trkpt>
      <trkpt lat="50.1608" lon="4.91388">
        <ele>274</ele>
        <time>2025-04-05T10:46:02Z</time>
      </trkpt>
      <trkpt lat="50.16082" lon="4.91385">
        <ele>274.2</ele>
        <time>2025-04-05T10:46:03Z</time>
      </trkpt>
      <trkpt lat="50.16085" lon="4.91382">
        <ele>274.2</ele>
        <time>2025-04-05T10:46:04Z</time>
      </trkpt>
      <trkpt lat="50.16088" lon="4.91379">
        <ele>274.4</ele>
        <time>2025-04-05T10:46:05Z</time>
      </trkpt>
      <trkpt lat="50.16091" lon="4.91375">
        <ele>274.4</ele>
        <time>2025-04-05T10:46:06Z</time>
      </trkpt>
      <trkpt lat="50.16094" lon="4.91372">
        <ele>274.4</ele>
        <time>2025-04-05T10:46:07Z</time>
      </trkpt>
      <trkpt lat="50.16098" lon="4.91369">
        <ele>274.6</ele>
        <time>2025-04-05T10:46:08Z</time>
      </trkpt>
      <trkpt lat="50.16101" lon="4.91366">
        <ele>274.8</ele>
        <time>2025-04-05T10:46:09Z</time>
      </trkpt>
      <trkpt lat="50.16105" lon="4.91362">
        <ele>275</ele>
        <time>2025-04-05T10:46:10Z</time>
      </trkpt>
      <trkpt lat="50.16107" lon="4.91359">
        <ele>275.2</ele>
        <time>2025-04-05T10:46:11Z</time>
      </trkpt>
      <trkpt lat="50.16111" lon="4.91356">
        <ele>275.2</ele>
        <time>2025-04-05T10:46:12Z</time>
      </trkpt>
      <trkpt lat="50.16113" lon="4.91353">
        <ele>275.4</ele>
        <time>2025-04-05T10:46:13Z</time>
      </trkpt>
      <trkpt lat="50.16116" lon="4.9135">
        <ele>275.6</ele>
        <time>2025-04-05T10:46:14Z</time>
      </trkpt>
      <trkpt lat="50.16119" lon="4.91347">
        <ele>275.6</ele>
        <time>2025-04-05T10:46:15Z</time>
      </trkpt>
      <trkpt lat="50.16122" lon="4.91344">
        <ele>275.6</ele>
        <time>2025-04-05T10:46:16Z</time>
      </trkpt>
      <trkpt lat="50.16126" lon="4.9134">
        <ele>275.8</ele>
        <time>2025-04-05T10:46:17Z</time>
      </trkpt>
      <trkpt lat="50.16129" lon="4.91336">
        <ele>275.8</ele>
        <time>2025-04-05T10:46:18Z</time>
      </trkpt>
      <trkpt lat="50.16132" lon="4.91332">
        <ele>276</ele>
        <time>2025-04-05T10:46:19Z</time>
      </trkpt>
      <trkpt lat="50.16135" lon="4.91329">
        <ele>276</ele>
        <time>2025-04-05T10:46:20Z</time>
      </trkpt>
      <trkpt lat="50.16138" lon="4.91325">
        <ele>276.2</ele>
        <time>2025-04-05T10:46:21Z</time>
      </trkpt>
      <trkpt lat="50.16141" lon="4.91322">
        <ele>276.2</ele>
        <time>2025-04-05T10:46:22Z</time>
      </trkpt>
      <trkpt lat="50.16144" lon="4.91318">
        <ele>276.4</ele>
        <time>2025-04-05T10:46:23Z</time>
      </trkpt>
      <trkpt lat="50.16147" lon="4.91313">
        <ele>276.4</ele>
        <time>2025-04-05T10:46:24Z</time>
      </trkpt>
      <trkpt lat="50.16149" lon="4.91309">
        <ele>276.6</ele>
        <time>2025-04-05T10:46:25Z</time>
      </trkpt>
      <trkpt lat="50.16152" lon="4.91306">
        <ele>276.6</ele>
        <time>2025-04-05T10:46:26Z</time>
      </trkpt>
      <trkpt lat="50.16155" lon="4.91302">
        <ele>276.6</ele>
        <time>2025-04-05T10:46:27Z</time>
      </trkpt>
      <trkpt lat="50.16157" lon="4.91298">
        <ele>276.6</ele>
        <time>2025-04-05T10:46:28Z</time>
      </trkpt>
      <trkpt lat="50.16159" lon="4.91294">
        <ele>276.6</ele>
        <time>2025-04-05T10:46:29Z</time>
      </trkpt>
      <trkpt lat="50.16162" lon="4.91289">
        <ele>276.4</ele>
        <time>2025-04-05T10:46:30Z</time>
      </trkpt>
      <trkpt lat="50.16164" lon="4.91285">
        <ele>276.2</ele>
        <time>2025-04-05T10:46:31Z</time>
      </trkpt>
      <trkpt lat="50.16167" lon="4.9128">
        <ele>276.2</ele>
        <time>2025-04-05T10:46:32Z</time>
      </trkpt>
      <trkpt lat="50.1617" lon="4.91274">
        <ele>276.2</ele>
        <time>2025-04-05T10:46:33Z</time>
      </trkpt>
      <trkpt lat="50.16173" lon="4.91269">
        <ele>276.2</ele>
        <time>2025-04-05T10:46:34Z</time>
      </trkpt>
      <trkpt lat="50.16176" lon="4.91264">
        <ele>276</ele>
        <time>2025-04-05T10:46:35Z</time>
      </trkpt>
      <trkpt lat="50.16179" lon="4.91259">
        <ele>275.8</ele>
        <time>2025-04-05T10:46:36Z</time>
      </trkpt>
      <trkpt lat="50.16182" lon="4.91254">
        <ele>275.6</ele>
        <time>2025-04-05T10:46:37Z</time>
      </trkpt>
      <trkpt lat="50.16185" lon="4.91248">
        <ele>275.4</ele>
        <time>2025-04-05T10:46:38Z</time>
      </trkpt>
      <trkpt lat="50.16189" lon="4.91243">
        <ele>275</ele>
        <time>2025-04-05T10:46:39Z</time>
      </trkpt>
      <trkpt lat="50.16192" lon="4.91237">
        <ele>274.8</ele>
        <time>2025-04-05T10:46:40Z</time>
      </trkpt>
      <trkpt lat="50.16196" lon="4.9123">
        <ele>274.6</ele>
        <time>2025-04-05T10:46:41Z</time>
      </trkpt>
      <trkpt lat="50.162" lon="4.91224">
        <ele>274.6</ele>
        <time>2025-04-05T10:46:42Z</time>
      </trkpt>
      <trkpt lat="50.16203" lon="4.91218">
        <ele>274.4</ele>
        <time>2025-04-05T10:46:43Z</time>
      </trkpt>
      <trkpt lat="50.16206" lon="4.91212">
        <ele>274.2</ele>
        <time>2025-04-05T10:46:44Z</time>
      </trkpt>
      <trkpt lat="50.1621" lon="4.91205">
        <ele>274</ele>
        <time>2025-04-05T10:46:45Z</time>
      </trkpt>
      <trkpt lat="50.16214" lon="4.91198">
        <ele>274</ele>
        <time>2025-04-05T10:46:46Z</time>
      </trkpt>
      <trkpt lat="50.16218" lon="4.91192">
        <ele>273.8</ele>
        <time>2025-04-05T10:46:47Z</time>
      </trkpt>
      <trkpt lat="50.16221" lon="4.91186">
        <ele>273.6</ele>
        <time>2025-04-05T10:46:48Z</time>
      </trkpt>
      <trkpt lat="50.16225" lon="4.91179">
        <ele>273.4</ele>
        <time>2025-04-05T10:46:49Z</time>
      </trkpt>
      <trkpt lat="50.16229" lon="4.91172">
        <ele>273.2</ele>
        <time>2025-04-05T10:46:50Z</time>
      </trkpt>
      <trkpt lat="50.16233" lon="4.91166">
        <ele>273</ele>
        <time>2025-04-05T10:46:51Z</time>
      </trkpt>
      <trkpt lat="50.16237" lon="4.91159">
        <ele>273</ele>
        <time>2025-04-05T10:46:52Z</time>
      </trkpt>
      <trkpt lat="50.1624" lon="4.91153">
        <ele>272.6</ele>
        <time>2025-04-05T10:46:53Z</time>
      </trkpt>
      <trkpt lat="50.16244" lon="4.91146">
        <ele>272.4</ele>
        <time>2025-04-05T10:46:54Z</time>
      </trkpt>
      <trkpt lat="50.16248" lon="4.91139">
        <ele>272.4</ele>
        <time>2025-04-05T10:46:55Z</time>
      </trkpt>
      <trkpt lat="50.16252" lon="4.91133">
        <ele>272.2</ele>
        <time>2025-04-05T10:46:56Z</time>
      </trkpt>
      <trkpt lat="50.16256" lon="4.91126">
        <ele>272</ele>
        <time>2025-04-05T10:46:57Z</time>
      </trkpt>
      <trkpt lat="50.1626" lon="4.91118">
        <ele>271.8</ele>
        <time>2025-04-05T10:46:58Z</time>
      </trkpt>
      <trkpt lat="50.16265" lon="4.9111">
        <ele>271.8</ele>
        <time>2025-04-05T10:46:59Z</time>
      </trkpt>
      <trkpt lat="50.16269" lon="4.91102">
        <ele>271.6</ele>
        <time>2025-04-05T10:47:00Z</time>
      </trkpt>
      <trkpt lat="50.16273" lon="4.91095">
        <ele>271.4</ele>
        <time>2025-04-05T10:47:01Z</time>
      </trkpt>
      <trkpt lat="50.16277" lon="4.91088">
        <ele>271.2</ele>
        <time>2025-04-05T10:47:02Z</time>
      </trkpt>
      <trkpt lat="50.16282" lon="4.9108">
        <ele>270.8</ele>
        <time>2025-04-05T10:47:03Z</time>
      </trkpt>
      <trkpt lat="50.16286" lon="4.91072">
        <ele>270.6</ele>
        <time>2025-04-05T10:47:04Z</time>
      </trkpt>
      <trkpt lat="50.1629" lon="4.91064">
        <ele>270.4</ele>
        <time>2025-04-05T10:47:05Z</time>
      </trkpt>
      <trkpt lat="50.16295" lon="4.91057">
        <ele>270.2</ele>
        <time>2025-04-05T10:47:06Z</time>
      </trkpt>
      <trkpt lat="50.16299" lon="4.91049">
        <ele>269.8</ele>
        <time>2025-04-05T10:47:07Z</time>
      </trkpt>
      <trkpt lat="50.16304" lon="4.91041">
        <ele>269.8</ele>
        <time>2025-04-05T10:47:08Z</time>
      </trkpt>
      <trkpt lat="50.16308" lon="4.91033">
        <ele>269.8</ele>
        <time>2025-04-05T10:47:09Z</time>
      </trkpt>
      <trkpt lat="50.16312" lon="4.91026">
        <ele>269.8</ele>
        <time>2025-04-05T10:47:10Z</time>
      </trkpt>
      <trkpt lat="50.16317" lon="4.91018">
        <ele>269.6</ele>
        <time>2025-04-05T10:47:11Z</time>
      </trkpt>
      <trkpt lat="50.16321" lon="4.91011">
        <ele>269.6</ele>
        <time>2025-04-05T10:47:12Z</time>
      </trkpt>
      <trkpt lat="50.16325" lon="4.91003">
        <ele>269.4</ele>
        <time>2025-04-05T10:47:13Z</time>
      </trkpt>
      <trkpt lat="50.16329" lon="4.90997">
        <ele>269.2</ele>
        <time>2025-04-05T10:47:14Z</time>
      </trkpt>
      <trkpt lat="50.16333" lon="4.90989">
        <ele>269.2</ele>
        <time>2025-04-05T10:47:15Z</time>
      </trkpt>
      <trkpt lat="50.16338" lon="4.90981">
        <ele>269</ele>
        <time>2025-04-05T10:47:16Z</time>
      </trkpt>
      <trkpt lat="50.16342" lon="4.90974">
        <ele>268.8</ele>
        <time>2025-04-05T10:47:17Z</time>
      </trkpt>
      <trkpt lat="50.16346" lon="4.90968">
        <ele>268.4</ele>
        <time>2025-04-05T10:47:18Z</time>
      </trkpt>
      <trkpt lat="50.1635" lon="4.9096">
        <ele>268.2</ele>
        <time>2025-04-05T10:47:19Z</time>
      </trkpt>
      <trkpt lat="50.16354" lon="4.90952">
        <ele>268.2</ele>
        <time>2025-04-05T10:47:20Z</time>
      </trkpt>
      <trkpt lat="50.16359" lon="4.90944">
        <ele>268</ele>
        <time>2025-04-05T10:47:21Z</time>
      </trkpt>
      <trkpt lat="50.16364" lon="4.90936">
        <ele>267.8</ele>
        <time>2025-04-05T10:47:22Z</time>
      </trkpt>
      <trkpt lat="50.16368" lon="4.90928">
        <ele>267.6</ele>
        <time>2025-04-05T10:47:23Z</time>
      </trkpt>
      <trkpt lat="50.16373" lon="4.9092">
        <ele>267.4</ele>
        <time>2025-04-05T10:47:24Z</time>
      </trkpt>
      <trkpt lat="50.16377" lon="4.90912">
        <ele>267</ele>
        <time>2025-04-05T10:47:25Z</time>
      </trkpt>
      <trkpt lat="50.16382" lon="4.90904">
        <ele>266.8</ele>
        <time>2025-04-05T10:47:26Z</time>
      </trkpt>
      <trkpt lat="50.16388" lon="4.90896">
        <ele>266.6</ele>
        <time>2025-04-05T10:47:27Z</time>
      </trkpt>
      <trkpt lat="50.16392" lon="4.90887">
        <ele>266.6</ele>
        <time>2025-04-05T10:47:28Z</time>
      </trkpt>
      <trkpt lat="50.16396" lon="4.90881">
        <ele>266.4</ele>
        <time>2025-04-05T10:47:29Z</time>
      </trkpt>
      <trkpt lat="50.16401" lon="4.90872">
        <ele>266.4</ele>
        <time>2025-04-05T10:47:30Z</time>
      </trkpt>
      <trkpt lat="50.16406" lon="4.90864">
        <ele>266.2</ele>
        <time>2025-04-05T10:47:31Z</time>
      </trkpt>
      <trkpt lat="50.1641" lon="4.90856">
        <ele>265.8</ele>
        <time>2025-04-05T10:47:32Z</time>
      </trkpt>
      <trkpt lat="50.16414" lon="4.90849">
        <ele>265.6</ele>
        <time>2025-04-05T10:47:33Z</time>
      </trkpt>
      <trkpt lat="50.16419" lon="4.90842">
        <ele>265.6</ele>
        <time>2025-04-05T10:47:34Z</time>
      </trkpt>
      <trkpt lat="50.16423" lon="4.90834">
        <ele>265.2</ele>
        <time>2025-04-05T10:47:35Z</time>
      </trkpt>
      <trkpt lat="50.16427" lon="4.90827">
        <ele>265.2</ele>
        <time>2025-04-05T10:47:36Z</time>
      </trkpt>
      <trkpt lat="50.16431" lon="4.90819">
        <ele>265</ele>
        <time>2025-04-05T10:47:37Z</time>
      </trkpt>
      <trkpt lat="50.16436" lon="4.90812">
        <ele>264.8</ele>
        <time>2025-04-05T10:47:38Z</time>
      </trkpt>
      <trkpt lat="50.1644" lon="4.90805">
        <ele>264.6</ele>
        <time>2025-04-05T10:47:39Z</time>
      </trkpt>
      <trkpt lat="50.16445" lon="4.90797">
        <ele>264.4</ele>
        <time>2025-04-05T10:47:40Z</time>
      </trkpt>
      <trkpt lat="50.1645" lon="4.9079">
        <ele>264.4</ele>
        <time>2025-04-05T10:47:41Z</time>
      </trkpt>
      <trkpt lat="50.16454" lon="4.90782">
        <ele>264.2</ele>
        <time>2025-04-05T10:47:42Z</time>
      </trkpt>
      <trkpt lat="50.16459" lon="4.90774">
        <ele>263.8</ele>
        <time>2025-04-05T10:47:43Z</time>
      </trkpt>
      <trkpt lat="50.16464" lon="4.90765">
        <ele>263.6</ele>
        <time>2025-04-05T10:47:44Z</time>
      </trkpt>
      <trkpt lat="50.16469" lon="4.90756">
        <ele>263.4</ele>
        <time>2025-04-05T10:47:45Z</time>
      </trkpt>
      <trkpt lat="50.16473" lon="4.90749">
        <ele>263.2</ele>
        <time>2025-04-05T10:47:46Z</time>
      </trkpt>
      <trkpt lat="50.16478" lon="4.90741">
        <ele>263.2</ele>
        <time>2025-04-05T10:47:47Z</time>
      </trkpt>
      <trkpt lat="50.16483" lon="4.90733">
        <ele>263</ele>
        <time>2025-04-05T10:47:48Z</time>
      </trkpt>
      <trkpt lat="50.16488" lon="4.90724">
        <ele>262.8</ele>
        <time>2025-04-05T10:47:49Z</time>
      </trkpt>
      <trkpt lat="50.16493" lon="4.90715">
        <ele>262.6</ele>
        <time>2025-04-05T10:47:50Z</time>
      </trkpt>
      <trkpt lat="50.16497" lon="4.90707">
        <ele>262.6</ele>
        <time>2025-04-05T10:47:51Z</time>
      </trkpt>
      <trkpt lat="50.16501" lon="4.907">
        <ele>262.6</ele>
        <time>2025-04-05T10:47:52Z</time>
      </trkpt>
      <trkpt lat="50.16506" lon="4.90692">
        <ele>262.4</ele>
        <time>2025-04-05T10:47:53Z</time>
      </trkpt>
      <trkpt lat="50.16511" lon="4.90683">
        <ele>262.2</ele>
        <time>2025-04-05T10:47:54Z</time>
      </trkpt>
      <trkpt lat="50.16515" lon="4.90676">
        <ele>262.2</ele>
        <time>2025-04-05T10:47:55Z</time>
      </trkpt>
      <trkpt lat="50.1652" lon="4.90667">
        <ele>262</ele>
        <time>2025-04-05T10:47:56Z</time>
      </trkpt>
      <trkpt lat="50.16525" lon="4.90658">
        <ele>261.8</ele>
        <time>2025-04-05T10:47:57Z</time>
      </trkpt>
      <trkpt lat="50.16529" lon="4.90651">
        <ele>261.6</ele>
        <time>2025-04-05T10:47:58Z</time>
      </trkpt>
      <trkpt lat="50.16533" lon="4.90643">
        <ele>261.4</ele>
        <time>2025-04-05T10:47:59Z</time>
      </trkpt>
      <trkpt lat="50.16537" lon="4.90634">
        <ele>261.4</ele>
        <time>2025-04-05T10:48:00Z</time>
      </trkpt>
      <trkpt lat="50.16542" lon="4.90626">
        <ele>261</ele>
        <time>2025-04-05T10:48:01Z</time>
      </trkpt>
      <trkpt lat="50.16547" lon="4.90618">
        <ele>260.8</ele>
        <time>2025-04-05T10:48:02Z</time>
      </trkpt>
      <trkpt lat="50.16551" lon="4.9061">
        <ele>260.6</ele>
        <time>2025-04-05T10:48:03Z</time>
      </trkpt>
      <trkpt lat="50.16555" lon="4.90601">
        <ele>260.2</ele>
        <time>2025-04-05T10:48:04Z</time>
      </trkpt>
      <trkpt lat="50.1656" lon="4.90593">
        <ele>260.2</ele>
        <time>2025-04-05T10:48:05Z</time>
      </trkpt>
      <trkpt lat="50.16565" lon="4.90585">
        <ele>260</ele>
        <time>2025-04-05T10:48:06Z</time>
      </trkpt>
      <trkpt lat="50.1657" lon="4.90576">
        <ele>260</ele>
        <time>2025-04-05T10:48:07Z</time>
      </trkpt>
      <trkpt lat="50.16574" lon="4.90568">
        <ele>259.8</ele>
        <time>2025-04-05T10:48:08Z</time>
      </trkpt>
      <trkpt lat="50.16578" lon="4.90561">
        <ele>259.6</ele>
        <time>2025-04-05T10:48:09Z</time>
      </trkpt>
      <trkpt lat="50.16583" lon="4.90554">
        <ele>259.6</ele>
        <time>2025-04-05T10:48:10Z</time>
      </trkpt>
      <trkpt lat="50.16587" lon="4.90545">
        <ele>259.6</ele>
        <time>2025-04-05T10:48:11Z</time>
      </trkpt>
      <trkpt lat="50.16592" lon="4.90536">
        <ele>259.4</ele>
        <time>2025-04-05T10:48:12Z</time>
      </trkpt>
      <trkpt lat="50.16596" lon="4.90529">
        <ele>259.4</ele>
        <time>2025-04-05T10:48:13Z</time>
      </trkpt>
      <trkpt lat="50.16601" lon="4.90522">
        <ele>259.4</ele>
        <time>2025-04-05T10:48:14Z</time>
      </trkpt>
      <trkpt lat="50.16607" lon="4.90513">
        <ele>259.4</ele>
        <time>2025-04-05T10:48:15Z</time>
      </trkpt>
      <trkpt lat="50.16611" lon="4.90506">
        <ele>259.2</ele>
        <time>2025-04-05T10:48:16Z</time>
      </trkpt>
      <trkpt lat="50.16616" lon="4.90499">
        <ele>259.2</ele>
        <time>2025-04-05T10:48:17Z</time>
      </trkpt>
      <trkpt lat="50.16623" lon="4.90492">
        <ele>259.2</ele>
        <time>2025-04-05T10:48:18Z</time>
      </trkpt>
      <trkpt lat="50.16628" lon="4.90486">
        <ele>259.2</ele>
        <time>2025-04-05T10:48:19Z</time>
      </trkpt>
      <trkpt lat="50.16634" lon="4.9048">
        <ele>259.2</ele>
        <time>2025-04-05T10:48:20Z</time>
      </trkpt>
      <trkpt lat="50.16639" lon="4.90476">
        <ele>259.2</ele>
        <time>2025-04-05T10:48:21Z</time>
      </trkpt>
      <trkpt lat="50.16645" lon="4.90471">
        <ele>259.2</ele>
        <time>2025-04-05T10:48:22Z</time>
      </trkpt>
      <trkpt lat="50.16651" lon="4.90467">
        <ele>259.4</ele>
        <time>2025-04-05T10:48:23Z</time>
      </trkpt>
      <trkpt lat="50.16657" lon="4.90463">
        <ele>259.6</ele>
        <time>2025-04-05T10:48:24Z</time>
      </trkpt>
      <trkpt lat="50.16662" lon="4.9046">
        <ele>259.6</ele>
        <time>2025-04-05T10:48:25Z</time>
      </trkpt>
      <trkpt lat="50.16668" lon="4.90457">
        <ele>259.8</ele>
        <time>2025-04-05T10:48:26Z</time>
      </trkpt>
      <trkpt lat="50.16673" lon="4.90454">
        <ele>260</ele>
        <time>2025-04-05T10:48:27Z</time>
      </trkpt>
      <trkpt lat="50.1668" lon="4.90452">
        <ele>260</ele>
        <time>2025-04-05T10:48:28Z</time>
      </trkpt>
      <trkpt lat="50.16686" lon="4.90451">
        <ele>260.2</ele>
        <time>2025-04-05T10:48:29Z</time>
      </trkpt>
      <trkpt lat="50.16692" lon="4.9045">
        <ele>260.4</ele>
        <time>2025-04-05T10:48:30Z</time>
      </trkpt>
      <trkpt lat="50.16698" lon="4.90449">
        <ele>260.6</ele>
        <time>2025-04-05T10:48:31Z</time>
      </trkpt>
      <trkpt lat="50.16703" lon="4.90447">
        <ele>260.8</ele>
        <time>2025-04-05T10:48:32Z</time>
      </trkpt>
      <trkpt lat="50.16709" lon="4.90446">
        <ele>261.2</ele>
        <time>2025-04-05T10:48:33Z</time>
      </trkpt>
      <trkpt lat="50.16713" lon="4.90445">
        <ele>261.4</ele>
        <time>2025-04-05T10:48:34Z</time>
      </trkpt>
      <trkpt lat="50.16719" lon="4.90444">
        <ele>261.6</ele>
        <time>2025-04-05T10:48:35Z</time>
      </trkpt>
      <trkpt lat="50.16725" lon="4.90443">
        <ele>261.8</ele>
        <time>2025-04-05T10:48:36Z</time>
      </trkpt>
      <trkpt lat="50.16729" lon="4.90442">
        <ele>262</ele>
        <time>2025-04-05T10:48:37Z</time>
      </trkpt>
      <trkpt lat="50.16734" lon="4.90441">
        <ele>262.2</ele>
        <time>2025-04-05T10:48:38Z</time>
      </trkpt>
      <trkpt lat="50.16739" lon="4.9044">
        <ele>262.4</ele>
        <time>2025-04-05T10:48:39Z</time>
      </trkpt>
      <trkpt lat="50.16743" lon="4.90439">
        <ele>262.6</ele>
        <time>2025-04-05T10:48:40Z</time>
      </trkpt>
      <trkpt lat="50.16749" lon="4.90439">
        <ele>263</ele>
        <time>2025-04-05T10:48:41Z</time>
      </trkpt>
      <trkpt lat="50.16753" lon="4.90438">
        <ele>263.2</ele>
        <time>2025-04-05T10:48:42Z</time>
      </trkpt>
      <trkpt lat="50.16758" lon="4.90437">
        <ele>263.4</ele>
        <time>2025-04-05T10:48:43Z</time>
      </trkpt>
      <trkpt lat="50.16763" lon="4.90435">
        <ele>263.6</ele>
        <time>2025-04-05T10:48:44Z</time>
      </trkpt>
      <trkpt lat="50.16768" lon="4.90434">
        <ele>264</ele>
        <time>2025-04-05T10:48:45Z</time>
      </trkpt>
      <trkpt lat="50.16774" lon="4.90433">
        <ele>264.2</ele>
        <time>2025-04-05T10:48:46Z</time>
      </trkpt>
      <trkpt lat="50.16778" lon="4.90432">
        <ele>264.4</ele>
        <time>2025-04-05T10:48:47Z</time>
      </trkpt>
      <trkpt lat="50.16783" lon="4.90431">
        <ele>264.6</ele>
        <time>2025-04-05T10:48:48Z</time>
      </trkpt>
      <trkpt lat="50.16789" lon="4.9043">
        <ele>264.8</ele>
        <time>2025-04-05T10:48:49Z</time>
      </trkpt>
      <trkpt lat="50.16792" lon="4.90429">
        <ele>265</ele>
        <time>2025-04-05T10:48:50Z</time>
      </trkpt>
      <trkpt lat="50.16797" lon="4.90428">
        <ele>265.2</ele>
        <time>2025-04-05T10:48:51Z</time>
      </trkpt>
      <trkpt lat="50.16801" lon="4.90427">
        <ele>265.4</ele>
        <time>2025-04-05T10:48:52Z</time>
      </trkpt>
      <trkpt lat="50.16805" lon="4.90426">
        <ele>265.6</ele>
        <time>2025-04-05T10:48:53Z</time>
      </trkpt>
      <trkpt lat="50.1681" lon="4.90425">
        <ele>265.8</ele>
        <time>2025-04-05T10:48:54Z</time>
      </trkpt>
      <trkpt lat="50.16814" lon="4.90424">
        <ele>266</ele>
        <time>2025-04-05T10:48:55Z</time>
      </trkpt>
      <trkpt lat="50.16818" lon="4.90423">
        <ele>266</ele>
        <time>2025-04-05T10:48:56Z</time>
      </trkpt>
      <trkpt lat="50.16821" lon="4.90422">
        <ele>266.2</ele>
        <time>2025-04-05T10:48:57Z</time>
      </trkpt>
      <trkpt lat="50.16826" lon="4.90421">
        <ele>266.4</ele>
        <time>2025-04-05T10:48:58Z</time>
      </trkpt>
      <trkpt lat="50.16829" lon="4.9042">
        <ele>266.6</ele>
        <time>2025-04-05T10:48:59Z</time>
      </trkpt>
      <trkpt lat="50.16832" lon="4.90419">
        <ele>266.8</ele>
        <time>2025-04-05T10:49:00Z</time>
      </trkpt>
      <trkpt lat="50.16837" lon="4.90419">
        <ele>267</ele>
        <time>2025-04-05T10:49:01Z</time>
      </trkpt>
      <trkpt lat="50.16841" lon="4.90418">
        <ele>267.2</ele>
        <time>2025-04-05T10:49:02Z</time>
      </trkpt>
      <trkpt lat="50.16844" lon="4.90417">
        <ele>267.4</ele>
        <time>2025-04-05T10:49:03Z</time>
      </trkpt>
      <trkpt lat="50.16848" lon="4.90415">
        <ele>267.6</ele>
        <time>2025-04-05T10:49:04Z</time>
      </trkpt>
      <trkpt lat="50.16852" lon="4.90414">
        <ele>267.8</ele>
        <time>2025-04-05T10:49:05Z</time>
      </trkpt>
      <trkpt lat="50.16856" lon="4.90414">
        <ele>268</ele>
        <time>2025-04-05T10:49:06Z</time>
      </trkpt>
      <trkpt lat="50.16859" lon="4.90413">
        <ele>268.2</ele>
        <time>2025-04-05T10:49:07Z</time>
      </trkpt>
      <trkpt lat="50.16864" lon="4.90412">
        <ele>268.4</ele>
        <time>2025-04-05T10:49:08Z</time>
      </trkpt>
      <trkpt lat="50.16867" lon="4.9041">
        <ele>268.6</ele>
        <time>2025-04-05T10:49:09Z</time>
      </trkpt>
      <trkpt lat="50.16871" lon="4.90409">
        <ele>268.8</ele>
        <time>2025-04-05T10:49:10Z</time>
      </trkpt>
      <trkpt lat="50.16876" lon="4.90408">
        <ele>269</ele>
        <time>2025-04-05T10:49:11Z</time>
      </trkpt>
      <trkpt lat="50.16879" lon="4.90407">
        <ele>269.2</ele>
        <time>2025-04-05T10:49:12Z</time>
      </trkpt>
      <trkpt lat="50.16882" lon="4.90407">
        <ele>269.4</ele>
        <time>2025-04-05T10:49:13Z</time>
      </trkpt>
      <trkpt lat="50.16887" lon="4.90406">
        <ele>269.6</ele>
        <time>2025-04-05T10:49:14Z</time>
      </trkpt>
      <trkpt lat="50.16891" lon="4.90405">
        <ele>269.8</ele>
        <time>2025-04-05T10:49:15Z</time>
      </trkpt>
      <trkpt lat="50.16894" lon="4.90404">
        <ele>269.8</ele>
        <time>2025-04-05T10:49:16Z</time>
      </trkpt>
      <trkpt lat="50.16898" lon="4.90403">
        <ele>270</ele>
        <time>2025-04-05T10:49:17Z</time>
      </trkpt>
      <trkpt lat="50.16901" lon="4.90402">
        <ele>270.2</ele>
        <time>2025-04-05T10:49:18Z</time>
      </trkpt>
      <trkpt lat="50.16905" lon="4.90401">
        <ele>270.4</ele>
        <time>2025-04-05T10:49:19Z</time>
      </trkpt>
      <trkpt lat="50.16909" lon="4.904">
        <ele>270.6</ele>
        <time>2025-04-05T10:49:20Z</time>
      </trkpt>
      <trkpt lat="50.16912" lon="4.90399">
        <ele>270.6</ele>
        <time>2025-04-05T10:49:21Z</time>
      </trkpt>
      <trkpt lat="50.16916" lon="4.90398">
        <ele>270.8</ele>
        <time>2025-04-05T10:49:22Z</time>
      </trkpt>
      <trkpt lat="50.16919" lon="4.90397">
        <ele>271</ele>
        <time>2025-04-05T10:49:23Z</time>
      </trkpt>
      <trkpt lat="50.16923" lon="4.90395">
        <ele>271.2</ele>
        <time>2025-04-05T10:49:24Z</time>
      </trkpt>
      <trkpt lat="50.16927" lon="4.90394">
        <ele>271.2</ele>
        <time>2025-04-05T10:49:25Z</time>
      </trkpt>
      <trkpt lat="50.1693" lon="4.90394">
        <ele>271.2</ele>
        <time>2025-04-05T10:49:26Z</time>
      </trkpt>
      <trkpt lat="50.16933" lon="4.90394">
        <ele>271.4</ele>
        <time>2025-04-05T10:49:27Z</time>
      </trkpt>
      <trkpt lat="50.16937" lon="4.90393">
        <ele>271.4</ele>
        <time>2025-04-05T10:49:28Z</time>
      </trkpt>
      <trkpt lat="50.16941" lon="4.90392">
        <ele>271.6</ele>
        <time>2025-04-05T10:49:29Z</time>
      </trkpt>
      <trkpt lat="50.16944" lon="4.90392">
        <ele>271.8</ele>
        <time>2025-04-05T10:49:30Z</time>
      </trkpt>
      <trkpt lat="50.16948" lon="4.90391">
        <ele>272</ele>
        <time>2025-04-05T10:49:31Z</time>
      </trkpt>
      <trkpt lat="50.16952" lon="4.9039">
        <ele>272</ele>
        <time>2025-04-05T10:49:32Z</time>
      </trkpt>
      <trkpt lat="50.16955" lon="4.90389">
        <ele>272.2</ele>
        <time>2025-04-05T10:49:33Z</time>
      </trkpt>
      <trkpt lat="50.16958" lon="4.90388">
        <ele>272.4</ele>
        <time>2025-04-05T10:49:34Z</time>
      </trkpt>
      <trkpt lat="50.16962" lon="4.90387">
        <ele>272.6</ele>
        <time>2025-04-05T10:49:35Z</time>
      </trkpt>
      <trkpt lat="50.16966" lon="4.90386">
        <ele>272.6</ele>
        <time>2025-04-05T10:49:36Z</time>
      </trkpt>
      <trkpt lat="50.16969" lon="4.90386">
        <ele>272.8</ele>
        <time>2025-04-05T10:49:37Z</time>
      </trkpt>
      <trkpt lat="50.16972" lon="4.90385">
        <ele>273</ele>
        <time>2025-04-05T10:49:38Z</time>
      </trkpt>
      <trkpt lat="50.16975" lon="4.90384">
        <ele>273.4</ele>
        <time>2025-04-05T10:49:39Z</time>
      </trkpt>
      <trkpt lat="50.16979" lon="4.90384">
        <ele>273.6</ele>
        <time>2025-04-05T10:49:40Z</time>
      </trkpt>
      <trkpt lat="50.16983" lon="4.90383">
        <ele>273.6</ele>
        <time>2025-04-05T10:49:41Z</time>
      </trkpt>
      <trkpt lat="50.16986" lon="4.90382">
        <ele>273.8</ele>
        <time>2025-04-05T10:49:42Z</time>
      </trkpt>
      <trkpt lat="50.1699" lon="4.90381">
        <ele>274</ele>
        <time>2025-04-05T10:49:43Z</time>
      </trkpt>
      <trkpt lat="50.16993" lon="4.9038">
        <ele>274</ele>
        <time>2025-04-05T10:49:44Z</time>
      </trkpt>
      <trkpt lat="50.16996" lon="4.9038">
        <ele>274.4</ele>
        <time>2025-04-05T10:49:45Z</time>
      </trkpt>
      <trkpt lat="50.16999" lon="4.90379">
        <ele>274.4</ele>
        <time>2025-04-05T10:49:46Z</time>
      </trkpt>
      <trkpt lat="50.17003" lon="4.90378">
        <ele>274.6</ele>
        <time>2025-04-05T10:49:47Z</time>
      </trkpt>
      <trkpt lat="50.17006" lon="4.90378">
        <ele>274.8</ele>
        <time>2025-04-05T10:49:48Z</time>
      </trkpt>
      <trkpt lat="50.17009" lon="4.90377">
        <ele>275</ele>
        <time>2025-04-05T10:49:49Z</time>
      </trkpt>
      <trkpt lat="50.17012" lon="4.90376">
        <ele>275.2</ele>
        <time>2025-04-05T10:49:50Z</time>
      </trkpt>
      <trkpt lat="50.17016" lon="4.90375">
        <ele>275.4</ele>
        <time>2025-04-05T10:49:51Z</time>
      </trkpt>
      <trkpt lat="50.17019" lon="4.90374">
        <ele>275.6</ele>
        <time>2025-04-05T10:49:52Z</time>
      </trkpt>
      <trkpt lat="50.17023" lon="4.90373">
        <ele>275.6</ele>
        <time>2025-04-05T10:49:53Z</time>
      </trkpt>
      <trkpt lat="50.17026" lon="4.90372">
        <ele>275.8</ele>
        <time>2025-04-05T10:49:54Z</time>
      </trkpt>
      <trkpt lat="50.17029" lon="4.90371">
        <ele>276</ele>
        <time>2025-04-05T10:49:55Z</time>
      </trkpt>
      <trkpt lat="50.17033" lon="4.9037">
        <ele>276.2</ele>
        <time>2025-04-05T10:49:56Z</time>
      </trkpt>
      <trkpt lat="50.17036" lon="4.9037">
        <ele>276.4</ele>
        <time>2025-04-05T10:49:57Z</time>
      </trkpt>
      <trkpt lat="50.17039" lon="4.90369">
        <ele>276.4</ele>
        <time>2025-04-05T10:49:58Z</time>
      </trkpt>
      <trkpt lat="50.17043" lon="4.90368">
        <ele>276.6</ele>
        <time>2025-04-05T10:49:59Z</time>
      </trkpt>
      <trkpt lat="50.17046" lon="4.90367">
        <ele>276.8</ele>
        <time>2025-04-05T10:50:00Z</time>
      </trkpt>
      <trkpt lat="50.17049" lon="4.90367">
        <ele>277</ele>
        <time>2025-04-05T10:50:01Z</time>
      </trkpt>
      <trkpt lat="50.17053" lon="4.90367">
        <ele>277.2</ele>
        <time>2025-04-05T10:50:02Z</time>
      </trkpt>
      <trkpt lat="50.17056" lon="4.90366">
        <ele>277.4</ele>
        <time>2025-04-05T10:50:03Z</time>
      </trkpt>
      <trkpt lat="50.17059" lon="4.90365">
        <ele>277.4</ele>
        <time>2025-04-05T10:50:04Z</time>
      </trkpt>
      <trkpt lat="50.17062" lon="4.90365">
        <ele>277.4</ele>
        <time>2025-04-05T10:50:05Z</time>
      </trkpt>
      <trkpt lat="50.17065" lon="4.90364">
        <ele>277.6</ele>
        <time>2025-04-05T10:50:06Z</time>
      </trkpt>
      <trkpt lat="50.17069" lon="4.90363">
        <ele>277.8</ele>
        <time>2025-04-05T10:50:07Z</time>
      </trkpt>
      <trkpt lat="50.17072" lon="4.90362">
        <ele>277.8</ele>
        <time>2025-04-05T10:50:08Z</time>
      </trkpt>
      <trkpt lat="50.17075" lon="4.90361">
        <ele>278</ele>
        <time>2025-04-05T10:50:09Z</time>
      </trkpt>
      <trkpt lat="50.17079" lon="4.9036">
        <ele>278</ele>
        <time>2025-04-05T10:50:10Z</time>
      </trkpt>
      <trkpt lat="50.17082" lon="4.9036">
        <ele>278.2</ele>
        <time>2025-04-05T10:50:11Z</time>
      </trkpt>
      <trkpt lat="50.17086" lon="4.90359">
        <ele>278.2</ele>
        <time>2025-04-05T10:50:12Z</time>
      </trkpt>
      <trkpt lat="50.17089" lon="4.90358">
        <ele>278.2</ele>
        <time>2025-04-05T10:50:13Z</time>
      </trkpt>
      <trkpt lat="50.17093" lon="4.90358">
        <ele>278.4</ele>
        <time>2025-04-05T10:50:14Z</time>
      </trkpt>
      <trkpt lat="50.17096" lon="4.90357">
        <ele>278.4</ele>
        <time>2025-04-05T10:50:15Z</time>
      </trkpt>
      <trkpt lat="50.17099" lon="4.90356">
        <ele>278.6</ele>
        <time>2025-04-05T10:50:16Z</time>
      </trkpt>
      <trkpt lat="50.17102" lon="4.90355">
        <ele>278.6</ele>
        <time>2025-04-05T10:50:17Z</time>
      </trkpt>
      <trkpt lat="50.17106" lon="4.90354">
        <ele>278.8</ele>
        <time>2025-04-05T10:50:18Z</time>
      </trkpt>
      <trkpt lat="50.17109" lon="4.90353">
        <ele>279</ele>
        <time>2025-04-05T10:50:19Z</time>
      </trkpt>
      <trkpt lat="50.17113" lon="4.90352">
        <ele>279</ele>
        <time>2025-04-05T10:50:20Z</time>
      </trkpt>
      <trkpt lat="50.17116" lon="4.90352">
        <ele>279.2</ele>
        <time>2025-04-05T10:50:21Z</time>
      </trkpt>
      <trkpt lat="50.1712" lon="4.90351">
        <ele>279.2</ele>
        <time>2025-04-05T10:50:22Z</time>
      </trkpt>
      <trkpt lat="50.17123" lon="4.9035">
        <ele>279.4</ele>
        <time>2025-04-05T10:50:23Z</time>
      </trkpt>
      <trkpt lat="50.17127" lon="4.90349">
        <ele>279.6</ele>
        <time>2025-04-05T10:50:24Z</time>
      </trkpt>
      <trkpt lat="50.1713" lon="4.90348">
        <ele>279.8</ele>
        <time>2025-04-05T10:50:25Z</time>
      </trkpt>
      <trkpt lat="50.17134" lon="4.90347">
        <ele>280</ele>
        <time>2025-04-05T10:50:26Z</time>
      </trkpt>
      <trkpt lat="50.17137" lon="4.90346">
        <ele>280.2</ele>
        <time>2025-04-05T10:50:27Z</time>
      </trkpt>
      <trkpt lat="50.1714" lon="4.90345">
        <ele>280.2</ele>
        <time>2025-04-05T10:50:28Z</time>
      </trkpt>
      <trkpt lat="50.17144" lon="4.90344">
        <ele>280.4</ele>
        <time>2025-04-05T10:50:29Z</time>
      </trkpt>
      <trkpt lat="50.17147" lon="4.90344">
        <ele>280.6</ele>
        <time>2025-04-05T10:50:30Z</time>
      </trkpt>
      <trkpt lat="50.17151" lon="4.90343">
        <ele>280.8</ele>
        <time>2025-04-05T10:50:31Z</time>
      </trkpt>
      <trkpt lat="50.17154" lon="4.90342">
        <ele>281</ele>
        <time>2025-04-05T10:50:32Z</time>
      </trkpt>
      <trkpt lat="50.17158" lon="4.90342">
        <ele>281</ele>
        <time>2025-04-05T10:50:33Z</time>
      </trkpt>
      <trkpt lat="50.17161" lon="4.90341">
        <ele>281.2</ele>
        <time>2025-04-05T10:50:34Z</time>
      </trkpt>
      <trkpt lat="50.17165" lon="4.9034">
        <ele>281.2</ele>
        <time>2025-04-05T10:50:35Z</time>
      </trkpt>
      <trkpt lat="50.17168" lon="4.90339">
        <ele>281.4</ele>
        <time>2025-04-05T10:50:36Z</time>
      </trkpt>
      <trkpt lat="50.17172" lon="4.90338">
        <ele>281.4</ele>
        <time>2025-04-05T10:50:37Z</time>
      </trkpt>
      <trkpt lat="50.17175" lon="4.90337">
        <ele>281.6</ele>
        <time>2025-04-05T10:50:38Z</time>
      </trkpt>
      <trkpt lat="50.1718" lon="4.90336">
        <ele>281.6</ele>
        <time>2025-04-05T10:50:39Z</time>
      </trkpt>
      <trkpt lat="50.17183" lon="4.90335">
        <ele>281.8</ele>
        <time>2025-04-05T10:50:40Z</time>
      </trkpt>
      <trkpt lat="50.17186" lon="4.90334">
        <ele>281.8</ele>
        <time>2025-04-05T10:50:41Z</time>
      </trkpt>
      <trkpt lat="50.17191" lon="4.90333">
        <ele>281.8</ele>
        <time>2025-04-05T10:50:42Z</time>
      </trkpt>
      <trkpt lat="50.17194" lon="4.90333">
        <ele>282</ele>
        <time>2025-04-05T10:50:43Z</time>
      </trkpt>
      <trkpt lat="50.17197" lon="4.90332">
        <ele>282</ele>
        <time>2025-04-05T10:50:44Z</time>
      </trkpt>
      <trkpt lat="50.17201" lon="4.90331">
        <ele>282</ele>
        <time>2025-04-05T10:50:45Z</time>
      </trkpt>
      <trkpt lat="50.17205" lon="4.9033">
        <ele>281.8</ele>
        <time>2025-04-05T10:50:46Z</time>
      </trkpt>
      <trkpt lat="50.1721" lon="4.90328">
        <ele>281.8</ele>
        <time>2025-04-05T10:50:47Z</time>
      </trkpt>
      <trkpt lat="50.17214" lon="4.90327">
        <ele>281.8</ele>
        <time>2025-04-05T10:50:48Z</time>
      </trkpt>
      <trkpt lat="50.17218" lon="4.90326">
        <ele>281.8</ele>
        <time>2025-04-05T10:50:49Z</time>
      </trkpt>
      <trkpt lat="50.17222" lon="4.90325">
        <ele>281.8</ele>
        <time>2025-04-05T10:50:50Z</time>
      </trkpt>
      <trkpt lat="50.17226" lon="4.90324">
        <ele>281.6</ele>
        <time>2025-04-05T10:50:51Z</time>
      </trkpt>
      <trkpt lat="50.17231" lon="4.90324">
        <ele>281.6</ele>
        <time>2025-04-05T10:50:52Z</time>
      </trkpt>
      <trkpt lat="50.17235" lon="4.90323">
        <ele>281.6</ele>
        <time>2025-04-05T10:50:53Z</time>
      </trkpt>
      <trkpt lat="50.1724" lon="4.90321">
        <ele>281.4</ele>
        <time>2025-04-05T10:50:54Z</time>
      </trkpt>
      <trkpt lat="50.17245" lon="4.9032">
        <ele>281.4</ele>
        <time>2025-04-05T10:50:55Z</time>
      </trkpt>
      <trkpt lat="50.1725" lon="4.90319">
        <ele>281.2</ele>
        <time>2025-04-05T10:50:56Z</time>
      </trkpt>
      <trkpt lat="50.17255" lon="4.90318">
        <ele>281.2</ele>
        <time>2025-04-05T10:50:57Z</time>
      </trkpt>
      <trkpt lat="50.17259" lon="4.90317">
        <ele>281</ele>
        <time>2025-04-05T10:50:58Z</time>
      </trkpt>
      <trkpt lat="50.17264" lon="4.90316">
        <ele>281</ele>
        <time>2025-04-05T10:50:59Z</time>
      </trkpt>
      <trkpt lat="50.17269" lon="4.90315">
        <ele>280.8</ele>
        <time>2025-04-05T10:51:00Z</time>
      </trkpt>
      <trkpt lat="50.17274" lon="4.90314">
        <ele>280.6</ele>
        <time>2025-04-05T10:51:01Z</time>
      </trkpt>
      <trkpt lat="50.1728" lon="4.90313">
        <ele>280.6</ele>
        <time>2025-04-05T10:51:02Z</time>
      </trkpt>
      <trkpt lat="50.17286" lon="4.90311">
        <ele>280.2</ele>
        <time>2025-04-05T10:51:03Z</time>
      </trkpt>
      <trkpt lat="50.17291" lon="4.9031">
        <ele>280</ele>
        <time>2025-04-05T10:51:04Z</time>
      </trkpt>
      <trkpt lat="50.17297" lon="4.90309">
        <ele>279.8</ele>
        <time>2025-04-05T10:51:05Z</time>
      </trkpt>
      <trkpt lat="50.17304" lon="4.90308">
        <ele>279.4</ele>
        <time>2025-04-05T10:51:06Z</time>
      </trkpt>
      <trkpt lat="50.1731" lon="4.90306">
        <ele>279.2</ele>
        <time>2025-04-05T10:51:07Z</time>
      </trkpt>
      <trkpt lat="50.17315" lon="4.90305">
        <ele>279</ele>
        <time>2025-04-05T10:51:08Z</time>
      </trkpt>
      <trkpt lat="50.17322" lon="4.90303">
        <ele>278.6</ele>
        <time>2025-04-05T10:51:09Z</time>
      </trkpt>
      <trkpt lat="50.17328" lon="4.90302">
        <ele>278.4</ele>
        <time>2025-04-05T10:51:10Z</time>
      </trkpt>
      <trkpt lat="50.17335" lon="4.903">
        <ele>278.2</ele>
        <time>2025-04-05T10:51:11Z</time>
      </trkpt>
      <trkpt lat="50.17342" lon="4.90298">
        <ele>278</ele>
        <time>2025-04-05T10:51:12Z</time>
      </trkpt>
      <trkpt lat="50.17349" lon="4.90297">
        <ele>277.8</ele>
        <time>2025-04-05T10:51:13Z</time>
      </trkpt>
      <trkpt lat="50.17356" lon="4.90295">
        <ele>277.6</ele>
        <time>2025-04-05T10:51:14Z</time>
      </trkpt>
      <trkpt lat="50.17363" lon="4.90293">
        <ele>277.2</ele>
        <time>2025-04-05T10:51:15Z</time>
      </trkpt>
      <trkpt lat="50.17371" lon="4.90292">
        <ele>276.8</ele>
        <time>2025-04-05T10:51:16Z</time>
      </trkpt>
      <trkpt lat="50.17378" lon="4.9029">
        <ele>276.4</ele>
        <time>2025-04-05T10:51:17Z</time>
      </trkpt>
      <trkpt lat="50.17385" lon="4.90288">
        <ele>276</ele>
        <time>2025-04-05T10:51:18Z</time>
      </trkpt>
      <trkpt lat="50.17393" lon="4.90286">
        <ele>275.6</ele>
        <time>2025-04-05T10:51:19Z</time>
      </trkpt>
      <trkpt lat="50.17401" lon="4.90284">
        <ele>275.2</ele>
        <time>2025-04-05T10:51:20Z</time>
      </trkpt>
      <trkpt lat="50.17408" lon="4.90282">
        <ele>274.8</ele>
        <time>2025-04-05T10:51:21Z</time>
      </trkpt>
      <trkpt lat="50.17416" lon="4.90281">
        <ele>274.6</ele>
        <time>2025-04-05T10:51:22Z</time>
      </trkpt>
      <trkpt lat="50.17424" lon="4.90279">
        <ele>274.2</ele>
        <time>2025-04-05T10:51:23Z</time>
      </trkpt>
      <trkpt lat="50.17432" lon="4.90276">
        <ele>273.8</ele>
        <time>2025-04-05T10:51:24Z</time>
      </trkpt>
      <trkpt lat="50.1744" lon="4.90275">
        <ele>273.4</ele>
        <time>2025-04-05T10:51:25Z</time>
      </trkpt>
      <trkpt lat="50.17448" lon="4.90272">
        <ele>273</ele>
        <time>2025-04-05T10:51:26Z</time>
      </trkpt>
      <trkpt lat="50.17456" lon="4.9027">
        <ele>272.6</ele>
        <time>2025-04-05T10:51:27Z</time>
      </trkpt>
      <trkpt lat="50.17464" lon="4.90268">
        <ele>272.4</ele>
        <time>2025-04-05T10:51:28Z</time>
      </trkpt>
      <trkpt lat="50.17472" lon="4.90267">
        <ele>272</ele>
        <time>2025-04-05T10:51:29Z</time>
      </trkpt>
      <trkpt lat="50.1748" lon="4.90265">
        <ele>271.6</ele>
        <time>2025-04-05T10:51:30Z</time>
      </trkpt>
      <trkpt lat="50.17489" lon="4.90262">
        <ele>271.4</ele>
        <time>2025-04-05T10:51:31Z</time>
      </trkpt>
      <trkpt lat="50.17497" lon="4.9026">
        <ele>271</ele>
        <time>2025-04-05T10:51:32Z</time>
      </trkpt>
      <trkpt lat="50.17505" lon="4.90258">
        <ele>270.6</ele>
        <time>2025-04-05T10:51:33Z</time>
      </trkpt>
      <trkpt lat="50.17513" lon="4.90256">
        <ele>270</ele>
        <time>2025-04-05T10:51:34Z</time>
      </trkpt>
      <trkpt lat="50.17521" lon="4.90254">
        <ele>270</ele>
        <time>2025-04-05T10:51:35Z</time>
      </trkpt>
      <trkpt lat="50.1753" lon="4.90252">
        <ele>270</ele>
        <time>2025-04-05T10:51:36Z</time>
      </trkpt>
      <trkpt lat="50.17538" lon="4.9025">
        <ele>269.8</ele>
        <time>2025-04-05T10:51:37Z</time>
      </trkpt>
      <trkpt lat="50.17546" lon="4.90248">
        <ele>269.8</ele>
        <time>2025-04-05T10:51:38Z</time>
      </trkpt>
      <trkpt lat="50.17554" lon="4.90247">
        <ele>269.6</ele>
        <time>2025-04-05T10:51:39Z</time>
      </trkpt>
      <trkpt lat="50.17562" lon="4.90245">
        <ele>269.6</ele>
        <time>2025-04-05T10:51:40Z</time>
      </trkpt>
      <trkpt lat="50.17569" lon="4.90243">
        <ele>269.4</ele>
        <time>2025-04-05T10:51:41Z</time>
      </trkpt>
      <trkpt lat="50.17578" lon="4.9024">
        <ele>269.2</ele>
        <time>2025-04-05T10:51:42Z</time>
      </trkpt>
      <trkpt lat="50.17585" lon="4.90239">
        <ele>269</ele>
        <time>2025-04-05T10:51:43Z</time>
      </trkpt>
      <trkpt lat="50.17592" lon="4.90237">
        <ele>269</ele>
        <time>2025-04-05T10:51:44Z</time>
      </trkpt>
      <trkpt lat="50.17601" lon="4.90235">
        <ele>269</ele>
        <time>2025-04-05T10:51:45Z</time>
      </trkpt>
      <trkpt lat="50.17608" lon="4.90233">
        <ele>269</ele>
        <time>2025-04-05T10:51:46Z</time>
      </trkpt>
      <trkpt lat="50.17614" lon="4.90232">
        <ele>269</ele>
        <time>2025-04-05T10:51:47Z</time>
      </trkpt>
      <trkpt lat="50.17622" lon="4.9023">
        <ele>269</ele>
        <time>2025-04-05T10:51:48Z</time>
      </trkpt>
      <trkpt lat="50.17629" lon="4.90228">
        <ele>269</ele>
        <time>2025-04-05T10:51:49Z</time>
      </trkpt>
      <trkpt lat="50.17637" lon="4.90226">
        <ele>269</ele>
        <time>2025-04-05T10:51:50Z</time>
      </trkpt>
      <trkpt lat="50.17644" lon="4.90224">
        <ele>269</ele>
        <time>2025-04-05T10:51:51Z</time>
      </trkpt>
      <trkpt lat="50.17651" lon="4.90222">
        <ele>269</ele>
        <time>2025-04-05T10:51:52Z</time>
      </trkpt>
      <trkpt lat="50.17659" lon="4.9022">
        <ele>269.2</ele>
        <time>2025-04-05T10:51:53Z</time>
      </trkpt>
      <trkpt lat="50.17665" lon="4.90218">
        <ele>269.2</ele>
        <time>2025-04-05T10:51:54Z</time>
      </trkpt>
      <trkpt lat="50.17671" lon="4.90216">
        <ele>269</ele>
        <time>2025-04-05T10:51:55Z</time>
      </trkpt>
      <trkpt lat="50.17678" lon="4.90215">
        <ele>269</ele>
        <time>2025-04-05T10:51:56Z</time>
      </trkpt>
      <trkpt lat="50.17685" lon="4.90213">
        <ele>269</ele>
        <time>2025-04-05T10:51:57Z</time>
      </trkpt>
      <trkpt lat="50.17691" lon="4.90211">
        <ele>269</ele>
        <time>2025-04-05T10:51:58Z</time>
      </trkpt>
      <trkpt lat="50.17697" lon="4.9021">
        <ele>269</ele>
        <time>2025-04-05T10:51:59Z</time>
      </trkpt>
      <trkpt lat="50.17703" lon="4.90209">
        <ele>269.2</ele>
        <time>2025-04-05T10:52:00Z</time>
      </trkpt>
      <trkpt lat="50.17708" lon="4.90208">
        <ele>269.2</ele>
        <time>2025-04-05T10:52:01Z</time>
      </trkpt>
      <trkpt lat="50.17714" lon="4.90207">
        <ele>269.2</ele>
        <time>2025-04-05T10:52:02Z</time>
      </trkpt>
      <trkpt lat="50.1772" lon="4.90205">
        <ele>269.2</ele>
        <time>2025-04-05T10:52:03Z</time>
      </trkpt>
      <trkpt lat="50.17725" lon="4.90204">
        <ele>269.2</ele>
        <time>2025-04-05T10:52:04Z</time>
      </trkpt>
      <trkpt lat="50.17731" lon="4.90202">
        <ele>269.2</ele>
        <time>2025-04-05T10:52:05Z</time>
      </trkpt>
      <trkpt lat="50.17736" lon="4.90201">
        <ele>269.2</ele>
        <time>2025-04-05T10:52:06Z</time>
      </trkpt>
      <trkpt lat="50.17742" lon="4.902">
        <ele>269.2</ele>
        <time>2025-04-05T10:52:07Z</time>
      </trkpt>
      <trkpt lat="50.17748" lon="4.90199">
        <ele>269.2</ele>
        <time>2025-04-05T10:52:08Z</time>
      </trkpt>
      <trkpt lat="50.17753" lon="4.90197">
        <ele>269.2</ele>
        <time>2025-04-05T10:52:09Z</time>
      </trkpt>
      <trkpt lat="50.17759" lon="4.90196">
        <ele>269.2</ele>
        <time>2025-04-05T10:52:10Z</time>
      </trkpt>
      <trkpt lat="50.17765" lon="4.90195">
        <ele>269.2</ele>
        <time>2025-04-05T10:52:11Z</time>
      </trkpt>
      <trkpt lat="50.17771" lon="4.90193">
        <ele>269</ele>
        <time>2025-04-05T10:52:12Z</time>
      </trkpt>
      <trkpt lat="50.17777" lon="4.90192">
        <ele>269</ele>
        <time>2025-04-05T10:52:13Z</time>
      </trkpt>
      <trkpt lat="50.17782" lon="4.90191">
        <ele>269</ele>
        <time>2025-04-05T10:52:14Z</time>
      </trkpt>
      <trkpt lat="50.17788" lon="4.9019">
        <ele>268.8</ele>
        <time>2025-04-05T10:52:15Z</time>
      </trkpt>
      <trkpt lat="50.17794" lon="4.90188">
        <ele>268.8</ele>
        <time>2025-04-05T10:52:16Z</time>
      </trkpt>
      <trkpt lat="50.17799" lon="4.90187">
        <ele>269</ele>
        <time>2025-04-05T10:52:17Z</time>
      </trkpt>
      <trkpt lat="50.17804" lon="4.90185">
        <ele>269</ele>
        <time>2025-04-05T10:52:18Z</time>
      </trkpt>
      <trkpt lat="50.1781" lon="4.90184">
        <ele>269</ele>
        <time>2025-04-05T10:52:19Z</time>
      </trkpt>
      <trkpt lat="50.17816" lon="4.90182">
        <ele>269</ele>
        <time>2025-04-05T10:52:20Z</time>
      </trkpt>
      <trkpt lat="50.17822" lon="4.90181">
        <ele>269</ele>
        <time>2025-04-05T10:52:21Z</time>
      </trkpt>
      <trkpt lat="50.17827" lon="4.9018">
        <ele>269.2</ele>
        <time>2025-04-05T10:52:22Z</time>
      </trkpt>
      <trkpt lat="50.17833" lon="4.90179">
        <ele>269.2</ele>
        <time>2025-04-05T10:52:23Z</time>
      </trkpt>
      <trkpt lat="50.17838" lon="4.90177">
        <ele>269</ele>
        <time>2025-04-05T10:52:24Z</time>
      </trkpt>
      <trkpt lat="50.17844" lon="4.90176">
        <ele>268.8</ele>
        <time>2025-04-05T10:52:25Z</time>
      </trkpt>
      <trkpt lat="50.1785" lon="4.90174">
        <ele>268.6</ele>
        <time>2025-04-05T10:52:26Z</time>
      </trkpt>
      <trkpt lat="50.17855" lon="4.90173">
        <ele>268.8</ele>
        <time>2025-04-05T10:52:27Z</time>
      </trkpt>
      <trkpt lat="50.17861" lon="4.90171">
        <ele>268.8</ele>
        <time>2025-04-05T10:52:28Z</time>
      </trkpt>
      <trkpt lat="50.17867" lon="4.9017">
        <ele>268.8</ele>
        <time>2025-04-05T10:52:29Z</time>
      </trkpt>
      <trkpt lat="50.17873" lon="4.90169">
        <ele>268.8</ele>
        <time>2025-04-05T10:52:30Z</time>
      </trkpt>
      <trkpt lat="50.17879" lon="4.90167">
        <ele>268.8</ele>
        <time>2025-04-05T10:52:31Z</time>
      </trkpt>
      <trkpt lat="50.17884" lon="4.90166">
        <ele>268.8</ele>
        <time>2025-04-05T10:52:32Z</time>
      </trkpt>
      <trkpt lat="50.17889" lon="4.90165">
        <ele>268.8</ele>
        <time>2025-04-05T10:52:33Z</time>
      </trkpt>
      <trkpt lat="50.17894" lon="4.90164">
        <ele>268.8</ele>
        <time>2025-04-05T10:52:34Z</time>
      </trkpt>
      <trkpt lat="50.179" lon="4.90162">
        <ele>268.6</ele>
        <time>2025-04-05T10:52:35Z</time>
      </trkpt>
      <trkpt lat="50.17905" lon="4.90161">
        <ele>268.6</ele>
        <time>2025-04-05T10:52:36Z</time>
      </trkpt>
      <trkpt lat="50.17911" lon="4.9016">
        <ele>268.4</ele>
        <time>2025-04-05T10:52:37Z</time>
      </trkpt>
      <trkpt lat="50.17917" lon="4.90158">
        <ele>268.4</ele>
        <time>2025-04-05T10:52:38Z</time>
      </trkpt>
      <trkpt lat="50.17922" lon="4.90157">
        <ele>268.2</ele>
        <time>2025-04-05T10:52:39Z</time>
      </trkpt>
      <trkpt lat="50.17928" lon="4.90156">
        <ele>268.2</ele>
        <time>2025-04-05T10:52:40Z</time>
      </trkpt>
      <trkpt lat="50.17934" lon="4.90154">
        <ele>268.2</ele>
        <time>2025-04-05T10:52:41Z</time>
      </trkpt>
      <trkpt lat="50.1794" lon="4.90152">
        <ele>268.2</ele>
        <time>2025-04-05T10:52:42Z</time>
      </trkpt>
      <trkpt lat="50.17946" lon="4.90151">
        <ele>268</ele>
        <time>2025-04-05T10:52:43Z</time>
      </trkpt>
      <trkpt lat="50.17952" lon="4.90149">
        <ele>268</ele>
        <time>2025-04-05T10:52:44Z</time>
      </trkpt>
      <trkpt lat="50.17959" lon="4.90147">
        <ele>267.8</ele>
        <time>2025-04-05T10:52:45Z</time>
      </trkpt>
      <trkpt lat="50.17965" lon="4.90146">
        <ele>267.6</ele>
        <time>2025-04-05T10:52:46Z</time>
      </trkpt>
      <trkpt lat="50.17971" lon="4.90144">
        <ele>267.2</ele>
        <time>2025-04-05T10:52:47Z</time>
      </trkpt>
      <trkpt lat="50.17978" lon="4.90142">
        <ele>267</ele>
        <time>2025-04-05T10:52:48Z</time>
      </trkpt>
      <trkpt lat="50.17985" lon="4.9014">
        <ele>266.4</ele>
        <time>2025-04-05T10:52:49Z</time>
      </trkpt>
      <trkpt lat="50.17991" lon="4.90138">
        <ele>266</ele>
        <time>2025-04-05T10:52:50Z</time>
      </trkpt>
      <trkpt lat="50.17999" lon="4.90137">
        <ele>265.8</ele>
        <time>2025-04-05T10:52:51Z</time>
      </trkpt>
      <trkpt lat="50.18006" lon="4.90136">
        <ele>265.6</ele>
        <time>2025-04-05T10:52:52Z</time>
      </trkpt>
      <trkpt lat="50.18012" lon="4.90135">
        <ele>265.4</ele>
        <time>2025-04-05T10:52:53Z</time>
      </trkpt>
      <trkpt lat="50.18019" lon="4.90133">
        <ele>265.2</ele>
        <time>2025-04-05T10:52:54Z</time>
      </trkpt>
      <trkpt lat="50.18026" lon="4.90132">
        <ele>264.8</ele>
        <time>2025-04-05T10:52:55Z</time>
      </trkpt>
      <trkpt lat="50.18033" lon="4.9013">
        <ele>264.4</ele>
        <time>2025-04-05T10:52:56Z</time>
      </trkpt>
      <trkpt lat="50.18041" lon="4.90128">
        <ele>264</ele>
        <time>2025-04-05T10:52:57Z</time>
      </trkpt>
      <trkpt lat="50.18048" lon="4.90127">
        <ele>263.6</ele>
        <time>2025-04-05T10:52:58Z</time>
      </trkpt>
      <trkpt lat="50.18055" lon="4.90125">
        <ele>263.2</ele>
        <time>2025-04-05T10:52:59Z</time>
      </trkpt>
      <trkpt lat="50.18061" lon="4.90123">
        <ele>263</ele>
        <time>2025-04-05T10:53:00Z</time>
      </trkpt>
      <trkpt lat="50.18069" lon="4.90121">
        <ele>262.8</ele>
        <time>2025-04-05T10:53:01Z</time>
      </trkpt>
      <trkpt lat="50.18076" lon="4.9012">
        <ele>262.4</ele>
        <time>2025-04-05T10:53:02Z</time>
      </trkpt>
      <trkpt lat="50.18083" lon="4.90118">
        <ele>262.2</ele>
        <time>2025-04-05T10:53:03Z</time>
      </trkpt>
      <trkpt lat="50.1809" lon="4.90116">
        <ele>262.2</ele>
        <time>2025-04-05T10:53:04Z</time>
      </trkpt>
      <trkpt lat="50.18097" lon="4.90114">
        <ele>262</ele>
        <time>2025-04-05T10:53:05Z</time>
      </trkpt>
      <trkpt lat="50.18105" lon="4.90113">
        <ele>261.8</ele>
        <time>2025-04-05T10:53:06Z</time>
      </trkpt>
      <trkpt lat="50.18112" lon="4.90111">
        <ele>261.6</ele>
        <time>2025-04-05T10:53:07Z</time>
      </trkpt>
      <trkpt lat="50.18119" lon="4.90109">
        <ele>261.4</ele>
        <time>2025-04-05T10:53:08Z</time>
      </trkpt>
      <trkpt lat="50.18127" lon="4.90108">
        <ele>261</ele>
        <time>2025-04-05T10:53:09Z</time>
      </trkpt>
      <trkpt lat="50.18134" lon="4.90106">
        <ele>260.8</ele>
        <time>2025-04-05T10:53:10Z</time>
      </trkpt>
      <trkpt lat="50.18142" lon="4.90104">
        <ele>260.4</ele>
        <time>2025-04-05T10:53:11Z</time>
      </trkpt>
      <trkpt lat="50.18149" lon="4.90102">
        <ele>260.2</ele>
        <time>2025-04-05T10:53:12Z</time>
      </trkpt>
      <trkpt lat="50.18156" lon="4.90101">
        <ele>260</ele>
        <time>2025-04-05T10:53:13Z</time>
      </trkpt>
      <trkpt lat="50.18163" lon="4.90098">
        <ele>259.8</ele>
        <time>2025-04-05T10:53:14Z</time>
      </trkpt>
      <trkpt lat="50.1817" lon="4.90096">
        <ele>259.8</ele>
        <time>2025-04-05T10:53:15Z</time>
      </trkpt>
      <trkpt lat="50.18178" lon="4.90094">
        <ele>259.8</ele>
        <time>2025-04-05T10:53:16Z</time>
      </trkpt>
      <trkpt lat="50.18185" lon="4.90093">
        <ele>259.8</ele>
        <time>2025-04-05T10:53:17Z</time>
      </trkpt>
      <trkpt lat="50.18191" lon="4.90091">
        <ele>259.6</ele>
        <time>2025-04-05T10:53:18Z</time>
      </trkpt>
      <trkpt lat="50.18198" lon="4.9009">
        <ele>259.6</ele>
        <time>2025-04-05T10:53:19Z</time>
      </trkpt>
      <trkpt lat="50.18205" lon="4.90088">
        <ele>259.6</ele>
        <time>2025-04-05T10:53:20Z</time>
      </trkpt>
      <trkpt lat="50.18212" lon="4.90086">
        <ele>259.6</ele>
        <time>2025-04-05T10:53:21Z</time>
      </trkpt>
      <trkpt lat="50.18219" lon="4.90084">
        <ele>259.4</ele>
        <time>2025-04-05T10:53:22Z</time>
      </trkpt>
      <trkpt lat="50.18226" lon="4.90083">
        <ele>259.4</ele>
        <time>2025-04-05T10:53:23Z</time>
      </trkpt>
      <trkpt lat="50.18232" lon="4.90081">
        <ele>259.2</ele>
        <time>2025-04-05T10:53:24Z</time>
      </trkpt>
      <trkpt lat="50.18239" lon="4.9008">
        <ele>259.2</ele>
        <time>2025-04-05T10:53:25Z</time>
      </trkpt>
      <trkpt lat="50.18245" lon="4.90078">
        <ele>259.2</ele>
        <time>2025-04-05T10:53:26Z</time>
      </trkpt>
      <trkpt lat="50.18252" lon="4.90077">
        <ele>259</ele>
        <time>2025-04-05T10:53:27Z</time>
      </trkpt>
      <trkpt lat="50.18259" lon="4.90075">
        <ele>259</ele>
        <time>2025-04-05T10:53:28Z</time>
      </trkpt>
      <trkpt lat="50.18265" lon="4.90074">
        <ele>259</ele>
        <time>2025-04-05T10:53:29Z</time>
      </trkpt>
      <trkpt lat="50.18272" lon="4.90072">
        <ele>259</ele>
        <time>2025-04-05T10:53:30Z</time>
      </trkpt>
      <trkpt lat="50.18278" lon="4.9007">
        <ele>259</ele>
        <time>2025-04-05T10:53:31Z</time>
      </trkpt>
      <trkpt lat="50.18284" lon="4.90069">
        <ele>259.2</ele>
        <time>2025-04-05T10:53:32Z</time>
      </trkpt>
      <trkpt lat="50.18291" lon="4.90067">
        <ele>259.2</ele>
        <time>2025-04-05T10:53:33Z</time>
      </trkpt>
      <trkpt lat="50.18297" lon="4.90065">
        <ele>259.2</ele>
        <time>2025-04-05T10:53:34Z</time>
      </trkpt>
      <trkpt lat="50.18304" lon="4.90064">
        <ele>259.2</ele>
        <time>2025-04-05T10:53:35Z</time>
      </trkpt>
      <trkpt lat="50.1831" lon="4.90062">
        <ele>259.2</ele>
        <time>2025-04-05T10:53:36Z</time>
      </trkpt>
      <trkpt lat="50.18316" lon="4.9006">
        <ele>259.2</ele>
        <time>2025-04-05T10:53:37Z</time>
      </trkpt>
      <trkpt lat="50.18323" lon="4.90059">
        <ele>259.2</ele>
        <time>2025-04-05T10:53:38Z</time>
      </trkpt>
      <trkpt lat="50.18329" lon="4.90057">
        <ele>259.2</ele>
        <time>2025-04-05T10:53:39Z</time>
      </trkpt>
      <trkpt lat="50.18335" lon="4.90056">
        <ele>259.2</ele>
        <time>2025-04-05T10:53:40Z</time>
      </trkpt>
      <trkpt lat="50.18341" lon="4.90054">
        <ele>259.2</ele>
        <time>2025-04-05T10:53:41Z</time>
      </trkpt>
      <trkpt lat="50.18348" lon="4.90053">
        <ele>259</ele>
        <time>2025-04-05T10:53:42Z</time>
      </trkpt>
      <trkpt lat="50.18354" lon="4.90051">
        <ele>259.2</ele>
        <time>2025-04-05T10:53:43Z</time>
      </trkpt>
      <trkpt lat="50.1836" lon="4.90049">
        <ele>259.2</ele>
        <time>2025-04-05T10:53:44Z</time>
      </trkpt>
      <trkpt lat="50.18367" lon="4.90048">
        <ele>259</ele>
        <time>2025-04-05T10:53:45Z</time>
      </trkpt>
      <trkpt lat="50.18373" lon="4.90046">
        <ele>259</ele>
        <time>2025-04-05T10:53:46Z</time>
      </trkpt>
      <trkpt lat="50.18379" lon="4.90045">
        <ele>259</ele>
        <time>2025-04-05T10:53:47Z</time>
      </trkpt>
      <trkpt lat="50.18385" lon="4.90044">
        <ele>259.2</ele>
        <time>2025-04-05T10:53:48Z</time>
      </trkpt>
      <trkpt lat="50.18391" lon="4.90042">
        <ele>259</ele>
        <time>2025-04-05T10:53:49Z</time>
      </trkpt>
      <trkpt lat="50.18397" lon="4.90041">
        <ele>259</ele>
        <time>2025-04-05T10:53:50Z</time>
      </trkpt>
      <trkpt lat="50.18403" lon="4.90039">
        <ele>259</ele>
        <time>2025-04-05T10:53:51Z</time>
      </trkpt>
      <trkpt lat="50.18409" lon="4.90038">
        <ele>259</ele>
        <time>2025-04-05T10:53:52Z</time>
      </trkpt>
      <trkpt lat="50.18415" lon="4.90036">
        <ele>259</ele>
        <time>2025-04-05T10:53:53Z</time>
      </trkpt>
      <trkpt lat="50.18422" lon="4.90035">
        <ele>258.8</ele>
        <time>2025-04-05T10:53:54Z</time>
      </trkpt>
      <trkpt lat="50.18428" lon="4.90034">
        <ele>258.8</ele>
        <time>2025-04-05T10:53:55Z</time>
      </trkpt>
      <trkpt lat="50.18435" lon="4.90032">
        <ele>258.6</ele>
        <time>2025-04-05T10:53:56Z</time>
      </trkpt>
      <trkpt lat="50.18441" lon="4.90031">
        <ele>258.6</ele>
        <time>2025-04-05T10:53:57Z</time>
      </trkpt>
      <trkpt lat="50.18448" lon="4.90029">
        <ele>258.4</ele>
        <time>2025-04-05T10:53:58Z</time>
      </trkpt>
      <trkpt lat="50.18454" lon="4.90028">
        <ele>258.2</ele>
        <time>2025-04-05T10:53:59Z</time>
      </trkpt>
      <trkpt lat="50.18461" lon="4.90026">
        <ele>258</ele>
        <time>2025-04-05T10:54:00Z</time>
      </trkpt>
      <trkpt lat="50.18467" lon="4.90024">
        <ele>257.8</ele>
        <time>2025-04-05T10:54:01Z</time>
      </trkpt>
      <trkpt lat="50.18474" lon="4.90023">
        <ele>257.8</ele>
        <time>2025-04-05T10:54:02Z</time>
      </trkpt>
      <trkpt lat="50.1848" lon="4.90021">
        <ele>257.6</ele>
        <time>2025-04-05T10:54:03Z</time>
      </trkpt>
      <trkpt lat="50.18487" lon="4.90019">
        <ele>257.6</ele>
        <time>2025-04-05T10:54:04Z</time>
      </trkpt>
      <trkpt lat="50.18493" lon="4.90018">
        <ele>257.4</ele>
        <time>2025-04-05T10:54:05Z</time>
      </trkpt>
      <trkpt lat="50.18499" lon="4.90016">
        <ele>257.4</ele>
        <time>2025-04-05T10:54:06Z</time>
      </trkpt>
      <trkpt lat="50.18506" lon="4.90015">
        <ele>257.4</ele>
        <time>2025-04-05T10:54:07Z</time>
      </trkpt>
      <trkpt lat="50.18512" lon="4.90013">
        <ele>257.2</ele>
        <time>2025-04-05T10:54:08Z</time>
      </trkpt>
      <trkpt lat="50.18519" lon="4.90012">
        <ele>257.2</ele>
        <time>2025-04-05T10:54:09Z</time>
      </trkpt>
      <trkpt lat="50.18525" lon="4.9001">
        <ele>257</ele>
        <time>2025-04-05T10:54:10Z</time>
      </trkpt>
      <trkpt lat="50.18531" lon="4.90009">
        <ele>257</ele>
        <time>2025-04-05T10:54:11Z</time>
      </trkpt>
      <trkpt lat="50.18537" lon="4.90007">
        <ele>256.8</ele>
        <time>2025-04-05T10:54:12Z</time>
      </trkpt>
      <trkpt lat="50.18543" lon="4.90006">
        <ele>256.8</ele>
        <time>2025-04-05T10:54:13Z</time>
      </trkpt>
      <trkpt lat="50.18549" lon="4.90004">
        <ele>256.8</ele>
        <time>2025-04-05T10:54:14Z</time>
      </trkpt>
      <trkpt lat="50.18555" lon="4.90003">
        <ele>256.6</ele>
        <time>2025-04-05T10:54:15Z</time>
      </trkpt>
      <trkpt lat="50.18561" lon="4.90002">
        <ele>256.6</ele>
        <time>2025-04-05T10:54:16Z</time>
      </trkpt>
      <trkpt lat="50.18567" lon="4.9">
        <ele>256.6</ele>
        <time>2025-04-05T10:54:17Z</time>
      </trkpt>
      <trkpt lat="50.18573" lon="4.89999">
        <ele>256.8</ele>
        <time>2025-04-05T10:54:18Z</time>
      </trkpt>
      <trkpt lat="50.1858" lon="4.89997">
        <ele>256.8</ele>
        <time>2025-04-05T10:54:19Z</time>
      </trkpt>
      <trkpt lat="50.18586" lon="4.89996">
        <ele>256.6</ele>
        <time>2025-04-05T10:54:20Z</time>
      </trkpt>
      <trkpt lat="50.18592" lon="4.89994">
        <ele>256.4</ele>
        <time>2025-04-05T10:54:21Z</time>
      </trkpt>
      <trkpt lat="50.18598" lon="4.89993">
        <ele>256.2</ele>
        <time>2025-04-05T10:54:22Z</time>
      </trkpt>
      <trkpt lat="50.18604" lon="4.89991">
        <ele>256</ele>
        <time>2025-04-05T10:54:23Z</time>
      </trkpt>
      <trkpt lat="50.1861" lon="4.8999">
        <ele>256</ele>
        <time>2025-04-05T10:54:24Z</time>
      </trkpt>
      <trkpt lat="50.18616" lon="4.89988">
        <ele>255.8</ele>
        <time>2025-04-05T10:54:25Z</time>
      </trkpt>
      <trkpt lat="50.18621" lon="4.89986">
        <ele>255.8</ele>
        <time>2025-04-05T10:54:26Z</time>
      </trkpt>
      <trkpt lat="50.18628" lon="4.89985">
        <ele>255.6</ele>
        <time>2025-04-05T10:54:27Z</time>
      </trkpt>
      <trkpt lat="50.18633" lon="4.89983">
        <ele>255.4</ele>
        <time>2025-04-05T10:54:28Z</time>
      </trkpt>
      <trkpt lat="50.18639" lon="4.89982">
        <ele>255.4</ele>
        <time>2025-04-05T10:54:29Z</time>
      </trkpt>
      <trkpt lat="50.18645" lon="4.89981">
        <ele>255.2</ele>
        <time>2025-04-05T10:54:30Z</time>
      </trkpt>
      <trkpt lat="50.18651" lon="4.89979">
        <ele>255.2</ele>
        <time>2025-04-05T10:54:31Z</time>
      </trkpt>
      <trkpt lat="50.18658" lon="4.89978">
        <ele>255.2</ele>
        <time>2025-04-05T10:54:32Z</time>
      </trkpt>
      <trkpt lat="50.18664" lon="4.89976">
        <ele>255.2</ele>
        <time>2025-04-05T10:54:33Z</time>
      </trkpt>
      <trkpt lat="50.1867" lon="4.89975">
        <ele>255.2</ele>
        <time>2025-04-05T10:54:34Z</time>
      </trkpt>
      <trkpt lat="50.18676" lon="4.89973">
        <ele>255.2</ele>
        <time>2025-04-05T10:54:35Z</time>
      </trkpt>
      <trkpt lat="50.18682" lon="4.89972">
        <ele>255.2</ele>
        <time>2025-04-05T10:54:36Z</time>
      </trkpt>
      <trkpt lat="50.18688" lon="4.8997">
        <ele>255.2</ele>
        <time>2025-04-05T10:54:37Z</time>
      </trkpt>
      <trkpt lat="50.18694" lon="4.89968">
        <ele>255.2</ele>
        <time>2025-04-05T10:54:38Z</time>
      </trkpt>
      <trkpt lat="50.187" lon="4.89967">
        <ele>255.2</ele>
        <time>2025-04-05T10:54:39Z</time>
      </trkpt>
      <trkpt lat="50.18707" lon="4.89965">
        <ele>255.2</ele>
        <time>2025-04-05T10:54:40Z</time>
      </trkpt>
      <trkpt lat="50.18713" lon="4.89964">
        <ele>255.2</ele>
        <time>2025-04-05T10:54:41Z</time>
      </trkpt>
      <trkpt lat="50.18719" lon="4.89962">
        <ele>255.2</ele>
        <time>2025-04-05T10:54:42Z</time>
      </trkpt>
      <trkpt lat="50.18725" lon="4.89961">
        <ele>255.2</ele>
        <time>2025-04-05T10:54:43Z</time>
      </trkpt>
      <trkpt lat="50.18731" lon="4.89959">
        <ele>255.2</ele>
        <time>2025-04-05T10:54:44Z</time>
      </trkpt>
      <trkpt lat="50.18737" lon="4.89957">
        <ele>255.4</ele>
        <time>2025-04-05T10:54:45Z</time>
      </trkpt>
      <trkpt lat="50.18743" lon="4.89956">
        <ele>255.4</ele>
        <time>2025-04-05T10:54:46Z</time>
      </trkpt>
      <trkpt lat="50.18749" lon="4.89955">
        <ele>255.4</ele>
        <time>2025-04-05T10:54:47Z</time>
      </trkpt>
      <trkpt lat="50.18755" lon="4.89954">
        <ele>255.6</ele>
        <time>2025-04-05T10:54:48Z</time>
      </trkpt>
      <trkpt lat="50.18761" lon="4.89952">
        <ele>255.6</ele>
        <time>2025-04-05T10:54:49Z</time>
      </trkpt>
      <trkpt lat="50.18767" lon="4.89951">
        <ele>255.6</ele>
        <time>2025-04-05T10:54:50Z</time>
      </trkpt>
      <trkpt lat="50.18773" lon="4.89949">
        <ele>255.6</ele>
        <time>2025-04-05T10:54:51Z</time>
      </trkpt>
      <trkpt lat="50.18779" lon="4.89948">
        <ele>255.6</ele>
        <time>2025-04-05T10:54:52Z</time>
      </trkpt>
      <trkpt lat="50.18785" lon="4.89946">
        <ele>255.6</ele>
        <time>2025-04-05T10:54:53Z</time>
      </trkpt>
      <trkpt lat="50.18791" lon="4.89945">
        <ele>255.8</ele>
        <time>2025-04-05T10:54:54Z</time>
      </trkpt>
      <trkpt lat="50.18796" lon="4.89944">
        <ele>255.8</ele>
        <time>2025-04-05T10:54:55Z</time>
      </trkpt>
      <trkpt lat="50.18801" lon="4.89943">
        <ele>255.8</ele>
        <time>2025-04-05T10:54:56Z</time>
      </trkpt>
      <trkpt lat="50.18806" lon="4.89942">
        <ele>255.8</ele>
        <time>2025-04-05T10:54:57Z</time>
      </trkpt>
      <trkpt lat="50.18811" lon="4.89941">
        <ele>255.8</ele>
        <time>2025-04-05T10:54:58Z</time>
      </trkpt>
      <trkpt lat="50.18817" lon="4.89939">
        <ele>255.6</ele>
        <time>2025-04-05T10:54:59Z</time>
      </trkpt>
      <trkpt lat="50.18822" lon="4.89938">
        <ele>255.4</ele>
        <time>2025-04-05T10:55:00Z</time>
      </trkpt>
      <trkpt lat="50.18827" lon="4.89937">
        <ele>255.2</ele>
        <time>2025-04-05T10:55:01Z</time>
      </trkpt>
      <trkpt lat="50.18833" lon="4.89936">
        <ele>255.2</ele>
        <time>2025-04-05T10:55:02Z</time>
      </trkpt>
      <trkpt lat="50.18839" lon="4.89934">
        <ele>255</ele>
        <time>2025-04-05T10:55:03Z</time>
      </trkpt>
      <trkpt lat="50.18844" lon="4.89933">
        <ele>255</ele>
        <time>2025-04-05T10:55:04Z</time>
      </trkpt>
      <trkpt lat="50.18848" lon="4.89931">
        <ele>255</ele>
        <time>2025-04-05T10:55:05Z</time>
      </trkpt>
      <trkpt lat="50.18853" lon="4.8993">
        <ele>255</ele>
        <time>2025-04-05T10:55:06Z</time>
      </trkpt>
      <trkpt lat="50.18859" lon="4.89929">
        <ele>255</ele>
        <time>2025-04-05T10:55:07Z</time>
      </trkpt>
      <trkpt lat="50.18863" lon="4.89928">
        <ele>254.8</ele>
        <time>2025-04-05T10:55:08Z</time>
      </trkpt>
      <trkpt lat="50.18869" lon="4.89927">
        <ele>254.8</ele>
        <time>2025-04-05T10:55:09Z</time>
      </trkpt>
      <trkpt lat="50.18874" lon="4.89926">
        <ele>254.6</ele>
        <time>2025-04-05T10:55:10Z</time>
      </trkpt>
      <trkpt lat="50.18879" lon="4.89924">
        <ele>254.4</ele>
        <time>2025-04-05T10:55:11Z</time>
      </trkpt>
      <trkpt lat="50.18884" lon="4.89923">
        <ele>254.4</ele>
        <time>2025-04-05T10:55:12Z</time>
      </trkpt>
      <trkpt lat="50.1889" lon="4.89922">
        <ele>254.2</ele>
        <time>2025-04-05T10:55:13Z</time>
      </trkpt>
      <trkpt lat="50.18896" lon="4.8992">
        <ele>254.2</ele>
        <time>2025-04-05T10:55:14Z</time>
      </trkpt>
      <trkpt lat="50.18901" lon="4.89919">
        <ele>254</ele>
        <time>2025-04-05T10:55:15Z</time>
      </trkpt>
      <trkpt lat="50.18908" lon="4.89917">
        <ele>253.8</ele>
        <time>2025-04-05T10:55:16Z</time>
      </trkpt>
      <trkpt lat="50.18913" lon="4.89916">
        <ele>253.6</ele>
        <time>2025-04-05T10:55:17Z</time>
      </trkpt>
      <trkpt lat="50.18919" lon="4.89914">
        <ele>253.6</ele>
        <time>2025-04-05T10:55:18Z</time>
      </trkpt>
      <trkpt lat="50.18925" lon="4.89913">
        <ele>253.6</ele>
        <time>2025-04-05T10:55:19Z</time>
      </trkpt>
      <trkpt lat="50.1893" lon="4.89911">
        <ele>253.6</ele>
        <time>2025-04-05T10:55:20Z</time>
      </trkpt>
      <trkpt lat="50.18936" lon="4.8991">
        <ele>253.4</ele>
        <time>2025-04-05T10:55:21Z</time>
      </trkpt>
      <trkpt lat="50.18942" lon="4.89909">
        <ele>253.4</ele>
        <time>2025-04-05T10:55:22Z</time>
      </trkpt>
      <trkpt lat="50.18947" lon="4.89907">
        <ele>253.2</ele>
        <time>2025-04-05T10:55:23Z</time>
      </trkpt>
      <trkpt lat="50.18953" lon="4.89906">
        <ele>253.2</ele>
        <time>2025-04-05T10:55:24Z</time>
      </trkpt>
      <trkpt lat="50.18958" lon="4.89904">
        <ele>253</ele>
        <time>2025-04-05T10:55:25Z</time>
      </trkpt>
      <trkpt lat="50.18964" lon="4.89903">
        <ele>252.8</ele>
        <time>2025-04-05T10:55:26Z</time>
      </trkpt>
      <trkpt lat="50.1897" lon="4.89902">
        <ele>252.8</ele>
        <time>2025-04-05T10:55:27Z</time>
      </trkpt>
      <trkpt lat="50.18975" lon="4.899">
        <ele>252.6</ele>
        <time>2025-04-05T10:55:28Z</time>
      </trkpt>
      <trkpt lat="50.18982" lon="4.89899">
        <ele>252.4</ele>
        <time>2025-04-05T10:55:29Z</time>
      </trkpt>
      <trkpt lat="50.18989" lon="4.89897">
        <ele>252.2</ele>
        <time>2025-04-05T10:55:30Z</time>
      </trkpt>
      <trkpt lat="50.18995" lon="4.89895">
        <ele>252</ele>
        <time>2025-04-05T10:55:31Z</time>
      </trkpt>
      <trkpt lat="50.19001" lon="4.89894">
        <ele>251.8</ele>
        <time>2025-04-05T10:55:32Z</time>
      </trkpt>
      <trkpt lat="50.19008" lon="4.89892">
        <ele>251.4</ele>
        <time>2025-04-05T10:55:33Z</time>
      </trkpt>
      <trkpt lat="50.19015" lon="4.89891">
        <ele>251.2</ele>
        <time>2025-04-05T10:55:34Z</time>
      </trkpt>
      <trkpt lat="50.19022" lon="4.89889">
        <ele>250.8</ele>
        <time>2025-04-05T10:55:35Z</time>
      </trkpt>
      <trkpt lat="50.19029" lon="4.89888">
        <ele>250.6</ele>
        <time>2025-04-05T10:55:36Z</time>
      </trkpt>
      <trkpt lat="50.19035" lon="4.89886">
        <ele>250.4</ele>
        <time>2025-04-05T10:55:37Z</time>
      </trkpt>
      <trkpt lat="50.19042" lon="4.89884">
        <ele>250.2</ele>
        <time>2025-04-05T10:55:38Z</time>
      </trkpt>
      <trkpt lat="50.19049" lon="4.89883">
        <ele>249.8</ele>
        <time>2025-04-05T10:55:39Z</time>
      </trkpt>
      <trkpt lat="50.19056" lon="4.89881">
        <ele>249.4</ele>
        <time>2025-04-05T10:55:40Z</time>
      </trkpt>
      <trkpt lat="50.19062" lon="4.89879">
        <ele>249.2</ele>
        <time>2025-04-05T10:55:41Z</time>
      </trkpt>
      <trkpt lat="50.19069" lon="4.89877">
        <ele>248.8</ele>
        <time>2025-04-05T10:55:42Z</time>
      </trkpt>
      <trkpt lat="50.19076" lon="4.89876">
        <ele>248.6</ele>
        <time>2025-04-05T10:55:43Z</time>
      </trkpt>
      <trkpt lat="50.19083" lon="4.89874">
        <ele>248.4</ele>
        <time>2025-04-05T10:55:44Z</time>
      </trkpt>
      <trkpt lat="50.1909" lon="4.89873">
        <ele>248.2</ele>
        <time>2025-04-05T10:55:45Z</time>
      </trkpt>
      <trkpt lat="50.19096" lon="4.89871">
        <ele>248</ele>
        <time>2025-04-05T10:55:46Z</time>
      </trkpt>
      <trkpt lat="50.19104" lon="4.89869">
        <ele>247.6</ele>
        <time>2025-04-05T10:55:47Z</time>
      </trkpt>
      <trkpt lat="50.19111" lon="4.89867">
        <ele>247.4</ele>
        <time>2025-04-05T10:55:48Z</time>
      </trkpt>
      <trkpt lat="50.19118" lon="4.89866">
        <ele>247.2</ele>
        <time>2025-04-05T10:55:49Z</time>
      </trkpt>
      <trkpt lat="50.19125" lon="4.89864">
        <ele>247</ele>
        <time>2025-04-05T10:55:50Z</time>
      </trkpt>
      <trkpt lat="50.19132" lon="4.89863">
        <ele>246.6</ele>
        <time>2025-04-05T10:55:51Z</time>
      </trkpt>
      <trkpt lat="50.19139" lon="4.89861">
        <ele>246.2</ele>
        <time>2025-04-05T10:55:52Z</time>
      </trkpt>
      <trkpt lat="50.19146" lon="4.89859">
        <ele>245.8</ele>
        <time>2025-04-05T10:55:53Z</time>
      </trkpt>
      <trkpt lat="50.19153" lon="4.89857">
        <ele>245.4</ele>
        <time>2025-04-05T10:55:54Z</time>
      </trkpt>
      <trkpt lat="50.19161" lon="4.89855">
        <ele>245.2</ele>
        <time>2025-04-05T10:55:55Z</time>
      </trkpt>
      <trkpt lat="50.19168" lon="4.89853">
        <ele>244.8</ele>
        <time>2025-04-05T10:55:56Z</time>
      </trkpt>
      <trkpt lat="50.19176" lon="4.89852">
        <ele>244.6</ele>
        <time>2025-04-05T10:55:57Z</time>
      </trkpt>
      <trkpt lat="50.19184" lon="4.8985">
        <ele>244.2</ele>
        <time>2025-04-05T10:55:58Z</time>
      </trkpt>
      <trkpt lat="50.19192" lon="4.89848">
        <ele>243.8</ele>
        <time>2025-04-05T10:55:59Z</time>
      </trkpt>
      <trkpt lat="50.192" lon="4.89846">
        <ele>243.2</ele>
        <time>2025-04-05T10:56:00Z</time>
      </trkpt>
      <trkpt lat="50.19208" lon="4.89844">
        <ele>242.6</ele>
        <time>2025-04-05T10:56:01Z</time>
      </trkpt>
      <trkpt lat="50.19217" lon="4.89842">
        <ele>242.2</ele>
        <time>2025-04-05T10:56:02Z</time>
      </trkpt>
      <trkpt lat="50.19225" lon="4.8984">
        <ele>241.8</ele>
        <time>2025-04-05T10:56:03Z</time>
      </trkpt>
      <trkpt lat="50.19234" lon="4.89837">
        <ele>241.2</ele>
        <time>2025-04-05T10:56:04Z</time>
      </trkpt>
      <trkpt lat="50.19242" lon="4.89835">
        <ele>240.8</ele>
        <time>2025-04-05T10:56:05Z</time>
      </trkpt>
      <trkpt lat="50.19251" lon="4.89833">
        <ele>240.2</ele>
        <time>2025-04-05T10:56:06Z</time>
      </trkpt>
      <trkpt lat="50.1926" lon="4.89831">
        <ele>239.8</ele>
        <time>2025-04-05T10:56:07Z</time>
      </trkpt>
      <trkpt lat="50.1927" lon="4.89828">
        <ele>239.2</ele>
        <time>2025-04-05T10:56:08Z</time>
      </trkpt>
      <trkpt lat="50.19279" lon="4.89826">
        <ele>238.8</ele>
        <time>2025-04-05T10:56:09Z</time>
      </trkpt>
      <trkpt lat="50.19288" lon="4.89824">
        <ele>238.2</ele>
        <time>2025-04-05T10:56:10Z</time>
      </trkpt>
      <trkpt lat="50.19297" lon="4.89822">
        <ele>237.6</ele>
        <time>2025-04-05T10:56:11Z</time>
      </trkpt>
      <trkpt lat="50.19307" lon="4.89819">
        <ele>237.2</ele>
        <time>2025-04-05T10:56:12Z</time>
      </trkpt>
      <trkpt lat="50.19316" lon="4.89817">
        <ele>236.4</ele>
        <time>2025-04-05T10:56:13Z</time>
      </trkpt>
      <trkpt lat="50.19326" lon="4.89815">
        <ele>235.8</ele>
        <time>2025-04-05T10:56:14Z</time>
      </trkpt>
      <trkpt lat="50.19336" lon="4.89813">
        <ele>235.2</ele>
        <time>2025-04-05T10:56:15Z</time>
      </trkpt>
      <trkpt lat="50.19346" lon="4.8981">
        <ele>234.4</ele>
        <time>2025-04-05T10:56:16Z</time>
      </trkpt>
      <trkpt lat="50.19356" lon="4.89808">
        <ele>234</ele>
        <time>2025-04-05T10:56:17Z</time>
      </trkpt>
      <trkpt lat="50.19366" lon="4.89805">
        <ele>233.4</ele>
        <time>2025-04-05T10:56:18Z</time>
      </trkpt>
      <trkpt lat="50.19376" lon="4.89803">
        <ele>232.8</ele>
        <time>2025-04-05T10:56:19Z</time>
      </trkpt>
      <trkpt lat="50.19386" lon="4.898">
        <ele>232.4</ele>
        <time>2025-04-05T10:56:20Z</time>
      </trkpt>
      <trkpt lat="50.19397" lon="4.89797">
        <ele>231.8</ele>
        <time>2025-04-05T10:56:21Z</time>
      </trkpt>
      <trkpt lat="50.19407" lon="4.89795">
        <ele>231.2</ele>
        <time>2025-04-05T10:56:22Z</time>
      </trkpt>
      <trkpt lat="50.19416" lon="4.89793">
        <ele>230.6</ele>
        <time>2025-04-05T10:56:23Z</time>
      </trkpt>
      <trkpt lat="50.19426" lon="4.8979">
        <ele>230</ele>
        <time>2025-04-05T10:56:24Z</time>
      </trkpt>
      <trkpt lat="50.19436" lon="4.89788">
        <ele>229.6</ele>
        <time>2025-04-05T10:56:25Z</time>
      </trkpt>
      <trkpt lat="50.19446" lon="4.89786">
        <ele>229</ele>
        <time>2025-04-05T10:56:26Z</time>
      </trkpt>
      <trkpt lat="50.19456" lon="4.89784">
        <ele>228.4</ele>
        <time>2025-04-05T10:56:27Z</time>
      </trkpt>
      <trkpt lat="50.19466" lon="4.89782">
        <ele>227.6</ele>
        <time>2025-04-05T10:56:28Z</time>
      </trkpt>
      <trkpt lat="50.19478" lon="4.89779">
        <ele>227</ele>
        <time>2025-04-05T10:56:29Z</time>
      </trkpt>
      <trkpt lat="50.19488" lon="4.89777">
        <ele>226.4</ele>
        <time>2025-04-05T10:56:30Z</time>
      </trkpt>
      <trkpt lat="50.19497" lon="4.89775">
        <ele>226</ele>
        <time>2025-04-05T10:56:31Z</time>
      </trkpt>
      <trkpt lat="50.19508" lon="4.89772">
        <ele>225.4</ele>
        <time>2025-04-05T10:56:32Z</time>
      </trkpt>
      <trkpt lat="50.19519" lon="4.89769">
        <ele>224.8</ele>
        <time>2025-04-05T10:56:33Z</time>
      </trkpt>
      <trkpt lat="50.19528" lon="4.89767">
        <ele>224.2</ele>
        <time>2025-04-05T10:56:34Z</time>
      </trkpt>
      <trkpt lat="50.19537" lon="4.89764">
        <ele>223.8</ele>
        <time>2025-04-05T10:56:35Z</time>
      </trkpt>
      <trkpt lat="50.19547" lon="4.89762">
        <ele>223.2</ele>
        <time>2025-04-05T10:56:36Z</time>
      </trkpt>
      <trkpt lat="50.19556" lon="4.89759">
        <ele>222.8</ele>
        <time>2025-04-05T10:56:37Z</time>
      </trkpt>
      <trkpt lat="50.19567" lon="4.89756">
        <ele>222</ele>
        <time>2025-04-05T10:56:38Z</time>
      </trkpt>
      <trkpt lat="50.19577" lon="4.89754">
        <ele>221.4</ele>
        <time>2025-04-05T10:56:39Z</time>
      </trkpt>
      <trkpt lat="50.19585" lon="4.89752">
        <ele>220.8</ele>
        <time>2025-04-05T10:56:40Z</time>
      </trkpt>
      <trkpt lat="50.19594" lon="4.8975">
        <ele>220.2</ele>
        <time>2025-04-05T10:56:41Z</time>
      </trkpt>
      <trkpt lat="50.19604" lon="4.89747">
        <ele>219.8</ele>
        <time>2025-04-05T10:56:42Z</time>
      </trkpt>
      <trkpt lat="50.19614" lon="4.89745">
        <ele>219.2</ele>
        <time>2025-04-05T10:56:43Z</time>
      </trkpt>
      <trkpt lat="50.19623" lon="4.89743">
        <ele>218.8</ele>
        <time>2025-04-05T10:56:44Z</time>
      </trkpt>
      <trkpt lat="50.19632" lon="4.8974">
        <ele>218.4</ele>
        <time>2025-04-05T10:56:45Z</time>
      </trkpt>
      <trkpt lat="50.19643" lon="4.89737">
        <ele>217.8</ele>
        <time>2025-04-05T10:56:46Z</time>
      </trkpt>
      <trkpt lat="50.19652" lon="4.89733">
        <ele>217.4</ele>
        <time>2025-04-05T10:56:47Z</time>
      </trkpt>
      <trkpt lat="50.19661" lon="4.89727">
        <ele>216.8</ele>
        <time>2025-04-05T10:56:48Z</time>
      </trkpt>
      <trkpt lat="50.19671" lon="4.89722">
        <ele>216.4</ele>
        <time>2025-04-05T10:56:49Z</time>
      </trkpt>
      <trkpt lat="50.1968" lon="4.89715">
        <ele>215.8</ele>
        <time>2025-04-05T10:56:50Z</time>
      </trkpt>
      <trkpt lat="50.19689" lon="4.89707">
        <ele>215.4</ele>
        <time>2025-04-05T10:56:51Z</time>
      </trkpt>
      <trkpt lat="50.19698" lon="4.897">
        <ele>214.8</ele>
        <time>2025-04-05T10:56:52Z</time>
      </trkpt>
      <trkpt lat="50.19705" lon="4.89692">
        <ele>214.2</ele>
        <time>2025-04-05T10:56:53Z</time>
      </trkpt>
      <trkpt lat="50.19713" lon="4.89683">
        <ele>213.6</ele>
        <time>2025-04-05T10:56:54Z</time>
      </trkpt>
      <trkpt lat="50.19722" lon="4.89671">
        <ele>213</ele>
        <time>2025-04-05T10:56:55Z</time>
      </trkpt>
      <trkpt lat="50.1973" lon="4.8966">
        <ele>212.4</ele>
        <time>2025-04-05T10:56:56Z</time>
      </trkpt>
      <trkpt lat="50.19737" lon="4.8965">
        <ele>211.8</ele>
        <time>2025-04-05T10:56:57Z</time>
      </trkpt>
      <trkpt lat="50.19744" lon="4.89639">
        <ele>211.4</ele>
        <time>2025-04-05T10:56:58Z</time>
      </trkpt>
      <trkpt lat="50.19751" lon="4.89629">
        <ele>211.2</ele>
        <time>2025-04-05T10:56:59Z</time>
      </trkpt>
      <trkpt lat="50.19759" lon="4.89617">
        <ele>211</ele>
        <time>2025-04-05T10:57:00Z</time>
      </trkpt>
      <trkpt lat="50.19765" lon="4.89608">
        <ele>210.6</ele>
        <time>2025-04-05T10:57:01Z</time>
      </trkpt>
      <trkpt lat="50.1977" lon="4.89599">
        <ele>210.8</ele>
        <time>2025-04-05T10:57:02Z</time>
      </trkpt>
      <trkpt lat="50.19776" lon="4.8959">
        <ele>210.8</ele>
        <time>2025-04-05T10:57:03Z</time>
      </trkpt>
      <trkpt lat="50.19782" lon="4.89581">
        <ele>210.8</ele>
        <time>2025-04-05T10:57:04Z</time>
      </trkpt>
      <trkpt lat="50.19788" lon="4.89571">
        <ele>211</ele>
        <time>2025-04-05T10:57:05Z</time>
      </trkpt>
      <trkpt lat="50.19793" lon="4.89563">
        <ele>211</ele>
        <time>2025-04-05T10:57:06Z</time>
      </trkpt>
      <trkpt lat="50.19798" lon="4.89555">
        <ele>211.2</ele>
        <time>2025-04-05T10:57:07Z</time>
      </trkpt>
      <trkpt lat="50.19804" lon="4.89546">
        <ele>211.2</ele>
        <time>2025-04-05T10:57:08Z</time>
      </trkpt>
      <trkpt lat="50.19809" lon="4.89539">
        <ele>211.6</ele>
        <time>2025-04-05T10:57:09Z</time>
      </trkpt>
      <trkpt lat="50.19814" lon="4.89531">
        <ele>211.8</ele>
        <time>2025-04-05T10:57:10Z</time>
      </trkpt>
      <trkpt lat="50.19821" lon="4.89522">
        <ele>211.8</ele>
        <time>2025-04-05T10:57:11Z</time>
      </trkpt>
      <trkpt lat="50.19827" lon="4.89513">
        <ele>212</ele>
        <time>2025-04-05T10:57:12Z</time>
      </trkpt>
      <trkpt lat="50.19832" lon="4.89505">
        <ele>212</ele>
        <time>2025-04-05T10:57:13Z</time>
      </trkpt>
      <trkpt lat="50.19836" lon="4.89498">
        <ele>212</ele>
        <time>2025-04-05T10:57:14Z</time>
      </trkpt>
      <trkpt lat="50.19841" lon="4.89491">
        <ele>212</ele>
        <time>2025-04-05T10:57:15Z</time>
      </trkpt>
      <trkpt lat="50.19846" lon="4.89483">
        <ele>212</ele>
        <time>2025-04-05T10:57:16Z</time>
      </trkpt>
      <trkpt lat="50.19851" lon="4.89475">
        <ele>212</ele>
        <time>2025-04-05T10:57:17Z</time>
      </trkpt>
      <trkpt lat="50.19856" lon="4.89469">
        <ele>211.8</ele>
        <time>2025-04-05T10:57:18Z</time>
      </trkpt>
      <trkpt lat="50.19861" lon="4.89462">
        <ele>211.8</ele>
        <time>2025-04-05T10:57:19Z</time>
      </trkpt>
      <trkpt lat="50.19866" lon="4.89454">
        <ele>211.6</ele>
        <time>2025-04-05T10:57:20Z</time>
      </trkpt>
      <trkpt lat="50.1987" lon="4.89446">
        <ele>211.2</ele>
        <time>2025-04-05T10:57:21Z</time>
      </trkpt>
      <trkpt lat="50.19876" lon="4.89438">
        <ele>210.8</ele>
        <time>2025-04-05T10:57:22Z</time>
      </trkpt>
      <trkpt lat="50.19881" lon="4.89429">
        <ele>210.4</ele>
        <time>2025-04-05T10:57:23Z</time>
      </trkpt>
      <trkpt lat="50.19887" lon="4.8942">
        <ele>210</ele>
        <time>2025-04-05T10:57:24Z</time>
      </trkpt>
      <trkpt lat="50.19893" lon="4.89412">
        <ele>209.4</ele>
        <time>2025-04-05T10:57:25Z</time>
      </trkpt>
      <trkpt lat="50.199" lon="4.89401">
        <ele>208.8</ele>
        <time>2025-04-05T10:57:26Z</time>
      </trkpt>
      <trkpt lat="50.19906" lon="4.89392">
        <ele>208.2</ele>
        <time>2025-04-05T10:57:27Z</time>
      </trkpt>
      <trkpt lat="50.19912" lon="4.89384">
        <ele>207.8</ele>
        <time>2025-04-05T10:57:28Z</time>
      </trkpt>
      <trkpt lat="50.19917" lon="4.89377">
        <ele>207.4</ele>
        <time>2025-04-05T10:57:29Z</time>
      </trkpt>
      <trkpt lat="50.19921" lon="4.8937">
        <ele>206.8</ele>
        <time>2025-04-05T10:57:30Z</time>
      </trkpt>
      <trkpt lat="50.19926" lon="4.89364">
        <ele>206.4</ele>
        <time>2025-04-05T10:57:31Z</time>
      </trkpt>
      <trkpt lat="50.1993" lon="4.8936">
        <ele>206</ele>
        <time>2025-04-05T10:57:32Z</time>
      </trkpt>
      <trkpt lat="50.19935" lon="4.89355">
        <ele>205.4</ele>
        <time>2025-04-05T10:57:33Z</time>
      </trkpt>
      <trkpt lat="50.1994" lon="4.89352">
        <ele>204.8</ele>
        <time>2025-04-05T10:57:34Z</time>
      </trkpt>
      <trkpt lat="50.19946" lon="4.89351">
        <ele>204.2</ele>
        <time>2025-04-05T10:57:35Z</time>
      </trkpt>
      <trkpt lat="50.19952" lon="4.89349">
        <ele>203.8</ele>
        <time>2025-04-05T10:57:36Z</time>
      </trkpt>
      <trkpt lat="50.19959" lon="4.89349">
        <ele>203.2</ele>
        <time>2025-04-05T10:57:37Z</time>
      </trkpt>
      <trkpt lat="50.19967" lon="4.89349">
        <ele>202.6</ele>
        <time>2025-04-05T10:57:38Z</time>
      </trkpt>
      <trkpt lat="50.19976" lon="4.89349">
        <ele>202</ele>
        <time>2025-04-05T10:57:39Z</time>
      </trkpt>
      <trkpt lat="50.19984" lon="4.89349">
        <ele>201.4</ele>
        <time>2025-04-05T10:57:40Z</time>
      </trkpt>
      <trkpt lat="50.19992" lon="4.8935">
        <ele>200.6</ele>
        <time>2025-04-05T10:57:41Z</time>
      </trkpt>
      <trkpt lat="50.20001" lon="4.89349">
        <ele>200</ele>
        <time>2025-04-05T10:57:42Z</time>
      </trkpt>
      <trkpt lat="50.2001" lon="4.89349">
        <ele>199.2</ele>
        <time>2025-04-05T10:57:43Z</time>
      </trkpt>
      <trkpt lat="50.20019" lon="4.89349">
        <ele>198.8</ele>
        <time>2025-04-05T10:57:44Z</time>
      </trkpt>
      <trkpt lat="50.20028" lon="4.89349">
        <ele>198.2</ele>
        <time>2025-04-05T10:57:45Z</time>
      </trkpt>
      <trkpt lat="50.20038" lon="4.89348">
        <ele>197.4</ele>
        <time>2025-04-05T10:57:46Z</time>
      </trkpt>
      <trkpt lat="50.20048" lon="4.89348">
        <ele>196.8</ele>
        <time>2025-04-05T10:57:47Z</time>
      </trkpt>
      <trkpt lat="50.20056" lon="4.89348">
        <ele>196</ele>
        <time>2025-04-05T10:57:48Z</time>
      </trkpt>
      <trkpt lat="50.20065" lon="4.89348">
        <ele>195.4</ele>
        <time>2025-04-05T10:57:49Z</time>
      </trkpt>
      <trkpt lat="50.20075" lon="4.89348">
        <ele>194.6</ele>
        <time>2025-04-05T10:57:50Z</time>
      </trkpt>
      <trkpt lat="50.20086" lon="4.89348">
        <ele>193.8</ele>
        <time>2025-04-05T10:57:51Z</time>
      </trkpt>
      <trkpt lat="50.20095" lon="4.89347">
        <ele>193</ele>
        <time>2025-04-05T10:57:52Z</time>
      </trkpt>
      <trkpt lat="50.20104" lon="4.89347">
        <ele>192.4</ele>
        <time>2025-04-05T10:57:53Z</time>
      </trkpt>
      <trkpt lat="50.20113" lon="4.89346">
        <ele>191.8</ele>
        <time>2025-04-05T10:57:54Z</time>
      </trkpt>
      <trkpt lat="50.20121" lon="4.89346">
        <ele>191</ele>
        <time>2025-04-05T10:57:55Z</time>
      </trkpt>
      <trkpt lat="50.20131" lon="4.89346">
        <ele>190.4</ele>
        <time>2025-04-05T10:57:56Z</time>
      </trkpt>
      <trkpt lat="50.20141" lon="4.89345">
        <ele>189.8</ele>
        <time>2025-04-05T10:57:57Z</time>
      </trkpt>
      <trkpt lat="50.20148" lon="4.89345">
        <ele>189</ele>
        <time>2025-04-05T10:57:58Z</time>
      </trkpt>
      <trkpt lat="50.20157" lon="4.89345">
        <ele>188.2</ele>
        <time>2025-04-05T10:57:59Z</time>
      </trkpt>
      <trkpt lat="50.20167" lon="4.89344">
        <ele>187.2</ele>
        <time>2025-04-05T10:58:00Z</time>
      </trkpt>
      <trkpt lat="50.20176" lon="4.89344">
        <ele>186.6</ele>
        <time>2025-04-05T10:58:01Z</time>
      </trkpt>
      <trkpt lat="50.20184" lon="4.89344">
        <ele>185.8</ele>
        <time>2025-04-05T10:58:02Z</time>
      </trkpt>
      <trkpt lat="50.20192" lon="4.89344">
        <ele>185</ele>
        <time>2025-04-05T10:58:03Z</time>
      </trkpt>
      <trkpt lat="50.202" lon="4.89345">
        <ele>184.4</ele>
        <time>2025-04-05T10:58:04Z</time>
      </trkpt>
      <trkpt lat="50.2021" lon="4.89348">
        <ele>183.6</ele>
        <time>2025-04-05T10:58:05Z</time>
      </trkpt>
      <trkpt lat="50.20218" lon="4.89351">
        <ele>183</ele>
        <time>2025-04-05T10:58:06Z</time>
      </trkpt>
      <trkpt lat="50.20226" lon="4.89354">
        <ele>182.2</ele>
        <time>2025-04-05T10:58:07Z</time>
      </trkpt>
      <trkpt lat="50.20235" lon="4.89359">
        <ele>181.6</ele>
        <time>2025-04-05T10:58:08Z</time>
      </trkpt>
      <trkpt lat="50.20245" lon="4.89364">
        <ele>180.8</ele>
        <time>2025-04-05T10:58:09Z</time>
      </trkpt>
      <trkpt lat="50.20253" lon="4.8937">
        <ele>180.2</ele>
        <time>2025-04-05T10:58:10Z</time>
      </trkpt>
      <trkpt lat="50.20261" lon="4.89376">
        <ele>179.4</ele>
        <time>2025-04-05T10:58:11Z</time>
      </trkpt>
      <trkpt lat="50.20268" lon="4.89382">
        <ele>178.6</ele>
        <time>2025-04-05T10:58:12Z</time>
      </trkpt>
      <trkpt lat="50.20276" lon="4.8939">
        <ele>177.6</ele>
        <time>2025-04-05T10:58:13Z</time>
      </trkpt>
      <trkpt lat="50.20284" lon="4.89398">
        <ele>176.8</ele>
        <time>2025-04-05T10:58:14Z</time>
      </trkpt>
      <trkpt lat="50.20291" lon="4.89406">
        <ele>176.2</ele>
        <time>2025-04-05T10:58:15Z</time>
      </trkpt>
      <trkpt lat="50.20298" lon="4.89416">
        <ele>175.6</ele>
        <time>2025-04-05T10:58:16Z</time>
      </trkpt>
      <trkpt lat="50.20305" lon="4.89427">
        <ele>175.2</ele>
        <time>2025-04-05T10:58:17Z</time>
      </trkpt>
      <trkpt lat="50.20311" lon="4.89439">
        <ele>175</ele>
        <time>2025-04-05T10:58:18Z</time>
      </trkpt>
      <trkpt lat="50.20316" lon="4.8945">
        <ele>175</ele>
        <time>2025-04-05T10:58:19Z</time>
      </trkpt>
      <trkpt lat="50.20322" lon="4.8946">
        <ele>175</ele>
        <time>2025-04-05T10:58:20Z</time>
      </trkpt>
      <trkpt lat="50.20328" lon="4.89469">
        <ele>175.2</ele>
        <time>2025-04-05T10:58:21Z</time>
      </trkpt>
      <trkpt lat="50.20334" lon="4.89477">
        <ele>175.2</ele>
        <time>2025-04-05T10:58:22Z</time>
      </trkpt>
      <trkpt lat="50.20341" lon="4.89483">
        <ele>175.4</ele>
        <time>2025-04-05T10:58:23Z</time>
      </trkpt>
      <trkpt lat="50.20347" lon="4.89489">
        <ele>175.6</ele>
        <time>2025-04-05T10:58:24Z</time>
      </trkpt>
      <trkpt lat="50.20353" lon="4.89494">
        <ele>175.6</ele>
        <time>2025-04-05T10:58:25Z</time>
      </trkpt>
      <trkpt lat="50.20359" lon="4.89499">
        <ele>175.6</ele>
        <time>2025-04-05T10:58:26Z</time>
      </trkpt>
      <trkpt lat="50.20365" lon="4.89504">
        <ele>175.6</ele>
        <time>2025-04-05T10:58:27Z</time>
      </trkpt>
      <trkpt lat="50.2037" lon="4.89509">
        <ele>175.6</ele>
        <time>2025-04-05T10:58:28Z</time>
      </trkpt>
      <trkpt lat="50.20377" lon="4.89514">
        <ele>175.8</ele>
        <time>2025-04-05T10:58:29Z</time>
      </trkpt>
      <trkpt lat="50.20383" lon="4.8952">
        <ele>176</ele>
        <time>2025-04-05T10:58:30Z</time>
      </trkpt>
      <trkpt lat="50.20389" lon="4.89525">
        <ele>175.8</ele>
        <time>2025-04-05T10:58:31Z</time>
      </trkpt>
      <trkpt lat="50.20395" lon="4.8953">
        <ele>175.8</ele>
        <time>2025-04-05T10:58:32Z</time>
      </trkpt>
      <trkpt lat="50.20401" lon="4.89535">
        <ele>175.8</ele>
        <time>2025-04-05T10:58:33Z</time>
      </trkpt>
      <trkpt lat="50.20407" lon="4.89541">
        <ele>175.8</ele>
        <time>2025-04-05T10:58:34Z</time>
      </trkpt>
      <trkpt lat="50.20413" lon="4.89546">
        <ele>175.8</ele>
        <time>2025-04-05T10:58:35Z</time>
      </trkpt>
      <trkpt lat="50.20419" lon="4.89552">
        <ele>175.8</ele>
        <time>2025-04-05T10:58:36Z</time>
      </trkpt>
      <trkpt lat="50.20425" lon="4.89557">
        <ele>175.6</ele>
        <time>2025-04-05T10:58:37Z</time>
      </trkpt>
      <trkpt lat="50.20432" lon="4.89563">
        <ele>175.6</ele>
        <time>2025-04-05T10:58:38Z</time>
      </trkpt>
      <trkpt lat="50.20438" lon="4.89568">
        <ele>175.6</ele>
        <time>2025-04-05T10:58:39Z</time>
      </trkpt>
      <trkpt lat="50.20445" lon="4.89573">
        <ele>175.4</ele>
        <time>2025-04-05T10:58:40Z</time>
      </trkpt>
      <trkpt lat="50.20451" lon="4.89579">
        <ele>175.2</ele>
        <time>2025-04-05T10:58:41Z</time>
      </trkpt>
      <trkpt lat="50.20457" lon="4.89584">
        <ele>175</ele>
        <time>2025-04-05T10:58:42Z</time>
      </trkpt>
      <trkpt lat="50.20463" lon="4.89589">
        <ele>175</ele>
        <time>2025-04-05T10:58:43Z</time>
      </trkpt>
      <trkpt lat="50.20469" lon="4.89595">
        <ele>174.8</ele>
        <time>2025-04-05T10:58:44Z</time>
      </trkpt>
      <trkpt lat="50.20475" lon="4.896">
        <ele>174.8</ele>
        <time>2025-04-05T10:58:45Z</time>
      </trkpt>
      <trkpt lat="50.20482" lon="4.89605">
        <ele>174.6</ele>
        <time>2025-04-05T10:58:46Z</time>
      </trkpt>
      <trkpt lat="50.20488" lon="4.8961">
        <ele>174.6</ele>
        <time>2025-04-05T10:58:47Z</time>
      </trkpt>
      <trkpt lat="50.20495" lon="4.89616">
        <ele>174.4</ele>
        <time>2025-04-05T10:58:48Z</time>
      </trkpt>
      <trkpt lat="50.20501" lon="4.89621">
        <ele>174.2</ele>
        <time>2025-04-05T10:58:49Z</time>
      </trkpt>
      <trkpt lat="50.20507" lon="4.89627">
        <ele>174</ele>
        <time>2025-04-05T10:58:50Z</time>
      </trkpt>
      <trkpt lat="50.20514" lon="4.89632">
        <ele>173.8</ele>
        <time>2025-04-05T10:58:51Z</time>
      </trkpt>
      <trkpt lat="50.20522" lon="4.89636">
        <ele>173.6</ele>
        <time>2025-04-05T10:58:52Z</time>
      </trkpt>
      <trkpt lat="50.20528" lon="4.89641">
        <ele>173.6</ele>
        <time>2025-04-05T10:58:53Z</time>
      </trkpt>
      <trkpt lat="50.20535" lon="4.89646">
        <ele>173.4</ele>
        <time>2025-04-05T10:58:54Z</time>
      </trkpt>
      <trkpt lat="50.20542" lon="4.89651">
        <ele>173.4</ele>
        <time>2025-04-05T10:58:55Z</time>
      </trkpt>
      <trkpt lat="50.2055" lon="4.89656">
        <ele>173.4</ele>
        <time>2025-04-05T10:58:56Z</time>
      </trkpt>
      <trkpt lat="50.20557" lon="4.89661">
        <ele>173.2</ele>
        <time>2025-04-05T10:58:57Z</time>
      </trkpt>
      <trkpt lat="50.20564" lon="4.89666">
        <ele>173.2</ele>
        <time>2025-04-05T10:58:58Z</time>
      </trkpt>
      <trkpt lat="50.2057" lon="4.8967">
        <ele>173</ele>
        <time>2025-04-05T10:58:59Z</time>
      </trkpt>
      <trkpt lat="50.20577" lon="4.89674">
        <ele>173</ele>
        <time>2025-04-05T10:59:00Z</time>
      </trkpt>
      <trkpt lat="50.20584" lon="4.89677">
        <ele>172.8</ele>
        <time>2025-04-05T10:59:01Z</time>
      </trkpt>
      <trkpt lat="50.2059" lon="4.8968">
        <ele>172.6</ele>
        <time>2025-04-05T10:59:02Z</time>
      </trkpt>
      <trkpt lat="50.20597" lon="4.89683">
        <ele>172.6</ele>
        <time>2025-04-05T10:59:03Z</time>
      </trkpt>
      <trkpt lat="50.20604" lon="4.89686">
        <ele>172.4</ele>
        <time>2025-04-05T10:59:04Z</time>
      </trkpt>
      <trkpt lat="50.2061" lon="4.89689">
        <ele>172.2</ele>
        <time>2025-04-05T10:59:05Z</time>
      </trkpt>
      <trkpt lat="50.20616" lon="4.89692">
        <ele>172.2</ele>
        <time>2025-04-05T10:59:06Z</time>
      </trkpt>
      <trkpt lat="50.20622" lon="4.89694">
        <ele>171.8</ele>
        <time>2025-04-05T10:59:07Z</time>
      </trkpt>
      <trkpt lat="50.2063" lon="4.89696">
        <ele>171.8</ele>
        <time>2025-04-05T10:59:08Z</time>
      </trkpt>
      <trkpt lat="50.20638" lon="4.89698">
        <ele>171.6</ele>
        <time>2025-04-05T10:59:09Z</time>
      </trkpt>
      <trkpt lat="50.20646" lon="4.89701">
        <ele>171.4</ele>
        <time>2025-04-05T10:59:10Z</time>
      </trkpt>
      <trkpt lat="50.20653" lon="4.89702">
        <ele>171</ele>
        <time>2025-04-05T10:59:11Z</time>
      </trkpt>
      <trkpt lat="50.20661" lon="4.89703">
        <ele>170.6</ele>
        <time>2025-04-05T10:59:12Z</time>
      </trkpt>
      <trkpt lat="50.20669" lon="4.89704">
        <ele>170.4</ele>
        <time>2025-04-05T10:59:13Z</time>
      </trkpt>
      <trkpt lat="50.20677" lon="4.89704">
        <ele>170</ele>
        <time>2025-04-05T10:59:14Z</time>
      </trkpt>
      <trkpt lat="50.20685" lon="4.89704">
        <ele>169.8</ele>
        <time>2025-04-05T10:59:15Z</time>
      </trkpt>
      <trkpt lat="50.20693" lon="4.89704">
        <ele>169.2</ele>
        <time>2025-04-05T10:59:16Z</time>
      </trkpt>
      <trkpt lat="50.20701" lon="4.89704">
        <ele>168.8</ele>
        <time>2025-04-05T10:59:17Z</time>
      </trkpt>
      <trkpt lat="50.2071" lon="4.89705">
        <ele>168.6</ele>
        <time>2025-04-05T10:59:18Z</time>
      </trkpt>
      <trkpt lat="50.20719" lon="4.89705">
        <ele>168.4</ele>
        <time>2025-04-05T10:59:19Z</time>
      </trkpt>
      <trkpt lat="50.20727" lon="4.89705">
        <ele>168.2</ele>
        <time>2025-04-05T10:59:20Z</time>
      </trkpt>
      <trkpt lat="50.20734" lon="4.89706">
        <ele>168.2</ele>
        <time>2025-04-05T10:59:21Z</time>
      </trkpt>
      <trkpt lat="50.20743" lon="4.89706">
        <ele>168.4</ele>
        <time>2025-04-05T10:59:22Z</time>
      </trkpt>
      <trkpt lat="50.2075" lon="4.89706">
        <ele>168.4</ele>
        <time>2025-04-05T10:59:23Z</time>
      </trkpt>
      <trkpt lat="50.20757" lon="4.89706">
        <ele>168.6</ele>
        <time>2025-04-05T10:59:24Z</time>
      </trkpt>
      <trkpt lat="50.20764" lon="4.89706">
        <ele>169</ele>
        <time>2025-04-05T10:59:25Z</time>
      </trkpt>
      <trkpt lat="50.2077" lon="4.89705">
        <ele>169.2</ele>
        <time>2025-04-05T10:59:26Z</time>
      </trkpt>
      <trkpt lat="50.20776" lon="4.89705">
        <ele>169.4</ele>
        <time>2025-04-05T10:59:27Z</time>
      </trkpt>
      <trkpt lat="50.20782" lon="4.89704">
        <ele>169.8</ele>
        <time>2025-04-05T10:59:28Z</time>
      </trkpt>
      <trkpt lat="50.20788" lon="4.89704">
        <ele>170.2</ele>
        <time>2025-04-05T10:59:29Z</time>
      </trkpt>
      <trkpt lat="50.20795" lon="4.89704">
        <ele>170.4</ele>
        <time>2025-04-05T10:59:30Z</time>
      </trkpt>
      <trkpt lat="50.208" lon="4.89705">
        <ele>170.8</ele>
        <time>2025-04-05T10:59:31Z</time>
      </trkpt>
      <trkpt lat="50.20806" lon="4.89705">
        <ele>171.2</ele>
        <time>2025-04-05T10:59:32Z</time>
      </trkpt>
      <trkpt lat="50.20812" lon="4.89705">
        <ele>171.6</ele>
        <time>2025-04-05T10:59:33Z</time>
      </trkpt>
      <trkpt lat="50.20817" lon="4.89705">
        <ele>172</ele>
        <time>2025-04-05T10:59:34Z</time>
      </trkpt>
      <trkpt lat="50.20822" lon="4.89705">
        <ele>172.4</ele>
        <time>2025-04-05T10:59:35Z</time>
      </trkpt>
      <trkpt lat="50.20827" lon="4.89705">
        <ele>173</ele>
        <time>2025-04-05T10:59:36Z</time>
      </trkpt>
      <trkpt lat="50.20832" lon="4.89706">
        <ele>173.4</ele>
        <time>2025-04-05T10:59:37Z</time>
      </trkpt>
      <trkpt lat="50.20837" lon="4.89708">
        <ele>173.8</ele>
        <time>2025-04-05T10:59:38Z</time>
      </trkpt>
      <trkpt lat="50.20842" lon="4.89711">
        <ele>174</ele>
        <time>2025-04-05T10:59:39Z</time>
      </trkpt>
      <trkpt lat="50.20848" lon="4.89713">
        <ele>174.4</ele>
        <time>2025-04-05T10:59:40Z</time>
      </trkpt>
      <trkpt lat="50.20853" lon="4.89716">
        <ele>174.8</ele>
        <time>2025-04-05T10:59:41Z</time>
      </trkpt>
      <trkpt lat="50.20859" lon="4.89718">
        <ele>175</ele>
        <time>2025-04-05T10:59:42Z</time>
      </trkpt>
      <trkpt lat="50.20864" lon="4.89721">
        <ele>175.4</ele>
        <time>2025-04-05T10:59:43Z</time>
      </trkpt>
      <trkpt lat="50.20869" lon="4.89724">
        <ele>175.8</ele>
        <time>2025-04-05T10:59:44Z</time>
      </trkpt>
      <trkpt lat="50.20875" lon="4.89727">
        <ele>176</ele>
        <time>2025-04-05T10:59:45Z</time>
      </trkpt>
      <trkpt lat="50.20881" lon="4.8973">
        <ele>176.2</ele>
        <time>2025-04-05T10:59:46Z</time>
      </trkpt>
      <trkpt lat="50.20886" lon="4.89733">
        <ele>176.2</ele>
        <time>2025-04-05T10:59:47Z</time>
      </trkpt>
      <trkpt lat="50.20891" lon="4.89735">
        <ele>176.6</ele>
        <time>2025-04-05T10:59:48Z</time>
      </trkpt>
      <trkpt lat="50.20896" lon="4.89738">
        <ele>176.8</ele>
        <time>2025-04-05T10:59:49Z</time>
      </trkpt>
      <trkpt lat="50.20901" lon="4.89741">
        <ele>177</ele>
        <time>2025-04-05T10:59:50Z</time>
      </trkpt>
      <trkpt lat="50.20906" lon="4.89744">
        <ele>177.2</ele>
        <time>2025-04-05T10:59:51Z</time>
      </trkpt>
      <trkpt lat="50.20911" lon="4.89747">
        <ele>177.4</ele>
        <time>2025-04-05T10:59:52Z</time>
      </trkpt>
      <trkpt lat="50.20916" lon="4.89749">
        <ele>177.4</ele>
        <time>2025-04-05T10:59:53Z</time>
      </trkpt>
      <trkpt lat="50.20921" lon="4.89752">
        <ele>177.6</ele>
        <time>2025-04-05T10:59:54Z</time>
      </trkpt>
      <trkpt lat="50.20925" lon="4.89754">
        <ele>177.8</ele>
        <time>2025-04-05T10:59:55Z</time>
      </trkpt>
      <trkpt lat="50.2093" lon="4.89757">
        <ele>178</ele>
        <time>2025-04-05T10:59:56Z</time>
      </trkpt>
      <trkpt lat="50.20934" lon="4.89759">
        <ele>178.2</ele>
        <time>2025-04-05T10:59:57Z</time>
      </trkpt>
      <trkpt lat="50.20939" lon="4.89761">
        <ele>178.6</ele>
        <time>2025-04-05T10:59:58Z</time>
      </trkpt>
      <trkpt lat="50.20943" lon="4.89764">
        <ele>178.8</ele>
        <time>2025-04-05T10:59:59Z</time>
      </trkpt>
      <trkpt lat="50.20947" lon="4.89766">
        <ele>179.2</ele>
        <time>2025-04-05T11:00:00Z</time>
      </trkpt>
      <trkpt lat="50.20952" lon="4.89768">
        <ele>179.4</ele>
        <time>2025-04-05T11:00:01Z</time>
      </trkpt>
      <trkpt lat="50.20956" lon="4.8977">
        <ele>179.6</ele>
        <time>2025-04-05T11:00:02Z</time>
      </trkpt>
      <trkpt lat="50.2096" lon="4.89772">
        <ele>179.6</ele>
        <time>2025-04-05T11:00:03Z</time>
      </trkpt>
      <trkpt lat="50.20963" lon="4.89775">
        <ele>179.8</ele>
        <time>2025-04-05T11:00:04Z</time>
      </trkpt>
      <trkpt lat="50.20967" lon="4.89777">
        <ele>180</ele>
        <time>2025-04-05T11:00:05Z</time>
      </trkpt>
      <trkpt lat="50.20971" lon="4.8978">
        <ele>180</ele>
        <time>2025-04-05T11:00:06Z</time>
      </trkpt>
      <trkpt lat="50.20974" lon="4.89782">
        <ele>180.2</ele>
        <time>2025-04-05T11:00:07Z</time>
      </trkpt>
      <trkpt lat="50.20978" lon="4.89784">
        <ele>180.2</ele>
        <time>2025-04-05T11:00:08Z</time>
      </trkpt>
      <trkpt lat="50.20982" lon="4.89786">
        <ele>180.2</ele>
        <time>2025-04-05T11:00:09Z</time>
      </trkpt>
      <trkpt lat="50.20986" lon="4.89789">
        <ele>180</ele>
        <time>2025-04-05T11:00:10Z</time>
      </trkpt>
      <trkpt lat="50.20989" lon="4.89791">
        <ele>180</ele>
        <time>2025-04-05T11:00:11Z</time>
      </trkpt>
      <trkpt lat="50.20993" lon="4.89793">
        <ele>180</ele>
        <time>2025-04-05T11:00:12Z</time>
      </trkpt>
      <trkpt lat="50.20997" lon="4.89796">
        <ele>179.8</ele>
        <time>2025-04-05T11:00:13Z</time>
      </trkpt>
      <trkpt lat="50.21001" lon="4.89798">
        <ele>179.8</ele>
        <time>2025-04-05T11:00:14Z</time>
      </trkpt>
      <trkpt lat="50.21004" lon="4.89801">
        <ele>179.6</ele>
        <time>2025-04-05T11:00:15Z</time>
      </trkpt>
      <trkpt lat="50.21009" lon="4.89804">
        <ele>179.6</ele>
        <time>2025-04-05T11:00:16Z</time>
      </trkpt>
      <trkpt lat="50.21014" lon="4.89808">
        <ele>179.4</ele>
        <time>2025-04-05T11:00:17Z</time>
      </trkpt>
      <trkpt lat="50.21018" lon="4.89811">
        <ele>179.4</ele>
        <time>2025-04-05T11:00:18Z</time>
      </trkpt>
      <trkpt lat="50.21022" lon="4.89814">
        <ele>179.2</ele>
        <time>2025-04-05T11:00:19Z</time>
      </trkpt>
      <trkpt lat="50.21027" lon="4.89817">
        <ele>178.8</ele>
        <time>2025-04-05T11:00:20Z</time>
      </trkpt>
      <trkpt lat="50.21031" lon="4.8982">
        <ele>178.6</ele>
        <time>2025-04-05T11:00:21Z</time>
      </trkpt>
      <trkpt lat="50.21035" lon="4.89823">
        <ele>178.4</ele>
        <time>2025-04-05T11:00:22Z</time>
      </trkpt>
      <trkpt lat="50.2104" lon="4.89826">
        <ele>178</ele>
        <time>2025-04-05T11:00:23Z</time>
      </trkpt>
      <trkpt lat="50.21045" lon="4.8983">
        <ele>177.8</ele>
        <time>2025-04-05T11:00:24Z</time>
      </trkpt>
      <trkpt lat="50.2105" lon="4.89833">
        <ele>177.4</ele>
        <time>2025-04-05T11:00:25Z</time>
      </trkpt>
      <trkpt lat="50.21056" lon="4.89836">
        <ele>177.2</ele>
        <time>2025-04-05T11:00:26Z</time>
      </trkpt>
      <trkpt lat="50.21061" lon="4.89838">
        <ele>176.8</ele>
        <time>2025-04-05T11:00:27Z</time>
      </trkpt>
      <trkpt lat="50.21067" lon="4.8984">
        <ele>176.4</ele>
        <time>2025-04-05T11:00:28Z</time>
      </trkpt>
      <trkpt lat="50.21074" lon="4.89843">
        <ele>176.2</ele>
        <time>2025-04-05T11:00:29Z</time>
      </trkpt>
      <trkpt lat="50.2108" lon="4.89846">
        <ele>176</ele>
        <time>2025-04-05T11:00:30Z</time>
      </trkpt>
      <trkpt lat="50.21087" lon="4.89849">
        <ele>175.6</ele>
        <time>2025-04-05T11:00:31Z</time>
      </trkpt>
      <trkpt lat="50.21092" lon="4.89852">
        <ele>175.2</ele>
        <time>2025-04-05T11:00:32Z</time>
      </trkpt>
      <trkpt lat="50.21098" lon="4.89856">
        <ele>175.2</ele>
        <time>2025-04-05T11:00:33Z</time>
      </trkpt>
      <trkpt lat="50.21106" lon="4.89861">
        <ele>175</ele>
        <time>2025-04-05T11:00:34Z</time>
      </trkpt>
      <trkpt lat="50.21114" lon="4.89865">
        <ele>175</ele>
        <time>2025-04-05T11:00:35Z</time>
      </trkpt>
      <trkpt lat="50.2112" lon="4.89869">
        <ele>174.8</ele>
        <time>2025-04-05T11:00:36Z</time>
      </trkpt>
      <trkpt lat="50.21127" lon="4.89873">
        <ele>174.6</ele>
        <time>2025-04-05T11:00:37Z</time>
      </trkpt>
      <trkpt lat="50.21135" lon="4.89876">
        <ele>174.4</ele>
        <time>2025-04-05T11:00:38Z</time>
      </trkpt>
      <trkpt lat="50.21141" lon="4.89878">
        <ele>174.4</ele>
        <time>2025-04-05T11:00:39Z</time>
      </trkpt>
      <trkpt lat="50.21148" lon="4.89881">
        <ele>174.2</ele>
        <time>2025-04-05T11:00:40Z</time>
      </trkpt>
      <trkpt lat="50.21154" lon="4.89885">
        <ele>174.2</ele>
        <time>2025-04-05T11:00:41Z</time>
      </trkpt>
      <trkpt lat="50.21159" lon="4.89887">
        <ele>174.2</ele>
        <time>2025-04-05T11:00:42Z</time>
      </trkpt>
      <trkpt lat="50.21166" lon="4.89891">
        <ele>174.2</ele>
        <time>2025-04-05T11:00:43Z</time>
      </trkpt>
      <trkpt lat="50.21172" lon="4.89893">
        <ele>174.2</ele>
        <time>2025-04-05T11:00:44Z</time>
      </trkpt>
      <trkpt lat="50.21179" lon="4.89896">
        <ele>174.2</ele>
        <time>2025-04-05T11:00:45Z</time>
      </trkpt>
      <trkpt lat="50.21185" lon="4.89898">
        <ele>174.2</ele>
        <time>2025-04-05T11:00:46Z</time>
      </trkpt>
      <trkpt lat="50.21191" lon="4.899">
        <ele>174.4</ele>
        <time>2025-04-05T11:00:47Z</time>
      </trkpt>
      <trkpt lat="50.21197" lon="4.89901">
        <ele>174.4</ele>
        <time>2025-04-05T11:00:48Z</time>
      </trkpt>
      <trkpt lat="50.21203" lon="4.89901">
        <ele>174.6</ele>
        <time>2025-04-05T11:00:49Z</time>
      </trkpt>
      <trkpt lat="50.2121" lon="4.89901">
        <ele>174.6</ele>
        <time>2025-04-05T11:00:50Z</time>
      </trkpt>
      <trkpt lat="50.21217" lon="4.899">
        <ele>174.6</ele>
        <time>2025-04-05T11:00:51Z</time>
      </trkpt>
      <trkpt lat="50.21223" lon="4.89898">
        <ele>174.6</ele>
        <time>2025-04-05T11:00:52Z</time>
      </trkpt>
      <trkpt lat="50.21229" lon="4.89897">
        <ele>174.6</ele>
        <time>2025-04-05T11:00:53Z</time>
      </trkpt>
      <trkpt lat="50.21235" lon="4.89895">
        <ele>174.8</ele>
        <time>2025-04-05T11:00:54Z</time>
      </trkpt>
      <trkpt lat="50.21241" lon="4.89893">
        <ele>174.8</ele>
        <time>2025-04-05T11:00:55Z</time>
      </trkpt>
      <trkpt lat="50.21247" lon="4.8989">
        <ele>175</ele>
        <time>2025-04-05T11:00:56Z</time>
      </trkpt>
      <trkpt lat="50.21251" lon="4.89888">
        <ele>175</ele>
        <time>2025-04-05T11:00:57Z</time>
      </trkpt>
      <trkpt lat="50.21257" lon="4.89886">
        <ele>175.2</ele>
        <time>2025-04-05T11:00:58Z</time>
      </trkpt>
      <trkpt lat="50.21262" lon="4.89884">
        <ele>175.4</ele>
        <time>2025-04-05T11:00:59Z</time>
      </trkpt>
      <trkpt lat="50.21267" lon="4.89882">
        <ele>175.4</ele>
        <time>2025-04-05T11:01:00Z</time>
      </trkpt>
      <trkpt lat="50.21273" lon="4.8988">
        <ele>175.6</ele>
        <time>2025-04-05T11:01:01Z</time>
      </trkpt>
      <trkpt lat="50.21279" lon="4.89877">
        <ele>175.8</ele>
        <time>2025-04-05T11:01:02Z</time>
      </trkpt>
      <trkpt lat="50.21283" lon="4.89875">
        <ele>176</ele>
        <time>2025-04-05T11:01:03Z</time>
      </trkpt>
      <trkpt lat="50.21288" lon="4.89873">
        <ele>176.2</ele>
        <time>2025-04-05T11:01:04Z</time>
      </trkpt>
      <trkpt lat="50.21293" lon="4.89871">
        <ele>176.4</ele>
        <time>2025-04-05T11:01:05Z</time>
      </trkpt>
      <trkpt lat="50.21298" lon="4.89869">
        <ele>176.6</ele>
        <time>2025-04-05T11:01:06Z</time>
      </trkpt>
      <trkpt lat="50.21303" lon="4.89867">
        <ele>177</ele>
        <time>2025-04-05T11:01:07Z</time>
      </trkpt>
      <trkpt lat="50.21308" lon="4.89865">
        <ele>177.2</ele>
        <time>2025-04-05T11:01:08Z</time>
      </trkpt>
      <trkpt lat="50.21313" lon="4.89863">
        <ele>177.4</ele>
        <time>2025-04-05T11:01:09Z</time>
      </trkpt>
      <trkpt lat="50.21317" lon="4.89861">
        <ele>177.6</ele>
        <time>2025-04-05T11:01:10Z</time>
      </trkpt>
      <trkpt lat="50.21322" lon="4.8986">
        <ele>177.8</ele>
        <time>2025-04-05T11:01:11Z</time>
      </trkpt>
      <trkpt lat="50.21326" lon="4.89857">
        <ele>178</ele>
        <time>2025-04-05T11:01:12Z</time>
      </trkpt>
      <trkpt lat="50.21331" lon="4.89855">
        <ele>178.2</ele>
        <time>2025-04-05T11:01:13Z</time>
      </trkpt>
      <trkpt lat="50.21336" lon="4.89853">
        <ele>178.4</ele>
        <time>2025-04-05T11:01:14Z</time>
      </trkpt>
      <trkpt lat="50.21341" lon="4.89851">
        <ele>178.6</ele>
        <time>2025-04-05T11:01:15Z</time>
      </trkpt>
      <trkpt lat="50.21346" lon="4.89849">
        <ele>178.8</ele>
        <time>2025-04-05T11:01:16Z</time>
      </trkpt>
      <trkpt lat="50.2135" lon="4.89848">
        <ele>179</ele>
        <time>2025-04-05T11:01:17Z</time>
      </trkpt>
      <trkpt lat="50.21355" lon="4.89846">
        <ele>179.2</ele>
        <time>2025-04-05T11:01:18Z</time>
      </trkpt>
      <trkpt lat="50.21359" lon="4.89843">
        <ele>179.4</ele>
        <time>2025-04-05T11:01:19Z</time>
      </trkpt>
      <trkpt lat="50.21363" lon="4.89842">
        <ele>179.6</ele>
        <time>2025-04-05T11:01:20Z</time>
      </trkpt>
      <trkpt lat="50.21368" lon="4.8984">
        <ele>179.8</ele>
        <time>2025-04-05T11:01:21Z</time>
      </trkpt>
      <trkpt lat="50.21373" lon="4.89838">
        <ele>180</ele>
        <time>2025-04-05T11:01:22Z</time>
      </trkpt>
      <trkpt lat="50.21379" lon="4.89835">
        <ele>180</ele>
        <time>2025-04-05T11:01:23Z</time>
      </trkpt>
      <trkpt lat="50.21384" lon="4.89833">
        <ele>180</ele>
        <time>2025-04-05T11:01:24Z</time>
      </trkpt>
      <trkpt lat="50.21388" lon="4.8983">
        <ele>180</ele>
        <time>2025-04-05T11:01:25Z</time>
      </trkpt>
      <trkpt lat="50.21393" lon="4.89827">
        <ele>180</ele>
        <time>2025-04-05T11:01:26Z</time>
      </trkpt>
      <trkpt lat="50.21399" lon="4.89824">
        <ele>180.2</ele>
        <time>2025-04-05T11:01:27Z</time>
      </trkpt>
      <trkpt lat="50.21404" lon="4.89821">
        <ele>180.4</ele>
        <time>2025-04-05T11:01:28Z</time>
      </trkpt>
      <trkpt lat="50.21409" lon="4.8982">
        <ele>180.4</ele>
        <time>2025-04-05T11:01:29Z</time>
      </trkpt>
      <trkpt lat="50.21415" lon="4.89818">
        <ele>180.6</ele>
        <time>2025-04-05T11:01:30Z</time>
      </trkpt>
      <trkpt lat="50.2142" lon="4.89815">
        <ele>180.6</ele>
        <time>2025-04-05T11:01:31Z</time>
      </trkpt>
      <trkpt lat="50.21425" lon="4.89813">
        <ele>180.6</ele>
        <time>2025-04-05T11:01:32Z</time>
      </trkpt>
      <trkpt lat="50.2143" lon="4.89811">
        <ele>180.6</ele>
        <time>2025-04-05T11:01:33Z</time>
      </trkpt>
      <trkpt lat="50.21435" lon="4.89809">
        <ele>180.8</ele>
        <time>2025-04-05T11:01:34Z</time>
      </trkpt>
      <trkpt lat="50.21441" lon="4.89807">
        <ele>180.8</ele>
        <time>2025-04-05T11:01:35Z</time>
      </trkpt>
      <trkpt lat="50.21446" lon="4.89805">
        <ele>181</ele>
        <time>2025-04-05T11:01:36Z</time>
      </trkpt>
      <trkpt lat="50.2145" lon="4.89804">
        <ele>181.2</ele>
        <time>2025-04-05T11:01:37Z</time>
      </trkpt>
      <trkpt lat="50.21455" lon="4.89802">
        <ele>181.2</ele>
        <time>2025-04-05T11:01:38Z</time>
      </trkpt>
      <trkpt lat="50.2146" lon="4.898">
        <ele>181.2</ele>
        <time>2025-04-05T11:01:39Z</time>
      </trkpt>
      <trkpt lat="50.21465" lon="4.89798">
        <ele>181.2</ele>
        <time>2025-04-05T11:01:40Z</time>
      </trkpt>
      <trkpt lat="50.2147" lon="4.89796">
        <ele>181.2</ele>
        <time>2025-04-05T11:01:41Z</time>
      </trkpt>
      <trkpt lat="50.21475" lon="4.89794">
        <ele>181.2</ele>
        <time>2025-04-05T11:01:42Z</time>
      </trkpt>
      <trkpt lat="50.21479" lon="4.89792">
        <ele>181.4</ele>
        <time>2025-04-05T11:01:43Z</time>
      </trkpt>
      <trkpt lat="50.21485" lon="4.8979">
        <ele>181.4</ele>
        <time>2025-04-05T11:01:44Z</time>
      </trkpt>
      <trkpt lat="50.21491" lon="4.89787">
        <ele>181.6</ele>
        <time>2025-04-05T11:01:45Z</time>
      </trkpt>
      <trkpt lat="50.21495" lon="4.89786">
        <ele>181.8</ele>
        <time>2025-04-05T11:01:46Z</time>
      </trkpt>
      <trkpt lat="50.21501" lon="4.89784">
        <ele>181.8</ele>
        <time>2025-04-05T11:01:47Z</time>
      </trkpt>
      <trkpt lat="50.21507" lon="4.89781">
        <ele>181.8</ele>
        <time>2025-04-05T11:01:48Z</time>
      </trkpt>
      <trkpt lat="50.21511" lon="4.89779">
        <ele>182</ele>
        <time>2025-04-05T11:01:49Z</time>
      </trkpt>
      <trkpt lat="50.21516" lon="4.89777">
        <ele>182</ele>
        <time>2025-04-05T11:01:50Z</time>
      </trkpt>
      <trkpt lat="50.21521" lon="4.89775">
        <ele>182</ele>
        <time>2025-04-05T11:01:51Z</time>
      </trkpt>
      <trkpt lat="50.21526" lon="4.89773">
        <ele>181.8</ele>
        <time>2025-04-05T11:01:52Z</time>
      </trkpt>
      <trkpt lat="50.21532" lon="4.89771">
        <ele>181.8</ele>
        <time>2025-04-05T11:01:53Z</time>
      </trkpt>
      <trkpt lat="50.21536" lon="4.8977">
        <ele>181.8</ele>
        <time>2025-04-05T11:01:54Z</time>
      </trkpt>
      <trkpt lat="50.21541" lon="4.89767">
        <ele>181.8</ele>
        <time>2025-04-05T11:01:55Z</time>
      </trkpt>
      <trkpt lat="50.21546" lon="4.89765">
        <ele>181.6</ele>
        <time>2025-04-05T11:01:56Z</time>
      </trkpt>
      <trkpt lat="50.21552" lon="4.89763">
        <ele>181.6</ele>
        <time>2025-04-05T11:01:57Z</time>
      </trkpt>
      <trkpt lat="50.21557" lon="4.8976">
        <ele>181.4</ele>
        <time>2025-04-05T11:01:58Z</time>
      </trkpt>
      <trkpt lat="50.21562" lon="4.89759">
        <ele>181.4</ele>
        <time>2025-04-05T11:01:59Z</time>
      </trkpt>
      <trkpt lat="50.21568" lon="4.89756">
        <ele>181.2</ele>
        <time>2025-04-05T11:02:00Z</time>
      </trkpt>
      <trkpt lat="50.21574" lon="4.89754">
        <ele>181.2</ele>
        <time>2025-04-05T11:02:01Z</time>
      </trkpt>
      <trkpt lat="50.21579" lon="4.89752">
        <ele>181</ele>
        <time>2025-04-05T11:02:02Z</time>
      </trkpt>
      <trkpt lat="50.21583" lon="4.8975">
        <ele>180.8</ele>
        <time>2025-04-05T11:02:03Z</time>
      </trkpt>
      <trkpt lat="50.21588" lon="4.89747">
        <ele>180.6</ele>
        <time>2025-04-05T11:02:04Z</time>
      </trkpt>
      <trkpt lat="50.21594" lon="4.89745">
        <ele>180.6</ele>
        <time>2025-04-05T11:02:05Z</time>
      </trkpt>
      <trkpt lat="50.21599" lon="4.89742">
        <ele>180.4</ele>
        <time>2025-04-05T11:02:06Z</time>
      </trkpt>
      <trkpt lat="50.21605" lon="4.8974">
        <ele>180</ele>
        <time>2025-04-05T11:02:07Z</time>
      </trkpt>
      <trkpt lat="50.21611" lon="4.89737">
        <ele>179.6</ele>
        <time>2025-04-05T11:02:08Z</time>
      </trkpt>
      <trkpt lat="50.21616" lon="4.89734">
        <ele>179.2</ele>
        <time>2025-04-05T11:02:09Z</time>
      </trkpt>
      <trkpt lat="50.21623" lon="4.89731">
        <ele>179</ele>
        <time>2025-04-05T11:02:10Z</time>
      </trkpt>
      <trkpt lat="50.21629" lon="4.89728">
        <ele>179</ele>
        <time>2025-04-05T11:02:11Z</time>
      </trkpt>
      <trkpt lat="50.21634" lon="4.89725">
        <ele>178.8</ele>
        <time>2025-04-05T11:02:12Z</time>
      </trkpt>
      <trkpt lat="50.21641" lon="4.89722">
        <ele>178.6</ele>
        <time>2025-04-05T11:02:13Z</time>
      </trkpt>
      <trkpt lat="50.21647" lon="4.89719">
        <ele>178.6</ele>
        <time>2025-04-05T11:02:14Z</time>
      </trkpt>
      <trkpt lat="50.21654" lon="4.89716">
        <ele>178.6</ele>
        <time>2025-04-05T11:02:15Z</time>
      </trkpt>
      <trkpt lat="50.21659" lon="4.89713">
        <ele>178.6</ele>
        <time>2025-04-05T11:02:16Z</time>
      </trkpt>
      <trkpt lat="50.21665" lon="4.8971">
        <ele>178.6</ele>
        <time>2025-04-05T11:02:17Z</time>
      </trkpt>
      <trkpt lat="50.21672" lon="4.89707">
        <ele>178.6</ele>
        <time>2025-04-05T11:02:18Z</time>
      </trkpt>
      <trkpt lat="50.21679" lon="4.89704">
        <ele>178.6</ele>
        <time>2025-04-05T11:02:19Z</time>
      </trkpt>
      <trkpt lat="50.21686" lon="4.89701">
        <ele>178.6</ele>
        <time>2025-04-05T11:02:20Z</time>
      </trkpt>
      <trkpt lat="50.21692" lon="4.89698">
        <ele>178.6</ele>
        <time>2025-04-05T11:02:21Z</time>
      </trkpt>
      <trkpt lat="50.21697" lon="4.89696">
        <ele>178.6</ele>
        <time>2025-04-05T11:02:22Z</time>
      </trkpt>
      <trkpt lat="50.21703" lon="4.89693">
        <ele>178.6</ele>
        <time>2025-04-05T11:02:23Z</time>
      </trkpt>
      <trkpt lat="50.21709" lon="4.8969">
        <ele>178.4</ele>
        <time>2025-04-05T11:02:24Z</time>
      </trkpt>
      <trkpt lat="50.21715" lon="4.89687">
        <ele>178.4</ele>
        <time>2025-04-05T11:02:25Z</time>
      </trkpt>
      <trkpt lat="50.21721" lon="4.89685">
        <ele>178.4</ele>
        <time>2025-04-05T11:02:26Z</time>
      </trkpt>
      <trkpt lat="50.21727" lon="4.89681">
        <ele>178.4</ele>
        <time>2025-04-05T11:02:27Z</time>
      </trkpt>
      <trkpt lat="50.21733" lon="4.89678">
        <ele>178.2</ele>
        <time>2025-04-05T11:02:28Z</time>
      </trkpt>
      <trkpt lat="50.2174" lon="4.89675">
        <ele>178.4</ele>
        <time>2025-04-05T11:02:29Z</time>
      </trkpt>
      <trkpt lat="50.21746" lon="4.89672">
        <ele>178.4</ele>
        <time>2025-04-05T11:02:30Z</time>
      </trkpt>
      <trkpt lat="50.2175" lon="4.8967">
        <ele>178.4</ele>
        <time>2025-04-05T11:02:31Z</time>
      </trkpt>
      <trkpt lat="50.21755" lon="4.89668">
        <ele>178.2</ele>
        <time>2025-04-05T11:02:32Z</time>
      </trkpt>
      <trkpt lat="50.21761" lon="4.89665">
        <ele>178.4</ele>
        <time>2025-04-05T11:02:33Z</time>
      </trkpt>
      <trkpt lat="50.21766" lon="4.89662">
        <ele>178.4</ele>
        <time>2025-04-05T11:02:34Z</time>
      </trkpt>
      <trkpt lat="50.21771" lon="4.8966">
        <ele>178.4</ele>
        <time>2025-04-05T11:02:35Z</time>
      </trkpt>
      <trkpt lat="50.21777" lon="4.89657">
        <ele>178.4</ele>
        <time>2025-04-05T11:02:36Z</time>
      </trkpt>
      <trkpt lat="50.21783" lon="4.89654">
        <ele>178.6</ele>
        <time>2025-04-05T11:02:37Z</time>
      </trkpt>
      <trkpt lat="50.21788" lon="4.89652">
        <ele>178.8</ele>
        <time>2025-04-05T11:02:38Z</time>
      </trkpt>
      <trkpt lat="50.21794" lon="4.89649">
        <ele>179</ele>
        <time>2025-04-05T11:02:39Z</time>
      </trkpt>
      <trkpt lat="50.218" lon="4.89646">
        <ele>179.2</ele>
        <time>2025-04-05T11:02:40Z</time>
      </trkpt>
      <trkpt lat="50.21806" lon="4.89643">
        <ele>179.6</ele>
        <time>2025-04-05T11:02:41Z</time>
      </trkpt>
      <trkpt lat="50.21811" lon="4.8964">
        <ele>179.8</ele>
        <time>2025-04-05T11:02:42Z</time>
      </trkpt>
      <trkpt lat="50.21815" lon="4.89638">
        <ele>180.2</ele>
        <time>2025-04-05T11:02:43Z</time>
      </trkpt>
      <trkpt lat="50.21819" lon="4.89636">
        <ele>180.4</ele>
        <time>2025-04-05T11:02:44Z</time>
      </trkpt>
      <trkpt lat="50.21824" lon="4.89633">
        <ele>180.8</ele>
        <time>2025-04-05T11:02:45Z</time>
      </trkpt>
      <trkpt lat="50.21829" lon="4.89631">
        <ele>181</ele>
        <time>2025-04-05T11:02:46Z</time>
      </trkpt>
      <trkpt lat="50.21834" lon="4.89628">
        <ele>181.4</ele>
        <time>2025-04-05T11:02:47Z</time>
      </trkpt>
      <trkpt lat="50.21838" lon="4.89626">
        <ele>181.6</ele>
        <time>2025-04-05T11:02:48Z</time>
      </trkpt>
      <trkpt lat="50.21842" lon="4.89624">
        <ele>181.8</ele>
        <time>2025-04-05T11:02:49Z</time>
      </trkpt>
      <trkpt lat="50.21847" lon="4.89622">
        <ele>182.2</ele>
        <time>2025-04-05T11:02:50Z</time>
      </trkpt>
      <trkpt lat="50.21851" lon="4.8962">
        <ele>182.4</ele>
        <time>2025-04-05T11:02:51Z</time>
      </trkpt>
      <trkpt lat="50.21855" lon="4.89618">
        <ele>182.6</ele>
        <time>2025-04-05T11:02:52Z</time>
      </trkpt>
      <trkpt lat="50.21859" lon="4.89616">
        <ele>182.8</ele>
        <time>2025-04-05T11:02:53Z</time>
      </trkpt>
      <trkpt lat="50.21863" lon="4.89614">
        <ele>183</ele>
        <time>2025-04-05T11:02:54Z</time>
      </trkpt>
      <trkpt lat="50.21867" lon="4.89613">
        <ele>183.2</ele>
        <time>2025-04-05T11:02:55Z</time>
      </trkpt>
      <trkpt lat="50.21871" lon="4.89615">
        <ele>183.4</ele>
        <time>2025-04-05T11:02:56Z</time>
      </trkpt>
      <trkpt lat="50.21873" lon="4.89618">
        <ele>183.6</ele>
        <time>2025-04-05T11:02:57Z</time>
      </trkpt>
      <trkpt lat="50.21875" lon="4.89623">
        <ele>183.8</ele>
        <time>2025-04-05T11:02:58Z</time>
      </trkpt>
      <trkpt lat="50.21877" lon="4.89628">
        <ele>184.2</ele>
        <time>2025-04-05T11:02:59Z</time>
      </trkpt>
      <trkpt lat="50.21878" lon="4.89633">
        <ele>184.4</ele>
        <time>2025-04-05T11:03:00Z</time>
      </trkpt>
      <trkpt lat="50.21879" lon="4.89639">
        <ele>184.6</ele>
        <time>2025-04-05T11:03:01Z</time>
      </trkpt>
      <trkpt lat="50.2188" lon="4.89646">
        <ele>184.8</ele>
        <time>2025-04-05T11:03:02Z</time>
      </trkpt>
      <trkpt lat="50.21882" lon="4.89653">
        <ele>185</ele>
        <time>2025-04-05T11:03:03Z</time>
      </trkpt>
      <trkpt lat="50.21883" lon="4.8966">
        <ele>185.2</ele>
        <time>2025-04-05T11:03:04Z</time>
      </trkpt>
      <trkpt lat="50.21885" lon="4.89666">
        <ele>185.4</ele>
        <time>2025-04-05T11:03:05Z</time>
      </trkpt>
      <trkpt lat="50.21887" lon="4.89672">
        <ele>185.6</ele>
        <time>2025-04-05T11:03:06Z</time>
      </trkpt>
      <trkpt lat="50.21889" lon="4.89679">
        <ele>185.6</ele>
        <time>2025-04-05T11:03:07Z</time>
      </trkpt>
      <trkpt lat="50.2189" lon="4.89686">
        <ele>185.8</ele>
        <time>2025-04-05T11:03:08Z</time>
      </trkpt>
      <trkpt lat="50.21892" lon="4.89692">
        <ele>186</ele>
        <time>2025-04-05T11:03:09Z</time>
      </trkpt>
      <trkpt lat="50.21893" lon="4.89699">
        <ele>186.2</ele>
        <time>2025-04-05T11:03:10Z</time>
      </trkpt>
      <trkpt lat="50.21895" lon="4.89705">
        <ele>186.2</ele>
        <time>2025-04-05T11:03:11Z</time>
      </trkpt>
      <trkpt lat="50.21897" lon="4.89711">
        <ele>186.4</ele>
        <time>2025-04-05T11:03:12Z</time>
      </trkpt>
      <trkpt lat="50.21899" lon="4.89717">
        <ele>186.4</ele>
        <time>2025-04-05T11:03:13Z</time>
      </trkpt>
      <trkpt lat="50.21901" lon="4.89723">
        <ele>186.6</ele>
        <time>2025-04-05T11:03:14Z</time>
      </trkpt>
      <trkpt lat="50.21902" lon="4.8973">
        <ele>186.6</ele>
        <time>2025-04-05T11:03:15Z</time>
      </trkpt>
      <trkpt lat="50.21904" lon="4.89737">
        <ele>186.6</ele>
        <time>2025-04-05T11:03:16Z</time>
      </trkpt>
      <trkpt lat="50.21906" lon="4.89744">
        <ele>186.6</ele>
        <time>2025-04-05T11:03:17Z</time>
      </trkpt>
      <trkpt lat="50.21907" lon="4.8975">
        <ele>186.6</ele>
        <time>2025-04-05T11:03:18Z</time>
      </trkpt>
      <trkpt lat="50.21909" lon="4.89758">
        <ele>186.6</ele>
        <time>2025-04-05T11:03:19Z</time>
      </trkpt>
      <trkpt lat="50.21911" lon="4.89764">
        <ele>186.6</ele>
        <time>2025-04-05T11:03:20Z</time>
      </trkpt>
      <trkpt lat="50.21912" lon="4.8977">
        <ele>186.4</ele>
        <time>2025-04-05T11:03:21Z</time>
      </trkpt>
      <trkpt lat="50.21914" lon="4.89777">
        <ele>186.4</ele>
        <time>2025-04-05T11:03:22Z</time>
      </trkpt>
      <trkpt lat="50.21915" lon="4.89784">
        <ele>186.4</ele>
        <time>2025-04-05T11:03:23Z</time>
      </trkpt>
      <trkpt lat="50.21917" lon="4.8979">
        <ele>186.4</ele>
        <time>2025-04-05T11:03:24Z</time>
      </trkpt>
      <trkpt lat="50.21919" lon="4.89796">
        <ele>186.4</ele>
        <time>2025-04-05T11:03:25Z</time>
      </trkpt>
      <trkpt lat="50.2192" lon="4.89802">
        <ele>186.4</ele>
        <time>2025-04-05T11:03:26Z</time>
      </trkpt>
      <trkpt lat="50.21921" lon="4.89808">
        <ele>186.2</ele>
        <time>2025-04-05T11:03:27Z</time>
      </trkpt>
      <trkpt lat="50.21923" lon="4.89814">
        <ele>186.2</ele>
        <time>2025-04-05T11:03:28Z</time>
      </trkpt>
      <trkpt lat="50.21925" lon="4.8982">
        <ele>186.2</ele>
        <time>2025-04-05T11:03:29Z</time>
      </trkpt>
      <trkpt lat="50.21926" lon="4.89826">
        <ele>186.2</ele>
        <time>2025-04-05T11:03:30Z</time>
      </trkpt>
      <trkpt lat="50.21928" lon="4.89832">
        <ele>186</ele>
        <time>2025-04-05T11:03:31Z</time>
      </trkpt>
      <trkpt lat="50.2193" lon="4.89839">
        <ele>186</ele>
        <time>2025-04-05T11:03:32Z</time>
      </trkpt>
      <trkpt lat="50.21931" lon="4.89845">
        <ele>186</ele>
        <time>2025-04-05T11:03:33Z</time>
      </trkpt>
      <trkpt lat="50.21933" lon="4.89851">
        <ele>185.8</ele>
        <time>2025-04-05T11:03:34Z</time>
      </trkpt>
      <trkpt lat="50.21935" lon="4.89858">
        <ele>185.8</ele>
        <time>2025-04-05T11:03:35Z</time>
      </trkpt>
      <trkpt lat="50.21937" lon="4.89864">
        <ele>185.8</ele>
        <time>2025-04-05T11:03:36Z</time>
      </trkpt>
      <trkpt lat="50.21939" lon="4.8987">
        <ele>185.6</ele>
        <time>2025-04-05T11:03:37Z</time>
      </trkpt>
      <trkpt lat="50.2194" lon="4.89876">
        <ele>185.6</ele>
        <time>2025-04-05T11:03:38Z</time>
      </trkpt>
      <trkpt lat="50.21943" lon="4.89882">
        <ele>185.6</ele>
        <time>2025-04-05T11:03:39Z</time>
      </trkpt>
      <trkpt lat="50.21945" lon="4.89889">
        <ele>185.4</ele>
        <time>2025-04-05T11:03:40Z</time>
      </trkpt>
      <trkpt lat="50.21948" lon="4.89896">
        <ele>185.4</ele>
        <time>2025-04-05T11:03:41Z</time>
      </trkpt>
      <trkpt lat="50.21951" lon="4.89903">
        <ele>185.4</ele>
        <time>2025-04-05T11:03:42Z</time>
      </trkpt>
      <trkpt lat="50.21953" lon="4.89909">
        <ele>185.2</ele>
        <time>2025-04-05T11:03:43Z</time>
      </trkpt>
      <trkpt lat="50.21955" lon="4.89915">
        <ele>185</ele>
        <time>2025-04-05T11:03:44Z</time>
      </trkpt>
      <trkpt lat="50.21958" lon="4.89923">
        <ele>184.8</ele>
        <time>2025-04-05T11:03:45Z</time>
      </trkpt>
      <trkpt lat="50.21961" lon="4.89929">
        <ele>184.8</ele>
        <time>2025-04-05T11:03:46Z</time>
      </trkpt>
      <trkpt lat="50.21964" lon="4.89935">
        <ele>184.6</ele>
        <time>2025-04-05T11:03:47Z</time>
      </trkpt>
      <trkpt lat="50.21966" lon="4.89942">
        <ele>184.4</ele>
        <time>2025-04-05T11:03:48Z</time>
      </trkpt>
      <trkpt lat="50.21969" lon="4.89949">
        <ele>184.2</ele>
        <time>2025-04-05T11:03:49Z</time>
      </trkpt>
      <trkpt lat="50.21972" lon="4.89956">
        <ele>184</ele>
        <time>2025-04-05T11:03:50Z</time>
      </trkpt>
      <trkpt lat="50.21976" lon="4.89963">
        <ele>183.6</ele>
        <time>2025-04-05T11:03:51Z</time>
      </trkpt>
      <trkpt lat="50.21978" lon="4.89971">
        <ele>183.4</ele>
        <time>2025-04-05T11:03:52Z</time>
      </trkpt>
      <trkpt lat="50.2198" lon="4.89978">
        <ele>183</ele>
        <time>2025-04-05T11:03:53Z</time>
      </trkpt>
      <trkpt lat="50.21981" lon="4.89987">
        <ele>182.8</ele>
        <time>2025-04-05T11:03:54Z</time>
      </trkpt>
      <trkpt lat="50.21983" lon="4.89995">
        <ele>182.6</ele>
        <time>2025-04-05T11:03:55Z</time>
      </trkpt>
      <trkpt lat="50.21985" lon="4.90004">
        <ele>182.4</ele>
        <time>2025-04-05T11:03:56Z</time>
      </trkpt>
      <trkpt lat="50.21987" lon="4.90014">
        <ele>182.4</ele>
        <time>2025-04-05T11:03:57Z</time>
      </trkpt>
      <trkpt lat="50.21989" lon="4.90023">
        <ele>182.2</ele>
        <time>2025-04-05T11:03:58Z</time>
      </trkpt>
      <trkpt lat="50.21992" lon="4.90033">
        <ele>182</ele>
        <time>2025-04-05T11:03:59Z</time>
      </trkpt>
      <trkpt lat="50.21993" lon="4.90042">
        <ele>182</ele>
        <time>2025-04-05T11:04:00Z</time>
      </trkpt>
      <trkpt lat="50.21995" lon="4.90052">
        <ele>182</ele>
        <time>2025-04-05T11:04:01Z</time>
      </trkpt>
      <trkpt lat="50.21996" lon="4.90062">
        <ele>182</ele>
        <time>2025-04-05T11:04:02Z</time>
      </trkpt>
      <trkpt lat="50.21997" lon="4.90073">
        <ele>182</ele>
        <time>2025-04-05T11:04:03Z</time>
      </trkpt>
      <trkpt lat="50.21999" lon="4.90082">
        <ele>182</ele>
        <time>2025-04-05T11:04:04Z</time>
      </trkpt>
      <trkpt lat="50.22001" lon="4.9009">
        <ele>182</ele>
        <time>2025-04-05T11:04:05Z</time>
      </trkpt>
      <trkpt lat="50.22002" lon="4.90099">
        <ele>182</ele>
        <time>2025-04-05T11:04:06Z</time>
      </trkpt>
      <trkpt lat="50.22003" lon="4.90107">
        <ele>181.8</ele>
        <time>2025-04-05T11:04:07Z</time>
      </trkpt>
      <trkpt lat="50.22004" lon="4.90114">
        <ele>181.8</ele>
        <time>2025-04-05T11:04:08Z</time>
      </trkpt>
      <trkpt lat="50.22006" lon="4.90122">
        <ele>181.8</ele>
        <time>2025-04-05T11:04:09Z</time>
      </trkpt>
      <trkpt lat="50.22006" lon="4.9013">
        <ele>181.8</ele>
        <time>2025-04-05T11:04:10Z</time>
      </trkpt>
      <trkpt lat="50.22007" lon="4.90138">
        <ele>181.8</ele>
        <time>2025-04-05T11:04:11Z</time>
      </trkpt>
      <trkpt lat="50.22008" lon="4.90147">
        <ele>181.8</ele>
        <time>2025-04-05T11:04:12Z</time>
      </trkpt>
      <trkpt lat="50.22009" lon="4.90156">
        <ele>182</ele>
        <time>2025-04-05T11:04:13Z</time>
      </trkpt>
      <trkpt lat="50.22011" lon="4.90164">
        <ele>182</ele>
        <time>2025-04-05T11:04:14Z</time>
      </trkpt>
      <trkpt lat="50.22012" lon="4.9017">
        <ele>182</ele>
        <time>2025-04-05T11:04:15Z</time>
      </trkpt>
      <trkpt lat="50.22013" lon="4.90178">
        <ele>182</ele>
        <time>2025-04-05T11:04:16Z</time>
      </trkpt>
      <trkpt lat="50.22015" lon="4.90187">
        <ele>182.2</ele>
        <time>2025-04-05T11:04:17Z</time>
      </trkpt>
      <trkpt lat="50.22016" lon="4.90195">
        <ele>182.2</ele>
        <time>2025-04-05T11:04:18Z</time>
      </trkpt>
      <trkpt lat="50.22018" lon="4.90203">
        <ele>182.4</ele>
        <time>2025-04-05T11:04:19Z</time>
      </trkpt>
      <trkpt lat="50.2202" lon="4.9021">
        <ele>182.4</ele>
        <time>2025-04-05T11:04:20Z</time>
      </trkpt>
      <trkpt lat="50.22021" lon="4.90219">
        <ele>182.6</ele>
        <time>2025-04-05T11:04:21Z</time>
      </trkpt>
      <trkpt lat="50.22022" lon="4.90228">
        <ele>182.6</ele>
        <time>2025-04-05T11:04:22Z</time>
      </trkpt>
      <trkpt lat="50.22023" lon="4.90235">
        <ele>182.6</ele>
        <time>2025-04-05T11:04:23Z</time>
      </trkpt>
      <trkpt lat="50.22024" lon="4.90243">
        <ele>182.6</ele>
        <time>2025-04-05T11:04:24Z</time>
      </trkpt>
      <trkpt lat="50.22026" lon="4.90251">
        <ele>182.8</ele>
        <time>2025-04-05T11:04:25Z</time>
      </trkpt>
      <trkpt lat="50.22027" lon="4.90258">
        <ele>182.8</ele>
        <time>2025-04-05T11:04:26Z</time>
      </trkpt>
      <trkpt lat="50.22029" lon="4.90266">
        <ele>182.8</ele>
        <time>2025-04-05T11:04:27Z</time>
      </trkpt>
      <trkpt lat="50.2203" lon="4.90274">
        <ele>182.8</ele>
        <time>2025-04-05T11:04:28Z</time>
      </trkpt>
      <trkpt lat="50.22032" lon="4.90282">
        <ele>182.8</ele>
        <time>2025-04-05T11:04:29Z</time>
      </trkpt>
      <trkpt lat="50.22033" lon="4.90289">
        <ele>182.8</ele>
        <time>2025-04-05T11:04:30Z</time>
      </trkpt>
      <trkpt lat="50.22035" lon="4.90297">
        <ele>183</ele>
        <time>2025-04-05T11:04:31Z</time>
      </trkpt>
      <trkpt lat="50.22037" lon="4.90304">
        <ele>182.8</ele>
        <time>2025-04-05T11:04:32Z</time>
      </trkpt>
      <trkpt lat="50.22039" lon="4.90311">
        <ele>182.8</ele>
        <time>2025-04-05T11:04:33Z</time>
      </trkpt>
      <trkpt lat="50.22041" lon="4.90319">
        <ele>182.6</ele>
        <time>2025-04-05T11:04:34Z</time>
      </trkpt>
      <trkpt lat="50.22044" lon="4.90326">
        <ele>182.6</ele>
        <time>2025-04-05T11:04:35Z</time>
      </trkpt>
      <trkpt lat="50.22047" lon="4.90333">
        <ele>182.2</ele>
        <time>2025-04-05T11:04:36Z</time>
      </trkpt>
      <trkpt lat="50.2205" lon="4.90341">
        <ele>182</ele>
        <time>2025-04-05T11:04:37Z</time>
      </trkpt>
      <trkpt lat="50.22053" lon="4.90349">
        <ele>181.6</ele>
        <time>2025-04-05T11:04:38Z</time>
      </trkpt>
      <trkpt lat="50.22057" lon="4.90356">
        <ele>181.4</ele>
        <time>2025-04-05T11:04:39Z</time>
      </trkpt>
      <trkpt lat="50.2206" lon="4.90363">
        <ele>181</ele>
        <time>2025-04-05T11:04:40Z</time>
      </trkpt>
      <trkpt lat="50.22065" lon="4.90371">
        <ele>180.4</ele>
        <time>2025-04-05T11:04:41Z</time>
      </trkpt>
      <trkpt lat="50.2207" lon="4.90378">
        <ele>179.8</ele>
        <time>2025-04-05T11:04:42Z</time>
      </trkpt>
      <trkpt lat="50.22074" lon="4.90385">
        <ele>179.4</ele>
        <time>2025-04-05T11:04:43Z</time>
      </trkpt>
      <trkpt lat="50.22079" lon="4.90392">
        <ele>178.8</ele>
        <time>2025-04-05T11:04:44Z</time>
      </trkpt>
      <trkpt lat="50.22084" lon="4.90399">
        <ele>178.2</ele>
        <time>2025-04-05T11:04:45Z</time>
      </trkpt>
      <trkpt lat="50.22089" lon="4.90407">
        <ele>177.6</ele>
        <time>2025-04-05T11:04:46Z</time>
      </trkpt>
      <trkpt lat="50.22094" lon="4.90413">
        <ele>177</ele>
        <time>2025-04-05T11:04:47Z</time>
      </trkpt>
      <trkpt lat="50.22099" lon="4.90422">
        <ele>176.2</ele>
        <time>2025-04-05T11:04:48Z</time>
      </trkpt>
      <trkpt lat="50.22105" lon="4.90431">
        <ele>175.4</ele>
        <time>2025-04-05T11:04:49Z</time>
      </trkpt>
      <trkpt lat="50.2211" lon="4.90438">
        <ele>174.6</ele>
        <time>2025-04-05T11:04:50Z</time>
      </trkpt>
      <trkpt lat="50.22115" lon="4.90446">
        <ele>173.8</ele>
        <time>2025-04-05T11:04:51Z</time>
      </trkpt>
      <trkpt lat="50.22121" lon="4.90456">
        <ele>173</ele>
        <time>2025-04-05T11:04:52Z</time>
      </trkpt>
      <trkpt lat="50.22127" lon="4.90466">
        <ele>172.6</ele>
        <time>2025-04-05T11:04:53Z</time>
      </trkpt>
      <trkpt lat="50.22133" lon="4.90477">
        <ele>171.8</ele>
        <time>2025-04-05T11:04:54Z</time>
      </trkpt>
      <trkpt lat="50.22139" lon="4.90488">
        <ele>171.2</ele>
        <time>2025-04-05T11:04:55Z</time>
      </trkpt>
      <trkpt lat="50.22144" lon="4.90497">
        <ele>170.4</ele>
        <time>2025-04-05T11:04:56Z</time>
      </trkpt>
      <trkpt lat="50.2215" lon="4.90509">
        <ele>169.8</ele>
        <time>2025-04-05T11:04:57Z</time>
      </trkpt>
      <trkpt lat="50.22155" lon="4.9052">
        <ele>169.2</ele>
        <time>2025-04-05T11:04:58Z</time>
      </trkpt>
      <trkpt lat="50.2216" lon="4.90528">
        <ele>168.4</ele>
        <time>2025-04-05T11:04:59Z</time>
      </trkpt>
      <trkpt lat="50.22165" lon="4.90537">
        <ele>167.8</ele>
        <time>2025-04-05T11:05:00Z</time>
      </trkpt>
      <trkpt lat="50.2217" lon="4.90546">
        <ele>167</ele>
        <time>2025-04-05T11:05:01Z</time>
      </trkpt>
      <trkpt lat="50.22174" lon="4.90555">
        <ele>166.4</ele>
        <time>2025-04-05T11:05:02Z</time>
      </trkpt>
      <trkpt lat="50.2218" lon="4.90566">
        <ele>165.8</ele>
        <time>2025-04-05T11:05:03Z</time>
      </trkpt>
      <trkpt lat="50.22187" lon="4.90577">
        <ele>165</ele>
        <time>2025-04-05T11:05:04Z</time>
      </trkpt>
      <trkpt lat="50.22194" lon="4.90586">
        <ele>164.6</ele>
        <time>2025-04-05T11:05:05Z</time>
      </trkpt>
      <trkpt lat="50.222" lon="4.90592">
        <ele>164</ele>
        <time>2025-04-05T11:05:06Z</time>
      </trkpt>
      <trkpt lat="50.22207" lon="4.90598">
        <ele>163.4</ele>
        <time>2025-04-05T11:05:07Z</time>
      </trkpt>
      <trkpt lat="50.22212" lon="4.90602">
        <ele>163</ele>
        <time>2025-04-05T11:05:08Z</time>
      </trkpt>
      <trkpt lat="50.22216" lon="4.90605">
        <ele>162.4</ele>
        <time>2025-04-05T11:05:09Z</time>
      </trkpt>
      <trkpt lat="50.22223" lon="4.90609">
        <ele>161.8</ele>
        <time>2025-04-05T11:05:10Z</time>
      </trkpt>
      <trkpt lat="50.22231" lon="4.90612">
        <ele>161.4</ele>
        <time>2025-04-05T11:05:11Z</time>
      </trkpt>
      <trkpt lat="50.22237" lon="4.90615">
        <ele>160.8</ele>
        <time>2025-04-05T11:05:12Z</time>
      </trkpt>
      <trkpt lat="50.22243" lon="4.90617">
        <ele>160.2</ele>
        <time>2025-04-05T11:05:13Z</time>
      </trkpt>
      <trkpt lat="50.22248" lon="4.9062">
        <ele>159.6</ele>
        <time>2025-04-05T11:05:14Z</time>
      </trkpt>
      <trkpt lat="50.22253" lon="4.90622">
        <ele>158.8</ele>
        <time>2025-04-05T11:05:15Z</time>
      </trkpt>
      <trkpt lat="50.22258" lon="4.90625">
        <ele>158.2</ele>
        <time>2025-04-05T11:05:16Z</time>
      </trkpt>
      <trkpt lat="50.22262" lon="4.90627">
        <ele>157.6</ele>
        <time>2025-04-05T11:05:17Z</time>
      </trkpt>
      <trkpt lat="50.22266" lon="4.90629">
        <ele>157</ele>
        <time>2025-04-05T11:05:18Z</time>
      </trkpt>
      <trkpt lat="50.22271" lon="4.90633">
        <ele>156.4</ele>
        <time>2025-04-05T11:05:19Z</time>
      </trkpt>
      <trkpt lat="50.22278" lon="4.90637">
        <ele>155.8</ele>
        <time>2025-04-05T11:05:20Z</time>
      </trkpt>
      <trkpt lat="50.22283" lon="4.9064">
        <ele>155.2</ele>
        <time>2025-04-05T11:05:21Z</time>
      </trkpt>
      <trkpt lat="50.22287" lon="4.90643">
        <ele>154.6</ele>
        <time>2025-04-05T11:05:22Z</time>
      </trkpt>
      <trkpt lat="50.22291" lon="4.90646">
        <ele>154</ele>
        <time>2025-04-05T11:05:23Z</time>
      </trkpt>
      <trkpt lat="50.22294" lon="4.90649">
        <ele>153.4</ele>
        <time>2025-04-05T11:05:24Z</time>
      </trkpt>
      <trkpt lat="50.22298" lon="4.90654">
        <ele>152.8</ele>
        <time>2025-04-05T11:05:25Z</time>
      </trkpt>
      <trkpt lat="50.22304" lon="4.9066">
        <ele>152.4</ele>
        <time>2025-04-05T11:05:26Z</time>
      </trkpt>
      <trkpt lat="50.22309" lon="4.90666">
        <ele>151.8</ele>
        <time>2025-04-05T11:05:27Z</time>
      </trkpt>
      <trkpt lat="50.22313" lon="4.90671">
        <ele>151.4</ele>
        <time>2025-04-05T11:05:28Z</time>
      </trkpt>
      <trkpt lat="50.22317" lon="4.90676">
        <ele>150.8</ele>
        <time>2025-04-05T11:05:29Z</time>
      </trkpt>
      <trkpt lat="50.22322" lon="4.90685">
        <ele>150.4</ele>
        <time>2025-04-05T11:05:30Z</time>
      </trkpt>
      <trkpt lat="50.22326" lon="4.90694">
        <ele>150</ele>
        <time>2025-04-05T11:05:31Z</time>
      </trkpt>
      <trkpt lat="50.22329" lon="4.90702">
        <ele>149.6</ele>
        <time>2025-04-05T11:05:32Z</time>
      </trkpt>
      <trkpt lat="50.22331" lon="4.90709">
        <ele>149.2</ele>
        <time>2025-04-05T11:05:33Z</time>
      </trkpt>
      <trkpt lat="50.22333" lon="4.90715">
        <ele>148.8</ele>
        <time>2025-04-05T11:05:34Z</time>
      </trkpt>
      <trkpt lat="50.22335" lon="4.9072">
        <ele>148.4</ele>
        <time>2025-04-05T11:05:35Z</time>
      </trkpt>
      <trkpt lat="50.22337" lon="4.90724">
        <ele>148</ele>
        <time>2025-04-05T11:05:36Z</time>
      </trkpt>
      <trkpt lat="50.22337" lon="4.9073">
        <ele>147.4</ele>
        <time>2025-04-05T11:05:37Z</time>
      </trkpt>
      <trkpt lat="50.22335" lon="4.90739">
        <ele>147</ele>
        <time>2025-04-05T11:05:38Z</time>
      </trkpt>
      <trkpt lat="50.22335" lon="4.90747">
        <ele>146.6</ele>
        <time>2025-04-05T11:05:39Z</time>
      </trkpt>
      <trkpt lat="50.22334" lon="4.90754">
        <ele>146.2</ele>
        <time>2025-04-05T11:05:40Z</time>
      </trkpt>
      <trkpt lat="50.22333" lon="4.90762">
        <ele>145.6</ele>
        <time>2025-04-05T11:05:41Z</time>
      </trkpt>
      <trkpt lat="50.22332" lon="4.9077">
        <ele>145.2</ele>
        <time>2025-04-05T11:05:42Z</time>
      </trkpt>
      <trkpt lat="50.22332" lon="4.90778">
        <ele>144.8</ele>
        <time>2025-04-05T11:05:43Z</time>
      </trkpt>
      <trkpt lat="50.22332" lon="4.90784">
        <ele>144.4</ele>
        <time>2025-04-05T11:05:44Z</time>
      </trkpt>
      <trkpt lat="50.22331" lon="4.9079">
        <ele>144</ele>
        <time>2025-04-05T11:05:45Z</time>
      </trkpt>
      <trkpt lat="50.22329" lon="4.90799">
        <ele>143.4</ele>
        <time>2025-04-05T11:05:46Z</time>
      </trkpt>
      <trkpt lat="50.22327" lon="4.9081">
        <ele>143</ele>
        <time>2025-04-05T11:05:47Z</time>
      </trkpt>
      <trkpt lat="50.22325" lon="4.90821">
        <ele>142.6</ele>
        <time>2025-04-05T11:05:48Z</time>
      </trkpt>
      <trkpt lat="50.22326" lon="4.90831">
        <ele>142.2</ele>
        <time>2025-04-05T11:05:49Z</time>
      </trkpt>
      <trkpt lat="50.22329" lon="4.90841">
        <ele>141.6</ele>
        <time>2025-04-05T11:05:50Z</time>
      </trkpt>
      <trkpt lat="50.22335" lon="4.90848">
        <ele>141</ele>
        <time>2025-04-05T11:05:51Z</time>
      </trkpt>
      <trkpt lat="50.2234" lon="4.90853">
        <ele>140.4</ele>
        <time>2025-04-05T11:05:52Z</time>
      </trkpt>
      <trkpt lat="50.22347" lon="4.90856">
        <ele>139.8</ele>
        <time>2025-04-05T11:05:53Z</time>
      </trkpt>
      <trkpt lat="50.22354" lon="4.9086">
        <ele>139.2</ele>
        <time>2025-04-05T11:05:54Z</time>
      </trkpt>
      <trkpt lat="50.22361" lon="4.90863">
        <ele>138.6</ele>
        <time>2025-04-05T11:05:55Z</time>
      </trkpt>
      <trkpt lat="50.22367" lon="4.90866">
        <ele>138</ele>
        <time>2025-04-05T11:05:56Z</time>
      </trkpt>
      <trkpt lat="50.22373" lon="4.90868">
        <ele>137.6</ele>
        <time>2025-04-05T11:05:57Z</time>
      </trkpt>
      <trkpt lat="50.2238" lon="4.9087">
        <ele>137</ele>
        <time>2025-04-05T11:05:58Z</time>
      </trkpt>
      <trkpt lat="50.22386" lon="4.90872">
        <ele>136.6</ele>
        <time>2025-04-05T11:05:59Z</time>
      </trkpt>
      <trkpt lat="50.2239" lon="4.90874">
        <ele>136.2</ele>
        <time>2025-04-05T11:06:00Z</time>
      </trkpt>
      <trkpt lat="50.22393" lon="4.90874">
        <ele>135.6</ele>
        <time>2025-04-05T11:06:01Z</time>
      </trkpt>
      <trkpt lat="50.22399" lon="4.90876">
        <ele>135</ele>
        <time>2025-04-05T11:06:02Z</time>
      </trkpt>
      <trkpt lat="50.2241" lon="4.90878">
        <ele>134.2</ele>
        <time>2025-04-05T11:06:03Z</time>
      </trkpt>
      <trkpt lat="50.22419" lon="4.9088">
        <ele>133.6</ele>
        <time>2025-04-05T11:06:04Z</time>
      </trkpt>
      <trkpt lat="50.22427" lon="4.90882">
        <ele>133</ele>
        <time>2025-04-05T11:06:05Z</time>
      </trkpt>
      <trkpt lat="50.22434" lon="4.90884">
        <ele>132.4</ele>
        <time>2025-04-05T11:06:06Z</time>
      </trkpt>
      <trkpt lat="50.2244" lon="4.90886">
        <ele>131.8</ele>
        <time>2025-04-05T11:06:07Z</time>
      </trkpt>
      <trkpt lat="50.22446" lon="4.90887">
        <ele>131.2</ele>
        <time>2025-04-05T11:06:08Z</time>
      </trkpt>
      <trkpt lat="50.22453" lon="4.90889">
        <ele>130.6</ele>
        <time>2025-04-05T11:06:09Z</time>
      </trkpt>
      <trkpt lat="50.22458" lon="4.9089">
        <ele>130</ele>
        <time>2025-04-05T11:06:10Z</time>
      </trkpt>
      <trkpt lat="50.22464" lon="4.90891">
        <ele>129.4</ele>
        <time>2025-04-05T11:06:11Z</time>
      </trkpt>
      <trkpt lat="50.2247" lon="4.90892">
        <ele>129</ele>
        <time>2025-04-05T11:06:12Z</time>
      </trkpt>
      <trkpt lat="50.22476" lon="4.90893">
        <ele>128.4</ele>
        <time>2025-04-05T11:06:13Z</time>
      </trkpt>
      <trkpt lat="50.22482" lon="4.90894">
        <ele>128</ele>
        <time>2025-04-05T11:06:14Z</time>
      </trkpt>
      <trkpt lat="50.22488" lon="4.90895">
        <ele>127.4</ele>
        <time>2025-04-05T11:06:15Z</time>
      </trkpt>
      <trkpt lat="50.22493" lon="4.90897">
        <ele>126.8</ele>
        <time>2025-04-05T11:06:16Z</time>
      </trkpt>
      <trkpt lat="50.22499" lon="4.90898">
        <ele>126.4</ele>
        <time>2025-04-05T11:06:17Z</time>
      </trkpt>
      <trkpt lat="50.22504" lon="4.90899">
        <ele>125.8</ele>
        <time>2025-04-05T11:06:18Z</time>
      </trkpt>
      <trkpt lat="50.22508" lon="4.909">
        <ele>125.2</ele>
        <time>2025-04-05T11:06:19Z</time>
      </trkpt>
      <trkpt lat="50.22514" lon="4.90901">
        <ele>124.6</ele>
        <time>2025-04-05T11:06:20Z</time>
      </trkpt>
      <trkpt lat="50.22519" lon="4.90902">
        <ele>124.2</ele>
        <time>2025-04-05T11:06:21Z</time>
      </trkpt>
      <trkpt lat="50.22525" lon="4.90903">
        <ele>123.6</ele>
        <time>2025-04-05T11:06:22Z</time>
      </trkpt>
      <trkpt lat="50.2253" lon="4.90904">
        <ele>123.2</ele>
        <time>2025-04-05T11:06:23Z</time>
      </trkpt>
      <trkpt lat="50.22534" lon="4.90905">
        <ele>122.8</ele>
        <time>2025-04-05T11:06:24Z</time>
      </trkpt>
      <trkpt lat="50.22538" lon="4.90904">
        <ele>122.2</ele>
        <time>2025-04-05T11:06:25Z</time>
      </trkpt>
      <trkpt lat="50.22543" lon="4.90904">
        <ele>121.6</ele>
        <time>2025-04-05T11:06:26Z</time>
      </trkpt>
      <trkpt lat="50.22548" lon="4.90903">
        <ele>121</ele>
        <time>2025-04-05T11:06:27Z</time>
      </trkpt>
      <trkpt lat="50.22552" lon="4.90901">
        <ele>120.4</ele>
        <time>2025-04-05T11:06:28Z</time>
      </trkpt>
      <trkpt lat="50.22557" lon="4.90897">
        <ele>119.8</ele>
        <time>2025-04-05T11:06:29Z</time>
      </trkpt>
      <trkpt lat="50.22562" lon="4.90892">
        <ele>119.2</ele>
        <time>2025-04-05T11:06:30Z</time>
      </trkpt>
      <trkpt lat="50.22567" lon="4.90886">
        <ele>118.6</ele>
        <time>2025-04-05T11:06:31Z</time>
      </trkpt>
      <trkpt lat="50.22572" lon="4.90881">
        <ele>117.8</ele>
        <time>2025-04-05T11:06:32Z</time>
      </trkpt>
      <trkpt lat="50.22576" lon="4.90875">
        <ele>117.2</ele>
        <time>2025-04-05T11:06:33Z</time>
      </trkpt>
      <trkpt lat="50.22582" lon="4.90868">
        <ele>116.6</ele>
        <time>2025-04-05T11:06:34Z</time>
      </trkpt>
      <trkpt lat="50.22586" lon="4.90861">
        <ele>115.8</ele>
        <time>2025-04-05T11:06:35Z</time>
      </trkpt>
      <trkpt lat="50.22591" lon="4.90854">
        <ele>115.2</ele>
        <time>2025-04-05T11:06:36Z</time>
      </trkpt>
      <trkpt lat="50.22595" lon="4.90847">
        <ele>114.4</ele>
        <time>2025-04-05T11:06:37Z</time>
      </trkpt>
      <trkpt lat="50.22598" lon="4.90842">
        <ele>113.8</ele>
        <time>2025-04-05T11:06:38Z</time>
      </trkpt>
      <trkpt lat="50.22602" lon="4.90835">
        <ele>113.2</ele>
        <time>2025-04-05T11:06:39Z</time>
      </trkpt>
      <trkpt lat="50.22606" lon="4.90829">
        <ele>112.4</ele>
        <time>2025-04-05T11:06:40Z</time>
      </trkpt>
      <trkpt lat="50.22609" lon="4.90822">
        <ele>111.8</ele>
        <time>2025-04-05T11:06:41Z</time>
      </trkpt>
      <trkpt lat="50.22614" lon="4.90813">
        <ele>111</ele>
        <time>2025-04-05T11:06:42Z</time>
      </trkpt>
      <trkpt lat="50.22618" lon="4.90803">
        <ele>110.4</ele>
        <time>2025-04-05T11:06:43Z</time>
      </trkpt>
      <trkpt lat="50.22622" lon="4.90793">
        <ele>109.8</ele>
        <time>2025-04-05T11:06:44Z</time>
      </trkpt>
      <trkpt lat="50.22625" lon="4.90784">
        <ele>109.2</ele>
        <time>2025-04-05T11:06:45Z</time>
      </trkpt>
      <trkpt lat="50.22628" lon="4.90776">
        <ele>108.4</ele>
        <time>2025-04-05T11:06:46Z</time>
      </trkpt>
      <trkpt lat="50.22631" lon="4.90769">
        <ele>107.8</ele>
        <time>2025-04-05T11:06:47Z</time>
      </trkpt>
      <trkpt lat="50.22633" lon="4.90762">
        <ele>107.2</ele>
        <time>2025-04-05T11:06:48Z</time>
      </trkpt>
      <trkpt lat="50.22636" lon="4.90754">
        <ele>106.8</ele>
        <time>2025-04-05T11:06:49Z</time>
      </trkpt>
      <trkpt lat="50.22639" lon="4.90745">
        <ele>106.4</ele>
        <time>2025-04-05T11:06:50Z</time>
      </trkpt>
      <trkpt lat="50.22641" lon="4.90736">
        <ele>105.8</ele>
        <time>2025-04-05T11:06:51Z</time>
      </trkpt>
      <trkpt lat="50.22644" lon="4.90727">
        <ele>105.4</ele>
        <time>2025-04-05T11:06:52Z</time>
      </trkpt>
      <trkpt lat="50.22646" lon="4.90719">
        <ele>105.2</ele>
        <time>2025-04-05T11:06:53Z</time>
      </trkpt>
      <trkpt lat="50.22649" lon="4.90712">
        <ele>104.8</ele>
        <time>2025-04-05T11:06:54Z</time>
      </trkpt>
      <trkpt lat="50.22652" lon="4.90707">
        <ele>104.6</ele>
        <time>2025-04-05T11:06:55Z</time>
      </trkpt>
      <trkpt lat="50.22655" lon="4.90703">
        <ele>104.2</ele>
        <time>2025-04-05T11:06:56Z</time>
      </trkpt>
      <trkpt lat="50.22658" lon="4.90701">
        <ele>104</ele>
        <time>2025-04-05T11:06:57Z</time>
      </trkpt>
      <trkpt lat="50.22662" lon="4.90698">
        <ele>103.8</ele>
        <time>2025-04-05T11:06:58Z</time>
      </trkpt>
      <trkpt lat="50.22666" lon="4.90697">
        <ele>103.4</ele>
        <time>2025-04-05T11:06:59Z</time>
      </trkpt>
      <trkpt lat="50.2267" lon="4.90696">
        <ele>103</ele>
        <time>2025-04-05T11:07:00Z</time>
      </trkpt>
      <trkpt lat="50.22674" lon="4.90696">
        <ele>102.8</ele>
        <time>2025-04-05T11:07:01Z</time>
      </trkpt>
      <trkpt lat="50.22678" lon="4.90698">
        <ele>102.4</ele>
        <time>2025-04-05T11:07:02Z</time>
      </trkpt>
      <trkpt lat="50.22681" lon="4.90703">
        <ele>102</ele>
        <time>2025-04-05T11:07:03Z</time>
      </trkpt>
      <trkpt lat="50.22684" lon="4.90709">
        <ele>101.6</ele>
        <time>2025-04-05T11:07:04Z</time>
      </trkpt>
      <trkpt lat="50.22686" lon="4.90716">
        <ele>101</ele>
        <time>2025-04-05T11:07:05Z</time>
      </trkpt>
      <trkpt lat="50.22688" lon="4.90724">
        <ele>100.6</ele>
        <time>2025-04-05T11:07:06Z</time>
      </trkpt>
      <trkpt lat="50.22689" lon="4.90732">
        <ele>100.2</ele>
        <time>2025-04-05T11:07:07Z</time>
      </trkpt>
      <trkpt lat="50.22691" lon="4.90741">
        <ele>99.6</ele>
        <time>2025-04-05T11:07:08Z</time>
      </trkpt>
      <trkpt lat="50.22693" lon="4.90749">
        <ele>99.2</ele>
        <time>2025-04-05T11:07:09Z</time>
      </trkpt>
      <trkpt lat="50.22695" lon="4.90758">
        <ele>98.6</ele>
        <time>2025-04-05T11:07:10Z</time>
      </trkpt>
      <trkpt lat="50.22696" lon="4.90766">
        <ele>98.2</ele>
        <time>2025-04-05T11:07:11Z</time>
      </trkpt>
      <trkpt lat="50.22697" lon="4.90774">
        <ele>97.6</ele>
        <time>2025-04-05T11:07:12Z</time>
      </trkpt>
      <trkpt lat="50.22699" lon="4.90783">
        <ele>97</ele>
        <time>2025-04-05T11:07:13Z</time>
      </trkpt>
      <trkpt lat="50.22701" lon="4.90791">
        <ele>96.6</ele>
        <time>2025-04-05T11:07:14Z</time>
      </trkpt>
      <trkpt lat="50.22702" lon="4.90798">
        <ele>96</ele>
        <time>2025-04-05T11:07:15Z</time>
      </trkpt>
      <trkpt lat="50.22704" lon="4.90804">
        <ele>95.6</ele>
        <time>2025-04-05T11:07:16Z</time>
      </trkpt>
      <trkpt lat="50.22706" lon="4.90811">
        <ele>95.2</ele>
        <time>2025-04-05T11:07:17Z</time>
      </trkpt>
      <trkpt lat="50.22708" lon="4.90817">
        <ele>94.8</ele>
        <time>2025-04-05T11:07:18Z</time>
      </trkpt>
      <trkpt lat="50.2271" lon="4.90824">
        <ele>94.4</ele>
        <time>2025-04-05T11:07:19Z</time>
      </trkpt>
      <trkpt lat="50.22712" lon="4.9083">
        <ele>93.8</ele>
        <time>2025-04-05T11:07:20Z</time>
      </trkpt>
      <trkpt lat="50.22713" lon="4.90835">
        <ele>93.4</ele>
        <time>2025-04-05T11:07:21Z</time>
      </trkpt>
      <trkpt lat="50.22714" lon="4.9084">
        <ele>93</ele>
        <time>2025-04-05T11:07:22Z</time>
      </trkpt>
      <trkpt lat="50.22715" lon="4.90845">
        <ele>92.4</ele>
        <time>2025-04-05T11:07:23Z</time>
      </trkpt>
      <trkpt lat="50.22717" lon="4.90847">
        <ele>92</ele>
        <time>2025-04-05T11:07:24Z</time>
      </trkpt>
      <trkpt lat="50.22718" lon="4.90852">
        <ele>91.6</ele>
        <time>2025-04-05T11:07:25Z</time>
      </trkpt>
      <trkpt lat="50.2272" lon="4.90857">
        <ele>91.2</ele>
        <time>2025-04-05T11:07:26Z</time>
      </trkpt>
      <trkpt lat="50.22722" lon="4.90863">
        <ele>90.8</ele>
        <time>2025-04-05T11:07:27Z</time>
      </trkpt>
      <trkpt lat="50.22724" lon="4.90869">
        <ele>90.4</ele>
        <time>2025-04-05T11:07:28Z</time>
      </trkpt>
      <trkpt lat="50.22726" lon="4.90874">
        <ele>90</ele>
        <time>2025-04-05T11:07:29Z</time>
      </trkpt>
      <trkpt lat="50.22727" lon="4.90879">
        <ele>89.8</ele>
        <time>2025-04-05T11:07:30Z</time>
      </trkpt>
      <trkpt lat="50.22727" lon="4.90883">
        <ele>89.4</ele>
        <time>2025-04-05T11:07:31Z</time>
      </trkpt>
      <trkpt lat="50.22727" lon="4.90885">
        <ele>89.2</ele>
        <time>2025-04-05T11:07:32Z</time>
      </trkpt>
      <trkpt lat="50.22728" lon="4.90887">
        <ele>88.8</ele>
        <time>2025-04-05T11:07:33Z</time>
      </trkpt>
      <trkpt lat="50.22728" lon="4.90891">
        <ele>88.6</ele>
        <time>2025-04-05T11:07:34Z</time>
      </trkpt>
      <trkpt lat="50.22729" lon="4.90894">
        <ele>88.4</ele>
        <time>2025-04-05T11:07:35Z</time>
      </trkpt>
      <trkpt lat="50.22729" lon="4.90895">
        <ele>88.2</ele>
        <time>2025-04-05T11:07:36Z</time>
      </trkpt>
      <trkpt lat="50.2273" lon="4.90896">
        <ele>88.2</ele>
        <time>2025-04-05T11:07:37Z</time>
      </trkpt>
      <trkpt lat="50.2273" lon="4.90896">
        <ele>88</ele>
        <time>2025-04-05T11:07:38Z</time>
      </trkpt>
      <trkpt lat="50.2273" lon="4.90896">
        <ele>88</ele>
        <time>2025-04-05T11:07:39Z</time>
      </trkpt>
      <trkpt lat="50.2273" lon="4.90896">
        <ele>88</ele>
        <time>2025-04-05T11:07:40Z</time>
      </trkpt>
      <trkpt lat="50.2273" lon="4.90896">
        <ele>87.8</ele>
        <time>2025-04-05T11:07:41Z</time>
      </trkpt>
      <trkpt lat="50.2273" lon="4.90896">
        <ele>87.8</ele>
        <time>2025-04-05T11:07:42Z</time>
      </trkpt>
      <trkpt lat="50.22729" lon="4.90896">
        <ele>87.8</ele>
        <time>2025-04-05T11:07:43Z</time>
      </trkpt>
      <trkpt lat="50.22736" lon="4.90892">
        <ele>87.8</ele>
        <time>2025-04-05T11:11:07Z</time>
      </trkpt>
      <trkpt lat="50.22737" lon="4.90889">
        <ele>87.8</ele>
        <time>2025-04-05T11:11:08Z</time>
      </trkpt>
      <trkpt lat="50.22737" lon="4.90886">
        <ele>87.8</ele>
        <time>2025-04-05T11:11:09Z</time>
      </trkpt>
      <trkpt lat="50.22737" lon="4.90882">
        <ele>87.6</ele>
        <time>2025-04-05T11:11:10Z</time>
      </trkpt>
      <trkpt lat="50.22738" lon="4.90878">
        <ele>87.6</ele>
        <time>2025-04-05T11:11:11Z</time>
      </trkpt>
      <trkpt lat="50.22738" lon="4.90874">
        <ele>87.6</ele>
        <time>2025-04-05T11:11:12Z</time>
      </trkpt>
      <trkpt lat="50.22739" lon="4.90869">
        <ele>87.6</ele>
        <time>2025-04-05T11:11:13Z</time>
      </trkpt>
      <trkpt lat="50.2274" lon="4.90863">
        <ele>87.4</ele>
        <time>2025-04-05T11:11:14Z</time>
      </trkpt>
      <trkpt lat="50.2274" lon="4.90858">
        <ele>87.4</ele>
        <time>2025-04-05T11:11:15Z</time>
      </trkpt>
      <trkpt lat="50.22741" lon="4.90853">
        <ele>87.2</ele>
        <time>2025-04-05T11:11:16Z</time>
      </trkpt>
      <trkpt lat="50.2274" lon="4.90847">
        <ele>87</ele>
        <time>2025-04-05T11:11:17Z</time>
      </trkpt>
      <trkpt lat="50.22739" lon="4.90841">
        <ele>86.8</ele>
        <time>2025-04-05T11:11:18Z</time>
      </trkpt>
      <trkpt lat="50.22739" lon="4.90835">
        <ele>86.6</ele>
        <time>2025-04-05T11:11:19Z</time>
      </trkpt>
      <trkpt lat="50.22738" lon="4.90828">
        <ele>86.4</ele>
        <time>2025-04-05T11:11:20Z</time>
      </trkpt>
      <trkpt lat="50.22738" lon="4.90821">
        <ele>86.2</ele>
        <time>2025-04-05T11:11:21Z</time>
      </trkpt>
      <trkpt lat="50.22737" lon="4.90814">
        <ele>86</ele>
        <time>2025-04-05T11:11:22Z</time>
      </trkpt>
      <trkpt lat="50.22735" lon="4.90807">
        <ele>85.8</ele>
        <time>2025-04-05T11:11:23Z</time>
      </trkpt>
      <trkpt lat="50.22735" lon="4.90797">
        <ele>85.4</ele>
        <time>2025-04-05T11:11:24Z</time>
      </trkpt>
      <trkpt lat="50.22735" lon="4.90788">
        <ele>85.2</ele>
        <time>2025-04-05T11:11:25Z</time>
      </trkpt>
      <trkpt lat="50.22736" lon="4.90778">
        <ele>85</ele>
        <time>2025-04-05T11:11:26Z</time>
      </trkpt>
      <trkpt lat="50.22736" lon="4.90767">
        <ele>84.6</ele>
        <time>2025-04-05T11:11:27Z</time>
      </trkpt>
      <trkpt lat="50.22736" lon="4.90755">
        <ele>84.4</ele>
        <time>2025-04-05T11:11:28Z</time>
      </trkpt>
      <trkpt lat="50.22736" lon="4.90745">
        <ele>84.2</ele>
        <time>2025-04-05T11:11:29Z</time>
      </trkpt>
      <trkpt lat="50.22735" lon="4.90735">
        <ele>83.8</ele>
        <time>2025-04-05T11:11:30Z</time>
      </trkpt>
      <trkpt lat="50.22734" lon="4.90724">
        <ele>83.4</ele>
        <time>2025-04-05T11:11:31Z</time>
      </trkpt>
      <trkpt lat="50.22734" lon="4.90713">
        <ele>83.2</ele>
        <time>2025-04-05T11:11:32Z</time>
      </trkpt>
      <trkpt lat="50.22733" lon="4.90702">
        <ele>82.8</ele>
        <time>2025-04-05T11:11:33Z</time>
      </trkpt>
      <trkpt lat="50.22731" lon="4.90692">
        <ele>82.4</ele>
        <time>2025-04-05T11:11:34Z</time>
      </trkpt>
      <trkpt lat="50.22731" lon="4.90682">
        <ele>82</ele>
        <time>2025-04-05T11:11:35Z</time>
      </trkpt>
      <trkpt lat="50.2273" lon="4.9067">
        <ele>81.6</ele>
        <time>2025-04-05T11:11:36Z</time>
      </trkpt>
      <trkpt lat="50.2273" lon="4.90659">
        <ele>81.2</ele>
        <time>2025-04-05T11:11:37Z</time>
      </trkpt>
      <trkpt lat="50.2273" lon="4.90648">
        <ele>81</ele>
        <time>2025-04-05T11:11:38Z</time>
      </trkpt>
      <trkpt lat="50.2273" lon="4.90634">
        <ele>80.6</ele>
        <time>2025-04-05T11:11:39Z</time>
      </trkpt>
      <trkpt lat="50.2273" lon="4.90621">
        <ele>80.4</ele>
        <time>2025-04-05T11:11:40Z</time>
      </trkpt>
      <trkpt lat="50.22729" lon="4.90608">
        <ele>80.2</ele>
        <time>2025-04-05T11:11:41Z</time>
      </trkpt>
      <trkpt lat="50.22727" lon="4.90597">
        <ele>80</ele>
        <time>2025-04-05T11:11:42Z</time>
      </trkpt>
      <trkpt lat="50.22725" lon="4.90586">
        <ele>80</ele>
        <time>2025-04-05T11:11:43Z</time>
      </trkpt>
      <trkpt lat="50.22722" lon="4.90578">
        <ele>79.8</ele>
        <time>2025-04-05T11:11:44Z</time>
      </trkpt>
      <trkpt lat="50.22717" lon="4.9057">
        <ele>79.6</ele>
        <time>2025-04-05T11:11:45Z</time>
      </trkpt>
      <trkpt lat="50.22713" lon="4.90562">
        <ele>79.6</ele>
        <time>2025-04-05T11:11:46Z</time>
      </trkpt>
      <trkpt lat="50.22708" lon="4.90555">
        <ele>79.6</ele>
        <time>2025-04-05T11:11:47Z</time>
      </trkpt>
      <trkpt lat="50.22703" lon="4.90548">
        <ele>79.6</ele>
        <time>2025-04-05T11:11:48Z</time>
      </trkpt>
      <trkpt lat="50.22699" lon="4.90543">
        <ele>79.6</ele>
        <time>2025-04-05T11:11:49Z</time>
      </trkpt>
      <trkpt lat="50.22693" lon="4.90537">
        <ele>79.6</ele>
        <time>2025-04-05T11:11:50Z</time>
      </trkpt>
      <trkpt lat="50.22687" lon="4.90531">
        <ele>79.6</ele>
        <time>2025-04-05T11:11:51Z</time>
      </trkpt>
      <trkpt lat="50.22682" lon="4.90527">
        <ele>79.6</ele>
        <time>2025-04-05T11:11:52Z</time>
      </trkpt>
      <trkpt lat="50.22675" lon="4.90523">
        <ele>79.6</ele>
        <time>2025-04-05T11:11:53Z</time>
      </trkpt>
      <trkpt lat="50.22669" lon="4.9052">
        <ele>79.6</ele>
        <time>2025-04-05T11:11:54Z</time>
      </trkpt>
      <trkpt lat="50.22663" lon="4.90518">
        <ele>79.6</ele>
        <time>2025-04-05T11:11:55Z</time>
      </trkpt>
      <trkpt lat="50.22656" lon="4.90514">
        <ele>79.6</ele>
        <time>2025-04-05T11:11:56Z</time>
      </trkpt>
      <trkpt lat="50.22649" lon="4.90511">
        <ele>79.6</ele>
        <time>2025-04-05T11:11:57Z</time>
      </trkpt>
      <trkpt lat="50.22643" lon="4.90509">
        <ele>79.8</ele>
        <time>2025-04-05T11:11:58Z</time>
      </trkpt>
      <trkpt lat="50.22637" lon="4.90506">
        <ele>79.8</ele>
        <time>2025-04-05T11:11:59Z</time>
      </trkpt>
      <trkpt lat="50.22632" lon="4.90503">
        <ele>80</ele>
        <time>2025-04-05T11:12:00Z</time>
      </trkpt>
      <trkpt lat="50.22625" lon="4.905">
        <ele>80</ele>
        <time>2025-04-05T11:12:01Z</time>
      </trkpt>
      <trkpt lat="50.22619" lon="4.90497">
        <ele>80.2</ele>
        <time>2025-04-05T11:12:02Z</time>
      </trkpt>
      <trkpt lat="50.22613" lon="4.90494">
        <ele>80.4</ele>
        <time>2025-04-05T11:12:03Z</time>
      </trkpt>
      <trkpt lat="50.22608" lon="4.90492">
        <ele>80.6</ele>
        <time>2025-04-05T11:12:04Z</time>
      </trkpt>
      <trkpt lat="50.22602" lon="4.90489">
        <ele>80.8</ele>
        <time>2025-04-05T11:12:05Z</time>
      </trkpt>
      <trkpt lat="50.22595" lon="4.90486">
        <ele>80.8</ele>
        <time>2025-04-05T11:12:06Z</time>
      </trkpt>
      <trkpt lat="50.22589" lon="4.90484">
        <ele>81</ele>
        <time>2025-04-05T11:12:07Z</time>
      </trkpt>
      <trkpt lat="50.22583" lon="4.90481">
        <ele>81.2</ele>
        <time>2025-04-05T11:12:08Z</time>
      </trkpt>
      <trkpt lat="50.22577" lon="4.90479">
        <ele>81.2</ele>
        <time>2025-04-05T11:12:09Z</time>
      </trkpt>
      <trkpt lat="50.22571" lon="4.90476">
        <ele>81.4</ele>
        <time>2025-04-05T11:12:10Z</time>
      </trkpt>
      <trkpt lat="50.22566" lon="4.90474">
        <ele>81.4</ele>
        <time>2025-04-05T11:12:11Z</time>
      </trkpt>
      <trkpt lat="50.2256" lon="4.90471">
        <ele>81.6</ele>
        <time>2025-04-05T11:12:12Z</time>
      </trkpt>
      <trkpt lat="50.22554" lon="4.90468">
        <ele>81.6</ele>
        <time>2025-04-05T11:12:13Z</time>
      </trkpt>
      <trkpt lat="50.22549" lon="4.90464">
        <ele>81.8</ele>
        <time>2025-04-05T11:12:14Z</time>
      </trkpt>
      <trkpt lat="50.22545" lon="4.90458">
        <ele>82</ele>
        <time>2025-04-05T11:12:15Z</time>
      </trkpt>
      <trkpt lat="50.22542" lon="4.90452">
        <ele>82</ele>
        <time>2025-04-05T11:12:16Z</time>
      </trkpt>
      <trkpt lat="50.2254" lon="4.90444">
        <ele>82</ele>
        <time>2025-04-05T11:12:17Z</time>
      </trkpt>
      <trkpt lat="50.22539" lon="4.90436">
        <ele>82</ele>
        <time>2025-04-05T11:12:18Z</time>
      </trkpt>
      <trkpt lat="50.22539" lon="4.9043">
        <ele>82.2</ele>
        <time>2025-04-05T11:12:19Z</time>
      </trkpt>
      <trkpt lat="50.2254" lon="4.90424">
        <ele>82.4</ele>
        <time>2025-04-05T11:12:20Z</time>
      </trkpt>
      <trkpt lat="50.22542" lon="4.90417">
        <ele>82.6</ele>
        <time>2025-04-05T11:12:21Z</time>
      </trkpt>
      <trkpt lat="50.22545" lon="4.9041">
        <ele>82.8</ele>
        <time>2025-04-05T11:12:22Z</time>
      </trkpt>
      <trkpt lat="50.22548" lon="4.90404">
        <ele>82.8</ele>
        <time>2025-04-05T11:12:23Z</time>
      </trkpt>
      <trkpt lat="50.22551" lon="4.90398">
        <ele>83</ele>
        <time>2025-04-05T11:12:24Z</time>
      </trkpt>
      <trkpt lat="50.22553" lon="4.90392">
        <ele>83</ele>
        <time>2025-04-05T11:12:25Z</time>
      </trkpt>
      <trkpt lat="50.22556" lon="4.90385">
        <ele>83</ele>
        <time>2025-04-05T11:12:26Z</time>
      </trkpt>
      <trkpt lat="50.22558" lon="4.90379">
        <ele>83.2</ele>
        <time>2025-04-05T11:12:27Z</time>
      </trkpt>
      <trkpt lat="50.22561" lon="4.90373">
        <ele>83.2</ele>
        <time>2025-04-05T11:12:28Z</time>
      </trkpt>
      <trkpt lat="50.22564" lon="4.90367">
        <ele>83.2</ele>
        <time>2025-04-05T11:12:29Z</time>
      </trkpt>
      <trkpt lat="50.22566" lon="4.90362">
        <ele>83.2</ele>
        <time>2025-04-05T11:12:30Z</time>
      </trkpt>
      <trkpt lat="50.22567" lon="4.90357">
        <ele>83.2</ele>
        <time>2025-04-05T11:12:31Z</time>
      </trkpt>
      <trkpt lat="50.2257" lon="4.90352">
        <ele>83</ele>
        <time>2025-04-05T11:12:32Z</time>
      </trkpt>
      <trkpt lat="50.22572" lon="4.90346">
        <ele>82.8</ele>
        <time>2025-04-05T11:12:33Z</time>
      </trkpt>
      <trkpt lat="50.22576" lon="4.90339">
        <ele>82.6</ele>
        <time>2025-04-05T11:12:34Z</time>
      </trkpt>
      <trkpt lat="50.22579" lon="4.90332">
        <ele>82.6</ele>
        <time>2025-04-05T11:12:35Z</time>
      </trkpt>
      <trkpt lat="50.22583" lon="4.90324">
        <ele>82.4</ele>
        <time>2025-04-05T11:12:36Z</time>
      </trkpt>
      <trkpt lat="50.22586" lon="4.90317">
        <ele>82.4</ele>
        <time>2025-04-05T11:12:37Z</time>
      </trkpt>
      <trkpt lat="50.2259" lon="4.9031">
        <ele>82.4</ele>
        <time>2025-04-05T11:12:38Z</time>
      </trkpt>
      <trkpt lat="50.22593" lon="4.90304">
        <ele>82.2</ele>
        <time>2025-04-05T11:12:39Z</time>
      </trkpt>
      <trkpt lat="50.22597" lon="4.90297">
        <ele>82.2</ele>
        <time>2025-04-05T11:12:40Z</time>
      </trkpt>
      <trkpt lat="50.22601" lon="4.9029">
        <ele>82.2</ele>
        <time>2025-04-05T11:12:41Z</time>
      </trkpt>
      <trkpt lat="50.22604" lon="4.90284">
        <ele>82.2</ele>
        <time>2025-04-05T11:12:42Z</time>
      </trkpt>
      <trkpt lat="50.22608" lon="4.90278">
        <ele>82</ele>
        <time>2025-04-05T11:12:43Z</time>
      </trkpt>
      <trkpt lat="50.22611" lon="4.90272">
        <ele>82</ele>
        <time>2025-04-05T11:12:44Z</time>
      </trkpt>
      <trkpt lat="50.22615" lon="4.90265">
        <ele>82</ele>
        <time>2025-04-05T11:12:45Z</time>
      </trkpt>
      <trkpt lat="50.22619" lon="4.90258">
        <ele>82</ele>
        <time>2025-04-05T11:12:46Z</time>
      </trkpt>
      <trkpt lat="50.22622" lon="4.90252">
        <ele>82</ele>
        <time>2025-04-05T11:12:47Z</time>
      </trkpt>
      <trkpt lat="50.22625" lon="4.90247">
        <ele>82</ele>
        <time>2025-04-05T11:12:48Z</time>
      </trkpt>
      <trkpt lat="50.22628" lon="4.9024">
        <ele>82</ele>
        <time>2025-04-05T11:12:49Z</time>
      </trkpt>
      <trkpt lat="50.22633" lon="4.90234">
        <ele>82</ele>
        <time>2025-04-05T11:12:50Z</time>
      </trkpt>
      <trkpt lat="50.22636" lon="4.90228">
        <ele>82</ele>
        <time>2025-04-05T11:12:51Z</time>
      </trkpt>
      <trkpt lat="50.22639" lon="4.90222">
        <ele>82</ele>
        <time>2025-04-05T11:12:52Z</time>
      </trkpt>
      <trkpt lat="50.22642" lon="4.90216">
        <ele>82</ele>
        <time>2025-04-05T11:12:53Z</time>
      </trkpt>
      <trkpt lat="50.22645" lon="4.90211">
        <ele>82</ele>
        <time>2025-04-05T11:12:54Z</time>
      </trkpt>
      <trkpt lat="50.2265" lon="4.90206">
        <ele>81.8</ele>
        <time>2025-04-05T11:12:55Z</time>
      </trkpt>
      <trkpt lat="50.22656" lon="4.902">
        <ele>81.8</ele>
        <time>2025-04-05T11:12:56Z</time>
      </trkpt>
      <trkpt lat="50.22661" lon="4.90196">
        <ele>81.8</ele>
        <time>2025-04-05T11:12:57Z</time>
      </trkpt>
      <trkpt lat="50.22665" lon="4.90192">
        <ele>81.8</ele>
        <time>2025-04-05T11:12:58Z</time>
      </trkpt>
      <trkpt lat="50.2267" lon="4.90188">
        <ele>82</ele>
        <time>2025-04-05T11:12:59Z</time>
      </trkpt>
      <trkpt lat="50.22675" lon="4.90184">
        <ele>82</ele>
        <time>2025-04-05T11:13:00Z</time>
      </trkpt>
      <trkpt lat="50.2268" lon="4.90178">
        <ele>82</ele>
        <time>2025-04-05T11:13:01Z</time>
      </trkpt>
      <trkpt lat="50.22688" lon="4.90172">
        <ele>82</ele>
        <time>2025-04-05T11:13:02Z</time>
      </trkpt>
      <trkpt lat="50.22697" lon="4.90166">
        <ele>82.2</ele>
        <time>2025-04-05T11:13:03Z</time>
      </trkpt>
      <trkpt lat="50.22703" lon="4.90162">
        <ele>82.2</ele>
        <time>2025-04-05T11:13:04Z</time>
      </trkpt>
      <trkpt lat="50.22708" lon="4.90158">
        <ele>82.2</ele>
        <time>2025-04-05T11:13:05Z</time>
      </trkpt>
      <trkpt lat="50.22713" lon="4.90155">
        <ele>82.4</ele>
        <time>2025-04-05T11:13:06Z</time>
      </trkpt>
      <trkpt lat="50.22718" lon="4.90152">
        <ele>82.4</ele>
        <time>2025-04-05T11:13:07Z</time>
      </trkpt>
      <trkpt lat="50.22725" lon="4.9015">
        <ele>82.4</ele>
        <time>2025-04-05T11:13:08Z</time>
      </trkpt>
      <trkpt lat="50.22731" lon="4.9015">
        <ele>82.6</ele>
        <time>2025-04-05T11:13:09Z</time>
      </trkpt>
      <trkpt lat="50.22736" lon="4.90151">
        <ele>82.6</ele>
        <time>2025-04-05T11:13:10Z</time>
      </trkpt>
      <trkpt lat="50.22742" lon="4.90149">
        <ele>82.6</ele>
        <time>2025-04-05T11:13:11Z</time>
      </trkpt>
      <trkpt lat="50.22746" lon="4.90146">
        <ele>82.6</ele>
        <time>2025-04-05T11:13:12Z</time>
      </trkpt>
      <trkpt lat="50.22749" lon="4.90142">
        <ele>82.8</ele>
        <time>2025-04-05T11:13:13Z</time>
      </trkpt>
      <trkpt lat="50.22752" lon="4.90139">
        <ele>82.8</ele>
        <time>2025-04-05T11:13:14Z</time>
      </trkpt>
      <trkpt lat="50.22755" lon="4.90135">
        <ele>83</ele>
        <time>2025-04-05T11:13:15Z</time>
      </trkpt>
      <trkpt lat="50.22759" lon="4.90132">
        <ele>83</ele>
        <time>2025-04-05T11:13:16Z</time>
      </trkpt>
      <trkpt lat="50.22764" lon="4.90127">
        <ele>83</ele>
        <time>2025-04-05T11:13:17Z</time>
      </trkpt>
      <trkpt lat="50.2277" lon="4.90121">
        <ele>83.2</ele>
        <time>2025-04-05T11:13:18Z</time>
      </trkpt>
      <trkpt lat="50.22777" lon="4.90116">
        <ele>83.2</ele>
        <time>2025-04-05T11:13:19Z</time>
      </trkpt>
      <trkpt lat="50.22783" lon="4.90112">
        <ele>83.2</ele>
        <time>2025-04-05T11:13:20Z</time>
      </trkpt>
      <trkpt lat="50.22787" lon="4.90109">
        <ele>83.4</ele>
        <time>2025-04-05T11:13:21Z</time>
      </trkpt>
      <trkpt lat="50.22792" lon="4.90108">
        <ele>83.4</ele>
        <time>2025-04-05T11:13:22Z</time>
      </trkpt>
      <trkpt lat="50.22796" lon="4.90106">
        <ele>83.4</ele>
        <time>2025-04-05T11:13:23Z</time>
      </trkpt>
      <trkpt lat="50.228" lon="4.90103">
        <ele>83.4</ele>
        <time>2025-04-05T11:13:24Z</time>
      </trkpt>
      <trkpt lat="50.22805" lon="4.90099">
        <ele>83.4</ele>
        <time>2025-04-05T11:13:25Z</time>
      </trkpt>
      <trkpt lat="50.2281" lon="4.90095">
        <ele>83.4</ele>
        <time>2025-04-05T11:13:26Z</time>
      </trkpt>
      <trkpt lat="50.22814" lon="4.90091">
        <ele>83.4</ele>
        <time>2025-04-05T11:13:27Z</time>
      </trkpt>
      <trkpt lat="50.22818" lon="4.90088">
        <ele>83.4</ele>
        <time>2025-04-05T11:13:28Z</time>
      </trkpt>
      <trkpt lat="50.22822" lon="4.90083">
        <ele>83.2</ele>
        <time>2025-04-05T11:13:29Z</time>
      </trkpt>
      <trkpt lat="50.22826" lon="4.90079">
        <ele>83.2</ele>
        <time>2025-04-05T11:13:30Z</time>
      </trkpt>
      <trkpt lat="50.22832" lon="4.90075">
        <ele>83.2</ele>
        <time>2025-04-05T11:13:31Z</time>
      </trkpt>
      <trkpt lat="50.22839" lon="4.90073">
        <ele>83</ele>
        <time>2025-04-05T11:13:32Z</time>
      </trkpt>
      <trkpt lat="50.22846" lon="4.9007">
        <ele>83</ele>
        <time>2025-04-05T11:13:33Z</time>
      </trkpt>
      <trkpt lat="50.22852" lon="4.90067">
        <ele>82.8</ele>
        <time>2025-04-05T11:13:34Z</time>
      </trkpt>
      <trkpt lat="50.22855" lon="4.90064">
        <ele>82.8</ele>
        <time>2025-04-05T11:13:35Z</time>
      </trkpt>
      <trkpt lat="50.22859" lon="4.9006">
        <ele>82.6</ele>
        <time>2025-04-05T11:13:36Z</time>
      </trkpt>
      <trkpt lat="50.22862" lon="4.90056">
        <ele>82.4</ele>
        <time>2025-04-05T11:13:37Z</time>
      </trkpt>
      <trkpt lat="50.22864" lon="4.90053">
        <ele>82.4</ele>
        <time>2025-04-05T11:13:38Z</time>
      </trkpt>
      <trkpt lat="50.22866" lon="4.9005">
        <ele>82.2</ele>
        <time>2025-04-05T11:13:39Z</time>
      </trkpt>
      <trkpt lat="50.22868" lon="4.90047">
        <ele>82</ele>
        <time>2025-04-05T11:13:40Z</time>
      </trkpt>
      <trkpt lat="50.22871" lon="4.90043">
        <ele>82</ele>
        <time>2025-04-05T11:13:41Z</time>
      </trkpt>
      <trkpt lat="50.22873" lon="4.9004">
        <ele>81.8</ele>
        <time>2025-04-05T11:13:42Z</time>
      </trkpt>
      <trkpt lat="50.22876" lon="4.90037">
        <ele>81.6</ele>
        <time>2025-04-05T11:13:43Z</time>
      </trkpt>
      <trkpt lat="50.2288" lon="4.90032">
        <ele>81.6</ele>
        <time>2025-04-05T11:13:44Z</time>
      </trkpt>
      <trkpt lat="50.22884" lon="4.90027">
        <ele>81.4</ele>
        <time>2025-04-05T11:13:45Z</time>
      </trkpt>
      <trkpt lat="50.22889" lon="4.90023">
        <ele>81.4</ele>
        <time>2025-04-05T11:13:46Z</time>
      </trkpt>
      <trkpt lat="50.22894" lon="4.90018">
        <ele>81.2</ele>
        <time>2025-04-05T11:13:47Z</time>
      </trkpt>
      <trkpt lat="50.22899" lon="4.90014">
        <ele>81.2</ele>
        <time>2025-04-05T11:13:48Z</time>
      </trkpt>
      <trkpt lat="50.22903" lon="4.9001">
        <ele>81.2</ele>
        <time>2025-04-05T11:13:49Z</time>
      </trkpt>
      <trkpt lat="50.22907" lon="4.90006">
        <ele>81.2</ele>
        <time>2025-04-05T11:13:50Z</time>
      </trkpt>
      <trkpt lat="50.22912" lon="4.90002">
        <ele>81.2</ele>
        <time>2025-04-05T11:13:51Z</time>
      </trkpt>
      <trkpt lat="50.22919" lon="4.89997">
        <ele>81</ele>
        <time>2025-04-05T11:13:52Z</time>
      </trkpt>
      <trkpt lat="50.22925" lon="4.89991">
        <ele>81</ele>
        <time>2025-04-05T11:13:53Z</time>
      </trkpt>
      <trkpt lat="50.22932" lon="4.89985">
        <ele>81</ele>
        <time>2025-04-05T11:13:54Z</time>
      </trkpt>
      <trkpt lat="50.22939" lon="4.89979">
        <ele>81</ele>
        <time>2025-04-05T11:13:55Z</time>
      </trkpt>
      <trkpt lat="50.22944" lon="4.89975">
        <ele>81</ele>
        <time>2025-04-05T11:13:56Z</time>
      </trkpt>
      <trkpt lat="50.22949" lon="4.89971">
        <ele>80.8</ele>
        <time>2025-04-05T11:13:57Z</time>
      </trkpt>
      <trkpt lat="50.22953" lon="4.89967">
        <ele>80.8</ele>
        <time>2025-04-05T11:13:58Z</time>
      </trkpt>
      <trkpt lat="50.22957" lon="4.89963">
        <ele>80.8</ele>
        <time>2025-04-05T11:13:59Z</time>
      </trkpt>
      <trkpt lat="50.2296" lon="4.89959">
        <ele>81</ele>
        <time>2025-04-05T11:14:00Z</time>
      </trkpt>
      <trkpt lat="50.22965" lon="4.89955">
        <ele>81</ele>
        <time>2025-04-05T11:14:01Z</time>
      </trkpt>
      <trkpt lat="50.2297" lon="4.89952">
        <ele>81</ele>
        <time>2025-04-05T11:14:02Z</time>
      </trkpt>
      <trkpt lat="50.22975" lon="4.89948">
        <ele>80.8</ele>
        <time>2025-04-05T11:14:03Z</time>
      </trkpt>
      <trkpt lat="50.22981" lon="4.89943">
        <ele>80.8</ele>
        <time>2025-04-05T11:14:04Z</time>
      </trkpt>
      <trkpt lat="50.22986" lon="4.89939">
        <ele>80.6</ele>
        <time>2025-04-05T11:14:05Z</time>
      </trkpt>
      <trkpt lat="50.22992" lon="4.89934">
        <ele>80.6</ele>
        <time>2025-04-05T11:14:06Z</time>
      </trkpt>
      <trkpt lat="50.23" lon="4.89929">
        <ele>80.6</ele>
        <time>2025-04-05T11:14:07Z</time>
      </trkpt>
      <trkpt lat="50.23006" lon="4.89927">
        <ele>80.8</ele>
        <time>2025-04-05T11:14:08Z</time>
      </trkpt>
      <trkpt lat="50.23011" lon="4.89927">
        <ele>80.8</ele>
        <time>2025-04-05T11:14:09Z</time>
      </trkpt>
      <trkpt lat="50.23018" lon="4.89927">
        <ele>80.8</ele>
        <time>2025-04-05T11:14:10Z</time>
      </trkpt>
      <trkpt lat="50.23025" lon="4.89929">
        <ele>81</ele>
        <time>2025-04-05T11:14:11Z</time>
      </trkpt>
      <trkpt lat="50.23031" lon="4.8993">
        <ele>81</ele>
        <time>2025-04-05T11:14:12Z</time>
      </trkpt>
      <trkpt lat="50.23035" lon="4.8993">
        <ele>81.2</ele>
        <time>2025-04-05T11:14:13Z</time>
      </trkpt>
      <trkpt lat="50.2304" lon="4.89932">
        <ele>81.2</ele>
        <time>2025-04-05T11:14:14Z</time>
      </trkpt>
      <trkpt lat="50.23044" lon="4.89934">
        <ele>81.2</ele>
        <time>2025-04-05T11:14:15Z</time>
      </trkpt>
      <trkpt lat="50.2305" lon="4.89934">
        <ele>81.2</ele>
        <time>2025-04-05T11:14:16Z</time>
      </trkpt>
      <trkpt lat="50.23058" lon="4.89933">
        <ele>81.2</ele>
        <time>2025-04-05T11:14:17Z</time>
      </trkpt>
      <trkpt lat="50.23065" lon="4.89932">
        <ele>81.2</ele>
        <time>2025-04-05T11:14:18Z</time>
      </trkpt>
      <trkpt lat="50.2307" lon="4.89932">
        <ele>81.2</ele>
        <time>2025-04-05T11:14:19Z</time>
      </trkpt>
      <trkpt lat="50.23077" lon="4.89931">
        <ele>81.2</ele>
        <time>2025-04-05T11:14:20Z</time>
      </trkpt>
      <trkpt lat="50.23085" lon="4.89929">
        <ele>81.2</ele>
        <time>2025-04-05T11:14:21Z</time>
      </trkpt>
      <trkpt lat="50.23092" lon="4.89927">
        <ele>81.4</ele>
        <time>2025-04-05T11:14:22Z</time>
      </trkpt>
      <trkpt lat="50.23097" lon="4.89927">
        <ele>81.4</ele>
        <time>2025-04-05T11:14:23Z</time>
      </trkpt>
      <trkpt lat="50.23102" lon="4.89928">
        <ele>81.4</ele>
        <time>2025-04-05T11:14:24Z</time>
      </trkpt>
      <trkpt lat="50.23108" lon="4.8993">
        <ele>81.4</ele>
        <time>2025-04-05T11:14:25Z</time>
      </trkpt>
      <trkpt lat="50.23115" lon="4.89933">
        <ele>81.4</ele>
        <time>2025-04-05T11:14:26Z</time>
      </trkpt>
      <trkpt lat="50.23122" lon="4.89936">
        <ele>81.4</ele>
        <time>2025-04-05T11:14:27Z</time>
      </trkpt>
      <trkpt lat="50.23128" lon="4.89937">
        <ele>81.4</ele>
        <time>2025-04-05T11:14:28Z</time>
      </trkpt>
      <trkpt lat="50.23132" lon="4.89938">
        <ele>81.4</ele>
        <time>2025-04-05T11:14:29Z</time>
      </trkpt>
      <trkpt lat="50.23135" lon="4.89939">
        <ele>81.6</ele>
        <time>2025-04-05T11:14:30Z</time>
      </trkpt>
      <trkpt lat="50.2314" lon="4.89942">
        <ele>81.6</ele>
        <time>2025-04-05T11:14:31Z</time>
      </trkpt>
      <trkpt lat="50.23145" lon="4.89949">
        <ele>81.8</ele>
        <time>2025-04-05T11:14:32Z</time>
      </trkpt>
      <trkpt lat="50.23151" lon="4.89957">
        <ele>82</ele>
        <time>2025-04-05T11:14:33Z</time>
      </trkpt>
      <trkpt lat="50.2316" lon="4.89963">
        <ele>82.2</ele>
        <time>2025-04-05T11:14:34Z</time>
      </trkpt>
      <trkpt lat="50.23166" lon="4.89967">
        <ele>82.4</ele>
        <time>2025-04-05T11:14:35Z</time>
      </trkpt>
      <trkpt lat="50.23168" lon="4.89971">
        <ele>82.8</ele>
        <time>2025-04-05T11:14:36Z</time>
      </trkpt>
      <trkpt lat="50.23171" lon="4.89974">
        <ele>83</ele>
        <time>2025-04-05T11:14:37Z</time>
      </trkpt>
      <trkpt lat="50.23175" lon="4.89976">
        <ele>83.2</ele>
        <time>2025-04-05T11:14:38Z</time>
      </trkpt>
      <trkpt lat="50.23179" lon="4.8998">
        <ele>83.4</ele>
        <time>2025-04-05T11:14:39Z</time>
      </trkpt>
      <trkpt lat="50.23183" lon="4.89985">
        <ele>83.6</ele>
        <time>2025-04-05T11:14:40Z</time>
      </trkpt>
      <trkpt lat="50.23188" lon="4.89991">
        <ele>83.8</ele>
        <time>2025-04-05T11:14:41Z</time>
      </trkpt>
      <trkpt lat="50.23192" lon="4.89996">
        <ele>84</ele>
        <time>2025-04-05T11:14:42Z</time>
      </trkpt>
      <trkpt lat="50.23194" lon="4.9">
        <ele>84.4</ele>
        <time>2025-04-05T11:14:43Z</time>
      </trkpt>
      <trkpt lat="50.23196" lon="4.90004">
        <ele>84.6</ele>
        <time>2025-04-05T11:14:44Z</time>
      </trkpt>
      <trkpt lat="50.23199" lon="4.90008">
        <ele>84.8</ele>
        <time>2025-04-05T11:14:45Z</time>
      </trkpt>
      <trkpt lat="50.23202" lon="4.90012">
        <ele>85</ele>
        <time>2025-04-05T11:14:46Z</time>
      </trkpt>
      <trkpt lat="50.23206" lon="4.90016">
        <ele>85.2</ele>
        <time>2025-04-05T11:14:47Z</time>
      </trkpt>
      <trkpt lat="50.23212" lon="4.9002">
        <ele>85.6</ele>
        <time>2025-04-05T11:14:48Z</time>
      </trkpt>
      <trkpt lat="50.23217" lon="4.90023">
        <ele>85.8</ele>
        <time>2025-04-05T11:14:49Z</time>
      </trkpt>
      <trkpt lat="50.23222" lon="4.90026">
        <ele>86</ele>
        <time>2025-04-05T11:14:50Z</time>
      </trkpt>
      <trkpt lat="50.23224" lon="4.90031">
        <ele>86.4</ele>
        <time>2025-04-05T11:14:51Z</time>
      </trkpt>
      <trkpt lat="50.23227" lon="4.90036">
        <ele>86.6</ele>
        <time>2025-04-05T11:14:52Z</time>
      </trkpt>
      <trkpt lat="50.23229" lon="4.9004">
        <ele>86.8</ele>
        <time>2025-04-05T11:14:53Z</time>
      </trkpt>
      <trkpt lat="50.23232" lon="4.90044">
        <ele>87</ele>
        <time>2025-04-05T11:14:54Z</time>
      </trkpt>
      <trkpt lat="50.23234" lon="4.90047">
        <ele>87.2</ele>
        <time>2025-04-05T11:14:55Z</time>
      </trkpt>
      <trkpt lat="50.23237" lon="4.90051">
        <ele>87.4</ele>
        <time>2025-04-05T11:14:56Z</time>
      </trkpt>
      <trkpt lat="50.2324" lon="4.90054">
        <ele>87.4</ele>
        <time>2025-04-05T11:14:57Z</time>
      </trkpt>
      <trkpt lat="50.23243" lon="4.90058">
        <ele>87.4</ele>
        <time>2025-04-05T11:14:58Z</time>
      </trkpt>
      <trkpt lat="50.23246" lon="4.90061">
        <ele>87.6</ele>
        <time>2025-04-05T11:14:59Z</time>
      </trkpt>
      <trkpt lat="50.2325" lon="4.90065">
        <ele>87.6</ele>
        <time>2025-04-05T11:15:00Z</time>
      </trkpt>
      <trkpt lat="50.23254" lon="4.90069">
        <ele>87.6</ele>
        <time>2025-04-05T11:15:01Z</time>
      </trkpt>
      <trkpt lat="50.23257" lon="4.90073">
        <ele>87.4</ele>
        <time>2025-04-05T11:15:02Z</time>
      </trkpt>
      <trkpt lat="50.23261" lon="4.90077">
        <ele>87.4</ele>
        <time>2025-04-05T11:15:03Z</time>
      </trkpt>
      <trkpt lat="50.23265" lon="4.90081">
        <ele>87.2</ele>
        <time>2025-04-05T11:15:04Z</time>
      </trkpt>
      <trkpt lat="50.23269" lon="4.90085">
        <ele>87</ele>
        <time>2025-04-05T11:15:05Z</time>
      </trkpt>
      <trkpt lat="50.23274" lon="4.9009">
        <ele>87</ele>
        <time>2025-04-05T11:15:06Z</time>
      </trkpt>
      <trkpt lat="50.23279" lon="4.90095">
        <ele>86.8</ele>
        <time>2025-04-05T11:15:07Z</time>
      </trkpt>
      <trkpt lat="50.23284" lon="4.90099">
        <ele>86.6</ele>
        <time>2025-04-05T11:15:08Z</time>
      </trkpt>
      <trkpt lat="50.23289" lon="4.90104">
        <ele>86.4</ele>
        <time>2025-04-05T11:15:09Z</time>
      </trkpt>
      <trkpt lat="50.23294" lon="4.90108">
        <ele>86.2</ele>
        <time>2025-04-05T11:15:10Z</time>
      </trkpt>
      <trkpt lat="50.23298" lon="4.90113">
        <ele>86.2</ele>
        <time>2025-04-05T11:15:11Z</time>
      </trkpt>
      <trkpt lat="50.23302" lon="4.90118">
        <ele>86</ele>
        <time>2025-04-05T11:15:12Z</time>
      </trkpt>
      <trkpt lat="50.23306" lon="4.90123">
        <ele>85.8</ele>
        <time>2025-04-05T11:15:13Z</time>
      </trkpt>
      <trkpt lat="50.2331" lon="4.90129">
        <ele>85.8</ele>
        <time>2025-04-05T11:15:14Z</time>
      </trkpt>
      <trkpt lat="50.23315" lon="4.90136">
        <ele>85.6</ele>
        <time>2025-04-05T11:15:15Z</time>
      </trkpt>
      <trkpt lat="50.2332" lon="4.90142">
        <ele>85.2</ele>
        <time>2025-04-05T11:15:16Z</time>
      </trkpt>
      <trkpt lat="50.23324" lon="4.90149">
        <ele>84.8</ele>
        <time>2025-04-05T11:15:17Z</time>
      </trkpt>
      <trkpt lat="50.23329" lon="4.90155">
        <ele>84.4</ele>
        <time>2025-04-05T11:15:18Z</time>
      </trkpt>
      <trkpt lat="50.23333" lon="4.90161">
        <ele>84.2</ele>
        <time>2025-04-05T11:15:19Z</time>
      </trkpt>
      <trkpt lat="50.23338" lon="4.90167">
        <ele>84</ele>
        <time>2025-04-05T11:15:20Z</time>
      </trkpt>
      <trkpt lat="50.23342" lon="4.90173">
        <ele>84</ele>
        <time>2025-04-05T11:15:21Z</time>
      </trkpt>
      <trkpt lat="50.23347" lon="4.9018">
        <ele>83.8</ele>
        <time>2025-04-05T11:15:22Z</time>
      </trkpt>
      <trkpt lat="50.2335" lon="4.90187">
        <ele>83.4</ele>
        <time>2025-04-05T11:15:23Z</time>
      </trkpt>
      <trkpt lat="50.23354" lon="4.90194">
        <ele>83.2</ele>
        <time>2025-04-05T11:15:24Z</time>
      </trkpt>
      <trkpt lat="50.23358" lon="4.90203">
        <ele>83</ele>
        <time>2025-04-05T11:15:25Z</time>
      </trkpt>
      <trkpt lat="50.23363" lon="4.90211">
        <ele>82.8</ele>
        <time>2025-04-05T11:15:26Z</time>
      </trkpt>
      <trkpt lat="50.23368" lon="4.90218">
        <ele>82.6</ele>
        <time>2025-04-05T11:15:27Z</time>
      </trkpt>
      <trkpt lat="50.23373" lon="4.90224">
        <ele>82.4</ele>
        <time>2025-04-05T11:15:28Z</time>
      </trkpt>
      <trkpt lat="50.23378" lon="4.90231">
        <ele>82.2</ele>
        <time>2025-04-05T11:15:29Z</time>
      </trkpt>
      <trkpt lat="50.23383" lon="4.90237">
        <ele>82</ele>
        <time>2025-04-05T11:15:30Z</time>
      </trkpt>
      <trkpt lat="50.23387" lon="4.90244">
        <ele>82</ele>
        <time>2025-04-05T11:15:31Z</time>
      </trkpt>
      <trkpt lat="50.23391" lon="4.90251">
        <ele>82</ele>
        <time>2025-04-05T11:15:32Z</time>
      </trkpt>
      <trkpt lat="50.23396" lon="4.90258">
        <ele>81.8</ele>
        <time>2025-04-05T11:15:33Z</time>
      </trkpt>
      <trkpt lat="50.23401" lon="4.90265">
        <ele>81.8</ele>
        <time>2025-04-05T11:15:34Z</time>
      </trkpt>
      <trkpt lat="50.23406" lon="4.90272">
        <ele>81.6</ele>
        <time>2025-04-05T11:15:35Z</time>
      </trkpt>
      <trkpt lat="50.2341" lon="4.90278">
        <ele>81.6</ele>
        <time>2025-04-05T11:15:36Z</time>
      </trkpt>
      <trkpt lat="50.23413" lon="4.90285">
        <ele>81.4</ele>
        <time>2025-04-05T11:15:37Z</time>
      </trkpt>
      <trkpt lat="50.23416" lon="4.90293">
        <ele>81.4</ele>
        <time>2025-04-05T11:15:38Z</time>
      </trkpt>
      <trkpt lat="50.23418" lon="4.90301">
        <ele>81.2</ele>
        <time>2025-04-05T11:15:39Z</time>
      </trkpt>
      <trkpt lat="50.23421" lon="4.90308">
        <ele>81.2</ele>
        <time>2025-04-05T11:15:40Z</time>
      </trkpt>
      <trkpt lat="50.23424" lon="4.90315">
        <ele>81</ele>
        <time>2025-04-05T11:15:41Z</time>
      </trkpt>
      <trkpt lat="50.23428" lon="4.90323">
        <ele>80.8</ele>
        <time>2025-04-05T11:15:42Z</time>
      </trkpt>
      <trkpt lat="50.23433" lon="4.90331">
        <ele>80.8</ele>
        <time>2025-04-05T11:15:43Z</time>
      </trkpt>
      <trkpt lat="50.23438" lon="4.90338">
        <ele>80.8</ele>
        <time>2025-04-05T11:15:44Z</time>
      </trkpt>
      <trkpt lat="50.23442" lon="4.90344">
        <ele>80.8</ele>
        <time>2025-04-05T11:15:45Z</time>
      </trkpt>
      <trkpt lat="50.23446" lon="4.90351">
        <ele>80.6</ele>
        <time>2025-04-05T11:15:46Z</time>
      </trkpt>
      <trkpt lat="50.23451" lon="4.90358">
        <ele>80.6</ele>
        <time>2025-04-05T11:15:47Z</time>
      </trkpt>
      <trkpt lat="50.23455" lon="4.90365">
        <ele>80.4</ele>
        <time>2025-04-05T11:15:48Z</time>
      </trkpt>
      <trkpt lat="50.2346" lon="4.90372">
        <ele>80.4</ele>
        <time>2025-04-05T11:15:49Z</time>
      </trkpt>
      <trkpt lat="50.23463" lon="4.90377">
        <ele>80.4</ele>
        <time>2025-04-05T11:15:50Z</time>
      </trkpt>
      <trkpt lat="50.23468" lon="4.90383">
        <ele>80.6</ele>
        <time>2025-04-05T11:15:51Z</time>
      </trkpt>
      <trkpt lat="50.23472" lon="4.9039">
        <ele>80.6</ele>
        <time>2025-04-05T11:15:52Z</time>
      </trkpt>
      <trkpt lat="50.23476" lon="4.90397">
        <ele>80.6</ele>
        <time>2025-04-05T11:15:53Z</time>
      </trkpt>
      <trkpt lat="50.23479" lon="4.90404">
        <ele>80.8</ele>
        <time>2025-04-05T11:15:54Z</time>
      </trkpt>
      <trkpt lat="50.23481" lon="4.90412">
        <ele>80.8</ele>
        <time>2025-04-05T11:15:55Z</time>
      </trkpt>
      <trkpt lat="50.23484" lon="4.9042">
        <ele>80.8</ele>
        <time>2025-04-05T11:15:56Z</time>
      </trkpt>
      <trkpt lat="50.23487" lon="4.90427">
        <ele>81</ele>
        <time>2025-04-05T11:15:57Z</time>
      </trkpt>
      <trkpt lat="50.2349" lon="4.90434">
        <ele>81</ele>
        <time>2025-04-05T11:15:58Z</time>
      </trkpt>
      <trkpt lat="50.23493" lon="4.90441">
        <ele>81.2</ele>
        <time>2025-04-05T11:15:59Z</time>
      </trkpt>
      <trkpt lat="50.23496" lon="4.90448">
        <ele>81.4</ele>
        <time>2025-04-05T11:16:00Z</time>
      </trkpt>
      <trkpt lat="50.23498" lon="4.90454">
        <ele>81.6</ele>
        <time>2025-04-05T11:16:01Z</time>
      </trkpt>
      <trkpt lat="50.235" lon="4.90461">
        <ele>81.6</ele>
        <time>2025-04-05T11:16:02Z</time>
      </trkpt>
      <trkpt lat="50.23502" lon="4.90469">
        <ele>81.6</ele>
        <time>2025-04-05T11:16:03Z</time>
      </trkpt>
      <trkpt lat="50.23505" lon="4.90477">
        <ele>81.6</ele>
        <time>2025-04-05T11:16:04Z</time>
      </trkpt>
      <trkpt lat="50.23507" lon="4.90484">
        <ele>81.6</ele>
        <time>2025-04-05T11:16:05Z</time>
      </trkpt>
      <trkpt lat="50.2351" lon="4.90492">
        <ele>81.6</ele>
        <time>2025-04-05T11:16:06Z</time>
      </trkpt>
      <trkpt lat="50.23513" lon="4.90499">
        <ele>81.6</ele>
        <time>2025-04-05T11:16:07Z</time>
      </trkpt>
      <trkpt lat="50.23516" lon="4.90505">
        <ele>81.6</ele>
        <time>2025-04-05T11:16:08Z</time>
      </trkpt>
      <trkpt lat="50.2352" lon="4.90513">
        <ele>81.4</ele>
        <time>2025-04-05T11:16:09Z</time>
      </trkpt>
      <trkpt lat="50.23525" lon="4.90521">
        <ele>81.4</ele>
        <time>2025-04-05T11:16:10Z</time>
      </trkpt>
      <trkpt lat="50.23528" lon="4.90528">
        <ele>81.4</ele>
        <time>2025-04-05T11:16:11Z</time>
      </trkpt>
      <trkpt lat="50.23531" lon="4.90534">
        <ele>81.4</ele>
        <time>2025-04-05T11:16:12Z</time>
      </trkpt>
      <trkpt lat="50.23534" lon="4.90541">
        <ele>81.4</ele>
        <time>2025-04-05T11:16:13Z</time>
      </trkpt>
      <trkpt lat="50.23538" lon="4.90548">
        <ele>81.4</ele>
        <time>2025-04-05T11:16:14Z</time>
      </trkpt>
      <trkpt lat="50.23542" lon="4.90554">
        <ele>81.2</ele>
        <time>2025-04-05T11:16:15Z</time>
      </trkpt>
      <trkpt lat="50.23547" lon="4.9056">
        <ele>81</ele>
        <time>2025-04-05T11:16:16Z</time>
      </trkpt>
      <trkpt lat="50.23551" lon="4.90566">
        <ele>81</ele>
        <time>2025-04-05T11:16:17Z</time>
      </trkpt>
      <trkpt lat="50.23556" lon="4.90572">
        <ele>80.8</ele>
        <time>2025-04-05T11:16:18Z</time>
      </trkpt>
      <trkpt lat="50.2356" lon="4.90578">
        <ele>80.8</ele>
        <time>2025-04-05T11:16:19Z</time>
      </trkpt>
      <trkpt lat="50.23564" lon="4.90584">
        <ele>80.8</ele>
        <time>2025-04-05T11:16:20Z</time>
      </trkpt>
      <trkpt lat="50.23568" lon="4.90591">
        <ele>80.6</ele>
        <time>2025-04-05T11:16:21Z</time>
      </trkpt>
      <trkpt lat="50.23571" lon="4.90599">
        <ele>80.4</ele>
        <time>2025-04-05T11:16:22Z</time>
      </trkpt>
      <trkpt lat="50.23574" lon="4.90606">
        <ele>80.4</ele>
        <time>2025-04-05T11:16:23Z</time>
      </trkpt>
      <trkpt lat="50.23578" lon="4.90613">
        <ele>80.2</ele>
        <time>2025-04-05T11:16:24Z</time>
      </trkpt>
      <trkpt lat="50.23582" lon="4.9062">
        <ele>80.2</ele>
        <time>2025-04-05T11:16:25Z</time>
      </trkpt>
      <trkpt lat="50.23586" lon="4.90627">
        <ele>80</ele>
        <time>2025-04-05T11:16:26Z</time>
      </trkpt>
      <trkpt lat="50.2359" lon="4.90634">
        <ele>80</ele>
        <time>2025-04-05T11:16:27Z</time>
      </trkpt>
      <trkpt lat="50.23594" lon="4.90641">
        <ele>80</ele>
        <time>2025-04-05T11:16:28Z</time>
      </trkpt>
      <trkpt lat="50.23597" lon="4.90648">
        <ele>79.8</ele>
        <time>2025-04-05T11:16:29Z</time>
      </trkpt>
      <trkpt lat="50.23601" lon="4.90655">
        <ele>79.8</ele>
        <time>2025-04-05T11:16:30Z</time>
      </trkpt>
      <trkpt lat="50.23604" lon="4.90661">
        <ele>79.6</ele>
        <time>2025-04-05T11:16:31Z</time>
      </trkpt>
      <trkpt lat="50.23608" lon="4.90666">
        <ele>79.6</ele>
        <time>2025-04-05T11:16:32Z</time>
      </trkpt>
      <trkpt lat="50.23611" lon="4.90671">
        <ele>79.4</ele>
        <time>2025-04-05T11:16:33Z</time>
      </trkpt>
      <trkpt lat="50.23615" lon="4.90677">
        <ele>79.4</ele>
        <time>2025-04-05T11:16:34Z</time>
      </trkpt>
      <trkpt lat="50.23618" lon="4.90683">
        <ele>79.2</ele>
        <time>2025-04-05T11:16:35Z</time>
      </trkpt>
      <trkpt lat="50.23623" lon="4.9069">
        <ele>79</ele>
        <time>2025-04-05T11:16:36Z</time>
      </trkpt>
      <trkpt lat="50.23627" lon="4.90698">
        <ele>79</ele>
        <time>2025-04-05T11:16:37Z</time>
      </trkpt>
      <trkpt lat="50.23631" lon="4.90704">
        <ele>79</ele>
        <time>2025-04-05T11:16:38Z</time>
      </trkpt>
      <trkpt lat="50.23634" lon="4.9071">
        <ele>79</ele>
        <time>2025-04-05T11:16:39Z</time>
      </trkpt>
      <trkpt lat="50.23638" lon="4.90717">
        <ele>79</ele>
        <time>2025-04-05T11:16:40Z</time>
      </trkpt>
      <trkpt lat="50.23642" lon="4.90723">
        <ele>79</ele>
        <time>2025-04-05T11:16:41Z</time>
      </trkpt>
      <trkpt lat="50.23647" lon="4.90729">
        <ele>79</ele>
        <time>2025-04-05T11:16:42Z</time>
      </trkpt>
      <trkpt lat="50.23651" lon="4.90735">
        <ele>79</ele>
        <time>2025-04-05T11:16:43Z</time>
      </trkpt>
      <trkpt lat="50.23655" lon="4.90742">
        <ele>79</ele>
        <time>2025-04-05T11:16:44Z</time>
      </trkpt>
      <trkpt lat="50.23659" lon="4.90748">
        <ele>79</ele>
        <time>2025-04-05T11:16:45Z</time>
      </trkpt>
      <trkpt lat="50.23663" lon="4.90754">
        <ele>79</ele>
        <time>2025-04-05T11:16:46Z</time>
      </trkpt>
      <trkpt lat="50.23666" lon="4.90759">
        <ele>79</ele>
        <time>2025-04-05T11:16:47Z</time>
      </trkpt>
      <trkpt lat="50.23669" lon="4.90765">
        <ele>79</ele>
        <time>2025-04-05T11:16:48Z</time>
      </trkpt>
      <trkpt lat="50.23673" lon="4.90771">
        <ele>79</ele>
        <time>2025-04-05T11:16:49Z</time>
      </trkpt>
      <trkpt lat="50.23677" lon="4.90777">
        <ele>79</ele>
        <time>2025-04-05T11:16:50Z</time>
      </trkpt>
      <trkpt lat="50.23681" lon="4.90782">
        <ele>79</ele>
        <time>2025-04-05T11:16:51Z</time>
      </trkpt>
      <trkpt lat="50.23684" lon="4.90788">
        <ele>79</ele>
        <time>2025-04-05T11:16:52Z</time>
      </trkpt>
      <trkpt lat="50.23687" lon="4.90794">
        <ele>79</ele>
        <time>2025-04-05T11:16:53Z</time>
      </trkpt>
      <trkpt lat="50.2369" lon="4.90799">
        <ele>79</ele>
        <time>2025-04-05T11:16:54Z</time>
      </trkpt>
      <trkpt lat="50.23693" lon="4.90805">
        <ele>79</ele>
        <time>2025-04-05T11:16:55Z</time>
      </trkpt>
      <trkpt lat="50.23697" lon="4.90811">
        <ele>79</ele>
        <time>2025-04-05T11:16:56Z</time>
      </trkpt>
      <trkpt lat="50.23701" lon="4.90817">
        <ele>79</ele>
        <time>2025-04-05T11:16:57Z</time>
      </trkpt>
      <trkpt lat="50.23705" lon="4.90824">
        <ele>78.8</ele>
        <time>2025-04-05T11:16:58Z</time>
      </trkpt>
      <trkpt lat="50.2371" lon="4.90831">
        <ele>78.8</ele>
        <time>2025-04-05T11:16:59Z</time>
      </trkpt>
      <trkpt lat="50.23713" lon="4.90838">
        <ele>78.8</ele>
        <time>2025-04-05T11:17:00Z</time>
      </trkpt>
      <trkpt lat="50.23716" lon="4.90845">
        <ele>78.6</ele>
        <time>2025-04-05T11:17:01Z</time>
      </trkpt>
      <trkpt lat="50.23719" lon="4.90851">
        <ele>78.6</ele>
        <time>2025-04-05T11:17:02Z</time>
      </trkpt>
      <trkpt lat="50.23724" lon="4.90857">
        <ele>78.6</ele>
        <time>2025-04-05T11:17:03Z</time>
      </trkpt>
      <trkpt lat="50.23726" lon="4.90864">
        <ele>78.8</ele>
        <time>2025-04-05T11:17:04Z</time>
      </trkpt>
      <trkpt lat="50.23729" lon="4.9087">
        <ele>78.8</ele>
        <time>2025-04-05T11:17:05Z</time>
      </trkpt>
      <trkpt lat="50.23732" lon="4.90876">
        <ele>78.8</ele>
        <time>2025-04-05T11:17:06Z</time>
      </trkpt>
      <trkpt lat="50.23736" lon="4.90882">
        <ele>78.8</ele>
        <time>2025-04-05T11:17:07Z</time>
      </trkpt>
      <trkpt lat="50.23741" lon="4.90888">
        <ele>78.8</ele>
        <time>2025-04-05T11:17:08Z</time>
      </trkpt>
      <trkpt lat="50.23745" lon="4.90894">
        <ele>78.8</ele>
        <time>2025-04-05T11:17:09Z</time>
      </trkpt>
      <trkpt lat="50.2375" lon="4.90901">
        <ele>78.8</ele>
        <time>2025-04-05T11:17:10Z</time>
      </trkpt>
      <trkpt lat="50.23753" lon="4.90908">
        <ele>79</ele>
        <time>2025-04-05T11:17:11Z</time>
      </trkpt>
      <trkpt lat="50.23758" lon="4.90914">
        <ele>79</ele>
        <time>2025-04-05T11:17:12Z</time>
      </trkpt>
      <trkpt lat="50.23762" lon="4.9092">
        <ele>79.2</ele>
        <time>2025-04-05T11:17:13Z</time>
      </trkpt>
      <trkpt lat="50.23766" lon="4.90926">
        <ele>79.2</ele>
        <time>2025-04-05T11:17:14Z</time>
      </trkpt>
      <trkpt lat="50.23769" lon="4.90931">
        <ele>79.4</ele>
        <time>2025-04-05T11:17:15Z</time>
      </trkpt>
      <trkpt lat="50.23772" lon="4.90936">
        <ele>79.4</ele>
        <time>2025-04-05T11:17:16Z</time>
      </trkpt>
      <trkpt lat="50.23776" lon="4.9094">
        <ele>79.4</ele>
        <time>2025-04-05T11:17:17Z</time>
      </trkpt>
      <trkpt lat="50.2378" lon="4.90944">
        <ele>79.6</ele>
        <time>2025-04-05T11:17:18Z</time>
      </trkpt>
      <trkpt lat="50.23784" lon="4.90948">
        <ele>79.6</ele>
        <time>2025-04-05T11:17:19Z</time>
      </trkpt>
      <trkpt lat="50.23787" lon="4.90952">
        <ele>79.8</ele>
        <time>2025-04-05T11:17:20Z</time>
      </trkpt>
      <trkpt lat="50.2379" lon="4.90957">
        <ele>79.8</ele>
        <time>2025-04-05T11:17:21Z</time>
      </trkpt>
      <trkpt lat="50.23794" lon="4.90962">
        <ele>80</ele>
        <time>2025-04-05T11:17:22Z</time>
      </trkpt>
      <trkpt lat="50.23797" lon="4.90967">
        <ele>80.4</ele>
        <time>2025-04-05T11:17:23Z</time>
      </trkpt>
      <trkpt lat="50.23798" lon="4.90972">
        <ele>80.6</ele>
        <time>2025-04-05T11:17:24Z</time>
      </trkpt>
      <trkpt lat="50.23801" lon="4.90978">
        <ele>80.6</ele>
        <time>2025-04-05T11:17:25Z</time>
      </trkpt>
      <trkpt lat="50.23803" lon="4.90984">
        <ele>80.8</ele>
        <time>2025-04-05T11:17:26Z</time>
      </trkpt>
      <trkpt lat="50.23805" lon="4.90991">
        <ele>80.8</ele>
        <time>2025-04-05T11:17:27Z</time>
      </trkpt>
      <trkpt lat="50.23807" lon="4.90998">
        <ele>80.8</ele>
        <time>2025-04-05T11:17:28Z</time>
      </trkpt>
      <trkpt lat="50.23809" lon="4.91006">
        <ele>80.8</ele>
        <time>2025-04-05T11:17:29Z</time>
      </trkpt>
      <trkpt lat="50.23811" lon="4.91013">
        <ele>80.8</ele>
        <time>2025-04-05T11:17:30Z</time>
      </trkpt>
      <trkpt lat="50.23813" lon="4.91021">
        <ele>81</ele>
        <time>2025-04-05T11:17:31Z</time>
      </trkpt>
      <trkpt lat="50.23815" lon="4.91029">
        <ele>81</ele>
        <time>2025-04-05T11:17:32Z</time>
      </trkpt>
      <trkpt lat="50.23817" lon="4.91036">
        <ele>81.2</ele>
        <time>2025-04-05T11:17:33Z</time>
      </trkpt>
      <trkpt lat="50.23819" lon="4.91043">
        <ele>81.2</ele>
        <time>2025-04-05T11:17:34Z</time>
      </trkpt>
      <trkpt lat="50.2382" lon="4.91051">
        <ele>81.4</ele>
        <time>2025-04-05T11:17:35Z</time>
      </trkpt>
      <trkpt lat="50.23821" lon="4.91058">
        <ele>81.6</ele>
        <time>2025-04-05T11:17:36Z</time>
      </trkpt>
      <trkpt lat="50.23822" lon="4.91065">
        <ele>81.6</ele>
        <time>2025-04-05T11:17:37Z</time>
      </trkpt>
      <trkpt lat="50.23823" lon="4.91072">
        <ele>81.8</ele>
        <time>2025-04-05T11:17:38Z</time>
      </trkpt>
      <trkpt lat="50.23824" lon="4.91079">
        <ele>81.8</ele>
        <time>2025-04-05T11:17:39Z</time>
      </trkpt>
      <trkpt lat="50.23825" lon="4.91087">
        <ele>82</ele>
        <time>2025-04-05T11:17:40Z</time>
      </trkpt>
      <trkpt lat="50.23827" lon="4.91096">
        <ele>82.2</ele>
        <time>2025-04-05T11:17:41Z</time>
      </trkpt>
      <trkpt lat="50.23828" lon="4.91104">
        <ele>82.4</ele>
        <time>2025-04-05T11:17:42Z</time>
      </trkpt>
      <trkpt lat="50.2383" lon="4.91111">
        <ele>82.4</ele>
        <time>2025-04-05T11:17:43Z</time>
      </trkpt>
      <trkpt lat="50.23832" lon="4.91118">
        <ele>82.6</ele>
        <time>2025-04-05T11:17:44Z</time>
      </trkpt>
      <trkpt lat="50.23834" lon="4.91125">
        <ele>82.6</ele>
        <time>2025-04-05T11:17:45Z</time>
      </trkpt>
      <trkpt lat="50.23834" lon="4.91134">
        <ele>82.6</ele>
        <time>2025-04-05T11:17:46Z</time>
      </trkpt>
      <trkpt lat="50.23835" lon="4.91143">
        <ele>82.6</ele>
        <time>2025-04-05T11:17:47Z</time>
      </trkpt>
      <trkpt lat="50.23836" lon="4.9115">
        <ele>82.6</ele>
        <time>2025-04-05T11:17:48Z</time>
      </trkpt>
      <trkpt lat="50.23838" lon="4.91157">
        <ele>82.6</ele>
        <time>2025-04-05T11:17:49Z</time>
      </trkpt>
      <trkpt lat="50.23839" lon="4.91164">
        <ele>82.6</ele>
        <time>2025-04-05T11:17:50Z</time>
      </trkpt>
      <trkpt lat="50.2384" lon="4.91171">
        <ele>82.6</ele>
        <time>2025-04-05T11:17:51Z</time>
      </trkpt>
      <trkpt lat="50.23842" lon="4.91179">
        <ele>82.6</ele>
        <time>2025-04-05T11:17:52Z</time>
      </trkpt>
      <trkpt lat="50.23843" lon="4.91187">
        <ele>82.4</ele>
        <time>2025-04-05T11:17:53Z</time>
      </trkpt>
      <trkpt lat="50.23844" lon="4.91195">
        <ele>82.4</ele>
        <time>2025-04-05T11:17:54Z</time>
      </trkpt>
      <trkpt lat="50.23845" lon="4.91203">
        <ele>82.4</ele>
        <time>2025-04-05T11:17:55Z</time>
      </trkpt>
      <trkpt lat="50.23846" lon="4.91212">
        <ele>82.4</ele>
        <time>2025-04-05T11:17:56Z</time>
      </trkpt>
      <trkpt lat="50.23848" lon="4.9122">
        <ele>82.6</ele>
        <time>2025-04-05T11:17:57Z</time>
      </trkpt>
      <trkpt lat="50.23849" lon="4.91228">
        <ele>82.6</ele>
        <time>2025-04-05T11:17:58Z</time>
      </trkpt>
      <trkpt lat="50.2385" lon="4.91235">
        <ele>82.8</ele>
        <time>2025-04-05T11:17:59Z</time>
      </trkpt>
      <trkpt lat="50.23851" lon="4.91244">
        <ele>82.8</ele>
        <time>2025-04-05T11:18:00Z</time>
      </trkpt>
      <trkpt lat="50.23851" lon="4.91252">
        <ele>82.8</ele>
        <time>2025-04-05T11:18:01Z</time>
      </trkpt>
      <trkpt lat="50.23851" lon="4.91259">
        <ele>82.8</ele>
        <time>2025-04-05T11:18:02Z</time>
      </trkpt>
      <trkpt lat="50.23852" lon="4.91267">
        <ele>82.8</ele>
        <time>2025-04-05T11:18:03Z</time>
      </trkpt>
      <trkpt lat="50.23853" lon="4.91274">
        <ele>82.8</ele>
        <time>2025-04-05T11:18:04Z</time>
      </trkpt>
      <trkpt lat="50.23854" lon="4.91282">
        <ele>82.8</ele>
        <time>2025-04-05T11:18:05Z</time>
      </trkpt>
      <trkpt lat="50.23855" lon="4.91291">
        <ele>82.8</ele>
        <time>2025-04-05T11:18:06Z</time>
      </trkpt>
      <trkpt lat="50.23856" lon="4.913">
        <ele>82.8</ele>
        <time>2025-04-05T11:18:07Z</time>
      </trkpt>
      <trkpt lat="50.23857" lon="4.91308">
        <ele>82.8</ele>
        <time>2025-04-05T11:18:08Z</time>
      </trkpt>
      <trkpt lat="50.23859" lon="4.91315">
        <ele>82.8</ele>
        <time>2025-04-05T11:18:09Z</time>
      </trkpt>
      <trkpt lat="50.2386" lon="4.91322">
        <ele>82.8</ele>
        <time>2025-04-05T11:18:10Z</time>
      </trkpt>
      <trkpt lat="50.23861" lon="4.91331">
        <ele>82.8</ele>
        <time>2025-04-05T11:18:11Z</time>
      </trkpt>
      <trkpt lat="50.23863" lon="4.9134">
        <ele>83</ele>
        <time>2025-04-05T11:18:12Z</time>
      </trkpt>
      <trkpt lat="50.23864" lon="4.9135">
        <ele>83</ele>
        <time>2025-04-05T11:18:13Z</time>
      </trkpt>
      <trkpt lat="50.23865" lon="4.91358">
        <ele>83</ele>
        <time>2025-04-05T11:18:14Z</time>
      </trkpt>
      <trkpt lat="50.23866" lon="4.91365">
        <ele>83</ele>
        <time>2025-04-05T11:18:15Z</time>
      </trkpt>
      <trkpt lat="50.23866" lon="4.91372">
        <ele>83</ele>
        <time>2025-04-05T11:18:16Z</time>
      </trkpt>
      <trkpt lat="50.23868" lon="4.91381">
        <ele>83</ele>
        <time>2025-04-05T11:18:17Z</time>
      </trkpt>
      <trkpt lat="50.23869" lon="4.91388">
        <ele>83.2</ele>
        <time>2025-04-05T11:18:18Z</time>
      </trkpt>
      <trkpt lat="50.23871" lon="4.91397">
        <ele>83.2</ele>
        <time>2025-04-05T11:18:19Z</time>
      </trkpt>
      <trkpt lat="50.23872" lon="4.91405">
        <ele>83.4</ele>
        <time>2025-04-05T11:18:20Z</time>
      </trkpt>
      <trkpt lat="50.23874" lon="4.91414">
        <ele>83.4</ele>
        <time>2025-04-05T11:18:21Z</time>
      </trkpt>
      <trkpt lat="50.23875" lon="4.91422">
        <ele>83.4</ele>
        <time>2025-04-05T11:18:22Z</time>
      </trkpt>
      <trkpt lat="50.23877" lon="4.9143">
        <ele>83.4</ele>
        <time>2025-04-05T11:18:23Z</time>
      </trkpt>
      <trkpt lat="50.23878" lon="4.91439">
        <ele>83.4</ele>
        <time>2025-04-05T11:18:24Z</time>
      </trkpt>
      <trkpt lat="50.23879" lon="4.91447">
        <ele>83.2</ele>
        <time>2025-04-05T11:18:25Z</time>
      </trkpt>
      <trkpt lat="50.2388" lon="4.91456">
        <ele>83.2</ele>
        <time>2025-04-05T11:18:26Z</time>
      </trkpt>
      <trkpt lat="50.23881" lon="4.91466">
        <ele>83.2</ele>
        <time>2025-04-05T11:18:27Z</time>
      </trkpt>
      <trkpt lat="50.23882" lon="4.91473">
        <ele>83.2</ele>
        <time>2025-04-05T11:18:28Z</time>
      </trkpt>
      <trkpt lat="50.23882" lon="4.91481">
        <ele>83.4</ele>
        <time>2025-04-05T11:18:29Z</time>
      </trkpt>
      <trkpt lat="50.23883" lon="4.91489">
        <ele>83.4</ele>
        <time>2025-04-05T11:18:30Z</time>
      </trkpt>
      <trkpt lat="50.23885" lon="4.91498">
        <ele>83.2</ele>
        <time>2025-04-05T11:18:31Z</time>
      </trkpt>
      <trkpt lat="50.23885" lon="4.91505">
        <ele>83.2</ele>
        <time>2025-04-05T11:18:32Z</time>
      </trkpt>
      <trkpt lat="50.23886" lon="4.91514">
        <ele>83.4</ele>
        <time>2025-04-05T11:18:33Z</time>
      </trkpt>
      <trkpt lat="50.23887" lon="4.91522">
        <ele>83.4</ele>
        <time>2025-04-05T11:18:34Z</time>
      </trkpt>
      <trkpt lat="50.23887" lon="4.91529">
        <ele>83.4</ele>
        <time>2025-04-05T11:18:35Z</time>
      </trkpt>
      <trkpt lat="50.23889" lon="4.91539">
        <ele>83.4</ele>
        <time>2025-04-05T11:18:36Z</time>
      </trkpt>
      <trkpt lat="50.23891" lon="4.91548">
        <ele>83.6</ele>
        <time>2025-04-05T11:18:37Z</time>
      </trkpt>
      <trkpt lat="50.23892" lon="4.91556">
        <ele>83.6</ele>
        <time>2025-04-05T11:18:38Z</time>
      </trkpt>
      <trkpt lat="50.23893" lon="4.91564">
        <ele>83.6</ele>
        <time>2025-04-05T11:18:39Z</time>
      </trkpt>
      <trkpt lat="50.23894" lon="4.91572">
        <ele>83.6</ele>
        <time>2025-04-05T11:18:40Z</time>
      </trkpt>
      <trkpt lat="50.23895" lon="4.9158">
        <ele>83.6</ele>
        <time>2025-04-05T11:18:41Z</time>
      </trkpt>
      <trkpt lat="50.23896" lon="4.91587">
        <ele>83.6</ele>
        <time>2025-04-05T11:18:42Z</time>
      </trkpt>
      <trkpt lat="50.23897" lon="4.91594">
        <ele>83.6</ele>
        <time>2025-04-05T11:18:43Z</time>
      </trkpt>
      <trkpt lat="50.23898" lon="4.91602">
        <ele>83.6</ele>
        <time>2025-04-05T11:18:44Z</time>
      </trkpt>
      <trkpt lat="50.239" lon="4.91609">
        <ele>83.6</ele>
        <time>2025-04-05T11:18:45Z</time>
      </trkpt>
      <trkpt lat="50.23901" lon="4.91617">
        <ele>83.6</ele>
        <time>2025-04-05T11:18:46Z</time>
      </trkpt>
      <trkpt lat="50.23902" lon="4.91624">
        <ele>83.6</ele>
        <time>2025-04-05T11:18:47Z</time>
      </trkpt>
      <trkpt lat="50.23903" lon="4.91632">
        <ele>83.6</ele>
        <time>2025-04-05T11:18:48Z</time>
      </trkpt>
      <trkpt lat="50.23903" lon="4.91639">
        <ele>83.6</ele>
        <time>2025-04-05T11:18:49Z</time>
      </trkpt>
      <trkpt lat="50.23904" lon="4.91647">
        <ele>83.6</ele>
        <time>2025-04-05T11:18:50Z</time>
      </trkpt>
      <trkpt lat="50.23906" lon="4.91655">
        <ele>83.6</ele>
        <time>2025-04-05T11:18:51Z</time>
      </trkpt>
      <trkpt lat="50.23907" lon="4.91662">
        <ele>83.6</ele>
        <time>2025-04-05T11:18:52Z</time>
      </trkpt>
      <trkpt lat="50.23908" lon="4.91669">
        <ele>83.8</ele>
        <time>2025-04-05T11:18:53Z</time>
      </trkpt>
      <trkpt lat="50.23909" lon="4.91676">
        <ele>83.8</ele>
        <time>2025-04-05T11:18:54Z</time>
      </trkpt>
      <trkpt lat="50.2391" lon="4.91685">
        <ele>84</ele>
        <time>2025-04-05T11:18:55Z</time>
      </trkpt>
      <trkpt lat="50.23912" lon="4.91694">
        <ele>84</ele>
        <time>2025-04-05T11:18:56Z</time>
      </trkpt>
      <trkpt lat="50.23913" lon="4.91702">
        <ele>84</ele>
        <time>2025-04-05T11:18:57Z</time>
      </trkpt>
      <trkpt lat="50.23914" lon="4.91709">
        <ele>84</ele>
        <time>2025-04-05T11:18:58Z</time>
      </trkpt>
      <trkpt lat="50.23916" lon="4.91717">
        <ele>83.8</ele>
        <time>2025-04-05T11:18:59Z</time>
      </trkpt>
      <trkpt lat="50.23919" lon="4.91724">
        <ele>83.8</ele>
        <time>2025-04-05T11:19:00Z</time>
      </trkpt>
      <trkpt lat="50.23921" lon="4.91732">
        <ele>83.6</ele>
        <time>2025-04-05T11:19:01Z</time>
      </trkpt>
      <trkpt lat="50.23924" lon="4.9174">
        <ele>83.6</ele>
        <time>2025-04-05T11:19:02Z</time>
      </trkpt>
      <trkpt lat="50.23926" lon="4.91747">
        <ele>83.6</ele>
        <time>2025-04-05T11:19:03Z</time>
      </trkpt>
      <trkpt lat="50.23929" lon="4.91754">
        <ele>83.6</ele>
        <time>2025-04-05T11:19:04Z</time>
      </trkpt>
      <trkpt lat="50.23932" lon="4.91762">
        <ele>83.6</ele>
        <time>2025-04-05T11:19:05Z</time>
      </trkpt>
      <trkpt lat="50.23934" lon="4.91769">
        <ele>83.6</ele>
        <time>2025-04-05T11:19:06Z</time>
      </trkpt>
      <trkpt lat="50.23937" lon="4.91776">
        <ele>83.8</ele>
        <time>2025-04-05T11:19:07Z</time>
      </trkpt>
      <trkpt lat="50.2394" lon="4.91783">
        <ele>83.6</ele>
        <time>2025-04-05T11:19:08Z</time>
      </trkpt>
      <trkpt lat="50.23943" lon="4.9179">
        <ele>83.6</ele>
        <time>2025-04-05T11:19:09Z</time>
      </trkpt>
      <trkpt lat="50.23946" lon="4.91797">
        <ele>83.6</ele>
        <time>2025-04-05T11:19:10Z</time>
      </trkpt>
      <trkpt lat="50.2395" lon="4.91804">
        <ele>83.6</ele>
        <time>2025-04-05T11:19:11Z</time>
      </trkpt>
      <trkpt lat="50.23953" lon="4.91811">
        <ele>83.4</ele>
        <time>2025-04-05T11:19:12Z</time>
      </trkpt>
      <trkpt lat="50.23957" lon="4.91819">
        <ele>83.4</ele>
        <time>2025-04-05T11:19:13Z</time>
      </trkpt>
      <trkpt lat="50.23961" lon="4.91826">
        <ele>83.4</ele>
        <time>2025-04-05T11:19:14Z</time>
      </trkpt>
      <trkpt lat="50.23965" lon="4.91834">
        <ele>83.4</ele>
        <time>2025-04-05T11:19:15Z</time>
      </trkpt>
      <trkpt lat="50.23969" lon="4.91841">
        <ele>83.2</ele>
        <time>2025-04-05T11:19:16Z</time>
      </trkpt>
      <trkpt lat="50.23974" lon="4.91847">
        <ele>83</ele>
        <time>2025-04-05T11:19:17Z</time>
      </trkpt>
      <trkpt lat="50.23978" lon="4.91852">
        <ele>82.8</ele>
        <time>2025-04-05T11:19:18Z</time>
      </trkpt>
      <trkpt lat="50.23983" lon="4.91858">
        <ele>82.6</ele>
        <time>2025-04-05T11:19:19Z</time>
      </trkpt>
      <trkpt lat="50.23988" lon="4.91865">
        <ele>82.4</ele>
        <time>2025-04-05T11:19:20Z</time>
      </trkpt>
      <trkpt lat="50.23994" lon="4.91871">
        <ele>82.2</ele>
        <time>2025-04-05T11:19:21Z</time>
      </trkpt>
      <trkpt lat="50.23999" lon="4.91877">
        <ele>82</ele>
        <time>2025-04-05T11:19:22Z</time>
      </trkpt>
      <trkpt lat="50.24004" lon="4.91882">
        <ele>81.8</ele>
        <time>2025-04-05T11:19:23Z</time>
      </trkpt>
      <trkpt lat="50.2401" lon="4.91887">
        <ele>81.4</ele>
        <time>2025-04-05T11:19:24Z</time>
      </trkpt>
      <trkpt lat="50.24015" lon="4.91892">
        <ele>81.4</ele>
        <time>2025-04-05T11:19:25Z</time>
      </trkpt>
      <trkpt lat="50.2402" lon="4.91896">
        <ele>81.2</ele>
        <time>2025-04-05T11:19:26Z</time>
      </trkpt>
      <trkpt lat="50.24026" lon="4.91901">
        <ele>81.2</ele>
        <time>2025-04-05T11:19:27Z</time>
      </trkpt>
      <trkpt lat="50.24032" lon="4.91905">
        <ele>81</ele>
        <time>2025-04-05T11:19:28Z</time>
      </trkpt>
      <trkpt lat="50.24038" lon="4.91908">
        <ele>80.8</ele>
        <time>2025-04-05T11:19:29Z</time>
      </trkpt>
      <trkpt lat="50.24044" lon="4.91911">
        <ele>80.8</ele>
        <time>2025-04-05T11:19:30Z</time>
      </trkpt>
      <trkpt lat="50.2405" lon="4.91914">
        <ele>80.6</ele>
        <time>2025-04-05T11:19:31Z</time>
      </trkpt>
      <trkpt lat="50.24056" lon="4.91916">
        <ele>80.6</ele>
        <time>2025-04-05T11:19:32Z</time>
      </trkpt>
      <trkpt lat="50.24062" lon="4.91919">
        <ele>80.6</ele>
        <time>2025-04-05T11:19:33Z</time>
      </trkpt>
      <trkpt lat="50.24067" lon="4.91921">
        <ele>80.6</ele>
        <time>2025-04-05T11:19:34Z</time>
      </trkpt>
      <trkpt lat="50.24073" lon="4.91924">
        <ele>80.4</ele>
        <time>2025-04-05T11:19:35Z</time>
      </trkpt>
      <trkpt lat="50.24078" lon="4.91926">
        <ele>80.4</ele>
        <time>2025-04-05T11:19:36Z</time>
      </trkpt>
      <trkpt lat="50.24085" lon="4.91928">
        <ele>80.2</ele>
        <time>2025-04-05T11:19:37Z</time>
      </trkpt>
      <trkpt lat="50.2409" lon="4.9193">
        <ele>80.2</ele>
        <time>2025-04-05T11:19:38Z</time>
      </trkpt>
      <trkpt lat="50.24096" lon="4.91933">
        <ele>80</ele>
        <time>2025-04-05T11:19:39Z</time>
      </trkpt>
      <trkpt lat="50.24102" lon="4.91936">
        <ele>80</ele>
        <time>2025-04-05T11:19:40Z</time>
      </trkpt>
      <trkpt lat="50.24108" lon="4.91939">
        <ele>79.8</ele>
        <time>2025-04-05T11:19:41Z</time>
      </trkpt>
      <trkpt lat="50.24114" lon="4.91943">
        <ele>79.6</ele>
        <time>2025-04-05T11:19:42Z</time>
      </trkpt>
      <trkpt lat="50.2412" lon="4.91947">
        <ele>79.6</ele>
        <time>2025-04-05T11:19:43Z</time>
      </trkpt>
      <trkpt lat="50.24125" lon="4.91951">
        <ele>79.6</ele>
        <time>2025-04-05T11:19:44Z</time>
      </trkpt>
      <trkpt lat="50.24131" lon="4.91955">
        <ele>79.6</ele>
        <time>2025-04-05T11:19:45Z</time>
      </trkpt>
      <trkpt lat="50.24138" lon="4.9196">
        <ele>79.4</ele>
        <time>2025-04-05T11:19:46Z</time>
      </trkpt>
      <trkpt lat="50.24143" lon="4.91965">
        <ele>79.4</ele>
        <time>2025-04-05T11:19:47Z</time>
      </trkpt>
      <trkpt lat="50.24147" lon="4.9197">
        <ele>79.4</ele>
        <time>2025-04-05T11:19:48Z</time>
      </trkpt>
      <trkpt lat="50.24152" lon="4.91976">
        <ele>79.4</ele>
        <time>2025-04-05T11:19:49Z</time>
      </trkpt>
      <trkpt lat="50.24158" lon="4.91981">
        <ele>79.4</ele>
        <time>2025-04-05T11:19:50Z</time>
      </trkpt>
      <trkpt lat="50.24163" lon="4.91987">
        <ele>79.4</ele>
        <time>2025-04-05T11:19:51Z</time>
      </trkpt>
      <trkpt lat="50.24168" lon="4.91991">
        <ele>79.4</ele>
        <time>2025-04-05T11:19:52Z</time>
      </trkpt>
      <trkpt lat="50.24173" lon="4.91995">
        <ele>79.4</ele>
        <time>2025-04-05T11:19:53Z</time>
      </trkpt>
      <trkpt lat="50.24178" lon="4.92">
        <ele>79.6</ele>
        <time>2025-04-05T11:19:54Z</time>
      </trkpt>
      <trkpt lat="50.24184" lon="4.92006">
        <ele>79.6</ele>
        <time>2025-04-05T11:19:55Z</time>
      </trkpt>
      <trkpt lat="50.2419" lon="4.92012">
        <ele>79.6</ele>
        <time>2025-04-05T11:19:56Z</time>
      </trkpt>
      <trkpt lat="50.24195" lon="4.92016">
        <ele>79.6</ele>
        <time>2025-04-05T11:19:57Z</time>
      </trkpt>
      <trkpt lat="50.242" lon="4.92022">
        <ele>79.8</ele>
        <time>2025-04-05T11:19:58Z</time>
      </trkpt>
      <trkpt lat="50.24205" lon="4.92028">
        <ele>79.6</ele>
        <time>2025-04-05T11:19:59Z</time>
      </trkpt>
      <trkpt lat="50.2421" lon="4.92032">
        <ele>79.6</ele>
        <time>2025-04-05T11:20:00Z</time>
      </trkpt>
      <trkpt lat="50.24216" lon="4.92037">
        <ele>79.6</ele>
        <time>2025-04-05T11:20:01Z</time>
      </trkpt>
      <trkpt lat="50.24222" lon="4.92042">
        <ele>79.4</ele>
        <time>2025-04-05T11:20:02Z</time>
      </trkpt>
      <trkpt lat="50.24228" lon="4.92048">
        <ele>79.4</ele>
        <time>2025-04-05T11:20:03Z</time>
      </trkpt>
      <trkpt lat="50.24233" lon="4.92052">
        <ele>79.4</ele>
        <time>2025-04-05T11:20:04Z</time>
      </trkpt>
      <trkpt lat="50.24238" lon="4.92057">
        <ele>79.4</ele>
        <time>2025-04-05T11:20:05Z</time>
      </trkpt>
      <trkpt lat="50.24243" lon="4.92061">
        <ele>79.4</ele>
        <time>2025-04-05T11:20:06Z</time>
      </trkpt>
      <trkpt lat="50.24248" lon="4.92065">
        <ele>79.2</ele>
        <time>2025-04-05T11:20:07Z</time>
      </trkpt>
      <trkpt lat="50.24254" lon="4.9207">
        <ele>79.2</ele>
        <time>2025-04-05T11:20:08Z</time>
      </trkpt>
      <trkpt lat="50.24259" lon="4.92076">
        <ele>79.2</ele>
        <time>2025-04-05T11:20:09Z</time>
      </trkpt>
      <trkpt lat="50.24265" lon="4.92082">
        <ele>79.2</ele>
        <time>2025-04-05T11:20:10Z</time>
      </trkpt>
      <trkpt lat="50.2427" lon="4.92087">
        <ele>79.4</ele>
        <time>2025-04-05T11:20:11Z</time>
      </trkpt>
      <trkpt lat="50.24275" lon="4.92093">
        <ele>79.4</ele>
        <time>2025-04-05T11:20:12Z</time>
      </trkpt>
      <trkpt lat="50.24281" lon="4.921">
        <ele>79.2</ele>
        <time>2025-04-05T11:20:13Z</time>
      </trkpt>
      <trkpt lat="50.24286" lon="4.92105">
        <ele>79.2</ele>
        <time>2025-04-05T11:20:14Z</time>
      </trkpt>
      <trkpt lat="50.24291" lon="4.92109">
        <ele>79.2</ele>
        <time>2025-04-05T11:20:15Z</time>
      </trkpt>
      <trkpt lat="50.24297" lon="4.92113">
        <ele>79.4</ele>
        <time>2025-04-05T11:20:16Z</time>
      </trkpt>
      <trkpt lat="50.24302" lon="4.92117">
        <ele>79.4</ele>
        <time>2025-04-05T11:20:17Z</time>
      </trkpt>
      <trkpt lat="50.24308" lon="4.92121">
        <ele>79.4</ele>
        <time>2025-04-05T11:20:18Z</time>
      </trkpt>
      <trkpt lat="50.24313" lon="4.92124">
        <ele>79.4</ele>
        <time>2025-04-05T11:20:19Z</time>
      </trkpt>
      <trkpt lat="50.24319" lon="4.92127">
        <ele>79.6</ele>
        <time>2025-04-05T11:20:20Z</time>
      </trkpt>
      <trkpt lat="50.24325" lon="4.9213">
        <ele>79.6</ele>
        <time>2025-04-05T11:20:21Z</time>
      </trkpt>
      <trkpt lat="50.24331" lon="4.92132">
        <ele>79.6</ele>
        <time>2025-04-05T11:20:22Z</time>
      </trkpt>
      <trkpt lat="50.24337" lon="4.92134">
        <ele>79.6</ele>
        <time>2025-04-05T11:20:23Z</time>
      </trkpt>
      <trkpt lat="50.24343" lon="4.92136">
        <ele>79.6</ele>
        <time>2025-04-05T11:20:24Z</time>
      </trkpt>
      <trkpt lat="50.24349" lon="4.92137">
        <ele>79.6</ele>
        <time>2025-04-05T11:20:25Z</time>
      </trkpt>
      <trkpt lat="50.24356" lon="4.92138">
        <ele>79.6</ele>
        <time>2025-04-05T11:20:26Z</time>
      </trkpt>
      <trkpt lat="50.24361" lon="4.92138">
        <ele>79.8</ele>
        <time>2025-04-05T11:20:27Z</time>
      </trkpt>
      <trkpt lat="50.24367" lon="4.92139">
        <ele>79.8</ele>
        <time>2025-04-05T11:20:28Z</time>
      </trkpt>
      <trkpt lat="50.24373" lon="4.92139">
        <ele>79.8</ele>
        <time>2025-04-05T11:20:29Z</time>
      </trkpt>
      <trkpt lat="50.24379" lon="4.92139">
        <ele>80</ele>
        <time>2025-04-05T11:20:30Z</time>
      </trkpt>
      <trkpt lat="50.24385" lon="4.92138">
        <ele>80</ele>
        <time>2025-04-05T11:20:31Z</time>
      </trkpt>
      <trkpt lat="50.24391" lon="4.92137">
        <ele>80.2</ele>
        <time>2025-04-05T11:20:32Z</time>
      </trkpt>
      <trkpt lat="50.24396" lon="4.92137">
        <ele>80.4</ele>
        <time>2025-04-05T11:20:33Z</time>
      </trkpt>
      <trkpt lat="50.24401" lon="4.92136">
        <ele>80.4</ele>
        <time>2025-04-05T11:20:34Z</time>
      </trkpt>
      <trkpt lat="50.24406" lon="4.92135">
        <ele>80.6</ele>
        <time>2025-04-05T11:20:35Z</time>
      </trkpt>
      <trkpt lat="50.24412" lon="4.92135">
        <ele>80.6</ele>
        <time>2025-04-05T11:20:36Z</time>
      </trkpt>
      <trkpt lat="50.24417" lon="4.92136">
        <ele>80.8</ele>
        <time>2025-04-05T11:20:37Z</time>
      </trkpt>
      <trkpt lat="50.24423" lon="4.92135">
        <ele>80.8</ele>
        <time>2025-04-05T11:20:38Z</time>
      </trkpt>
      <trkpt lat="50.24429" lon="4.92135">
        <ele>81</ele>
        <time>2025-04-05T11:20:39Z</time>
      </trkpt>
      <trkpt lat="50.24434" lon="4.92134">
        <ele>81.2</ele>
        <time>2025-04-05T11:20:40Z</time>
      </trkpt>
      <trkpt lat="50.24439" lon="4.92134">
        <ele>81.6</ele>
        <time>2025-04-05T11:20:41Z</time>
      </trkpt>
      <trkpt lat="50.24444" lon="4.92133">
        <ele>81.8</ele>
        <time>2025-04-05T11:20:42Z</time>
      </trkpt>
      <trkpt lat="50.2445" lon="4.92131">
        <ele>82</ele>
        <time>2025-04-05T11:20:43Z</time>
      </trkpt>
      <trkpt lat="50.24455" lon="4.9213">
        <ele>82.2</ele>
        <time>2025-04-05T11:20:44Z</time>
      </trkpt>
      <trkpt lat="50.24459" lon="4.92129">
        <ele>82.2</ele>
        <time>2025-04-05T11:20:45Z</time>
      </trkpt>
      <trkpt lat="50.24463" lon="4.92129">
        <ele>82.4</ele>
        <time>2025-04-05T11:20:46Z</time>
      </trkpt>
      <trkpt lat="50.24466" lon="4.92129">
        <ele>82.4</ele>
        <time>2025-04-05T11:20:47Z</time>
      </trkpt>
      <trkpt lat="50.24469" lon="4.92127">
        <ele>82.4</ele>
        <time>2025-04-05T11:20:48Z</time>
      </trkpt>
      <trkpt lat="50.24473" lon="4.92125">
        <ele>82.4</ele>
        <time>2025-04-05T11:20:49Z</time>
      </trkpt>
      <trkpt lat="50.24478" lon="4.92124">
        <ele>82.4</ele>
        <time>2025-04-05T11:20:50Z</time>
      </trkpt>
      <trkpt lat="50.24484" lon="4.92123">
        <ele>82.4</ele>
        <time>2025-04-05T11:20:51Z</time>
      </trkpt>
      <trkpt lat="50.2449" lon="4.92123">
        <ele>82.6</ele>
        <time>2025-04-05T11:20:52Z</time>
      </trkpt>
      <trkpt lat="50.24496" lon="4.92122">
        <ele>82.6</ele>
        <time>2025-04-05T11:20:53Z</time>
      </trkpt>
      <trkpt lat="50.24501" lon="4.92121">
        <ele>82.6</ele>
        <time>2025-04-05T11:20:54Z</time>
      </trkpt>
      <trkpt lat="50.24507" lon="4.9212">
        <ele>82.6</ele>
        <time>2025-04-05T11:20:55Z</time>
      </trkpt>
      <trkpt lat="50.24513" lon="4.9212">
        <ele>82.6</ele>
        <time>2025-04-05T11:20:56Z</time>
      </trkpt>
      <trkpt lat="50.24519" lon="4.9212">
        <ele>82.6</ele>
        <time>2025-04-05T11:20:57Z</time>
      </trkpt>
      <trkpt lat="50.24526" lon="4.9212">
        <ele>82.6</ele>
        <time>2025-04-05T11:20:58Z</time>
      </trkpt>
      <trkpt lat="50.24532" lon="4.92119">
        <ele>82.6</ele>
        <time>2025-04-05T11:20:59Z</time>
      </trkpt>
      <trkpt lat="50.24538" lon="4.92119">
        <ele>82.6</ele>
        <time>2025-04-05T11:21:00Z</time>
      </trkpt>
      <trkpt lat="50.24545" lon="4.92119">
        <ele>82.6</ele>
        <time>2025-04-05T11:21:01Z</time>
      </trkpt>
      <trkpt lat="50.2455" lon="4.92118">
        <ele>82.4</ele>
        <time>2025-04-05T11:21:02Z</time>
      </trkpt>
      <trkpt lat="50.24556" lon="4.92118">
        <ele>82.4</ele>
        <time>2025-04-05T11:21:03Z</time>
      </trkpt>
      <trkpt lat="50.24561" lon="4.92117">
        <ele>82.4</ele>
        <time>2025-04-05T11:21:04Z</time>
      </trkpt>
      <trkpt lat="50.24567" lon="4.92117">
        <ele>82.4</ele>
        <time>2025-04-05T11:21:05Z</time>
      </trkpt>
      <trkpt lat="50.24573" lon="4.92117">
        <ele>82.2</ele>
        <time>2025-04-05T11:21:06Z</time>
      </trkpt>
      <trkpt lat="50.24577" lon="4.92116">
        <ele>82.2</ele>
        <time>2025-04-05T11:21:07Z</time>
      </trkpt>
      <trkpt lat="50.24583" lon="4.92116">
        <ele>82.2</ele>
        <time>2025-04-05T11:21:08Z</time>
      </trkpt>
      <trkpt lat="50.2459" lon="4.92115">
        <ele>82.2</ele>
        <time>2025-04-05T11:21:09Z</time>
      </trkpt>
      <trkpt lat="50.24596" lon="4.92115">
        <ele>82</ele>
        <time>2025-04-05T11:21:10Z</time>
      </trkpt>
      <trkpt lat="50.24603" lon="4.92115">
        <ele>82</ele>
        <time>2025-04-05T11:21:11Z</time>
      </trkpt>
      <trkpt lat="50.24608" lon="4.92115">
        <ele>81.8</ele>
        <time>2025-04-05T11:21:12Z</time>
      </trkpt>
      <trkpt lat="50.24614" lon="4.92116">
        <ele>81.8</ele>
        <time>2025-04-05T11:21:13Z</time>
      </trkpt>
      <trkpt lat="50.24619" lon="4.92116">
        <ele>81.8</ele>
        <time>2025-04-05T11:21:14Z</time>
      </trkpt>
      <trkpt lat="50.24624" lon="4.92117">
        <ele>81.8</ele>
        <time>2025-04-05T11:21:15Z</time>
      </trkpt>
      <trkpt lat="50.24628" lon="4.92118">
        <ele>81.8</ele>
        <time>2025-04-05T11:21:16Z</time>
      </trkpt>
      <trkpt lat="50.24633" lon="4.92118">
        <ele>81.8</ele>
        <time>2025-04-05T11:21:17Z</time>
      </trkpt>
      <trkpt lat="50.2464" lon="4.92119">
        <ele>81.8</ele>
        <time>2025-04-05T11:21:18Z</time>
      </trkpt>
      <trkpt lat="50.24645" lon="4.92119">
        <ele>81.8</ele>
        <time>2025-04-05T11:21:19Z</time>
      </trkpt>
      <trkpt lat="50.24652" lon="4.9212">
        <ele>81.8</ele>
        <time>2025-04-05T11:21:20Z</time>
      </trkpt>
      <trkpt lat="50.24659" lon="4.9212">
        <ele>81.8</ele>
        <time>2025-04-05T11:21:21Z</time>
      </trkpt>
      <trkpt lat="50.24665" lon="4.92119">
        <ele>81.8</ele>
        <time>2025-04-05T11:21:22Z</time>
      </trkpt>
      <trkpt lat="50.24672" lon="4.92118">
        <ele>81.8</ele>
        <time>2025-04-05T11:21:23Z</time>
      </trkpt>
      <trkpt lat="50.24678" lon="4.92118">
        <ele>81.8</ele>
        <time>2025-04-05T11:21:24Z</time>
      </trkpt>
      <trkpt lat="50.24684" lon="4.92117">
        <ele>81.8</ele>
        <time>2025-04-05T11:21:25Z</time>
      </trkpt>
      <trkpt lat="50.24691" lon="4.92118">
        <ele>81.8</ele>
        <time>2025-04-05T11:21:26Z</time>
      </trkpt>
      <trkpt lat="50.24698" lon="4.92118">
        <ele>81.8</ele>
        <time>2025-04-05T11:21:27Z</time>
      </trkpt>
      <trkpt lat="50.24705" lon="4.92118">
        <ele>81.8</ele>
        <time>2025-04-05T11:21:28Z</time>
      </trkpt>
      <trkpt lat="50.24712" lon="4.92117">
        <ele>81.8</ele>
        <time>2025-04-05T11:21:29Z</time>
      </trkpt>
      <trkpt lat="50.24719" lon="4.92115">
        <ele>81.8</ele>
        <time>2025-04-05T11:21:30Z</time>
      </trkpt>
      <trkpt lat="50.24727" lon="4.92113">
        <ele>81.8</ele>
        <time>2025-04-05T11:21:31Z</time>
      </trkpt>
      <trkpt lat="50.24734" lon="4.92111">
        <ele>81.8</ele>
        <time>2025-04-05T11:21:32Z</time>
      </trkpt>
      <trkpt lat="50.24741" lon="4.92108">
        <ele>81.8</ele>
        <time>2025-04-05T11:21:33Z</time>
      </trkpt>
      <trkpt lat="50.24748" lon="4.92105">
        <ele>81.8</ele>
        <time>2025-04-05T11:21:34Z</time>
      </trkpt>
      <trkpt lat="50.24755" lon="4.92102">
        <ele>81.8</ele>
        <time>2025-04-05T11:21:35Z</time>
      </trkpt>
      <trkpt lat="50.24761" lon="4.92099">
        <ele>81.8</ele>
        <time>2025-04-05T11:21:36Z</time>
      </trkpt>
      <trkpt lat="50.24768" lon="4.92097">
        <ele>81.8</ele>
        <time>2025-04-05T11:21:37Z</time>
      </trkpt>
      <trkpt lat="50.24774" lon="4.92094">
        <ele>81.8</ele>
        <time>2025-04-05T11:21:38Z</time>
      </trkpt>
      <trkpt lat="50.2478" lon="4.92092">
        <ele>81.6</ele>
        <time>2025-04-05T11:21:39Z</time>
      </trkpt>
      <trkpt lat="50.24785" lon="4.92089">
        <ele>81.6</ele>
        <time>2025-04-05T11:21:40Z</time>
      </trkpt>
      <trkpt lat="50.2479" lon="4.92087">
        <ele>81.4</ele>
        <time>2025-04-05T11:21:41Z</time>
      </trkpt>
      <trkpt lat="50.24795" lon="4.92085">
        <ele>81.6</ele>
        <time>2025-04-05T11:21:42Z</time>
      </trkpt>
      <trkpt lat="50.248" lon="4.92083">
        <ele>81.4</ele>
        <time>2025-04-05T11:21:43Z</time>
      </trkpt>
      <trkpt lat="50.24805" lon="4.9208">
        <ele>81.4</ele>
        <time>2025-04-05T11:21:44Z</time>
      </trkpt>
      <trkpt lat="50.2481" lon="4.92077">
        <ele>81.2</ele>
        <time>2025-04-05T11:21:45Z</time>
      </trkpt>
      <trkpt lat="50.24817" lon="4.92075">
        <ele>81.2</ele>
        <time>2025-04-05T11:21:46Z</time>
      </trkpt>
      <trkpt lat="50.24825" lon="4.92072">
        <ele>81</ele>
        <time>2025-04-05T11:21:47Z</time>
      </trkpt>
      <trkpt lat="50.24833" lon="4.92068">
        <ele>81</ele>
        <time>2025-04-05T11:21:48Z</time>
      </trkpt>
      <trkpt lat="50.24841" lon="4.92064">
        <ele>80.8</ele>
        <time>2025-04-05T11:21:49Z</time>
      </trkpt>
      <trkpt lat="50.24847" lon="4.92061">
        <ele>80.6</ele>
        <time>2025-04-05T11:21:50Z</time>
      </trkpt>
      <trkpt lat="50.24852" lon="4.92057">
        <ele>80.6</ele>
        <time>2025-04-05T11:21:51Z</time>
      </trkpt>
      <trkpt lat="50.24859" lon="4.92051">
        <ele>80.8</ele>
        <time>2025-04-05T11:21:52Z</time>
      </trkpt>
      <trkpt lat="50.24864" lon="4.92043">
        <ele>80.8</ele>
        <time>2025-04-05T11:21:53Z</time>
      </trkpt>
      <trkpt lat="50.24867" lon="4.92037">
        <ele>80.8</ele>
        <time>2025-04-05T11:21:54Z</time>
      </trkpt>
      <trkpt lat="50.24872" lon="4.92031">
        <ele>81</ele>
        <time>2025-04-05T11:21:55Z</time>
      </trkpt>
      <trkpt lat="50.24879" lon="4.92024">
        <ele>81</ele>
        <time>2025-04-05T11:21:56Z</time>
      </trkpt>
      <trkpt lat="50.24887" lon="4.9202">
        <ele>81.2</ele>
        <time>2025-04-05T11:21:57Z</time>
      </trkpt>
      <trkpt lat="50.24894" lon="4.92016">
        <ele>81.2</ele>
        <time>2025-04-05T11:21:58Z</time>
      </trkpt>
      <trkpt lat="50.24899" lon="4.92012">
        <ele>81.2</ele>
        <time>2025-04-05T11:21:59Z</time>
      </trkpt>
      <trkpt lat="50.24904" lon="4.92005">
        <ele>81</ele>
        <time>2025-04-05T11:22:00Z</time>
      </trkpt>
      <trkpt lat="50.24908" lon="4.91998">
        <ele>81</ele>
        <time>2025-04-05T11:22:01Z</time>
      </trkpt>
      <trkpt lat="50.24914" lon="4.91994">
        <ele>80.8</ele>
        <time>2025-04-05T11:22:02Z</time>
      </trkpt>
      <trkpt lat="50.2492" lon="4.9199">
        <ele>80.6</ele>
        <time>2025-04-05T11:22:03Z</time>
      </trkpt>
      <trkpt lat="50.24925" lon="4.91983">
        <ele>80.6</ele>
        <time>2025-04-05T11:22:04Z</time>
      </trkpt>
      <trkpt lat="50.24929" lon="4.91976">
        <ele>80.6</ele>
        <time>2025-04-05T11:22:05Z</time>
      </trkpt>
      <trkpt lat="50.24934" lon="4.9197">
        <ele>80.6</ele>
        <time>2025-04-05T11:22:06Z</time>
      </trkpt>
      <trkpt lat="50.24941" lon="4.91965">
        <ele>80.8</ele>
        <time>2025-04-05T11:22:07Z</time>
      </trkpt>
      <trkpt lat="50.24947" lon="4.91959">
        <ele>81</ele>
        <time>2025-04-05T11:22:08Z</time>
      </trkpt>
      <trkpt lat="50.24952" lon="4.91953">
        <ele>81</ele>
        <time>2025-04-05T11:22:09Z</time>
      </trkpt>
      <trkpt lat="50.24957" lon="4.91948">
        <ele>81.2</ele>
        <time>2025-04-05T11:22:10Z</time>
      </trkpt>
      <trkpt lat="50.24962" lon="4.91942">
        <ele>81.2</ele>
        <time>2025-04-05T11:22:11Z</time>
      </trkpt>
      <trkpt lat="50.24967" lon="4.91937">
        <ele>81.4</ele>
        <time>2025-04-05T11:22:12Z</time>
      </trkpt>
      <trkpt lat="50.24972" lon="4.91932">
        <ele>81.4</ele>
        <time>2025-04-05T11:22:13Z</time>
      </trkpt>
      <trkpt lat="50.24977" lon="4.91927">
        <ele>81.4</ele>
        <time>2025-04-05T11:22:14Z</time>
      </trkpt>
      <trkpt lat="50.24982" lon="4.91923">
        <ele>81.2</ele>
        <time>2025-04-05T11:22:15Z</time>
      </trkpt>
      <trkpt lat="50.24987" lon="4.9192">
        <ele>81.2</ele>
        <time>2025-04-05T11:22:16Z</time>
      </trkpt>
      <trkpt lat="50.24992" lon="4.91917">
        <ele>81</ele>
        <time>2025-04-05T11:22:17Z</time>
      </trkpt>
      <trkpt lat="50.24997" lon="4.91913">
        <ele>80.8</ele>
        <time>2025-04-05T11:22:18Z</time>
      </trkpt>
      <trkpt lat="50.25002" lon="4.91909">
        <ele>80.6</ele>
        <time>2025-04-05T11:22:19Z</time>
      </trkpt>
      <trkpt lat="50.25007" lon="4.91905">
        <ele>80.4</ele>
        <time>2025-04-05T11:22:20Z</time>
      </trkpt>
      <trkpt lat="50.25013" lon="4.91901">
        <ele>80.4</ele>
        <time>2025-04-05T11:22:21Z</time>
      </trkpt>
      <trkpt lat="50.25018" lon="4.91896">
        <ele>80.4</ele>
        <time>2025-04-05T11:22:22Z</time>
      </trkpt>
      <trkpt lat="50.25022" lon="4.91892">
        <ele>80.6</ele>
        <time>2025-04-05T11:22:23Z</time>
      </trkpt>
      <trkpt lat="50.25027" lon="4.91887">
        <ele>80.6</ele>
        <time>2025-04-05T11:22:24Z</time>
      </trkpt>
      <trkpt lat="50.25032" lon="4.91884">
        <ele>80.6</ele>
        <time>2025-04-05T11:22:25Z</time>
      </trkpt>
      <trkpt lat="50.25038" lon="4.9188">
        <ele>80.6</ele>
        <time>2025-04-05T11:22:26Z</time>
      </trkpt>
      <trkpt lat="50.25044" lon="4.91877">
        <ele>80.6</ele>
        <time>2025-04-05T11:22:27Z</time>
      </trkpt>
      <trkpt lat="50.25048" lon="4.91873">
        <ele>80.6</ele>
        <time>2025-04-05T11:22:28Z</time>
      </trkpt>
      <trkpt lat="50.25053" lon="4.91868">
        <ele>80.6</ele>
        <time>2025-04-05T11:22:29Z</time>
      </trkpt>
      <trkpt lat="50.25058" lon="4.91865">
        <ele>80.6</ele>
        <time>2025-04-05T11:22:30Z</time>
      </trkpt>
      <trkpt lat="50.25064" lon="4.91862">
        <ele>80.6</ele>
        <time>2025-04-05T11:22:31Z</time>
      </trkpt>
      <trkpt lat="50.25068" lon="4.91858">
        <ele>80.6</ele>
        <time>2025-04-05T11:22:32Z</time>
      </trkpt>
      <trkpt lat="50.25072" lon="4.91855">
        <ele>80.4</ele>
        <time>2025-04-05T11:22:33Z</time>
      </trkpt>
      <trkpt lat="50.25076" lon="4.91852">
        <ele>80.4</ele>
        <time>2025-04-05T11:22:34Z</time>
      </trkpt>
      <trkpt lat="50.25082" lon="4.91849">
        <ele>80.4</ele>
        <time>2025-04-05T11:22:35Z</time>
      </trkpt>
      <trkpt lat="50.25087" lon="4.91845">
        <ele>80.6</ele>
        <time>2025-04-05T11:22:36Z</time>
      </trkpt>
      <trkpt lat="50.25093" lon="4.91841">
        <ele>80.6</ele>
        <time>2025-04-05T11:22:37Z</time>
      </trkpt>
      <trkpt lat="50.25099" lon="4.91837">
        <ele>80.8</ele>
        <time>2025-04-05T11:22:38Z</time>
      </trkpt>
      <trkpt lat="50.25104" lon="4.91834">
        <ele>80.8</ele>
        <time>2025-04-05T11:22:39Z</time>
      </trkpt>
      <trkpt lat="50.25108" lon="4.91832">
        <ele>81</ele>
        <time>2025-04-05T11:22:40Z</time>
      </trkpt>
      <trkpt lat="50.25112" lon="4.91831">
        <ele>81</ele>
        <time>2025-04-05T11:22:41Z</time>
      </trkpt>
      <trkpt lat="50.25117" lon="4.9183">
        <ele>81.2</ele>
        <time>2025-04-05T11:22:42Z</time>
      </trkpt>
      <trkpt lat="50.25121" lon="4.9183">
        <ele>81.2</ele>
        <time>2025-04-05T11:22:43Z</time>
      </trkpt>
      <trkpt lat="50.25126" lon="4.9183">
        <ele>81.2</ele>
        <time>2025-04-05T11:22:44Z</time>
      </trkpt>
      <trkpt lat="50.25131" lon="4.91829">
        <ele>81.2</ele>
        <time>2025-04-05T11:22:45Z</time>
      </trkpt>
      <trkpt lat="50.25136" lon="4.91829">
        <ele>81.2</ele>
        <time>2025-04-05T11:22:46Z</time>
      </trkpt>
      <trkpt lat="50.25142" lon="4.91828">
        <ele>81.2</ele>
        <time>2025-04-05T11:22:47Z</time>
      </trkpt>
      <trkpt lat="50.25147" lon="4.91827">
        <ele>81.4</ele>
        <time>2025-04-05T11:22:48Z</time>
      </trkpt>
      <trkpt lat="50.25151" lon="4.91826">
        <ele>81.4</ele>
        <time>2025-04-05T11:22:49Z</time>
      </trkpt>
      <trkpt lat="50.25157" lon="4.91824">
        <ele>81.6</ele>
        <time>2025-04-05T11:22:50Z</time>
      </trkpt>
      <trkpt lat="50.25163" lon="4.91823">
        <ele>81.6</ele>
        <time>2025-04-05T11:22:51Z</time>
      </trkpt>
      <trkpt lat="50.25168" lon="4.9182">
        <ele>81.6</ele>
        <time>2025-04-05T11:22:52Z</time>
      </trkpt>
      <trkpt lat="50.25173" lon="4.91816">
        <ele>81.6</ele>
        <time>2025-04-05T11:22:53Z</time>
      </trkpt>
      <trkpt lat="50.25178" lon="4.91812">
        <ele>81.8</ele>
        <time>2025-04-05T11:22:54Z</time>
      </trkpt>
      <trkpt lat="50.25183" lon="4.91808">
        <ele>81.8</ele>
        <time>2025-04-05T11:22:55Z</time>
      </trkpt>
      <trkpt lat="50.25188" lon="4.91803">
        <ele>81.8</ele>
        <time>2025-04-05T11:22:56Z</time>
      </trkpt>
      <trkpt lat="50.25192" lon="4.91797">
        <ele>81.8</ele>
        <time>2025-04-05T11:22:57Z</time>
      </trkpt>
      <trkpt lat="50.25197" lon="4.91792">
        <ele>81.8</ele>
        <time>2025-04-05T11:22:58Z</time>
      </trkpt>
      <trkpt lat="50.25201" lon="4.91788">
        <ele>82</ele>
        <time>2025-04-05T11:22:59Z</time>
      </trkpt>
      <trkpt lat="50.25205" lon="4.91783">
        <ele>82</ele>
        <time>2025-04-05T11:23:00Z</time>
      </trkpt>
      <trkpt lat="50.25209" lon="4.91779">
        <ele>82</ele>
        <time>2025-04-05T11:23:01Z</time>
      </trkpt>
      <trkpt lat="50.25213" lon="4.91776">
        <ele>82.2</ele>
        <time>2025-04-05T11:23:02Z</time>
      </trkpt>
      <trkpt lat="50.25217" lon="4.91774">
        <ele>82.2</ele>
        <time>2025-04-05T11:23:03Z</time>
      </trkpt>
      <trkpt lat="50.25221" lon="4.91772">
        <ele>82.2</ele>
        <time>2025-04-05T11:23:04Z</time>
      </trkpt>
      <trkpt lat="50.25226" lon="4.91769">
        <ele>82.2</ele>
        <time>2025-04-05T11:23:05Z</time>
      </trkpt>
      <trkpt lat="50.25232" lon="4.91765">
        <ele>82.2</ele>
        <time>2025-04-05T11:23:06Z</time>
      </trkpt>
      <trkpt lat="50.25237" lon="4.91761">
        <ele>82.2</ele>
        <time>2025-04-05T11:23:07Z</time>
      </trkpt>
      <trkpt lat="50.25242" lon="4.91756">
        <ele>82.2</ele>
        <time>2025-04-05T11:23:08Z</time>
      </trkpt>
      <trkpt lat="50.25248" lon="4.91753">
        <ele>82.4</ele>
        <time>2025-04-05T11:23:09Z</time>
      </trkpt>
      <trkpt lat="50.25253" lon="4.91753">
        <ele>82.4</ele>
        <time>2025-04-05T11:23:10Z</time>
      </trkpt>
      <trkpt lat="50.25259" lon="4.91752">
        <ele>82.6</ele>
        <time>2025-04-05T11:23:11Z</time>
      </trkpt>
      <trkpt lat="50.25265" lon="4.91751">
        <ele>82.6</ele>
        <time>2025-04-05T11:23:12Z</time>
      </trkpt>
      <trkpt lat="50.25271" lon="4.9175">
        <ele>82.6</ele>
        <time>2025-04-05T11:23:13Z</time>
      </trkpt>
      <trkpt lat="50.25277" lon="4.91749">
        <ele>82.8</ele>
        <time>2025-04-05T11:23:14Z</time>
      </trkpt>
      <trkpt lat="50.25283" lon="4.91749">
        <ele>82.6</ele>
        <time>2025-04-05T11:23:15Z</time>
      </trkpt>
      <trkpt lat="50.25288" lon="4.91748">
        <ele>82.6</ele>
        <time>2025-04-05T11:23:16Z</time>
      </trkpt>
      <trkpt lat="50.25293" lon="4.91747">
        <ele>82.6</ele>
        <time>2025-04-05T11:23:17Z</time>
      </trkpt>
      <trkpt lat="50.25298" lon="4.91747">
        <ele>82.8</ele>
        <time>2025-04-05T11:23:18Z</time>
      </trkpt>
      <trkpt lat="50.25304" lon="4.91747">
        <ele>82.8</ele>
        <time>2025-04-05T11:23:19Z</time>
      </trkpt>
      <trkpt lat="50.25308" lon="4.91747">
        <ele>82.8</ele>
        <time>2025-04-05T11:23:20Z</time>
      </trkpt>
      <trkpt lat="50.25313" lon="4.91747">
        <ele>82.8</ele>
        <time>2025-04-05T11:23:21Z</time>
      </trkpt>
      <trkpt lat="50.25317" lon="4.91746">
        <ele>82.8</ele>
        <time>2025-04-05T11:23:22Z</time>
      </trkpt>
      <trkpt lat="50.25322" lon="4.91745">
        <ele>83</ele>
        <time>2025-04-05T11:23:23Z</time>
      </trkpt>
      <trkpt lat="50.25326" lon="4.91743">
        <ele>83</ele>
        <time>2025-04-05T11:23:24Z</time>
      </trkpt>
      <trkpt lat="50.2533" lon="4.91743">
        <ele>83</ele>
        <time>2025-04-05T11:23:25Z</time>
      </trkpt>
      <trkpt lat="50.25334" lon="4.91742">
        <ele>83.2</ele>
        <time>2025-04-05T11:23:26Z</time>
      </trkpt>
      <trkpt lat="50.25339" lon="4.91741">
        <ele>83.2</ele>
        <time>2025-04-05T11:23:27Z</time>
      </trkpt>
      <trkpt lat="50.25344" lon="4.9174">
        <ele>83.2</ele>
        <time>2025-04-05T11:23:28Z</time>
      </trkpt>
      <trkpt lat="50.25349" lon="4.9174">
        <ele>83.2</ele>
        <time>2025-04-05T11:23:29Z</time>
      </trkpt>
      <trkpt lat="50.25354" lon="4.91739">
        <ele>83.4</ele>
        <time>2025-04-05T11:23:30Z</time>
      </trkpt>
      <trkpt lat="50.25357" lon="4.91739">
        <ele>83.4</ele>
        <time>2025-04-05T11:23:31Z</time>
      </trkpt>
      <trkpt lat="50.25362" lon="4.91737">
        <ele>83.4</ele>
        <time>2025-04-05T11:23:32Z</time>
      </trkpt>
      <trkpt lat="50.25366" lon="4.91736">
        <ele>83.4</ele>
        <time>2025-04-05T11:23:33Z</time>
      </trkpt>
      <trkpt lat="50.2537" lon="4.91735">
        <ele>83.4</ele>
        <time>2025-04-05T11:23:34Z</time>
      </trkpt>
      <trkpt lat="50.25375" lon="4.91735">
        <ele>83.4</ele>
        <time>2025-04-05T11:23:35Z</time>
      </trkpt>
      <trkpt lat="50.25378" lon="4.91736">
        <ele>83.4</ele>
        <time>2025-04-05T11:23:36Z</time>
      </trkpt>
      <trkpt lat="50.25383" lon="4.91736">
        <ele>83.4</ele>
        <time>2025-04-05T11:23:37Z</time>
      </trkpt>
      <trkpt lat="50.25393" lon="4.91736">
        <ele>83.4</ele>
        <time>2025-04-05T11:23:38Z</time>
      </trkpt>
      <trkpt lat="50.254" lon="4.91736">
        <ele>83.4</ele>
        <time>2025-04-05T11:23:39Z</time>
      </trkpt>
      <trkpt lat="50.25406" lon="4.91735">
        <ele>83.4</ele>
        <time>2025-04-05T11:23:40Z</time>
      </trkpt>
      <trkpt lat="50.25411" lon="4.91734">
        <ele>83.2</ele>
        <time>2025-04-05T11:23:41Z</time>
      </trkpt>
      <trkpt lat="50.25416" lon="4.91732">
        <ele>83.2</ele>
        <time>2025-04-05T11:23:42Z</time>
      </trkpt>
      <trkpt lat="50.25423" lon="4.9173">
        <ele>83.2</ele>
        <time>2025-04-05T11:23:43Z</time>
      </trkpt>
      <trkpt lat="50.25428" lon="4.91729">
        <ele>83.2</ele>
        <time>2025-04-05T11:23:44Z</time>
      </trkpt>
      <trkpt lat="50.25434" lon="4.91728">
        <ele>83.2</ele>
        <time>2025-04-05T11:23:45Z</time>
      </trkpt>
      <trkpt lat="50.2544" lon="4.91728">
        <ele>83.2</ele>
        <time>2025-04-05T11:23:46Z</time>
      </trkpt>
      <trkpt lat="50.25446" lon="4.91729">
        <ele>83.2</ele>
        <time>2025-04-05T11:23:47Z</time>
      </trkpt>
      <trkpt lat="50.25451" lon="4.91728">
        <ele>83.4</ele>
        <time>2025-04-05T11:23:48Z</time>
      </trkpt>
      <trkpt lat="50.25457" lon="4.91727">
        <ele>83.4</ele>
        <time>2025-04-05T11:23:49Z</time>
      </trkpt>
      <trkpt lat="50.25464" lon="4.91723">
        <ele>83.4</ele>
        <time>2025-04-05T11:23:50Z</time>
      </trkpt>
      <trkpt lat="50.2547" lon="4.91718">
        <ele>83.4</ele>
        <time>2025-04-05T11:23:51Z</time>
      </trkpt>
      <trkpt lat="50.25477" lon="4.91714">
        <ele>83.4</ele>
        <time>2025-04-05T11:23:52Z</time>
      </trkpt>
      <trkpt lat="50.25483" lon="4.9171">
        <ele>83.2</ele>
        <time>2025-04-05T11:23:53Z</time>
      </trkpt>
      <trkpt lat="50.25489" lon="4.91706">
        <ele>83.2</ele>
        <time>2025-04-05T11:23:54Z</time>
      </trkpt>
      <trkpt lat="50.25496" lon="4.91702">
        <ele>83.2</ele>
        <time>2025-04-05T11:23:55Z</time>
      </trkpt>
      <trkpt lat="50.25501" lon="4.91698">
        <ele>83.2</ele>
        <time>2025-04-05T11:23:56Z</time>
      </trkpt>
      <trkpt lat="50.25505" lon="4.91694">
        <ele>83.2</ele>
        <time>2025-04-05T11:23:57Z</time>
      </trkpt>
      <trkpt lat="50.25509" lon="4.9169">
        <ele>83.2</ele>
        <time>2025-04-05T11:23:58Z</time>
      </trkpt>
      <trkpt lat="50.25513" lon="4.91688">
        <ele>83.2</ele>
        <time>2025-04-05T11:23:59Z</time>
      </trkpt>
      <trkpt lat="50.25519" lon="4.91686">
        <ele>83.2</ele>
        <time>2025-04-05T11:24:00Z</time>
      </trkpt>
      <trkpt lat="50.25525" lon="4.91682">
        <ele>83.2</ele>
        <time>2025-04-05T11:24:01Z</time>
      </trkpt>
      <trkpt lat="50.2553" lon="4.91679">
        <ele>83.2</ele>
        <time>2025-04-05T11:24:02Z</time>
      </trkpt>
      <trkpt lat="50.25534" lon="4.91676">
        <ele>83.2</ele>
        <time>2025-04-05T11:24:03Z</time>
      </trkpt>
      <trkpt lat="50.25538" lon="4.91673">
        <ele>83</ele>
        <time>2025-04-05T11:24:04Z</time>
      </trkpt>
      <trkpt lat="50.25543" lon="4.91669">
        <ele>83</ele>
        <time>2025-04-05T11:24:05Z</time>
      </trkpt>
      <trkpt lat="50.25548" lon="4.91665">
        <ele>83</ele>
        <time>2025-04-05T11:24:06Z</time>
      </trkpt>
      <trkpt lat="50.25552" lon="4.9166">
        <ele>82.8</ele>
        <time>2025-04-05T11:24:07Z</time>
      </trkpt>
      <trkpt lat="50.25557" lon="4.91657">
        <ele>82.8</ele>
        <time>2025-04-05T11:24:08Z</time>
      </trkpt>
      <trkpt lat="50.25561" lon="4.91653">
        <ele>82.8</ele>
        <time>2025-04-05T11:24:09Z</time>
      </trkpt>
      <trkpt lat="50.25565" lon="4.91648">
        <ele>82.8</ele>
        <time>2025-04-05T11:24:10Z</time>
      </trkpt>
      <trkpt lat="50.2557" lon="4.91644">
        <ele>82.6</ele>
        <time>2025-04-05T11:24:11Z</time>
      </trkpt>
      <trkpt lat="50.25574" lon="4.91641">
        <ele>82.6</ele>
        <time>2025-04-05T11:24:12Z</time>
      </trkpt>
      <trkpt lat="50.25579" lon="4.91639">
        <ele>82.6</ele>
        <time>2025-04-05T11:24:13Z</time>
      </trkpt>
      <trkpt lat="50.25583" lon="4.91636">
        <ele>82.6</ele>
        <time>2025-04-05T11:24:14Z</time>
      </trkpt>
      <trkpt lat="50.25588" lon="4.91632">
        <ele>82.4</ele>
        <time>2025-04-05T11:24:15Z</time>
      </trkpt>
      <trkpt lat="50.25596" lon="4.91628">
        <ele>82.4</ele>
        <time>2025-04-05T11:24:16Z</time>
      </trkpt>
      <trkpt lat="50.25603" lon="4.91626">
        <ele>82.4</ele>
        <time>2025-04-05T11:24:17Z</time>
      </trkpt>
      <trkpt lat="50.25608" lon="4.91623">
        <ele>82.2</ele>
        <time>2025-04-05T11:24:18Z</time>
      </trkpt>
      <trkpt lat="50.25615" lon="4.91619">
        <ele>82.2</ele>
        <time>2025-04-05T11:24:19Z</time>
      </trkpt>
      <trkpt lat="50.25621" lon="4.91614">
        <ele>82.2</ele>
        <time>2025-04-05T11:24:20Z</time>
      </trkpt>
      <trkpt lat="50.25627" lon="4.91609">
        <ele>82.2</ele>
        <time>2025-04-05T11:24:21Z</time>
      </trkpt>
      <trkpt lat="50.25631" lon="4.91605">
        <ele>82</ele>
        <time>2025-04-05T11:24:22Z</time>
      </trkpt>
      <trkpt lat="50.25636" lon="4.91601">
        <ele>82</ele>
        <time>2025-04-05T11:24:23Z</time>
      </trkpt>
      <trkpt lat="50.25642" lon="4.91596">
        <ele>82</ele>
        <time>2025-04-05T11:24:24Z</time>
      </trkpt>
      <trkpt lat="50.25648" lon="4.91592">
        <ele>82</ele>
        <time>2025-04-05T11:24:25Z</time>
      </trkpt>
      <trkpt lat="50.25654" lon="4.91588">
        <ele>82</ele>
        <time>2025-04-05T11:24:26Z</time>
      </trkpt>
      <trkpt lat="50.25659" lon="4.91584">
        <ele>82.2</ele>
        <time>2025-04-05T11:24:27Z</time>
      </trkpt>
      <trkpt lat="50.25665" lon="4.91578">
        <ele>82.2</ele>
        <time>2025-04-05T11:24:28Z</time>
      </trkpt>
      <trkpt lat="50.25671" lon="4.91572">
        <ele>82.2</ele>
        <time>2025-04-05T11:24:29Z</time>
      </trkpt>
      <trkpt lat="50.25677" lon="4.91566">
        <ele>82.2</ele>
        <time>2025-04-05T11:24:30Z</time>
      </trkpt>
      <trkpt lat="50.25683" lon="4.91559">
        <ele>82.2</ele>
        <time>2025-04-05T11:24:31Z</time>
      </trkpt>
      <trkpt lat="50.2569" lon="4.91553">
        <ele>82.2</ele>
        <time>2025-04-05T11:24:32Z</time>
      </trkpt>
      <trkpt lat="50.25697" lon="4.91549">
        <ele>82.2</ele>
        <time>2025-04-05T11:24:33Z</time>
      </trkpt>
      <trkpt lat="50.25705" lon="4.91545">
        <ele>82.2</ele>
        <time>2025-04-05T11:24:34Z</time>
      </trkpt>
      <trkpt lat="50.25709" lon="4.9154">
        <ele>82.2</ele>
        <time>2025-04-05T11:24:35Z</time>
      </trkpt>
      <trkpt lat="50.25712" lon="4.91533">
        <ele>82.2</ele>
        <time>2025-04-05T11:24:36Z</time>
      </trkpt>
      <trkpt lat="50.25716" lon="4.91526">
        <ele>82.4</ele>
        <time>2025-04-05T11:24:37Z</time>
      </trkpt>
      <trkpt lat="50.25722" lon="4.9152">
        <ele>82.4</ele>
        <time>2025-04-05T11:24:38Z</time>
      </trkpt>
      <trkpt lat="50.25726" lon="4.91514">
        <ele>82.4</ele>
        <time>2025-04-05T11:24:39Z</time>
      </trkpt>
      <trkpt lat="50.2573" lon="4.91508">
        <ele>82.4</ele>
        <time>2025-04-05T11:24:40Z</time>
      </trkpt>
      <trkpt lat="50.25734" lon="4.91501">
        <ele>82.2</ele>
        <time>2025-04-05T11:24:41Z</time>
      </trkpt>
      <trkpt lat="50.25739" lon="4.91495">
        <ele>82.2</ele>
        <time>2025-04-05T11:24:42Z</time>
      </trkpt>
      <trkpt lat="50.25744" lon="4.91489">
        <ele>82.2</ele>
        <time>2025-04-05T11:24:43Z</time>
      </trkpt>
      <trkpt lat="50.25748" lon="4.91485">
        <ele>82.2</ele>
        <time>2025-04-05T11:24:44Z</time>
      </trkpt>
      <trkpt lat="50.25752" lon="4.91481">
        <ele>82</ele>
        <time>2025-04-05T11:24:45Z</time>
      </trkpt>
      <trkpt lat="50.25757" lon="4.91478">
        <ele>82</ele>
        <time>2025-04-05T11:24:46Z</time>
      </trkpt>
      <trkpt lat="50.25762" lon="4.91474">
        <ele>82</ele>
        <time>2025-04-05T11:24:47Z</time>
      </trkpt>
      <trkpt lat="50.25767" lon="4.9147">
        <ele>82</ele>
        <time>2025-04-05T11:24:48Z</time>
      </trkpt>
      <trkpt lat="50.25772" lon="4.91466">
        <ele>82</ele>
        <time>2025-04-05T11:24:49Z</time>
      </trkpt>
      <trkpt lat="50.25777" lon="4.91462">
        <ele>82.2</ele>
        <time>2025-04-05T11:24:50Z</time>
      </trkpt>
      <trkpt lat="50.25781" lon="4.91459">
        <ele>82.2</ele>
        <time>2025-04-05T11:24:51Z</time>
      </trkpt>
      <trkpt lat="50.25785" lon="4.91455">
        <ele>82.2</ele>
        <time>2025-04-05T11:24:52Z</time>
      </trkpt>
      <trkpt lat="50.25789" lon="4.91451">
        <ele>82</ele>
        <time>2025-04-05T11:24:53Z</time>
      </trkpt>
      <trkpt lat="50.25794" lon="4.91447">
        <ele>82</ele>
        <time>2025-04-05T11:24:54Z</time>
      </trkpt>
      <trkpt lat="50.25799" lon="4.91443">
        <ele>82</ele>
        <time>2025-04-05T11:24:55Z</time>
      </trkpt>
      <trkpt lat="50.25805" lon="4.91439">
        <ele>82</ele>
        <time>2025-04-05T11:24:56Z</time>
      </trkpt>
      <trkpt lat="50.2581" lon="4.91436">
        <ele>82</ele>
        <time>2025-04-05T11:24:57Z</time>
      </trkpt>
      <trkpt lat="50.25814" lon="4.91433">
        <ele>82</ele>
        <time>2025-04-05T11:24:58Z</time>
      </trkpt>
      <trkpt lat="50.25818" lon="4.9143">
        <ele>82.2</ele>
        <time>2025-04-05T11:24:59Z</time>
      </trkpt>
      <trkpt lat="50.25822" lon="4.91426">
        <ele>82.2</ele>
        <time>2025-04-05T11:25:00Z</time>
      </trkpt>
      <trkpt lat="50.25827" lon="4.91422">
        <ele>82.2</ele>
        <time>2025-04-05T11:25:01Z</time>
      </trkpt>
      <trkpt lat="50.25831" lon="4.91418">
        <ele>82.2</ele>
        <time>2025-04-05T11:25:02Z</time>
      </trkpt>
      <trkpt lat="50.25836" lon="4.91415">
        <ele>82</ele>
        <time>2025-04-05T11:25:03Z</time>
      </trkpt>
      <trkpt lat="50.25841" lon="4.9141">
        <ele>82.2</ele>
        <time>2025-04-05T11:25:04Z</time>
      </trkpt>
      <trkpt lat="50.25846" lon="4.91406">
        <ele>82.2</ele>
        <time>2025-04-05T11:25:05Z</time>
      </trkpt>
      <trkpt lat="50.2585" lon="4.91401">
        <ele>82.2</ele>
        <time>2025-04-05T11:25:06Z</time>
      </trkpt>
      <trkpt lat="50.25855" lon="4.91398">
        <ele>82.2</ele>
        <time>2025-04-05T11:25:07Z</time>
      </trkpt>
      <trkpt lat="50.2586" lon="4.91396">
        <ele>82.2</ele>
        <time>2025-04-05T11:25:08Z</time>
      </trkpt>
      <trkpt lat="50.25866" lon="4.91393">
        <ele>82.4</ele>
        <time>2025-04-05T11:25:09Z</time>
      </trkpt>
      <trkpt lat="50.25871" lon="4.9139">
        <ele>82.4</ele>
        <time>2025-04-05T11:25:10Z</time>
      </trkpt>
      <trkpt lat="50.25876" lon="4.91386">
        <ele>82.4</ele>
        <time>2025-04-05T11:25:11Z</time>
      </trkpt>
      <trkpt lat="50.2588" lon="4.91381">
        <ele>82.4</ele>
        <time>2025-04-05T11:25:12Z</time>
      </trkpt>
      <trkpt lat="50.25884" lon="4.91376">
        <ele>82.4</ele>
        <time>2025-04-05T11:25:13Z</time>
      </trkpt>
      <trkpt lat="50.25888" lon="4.91371">
        <ele>82.6</ele>
        <time>2025-04-05T11:25:14Z</time>
      </trkpt>
      <trkpt lat="50.25893" lon="4.91366">
        <ele>82.4</ele>
        <time>2025-04-05T11:25:15Z</time>
      </trkpt>
      <trkpt lat="50.25897" lon="4.91361">
        <ele>82.4</ele>
        <time>2025-04-05T11:25:16Z</time>
      </trkpt>
      <trkpt lat="50.25901" lon="4.91356">
        <ele>82.4</ele>
        <time>2025-04-05T11:25:17Z</time>
      </trkpt>
      <trkpt lat="50.25906" lon="4.91351">
        <ele>82.2</ele>
        <time>2025-04-05T11:25:18Z</time>
      </trkpt>
      <trkpt lat="50.25911" lon="4.91347">
        <ele>82.2</ele>
        <time>2025-04-05T11:25:19Z</time>
      </trkpt>
      <trkpt lat="50.25916" lon="4.91344">
        <ele>82.2</ele>
        <time>2025-04-05T11:25:20Z</time>
      </trkpt>
      <trkpt lat="50.25922" lon="4.91341">
        <ele>82.2</ele>
        <time>2025-04-05T11:25:21Z</time>
      </trkpt>
      <trkpt lat="50.25927" lon="4.91338">
        <ele>82.2</ele>
        <time>2025-04-05T11:25:22Z</time>
      </trkpt>
      <trkpt lat="50.25933" lon="4.91336">
        <ele>82.2</ele>
        <time>2025-04-05T11:25:23Z</time>
      </trkpt>
      <trkpt lat="50.25939" lon="4.91334">
        <ele>82.2</ele>
        <time>2025-04-05T11:25:24Z</time>
      </trkpt>
      <trkpt lat="50.25944" lon="4.91333">
        <ele>82.2</ele>
        <time>2025-04-05T11:25:25Z</time>
      </trkpt>
      <trkpt lat="50.25948" lon="4.91331">
        <ele>82.4</ele>
        <time>2025-04-05T11:25:26Z</time>
      </trkpt>
      <trkpt lat="50.25952" lon="4.9133">
        <ele>82.4</ele>
        <time>2025-04-05T11:25:27Z</time>
      </trkpt>
      <trkpt lat="50.25955" lon="4.91328">
        <ele>82.4</ele>
        <time>2025-04-05T11:25:28Z</time>
      </trkpt>
      <trkpt lat="50.25959" lon="4.91326">
        <ele>82.4</ele>
        <time>2025-04-05T11:25:29Z</time>
      </trkpt>
      <trkpt lat="50.25963" lon="4.91323">
        <ele>82.2</ele>
        <time>2025-04-05T11:25:30Z</time>
      </trkpt>
      <trkpt lat="50.25966" lon="4.91321">
        <ele>82.2</ele>
        <time>2025-04-05T11:25:31Z</time>
      </trkpt>
      <trkpt lat="50.25969" lon="4.91318">
        <ele>82.2</ele>
        <time>2025-04-05T11:25:32Z</time>
      </trkpt>
      <trkpt lat="50.25973" lon="4.91315">
        <ele>82.2</ele>
        <time>2025-04-05T11:25:33Z</time>
      </trkpt>
      <trkpt lat="50.25977" lon="4.91313">
        <ele>82.2</ele>
        <time>2025-04-05T11:25:34Z</time>
      </trkpt>
      <trkpt lat="50.25982" lon="4.91311">
        <ele>82.2</ele>
        <time>2025-04-05T11:25:35Z</time>
      </trkpt>
      <trkpt lat="50.25987" lon="4.91308">
        <ele>82.2</ele>
        <time>2025-04-05T11:25:36Z</time>
      </trkpt>
      <trkpt lat="50.25993" lon="4.91307">
        <ele>82.2</ele>
        <time>2025-04-05T11:25:37Z</time>
      </trkpt>
      <trkpt lat="50.26" lon="4.91306">
        <ele>82.4</ele>
        <time>2025-04-05T11:25:38Z</time>
      </trkpt>
      <trkpt lat="50.26006" lon="4.91304">
        <ele>82.4</ele>
        <time>2025-04-05T11:25:39Z</time>
      </trkpt>
      <trkpt lat="50.26011" lon="4.91301">
        <ele>82.4</ele>
        <time>2025-04-05T11:25:40Z</time>
      </trkpt>
      <trkpt lat="50.26016" lon="4.91299">
        <ele>82.4</ele>
        <time>2025-04-05T11:25:41Z</time>
      </trkpt>
      <trkpt lat="50.2602" lon="4.91297">
        <ele>82.4</ele>
        <time>2025-04-05T11:25:42Z</time>
      </trkpt>
      <trkpt lat="50.26026" lon="4.91295">
        <ele>82.4</ele>
        <time>2025-04-05T11:25:43Z</time>
      </trkpt>
      <trkpt lat="50.26033" lon="4.91292">
        <ele>82.2</ele>
        <time>2025-04-05T11:25:44Z</time>
      </trkpt>
      <trkpt lat="50.26039" lon="4.91288">
        <ele>82.2</ele>
        <time>2025-04-05T11:25:45Z</time>
      </trkpt>
      <trkpt lat="50.26045" lon="4.91285">
        <ele>82.2</ele>
        <time>2025-04-05T11:25:46Z</time>
      </trkpt>
      <trkpt lat="50.26049" lon="4.9128">
        <ele>82.2</ele>
        <time>2025-04-05T11:25:47Z</time>
      </trkpt>
      <trkpt lat="50.26054" lon="4.91274">
        <ele>82.4</ele>
        <time>2025-04-05T11:25:48Z</time>
      </trkpt>
      <trkpt lat="50.26059" lon="4.91269">
        <ele>82.8</ele>
        <time>2025-04-05T11:25:49Z</time>
      </trkpt>
      <trkpt lat="50.26061" lon="4.91264">
        <ele>83</ele>
        <time>2025-04-05T11:25:50Z</time>
      </trkpt>
      <trkpt lat="50.26064" lon="4.91256">
        <ele>83.4</ele>
        <time>2025-04-05T11:25:51Z</time>
      </trkpt>
      <trkpt lat="50.26067" lon="4.91245">
        <ele>83.6</ele>
        <time>2025-04-05T11:25:52Z</time>
      </trkpt>
      <trkpt lat="50.26068" lon="4.91237">
        <ele>83.8</ele>
        <time>2025-04-05T11:25:53Z</time>
      </trkpt>
      <trkpt lat="50.2607" lon="4.91231">
        <ele>83.8</ele>
        <time>2025-04-05T11:25:54Z</time>
      </trkpt>
      <trkpt lat="50.26071" lon="4.91227">
        <ele>83.8</ele>
        <time>2025-04-05T11:25:55Z</time>
      </trkpt>
      <trkpt lat="50.26073" lon="4.91223">
        <ele>83.8</ele>
        <time>2025-04-05T11:25:56Z</time>
      </trkpt>
      <trkpt lat="50.26075" lon="4.9122">
        <ele>83.8</ele>
        <time>2025-04-05T11:25:57Z</time>
      </trkpt>
      <trkpt lat="50.26077" lon="4.91218">
        <ele>83.8</ele>
        <time>2025-04-05T11:25:58Z</time>
      </trkpt>
      <trkpt lat="50.2608" lon="4.91215">
        <ele>83.8</ele>
        <time>2025-04-05T11:25:59Z</time>
      </trkpt>
      <trkpt lat="50.26083" lon="4.91213">
        <ele>83.8</ele>
        <time>2025-04-05T11:26:00Z</time>
      </trkpt>
      <trkpt lat="50.26085" lon="4.9121">
        <ele>83.6</ele>
        <time>2025-04-05T11:26:01Z</time>
      </trkpt>
      <trkpt lat="50.26088" lon="4.91207">
        <ele>83.6</ele>
        <time>2025-04-05T11:26:02Z</time>
      </trkpt>
      <trkpt lat="50.2609" lon="4.91205">
        <ele>83.4</ele>
        <time>2025-04-05T11:26:03Z</time>
      </trkpt>
      <trkpt lat="50.26093" lon="4.91202">
        <ele>83.2</ele>
        <time>2025-04-05T11:26:04Z</time>
      </trkpt>
      <trkpt lat="50.26097" lon="4.912">
        <ele>83</ele>
        <time>2025-04-05T11:26:05Z</time>
      </trkpt>
      <trkpt lat="50.26101" lon="4.91198">
        <ele>83</ele>
        <time>2025-04-05T11:26:06Z</time>
      </trkpt>
      <trkpt lat="50.26105" lon="4.91196">
        <ele>82.8</ele>
        <time>2025-04-05T11:26:07Z</time>
      </trkpt>
      <trkpt lat="50.26109" lon="4.91193">
        <ele>82.8</ele>
        <time>2025-04-05T11:26:08Z</time>
      </trkpt>
      <trkpt lat="50.26114" lon="4.91191">
        <ele>82.6</ele>
        <time>2025-04-05T11:26:09Z</time>
      </trkpt>
      <trkpt lat="50.26118" lon="4.91188">
        <ele>82.6</ele>
        <time>2025-04-05T11:26:10Z</time>
      </trkpt>
      <trkpt lat="50.26122" lon="4.91184">
        <ele>82.6</ele>
        <time>2025-04-05T11:26:11Z</time>
      </trkpt>
      <trkpt lat="50.26126" lon="4.91178">
        <ele>82.6</ele>
        <time>2025-04-05T11:26:12Z</time>
      </trkpt>
      <trkpt lat="50.26131" lon="4.91172">
        <ele>82.4</ele>
        <time>2025-04-05T11:26:13Z</time>
      </trkpt>
      <trkpt lat="50.26135" lon="4.91167">
        <ele>82.4</ele>
        <time>2025-04-05T11:26:14Z</time>
      </trkpt>
      <trkpt lat="50.26139" lon="4.91162">
        <ele>82.4</ele>
        <time>2025-04-05T11:26:15Z</time>
      </trkpt>
      <trkpt lat="50.26143" lon="4.91157">
        <ele>82.4</ele>
        <time>2025-04-05T11:26:16Z</time>
      </trkpt>
      <trkpt lat="50.26147" lon="4.91152">
        <ele>82.4</ele>
        <time>2025-04-05T11:26:17Z</time>
      </trkpt>
      <trkpt lat="50.26151" lon="4.91146">
        <ele>82.4</ele>
        <time>2025-04-05T11:26:18Z</time>
      </trkpt>
      <trkpt lat="50.26156" lon="4.91141">
        <ele>82.4</ele>
        <time>2025-04-05T11:26:19Z</time>
      </trkpt>
      <trkpt lat="50.26159" lon="4.91135">
        <ele>82.4</ele>
        <time>2025-04-05T11:26:20Z</time>
      </trkpt>
      <trkpt lat="50.26164" lon="4.9113">
        <ele>82.6</ele>
        <time>2025-04-05T11:26:21Z</time>
      </trkpt>
      <trkpt lat="50.26169" lon="4.91124">
        <ele>82.6</ele>
        <time>2025-04-05T11:26:22Z</time>
      </trkpt>
      <trkpt lat="50.26173" lon="4.91119">
        <ele>82.6</ele>
        <time>2025-04-05T11:26:23Z</time>
      </trkpt>
      <trkpt lat="50.26177" lon="4.91114">
        <ele>82.6</ele>
        <time>2025-04-05T11:26:24Z</time>
      </trkpt>
      <trkpt lat="50.26181" lon="4.91108">
        <ele>82.6</ele>
        <time>2025-04-05T11:26:25Z</time>
      </trkpt>
      <trkpt lat="50.26185" lon="4.91103">
        <ele>82.6</ele>
        <time>2025-04-05T11:26:26Z</time>
      </trkpt>
      <trkpt lat="50.26191" lon="4.91099">
        <ele>82.6</ele>
        <time>2025-04-05T11:26:27Z</time>
      </trkpt>
      <trkpt lat="50.26197" lon="4.91093">
        <ele>82.6</ele>
        <time>2025-04-05T11:26:28Z</time>
      </trkpt>
      <trkpt lat="50.26203" lon="4.91088">
        <ele>82.6</ele>
        <time>2025-04-05T11:26:29Z</time>
      </trkpt>
      <trkpt lat="50.26208" lon="4.91083">
        <ele>82.6</ele>
        <time>2025-04-05T11:26:30Z</time>
      </trkpt>
      <trkpt lat="50.26212" lon="4.91077">
        <ele>82.6</ele>
        <time>2025-04-05T11:26:31Z</time>
      </trkpt>
      <trkpt lat="50.26215" lon="4.91072">
        <ele>82.4</ele>
        <time>2025-04-05T11:26:32Z</time>
      </trkpt>
      <trkpt lat="50.26218" lon="4.91066">
        <ele>82.4</ele>
        <time>2025-04-05T11:26:33Z</time>
      </trkpt>
      <trkpt lat="50.26222" lon="4.91061">
        <ele>82.4</ele>
        <time>2025-04-05T11:26:34Z</time>
      </trkpt>
      <trkpt lat="50.26224" lon="4.91055">
        <ele>82.4</ele>
        <time>2025-04-05T11:26:35Z</time>
      </trkpt>
      <trkpt lat="50.26227" lon="4.9105">
        <ele>82.4</ele>
        <time>2025-04-05T11:26:36Z</time>
      </trkpt>
      <trkpt lat="50.2623" lon="4.91046">
        <ele>82.4</ele>
        <time>2025-04-05T11:26:37Z</time>
      </trkpt>
      <trkpt lat="50.26233" lon="4.91042">
        <ele>82.4</ele>
        <time>2025-04-05T11:26:38Z</time>
      </trkpt>
      <trkpt lat="50.26236" lon="4.91038">
        <ele>82.4</ele>
        <time>2025-04-05T11:26:39Z</time>
      </trkpt>
      <trkpt lat="50.26241" lon="4.91034">
        <ele>82.4</ele>
        <time>2025-04-05T11:26:40Z</time>
      </trkpt>
      <trkpt lat="50.26244" lon="4.9103">
        <ele>82.4</ele>
        <time>2025-04-05T11:26:41Z</time>
      </trkpt>
      <trkpt lat="50.26248" lon="4.91026">
        <ele>82.6</ele>
        <time>2025-04-05T11:26:42Z</time>
      </trkpt>
      <trkpt lat="50.26252" lon="4.91022">
        <ele>82.6</ele>
        <time>2025-04-05T11:26:43Z</time>
      </trkpt>
      <trkpt lat="50.26255" lon="4.91019">
        <ele>82.6</ele>
        <time>2025-04-05T11:26:44Z</time>
      </trkpt>
      <trkpt lat="50.26256" lon="4.91016">
        <ele>82.4</ele>
        <time>2025-04-05T11:26:45Z</time>
      </trkpt>
      <trkpt lat="50.26256" lon="4.91013">
        <ele>82.4</ele>
        <time>2025-04-05T11:26:46Z</time>
      </trkpt>
      <trkpt lat="50.26254" lon="4.9101">
        <ele>82.2</ele>
        <time>2025-04-05T11:26:47Z</time>
      </trkpt>
      <trkpt lat="50.26252" lon="4.91006">
        <ele>82</ele>
        <time>2025-04-05T11:26:48Z</time>
      </trkpt>
      <trkpt lat="50.26249" lon="4.91">
        <ele>81.8</ele>
        <time>2025-04-05T11:26:49Z</time>
      </trkpt>
      <trkpt lat="50.26245" lon="4.90994">
        <ele>81.6</ele>
        <time>2025-04-05T11:26:50Z</time>
      </trkpt>
      <trkpt lat="50.26241" lon="4.90987">
        <ele>81.4</ele>
        <time>2025-04-05T11:26:51Z</time>
      </trkpt>
      <trkpt lat="50.26239" lon="4.9098">
        <ele>81.2</ele>
        <time>2025-04-05T11:26:52Z</time>
      </trkpt>
      <trkpt lat="50.26238" lon="4.90972">
        <ele>81</ele>
        <time>2025-04-05T11:26:53Z</time>
      </trkpt>
      <trkpt lat="50.26239" lon="4.90964">
        <ele>81</ele>
        <time>2025-04-05T11:26:54Z</time>
      </trkpt>
      <trkpt lat="50.26244" lon="4.90956">
        <ele>80.8</ele>
        <time>2025-04-05T11:26:55Z</time>
      </trkpt>
      <trkpt lat="50.26249" lon="4.90949">
        <ele>80.8</ele>
        <time>2025-04-05T11:26:56Z</time>
      </trkpt>
      <trkpt lat="50.26254" lon="4.90942">
        <ele>80.6</ele>
        <time>2025-04-05T11:26:57Z</time>
      </trkpt>
      <trkpt lat="50.26258" lon="4.90935">
        <ele>80.4</ele>
        <time>2025-04-05T11:26:58Z</time>
      </trkpt>
      <trkpt lat="50.26262" lon="4.90927">
        <ele>80.4</ele>
        <time>2025-04-05T11:26:59Z</time>
      </trkpt>
      <trkpt lat="50.26267" lon="4.9092">
        <ele>80.4</ele>
        <time>2025-04-05T11:27:00Z</time>
      </trkpt>
      <trkpt lat="50.26271" lon="4.90913">
        <ele>80.4</ele>
        <time>2025-04-05T11:27:01Z</time>
      </trkpt>
      <trkpt lat="50.26277" lon="4.90906">
        <ele>80.4</ele>
        <time>2025-04-05T11:27:02Z</time>
      </trkpt>
      <trkpt lat="50.26284" lon="4.90899">
        <ele>80.4</ele>
        <time>2025-04-05T11:27:03Z</time>
      </trkpt>
      <trkpt lat="50.2629" lon="4.90892">
        <ele>80.2</ele>
        <time>2025-04-05T11:27:04Z</time>
      </trkpt>
      <trkpt lat="50.26296" lon="4.90885">
        <ele>80.2</ele>
        <time>2025-04-05T11:27:05Z</time>
      </trkpt>
      <trkpt lat="50.26302" lon="4.90879">
        <ele>80.2</ele>
        <time>2025-04-05T11:27:06Z</time>
      </trkpt>
      <trkpt lat="50.26308" lon="4.90872">
        <ele>80.2</ele>
        <time>2025-04-05T11:27:07Z</time>
      </trkpt>
      <trkpt lat="50.26313" lon="4.90867">
        <ele>80.2</ele>
        <time>2025-04-05T11:27:08Z</time>
      </trkpt>
      <trkpt lat="50.26319" lon="4.90862">
        <ele>80.2</ele>
        <time>2025-04-05T11:27:09Z</time>
      </trkpt>
      <trkpt lat="50.26324" lon="4.90855">
        <ele>80.4</ele>
        <time>2025-04-05T11:27:10Z</time>
      </trkpt>
      <trkpt lat="50.26329" lon="4.90849">
        <ele>80.4</ele>
        <time>2025-04-05T11:27:11Z</time>
      </trkpt>
      <trkpt lat="50.26335" lon="4.90843">
        <ele>80.4</ele>
        <time>2025-04-05T11:27:12Z</time>
      </trkpt>
      <trkpt lat="50.26341" lon="4.90837">
        <ele>80.4</ele>
        <time>2025-04-05T11:27:13Z</time>
      </trkpt>
      <trkpt lat="50.26347" lon="4.90832">
        <ele>80.6</ele>
        <time>2025-04-05T11:27:14Z</time>
      </trkpt>
      <trkpt lat="50.26351" lon="4.90828">
        <ele>80.6</ele>
        <time>2025-04-05T11:27:15Z</time>
      </trkpt>
      <trkpt lat="50.26356" lon="4.90822">
        <ele>80.6</ele>
        <time>2025-04-05T11:27:16Z</time>
      </trkpt>
      <trkpt lat="50.2636" lon="4.90816">
        <ele>80.6</ele>
        <time>2025-04-05T11:27:17Z</time>
      </trkpt>
      <trkpt lat="50.26365" lon="4.90814">
        <ele>80.4</ele>
        <time>2025-04-05T11:27:18Z</time>
      </trkpt>
      <trkpt lat="50.26371" lon="4.90812">
        <ele>80.6</ele>
        <time>2025-04-05T11:27:19Z</time>
      </trkpt>
      <trkpt lat="50.26376" lon="4.90809">
        <ele>80.6</ele>
        <time>2025-04-05T11:27:20Z</time>
      </trkpt>
      <trkpt lat="50.26382" lon="4.90806">
        <ele>80.6</ele>
        <time>2025-04-05T11:27:21Z</time>
      </trkpt>
      <trkpt lat="50.26387" lon="4.90803">
        <ele>80.6</ele>
        <time>2025-04-05T11:27:22Z</time>
      </trkpt>
      <trkpt lat="50.26392" lon="4.908">
        <ele>80.8</ele>
        <time>2025-04-05T11:27:23Z</time>
      </trkpt>
      <trkpt lat="50.26398" lon="4.90798">
        <ele>80.8</ele>
        <time>2025-04-05T11:27:24Z</time>
      </trkpt>
      <trkpt lat="50.26404" lon="4.90795">
        <ele>80.8</ele>
        <time>2025-04-05T11:27:25Z</time>
      </trkpt>
      <trkpt lat="50.2641" lon="4.90793">
        <ele>80.8</ele>
        <time>2025-04-05T11:27:26Z</time>
      </trkpt>
      <trkpt lat="50.26416" lon="4.9079">
        <ele>80.8</ele>
        <time>2025-04-05T11:27:27Z</time>
      </trkpt>
      <trkpt lat="50.26423" lon="4.90787">
        <ele>81</ele>
        <time>2025-04-05T11:27:28Z</time>
      </trkpt>
      <trkpt lat="50.26429" lon="4.90784">
        <ele>80.8</ele>
        <time>2025-04-05T11:27:29Z</time>
      </trkpt>
      <trkpt lat="50.26435" lon="4.90781">
        <ele>80.8</ele>
        <time>2025-04-05T11:27:30Z</time>
      </trkpt>
      <trkpt lat="50.2644" lon="4.90778">
        <ele>80.8</ele>
        <time>2025-04-05T11:27:31Z</time>
      </trkpt>
      <trkpt lat="50.26446" lon="4.90776">
        <ele>80.8</ele>
        <time>2025-04-05T11:27:32Z</time>
      </trkpt>
      <trkpt lat="50.2645" lon="4.90773">
        <ele>80.8</ele>
        <time>2025-04-05T11:27:33Z</time>
      </trkpt>
      <trkpt lat="50.26457" lon="4.9077">
        <ele>81</ele>
        <time>2025-04-05T11:27:34Z</time>
      </trkpt>
      <trkpt lat="50.26462" lon="4.90767">
        <ele>81</ele>
        <time>2025-04-05T11:27:35Z</time>
      </trkpt>
      <trkpt lat="50.26468" lon="4.90765">
        <ele>81</ele>
        <time>2025-04-05T11:27:36Z</time>
      </trkpt>
      <trkpt lat="50.26473" lon="4.90763">
        <ele>81.2</ele>
        <time>2025-04-05T11:27:37Z</time>
      </trkpt>
      <trkpt lat="50.26478" lon="4.90761">
        <ele>81.2</ele>
        <time>2025-04-05T11:27:38Z</time>
      </trkpt>
      <trkpt lat="50.26484" lon="4.90758">
        <ele>81.2</ele>
        <time>2025-04-05T11:27:39Z</time>
      </trkpt>
      <trkpt lat="50.26489" lon="4.90755">
        <ele>81.2</ele>
        <time>2025-04-05T11:27:40Z</time>
      </trkpt>
      <trkpt lat="50.26495" lon="4.90753">
        <ele>81.2</ele>
        <time>2025-04-05T11:27:41Z</time>
      </trkpt>
      <trkpt lat="50.265" lon="4.90751">
        <ele>81</ele>
        <time>2025-04-05T11:27:42Z</time>
      </trkpt>
      <trkpt lat="50.26505" lon="4.90749">
        <ele>81</ele>
        <time>2025-04-05T11:27:43Z</time>
      </trkpt>
      <trkpt lat="50.2651" lon="4.90746">
        <ele>81</ele>
        <time>2025-04-05T11:27:44Z</time>
      </trkpt>
      <trkpt lat="50.26516" lon="4.90743">
        <ele>80.8</ele>
        <time>2025-04-05T11:27:45Z</time>
      </trkpt>
      <trkpt lat="50.26521" lon="4.9074">
        <ele>81</ele>
        <time>2025-04-05T11:27:46Z</time>
      </trkpt>
      <trkpt lat="50.26526" lon="4.90738">
        <ele>81</ele>
        <time>2025-04-05T11:27:47Z</time>
      </trkpt>
      <trkpt lat="50.26532" lon="4.90736">
        <ele>81.2</ele>
        <time>2025-04-05T11:27:48Z</time>
      </trkpt>
      <trkpt lat="50.26537" lon="4.90734">
        <ele>81.2</ele>
        <time>2025-04-05T11:27:49Z</time>
      </trkpt>
      <trkpt lat="50.26542" lon="4.90732">
        <ele>81.4</ele>
        <time>2025-04-05T11:27:50Z</time>
      </trkpt>
      <trkpt lat="50.26547" lon="4.9073">
        <ele>81.6</ele>
        <time>2025-04-05T11:27:51Z</time>
      </trkpt>
      <trkpt lat="50.26553" lon="4.90727">
        <ele>81.6</ele>
        <time>2025-04-05T11:27:52Z</time>
      </trkpt>
      <trkpt lat="50.26559" lon="4.90724">
        <ele>81.6</ele>
        <time>2025-04-05T11:27:53Z</time>
      </trkpt>
      <trkpt lat="50.26564" lon="4.90722">
        <ele>81.6</ele>
        <time>2025-04-05T11:27:54Z</time>
      </trkpt>
      <trkpt lat="50.26569" lon="4.9072">
        <ele>81.6</ele>
        <time>2025-04-05T11:27:55Z</time>
      </trkpt>
      <trkpt lat="50.26574" lon="4.90717">
        <ele>81.6</ele>
        <time>2025-04-05T11:27:56Z</time>
      </trkpt>
      <trkpt lat="50.2658" lon="4.90713">
        <ele>81.6</ele>
        <time>2025-04-05T11:27:57Z</time>
      </trkpt>
      <trkpt lat="50.26585" lon="4.9071">
        <ele>81.6</ele>
        <time>2025-04-05T11:27:58Z</time>
      </trkpt>
      <trkpt lat="50.26591" lon="4.90707">
        <ele>81.6</ele>
        <time>2025-04-05T11:27:59Z</time>
      </trkpt>
      <trkpt lat="50.26597" lon="4.90704">
        <ele>81.6</ele>
        <time>2025-04-05T11:28:00Z</time>
      </trkpt>
      <trkpt lat="50.26602" lon="4.90702">
        <ele>81.6</ele>
        <time>2025-04-05T11:28:01Z</time>
      </trkpt>
      <trkpt lat="50.26607" lon="4.907">
        <ele>81.6</ele>
        <time>2025-04-05T11:28:02Z</time>
      </trkpt>
      <trkpt lat="50.26613" lon="4.90698">
        <ele>81.4</ele>
        <time>2025-04-05T11:28:03Z</time>
      </trkpt>
      <trkpt lat="50.26618" lon="4.90696">
        <ele>81.2</ele>
        <time>2025-04-05T11:28:04Z</time>
      </trkpt>
      <trkpt lat="50.26625" lon="4.90694">
        <ele>81.2</ele>
        <time>2025-04-05T11:28:05Z</time>
      </trkpt>
      <trkpt lat="50.26631" lon="4.90692">
        <ele>81.2</ele>
        <time>2025-04-05T11:28:06Z</time>
      </trkpt>
      <trkpt lat="50.26636" lon="4.90689">
        <ele>81.2</ele>
        <time>2025-04-05T11:28:07Z</time>
      </trkpt>
      <trkpt lat="50.26641" lon="4.90687">
        <ele>81.2</ele>
        <time>2025-04-05T11:28:08Z</time>
      </trkpt>
      <trkpt lat="50.26647" lon="4.90684">
        <ele>81</ele>
        <time>2025-04-05T11:28:09Z</time>
      </trkpt>
      <trkpt lat="50.26653" lon="4.90681">
        <ele>81</ele>
        <time>2025-04-05T11:28:10Z</time>
      </trkpt>
      <trkpt lat="50.26658" lon="4.90679">
        <ele>81.2</ele>
        <time>2025-04-05T11:28:11Z</time>
      </trkpt>
      <trkpt lat="50.26664" lon="4.90677">
        <ele>81.2</ele>
        <time>2025-04-05T11:28:12Z</time>
      </trkpt>
      <trkpt lat="50.26669" lon="4.90675">
        <ele>81.2</ele>
        <time>2025-04-05T11:28:13Z</time>
      </trkpt>
      <trkpt lat="50.26675" lon="4.90672">
        <ele>81.2</ele>
        <time>2025-04-05T11:28:14Z</time>
      </trkpt>
      <trkpt lat="50.26681" lon="4.90669">
        <ele>81.4</ele>
        <time>2025-04-05T11:28:15Z</time>
      </trkpt>
      <trkpt lat="50.26687" lon="4.90667">
        <ele>81.2</ele>
        <time>2025-04-05T11:28:16Z</time>
      </trkpt>
      <trkpt lat="50.26692" lon="4.90664">
        <ele>81.2</ele>
        <time>2025-04-05T11:28:17Z</time>
      </trkpt>
      <trkpt lat="50.26698" lon="4.90661">
        <ele>81</ele>
        <time>2025-04-05T11:28:18Z</time>
      </trkpt>
      <trkpt lat="50.26703" lon="4.90659">
        <ele>80.8</ele>
        <time>2025-04-05T11:28:19Z</time>
      </trkpt>
      <trkpt lat="50.26709" lon="4.90656">
        <ele>80.8</ele>
        <time>2025-04-05T11:28:20Z</time>
      </trkpt>
      <trkpt lat="50.26716" lon="4.90653">
        <ele>80.8</ele>
        <time>2025-04-05T11:28:21Z</time>
      </trkpt>
      <trkpt lat="50.26721" lon="4.9065">
        <ele>80.8</ele>
        <time>2025-04-05T11:28:22Z</time>
      </trkpt>
      <trkpt lat="50.26727" lon="4.90648">
        <ele>81</ele>
        <time>2025-04-05T11:28:23Z</time>
      </trkpt>
      <trkpt lat="50.26733" lon="4.90645">
        <ele>81</ele>
        <time>2025-04-05T11:28:24Z</time>
      </trkpt>
      <trkpt lat="50.2674" lon="4.90642">
        <ele>81</ele>
        <time>2025-04-05T11:28:25Z</time>
      </trkpt>
      <trkpt lat="50.26746" lon="4.90639">
        <ele>81</ele>
        <time>2025-04-05T11:28:26Z</time>
      </trkpt>
      <trkpt lat="50.26751" lon="4.90637">
        <ele>81</ele>
        <time>2025-04-05T11:28:27Z</time>
      </trkpt>
      <trkpt lat="50.26756" lon="4.90635">
        <ele>81</ele>
        <time>2025-04-05T11:28:28Z</time>
      </trkpt>
      <trkpt lat="50.26762" lon="4.90632">
        <ele>81.2</ele>
        <time>2025-04-05T11:28:29Z</time>
      </trkpt>
      <trkpt lat="50.26769" lon="4.90628">
        <ele>81</ele>
        <time>2025-04-05T11:28:30Z</time>
      </trkpt>
      <trkpt lat="50.26774" lon="4.90625">
        <ele>81.2</ele>
        <time>2025-04-05T11:28:31Z</time>
      </trkpt>
      <trkpt lat="50.26779" lon="4.90622">
        <ele>81.2</ele>
        <time>2025-04-05T11:28:32Z</time>
      </trkpt>
      <trkpt lat="50.26785" lon="4.90619">
        <ele>81</ele>
        <time>2025-04-05T11:28:33Z</time>
      </trkpt>
      <trkpt lat="50.26791" lon="4.90616">
        <ele>81</ele>
        <time>2025-04-05T11:28:34Z</time>
      </trkpt>
      <trkpt lat="50.26797" lon="4.90611">
        <ele>81</ele>
        <time>2025-04-05T11:28:35Z</time>
      </trkpt>
      <trkpt lat="50.26802" lon="4.90608">
        <ele>81</ele>
        <time>2025-04-05T11:28:36Z</time>
      </trkpt>
      <trkpt lat="50.26807" lon="4.90604">
        <ele>81</ele>
        <time>2025-04-05T11:28:37Z</time>
      </trkpt>
      <trkpt lat="50.26813" lon="4.906">
        <ele>81</ele>
        <time>2025-04-05T11:28:38Z</time>
      </trkpt>
      <trkpt lat="50.26819" lon="4.90596">
        <ele>81.2</ele>
        <time>2025-04-05T11:28:39Z</time>
      </trkpt>
      <trkpt lat="50.26825" lon="4.90592">
        <ele>81.2</ele>
        <time>2025-04-05T11:28:40Z</time>
      </trkpt>
      <trkpt lat="50.2683" lon="4.90588">
        <ele>81.2</ele>
        <time>2025-04-05T11:28:41Z</time>
      </trkpt>
      <trkpt lat="50.26835" lon="4.90584">
        <ele>81</ele>
        <time>2025-04-05T11:28:42Z</time>
      </trkpt>
      <trkpt lat="50.26841" lon="4.90579">
        <ele>81</ele>
        <time>2025-04-05T11:28:43Z</time>
      </trkpt>
      <trkpt lat="50.26846" lon="4.90574">
        <ele>81</ele>
        <time>2025-04-05T11:28:44Z</time>
      </trkpt>
      <trkpt lat="50.26851" lon="4.90571">
        <ele>80.8</ele>
        <time>2025-04-05T11:28:45Z</time>
      </trkpt>
      <trkpt lat="50.26856" lon="4.90566">
        <ele>80.8</ele>
        <time>2025-04-05T11:28:46Z</time>
      </trkpt>
      <trkpt lat="50.26862" lon="4.90561">
        <ele>80.6</ele>
        <time>2025-04-05T11:28:47Z</time>
      </trkpt>
      <trkpt lat="50.26867" lon="4.90557">
        <ele>80.8</ele>
        <time>2025-04-05T11:28:48Z</time>
      </trkpt>
      <trkpt lat="50.26872" lon="4.90554">
        <ele>80.8</ele>
        <time>2025-04-05T11:28:49Z</time>
      </trkpt>
      <trkpt lat="50.26877" lon="4.90549">
        <ele>81</ele>
        <time>2025-04-05T11:28:50Z</time>
      </trkpt>
      <trkpt lat="50.26883" lon="4.90545">
        <ele>81</ele>
        <time>2025-04-05T11:28:51Z</time>
      </trkpt>
      <trkpt lat="50.26889" lon="4.9054">
        <ele>81</ele>
        <time>2025-04-05T11:28:52Z</time>
      </trkpt>
      <trkpt lat="50.26895" lon="4.90535">
        <ele>81</ele>
        <time>2025-04-05T11:28:53Z</time>
      </trkpt>
      <trkpt lat="50.26901" lon="4.9053">
        <ele>81</ele>
        <time>2025-04-05T11:28:54Z</time>
      </trkpt>
      <trkpt lat="50.26907" lon="4.90525">
        <ele>81</ele>
        <time>2025-04-05T11:28:55Z</time>
      </trkpt>
      <trkpt lat="50.26912" lon="4.9052">
        <ele>81.2</ele>
        <time>2025-04-05T11:28:56Z</time>
      </trkpt>
      <trkpt lat="50.26918" lon="4.90515">
        <ele>81.2</ele>
        <time>2025-04-05T11:28:57Z</time>
      </trkpt>
      <trkpt lat="50.26924" lon="4.9051">
        <ele>81.2</ele>
        <time>2025-04-05T11:28:58Z</time>
      </trkpt>
      <trkpt lat="50.2693" lon="4.90505">
        <ele>81.2</ele>
        <time>2025-04-05T11:28:59Z</time>
      </trkpt>
      <trkpt lat="50.26935" lon="4.905">
        <ele>81.2</ele>
        <time>2025-04-05T11:29:00Z</time>
      </trkpt>
      <trkpt lat="50.26941" lon="4.90496">
        <ele>81</ele>
        <time>2025-04-05T11:29:01Z</time>
      </trkpt>
      <trkpt lat="50.26947" lon="4.9049">
        <ele>81</ele>
        <time>2025-04-05T11:29:02Z</time>
      </trkpt>
      <trkpt lat="50.26952" lon="4.90485">
        <ele>81.2</ele>
        <time>2025-04-05T11:29:03Z</time>
      </trkpt>
      <trkpt lat="50.26957" lon="4.90481">
        <ele>81.2</ele>
        <time>2025-04-05T11:29:04Z</time>
      </trkpt>
      <trkpt lat="50.26963" lon="4.90476">
        <ele>81.2</ele>
        <time>2025-04-05T11:29:05Z</time>
      </trkpt>
      <trkpt lat="50.26968" lon="4.90471">
        <ele>81.2</ele>
        <time>2025-04-05T11:29:06Z</time>
      </trkpt>
      <trkpt lat="50.26973" lon="4.90467">
        <ele>81.2</ele>
        <time>2025-04-05T11:29:07Z</time>
      </trkpt>
      <trkpt lat="50.26978" lon="4.90463">
        <ele>81.4</ele>
        <time>2025-04-05T11:29:08Z</time>
      </trkpt>
      <trkpt lat="50.26984" lon="4.9046">
        <ele>81.4</ele>
        <time>2025-04-05T11:29:09Z</time>
      </trkpt>
      <trkpt lat="50.26988" lon="4.90456">
        <ele>81.4</ele>
        <time>2025-04-05T11:29:10Z</time>
      </trkpt>
      <trkpt lat="50.26994" lon="4.90451">
        <ele>81.2</ele>
        <time>2025-04-05T11:29:11Z</time>
      </trkpt>
      <trkpt lat="50.26999" lon="4.90446">
        <ele>81.2</ele>
        <time>2025-04-05T11:29:12Z</time>
      </trkpt>
      <trkpt lat="50.27005" lon="4.90441">
        <ele>81.2</ele>
        <time>2025-04-05T11:29:13Z</time>
      </trkpt>
      <trkpt lat="50.27011" lon="4.90436">
        <ele>81.2</ele>
        <time>2025-04-05T11:29:14Z</time>
      </trkpt>
      <trkpt lat="50.27017" lon="4.90431">
        <ele>81.2</ele>
        <time>2025-04-05T11:29:15Z</time>
      </trkpt>
      <trkpt lat="50.27024" lon="4.90425">
        <ele>81.2</ele>
        <time>2025-04-05T11:29:16Z</time>
      </trkpt>
      <trkpt lat="50.27031" lon="4.9042">
        <ele>81.2</ele>
        <time>2025-04-05T11:29:17Z</time>
      </trkpt>
      <trkpt lat="50.27036" lon="4.90415">
        <ele>81.2</ele>
        <time>2025-04-05T11:29:18Z</time>
      </trkpt>
      <trkpt lat="50.27041" lon="4.9041">
        <ele>81.4</ele>
        <time>2025-04-05T11:29:19Z</time>
      </trkpt>
      <trkpt lat="50.27048" lon="4.90405">
        <ele>81.4</ele>
        <time>2025-04-05T11:29:20Z</time>
      </trkpt>
      <trkpt lat="50.27053" lon="4.904">
        <ele>81.4</ele>
        <time>2025-04-05T11:29:21Z</time>
      </trkpt>
      <trkpt lat="50.27058" lon="4.90396">
        <ele>81.6</ele>
        <time>2025-04-05T11:29:22Z</time>
      </trkpt>
      <trkpt lat="50.27063" lon="4.90391">
        <ele>81.6</ele>
        <time>2025-04-05T11:29:23Z</time>
      </trkpt>
      <trkpt lat="50.27069" lon="4.90386">
        <ele>81.6</ele>
        <time>2025-04-05T11:29:24Z</time>
      </trkpt>
      <trkpt lat="50.27075" lon="4.90381">
        <ele>81.6</ele>
        <time>2025-04-05T11:29:25Z</time>
      </trkpt>
      <trkpt lat="50.27081" lon="4.90376">
        <ele>81.8</ele>
        <time>2025-04-05T11:29:26Z</time>
      </trkpt>
      <trkpt lat="50.27086" lon="4.90372">
        <ele>81.6</ele>
        <time>2025-04-05T11:29:27Z</time>
      </trkpt>
      <trkpt lat="50.27092" lon="4.90367">
        <ele>81.6</ele>
        <time>2025-04-05T11:29:28Z</time>
      </trkpt>
      <trkpt lat="50.27097" lon="4.90363">
        <ele>81.6</ele>
        <time>2025-04-05T11:29:29Z</time>
      </trkpt>
      <trkpt lat="50.27103" lon="4.90358">
        <ele>81.4</ele>
        <time>2025-04-05T11:29:30Z</time>
      </trkpt>
      <trkpt lat="50.27108" lon="4.90354">
        <ele>81.4</ele>
        <time>2025-04-05T11:29:31Z</time>
      </trkpt>
      <trkpt lat="50.27113" lon="4.9035">
        <ele>81.4</ele>
        <time>2025-04-05T11:29:32Z</time>
      </trkpt>
      <trkpt lat="50.27118" lon="4.90345">
        <ele>81.4</ele>
        <time>2025-04-05T11:29:33Z</time>
      </trkpt>
      <trkpt lat="50.27123" lon="4.90341">
        <ele>81.4</ele>
        <time>2025-04-05T11:29:34Z</time>
      </trkpt>
      <trkpt lat="50.27128" lon="4.90337">
        <ele>81.6</ele>
        <time>2025-04-05T11:29:35Z</time>
      </trkpt>
      <trkpt lat="50.27134" lon="4.90333">
        <ele>81.6</ele>
        <time>2025-04-05T11:29:36Z</time>
      </trkpt>
      <trkpt lat="50.27139" lon="4.90329">
        <ele>81.4</ele>
        <time>2025-04-05T11:29:37Z</time>
      </trkpt>
      <trkpt lat="50.27144" lon="4.90325">
        <ele>81.4</ele>
        <time>2025-04-05T11:29:38Z</time>
      </trkpt>
      <trkpt lat="50.2715" lon="4.90321">
        <ele>81.4</ele>
        <time>2025-04-05T11:29:39Z</time>
      </trkpt>
      <trkpt lat="50.27156" lon="4.90317">
        <ele>81.6</ele>
        <time>2025-04-05T11:29:40Z</time>
      </trkpt>
      <trkpt lat="50.2716" lon="4.90313">
        <ele>81.6</ele>
        <time>2025-04-05T11:29:41Z</time>
      </trkpt>
      <trkpt lat="50.27165" lon="4.90309">
        <ele>81.6</ele>
        <time>2025-04-05T11:29:42Z</time>
      </trkpt>
      <trkpt lat="50.2717" lon="4.90304">
        <ele>81.4</ele>
        <time>2025-04-05T11:29:43Z</time>
      </trkpt>
      <trkpt lat="50.27175" lon="4.90299">
        <ele>81.4</ele>
        <time>2025-04-05T11:29:44Z</time>
      </trkpt>
      <trkpt lat="50.2718" lon="4.90295">
        <ele>81.4</ele>
        <time>2025-04-05T11:29:45Z</time>
      </trkpt>
      <trkpt lat="50.27184" lon="4.9029">
        <ele>81.4</ele>
        <time>2025-04-05T11:29:46Z</time>
      </trkpt>
      <trkpt lat="50.27189" lon="4.90286">
        <ele>81.4</ele>
        <time>2025-04-05T11:29:47Z</time>
      </trkpt>
      <trkpt lat="50.27194" lon="4.90281">
        <ele>81.4</ele>
        <time>2025-04-05T11:29:48Z</time>
      </trkpt>
      <trkpt lat="50.27199" lon="4.90275">
        <ele>81.4</ele>
        <time>2025-04-05T11:29:49Z</time>
      </trkpt>
      <trkpt lat="50.27203" lon="4.90271">
        <ele>81.4</ele>
        <time>2025-04-05T11:29:50Z</time>
      </trkpt>
      <trkpt lat="50.27207" lon="4.90265">
        <ele>81.4</ele>
        <time>2025-04-05T11:29:51Z</time>
      </trkpt>
      <trkpt lat="50.27212" lon="4.90259">
        <ele>81.4</ele>
        <time>2025-04-05T11:29:52Z</time>
      </trkpt>
      <trkpt lat="50.27216" lon="4.90255">
        <ele>81.4</ele>
        <time>2025-04-05T11:29:53Z</time>
      </trkpt>
      <trkpt lat="50.27221" lon="4.90249">
        <ele>81.4</ele>
        <time>2025-04-05T11:29:54Z</time>
      </trkpt>
      <trkpt lat="50.27226" lon="4.90244">
        <ele>81.4</ele>
        <time>2025-04-05T11:29:55Z</time>
      </trkpt>
      <trkpt lat="50.27232" lon="4.90238">
        <ele>81.4</ele>
        <time>2025-04-05T11:29:56Z</time>
      </trkpt>
      <trkpt lat="50.27237" lon="4.90232">
        <ele>81.2</ele>
        <time>2025-04-05T11:29:57Z</time>
      </trkpt>
      <trkpt lat="50.27242" lon="4.90227">
        <ele>81.2</ele>
        <time>2025-04-05T11:29:58Z</time>
      </trkpt>
      <trkpt lat="50.27247" lon="4.90221">
        <ele>81.2</ele>
        <time>2025-04-05T11:29:59Z</time>
      </trkpt>
      <trkpt lat="50.27253" lon="4.90216">
        <ele>81</ele>
        <time>2025-04-05T11:30:00Z</time>
      </trkpt>
      <trkpt lat="50.27258" lon="4.90211">
        <ele>81</ele>
        <time>2025-04-05T11:30:01Z</time>
      </trkpt>
      <trkpt lat="50.27262" lon="4.90205">
        <ele>81</ele>
        <time>2025-04-05T11:30:02Z</time>
      </trkpt>
      <trkpt lat="50.27268" lon="4.90199">
        <ele>80.8</ele>
        <time>2025-04-05T11:30:03Z</time>
      </trkpt>
      <trkpt lat="50.27272" lon="4.90195">
        <ele>80.8</ele>
        <time>2025-04-05T11:30:04Z</time>
      </trkpt>
      <trkpt lat="50.27276" lon="4.9019">
        <ele>80.8</ele>
        <time>2025-04-05T11:30:05Z</time>
      </trkpt>
      <trkpt lat="50.27281" lon="4.90184">
        <ele>80.8</ele>
        <time>2025-04-05T11:30:06Z</time>
      </trkpt>
      <trkpt lat="50.27286" lon="4.90179">
        <ele>80.6</ele>
        <time>2025-04-05T11:30:07Z</time>
      </trkpt>
      <trkpt lat="50.27292" lon="4.90174">
        <ele>80.6</ele>
        <time>2025-04-05T11:30:08Z</time>
      </trkpt>
      <trkpt lat="50.27297" lon="4.90168">
        <ele>80.6</ele>
        <time>2025-04-05T11:30:09Z</time>
      </trkpt>
      <trkpt lat="50.27303" lon="4.90162">
        <ele>80.4</ele>
        <time>2025-04-05T11:30:10Z</time>
      </trkpt>
      <trkpt lat="50.27307" lon="4.90157">
        <ele>80.4</ele>
        <time>2025-04-05T11:30:11Z</time>
      </trkpt>
      <trkpt lat="50.27311" lon="4.90153">
        <ele>80.4</ele>
        <time>2025-04-05T11:30:12Z</time>
      </trkpt>
      <trkpt lat="50.27316" lon="4.90147">
        <ele>80.4</ele>
        <time>2025-04-05T11:30:13Z</time>
      </trkpt>
      <trkpt lat="50.2732" lon="4.90141">
        <ele>80.2</ele>
        <time>2025-04-05T11:30:14Z</time>
      </trkpt>
      <trkpt lat="50.27325" lon="4.90135">
        <ele>80.2</ele>
        <time>2025-04-05T11:30:15Z</time>
      </trkpt>
      <trkpt lat="50.2733" lon="4.90129">
        <ele>80.2</ele>
        <time>2025-04-05T11:30:16Z</time>
      </trkpt>
      <trkpt lat="50.27336" lon="4.90124">
        <ele>80</ele>
        <time>2025-04-05T11:30:17Z</time>
      </trkpt>
      <trkpt lat="50.27342" lon="4.90118">
        <ele>79.8</ele>
        <time>2025-04-05T11:30:18Z</time>
      </trkpt>
      <trkpt lat="50.27346" lon="4.90112">
        <ele>79.6</ele>
        <time>2025-04-05T11:30:19Z</time>
      </trkpt>
      <trkpt lat="50.27351" lon="4.90106">
        <ele>79.8</ele>
        <time>2025-04-05T11:30:20Z</time>
      </trkpt>
      <trkpt lat="50.27356" lon="4.901">
        <ele>79.8</ele>
        <time>2025-04-05T11:30:21Z</time>
      </trkpt>
      <trkpt lat="50.2736" lon="4.90093">
        <ele>79.8</ele>
        <time>2025-04-05T11:30:22Z</time>
      </trkpt>
      <trkpt lat="50.27364" lon="4.90087">
        <ele>79.8</ele>
        <time>2025-04-05T11:30:23Z</time>
      </trkpt>
      <trkpt lat="50.27369" lon="4.9008">
        <ele>79.8</ele>
        <time>2025-04-05T11:30:24Z</time>
      </trkpt>
      <trkpt lat="50.27373" lon="4.90073">
        <ele>80</ele>
        <time>2025-04-05T11:30:25Z</time>
      </trkpt>
      <trkpt lat="50.27377" lon="4.90066">
        <ele>80</ele>
        <time>2025-04-05T11:30:26Z</time>
      </trkpt>
      <trkpt lat="50.27382" lon="4.90059">
        <ele>80</ele>
        <time>2025-04-05T11:30:27Z</time>
      </trkpt>
      <trkpt lat="50.27386" lon="4.90053">
        <ele>80</ele>
        <time>2025-04-05T11:30:28Z</time>
      </trkpt>
      <trkpt lat="50.2739" lon="4.90047">
        <ele>79.8</ele>
        <time>2025-04-05T11:30:29Z</time>
      </trkpt>
      <trkpt lat="50.27394" lon="4.90041">
        <ele>79.8</ele>
        <time>2025-04-05T11:30:30Z</time>
      </trkpt>
      <trkpt lat="50.27398" lon="4.90035">
        <ele>79.8</ele>
        <time>2025-04-05T11:30:31Z</time>
      </trkpt>
      <trkpt lat="50.27403" lon="4.90028">
        <ele>79.8</ele>
        <time>2025-04-05T11:30:32Z</time>
      </trkpt>
      <trkpt lat="50.27406" lon="4.90023">
        <ele>79.8</ele>
        <time>2025-04-05T11:30:33Z</time>
      </trkpt>
      <trkpt lat="50.27411" lon="4.90017">
        <ele>79.8</ele>
        <time>2025-04-05T11:30:34Z</time>
      </trkpt>
      <trkpt lat="50.27416" lon="4.90012">
        <ele>79.8</ele>
        <time>2025-04-05T11:30:35Z</time>
      </trkpt>
      <trkpt lat="50.2742" lon="4.90007">
        <ele>79.8</ele>
        <time>2025-04-05T11:30:36Z</time>
      </trkpt>
      <trkpt lat="50.27425" lon="4.90001">
        <ele>79.8</ele>
        <time>2025-04-05T11:30:37Z</time>
      </trkpt>
      <trkpt lat="50.2743" lon="4.89996">
        <ele>79.6</ele>
        <time>2025-04-05T11:30:38Z</time>
      </trkpt>
      <trkpt lat="50.27434" lon="4.89991">
        <ele>79.6</ele>
        <time>2025-04-05T11:30:39Z</time>
      </trkpt>
      <trkpt lat="50.27438" lon="4.89986">
        <ele>79.4</ele>
        <time>2025-04-05T11:30:40Z</time>
      </trkpt>
      <trkpt lat="50.27442" lon="4.89981">
        <ele>79.4</ele>
        <time>2025-04-05T11:30:41Z</time>
      </trkpt>
      <trkpt lat="50.27446" lon="4.89976">
        <ele>79.4</ele>
        <time>2025-04-05T11:30:42Z</time>
      </trkpt>
      <trkpt lat="50.27451" lon="4.8997">
        <ele>79.4</ele>
        <time>2025-04-05T11:30:43Z</time>
      </trkpt>
      <trkpt lat="50.27456" lon="4.89965">
        <ele>79.4</ele>
        <time>2025-04-05T11:30:44Z</time>
      </trkpt>
      <trkpt lat="50.27461" lon="4.89958">
        <ele>79.4</ele>
        <time>2025-04-05T11:30:45Z</time>
      </trkpt>
      <trkpt lat="50.27466" lon="4.89952">
        <ele>79.4</ele>
        <time>2025-04-05T11:30:46Z</time>
      </trkpt>
      <trkpt lat="50.2747" lon="4.89947">
        <ele>79.4</ele>
        <time>2025-04-05T11:30:47Z</time>
      </trkpt>
      <trkpt lat="50.27475" lon="4.89941">
        <ele>79.4</ele>
        <time>2025-04-05T11:30:48Z</time>
      </trkpt>
      <trkpt lat="50.2748" lon="4.89935">
        <ele>79.4</ele>
        <time>2025-04-05T11:30:49Z</time>
      </trkpt>
      <trkpt lat="50.27483" lon="4.8993">
        <ele>79.6</ele>
        <time>2025-04-05T11:30:50Z</time>
      </trkpt>
      <trkpt lat="50.27489" lon="4.89923">
        <ele>79.6</ele>
        <time>2025-04-05T11:30:51Z</time>
      </trkpt>
      <trkpt lat="50.27494" lon="4.89918">
        <ele>79.6</ele>
        <time>2025-04-05T11:30:52Z</time>
      </trkpt>
      <trkpt lat="50.27499" lon="4.89914">
        <ele>79.4</ele>
        <time>2025-04-05T11:30:53Z</time>
      </trkpt>
      <trkpt lat="50.27504" lon="4.89909">
        <ele>79.4</ele>
        <time>2025-04-05T11:30:54Z</time>
      </trkpt>
      <trkpt lat="50.2751" lon="4.89902">
        <ele>79.4</ele>
        <time>2025-04-05T11:30:55Z</time>
      </trkpt>
      <trkpt lat="50.27515" lon="4.89897">
        <ele>79.2</ele>
        <time>2025-04-05T11:30:56Z</time>
      </trkpt>
      <trkpt lat="50.27519" lon="4.89891">
        <ele>79.4</ele>
        <time>2025-04-05T11:30:57Z</time>
      </trkpt>
      <trkpt lat="50.27525" lon="4.89886">
        <ele>79.4</ele>
        <time>2025-04-05T11:30:58Z</time>
      </trkpt>
      <trkpt lat="50.2753" lon="4.89881">
        <ele>79.4</ele>
        <time>2025-04-05T11:30:59Z</time>
      </trkpt>
      <trkpt lat="50.27536" lon="4.89875">
        <ele>79.4</ele>
        <time>2025-04-05T11:31:00Z</time>
      </trkpt>
      <trkpt lat="50.27541" lon="4.8987">
        <ele>79.4</ele>
        <time>2025-04-05T11:31:01Z</time>
      </trkpt>
      <trkpt lat="50.27546" lon="4.89865">
        <ele>79.4</ele>
        <time>2025-04-05T11:31:02Z</time>
      </trkpt>
      <trkpt lat="50.27552" lon="4.89859">
        <ele>79.4</ele>
        <time>2025-04-05T11:31:03Z</time>
      </trkpt>
      <trkpt lat="50.27558" lon="4.89854">
        <ele>79.4</ele>
        <time>2025-04-05T11:31:04Z</time>
      </trkpt>
      <trkpt lat="50.27564" lon="4.89848">
        <ele>79.4</ele>
        <time>2025-04-05T11:31:05Z</time>
      </trkpt>
      <trkpt lat="50.27568" lon="4.89843">
        <ele>79.4</ele>
        <time>2025-04-05T11:31:06Z</time>
      </trkpt>
      <trkpt lat="50.27573" lon="4.89838">
        <ele>79.4</ele>
        <time>2025-04-05T11:31:07Z</time>
      </trkpt>
      <trkpt lat="50.27577" lon="4.89833">
        <ele>79.4</ele>
        <time>2025-04-05T11:31:08Z</time>
      </trkpt>
      <trkpt lat="50.27582" lon="4.89829">
        <ele>79.4</ele>
        <time>2025-04-05T11:31:09Z</time>
      </trkpt>
      <trkpt lat="50.27587" lon="4.89824">
        <ele>79.4</ele>
        <time>2025-04-05T11:31:10Z</time>
      </trkpt>
      <trkpt lat="50.27593" lon="4.89819">
        <ele>79.4</ele>
        <time>2025-04-05T11:31:11Z</time>
      </trkpt>
      <trkpt lat="50.27598" lon="4.89815">
        <ele>79.4</ele>
        <time>2025-04-05T11:31:12Z</time>
      </trkpt>
      <trkpt lat="50.27603" lon="4.89811">
        <ele>79.4</ele>
        <time>2025-04-05T11:31:13Z</time>
      </trkpt>
      <trkpt lat="50.27607" lon="4.89807">
        <ele>79.4</ele>
        <time>2025-04-05T11:31:14Z</time>
      </trkpt>
      <trkpt lat="50.27613" lon="4.89803">
        <ele>79.4</ele>
        <time>2025-04-05T11:31:15Z</time>
      </trkpt>
      <trkpt lat="50.27618" lon="4.89799">
        <ele>79.6</ele>
        <time>2025-04-05T11:31:16Z</time>
      </trkpt>
      <trkpt lat="50.27623" lon="4.89796">
        <ele>79.6</ele>
        <time>2025-04-05T11:31:17Z</time>
      </trkpt>
      <trkpt lat="50.27628" lon="4.89793">
        <ele>79.6</ele>
        <time>2025-04-05T11:31:18Z</time>
      </trkpt>
      <trkpt lat="50.27633" lon="4.8979">
        <ele>79.6</ele>
        <time>2025-04-05T11:31:19Z</time>
      </trkpt>
      <trkpt lat="50.27638" lon="4.89787">
        <ele>79.6</ele>
        <time>2025-04-05T11:31:20Z</time>
      </trkpt>
      <trkpt lat="50.27644" lon="4.89784">
        <ele>79.6</ele>
        <time>2025-04-05T11:31:21Z</time>
      </trkpt>
      <trkpt lat="50.27649" lon="4.89781">
        <ele>79.6</ele>
        <time>2025-04-05T11:31:22Z</time>
      </trkpt>
      <trkpt lat="50.27653" lon="4.89779">
        <ele>79.8</ele>
        <time>2025-04-05T11:31:23Z</time>
      </trkpt>
      <trkpt lat="50.27658" lon="4.89776">
        <ele>79.8</ele>
        <time>2025-04-05T11:31:24Z</time>
      </trkpt>
      <trkpt lat="50.27663" lon="4.89774">
        <ele>79.8</ele>
        <time>2025-04-05T11:31:25Z</time>
      </trkpt>
      <trkpt lat="50.27668" lon="4.89772">
        <ele>79.8</ele>
        <time>2025-04-05T11:31:26Z</time>
      </trkpt>
      <trkpt lat="50.27673" lon="4.89771">
        <ele>80</ele>
        <time>2025-04-05T11:31:27Z</time>
      </trkpt>
      <trkpt lat="50.27678" lon="4.89769">
        <ele>80</ele>
        <time>2025-04-05T11:31:28Z</time>
      </trkpt>
      <trkpt lat="50.27682" lon="4.89768">
        <ele>80</ele>
        <time>2025-04-05T11:31:29Z</time>
      </trkpt>
      <trkpt lat="50.27687" lon="4.89767">
        <ele>80</ele>
        <time>2025-04-05T11:31:30Z</time>
      </trkpt>
      <trkpt lat="50.27692" lon="4.89766">
        <ele>79.8</ele>
        <time>2025-04-05T11:31:31Z</time>
      </trkpt>
      <trkpt lat="50.27697" lon="4.89764">
        <ele>80</ele>
        <time>2025-04-05T11:31:32Z</time>
      </trkpt>
      <trkpt lat="50.27704" lon="4.89763">
        <ele>80.2</ele>
        <time>2025-04-05T11:31:33Z</time>
      </trkpt>
      <trkpt lat="50.27709" lon="4.89762">
        <ele>80.4</ele>
        <time>2025-04-05T11:31:34Z</time>
      </trkpt>
      <trkpt lat="50.27715" lon="4.89761">
        <ele>80.6</ele>
        <time>2025-04-05T11:31:35Z</time>
      </trkpt>
      <trkpt lat="50.2772" lon="4.89761">
        <ele>80.8</ele>
        <time>2025-04-05T11:31:36Z</time>
      </trkpt>
      <trkpt lat="50.27725" lon="4.8976">
        <ele>81</ele>
        <time>2025-04-05T11:31:37Z</time>
      </trkpt>
      <trkpt lat="50.27731" lon="4.8976">
        <ele>81.2</ele>
        <time>2025-04-05T11:31:38Z</time>
      </trkpt>
      <trkpt lat="50.27736" lon="4.89759">
        <ele>81.6</ele>
        <time>2025-04-05T11:31:39Z</time>
      </trkpt>
      <trkpt lat="50.27741" lon="4.89759">
        <ele>81.8</ele>
        <time>2025-04-05T11:31:40Z</time>
      </trkpt>
      <trkpt lat="50.27745" lon="4.89758">
        <ele>82.2</ele>
        <time>2025-04-05T11:31:41Z</time>
      </trkpt>
      <trkpt lat="50.2775" lon="4.89758">
        <ele>82.4</ele>
        <time>2025-04-05T11:31:42Z</time>
      </trkpt>
      <trkpt lat="50.27755" lon="4.89758">
        <ele>82.6</ele>
        <time>2025-04-05T11:31:43Z</time>
      </trkpt>
      <trkpt lat="50.27759" lon="4.89757">
        <ele>82.8</ele>
        <time>2025-04-05T11:31:44Z</time>
      </trkpt>
      <trkpt lat="50.27763" lon="4.89756">
        <ele>83.2</ele>
        <time>2025-04-05T11:31:45Z</time>
      </trkpt>
      <trkpt lat="50.27768" lon="4.89756">
        <ele>83.4</ele>
        <time>2025-04-05T11:31:46Z</time>
      </trkpt>
      <trkpt lat="50.27773" lon="4.89755">
        <ele>83.6</ele>
        <time>2025-04-05T11:31:47Z</time>
      </trkpt>
      <trkpt lat="50.27778" lon="4.89753">
        <ele>84</ele>
        <time>2025-04-05T11:31:48Z</time>
      </trkpt>
      <trkpt lat="50.27782" lon="4.89752">
        <ele>84.2</ele>
        <time>2025-04-05T11:31:49Z</time>
      </trkpt>
      <trkpt lat="50.27786" lon="4.89751">
        <ele>84.4</ele>
        <time>2025-04-05T11:31:50Z</time>
      </trkpt>
      <trkpt lat="50.2779" lon="4.8975">
        <ele>84.6</ele>
        <time>2025-04-05T11:31:51Z</time>
      </trkpt>
      <trkpt lat="50.27794" lon="4.8975">
        <ele>84.8</ele>
        <time>2025-04-05T11:31:52Z</time>
      </trkpt>
      <trkpt lat="50.27799" lon="4.89749">
        <ele>85</ele>
        <time>2025-04-05T11:31:53Z</time>
      </trkpt>
      <trkpt lat="50.27803" lon="4.89748">
        <ele>85.2</ele>
        <time>2025-04-05T11:31:54Z</time>
      </trkpt>
      <trkpt lat="50.27807" lon="4.89746">
        <ele>85.6</ele>
        <time>2025-04-05T11:31:55Z</time>
      </trkpt>
      <trkpt lat="50.2781" lon="4.89745">
        <ele>85.8</ele>
        <time>2025-04-05T11:31:56Z</time>
      </trkpt>
      <trkpt lat="50.27814" lon="4.89744">
        <ele>86.2</ele>
        <time>2025-04-05T11:31:57Z</time>
      </trkpt>
      <trkpt lat="50.27818" lon="4.89743">
        <ele>86.6</ele>
        <time>2025-04-05T11:31:58Z</time>
      </trkpt>
      <trkpt lat="50.27822" lon="4.89742">
        <ele>86.8</ele>
        <time>2025-04-05T11:31:59Z</time>
      </trkpt>
      <trkpt lat="50.27826" lon="4.89741">
        <ele>87</ele>
        <time>2025-04-05T11:32:00Z</time>
      </trkpt>
      <trkpt lat="50.27829" lon="4.8974">
        <ele>87.2</ele>
        <time>2025-04-05T11:32:01Z</time>
      </trkpt>
      <trkpt lat="50.27833" lon="4.89738">
        <ele>87.4</ele>
        <time>2025-04-05T11:32:02Z</time>
      </trkpt>
      <trkpt lat="50.27837" lon="4.89737">
        <ele>87.8</ele>
        <time>2025-04-05T11:32:03Z</time>
      </trkpt>
      <trkpt lat="50.27841" lon="4.89736">
        <ele>88</ele>
        <time>2025-04-05T11:32:04Z</time>
      </trkpt>
      <trkpt lat="50.27845" lon="4.89735">
        <ele>88.2</ele>
        <time>2025-04-05T11:32:05Z</time>
      </trkpt>
      <trkpt lat="50.27848" lon="4.89734">
        <ele>88.4</ele>
        <time>2025-04-05T11:32:06Z</time>
      </trkpt>
      <trkpt lat="50.27852" lon="4.89732">
        <ele>88.6</ele>
        <time>2025-04-05T11:32:07Z</time>
      </trkpt>
      <trkpt lat="50.27856" lon="4.89731">
        <ele>88.8</ele>
        <time>2025-04-05T11:32:08Z</time>
      </trkpt>
      <trkpt lat="50.2786" lon="4.8973">
        <ele>89</ele>
        <time>2025-04-05T11:32:09Z</time>
      </trkpt>
      <trkpt lat="50.27864" lon="4.89729">
        <ele>89.2</ele>
        <time>2025-04-05T11:32:10Z</time>
      </trkpt>
      <trkpt lat="50.27868" lon="4.89728">
        <ele>89.4</ele>
        <time>2025-04-05T11:32:11Z</time>
      </trkpt>
      <trkpt lat="50.27872" lon="4.89727">
        <ele>89.8</ele>
        <time>2025-04-05T11:32:12Z</time>
      </trkpt>
      <trkpt lat="50.27876" lon="4.89725">
        <ele>90</ele>
        <time>2025-04-05T11:32:13Z</time>
      </trkpt>
      <trkpt lat="50.27881" lon="4.89724">
        <ele>90.2</ele>
        <time>2025-04-05T11:32:14Z</time>
      </trkpt>
      <trkpt lat="50.27885" lon="4.89723">
        <ele>90.4</ele>
        <time>2025-04-05T11:32:15Z</time>
      </trkpt>
      <trkpt lat="50.27889" lon="4.89722">
        <ele>90.6</ele>
        <time>2025-04-05T11:32:16Z</time>
      </trkpt>
      <trkpt lat="50.27893" lon="4.89721">
        <ele>90.8</ele>
        <time>2025-04-05T11:32:17Z</time>
      </trkpt>
      <trkpt lat="50.27897" lon="4.8972">
        <ele>91</ele>
        <time>2025-04-05T11:32:18Z</time>
      </trkpt>
      <trkpt lat="50.27901" lon="4.89718">
        <ele>91</ele>
        <time>2025-04-05T11:32:19Z</time>
      </trkpt>
      <trkpt lat="50.27905" lon="4.89718">
        <ele>91.2</ele>
        <time>2025-04-05T11:32:20Z</time>
      </trkpt>
      <trkpt lat="50.2791" lon="4.89717">
        <ele>91.2</ele>
        <time>2025-04-05T11:32:21Z</time>
      </trkpt>
      <trkpt lat="50.27914" lon="4.89716">
        <ele>91.4</ele>
        <time>2025-04-05T11:32:22Z</time>
      </trkpt>
      <trkpt lat="50.27918" lon="4.89715">
        <ele>91.6</ele>
        <time>2025-04-05T11:32:23Z</time>
      </trkpt>
      <trkpt lat="50.27922" lon="4.89715">
        <ele>91.8</ele>
        <time>2025-04-05T11:32:24Z</time>
      </trkpt>
      <trkpt lat="50.27927" lon="4.89714">
        <ele>92</ele>
        <time>2025-04-05T11:32:25Z</time>
      </trkpt>
      <trkpt lat="50.27931" lon="4.89713">
        <ele>92.2</ele>
        <time>2025-04-05T11:32:26Z</time>
      </trkpt>
      <trkpt lat="50.27936" lon="4.89712">
        <ele>92.4</ele>
        <time>2025-04-05T11:32:27Z</time>
      </trkpt>
      <trkpt lat="50.2794" lon="4.89712">
        <ele>92.4</ele>
        <time>2025-04-05T11:32:28Z</time>
      </trkpt>
      <trkpt lat="50.27944" lon="4.89711">
        <ele>92.6</ele>
        <time>2025-04-05T11:32:29Z</time>
      </trkpt>
      <trkpt lat="50.27948" lon="4.89711">
        <ele>92.8</ele>
        <time>2025-04-05T11:32:30Z</time>
      </trkpt>
      <trkpt lat="50.27953" lon="4.8971">
        <ele>93</ele>
        <time>2025-04-05T11:32:31Z</time>
      </trkpt>
      <trkpt lat="50.27958" lon="4.89709">
        <ele>93.2</ele>
        <time>2025-04-05T11:32:32Z</time>
      </trkpt>
      <trkpt lat="50.27962" lon="4.89709">
        <ele>93.4</ele>
        <time>2025-04-05T11:32:33Z</time>
      </trkpt>
      <trkpt lat="50.27966" lon="4.89709">
        <ele>93.4</ele>
        <time>2025-04-05T11:32:34Z</time>
      </trkpt>
      <trkpt lat="50.2797" lon="4.89708">
        <ele>93.6</ele>
        <time>2025-04-05T11:32:35Z</time>
      </trkpt>
      <trkpt lat="50.27974" lon="4.89708">
        <ele>94</ele>
        <time>2025-04-05T11:32:36Z</time>
      </trkpt>
      <trkpt lat="50.27978" lon="4.89708">
        <ele>94</ele>
        <time>2025-04-05T11:32:37Z</time>
      </trkpt>
      <trkpt lat="50.27982" lon="4.89707">
        <ele>94.2</ele>
        <time>2025-04-05T11:32:38Z</time>
      </trkpt>
      <trkpt lat="50.27986" lon="4.89707">
        <ele>94.4</ele>
        <time>2025-04-05T11:32:39Z</time>
      </trkpt>
      <trkpt lat="50.2799" lon="4.89706">
        <ele>94.4</ele>
        <time>2025-04-05T11:32:40Z</time>
      </trkpt>
      <trkpt lat="50.27995" lon="4.89706">
        <ele>94.6</ele>
        <time>2025-04-05T11:32:41Z</time>
      </trkpt>
      <trkpt lat="50.27999" lon="4.89706">
        <ele>94.8</ele>
        <time>2025-04-05T11:32:42Z</time>
      </trkpt>
      <trkpt lat="50.28003" lon="4.89706">
        <ele>94.8</ele>
        <time>2025-04-05T11:32:43Z</time>
      </trkpt>
      <trkpt lat="50.28007" lon="4.89705">
        <ele>95</ele>
        <time>2025-04-05T11:32:44Z</time>
      </trkpt>
      <trkpt lat="50.28012" lon="4.89704">
        <ele>95</ele>
        <time>2025-04-05T11:32:45Z</time>
      </trkpt>
      <trkpt lat="50.28016" lon="4.89704">
        <ele>95.2</ele>
        <time>2025-04-05T11:32:46Z</time>
      </trkpt>
      <trkpt lat="50.28021" lon="4.89703">
        <ele>95.2</ele>
        <time>2025-04-05T11:32:47Z</time>
      </trkpt>
      <trkpt lat="50.28024" lon="4.89702">
        <ele>95.4</ele>
        <time>2025-04-05T11:32:48Z</time>
      </trkpt>
      <trkpt lat="50.28029" lon="4.89701">
        <ele>95.4</ele>
        <time>2025-04-05T11:32:49Z</time>
      </trkpt>
      <trkpt lat="50.28034" lon="4.897">
        <ele>95.4</ele>
        <time>2025-04-05T11:32:50Z</time>
      </trkpt>
      <trkpt lat="50.28038" lon="4.897">
        <ele>95.4</ele>
        <time>2025-04-05T11:32:51Z</time>
      </trkpt>
      <trkpt lat="50.28043" lon="4.89699">
        <ele>95.4</ele>
        <time>2025-04-05T11:32:52Z</time>
      </trkpt>
      <trkpt lat="50.28048" lon="4.89698">
        <ele>95.4</ele>
        <time>2025-04-05T11:32:53Z</time>
      </trkpt>
      <trkpt lat="50.28053" lon="4.89698">
        <ele>95.4</ele>
        <time>2025-04-05T11:32:54Z</time>
      </trkpt>
      <trkpt lat="50.28058" lon="4.89697">
        <ele>95.4</ele>
        <time>2025-04-05T11:32:55Z</time>
      </trkpt>
      <trkpt lat="50.28062" lon="4.89696">
        <ele>95.4</ele>
        <time>2025-04-05T11:32:56Z</time>
      </trkpt>
      <trkpt lat="50.28067" lon="4.89695">
        <ele>95.6</ele>
        <time>2025-04-05T11:32:57Z</time>
      </trkpt>
      <trkpt lat="50.28072" lon="4.89695">
        <ele>95.6</ele>
        <time>2025-04-05T11:32:58Z</time>
      </trkpt>
      <trkpt lat="50.28077" lon="4.89694">
        <ele>95.8</ele>
        <time>2025-04-05T11:32:59Z</time>
      </trkpt>
      <trkpt lat="50.28082" lon="4.89694">
        <ele>95.8</ele>
        <time>2025-04-05T11:33:00Z</time>
      </trkpt>
      <trkpt lat="50.28086" lon="4.89693">
        <ele>95.8</ele>
        <time>2025-04-05T11:33:01Z</time>
      </trkpt>
      <trkpt lat="50.28091" lon="4.89692">
        <ele>95.8</ele>
        <time>2025-04-05T11:33:02Z</time>
      </trkpt>
      <trkpt lat="50.28097" lon="4.89691">
        <ele>95.8</ele>
        <time>2025-04-05T11:33:03Z</time>
      </trkpt>
      <trkpt lat="50.28102" lon="4.8969">
        <ele>96</ele>
        <time>2025-04-05T11:33:04Z</time>
      </trkpt>
      <trkpt lat="50.28107" lon="4.8969">
        <ele>96</ele>
        <time>2025-04-05T11:33:05Z</time>
      </trkpt>
      <trkpt lat="50.28112" lon="4.89689">
        <ele>96.2</ele>
        <time>2025-04-05T11:33:06Z</time>
      </trkpt>
      <trkpt lat="50.28117" lon="4.89689">
        <ele>96.2</ele>
        <time>2025-04-05T11:33:07Z</time>
      </trkpt>
      <trkpt lat="50.28122" lon="4.89688">
        <ele>96.4</ele>
        <time>2025-04-05T11:33:08Z</time>
      </trkpt>
      <trkpt lat="50.28127" lon="4.89687">
        <ele>96.4</ele>
        <time>2025-04-05T11:33:09Z</time>
      </trkpt>
      <trkpt lat="50.28132" lon="4.89686">
        <ele>96.6</ele>
        <time>2025-04-05T11:33:10Z</time>
      </trkpt>
      <trkpt lat="50.28137" lon="4.89686">
        <ele>96.6</ele>
        <time>2025-04-05T11:33:11Z</time>
      </trkpt>
      <trkpt lat="50.28142" lon="4.89686">
        <ele>96.6</ele>
        <time>2025-04-05T11:33:12Z</time>
      </trkpt>
      <trkpt lat="50.28147" lon="4.89686">
        <ele>96.8</ele>
        <time>2025-04-05T11:33:13Z</time>
      </trkpt>
      <trkpt lat="50.28153" lon="4.89686">
        <ele>96.8</ele>
        <time>2025-04-05T11:33:14Z</time>
      </trkpt>
      <trkpt lat="50.28158" lon="4.89685">
        <ele>96.8</ele>
        <time>2025-04-05T11:33:15Z</time>
      </trkpt>
      <trkpt lat="50.28162" lon="4.89686">
        <ele>97</ele>
        <time>2025-04-05T11:33:16Z</time>
      </trkpt>
      <trkpt lat="50.28169" lon="4.89686">
        <ele>97</ele>
        <time>2025-04-05T11:33:17Z</time>
      </trkpt>
      <trkpt lat="50.28174" lon="4.89685">
        <ele>97</ele>
        <time>2025-04-05T11:33:18Z</time>
      </trkpt>
      <trkpt lat="50.28179" lon="4.89685">
        <ele>97.2</ele>
        <time>2025-04-05T11:33:19Z</time>
      </trkpt>
      <trkpt lat="50.28183" lon="4.89684">
        <ele>97.4</ele>
        <time>2025-04-05T11:33:20Z</time>
      </trkpt>
      <trkpt lat="50.28187" lon="4.89683">
        <ele>97.4</ele>
        <time>2025-04-05T11:33:21Z</time>
      </trkpt>
      <trkpt lat="50.28192" lon="4.89683">
        <ele>97.6</ele>
        <time>2025-04-05T11:33:22Z</time>
      </trkpt>
      <trkpt lat="50.28196" lon="4.89682">
        <ele>97.6</ele>
        <time>2025-04-05T11:33:23Z</time>
      </trkpt>
      <trkpt lat="50.28201" lon="4.89682">
        <ele>97.6</ele>
        <time>2025-04-05T11:33:24Z</time>
      </trkpt>
      <trkpt lat="50.28207" lon="4.89681">
        <ele>97.8</ele>
        <time>2025-04-05T11:33:25Z</time>
      </trkpt>
      <trkpt lat="50.28211" lon="4.8968">
        <ele>97.8</ele>
        <time>2025-04-05T11:33:26Z</time>
      </trkpt>
      <trkpt lat="50.28216" lon="4.8968">
        <ele>97.8</ele>
        <time>2025-04-05T11:33:27Z</time>
      </trkpt>
      <trkpt lat="50.28222" lon="4.8968">
        <ele>97.8</ele>
        <time>2025-04-05T11:33:28Z</time>
      </trkpt>
      <trkpt lat="50.28227" lon="4.8968">
        <ele>98</ele>
        <time>2025-04-05T11:33:29Z</time>
      </trkpt>
      <trkpt lat="50.28232" lon="4.8968">
        <ele>98</ele>
        <time>2025-04-05T11:33:30Z</time>
      </trkpt>
      <trkpt lat="50.28237" lon="4.89679">
        <ele>98</ele>
        <time>2025-04-05T11:33:31Z</time>
      </trkpt>
      <trkpt lat="50.28241" lon="4.89677">
        <ele>98</ele>
        <time>2025-04-05T11:33:32Z</time>
      </trkpt>
      <trkpt lat="50.28246" lon="4.89677">
        <ele>98</ele>
        <time>2025-04-05T11:33:33Z</time>
      </trkpt>
      <trkpt lat="50.28252" lon="4.89677">
        <ele>98</ele>
        <time>2025-04-05T11:33:34Z</time>
      </trkpt>
      <trkpt lat="50.28257" lon="4.89677">
        <ele>98</ele>
        <time>2025-04-05T11:33:35Z</time>
      </trkpt>
      <trkpt lat="50.28262" lon="4.89677">
        <ele>98</ele>
        <time>2025-04-05T11:33:36Z</time>
      </trkpt>
      <trkpt lat="50.28267" lon="4.89677">
        <ele>98.2</ele>
        <time>2025-04-05T11:33:37Z</time>
      </trkpt>
      <trkpt lat="50.28272" lon="4.89677">
        <ele>98.2</ele>
        <time>2025-04-05T11:33:38Z</time>
      </trkpt>
      <trkpt lat="50.28277" lon="4.89676">
        <ele>98.2</ele>
        <time>2025-04-05T11:33:39Z</time>
      </trkpt>
      <trkpt lat="50.28282" lon="4.89676">
        <ele>98.2</ele>
        <time>2025-04-05T11:33:40Z</time>
      </trkpt>
      <trkpt lat="50.28287" lon="4.89676">
        <ele>98.2</ele>
        <time>2025-04-05T11:33:41Z</time>
      </trkpt>
      <trkpt lat="50.28293" lon="4.89675">
        <ele>98.2</ele>
        <time>2025-04-05T11:33:42Z</time>
      </trkpt>
      <trkpt lat="50.28298" lon="4.89676">
        <ele>98.2</ele>
        <time>2025-04-05T11:33:43Z</time>
      </trkpt>
      <trkpt lat="50.28304" lon="4.89676">
        <ele>98</ele>
        <time>2025-04-05T11:33:44Z</time>
      </trkpt>
      <trkpt lat="50.2831" lon="4.89676">
        <ele>98</ele>
        <time>2025-04-05T11:33:45Z</time>
      </trkpt>
      <trkpt lat="50.28315" lon="4.89676">
        <ele>98</ele>
        <time>2025-04-05T11:33:46Z</time>
      </trkpt>
      <trkpt lat="50.2832" lon="4.89676">
        <ele>98</ele>
        <time>2025-04-05T11:33:47Z</time>
      </trkpt>
      <trkpt lat="50.28325" lon="4.89676">
        <ele>97.8</ele>
        <time>2025-04-05T11:33:48Z</time>
      </trkpt>
      <trkpt lat="50.28331" lon="4.89676">
        <ele>97.8</ele>
        <time>2025-04-05T11:33:49Z</time>
      </trkpt>
      <trkpt lat="50.28336" lon="4.89676">
        <ele>97.8</ele>
        <time>2025-04-05T11:33:50Z</time>
      </trkpt>
      <trkpt lat="50.28341" lon="4.89675">
        <ele>97.8</ele>
        <time>2025-04-05T11:33:51Z</time>
      </trkpt>
      <trkpt lat="50.28346" lon="4.89675">
        <ele>97.6</ele>
        <time>2025-04-05T11:33:52Z</time>
      </trkpt>
      <trkpt lat="50.28351" lon="4.89674">
        <ele>97.6</ele>
        <time>2025-04-05T11:33:53Z</time>
      </trkpt>
      <trkpt lat="50.28357" lon="4.89674">
        <ele>97.6</ele>
        <time>2025-04-05T11:33:54Z</time>
      </trkpt>
      <trkpt lat="50.28362" lon="4.89673">
        <ele>97.6</ele>
        <time>2025-04-05T11:33:55Z</time>
      </trkpt>
      <trkpt lat="50.28367" lon="4.89673">
        <ele>97.8</ele>
        <time>2025-04-05T11:33:56Z</time>
      </trkpt>
      <trkpt lat="50.28372" lon="4.89673">
        <ele>97.8</ele>
        <time>2025-04-05T11:33:57Z</time>
      </trkpt>
      <trkpt lat="50.28377" lon="4.89673">
        <ele>98</ele>
        <time>2025-04-05T11:33:58Z</time>
      </trkpt>
      <trkpt lat="50.28382" lon="4.89672">
        <ele>98</ele>
        <time>2025-04-05T11:33:59Z</time>
      </trkpt>
      <trkpt lat="50.28387" lon="4.89672">
        <ele>98</ele>
        <time>2025-04-05T11:34:00Z</time>
      </trkpt>
      <trkpt lat="50.28391" lon="4.89671">
        <ele>98</ele>
        <time>2025-04-05T11:34:01Z</time>
      </trkpt>
      <trkpt lat="50.28396" lon="4.89671">
        <ele>98.2</ele>
        <time>2025-04-05T11:34:02Z</time>
      </trkpt>
      <trkpt lat="50.28401" lon="4.89671">
        <ele>98.2</ele>
        <time>2025-04-05T11:34:03Z</time>
      </trkpt>
      <trkpt lat="50.28407" lon="4.89671">
        <ele>98.4</ele>
        <time>2025-04-05T11:34:04Z</time>
      </trkpt>
      <trkpt lat="50.28412" lon="4.89671">
        <ele>98.4</ele>
        <time>2025-04-05T11:34:05Z</time>
      </trkpt>
      <trkpt lat="50.28416" lon="4.89671">
        <ele>98.4</ele>
        <time>2025-04-05T11:34:06Z</time>
      </trkpt>
      <trkpt lat="50.28422" lon="4.8967">
        <ele>98.6</ele>
        <time>2025-04-05T11:34:07Z</time>
      </trkpt>
      <trkpt lat="50.28427" lon="4.8967">
        <ele>98.6</ele>
        <time>2025-04-05T11:34:08Z</time>
      </trkpt>
      <trkpt lat="50.28432" lon="4.89669">
        <ele>98.8</ele>
        <time>2025-04-05T11:34:09Z</time>
      </trkpt>
      <trkpt lat="50.28437" lon="4.89669">
        <ele>98.8</ele>
        <time>2025-04-05T11:34:10Z</time>
      </trkpt>
      <trkpt lat="50.28442" lon="4.89669">
        <ele>99</ele>
        <time>2025-04-05T11:34:11Z</time>
      </trkpt>
      <trkpt lat="50.28448" lon="4.89669">
        <ele>99</ele>
        <time>2025-04-05T11:34:12Z</time>
      </trkpt>
      <trkpt lat="50.28453" lon="4.89669">
        <ele>99</ele>
        <time>2025-04-05T11:34:13Z</time>
      </trkpt>
      <trkpt lat="50.28458" lon="4.89668">
        <ele>99.2</ele>
        <time>2025-04-05T11:34:14Z</time>
      </trkpt>
      <trkpt lat="50.28463" lon="4.89668">
        <ele>99.2</ele>
        <time>2025-04-05T11:34:15Z</time>
      </trkpt>
      <trkpt lat="50.28468" lon="4.89667">
        <ele>99.4</ele>
        <time>2025-04-05T11:34:16Z</time>
      </trkpt>
      <trkpt lat="50.28473" lon="4.89667">
        <ele>99.4</ele>
        <time>2025-04-05T11:34:17Z</time>
      </trkpt>
      <trkpt lat="50.28478" lon="4.89667">
        <ele>99.4</ele>
        <time>2025-04-05T11:34:18Z</time>
      </trkpt>
      <trkpt lat="50.28482" lon="4.89667">
        <ele>99.4</ele>
        <time>2025-04-05T11:34:19Z</time>
      </trkpt>
      <trkpt lat="50.28487" lon="4.89667">
        <ele>99.6</ele>
        <time>2025-04-05T11:34:20Z</time>
      </trkpt>
      <trkpt lat="50.28493" lon="4.89667">
        <ele>99.6</ele>
        <time>2025-04-05T11:34:21Z</time>
      </trkpt>
      <trkpt lat="50.28498" lon="4.89666">
        <ele>99.6</ele>
        <time>2025-04-05T11:34:22Z</time>
      </trkpt>
      <trkpt lat="50.28503" lon="4.89666">
        <ele>99.6</ele>
        <time>2025-04-05T11:34:23Z</time>
      </trkpt>
      <trkpt lat="50.28508" lon="4.89666">
        <ele>99.8</ele>
        <time>2025-04-05T11:34:24Z</time>
      </trkpt>
      <trkpt lat="50.28514" lon="4.89665">
        <ele>99.8</ele>
        <time>2025-04-05T11:34:25Z</time>
      </trkpt>
      <trkpt lat="50.28519" lon="4.89665">
        <ele>99.8</ele>
        <time>2025-04-05T11:34:26Z</time>
      </trkpt>
      <trkpt lat="50.28524" lon="4.89665">
        <ele>100</ele>
        <time>2025-04-05T11:34:27Z</time>
      </trkpt>
      <trkpt lat="50.28529" lon="4.89665">
        <ele>100</ele>
        <time>2025-04-05T11:34:28Z</time>
      </trkpt>
      <trkpt lat="50.28534" lon="4.89664">
        <ele>100</ele>
        <time>2025-04-05T11:34:29Z</time>
      </trkpt>
      <trkpt lat="50.28539" lon="4.89664">
        <ele>100.2</ele>
        <time>2025-04-05T11:34:30Z</time>
      </trkpt>
      <trkpt lat="50.28545" lon="4.89664">
        <ele>100.2</ele>
        <time>2025-04-05T11:34:31Z</time>
      </trkpt>
      <trkpt lat="50.2855" lon="4.89664">
        <ele>100.2</ele>
        <time>2025-04-05T11:34:32Z</time>
      </trkpt>
      <trkpt lat="50.28555" lon="4.89664">
        <ele>100.2</ele>
        <time>2025-04-05T11:34:33Z</time>
      </trkpt>
      <trkpt lat="50.2856" lon="4.89664">
        <ele>100.4</ele>
        <time>2025-04-05T11:34:34Z</time>
      </trkpt>
      <trkpt lat="50.28565" lon="4.89664">
        <ele>100.6</ele>
        <time>2025-04-05T11:34:35Z</time>
      </trkpt>
      <trkpt lat="50.2857" lon="4.89664">
        <ele>100.6</ele>
        <time>2025-04-05T11:34:36Z</time>
      </trkpt>
      <trkpt lat="50.28576" lon="4.89663">
        <ele>100.8</ele>
        <time>2025-04-05T11:34:37Z</time>
      </trkpt>
      <trkpt lat="50.28581" lon="4.89662">
        <ele>100.8</ele>
        <time>2025-04-05T11:34:38Z</time>
      </trkpt>
      <trkpt lat="50.28585" lon="4.89662">
        <ele>100.8</ele>
        <time>2025-04-05T11:34:39Z</time>
      </trkpt>
      <trkpt lat="50.2859" lon="4.89662">
        <ele>100.8</ele>
        <time>2025-04-05T11:34:40Z</time>
      </trkpt>
      <trkpt lat="50.28595" lon="4.89662">
        <ele>100.8</ele>
        <time>2025-04-05T11:34:41Z</time>
      </trkpt>
      <trkpt lat="50.286" lon="4.89662">
        <ele>100.8</ele>
        <time>2025-04-05T11:34:42Z</time>
      </trkpt>
      <trkpt lat="50.28605" lon="4.89661">
        <ele>100.8</ele>
        <time>2025-04-05T11:34:43Z</time>
      </trkpt>
      <trkpt lat="50.2861" lon="4.89661">
        <ele>100.8</ele>
        <time>2025-04-05T11:34:44Z</time>
      </trkpt>
      <trkpt lat="50.28614" lon="4.8966">
        <ele>100.8</ele>
        <time>2025-04-05T11:34:45Z</time>
      </trkpt>
      <trkpt lat="50.28619" lon="4.8966">
        <ele>100.8</ele>
        <time>2025-04-05T11:34:46Z</time>
      </trkpt>
      <trkpt lat="50.28624" lon="4.89659">
        <ele>100.8</ele>
        <time>2025-04-05T11:34:47Z</time>
      </trkpt>
      <trkpt lat="50.28629" lon="4.89659">
        <ele>100.8</ele>
        <time>2025-04-05T11:34:48Z</time>
      </trkpt>
      <trkpt lat="50.28635" lon="4.89658">
        <ele>100.8</ele>
        <time>2025-04-05T11:34:49Z</time>
      </trkpt>
      <trkpt lat="50.28641" lon="4.89657">
        <ele>100.6</ele>
        <time>2025-04-05T11:34:50Z</time>
      </trkpt>
      <trkpt lat="50.28647" lon="4.89656">
        <ele>100.6</ele>
        <time>2025-04-05T11:34:51Z</time>
      </trkpt>
      <trkpt lat="50.28652" lon="4.89654">
        <ele>100.4</ele>
        <time>2025-04-05T11:34:52Z</time>
      </trkpt>
      <trkpt lat="50.28657" lon="4.89652">
        <ele>100.2</ele>
        <time>2025-04-05T11:34:53Z</time>
      </trkpt>
      <trkpt lat="50.28663" lon="4.89649">
        <ele>100</ele>
        <time>2025-04-05T11:34:54Z</time>
      </trkpt>
      <trkpt lat="50.2867" lon="4.89647">
        <ele>99.6</ele>
        <time>2025-04-05T11:34:55Z</time>
      </trkpt>
      <trkpt lat="50.28677" lon="4.89644">
        <ele>99.4</ele>
        <time>2025-04-05T11:34:56Z</time>
      </trkpt>
      <trkpt lat="50.28683" lon="4.89642">
        <ele>99.2</ele>
        <time>2025-04-05T11:34:57Z</time>
      </trkpt>
      <trkpt lat="50.28689" lon="4.89641">
        <ele>99</ele>
        <time>2025-04-05T11:34:58Z</time>
      </trkpt>
      <trkpt lat="50.28696" lon="4.89641">
        <ele>98.6</ele>
        <time>2025-04-05T11:34:59Z</time>
      </trkpt>
      <trkpt lat="50.28703" lon="4.8964">
        <ele>98.2</ele>
        <time>2025-04-05T11:35:00Z</time>
      </trkpt>
      <trkpt lat="50.2871" lon="4.8964">
        <ele>98</ele>
        <time>2025-04-05T11:35:01Z</time>
      </trkpt>
      <trkpt lat="50.28718" lon="4.89639">
        <ele>97.6</ele>
        <time>2025-04-05T11:35:02Z</time>
      </trkpt>
      <trkpt lat="50.28724" lon="4.89639">
        <ele>97.4</ele>
        <time>2025-04-05T11:35:03Z</time>
      </trkpt>
      <trkpt lat="50.28731" lon="4.89639">
        <ele>97.2</ele>
        <time>2025-04-05T11:35:04Z</time>
      </trkpt>
      <trkpt lat="50.28738" lon="4.89639">
        <ele>97</ele>
        <time>2025-04-05T11:35:05Z</time>
      </trkpt>
      <trkpt lat="50.28744" lon="4.89641">
        <ele>96.8</ele>
        <time>2025-04-05T11:35:06Z</time>
      </trkpt>
      <trkpt lat="50.28751" lon="4.89642">
        <ele>96.8</ele>
        <time>2025-04-05T11:35:07Z</time>
      </trkpt>
      <trkpt lat="50.28757" lon="4.89643">
        <ele>96.6</ele>
        <time>2025-04-05T11:35:08Z</time>
      </trkpt>
      <trkpt lat="50.28763" lon="4.89645">
        <ele>96.6</ele>
        <time>2025-04-05T11:35:09Z</time>
      </trkpt>
      <trkpt lat="50.28769" lon="4.89648">
        <ele>96.6</ele>
        <time>2025-04-05T11:35:10Z</time>
      </trkpt>
      <trkpt lat="50.28776" lon="4.8965">
        <ele>96.4</ele>
        <time>2025-04-05T11:35:11Z</time>
      </trkpt>
      <trkpt lat="50.28782" lon="4.89653">
        <ele>96.4</ele>
        <time>2025-04-05T11:35:12Z</time>
      </trkpt>
      <trkpt lat="50.28787" lon="4.89655">
        <ele>96.4</ele>
        <time>2025-04-05T11:35:13Z</time>
      </trkpt>
      <trkpt lat="50.28792" lon="4.89658">
        <ele>96.4</ele>
        <time>2025-04-05T11:35:14Z</time>
      </trkpt>
      <trkpt lat="50.28798" lon="4.8966">
        <ele>96.4</ele>
        <time>2025-04-05T11:35:15Z</time>
      </trkpt>
      <trkpt lat="50.28803" lon="4.89661">
        <ele>96.4</ele>
        <time>2025-04-05T11:35:16Z</time>
      </trkpt>
      <trkpt lat="50.28808" lon="4.89663">
        <ele>96.6</ele>
        <time>2025-04-05T11:35:17Z</time>
      </trkpt>
      <trkpt lat="50.28813" lon="4.89665">
        <ele>96.4</ele>
        <time>2025-04-05T11:35:18Z</time>
      </trkpt>
      <trkpt lat="50.28818" lon="4.89666">
        <ele>96.4</ele>
        <time>2025-04-05T11:35:19Z</time>
      </trkpt>
      <trkpt lat="50.28823" lon="4.89668">
        <ele>96.6</ele>
        <time>2025-04-05T11:35:20Z</time>
      </trkpt>
      <trkpt lat="50.28828" lon="4.89671">
        <ele>96.8</ele>
        <time>2025-04-05T11:35:21Z</time>
      </trkpt>
      <trkpt lat="50.28834" lon="4.89672">
        <ele>97</ele>
        <time>2025-04-05T11:35:22Z</time>
      </trkpt>
      <trkpt lat="50.28839" lon="4.89675">
        <ele>97.2</ele>
        <time>2025-04-05T11:35:23Z</time>
      </trkpt>
      <trkpt lat="50.28844" lon="4.89677">
        <ele>97.2</ele>
        <time>2025-04-05T11:35:24Z</time>
      </trkpt>
      <trkpt lat="50.28849" lon="4.89679">
        <ele>97.4</ele>
        <time>2025-04-05T11:35:25Z</time>
      </trkpt>
      <trkpt lat="50.28855" lon="4.8968">
        <ele>97.4</ele>
        <time>2025-04-05T11:35:26Z</time>
      </trkpt>
      <trkpt lat="50.28861" lon="4.89683">
        <ele>97.6</ele>
        <time>2025-04-05T11:35:27Z</time>
      </trkpt>
      <trkpt lat="50.28867" lon="4.89685">
        <ele>97.8</ele>
        <time>2025-04-05T11:35:28Z</time>
      </trkpt>
      <trkpt lat="50.28872" lon="4.89687">
        <ele>97.8</ele>
        <time>2025-04-05T11:35:29Z</time>
      </trkpt>
      <trkpt lat="50.28877" lon="4.89689">
        <ele>97.8</ele>
        <time>2025-04-05T11:35:30Z</time>
      </trkpt>
      <trkpt lat="50.28882" lon="4.89691">
        <ele>97.8</ele>
        <time>2025-04-05T11:35:31Z</time>
      </trkpt>
      <trkpt lat="50.28888" lon="4.89692">
        <ele>97.8</ele>
        <time>2025-04-05T11:35:32Z</time>
      </trkpt>
      <trkpt lat="50.28893" lon="4.89694">
        <ele>97.8</ele>
        <time>2025-04-05T11:35:33Z</time>
      </trkpt>
      <trkpt lat="50.28898" lon="4.89695">
        <ele>97.8</ele>
        <time>2025-04-05T11:35:34Z</time>
      </trkpt>
      <trkpt lat="50.28903" lon="4.89696">
        <ele>97.8</ele>
        <time>2025-04-05T11:35:35Z</time>
      </trkpt>
      <trkpt lat="50.28908" lon="4.89697">
        <ele>97.8</ele>
        <time>2025-04-05T11:35:36Z</time>
      </trkpt>
      <trkpt lat="50.28914" lon="4.89698">
        <ele>97.8</ele>
        <time>2025-04-05T11:35:37Z</time>
      </trkpt>
      <trkpt lat="50.2892" lon="4.89699">
        <ele>97.6</ele>
        <time>2025-04-05T11:35:38Z</time>
      </trkpt>
      <trkpt lat="50.28927" lon="4.897">
        <ele>97.6</ele>
        <time>2025-04-05T11:35:39Z</time>
      </trkpt>
      <trkpt lat="50.28934" lon="4.89701">
        <ele>97.6</ele>
        <time>2025-04-05T11:35:40Z</time>
      </trkpt>
      <trkpt lat="50.28941" lon="4.89701">
        <ele>97.4</ele>
        <time>2025-04-05T11:35:41Z</time>
      </trkpt>
      <trkpt lat="50.28948" lon="4.89701">
        <ele>97.2</ele>
        <time>2025-04-05T11:35:42Z</time>
      </trkpt>
      <trkpt lat="50.28954" lon="4.89701">
        <ele>97</ele>
        <time>2025-04-05T11:35:43Z</time>
      </trkpt>
      <trkpt lat="50.2896" lon="4.89701">
        <ele>96.8</ele>
        <time>2025-04-05T11:35:44Z</time>
      </trkpt>
      <trkpt lat="50.28967" lon="4.89702">
        <ele>96.6</ele>
        <time>2025-04-05T11:35:45Z</time>
      </trkpt>
      <trkpt lat="50.28973" lon="4.89702">
        <ele>96.2</ele>
        <time>2025-04-05T11:35:46Z</time>
      </trkpt>
      <trkpt lat="50.2898" lon="4.89702">
        <ele>95.8</ele>
        <time>2025-04-05T11:35:47Z</time>
      </trkpt>
      <trkpt lat="50.28987" lon="4.89702">
        <ele>95.4</ele>
        <time>2025-04-05T11:35:48Z</time>
      </trkpt>
      <trkpt lat="50.28995" lon="4.89701">
        <ele>95</ele>
        <time>2025-04-05T11:35:49Z</time>
      </trkpt>
      <trkpt lat="50.29002" lon="4.89701">
        <ele>94.4</ele>
        <time>2025-04-05T11:35:50Z</time>
      </trkpt>
      <trkpt lat="50.2901" lon="4.89701">
        <ele>94</ele>
        <time>2025-04-05T11:35:51Z</time>
      </trkpt>
      <trkpt lat="50.29018" lon="4.89701">
        <ele>93.4</ele>
        <time>2025-04-05T11:35:52Z</time>
      </trkpt>
      <trkpt lat="50.29026" lon="4.89701">
        <ele>93</ele>
        <time>2025-04-05T11:35:53Z</time>
      </trkpt>
      <trkpt lat="50.29034" lon="4.897">
        <ele>92.4</ele>
        <time>2025-04-05T11:35:54Z</time>
      </trkpt>
      <trkpt lat="50.29042" lon="4.897">
        <ele>91.8</ele>
        <time>2025-04-05T11:35:55Z</time>
      </trkpt>
      <trkpt lat="50.29052" lon="4.897">
        <ele>91.4</ele>
        <time>2025-04-05T11:35:56Z</time>
      </trkpt>
      <trkpt lat="50.2906" lon="4.897">
        <ele>91</ele>
        <time>2025-04-05T11:35:57Z</time>
      </trkpt>
      <trkpt lat="50.2907" lon="4.897">
        <ele>90.2</ele>
        <time>2025-04-05T11:35:58Z</time>
      </trkpt>
      <trkpt lat="50.29079" lon="4.897">
        <ele>89.8</ele>
        <time>2025-04-05T11:35:59Z</time>
      </trkpt>
      <trkpt lat="50.29088" lon="4.897">
        <ele>89.4</ele>
        <time>2025-04-05T11:36:00Z</time>
      </trkpt>
      <trkpt lat="50.29097" lon="4.897">
        <ele>89.2</ele>
        <time>2025-04-05T11:36:01Z</time>
      </trkpt>
      <trkpt lat="50.29105" lon="4.897">
        <ele>88.8</ele>
        <time>2025-04-05T11:36:02Z</time>
      </trkpt>
      <trkpt lat="50.29114" lon="4.897">
        <ele>88.4</ele>
        <time>2025-04-05T11:36:03Z</time>
      </trkpt>
      <trkpt lat="50.29123" lon="4.897">
        <ele>88.2</ele>
        <time>2025-04-05T11:36:04Z</time>
      </trkpt>
      <trkpt lat="50.29132" lon="4.89699">
        <ele>87.8</ele>
        <time>2025-04-05T11:36:05Z</time>
      </trkpt>
      <trkpt lat="50.2914" lon="4.89699">
        <ele>87.4</ele>
        <time>2025-04-05T11:36:06Z</time>
      </trkpt>
      <trkpt lat="50.2915" lon="4.89699">
        <ele>87</ele>
        <time>2025-04-05T11:36:07Z</time>
      </trkpt>
      <trkpt lat="50.29158" lon="4.89698">
        <ele>86.6</ele>
        <time>2025-04-05T11:36:08Z</time>
      </trkpt>
      <trkpt lat="50.29166" lon="4.89698">
        <ele>86.2</ele>
        <time>2025-04-05T11:36:09Z</time>
      </trkpt>
      <trkpt lat="50.29174" lon="4.89697">
        <ele>86</ele>
        <time>2025-04-05T11:36:10Z</time>
      </trkpt>
      <trkpt lat="50.29183" lon="4.89696">
        <ele>85.6</ele>
        <time>2025-04-05T11:36:11Z</time>
      </trkpt>
      <trkpt lat="50.29192" lon="4.89695">
        <ele>85.4</ele>
        <time>2025-04-05T11:36:12Z</time>
      </trkpt>
      <trkpt lat="50.292" lon="4.89693">
        <ele>85.2</ele>
        <time>2025-04-05T11:36:13Z</time>
      </trkpt>
      <trkpt lat="50.29208" lon="4.89692">
        <ele>84.8</ele>
        <time>2025-04-05T11:36:14Z</time>
      </trkpt>
      <trkpt lat="50.29216" lon="4.89689">
        <ele>84.6</ele>
        <time>2025-04-05T11:36:15Z</time>
      </trkpt>
      <trkpt lat="50.29224" lon="4.89687">
        <ele>84.4</ele>
        <time>2025-04-05T11:36:16Z</time>
      </trkpt>
      <trkpt lat="50.29231" lon="4.89685">
        <ele>84</ele>
        <time>2025-04-05T11:36:17Z</time>
      </trkpt>
      <trkpt lat="50.29238" lon="4.89683">
        <ele>83.8</ele>
        <time>2025-04-05T11:36:18Z</time>
      </trkpt>
      <trkpt lat="50.29246" lon="4.8968">
        <ele>83.4</ele>
        <time>2025-04-05T11:36:19Z</time>
      </trkpt>
      <trkpt lat="50.29253" lon="4.89679">
        <ele>83</ele>
        <time>2025-04-05T11:36:20Z</time>
      </trkpt>
      <trkpt lat="50.29261" lon="4.89677">
        <ele>82.6</ele>
        <time>2025-04-05T11:36:21Z</time>
      </trkpt>
      <trkpt lat="50.29269" lon="4.89675">
        <ele>82.2</ele>
        <time>2025-04-05T11:36:22Z</time>
      </trkpt>
      <trkpt lat="50.29276" lon="4.89673">
        <ele>82</ele>
        <time>2025-04-05T11:36:23Z</time>
      </trkpt>
      <trkpt lat="50.29284" lon="4.89671">
        <ele>81.6</ele>
        <time>2025-04-05T11:36:24Z</time>
      </trkpt>
      <trkpt lat="50.29291" lon="4.8967">
        <ele>81.4</ele>
        <time>2025-04-05T11:36:25Z</time>
      </trkpt>
      <trkpt lat="50.29298" lon="4.89669">
        <ele>81</ele>
        <time>2025-04-05T11:36:26Z</time>
      </trkpt>
      <trkpt lat="50.29306" lon="4.89668">
        <ele>80.8</ele>
        <time>2025-04-05T11:36:27Z</time>
      </trkpt>
      <trkpt lat="50.29313" lon="4.89668">
        <ele>80.6</ele>
        <time>2025-04-05T11:36:28Z</time>
      </trkpt>
      <trkpt lat="50.29321" lon="4.89668">
        <ele>80.6</ele>
        <time>2025-04-05T11:36:29Z</time>
      </trkpt>
      <trkpt lat="50.29328" lon="4.89669">
        <ele>80.4</ele>
        <time>2025-04-05T11:36:30Z</time>
      </trkpt>
      <trkpt lat="50.29335" lon="4.8967">
        <ele>80.4</ele>
        <time>2025-04-05T11:36:31Z</time>
      </trkpt>
      <trkpt lat="50.29342" lon="4.89671">
        <ele>80.2</ele>
        <time>2025-04-05T11:36:32Z</time>
      </trkpt>
      <trkpt lat="50.2935" lon="4.89672">
        <ele>80</ele>
        <time>2025-04-05T11:36:33Z</time>
      </trkpt>
      <trkpt lat="50.29357" lon="4.89674">
        <ele>79.8</ele>
        <time>2025-04-05T11:36:34Z</time>
      </trkpt>
      <trkpt lat="50.29365" lon="4.89677">
        <ele>79.6</ele>
        <time>2025-04-05T11:36:35Z</time>
      </trkpt>
      <trkpt lat="50.29372" lon="4.89679">
        <ele>79.4</ele>
        <time>2025-04-05T11:36:36Z</time>
      </trkpt>
      <trkpt lat="50.29379" lon="4.89682">
        <ele>79.2</ele>
        <time>2025-04-05T11:36:37Z</time>
      </trkpt>
      <trkpt lat="50.29387" lon="4.89685">
        <ele>79.2</ele>
        <time>2025-04-05T11:36:38Z</time>
      </trkpt>
      <trkpt lat="50.29394" lon="4.89689">
        <ele>79.2</ele>
        <time>2025-04-05T11:36:39Z</time>
      </trkpt>
      <trkpt lat="50.29401" lon="4.89693">
        <ele>79</ele>
        <time>2025-04-05T11:36:40Z</time>
      </trkpt>
      <trkpt lat="50.29408" lon="4.89697">
        <ele>79</ele>
        <time>2025-04-05T11:36:41Z</time>
      </trkpt>
      <trkpt lat="50.29414" lon="4.89702">
        <ele>79</ele>
        <time>2025-04-05T11:36:42Z</time>
      </trkpt>
      <trkpt lat="50.2942" lon="4.89706">
        <ele>79.2</ele>
        <time>2025-04-05T11:36:43Z</time>
      </trkpt>
      <trkpt lat="50.29427" lon="4.8971">
        <ele>79.2</ele>
        <time>2025-04-05T11:36:44Z</time>
      </trkpt>
      <trkpt lat="50.29433" lon="4.89714">
        <ele>79.4</ele>
        <time>2025-04-05T11:36:45Z</time>
      </trkpt>
      <trkpt lat="50.29439" lon="4.89718">
        <ele>79.4</ele>
        <time>2025-04-05T11:36:46Z</time>
      </trkpt>
      <trkpt lat="50.29446" lon="4.89722">
        <ele>79.6</ele>
        <time>2025-04-05T11:36:47Z</time>
      </trkpt>
      <trkpt lat="50.29452" lon="4.89725">
        <ele>79.6</ele>
        <time>2025-04-05T11:36:48Z</time>
      </trkpt>
      <trkpt lat="50.29458" lon="4.89729">
        <ele>79.6</ele>
        <time>2025-04-05T11:36:49Z</time>
      </trkpt>
      <trkpt lat="50.29464" lon="4.89732">
        <ele>79.6</ele>
        <time>2025-04-05T11:36:50Z</time>
      </trkpt>
      <trkpt lat="50.2947" lon="4.89736">
        <ele>79.6</ele>
        <time>2025-04-05T11:36:51Z</time>
      </trkpt>
      <trkpt lat="50.29477" lon="4.89741">
        <ele>79.6</ele>
        <time>2025-04-05T11:36:52Z</time>
      </trkpt>
      <trkpt lat="50.29483" lon="4.89745">
        <ele>79.6</ele>
        <time>2025-04-05T11:36:53Z</time>
      </trkpt>
      <trkpt lat="50.29489" lon="4.8975">
        <ele>79.6</ele>
        <time>2025-04-05T11:36:54Z</time>
      </trkpt>
      <trkpt lat="50.29495" lon="4.89754">
        <ele>79.6</ele>
        <time>2025-04-05T11:36:55Z</time>
      </trkpt>
      <trkpt lat="50.29501" lon="4.89759">
        <ele>79.6</ele>
        <time>2025-04-05T11:36:56Z</time>
      </trkpt>
      <trkpt lat="50.29508" lon="4.89764">
        <ele>79.6</ele>
        <time>2025-04-05T11:36:57Z</time>
      </trkpt>
      <trkpt lat="50.29514" lon="4.89769">
        <ele>79.6</ele>
        <time>2025-04-05T11:36:58Z</time>
      </trkpt>
      <trkpt lat="50.2952" lon="4.89774">
        <ele>79.8</ele>
        <time>2025-04-05T11:36:59Z</time>
      </trkpt>
      <trkpt lat="50.29527" lon="4.89779">
        <ele>79.8</ele>
        <time>2025-04-05T11:37:00Z</time>
      </trkpt>
      <trkpt lat="50.29533" lon="4.89783">
        <ele>79.8</ele>
        <time>2025-04-05T11:37:01Z</time>
      </trkpt>
      <trkpt lat="50.29538" lon="4.89788">
        <ele>79.8</ele>
        <time>2025-04-05T11:37:02Z</time>
      </trkpt>
      <trkpt lat="50.29544" lon="4.89793">
        <ele>79.8</ele>
        <time>2025-04-05T11:37:03Z</time>
      </trkpt>
      <trkpt lat="50.2955" lon="4.89797">
        <ele>80</ele>
        <time>2025-04-05T11:37:04Z</time>
      </trkpt>
      <trkpt lat="50.29556" lon="4.89802">
        <ele>80.2</ele>
        <time>2025-04-05T11:37:05Z</time>
      </trkpt>
      <trkpt lat="50.29561" lon="4.89807">
        <ele>80</ele>
        <time>2025-04-05T11:37:06Z</time>
      </trkpt>
      <trkpt lat="50.29567" lon="4.89811">
        <ele>80</ele>
        <time>2025-04-05T11:37:07Z</time>
      </trkpt>
      <trkpt lat="50.29572" lon="4.89815">
        <ele>80</ele>
        <time>2025-04-05T11:37:08Z</time>
      </trkpt>
      <trkpt lat="50.29578" lon="4.89819">
        <ele>80</ele>
        <time>2025-04-05T11:37:09Z</time>
      </trkpt>
      <trkpt lat="50.29583" lon="4.89823">
        <ele>80</ele>
        <time>2025-04-05T11:37:10Z</time>
      </trkpt>
      <trkpt lat="50.29588" lon="4.89827">
        <ele>80</ele>
        <time>2025-04-05T11:37:11Z</time>
      </trkpt>
      <trkpt lat="50.29593" lon="4.8983">
        <ele>80</ele>
        <time>2025-04-05T11:37:12Z</time>
      </trkpt>
      <trkpt lat="50.29599" lon="4.89834">
        <ele>79.8</ele>
        <time>2025-04-05T11:37:13Z</time>
      </trkpt>
      <trkpt lat="50.29604" lon="4.89837">
        <ele>79.8</ele>
        <time>2025-04-05T11:37:14Z</time>
      </trkpt>
      <trkpt lat="50.2961" lon="4.89841">
        <ele>79.6</ele>
        <time>2025-04-05T11:37:15Z</time>
      </trkpt>
      <trkpt lat="50.29615" lon="4.89845">
        <ele>79.6</ele>
        <time>2025-04-05T11:37:16Z</time>
      </trkpt>
      <trkpt lat="50.29621" lon="4.89849">
        <ele>79.6</ele>
        <time>2025-04-05T11:37:17Z</time>
      </trkpt>
      <trkpt lat="50.29627" lon="4.89853">
        <ele>79.6</ele>
        <time>2025-04-05T11:37:18Z</time>
      </trkpt>
      <trkpt lat="50.29633" lon="4.89857">
        <ele>79.6</ele>
        <time>2025-04-05T11:37:19Z</time>
      </trkpt>
      <trkpt lat="50.29638" lon="4.8986">
        <ele>79.6</ele>
        <time>2025-04-05T11:37:20Z</time>
      </trkpt>
      <trkpt lat="50.29644" lon="4.89864">
        <ele>79.6</ele>
        <time>2025-04-05T11:37:21Z</time>
      </trkpt>
      <trkpt lat="50.2965" lon="4.89867">
        <ele>79.4</ele>
        <time>2025-04-05T11:37:22Z</time>
      </trkpt>
      <trkpt lat="50.29656" lon="4.8987">
        <ele>79.4</ele>
        <time>2025-04-05T11:37:23Z</time>
      </trkpt>
      <trkpt lat="50.29662" lon="4.89873">
        <ele>79.4</ele>
        <time>2025-04-05T11:37:24Z</time>
      </trkpt>
      <trkpt lat="50.29668" lon="4.89877">
        <ele>79.4</ele>
        <time>2025-04-05T11:37:25Z</time>
      </trkpt>
      <trkpt lat="50.29673" lon="4.8988">
        <ele>79.4</ele>
        <time>2025-04-05T11:37:26Z</time>
      </trkpt>
      <trkpt lat="50.29679" lon="4.89883">
        <ele>79.2</ele>
        <time>2025-04-05T11:37:27Z</time>
      </trkpt>
      <trkpt lat="50.29685" lon="4.89886">
        <ele>79</ele>
        <time>2025-04-05T11:37:28Z</time>
      </trkpt>
      <trkpt lat="50.29691" lon="4.89889">
        <ele>79</ele>
        <time>2025-04-05T11:37:29Z</time>
      </trkpt>
      <trkpt lat="50.29698" lon="4.89893">
        <ele>78.8</ele>
        <time>2025-04-05T11:37:30Z</time>
      </trkpt>
      <trkpt lat="50.29704" lon="4.89896">
        <ele>78.8</ele>
        <time>2025-04-05T11:37:31Z</time>
      </trkpt>
      <trkpt lat="50.2971" lon="4.89899">
        <ele>78.8</ele>
        <time>2025-04-05T11:37:32Z</time>
      </trkpt>
      <trkpt lat="50.29717" lon="4.89902">
        <ele>78.8</ele>
        <time>2025-04-05T11:37:33Z</time>
      </trkpt>
      <trkpt lat="50.29723" lon="4.89905">
        <ele>78.8</ele>
        <time>2025-04-05T11:37:34Z</time>
      </trkpt>
      <trkpt lat="50.29729" lon="4.89908">
        <ele>78.8</ele>
        <time>2025-04-05T11:37:35Z</time>
      </trkpt>
      <trkpt lat="50.29735" lon="4.89911">
        <ele>78.8</ele>
        <time>2025-04-05T11:37:36Z</time>
      </trkpt>
      <trkpt lat="50.29741" lon="4.89914">
        <ele>78.6</ele>
        <time>2025-04-05T11:37:37Z</time>
      </trkpt>
      <trkpt lat="50.29747" lon="4.89917">
        <ele>78.4</ele>
        <time>2025-04-05T11:37:38Z</time>
      </trkpt>
      <trkpt lat="50.29752" lon="4.8992">
        <ele>78.4</ele>
        <time>2025-04-05T11:37:39Z</time>
      </trkpt>
      <trkpt lat="50.29758" lon="4.89923">
        <ele>78.4</ele>
        <time>2025-04-05T11:37:40Z</time>
      </trkpt>
      <trkpt lat="50.29764" lon="4.89926">
        <ele>78.4</ele>
        <time>2025-04-05T11:37:41Z</time>
      </trkpt>
      <trkpt lat="50.2977" lon="4.8993">
        <ele>78.2</ele>
        <time>2025-04-05T11:37:42Z</time>
      </trkpt>
      <trkpt lat="50.29776" lon="4.89933">
        <ele>78.2</ele>
        <time>2025-04-05T11:37:43Z</time>
      </trkpt>
      <trkpt lat="50.29782" lon="4.89936">
        <ele>78</ele>
        <time>2025-04-05T11:37:44Z</time>
      </trkpt>
      <trkpt lat="50.29787" lon="4.89938">
        <ele>78</ele>
        <time>2025-04-05T11:37:45Z</time>
      </trkpt>
      <trkpt lat="50.29794" lon="4.89941">
        <ele>78.2</ele>
        <time>2025-04-05T11:37:46Z</time>
      </trkpt>
      <trkpt lat="50.29799" lon="4.89944">
        <ele>78.2</ele>
        <time>2025-04-05T11:37:47Z</time>
      </trkpt>
      <trkpt lat="50.29805" lon="4.89946">
        <ele>78.2</ele>
        <time>2025-04-05T11:37:48Z</time>
      </trkpt>
      <trkpt lat="50.29811" lon="4.89948">
        <ele>78.2</ele>
        <time>2025-04-05T11:37:49Z</time>
      </trkpt>
      <trkpt lat="50.29816" lon="4.89951">
        <ele>78.4</ele>
        <time>2025-04-05T11:37:50Z</time>
      </trkpt>
      <trkpt lat="50.29822" lon="4.89953">
        <ele>78.4</ele>
        <time>2025-04-05T11:37:51Z</time>
      </trkpt>
      <trkpt lat="50.29829" lon="4.89955">
        <ele>78.4</ele>
        <time>2025-04-05T11:37:52Z</time>
      </trkpt>
      <trkpt lat="50.29834" lon="4.89957">
        <ele>78.4</ele>
        <time>2025-04-05T11:37:53Z</time>
      </trkpt>
      <trkpt lat="50.29839" lon="4.89958">
        <ele>78.4</ele>
        <time>2025-04-05T11:37:54Z</time>
      </trkpt>
      <trkpt lat="50.29844" lon="4.8996">
        <ele>78.4</ele>
        <time>2025-04-05T11:37:55Z</time>
      </trkpt>
      <trkpt lat="50.29849" lon="4.89962">
        <ele>78.2</ele>
        <time>2025-04-05T11:37:56Z</time>
      </trkpt>
      <trkpt lat="50.29854" lon="4.89963">
        <ele>78.2</ele>
        <time>2025-04-05T11:37:57Z</time>
      </trkpt>
      <trkpt lat="50.29859" lon="4.89965">
        <ele>78.2</ele>
        <time>2025-04-05T11:37:58Z</time>
      </trkpt>
      <trkpt lat="50.29864" lon="4.89966">
        <ele>78</ele>
        <time>2025-04-05T11:37:59Z</time>
      </trkpt>
      <trkpt lat="50.29869" lon="4.89967">
        <ele>78</ele>
        <time>2025-04-05T11:38:00Z</time>
      </trkpt>
      <trkpt lat="50.29874" lon="4.89967">
        <ele>78</ele>
        <time>2025-04-05T11:38:01Z</time>
      </trkpt>
      <trkpt lat="50.2988" lon="4.89968">
        <ele>78</ele>
        <time>2025-04-05T11:38:02Z</time>
      </trkpt>
      <trkpt lat="50.29886" lon="4.89968">
        <ele>78</ele>
        <time>2025-04-05T11:38:03Z</time>
      </trkpt>
      <trkpt lat="50.29891" lon="4.89968">
        <ele>78</ele>
        <time>2025-04-05T11:38:04Z</time>
      </trkpt>
      <trkpt lat="50.29897" lon="4.89969">
        <ele>78</ele>
        <time>2025-04-05T11:38:05Z</time>
      </trkpt>
      <trkpt lat="50.29903" lon="4.8997">
        <ele>78.2</ele>
        <time>2025-04-05T11:38:06Z</time>
      </trkpt>
      <trkpt lat="50.29909" lon="4.8997">
        <ele>78.4</ele>
        <time>2025-04-05T11:38:07Z</time>
      </trkpt>
      <trkpt lat="50.29915" lon="4.8997">
        <ele>78.4</ele>
        <time>2025-04-05T11:38:08Z</time>
      </trkpt>
      <trkpt lat="50.29921" lon="4.89969">
        <ele>78.4</ele>
        <time>2025-04-05T11:38:09Z</time>
      </trkpt>
      <trkpt lat="50.29927" lon="4.89969">
        <ele>78.4</ele>
        <time>2025-04-05T11:38:10Z</time>
      </trkpt>
      <trkpt lat="50.29932" lon="4.89969">
        <ele>78.4</ele>
        <time>2025-04-05T11:38:11Z</time>
      </trkpt>
      <trkpt lat="50.29937" lon="4.89969">
        <ele>78.4</ele>
        <time>2025-04-05T11:38:12Z</time>
      </trkpt>
      <trkpt lat="50.29941" lon="4.89969">
        <ele>78.4</ele>
        <time>2025-04-05T11:38:13Z</time>
      </trkpt>
      <trkpt lat="50.29946" lon="4.89968">
        <ele>78.4</ele>
        <time>2025-04-05T11:38:14Z</time>
      </trkpt>
      <trkpt lat="50.29951" lon="4.89967">
        <ele>78.4</ele>
        <time>2025-04-05T11:38:15Z</time>
      </trkpt>
      <trkpt lat="50.29956" lon="4.89967">
        <ele>78.4</ele>
        <time>2025-04-05T11:38:16Z</time>
      </trkpt>
      <trkpt lat="50.29961" lon="4.89966">
        <ele>78.4</ele>
        <time>2025-04-05T11:38:17Z</time>
      </trkpt>
      <trkpt lat="50.29964" lon="4.89966">
        <ele>78.6</ele>
        <time>2025-04-05T11:38:18Z</time>
      </trkpt>
      <trkpt lat="50.29968" lon="4.89965">
        <ele>78.6</ele>
        <time>2025-04-05T11:38:19Z</time>
      </trkpt>
      <trkpt lat="50.29972" lon="4.89964">
        <ele>78.6</ele>
        <time>2025-04-05T11:38:20Z</time>
      </trkpt>
      <trkpt lat="50.29975" lon="4.89965">
        <ele>78.6</ele>
        <time>2025-04-05T11:38:21Z</time>
      </trkpt>
      <trkpt lat="50.29977" lon="4.89965">
        <ele>78.6</ele>
        <time>2025-04-05T11:38:22Z</time>
      </trkpt>
      <trkpt lat="50.2998" lon="4.89967">
        <ele>78.8</ele>
        <time>2025-04-05T11:38:23Z</time>
      </trkpt>
      <trkpt lat="50.29982" lon="4.89969">
        <ele>78.8</ele>
        <time>2025-04-05T11:38:24Z</time>
      </trkpt>
      <trkpt lat="50.29984" lon="4.89973">
        <ele>78.8</ele>
        <time>2025-04-05T11:38:25Z</time>
      </trkpt>
      <trkpt lat="50.29985" lon="4.89977">
        <ele>79</ele>
        <time>2025-04-05T11:38:26Z</time>
      </trkpt>
      <trkpt lat="50.29985" lon="4.89981">
        <ele>79</ele>
        <time>2025-04-05T11:38:27Z</time>
      </trkpt>
      <trkpt lat="50.29985" lon="4.89985">
        <ele>79</ele>
        <time>2025-04-05T11:38:28Z</time>
      </trkpt>
      <trkpt lat="50.29985" lon="4.89988">
        <ele>79.2</ele>
        <time>2025-04-05T11:38:29Z</time>
      </trkpt>
      <trkpt lat="50.29984" lon="4.8999">
        <ele>79.2</ele>
        <time>2025-04-05T11:38:30Z</time>
      </trkpt>
      <trkpt lat="50.29983" lon="4.89991">
        <ele>79.2</ele>
        <time>2025-04-05T11:38:31Z</time>
      </trkpt>
      <trkpt lat="50.29982" lon="4.89992">
        <ele>79.4</ele>
        <time>2025-04-05T11:38:32Z</time>
      </trkpt>
      <trkpt lat="50.29981" lon="4.89992">
        <ele>79.4</ele>
        <time>2025-04-05T11:38:33Z</time>
      </trkpt>
      <trkpt lat="50.2998" lon="4.89993">
        <ele>79.6</ele>
        <time>2025-04-05T11:38:34Z</time>
      </trkpt>
      <trkpt lat="50.29979" lon="4.89993">
        <ele>79.6</ele>
        <time>2025-04-05T11:38:35Z</time>
      </trkpt>
      <trkpt lat="50.29979" lon="4.89993">
        <ele>79.6</ele>
        <time>2025-04-05T11:38:36Z</time>
      </trkpt>
      <trkpt lat="50.29975" lon="4.89991">
        <ele>79.8</ele>
        <time>2025-04-05T11:38:43Z</time>
      </trkpt>
      <trkpt lat="50.29974" lon="4.8999">
        <ele>79.8</ele>
        <time>2025-04-05T11:38:44Z</time>
      </trkpt>
      <trkpt lat="50.29974" lon="4.89989">
        <ele>79.8</ele>
        <time>2025-04-05T11:38:45Z</time>
      </trkpt>
      <trkpt lat="50.29973" lon="4.89989">
        <ele>79.8</ele>
        <time>2025-04-05T11:38:46Z</time>
      </trkpt>
      <trkpt lat="50.29973" lon="4.89989">
        <ele>79.8</ele>
        <time>2025-04-05T11:38:47Z</time>
      </trkpt>
      <trkpt lat="50.29973" lon="4.89989">
        <ele>79.8</ele>
        <time>2025-04-05T11:38:48Z</time>
      </trkpt>
      <trkpt lat="50.29973" lon="4.89989">
        <ele>79.8</ele>
        <time>2025-04-05T11:38:49Z</time>
      </trkpt>
      <trkpt lat="50.29973" lon="4.89989">
        <ele>79.6</ele>
        <time>2025-04-05T11:38:50Z</time>
      </trkpt>
      <trkpt lat="50.29973" lon="4.89989">
        <ele>79.6</ele>
        <time>2025-04-05T11:38:51Z</time>
      </trkpt>
      <trkpt lat="50.2997" lon="4.89987">
        <ele>79.6</ele>
        <time>2025-04-05T11:38:55Z</time>
      </trkpt>
      <trkpt lat="50.29969" lon="4.89987">
        <ele>79.6</ele>
        <time>2025-04-05T11:38:56Z</time>
      </trkpt>
      <trkpt lat="50.29968" lon="4.89987">
        <ele>79.6</ele>
        <time>2025-04-05T11:38:57Z</time>
      </trkpt>
      <trkpt lat="50.29967" lon="4.89988">
        <ele>79.6</ele>
        <time>2025-04-05T11:38:58Z</time>
      </trkpt>
      <trkpt lat="50.29967" lon="4.89988">
        <ele>79.6</ele>
        <time>2025-04-05T11:38:59Z</time>
      </trkpt>
      <trkpt lat="50.29967" lon="4.89989">
        <ele>79.6</ele>
        <time>2025-04-05T11:39:00Z</time>
      </trkpt>
      <trkpt lat="50.29967" lon="4.89989">
        <ele>79.6</ele>
        <time>2025-04-05T11:39:01Z</time>
      </trkpt>
      <trkpt lat="50.29967" lon="4.89989">
        <ele>79.6</ele>
        <time>2025-04-05T11:39:02Z</time>
      </trkpt>
      <trkpt lat="50.29967" lon="4.89989">
        <ele>79.6</ele>
        <time>2025-04-05T11:39:03Z</time>
      </trkpt>
      <trkpt lat="50.29967" lon="4.89989">
        <ele>79.6</ele>
        <time>2025-04-05T11:39:04Z</time>
      </trkpt>
      <trkpt lat="50.29967" lon="4.89989">
        <ele>79.6</ele>
        <time>2025-04-05T11:39:05Z</time>
      </trkpt>
      <trkpt lat="50.29984" lon="4.89982">
        <ele>79.6</ele>
        <time>2025-04-05T11:54:51Z</time>
      </trkpt>
      <trkpt lat="50.29986" lon="4.89979">
        <ele>79.6</ele>
        <time>2025-04-05T11:54:52Z</time>
      </trkpt>
      <trkpt lat="50.29987" lon="4.89976">
        <ele>79.6</ele>
        <time>2025-04-05T11:54:53Z</time>
      </trkpt>
      <trkpt lat="50.29989" lon="4.89972">
        <ele>79.6</ele>
        <time>2025-04-05T11:54:54Z</time>
      </trkpt>
      <trkpt lat="50.2999" lon="4.89968">
        <ele>79.6</ele>
        <time>2025-04-05T11:54:55Z</time>
      </trkpt>
      <trkpt lat="50.29993" lon="4.89963">
        <ele>79.4</ele>
        <time>2025-04-05T11:54:56Z</time>
      </trkpt>
      <trkpt lat="50.29996" lon="4.89959">
        <ele>79.4</ele>
        <time>2025-04-05T11:54:57Z</time>
      </trkpt>
      <trkpt lat="50.3" lon="4.89957">
        <ele>79.4</ele>
        <time>2025-04-05T11:54:58Z</time>
      </trkpt>
      <trkpt lat="50.30005" lon="4.89955">
        <ele>79.4</ele>
        <time>2025-04-05T11:54:59Z</time>
      </trkpt>
      <trkpt lat="50.3001" lon="4.89954">
        <ele>79.4</ele>
        <time>2025-04-05T11:55:00Z</time>
      </trkpt>
      <trkpt lat="50.30015" lon="4.89952">
        <ele>79.4</ele>
        <time>2025-04-05T11:55:01Z</time>
      </trkpt>
      <trkpt lat="50.3002" lon="4.8995">
        <ele>79.4</ele>
        <time>2025-04-05T11:55:02Z</time>
      </trkpt>
      <trkpt lat="50.30026" lon="4.89948">
        <ele>79.2</ele>
        <time>2025-04-05T11:55:03Z</time>
      </trkpt>
      <trkpt lat="50.3003" lon="4.89946">
        <ele>79.2</ele>
        <time>2025-04-05T11:55:04Z</time>
      </trkpt>
      <trkpt lat="50.30035" lon="4.89944">
        <ele>79.4</ele>
        <time>2025-04-05T11:55:05Z</time>
      </trkpt>
      <trkpt lat="50.30039" lon="4.89942">
        <ele>79.4</ele>
        <time>2025-04-05T11:55:06Z</time>
      </trkpt>
      <trkpt lat="50.30043" lon="4.8994">
        <ele>79.4</ele>
        <time>2025-04-05T11:55:07Z</time>
      </trkpt>
      <trkpt lat="50.30047" lon="4.89938">
        <ele>79.4</ele>
        <time>2025-04-05T11:55:08Z</time>
      </trkpt>
      <trkpt lat="50.3005" lon="4.89936">
        <ele>79.4</ele>
        <time>2025-04-05T11:55:09Z</time>
      </trkpt>
      <trkpt lat="50.30054" lon="4.89935">
        <ele>79.4</ele>
        <time>2025-04-05T11:55:10Z</time>
      </trkpt>
      <trkpt lat="50.30058" lon="4.89933">
        <ele>79.6</ele>
        <time>2025-04-05T11:55:11Z</time>
      </trkpt>
      <trkpt lat="50.30061" lon="4.89931">
        <ele>79.6</ele>
        <time>2025-04-05T11:55:12Z</time>
      </trkpt>
      <trkpt lat="50.30064" lon="4.89929">
        <ele>79.6</ele>
        <time>2025-04-05T11:55:13Z</time>
      </trkpt>
      <trkpt lat="50.30067" lon="4.89928">
        <ele>79.6</ele>
        <time>2025-04-05T11:55:14Z</time>
      </trkpt>
      <trkpt lat="50.30071" lon="4.89926">
        <ele>79.6</ele>
        <time>2025-04-05T11:55:15Z</time>
      </trkpt>
      <trkpt lat="50.30074" lon="4.89924">
        <ele>79.6</ele>
        <time>2025-04-05T11:55:16Z</time>
      </trkpt>
      <trkpt lat="50.30078" lon="4.89923">
        <ele>79.6</ele>
        <time>2025-04-05T11:55:17Z</time>
      </trkpt>
      <trkpt lat="50.30081" lon="4.89922">
        <ele>79.6</ele>
        <time>2025-04-05T11:55:18Z</time>
      </trkpt>
      <trkpt lat="50.30085" lon="4.89919">
        <ele>79.6</ele>
        <time>2025-04-05T11:55:19Z</time>
      </trkpt>
      <trkpt lat="50.30089" lon="4.89917">
        <ele>79.6</ele>
        <time>2025-04-05T11:55:20Z</time>
      </trkpt>
      <trkpt lat="50.30093" lon="4.89914">
        <ele>79.6</ele>
        <time>2025-04-05T11:55:21Z</time>
      </trkpt>
      <trkpt lat="50.30096" lon="4.89913">
        <ele>79.6</ele>
        <time>2025-04-05T11:55:22Z</time>
      </trkpt>
      <trkpt lat="50.301" lon="4.89911">
        <ele>79.6</ele>
        <time>2025-04-05T11:55:23Z</time>
      </trkpt>
      <trkpt lat="50.30104" lon="4.89908">
        <ele>79.6</ele>
        <time>2025-04-05T11:55:24Z</time>
      </trkpt>
      <trkpt lat="50.30107" lon="4.89906">
        <ele>79.8</ele>
        <time>2025-04-05T11:55:25Z</time>
      </trkpt>
      <trkpt lat="50.30111" lon="4.89903">
        <ele>79.8</ele>
        <time>2025-04-05T11:55:26Z</time>
      </trkpt>
      <trkpt lat="50.30116" lon="4.899">
        <ele>79.8</ele>
        <time>2025-04-05T11:55:27Z</time>
      </trkpt>
      <trkpt lat="50.30119" lon="4.89897">
        <ele>79.8</ele>
        <time>2025-04-05T11:55:28Z</time>
      </trkpt>
      <trkpt lat="50.30123" lon="4.89895">
        <ele>79.6</ele>
        <time>2025-04-05T11:55:29Z</time>
      </trkpt>
      <trkpt lat="50.30127" lon="4.89891">
        <ele>79.6</ele>
        <time>2025-04-05T11:55:30Z</time>
      </trkpt>
      <trkpt lat="50.3013" lon="4.89888">
        <ele>79.4</ele>
        <time>2025-04-05T11:55:31Z</time>
      </trkpt>
      <trkpt lat="50.30134" lon="4.89885">
        <ele>79.4</ele>
        <time>2025-04-05T11:55:32Z</time>
      </trkpt>
      <trkpt lat="50.30138" lon="4.89882">
        <ele>79.4</ele>
        <time>2025-04-05T11:55:33Z</time>
      </trkpt>
      <trkpt lat="50.30142" lon="4.89878">
        <ele>79.2</ele>
        <time>2025-04-05T11:55:34Z</time>
      </trkpt>
      <trkpt lat="50.30146" lon="4.89874">
        <ele>79.2</ele>
        <time>2025-04-05T11:55:35Z</time>
      </trkpt>
      <trkpt lat="50.3015" lon="4.8987">
        <ele>79.2</ele>
        <time>2025-04-05T11:55:36Z</time>
      </trkpt>
      <trkpt lat="50.30154" lon="4.89866">
        <ele>79.2</ele>
        <time>2025-04-05T11:55:37Z</time>
      </trkpt>
      <trkpt lat="50.30159" lon="4.89861">
        <ele>79.2</ele>
        <time>2025-04-05T11:55:38Z</time>
      </trkpt>
      <trkpt lat="50.30163" lon="4.89857">
        <ele>79.2</ele>
        <time>2025-04-05T11:55:39Z</time>
      </trkpt>
      <trkpt lat="50.30167" lon="4.89853">
        <ele>79.2</ele>
        <time>2025-04-05T11:55:40Z</time>
      </trkpt>
      <trkpt lat="50.30172" lon="4.89849">
        <ele>79.2</ele>
        <time>2025-04-05T11:55:41Z</time>
      </trkpt>
      <trkpt lat="50.30176" lon="4.89844">
        <ele>79.4</ele>
        <time>2025-04-05T11:55:42Z</time>
      </trkpt>
      <trkpt lat="50.3018" lon="4.8984">
        <ele>79.4</ele>
        <time>2025-04-05T11:55:43Z</time>
      </trkpt>
      <trkpt lat="50.30184" lon="4.89835">
        <ele>79.4</ele>
        <time>2025-04-05T11:55:44Z</time>
      </trkpt>
      <trkpt lat="50.30188" lon="4.89831">
        <ele>79.6</ele>
        <time>2025-04-05T11:55:45Z</time>
      </trkpt>
      <trkpt lat="50.30193" lon="4.89826">
        <ele>79.6</ele>
        <time>2025-04-05T11:55:46Z</time>
      </trkpt>
      <trkpt lat="50.30197" lon="4.89821">
        <ele>79.6</ele>
        <time>2025-04-05T11:55:47Z</time>
      </trkpt>
      <trkpt lat="50.30202" lon="4.89817">
        <ele>79.6</ele>
        <time>2025-04-05T11:55:48Z</time>
      </trkpt>
      <trkpt lat="50.30206" lon="4.89812">
        <ele>79.6</ele>
        <time>2025-04-05T11:55:49Z</time>
      </trkpt>
      <trkpt lat="50.30211" lon="4.89808">
        <ele>79.6</ele>
        <time>2025-04-05T11:55:50Z</time>
      </trkpt>
      <trkpt lat="50.30215" lon="4.89803">
        <ele>79.6</ele>
        <time>2025-04-05T11:55:51Z</time>
      </trkpt>
      <trkpt lat="50.30219" lon="4.89798">
        <ele>79.4</ele>
        <time>2025-04-05T11:55:52Z</time>
      </trkpt>
      <trkpt lat="50.30223" lon="4.89793">
        <ele>79.4</ele>
        <time>2025-04-05T11:55:53Z</time>
      </trkpt>
      <trkpt lat="50.30227" lon="4.89788">
        <ele>79.4</ele>
        <time>2025-04-05T11:55:54Z</time>
      </trkpt>
      <trkpt lat="50.30231" lon="4.89783">
        <ele>79.4</ele>
        <time>2025-04-05T11:55:55Z</time>
      </trkpt>
      <trkpt lat="50.30235" lon="4.89778">
        <ele>79.4</ele>
        <time>2025-04-05T11:55:56Z</time>
      </trkpt>
      <trkpt lat="50.3024" lon="4.89772">
        <ele>79.4</ele>
        <time>2025-04-05T11:55:57Z</time>
      </trkpt>
      <trkpt lat="50.30244" lon="4.89767">
        <ele>79.4</ele>
        <time>2025-04-05T11:55:58Z</time>
      </trkpt>
      <trkpt lat="50.30248" lon="4.89762">
        <ele>79.4</ele>
        <time>2025-04-05T11:55:59Z</time>
      </trkpt>
      <trkpt lat="50.30253" lon="4.89757">
        <ele>79.2</ele>
        <time>2025-04-05T11:56:00Z</time>
      </trkpt>
      <trkpt lat="50.30257" lon="4.89751">
        <ele>79.2</ele>
        <time>2025-04-05T11:56:01Z</time>
      </trkpt>
      <trkpt lat="50.30261" lon="4.89746">
        <ele>79.2</ele>
        <time>2025-04-05T11:56:02Z</time>
      </trkpt>
      <trkpt lat="50.30265" lon="4.89741">
        <ele>79.2</ele>
        <time>2025-04-05T11:56:03Z</time>
      </trkpt>
      <trkpt lat="50.3027" lon="4.89736">
        <ele>79</ele>
        <time>2025-04-05T11:56:04Z</time>
      </trkpt>
      <trkpt lat="50.30275" lon="4.8973">
        <ele>79</ele>
        <time>2025-04-05T11:56:05Z</time>
      </trkpt>
      <trkpt lat="50.3028" lon="4.89725">
        <ele>79</ele>
        <time>2025-04-05T11:56:06Z</time>
      </trkpt>
      <trkpt lat="50.30285" lon="4.89719">
        <ele>78.8</ele>
        <time>2025-04-05T11:56:07Z</time>
      </trkpt>
      <trkpt lat="50.3029" lon="4.89713">
        <ele>78.8</ele>
        <time>2025-04-05T11:56:08Z</time>
      </trkpt>
      <trkpt lat="50.30294" lon="4.89708">
        <ele>78.8</ele>
        <time>2025-04-05T11:56:09Z</time>
      </trkpt>
      <trkpt lat="50.30299" lon="4.89703">
        <ele>78.8</ele>
        <time>2025-04-05T11:56:10Z</time>
      </trkpt>
      <trkpt lat="50.30304" lon="4.89699">
        <ele>78.8</ele>
        <time>2025-04-05T11:56:11Z</time>
      </trkpt>
      <trkpt lat="50.30308" lon="4.89694">
        <ele>78.8</ele>
        <time>2025-04-05T11:56:12Z</time>
      </trkpt>
      <trkpt lat="50.30313" lon="4.89689">
        <ele>78.8</ele>
        <time>2025-04-05T11:56:13Z</time>
      </trkpt>
      <trkpt lat="50.30317" lon="4.89685">
        <ele>78.8</ele>
        <time>2025-04-05T11:56:14Z</time>
      </trkpt>
      <trkpt lat="50.30322" lon="4.8968">
        <ele>78.8</ele>
        <time>2025-04-05T11:56:15Z</time>
      </trkpt>
      <trkpt lat="50.30327" lon="4.89676">
        <ele>78.6</ele>
        <time>2025-04-05T11:56:16Z</time>
      </trkpt>
      <trkpt lat="50.30332" lon="4.89672">
        <ele>78.6</ele>
        <time>2025-04-05T11:56:17Z</time>
      </trkpt>
      <trkpt lat="50.30337" lon="4.89667">
        <ele>78.6</ele>
        <time>2025-04-05T11:56:18Z</time>
      </trkpt>
      <trkpt lat="50.30342" lon="4.89663">
        <ele>78.4</ele>
        <time>2025-04-05T11:56:19Z</time>
      </trkpt>
      <trkpt lat="50.30347" lon="4.89659">
        <ele>78.6</ele>
        <time>2025-04-05T11:56:20Z</time>
      </trkpt>
      <trkpt lat="50.30352" lon="4.89655">
        <ele>78.6</ele>
        <time>2025-04-05T11:56:21Z</time>
      </trkpt>
      <trkpt lat="50.30357" lon="4.89652">
        <ele>78.6</ele>
        <time>2025-04-05T11:56:22Z</time>
      </trkpt>
      <trkpt lat="50.30362" lon="4.89648">
        <ele>78.6</ele>
        <time>2025-04-05T11:56:23Z</time>
      </trkpt>
      <trkpt lat="50.30366" lon="4.89644">
        <ele>78.6</ele>
        <time>2025-04-05T11:56:24Z</time>
      </trkpt>
      <trkpt lat="50.30371" lon="4.89641">
        <ele>78.8</ele>
        <time>2025-04-05T11:56:25Z</time>
      </trkpt>
      <trkpt lat="50.30376" lon="4.89637">
        <ele>78.8</ele>
        <time>2025-04-05T11:56:26Z</time>
      </trkpt>
      <trkpt lat="50.3038" lon="4.89632">
        <ele>78.8</ele>
        <time>2025-04-05T11:56:27Z</time>
      </trkpt>
      <trkpt lat="50.30385" lon="4.89628">
        <ele>78.6</ele>
        <time>2025-04-05T11:56:28Z</time>
      </trkpt>
      <trkpt lat="50.30389" lon="4.89624">
        <ele>78.6</ele>
        <time>2025-04-05T11:56:29Z</time>
      </trkpt>
      <trkpt lat="50.30394" lon="4.89619">
        <ele>78.4</ele>
        <time>2025-04-05T11:56:30Z</time>
      </trkpt>
      <trkpt lat="50.30399" lon="4.89614">
        <ele>78.4</ele>
        <time>2025-04-05T11:56:31Z</time>
      </trkpt>
      <trkpt lat="50.30403" lon="4.8961">
        <ele>78.4</ele>
        <time>2025-04-05T11:56:32Z</time>
      </trkpt>
      <trkpt lat="50.30408" lon="4.89606">
        <ele>78.4</ele>
        <time>2025-04-05T11:56:33Z</time>
      </trkpt>
      <trkpt lat="50.30412" lon="4.89602">
        <ele>78.6</ele>
        <time>2025-04-05T11:56:34Z</time>
      </trkpt>
      <trkpt lat="50.30416" lon="4.89597">
        <ele>78.6</ele>
        <time>2025-04-05T11:56:35Z</time>
      </trkpt>
      <trkpt lat="50.3042" lon="4.89593">
        <ele>78.8</ele>
        <time>2025-04-05T11:56:36Z</time>
      </trkpt>
      <trkpt lat="50.30424" lon="4.89589">
        <ele>79</ele>
        <time>2025-04-05T11:56:37Z</time>
      </trkpt>
      <trkpt lat="50.30428" lon="4.89584">
        <ele>78.8</ele>
        <time>2025-04-05T11:56:38Z</time>
      </trkpt>
      <trkpt lat="50.30432" lon="4.89579">
        <ele>78.8</ele>
        <time>2025-04-05T11:56:39Z</time>
      </trkpt>
      <trkpt lat="50.30436" lon="4.89575">
        <ele>78.6</ele>
        <time>2025-04-05T11:56:40Z</time>
      </trkpt>
      <trkpt lat="50.30439" lon="4.89569">
        <ele>78.6</ele>
        <time>2025-04-05T11:56:41Z</time>
      </trkpt>
      <trkpt lat="50.30443" lon="4.89565">
        <ele>78.6</ele>
        <time>2025-04-05T11:56:42Z</time>
      </trkpt>
      <trkpt lat="50.30447" lon="4.8956">
        <ele>78.6</ele>
        <time>2025-04-05T11:56:43Z</time>
      </trkpt>
      <trkpt lat="50.30452" lon="4.89555">
        <ele>78.6</ele>
        <time>2025-04-05T11:56:44Z</time>
      </trkpt>
      <trkpt lat="50.30456" lon="4.89549">
        <ele>78.4</ele>
        <time>2025-04-05T11:56:45Z</time>
      </trkpt>
      <trkpt lat="50.3046" lon="4.89543">
        <ele>78.4</ele>
        <time>2025-04-05T11:56:46Z</time>
      </trkpt>
      <trkpt lat="50.30463" lon="4.89537">
        <ele>78.4</ele>
        <time>2025-04-05T11:56:47Z</time>
      </trkpt>
      <trkpt lat="50.30467" lon="4.89532">
        <ele>78.4</ele>
        <time>2025-04-05T11:56:48Z</time>
      </trkpt>
      <trkpt lat="50.3047" lon="4.89526">
        <ele>78.4</ele>
        <time>2025-04-05T11:56:49Z</time>
      </trkpt>
      <trkpt lat="50.30474" lon="4.8952">
        <ele>78.4</ele>
        <time>2025-04-05T11:56:50Z</time>
      </trkpt>
      <trkpt lat="50.30478" lon="4.89514">
        <ele>78.2</ele>
        <time>2025-04-05T11:56:51Z</time>
      </trkpt>
      <trkpt lat="50.30482" lon="4.89508">
        <ele>78.2</ele>
        <time>2025-04-05T11:56:52Z</time>
      </trkpt>
      <trkpt lat="50.30486" lon="4.89502">
        <ele>78.2</ele>
        <time>2025-04-05T11:56:53Z</time>
      </trkpt>
      <trkpt lat="50.30489" lon="4.89496">
        <ele>78.4</ele>
        <time>2025-04-05T11:56:54Z</time>
      </trkpt>
      <trkpt lat="50.30492" lon="4.89489">
        <ele>78.4</ele>
        <time>2025-04-05T11:56:55Z</time>
      </trkpt>
      <trkpt lat="50.30496" lon="4.89483">
        <ele>78.4</ele>
        <time>2025-04-05T11:56:56Z</time>
      </trkpt>
      <trkpt lat="50.305" lon="4.89476">
        <ele>78.4</ele>
        <time>2025-04-05T11:56:57Z</time>
      </trkpt>
      <trkpt lat="50.30503" lon="4.8947">
        <ele>78.4</ele>
        <time>2025-04-05T11:56:58Z</time>
      </trkpt>
      <trkpt lat="50.30507" lon="4.89464">
        <ele>78.4</ele>
        <time>2025-04-05T11:56:59Z</time>
      </trkpt>
      <trkpt lat="50.30511" lon="4.89458">
        <ele>78.2</ele>
        <time>2025-04-05T11:57:00Z</time>
      </trkpt>
      <trkpt lat="50.30514" lon="4.89452">
        <ele>78.2</ele>
        <time>2025-04-05T11:57:01Z</time>
      </trkpt>
      <trkpt lat="50.30518" lon="4.89445">
        <ele>78</ele>
        <time>2025-04-05T11:57:02Z</time>
      </trkpt>
      <trkpt lat="50.30521" lon="4.89439">
        <ele>78</ele>
        <time>2025-04-05T11:57:03Z</time>
      </trkpt>
      <trkpt lat="50.30524" lon="4.89432">
        <ele>78</ele>
        <time>2025-04-05T11:57:04Z</time>
      </trkpt>
      <trkpt lat="50.30527" lon="4.89424">
        <ele>77.8</ele>
        <time>2025-04-05T11:57:05Z</time>
      </trkpt>
      <trkpt lat="50.3053" lon="4.89417">
        <ele>77.8</ele>
        <time>2025-04-05T11:57:06Z</time>
      </trkpt>
      <trkpt lat="50.30533" lon="4.8941">
        <ele>77.8</ele>
        <time>2025-04-05T11:57:07Z</time>
      </trkpt>
      <trkpt lat="50.30536" lon="4.89403">
        <ele>77.8</ele>
        <time>2025-04-05T11:57:08Z</time>
      </trkpt>
      <trkpt lat="50.30539" lon="4.89396">
        <ele>77.8</ele>
        <time>2025-04-05T11:57:09Z</time>
      </trkpt>
      <trkpt lat="50.30542" lon="4.8939">
        <ele>78</ele>
        <time>2025-04-05T11:57:10Z</time>
      </trkpt>
      <trkpt lat="50.30545" lon="4.89384">
        <ele>78</ele>
        <time>2025-04-05T11:57:11Z</time>
      </trkpt>
      <trkpt lat="50.30549" lon="4.89377">
        <ele>78</ele>
        <time>2025-04-05T11:57:12Z</time>
      </trkpt>
      <trkpt lat="50.30552" lon="4.89371">
        <ele>78</ele>
        <time>2025-04-05T11:57:13Z</time>
      </trkpt>
      <trkpt lat="50.30555" lon="4.89364">
        <ele>78</ele>
        <time>2025-04-05T11:57:14Z</time>
      </trkpt>
      <trkpt lat="50.30558" lon="4.89358">
        <ele>78</ele>
        <time>2025-04-05T11:57:15Z</time>
      </trkpt>
      <trkpt lat="50.30561" lon="4.89351">
        <ele>77.8</ele>
        <time>2025-04-05T11:57:16Z</time>
      </trkpt>
      <trkpt lat="50.30565" lon="4.89344">
        <ele>77.8</ele>
        <time>2025-04-05T11:57:17Z</time>
      </trkpt>
      <trkpt lat="50.30569" lon="4.89337">
        <ele>77.8</ele>
        <time>2025-04-05T11:57:18Z</time>
      </trkpt>
      <trkpt lat="50.30572" lon="4.89331">
        <ele>77.8</ele>
        <time>2025-04-05T11:57:19Z</time>
      </trkpt>
      <trkpt lat="50.30576" lon="4.89324">
        <ele>77.8</ele>
        <time>2025-04-05T11:57:20Z</time>
      </trkpt>
      <trkpt lat="50.30579" lon="4.89318">
        <ele>77.8</ele>
        <time>2025-04-05T11:57:21Z</time>
      </trkpt>
      <trkpt lat="50.30583" lon="4.89312">
        <ele>77.8</ele>
        <time>2025-04-05T11:57:22Z</time>
      </trkpt>
      <trkpt lat="50.30587" lon="4.89306">
        <ele>77.8</ele>
        <time>2025-04-05T11:57:23Z</time>
      </trkpt>
      <trkpt lat="50.3059" lon="4.893">
        <ele>77.6</ele>
        <time>2025-04-05T11:57:24Z</time>
      </trkpt>
      <trkpt lat="50.30594" lon="4.89294">
        <ele>77.6</ele>
        <time>2025-04-05T11:57:25Z</time>
      </trkpt>
      <trkpt lat="50.30599" lon="4.89287">
        <ele>77.6</ele>
        <time>2025-04-05T11:57:26Z</time>
      </trkpt>
      <trkpt lat="50.30603" lon="4.89281">
        <ele>77.6</ele>
        <time>2025-04-05T11:57:27Z</time>
      </trkpt>
      <trkpt lat="50.30607" lon="4.89275">
        <ele>77.8</ele>
        <time>2025-04-05T11:57:28Z</time>
      </trkpt>
      <trkpt lat="50.30611" lon="4.89269">
        <ele>77.8</ele>
        <time>2025-04-05T11:57:29Z</time>
      </trkpt>
      <trkpt lat="50.30616" lon="4.89263">
        <ele>78</ele>
        <time>2025-04-05T11:57:30Z</time>
      </trkpt>
      <trkpt lat="50.30621" lon="4.89257">
        <ele>78</ele>
        <time>2025-04-05T11:57:31Z</time>
      </trkpt>
      <trkpt lat="50.30625" lon="4.89251">
        <ele>78</ele>
        <time>2025-04-05T11:57:32Z</time>
      </trkpt>
      <trkpt lat="50.30629" lon="4.89246">
        <ele>78</ele>
        <time>2025-04-05T11:57:33Z</time>
      </trkpt>
      <trkpt lat="50.30634" lon="4.89241">
        <ele>78</ele>
        <time>2025-04-05T11:57:34Z</time>
      </trkpt>
      <trkpt lat="50.30638" lon="4.89236">
        <ele>78</ele>
        <time>2025-04-05T11:57:35Z</time>
      </trkpt>
      <trkpt lat="50.30643" lon="4.89231">
        <ele>78</ele>
        <time>2025-04-05T11:57:36Z</time>
      </trkpt>
      <trkpt lat="50.30647" lon="4.89225">
        <ele>78</ele>
        <time>2025-04-05T11:57:37Z</time>
      </trkpt>
      <trkpt lat="50.30652" lon="4.8922">
        <ele>78</ele>
        <time>2025-04-05T11:57:38Z</time>
      </trkpt>
      <trkpt lat="50.30656" lon="4.89215">
        <ele>78</ele>
        <time>2025-04-05T11:57:39Z</time>
      </trkpt>
      <trkpt lat="50.30661" lon="4.89209">
        <ele>77.8</ele>
        <time>2025-04-05T11:57:40Z</time>
      </trkpt>
      <trkpt lat="50.30665" lon="4.89204">
        <ele>77.8</ele>
        <time>2025-04-05T11:57:41Z</time>
      </trkpt>
      <trkpt lat="50.3067" lon="4.89199">
        <ele>77.6</ele>
        <time>2025-04-05T11:57:42Z</time>
      </trkpt>
      <trkpt lat="50.30674" lon="4.89194">
        <ele>77.6</ele>
        <time>2025-04-05T11:57:43Z</time>
      </trkpt>
      <trkpt lat="50.30677" lon="4.8919">
        <ele>77.6</ele>
        <time>2025-04-05T11:57:44Z</time>
      </trkpt>
      <trkpt lat="50.3068" lon="4.89186">
        <ele>77.6</ele>
        <time>2025-04-05T11:57:45Z</time>
      </trkpt>
      <trkpt lat="50.30682" lon="4.89182">
        <ele>77.6</ele>
        <time>2025-04-05T11:57:46Z</time>
      </trkpt>
      <trkpt lat="50.30685" lon="4.89177">
        <ele>77.8</ele>
        <time>2025-04-05T11:57:47Z</time>
      </trkpt>
      <trkpt lat="50.3069" lon="4.89171">
        <ele>77.8</ele>
        <time>2025-04-05T11:57:48Z</time>
      </trkpt>
      <trkpt lat="50.30695" lon="4.89164">
        <ele>77.8</ele>
        <time>2025-04-05T11:57:49Z</time>
      </trkpt>
      <trkpt lat="50.30701" lon="4.89157">
        <ele>77.6</ele>
        <time>2025-04-05T11:57:50Z</time>
      </trkpt>
      <trkpt lat="50.30705" lon="4.89151">
        <ele>77.6</ele>
        <time>2025-04-05T11:57:51Z</time>
      </trkpt>
      <trkpt lat="50.3071" lon="4.89145">
        <ele>77.8</ele>
        <time>2025-04-05T11:57:52Z</time>
      </trkpt>
      <trkpt lat="50.30715" lon="4.89139">
        <ele>77.8</ele>
        <time>2025-04-05T11:57:53Z</time>
      </trkpt>
      <trkpt lat="50.3072" lon="4.89133">
        <ele>77.8</ele>
        <time>2025-04-05T11:57:54Z</time>
      </trkpt>
      <trkpt lat="50.30724" lon="4.89127">
        <ele>77.6</ele>
        <time>2025-04-05T11:57:55Z</time>
      </trkpt>
      <trkpt lat="50.30728" lon="4.89122">
        <ele>77.6</ele>
        <time>2025-04-05T11:57:56Z</time>
      </trkpt>
      <trkpt lat="50.30733" lon="4.89116">
        <ele>77.6</ele>
        <time>2025-04-05T11:57:57Z</time>
      </trkpt>
      <trkpt lat="50.30738" lon="4.8911">
        <ele>77.4</ele>
        <time>2025-04-05T11:57:58Z</time>
      </trkpt>
      <trkpt lat="50.30742" lon="4.89104">
        <ele>77.4</ele>
        <time>2025-04-05T11:57:59Z</time>
      </trkpt>
      <trkpt lat="50.30747" lon="4.89099">
        <ele>77.4</ele>
        <time>2025-04-05T11:58:00Z</time>
      </trkpt>
      <trkpt lat="50.30752" lon="4.89094">
        <ele>77.4</ele>
        <time>2025-04-05T11:58:01Z</time>
      </trkpt>
      <trkpt lat="50.30757" lon="4.89088">
        <ele>77.4</ele>
        <time>2025-04-05T11:58:02Z</time>
      </trkpt>
      <trkpt lat="50.30762" lon="4.89082">
        <ele>77.6</ele>
        <time>2025-04-05T11:58:03Z</time>
      </trkpt>
      <trkpt lat="50.30767" lon="4.89076">
        <ele>77.6</ele>
        <time>2025-04-05T11:58:04Z</time>
      </trkpt>
      <trkpt lat="50.30771" lon="4.89071">
        <ele>77.6</ele>
        <time>2025-04-05T11:58:05Z</time>
      </trkpt>
      <trkpt lat="50.30776" lon="4.89065">
        <ele>77.4</ele>
        <time>2025-04-05T11:58:06Z</time>
      </trkpt>
      <trkpt lat="50.30781" lon="4.89059">
        <ele>77.4</ele>
        <time>2025-04-05T11:58:07Z</time>
      </trkpt>
      <trkpt lat="50.30785" lon="4.89053">
        <ele>77.4</ele>
        <time>2025-04-05T11:58:08Z</time>
      </trkpt>
      <trkpt lat="50.3079" lon="4.89047">
        <ele>77.4</ele>
        <time>2025-04-05T11:58:09Z</time>
      </trkpt>
      <trkpt lat="50.30795" lon="4.8904">
        <ele>77.4</ele>
        <time>2025-04-05T11:58:10Z</time>
      </trkpt>
      <trkpt lat="50.308" lon="4.89033">
        <ele>77.4</ele>
        <time>2025-04-05T11:58:11Z</time>
      </trkpt>
      <trkpt lat="50.30804" lon="4.89027">
        <ele>77.4</ele>
        <time>2025-04-05T11:58:12Z</time>
      </trkpt>
      <trkpt lat="50.30809" lon="4.89021">
        <ele>77.4</ele>
        <time>2025-04-05T11:58:13Z</time>
      </trkpt>
      <trkpt lat="50.30814" lon="4.89013">
        <ele>77.4</ele>
        <time>2025-04-05T11:58:14Z</time>
      </trkpt>
      <trkpt lat="50.30818" lon="4.89007">
        <ele>77.2</ele>
        <time>2025-04-05T11:58:15Z</time>
      </trkpt>
      <trkpt lat="50.30822" lon="4.89001">
        <ele>77.2</ele>
        <time>2025-04-05T11:58:16Z</time>
      </trkpt>
      <trkpt lat="50.30826" lon="4.88995">
        <ele>77</ele>
        <time>2025-04-05T11:58:17Z</time>
      </trkpt>
      <trkpt lat="50.3083" lon="4.88987">
        <ele>77</ele>
        <time>2025-04-05T11:58:18Z</time>
      </trkpt>
      <trkpt lat="50.30835" lon="4.88981">
        <ele>77.2</ele>
        <time>2025-04-05T11:58:19Z</time>
      </trkpt>
      <trkpt lat="50.30839" lon="4.88974">
        <ele>77.2</ele>
        <time>2025-04-05T11:58:20Z</time>
      </trkpt>
      <trkpt lat="50.30844" lon="4.88967">
        <ele>77.4</ele>
        <time>2025-04-05T11:58:21Z</time>
      </trkpt>
      <trkpt lat="50.30848" lon="4.8896">
        <ele>77.4</ele>
        <time>2025-04-05T11:58:22Z</time>
      </trkpt>
      <trkpt lat="50.30852" lon="4.88953">
        <ele>77.4</ele>
        <time>2025-04-05T11:58:23Z</time>
      </trkpt>
      <trkpt lat="50.30856" lon="4.88947">
        <ele>77.4</ele>
        <time>2025-04-05T11:58:24Z</time>
      </trkpt>
      <trkpt lat="50.30859" lon="4.8894">
        <ele>77.4</ele>
        <time>2025-04-05T11:58:25Z</time>
      </trkpt>
      <trkpt lat="50.30864" lon="4.88934">
        <ele>77.4</ele>
        <time>2025-04-05T11:58:26Z</time>
      </trkpt>
      <trkpt lat="50.30868" lon="4.88927">
        <ele>77.4</ele>
        <time>2025-04-05T11:58:27Z</time>
      </trkpt>
      <trkpt lat="50.30872" lon="4.8892">
        <ele>77.4</ele>
        <time>2025-04-05T11:58:28Z</time>
      </trkpt>
      <trkpt lat="50.30877" lon="4.88913">
        <ele>77.2</ele>
        <time>2025-04-05T11:58:29Z</time>
      </trkpt>
      <trkpt lat="50.30881" lon="4.88906">
        <ele>77.2</ele>
        <time>2025-04-05T11:58:30Z</time>
      </trkpt>
      <trkpt lat="50.30885" lon="4.88899">
        <ele>77.2</ele>
        <time>2025-04-05T11:58:31Z</time>
      </trkpt>
      <trkpt lat="50.30889" lon="4.88891">
        <ele>77</ele>
        <time>2025-04-05T11:58:32Z</time>
      </trkpt>
      <trkpt lat="50.30893" lon="4.88884">
        <ele>77</ele>
        <time>2025-04-05T11:58:33Z</time>
      </trkpt>
      <trkpt lat="50.30898" lon="4.88877">
        <ele>77.2</ele>
        <time>2025-04-05T11:58:34Z</time>
      </trkpt>
      <trkpt lat="50.30902" lon="4.88869">
        <ele>77.2</ele>
        <time>2025-04-05T11:58:35Z</time>
      </trkpt>
      <trkpt lat="50.30906" lon="4.8886">
        <ele>77.2</ele>
        <time>2025-04-05T11:58:36Z</time>
      </trkpt>
      <trkpt lat="50.3091" lon="4.88854">
        <ele>77.4</ele>
        <time>2025-04-05T11:58:37Z</time>
      </trkpt>
      <trkpt lat="50.30914" lon="4.88846">
        <ele>77.4</ele>
        <time>2025-04-05T11:58:38Z</time>
      </trkpt>
      <trkpt lat="50.30918" lon="4.88837">
        <ele>77.4</ele>
        <time>2025-04-05T11:58:39Z</time>
      </trkpt>
      <trkpt lat="50.30922" lon="4.8883">
        <ele>77.4</ele>
        <time>2025-04-05T11:58:40Z</time>
      </trkpt>
      <trkpt lat="50.30926" lon="4.88822">
        <ele>77.4</ele>
        <time>2025-04-05T11:58:41Z</time>
      </trkpt>
      <trkpt lat="50.3093" lon="4.88814">
        <ele>77.4</ele>
        <time>2025-04-05T11:58:42Z</time>
      </trkpt>
      <trkpt lat="50.30934" lon="4.88807">
        <ele>77.4</ele>
        <time>2025-04-05T11:58:43Z</time>
      </trkpt>
      <trkpt lat="50.30937" lon="4.888">
        <ele>77.6</ele>
        <time>2025-04-05T11:58:44Z</time>
      </trkpt>
      <trkpt lat="50.30941" lon="4.88792">
        <ele>77.6</ele>
        <time>2025-04-05T11:58:45Z</time>
      </trkpt>
      <trkpt lat="50.30945" lon="4.88785">
        <ele>77.4</ele>
        <time>2025-04-05T11:58:46Z</time>
      </trkpt>
      <trkpt lat="50.30949" lon="4.88777">
        <ele>77.4</ele>
        <time>2025-04-05T11:58:47Z</time>
      </trkpt>
      <trkpt lat="50.30953" lon="4.8877">
        <ele>77.2</ele>
        <time>2025-04-05T11:58:48Z</time>
      </trkpt>
      <trkpt lat="50.30956" lon="4.88764">
        <ele>77.2</ele>
        <time>2025-04-05T11:58:49Z</time>
      </trkpt>
      <trkpt lat="50.3096" lon="4.88757">
        <ele>77.2</ele>
        <time>2025-04-05T11:58:50Z</time>
      </trkpt>
      <trkpt lat="50.30964" lon="4.88749">
        <ele>77.4</ele>
        <time>2025-04-05T11:58:51Z</time>
      </trkpt>
      <trkpt lat="50.30967" lon="4.88742">
        <ele>77.4</ele>
        <time>2025-04-05T11:58:52Z</time>
      </trkpt>
      <trkpt lat="50.30971" lon="4.88735">
        <ele>77.4</ele>
        <time>2025-04-05T11:58:53Z</time>
      </trkpt>
      <trkpt lat="50.30975" lon="4.88727">
        <ele>77.4</ele>
        <time>2025-04-05T11:58:54Z</time>
      </trkpt>
      <trkpt lat="50.30978" lon="4.8872">
        <ele>77.4</ele>
        <time>2025-04-05T11:58:55Z</time>
      </trkpt>
      <trkpt lat="50.30982" lon="4.88713">
        <ele>77.4</ele>
        <time>2025-04-05T11:58:56Z</time>
      </trkpt>
      <trkpt lat="50.30986" lon="4.88706">
        <ele>77.2</ele>
        <time>2025-04-05T11:58:57Z</time>
      </trkpt>
      <trkpt lat="50.3099" lon="4.88699">
        <ele>77</ele>
        <time>2025-04-05T11:58:58Z</time>
      </trkpt>
      <trkpt lat="50.30993" lon="4.88692">
        <ele>76.8</ele>
        <time>2025-04-05T11:58:59Z</time>
      </trkpt>
      <trkpt lat="50.30996" lon="4.88686">
        <ele>77</ele>
        <time>2025-04-05T11:59:00Z</time>
      </trkpt>
      <trkpt lat="50.31" lon="4.88679">
        <ele>77.2</ele>
        <time>2025-04-05T11:59:01Z</time>
      </trkpt>
      <trkpt lat="50.31003" lon="4.88672">
        <ele>77.2</ele>
        <time>2025-04-05T11:59:02Z</time>
      </trkpt>
      <trkpt lat="50.31006" lon="4.88666">
        <ele>77.2</ele>
        <time>2025-04-05T11:59:03Z</time>
      </trkpt>
      <trkpt lat="50.31009" lon="4.88659">
        <ele>77.2</ele>
        <time>2025-04-05T11:59:04Z</time>
      </trkpt>
      <trkpt lat="50.31013" lon="4.88652">
        <ele>77</ele>
        <time>2025-04-05T11:59:05Z</time>
      </trkpt>
      <trkpt lat="50.31017" lon="4.88644">
        <ele>77</ele>
        <time>2025-04-05T11:59:06Z</time>
      </trkpt>
      <trkpt lat="50.31022" lon="4.88636">
        <ele>76.8</ele>
        <time>2025-04-05T11:59:07Z</time>
      </trkpt>
      <trkpt lat="50.31025" lon="4.88629">
        <ele>77</ele>
        <time>2025-04-05T11:59:08Z</time>
      </trkpt>
      <trkpt lat="50.31029" lon="4.88623">
        <ele>77</ele>
        <time>2025-04-05T11:59:09Z</time>
      </trkpt>
      <trkpt lat="50.31033" lon="4.88616">
        <ele>77</ele>
        <time>2025-04-05T11:59:10Z</time>
      </trkpt>
      <trkpt lat="50.31037" lon="4.88609">
        <ele>77</ele>
        <time>2025-04-05T11:59:11Z</time>
      </trkpt>
      <trkpt lat="50.31041" lon="4.88602">
        <ele>77</ele>
        <time>2025-04-05T11:59:12Z</time>
      </trkpt>
      <trkpt lat="50.31046" lon="4.88593">
        <ele>77</ele>
        <time>2025-04-05T11:59:13Z</time>
      </trkpt>
      <trkpt lat="50.31049" lon="4.88587">
        <ele>77</ele>
        <time>2025-04-05T11:59:14Z</time>
      </trkpt>
      <trkpt lat="50.31053" lon="4.8858">
        <ele>77</ele>
        <time>2025-04-05T11:59:15Z</time>
      </trkpt>
      <trkpt lat="50.31057" lon="4.88572">
        <ele>77</ele>
        <time>2025-04-05T11:59:16Z</time>
      </trkpt>
      <trkpt lat="50.3106" lon="4.88566">
        <ele>77</ele>
        <time>2025-04-05T11:59:17Z</time>
      </trkpt>
      <trkpt lat="50.31064" lon="4.88559">
        <ele>77</ele>
        <time>2025-04-05T11:59:18Z</time>
      </trkpt>
      <trkpt lat="50.31068" lon="4.88552">
        <ele>77.2</ele>
        <time>2025-04-05T11:59:19Z</time>
      </trkpt>
      <trkpt lat="50.31072" lon="4.88544">
        <ele>77</ele>
        <time>2025-04-05T11:59:20Z</time>
      </trkpt>
      <trkpt lat="50.31076" lon="4.88537">
        <ele>77</ele>
        <time>2025-04-05T11:59:21Z</time>
      </trkpt>
      <trkpt lat="50.3108" lon="4.8853">
        <ele>77</ele>
        <time>2025-04-05T11:59:22Z</time>
      </trkpt>
      <trkpt lat="50.31083" lon="4.88524">
        <ele>77</ele>
        <time>2025-04-05T11:59:23Z</time>
      </trkpt>
      <trkpt lat="50.31087" lon="4.88516">
        <ele>77</ele>
        <time>2025-04-05T11:59:24Z</time>
      </trkpt>
      <trkpt lat="50.31091" lon="4.88509">
        <ele>76.8</ele>
        <time>2025-04-05T11:59:25Z</time>
      </trkpt>
      <trkpt lat="50.31094" lon="4.88503">
        <ele>76.8</ele>
        <time>2025-04-05T11:59:26Z</time>
      </trkpt>
      <trkpt lat="50.31099" lon="4.88495">
        <ele>76.8</ele>
        <time>2025-04-05T11:59:27Z</time>
      </trkpt>
      <trkpt lat="50.31103" lon="4.88487">
        <ele>76.8</ele>
        <time>2025-04-05T11:59:28Z</time>
      </trkpt>
      <trkpt lat="50.31107" lon="4.8848">
        <ele>76.6</ele>
        <time>2025-04-05T11:59:29Z</time>
      </trkpt>
      <trkpt lat="50.3111" lon="4.88474">
        <ele>76.6</ele>
        <time>2025-04-05T11:59:30Z</time>
      </trkpt>
      <trkpt lat="50.31113" lon="4.88468">
        <ele>76.8</ele>
        <time>2025-04-05T11:59:31Z</time>
      </trkpt>
      <trkpt lat="50.31117" lon="4.88462">
        <ele>76.8</ele>
        <time>2025-04-05T11:59:32Z</time>
      </trkpt>
      <trkpt lat="50.3112" lon="4.88455">
        <ele>76.6</ele>
        <time>2025-04-05T11:59:33Z</time>
      </trkpt>
      <trkpt lat="50.31124" lon="4.88448">
        <ele>76.6</ele>
        <time>2025-04-05T11:59:34Z</time>
      </trkpt>
      <trkpt lat="50.31128" lon="4.88441">
        <ele>76.6</ele>
        <time>2025-04-05T11:59:35Z</time>
      </trkpt>
      <trkpt lat="50.31132" lon="4.88435">
        <ele>76.4</ele>
        <time>2025-04-05T11:59:36Z</time>
      </trkpt>
      <trkpt lat="50.31136" lon="4.88428">
        <ele>76.4</ele>
        <time>2025-04-05T11:59:37Z</time>
      </trkpt>
      <trkpt lat="50.31139" lon="4.88421">
        <ele>76.2</ele>
        <time>2025-04-05T11:59:38Z</time>
      </trkpt>
      <trkpt lat="50.31143" lon="4.88414">
        <ele>76.2</ele>
        <time>2025-04-05T11:59:39Z</time>
      </trkpt>
      <trkpt lat="50.31147" lon="4.88407">
        <ele>76.2</ele>
        <time>2025-04-05T11:59:40Z</time>
      </trkpt>
      <trkpt lat="50.3115" lon="4.884">
        <ele>76.2</ele>
        <time>2025-04-05T11:59:41Z</time>
      </trkpt>
      <trkpt lat="50.31154" lon="4.88393">
        <ele>76.2</ele>
        <time>2025-04-05T11:59:42Z</time>
      </trkpt>
      <trkpt lat="50.31157" lon="4.88386">
        <ele>76.2</ele>
        <time>2025-04-05T11:59:43Z</time>
      </trkpt>
      <trkpt lat="50.3116" lon="4.88381">
        <ele>76.2</ele>
        <time>2025-04-05T11:59:44Z</time>
      </trkpt>
      <trkpt lat="50.31163" lon="4.88374">
        <ele>76.2</ele>
        <time>2025-04-05T11:59:45Z</time>
      </trkpt>
      <trkpt lat="50.31167" lon="4.88367">
        <ele>76.2</ele>
        <time>2025-04-05T11:59:46Z</time>
      </trkpt>
      <trkpt lat="50.31171" lon="4.8836">
        <ele>76.2</ele>
        <time>2025-04-05T11:59:47Z</time>
      </trkpt>
      <trkpt lat="50.31175" lon="4.88352">
        <ele>76.2</ele>
        <time>2025-04-05T11:59:48Z</time>
      </trkpt>
      <trkpt lat="50.31178" lon="4.88346">
        <ele>76.2</ele>
        <time>2025-04-05T11:59:49Z</time>
      </trkpt>
      <trkpt lat="50.31181" lon="4.8834">
        <ele>76.2</ele>
        <time>2025-04-05T11:59:50Z</time>
      </trkpt>
      <trkpt lat="50.31185" lon="4.88332">
        <ele>76</ele>
        <time>2025-04-05T11:59:51Z</time>
      </trkpt>
      <trkpt lat="50.31188" lon="4.88326">
        <ele>76</ele>
        <time>2025-04-05T11:59:52Z</time>
      </trkpt>
      <trkpt lat="50.31192" lon="4.8832">
        <ele>76</ele>
        <time>2025-04-05T11:59:53Z</time>
      </trkpt>
      <trkpt lat="50.31195" lon="4.88313">
        <ele>75.8</ele>
        <time>2025-04-05T11:59:54Z</time>
      </trkpt>
      <trkpt lat="50.31199" lon="4.88306">
        <ele>75.8</ele>
        <time>2025-04-05T11:59:55Z</time>
      </trkpt>
      <trkpt lat="50.31203" lon="4.88298">
        <ele>75.8</ele>
        <time>2025-04-05T11:59:56Z</time>
      </trkpt>
      <trkpt lat="50.31207" lon="4.88292">
        <ele>75.8</ele>
        <time>2025-04-05T11:59:57Z</time>
      </trkpt>
      <trkpt lat="50.3121" lon="4.88286">
        <ele>75.6</ele>
        <time>2025-04-05T11:59:58Z</time>
      </trkpt>
      <trkpt lat="50.31213" lon="4.8828">
        <ele>75.6</ele>
        <time>2025-04-05T11:59:59Z</time>
      </trkpt>
      <trkpt lat="50.31217" lon="4.88272">
        <ele>75.6</ele>
        <time>2025-04-05T12:00:00Z</time>
      </trkpt>
      <trkpt lat="50.3122" lon="4.88267">
        <ele>75.4</ele>
        <time>2025-04-05T12:00:01Z</time>
      </trkpt>
      <trkpt lat="50.31223" lon="4.88262">
        <ele>75.4</ele>
        <time>2025-04-05T12:00:02Z</time>
      </trkpt>
      <trkpt lat="50.31227" lon="4.88255">
        <ele>75.2</ele>
        <time>2025-04-05T12:00:03Z</time>
      </trkpt>
      <trkpt lat="50.31231" lon="4.88248">
        <ele>75.2</ele>
        <time>2025-04-05T12:00:04Z</time>
      </trkpt>
      <trkpt lat="50.31234" lon="4.88242">
        <ele>75.2</ele>
        <time>2025-04-05T12:00:05Z</time>
      </trkpt>
      <trkpt lat="50.31239" lon="4.88235">
        <ele>75.2</ele>
        <time>2025-04-05T12:00:06Z</time>
      </trkpt>
      <trkpt lat="50.31242" lon="4.88229">
        <ele>75.4</ele>
        <time>2025-04-05T12:00:07Z</time>
      </trkpt>
      <trkpt lat="50.31247" lon="4.88222">
        <ele>75.4</ele>
        <time>2025-04-05T12:00:08Z</time>
      </trkpt>
      <trkpt lat="50.31251" lon="4.88215">
        <ele>75.6</ele>
        <time>2025-04-05T12:00:09Z</time>
      </trkpt>
      <trkpt lat="50.31254" lon="4.8821">
        <ele>75.6</ele>
        <time>2025-04-05T12:00:10Z</time>
      </trkpt>
      <trkpt lat="50.31258" lon="4.88203">
        <ele>75.4</ele>
        <time>2025-04-05T12:00:11Z</time>
      </trkpt>
      <trkpt lat="50.31262" lon="4.88197">
        <ele>75.4</ele>
        <time>2025-04-05T12:00:12Z</time>
      </trkpt>
      <trkpt lat="50.31266" lon="4.8819">
        <ele>75.4</ele>
        <time>2025-04-05T12:00:13Z</time>
      </trkpt>
      <trkpt lat="50.3127" lon="4.88184">
        <ele>75.4</ele>
        <time>2025-04-05T12:00:14Z</time>
      </trkpt>
      <trkpt lat="50.31274" lon="4.88178">
        <ele>75.2</ele>
        <time>2025-04-05T12:00:15Z</time>
      </trkpt>
      <trkpt lat="50.31277" lon="4.88173">
        <ele>75.2</ele>
        <time>2025-04-05T12:00:16Z</time>
      </trkpt>
      <trkpt lat="50.31281" lon="4.88167">
        <ele>74.8</ele>
        <time>2025-04-05T12:00:17Z</time>
      </trkpt>
      <trkpt lat="50.31285" lon="4.88161">
        <ele>74.8</ele>
        <time>2025-04-05T12:00:18Z</time>
      </trkpt>
      <trkpt lat="50.31289" lon="4.88155">
        <ele>74.8</ele>
        <time>2025-04-05T12:00:19Z</time>
      </trkpt>
      <trkpt lat="50.31294" lon="4.88148">
        <ele>74.8</ele>
        <time>2025-04-05T12:00:20Z</time>
      </trkpt>
      <trkpt lat="50.31297" lon="4.88142">
        <ele>74.8</ele>
        <time>2025-04-05T12:00:21Z</time>
      </trkpt>
      <trkpt lat="50.31302" lon="4.88135">
        <ele>74.8</ele>
        <time>2025-04-05T12:00:22Z</time>
      </trkpt>
      <trkpt lat="50.31306" lon="4.8813">
        <ele>75</ele>
        <time>2025-04-05T12:00:23Z</time>
      </trkpt>
      <trkpt lat="50.3131" lon="4.88125">
        <ele>75</ele>
        <time>2025-04-05T12:00:24Z</time>
      </trkpt>
      <trkpt lat="50.31315" lon="4.88119">
        <ele>75.2</ele>
        <time>2025-04-05T12:00:25Z</time>
      </trkpt>
      <trkpt lat="50.31319" lon="4.88113">
        <ele>75.2</ele>
        <time>2025-04-05T12:00:26Z</time>
      </trkpt>
      <trkpt lat="50.31324" lon="4.88106">
        <ele>75.2</ele>
        <time>2025-04-05T12:00:27Z</time>
      </trkpt>
      <trkpt lat="50.31329" lon="4.88099">
        <ele>75.4</ele>
        <time>2025-04-05T12:00:28Z</time>
      </trkpt>
      <trkpt lat="50.31334" lon="4.88094">
        <ele>75.4</ele>
        <time>2025-04-05T12:00:29Z</time>
      </trkpt>
      <trkpt lat="50.31338" lon="4.88088">
        <ele>75.4</ele>
        <time>2025-04-05T12:00:30Z</time>
      </trkpt>
      <trkpt lat="50.31344" lon="4.88082">
        <ele>75.6</ele>
        <time>2025-04-05T12:00:31Z</time>
      </trkpt>
      <trkpt lat="50.31348" lon="4.88077">
        <ele>75.6</ele>
        <time>2025-04-05T12:00:32Z</time>
      </trkpt>
      <trkpt lat="50.31352" lon="4.88072">
        <ele>75.6</ele>
        <time>2025-04-05T12:00:33Z</time>
      </trkpt>
      <trkpt lat="50.31357" lon="4.88066">
        <ele>75.6</ele>
        <time>2025-04-05T12:00:34Z</time>
      </trkpt>
      <trkpt lat="50.31361" lon="4.88061">
        <ele>75.6</ele>
        <time>2025-04-05T12:00:35Z</time>
      </trkpt>
      <trkpt lat="50.31366" lon="4.88056">
        <ele>75.4</ele>
        <time>2025-04-05T12:00:36Z</time>
      </trkpt>
      <trkpt lat="50.3137" lon="4.8805">
        <ele>75.4</ele>
        <time>2025-04-05T12:00:37Z</time>
      </trkpt>
      <trkpt lat="50.31375" lon="4.88045">
        <ele>75.4</ele>
        <time>2025-04-05T12:00:38Z</time>
      </trkpt>
      <trkpt lat="50.3138" lon="4.88041">
        <ele>75.2</ele>
        <time>2025-04-05T12:00:39Z</time>
      </trkpt>
      <trkpt lat="50.31385" lon="4.88037">
        <ele>75.2</ele>
        <time>2025-04-05T12:00:40Z</time>
      </trkpt>
      <trkpt lat="50.3139" lon="4.88034">
        <ele>75.2</ele>
        <time>2025-04-05T12:00:41Z</time>
      </trkpt>
      <trkpt lat="50.31396" lon="4.88031">
        <ele>75.2</ele>
        <time>2025-04-05T12:00:42Z</time>
      </trkpt>
      <trkpt lat="50.31402" lon="4.88027">
        <ele>75.2</ele>
        <time>2025-04-05T12:00:43Z</time>
      </trkpt>
      <trkpt lat="50.31408" lon="4.88023">
        <ele>75</ele>
        <time>2025-04-05T12:00:44Z</time>
      </trkpt>
      <trkpt lat="50.31413" lon="4.88019">
        <ele>75</ele>
        <time>2025-04-05T12:00:45Z</time>
      </trkpt>
      <trkpt lat="50.31419" lon="4.88014">
        <ele>75</ele>
        <time>2025-04-05T12:00:46Z</time>
      </trkpt>
      <trkpt lat="50.31424" lon="4.8801">
        <ele>75</ele>
        <time>2025-04-05T12:00:47Z</time>
      </trkpt>
      <trkpt lat="50.31429" lon="4.88005">
        <ele>75</ele>
        <time>2025-04-05T12:00:48Z</time>
      </trkpt>
      <trkpt lat="50.31435" lon="4.88">
        <ele>75</ele>
        <time>2025-04-05T12:00:49Z</time>
      </trkpt>
      <trkpt lat="50.3144" lon="4.87995">
        <ele>75</ele>
        <time>2025-04-05T12:00:50Z</time>
      </trkpt>
      <trkpt lat="50.31444" lon="4.87991">
        <ele>75</ele>
        <time>2025-04-05T12:00:51Z</time>
      </trkpt>
      <trkpt lat="50.31448" lon="4.87987">
        <ele>75</ele>
        <time>2025-04-05T12:00:52Z</time>
      </trkpt>
      <trkpt lat="50.31453" lon="4.87982">
        <ele>75.2</ele>
        <time>2025-04-05T12:00:53Z</time>
      </trkpt>
      <trkpt lat="50.31459" lon="4.87977">
        <ele>75.2</ele>
        <time>2025-04-05T12:00:54Z</time>
      </trkpt>
      <trkpt lat="50.31464" lon="4.87972">
        <ele>75.2</ele>
        <time>2025-04-05T12:00:55Z</time>
      </trkpt>
      <trkpt lat="50.31468" lon="4.87968">
        <ele>75.4</ele>
        <time>2025-04-05T12:00:56Z</time>
      </trkpt>
      <trkpt lat="50.31473" lon="4.87963">
        <ele>75.4</ele>
        <time>2025-04-05T12:00:57Z</time>
      </trkpt>
      <trkpt lat="50.31477" lon="4.87959">
        <ele>75.4</ele>
        <time>2025-04-05T12:00:58Z</time>
      </trkpt>
      <trkpt lat="50.31482" lon="4.87955">
        <ele>75.4</ele>
        <time>2025-04-05T12:00:59Z</time>
      </trkpt>
      <trkpt lat="50.31487" lon="4.87951">
        <ele>75.4</ele>
        <time>2025-04-05T12:01:00Z</time>
      </trkpt>
      <trkpt lat="50.31492" lon="4.87946">
        <ele>75.4</ele>
        <time>2025-04-05T12:01:01Z</time>
      </trkpt>
      <trkpt lat="50.31497" lon="4.87941">
        <ele>75.2</ele>
        <time>2025-04-05T12:01:02Z</time>
      </trkpt>
      <trkpt lat="50.31503" lon="4.87935">
        <ele>75.2</ele>
        <time>2025-04-05T12:01:03Z</time>
      </trkpt>
      <trkpt lat="50.31508" lon="4.8793">
        <ele>75.2</ele>
        <time>2025-04-05T12:01:04Z</time>
      </trkpt>
      <trkpt lat="50.31513" lon="4.87925">
        <ele>75</ele>
        <time>2025-04-05T12:01:05Z</time>
      </trkpt>
      <trkpt lat="50.31519" lon="4.8792">
        <ele>75</ele>
        <time>2025-04-05T12:01:06Z</time>
      </trkpt>
      <trkpt lat="50.31524" lon="4.87916">
        <ele>74.8</ele>
        <time>2025-04-05T12:01:07Z</time>
      </trkpt>
      <trkpt lat="50.3153" lon="4.87911">
        <ele>74.8</ele>
        <time>2025-04-05T12:01:08Z</time>
      </trkpt>
      <trkpt lat="50.31535" lon="4.87907">
        <ele>74.8</ele>
        <time>2025-04-05T12:01:09Z</time>
      </trkpt>
      <trkpt lat="50.31539" lon="4.87903">
        <ele>74.8</ele>
        <time>2025-04-05T12:01:10Z</time>
      </trkpt>
      <trkpt lat="50.31545" lon="4.87899">
        <ele>74.8</ele>
        <time>2025-04-05T12:01:11Z</time>
      </trkpt>
      <trkpt lat="50.31551" lon="4.87894">
        <ele>74.8</ele>
        <time>2025-04-05T12:01:12Z</time>
      </trkpt>
      <trkpt lat="50.31556" lon="4.8789">
        <ele>74.8</ele>
        <time>2025-04-05T12:01:13Z</time>
      </trkpt>
      <trkpt lat="50.31562" lon="4.87886">
        <ele>74.8</ele>
        <time>2025-04-05T12:01:14Z</time>
      </trkpt>
      <trkpt lat="50.31566" lon="4.87883">
        <ele>74.8</ele>
        <time>2025-04-05T12:01:15Z</time>
      </trkpt>
      <trkpt lat="50.31571" lon="4.8788">
        <ele>74.8</ele>
        <time>2025-04-05T12:01:16Z</time>
      </trkpt>
      <trkpt lat="50.31577" lon="4.87877">
        <ele>74.8</ele>
        <time>2025-04-05T12:01:17Z</time>
      </trkpt>
      <trkpt lat="50.31582" lon="4.87875">
        <ele>74.8</ele>
        <time>2025-04-05T12:01:18Z</time>
      </trkpt>
      <trkpt lat="50.31588" lon="4.87871">
        <ele>74.8</ele>
        <time>2025-04-05T12:01:19Z</time>
      </trkpt>
      <trkpt lat="50.31594" lon="4.87867">
        <ele>75</ele>
        <time>2025-04-05T12:01:20Z</time>
      </trkpt>
      <trkpt lat="50.316" lon="4.87864">
        <ele>75</ele>
        <time>2025-04-05T12:01:21Z</time>
      </trkpt>
      <trkpt lat="50.31604" lon="4.87862">
        <ele>75</ele>
        <time>2025-04-05T12:01:22Z</time>
      </trkpt>
      <trkpt lat="50.31609" lon="4.87859">
        <ele>75</ele>
        <time>2025-04-05T12:01:23Z</time>
      </trkpt>
      <trkpt lat="50.31615" lon="4.87856">
        <ele>75</ele>
        <time>2025-04-05T12:01:24Z</time>
      </trkpt>
      <trkpt lat="50.3162" lon="4.87853">
        <ele>74.8</ele>
        <time>2025-04-05T12:01:25Z</time>
      </trkpt>
      <trkpt lat="50.31625" lon="4.8785">
        <ele>74.8</ele>
        <time>2025-04-05T12:01:26Z</time>
      </trkpt>
      <trkpt lat="50.31632" lon="4.87847">
        <ele>75</ele>
        <time>2025-04-05T12:01:27Z</time>
      </trkpt>
      <trkpt lat="50.31637" lon="4.87844">
        <ele>75</ele>
        <time>2025-04-05T12:01:28Z</time>
      </trkpt>
      <trkpt lat="50.31642" lon="4.87841">
        <ele>75</ele>
        <time>2025-04-05T12:01:29Z</time>
      </trkpt>
      <trkpt lat="50.31648" lon="4.87838">
        <ele>75</ele>
        <time>2025-04-05T12:01:30Z</time>
      </trkpt>
      <trkpt lat="50.31654" lon="4.87836">
        <ele>75</ele>
        <time>2025-04-05T12:01:31Z</time>
      </trkpt>
      <trkpt lat="50.31659" lon="4.87834">
        <ele>74.8</ele>
        <time>2025-04-05T12:01:32Z</time>
      </trkpt>
      <trkpt lat="50.31664" lon="4.87831">
        <ele>74.8</ele>
        <time>2025-04-05T12:01:33Z</time>
      </trkpt>
      <trkpt lat="50.3167" lon="4.87829">
        <ele>74.8</ele>
        <time>2025-04-05T12:01:34Z</time>
      </trkpt>
      <trkpt lat="50.31676" lon="4.87827">
        <ele>74.8</ele>
        <time>2025-04-05T12:01:35Z</time>
      </trkpt>
      <trkpt lat="50.31681" lon="4.87824">
        <ele>74.8</ele>
        <time>2025-04-05T12:01:36Z</time>
      </trkpt>
      <trkpt lat="50.31686" lon="4.87821">
        <ele>75</ele>
        <time>2025-04-05T12:01:37Z</time>
      </trkpt>
      <trkpt lat="50.31691" lon="4.87819">
        <ele>75</ele>
        <time>2025-04-05T12:01:38Z</time>
      </trkpt>
      <trkpt lat="50.31696" lon="4.87816">
        <ele>75</ele>
        <time>2025-04-05T12:01:39Z</time>
      </trkpt>
      <trkpt lat="50.31701" lon="4.87812">
        <ele>75</ele>
        <time>2025-04-05T12:01:40Z</time>
      </trkpt>
      <trkpt lat="50.31705" lon="4.87809">
        <ele>74.8</ele>
        <time>2025-04-05T12:01:41Z</time>
      </trkpt>
      <trkpt lat="50.3171" lon="4.87805">
        <ele>74.8</ele>
        <time>2025-04-05T12:01:42Z</time>
      </trkpt>
      <trkpt lat="50.31715" lon="4.87801">
        <ele>74.8</ele>
        <time>2025-04-05T12:01:43Z</time>
      </trkpt>
      <trkpt lat="50.31721" lon="4.87797">
        <ele>74.6</ele>
        <time>2025-04-05T12:01:44Z</time>
      </trkpt>
      <trkpt lat="50.31726" lon="4.87795">
        <ele>74.6</ele>
        <time>2025-04-05T12:01:45Z</time>
      </trkpt>
      <trkpt lat="50.31731" lon="4.87792">
        <ele>74.6</ele>
        <time>2025-04-05T12:01:46Z</time>
      </trkpt>
      <trkpt lat="50.31738" lon="4.87789">
        <ele>74.6</ele>
        <time>2025-04-05T12:01:47Z</time>
      </trkpt>
      <trkpt lat="50.31744" lon="4.87788">
        <ele>74.6</ele>
        <time>2025-04-05T12:01:48Z</time>
      </trkpt>
      <trkpt lat="50.3175" lon="4.87787">
        <ele>74.6</ele>
        <time>2025-04-05T12:01:49Z</time>
      </trkpt>
      <trkpt lat="50.31756" lon="4.87785">
        <ele>74.8</ele>
        <time>2025-04-05T12:01:50Z</time>
      </trkpt>
      <trkpt lat="50.31761" lon="4.87784">
        <ele>74.8</ele>
        <time>2025-04-05T12:01:51Z</time>
      </trkpt>
      <trkpt lat="50.31767" lon="4.87783">
        <ele>74.8</ele>
        <time>2025-04-05T12:01:52Z</time>
      </trkpt>
      <trkpt lat="50.31772" lon="4.87782">
        <ele>74.8</ele>
        <time>2025-04-05T12:01:53Z</time>
      </trkpt>
      <trkpt lat="50.31778" lon="4.8778">
        <ele>74.8</ele>
        <time>2025-04-05T12:01:54Z</time>
      </trkpt>
      <trkpt lat="50.31783" lon="4.8778">
        <ele>74.8</ele>
        <time>2025-04-05T12:01:55Z</time>
      </trkpt>
      <trkpt lat="50.31789" lon="4.87779">
        <ele>74.8</ele>
        <time>2025-04-05T12:01:56Z</time>
      </trkpt>
      <trkpt lat="50.31795" lon="4.87779">
        <ele>74.6</ele>
        <time>2025-04-05T12:01:57Z</time>
      </trkpt>
      <trkpt lat="50.31801" lon="4.87778">
        <ele>74.8</ele>
        <time>2025-04-05T12:01:58Z</time>
      </trkpt>
      <trkpt lat="50.31807" lon="4.87777">
        <ele>75</ele>
        <time>2025-04-05T12:01:59Z</time>
      </trkpt>
      <trkpt lat="50.31813" lon="4.87776">
        <ele>75</ele>
        <time>2025-04-05T12:02:00Z</time>
      </trkpt>
      <trkpt lat="50.31818" lon="4.87775">
        <ele>75.2</ele>
        <time>2025-04-05T12:02:01Z</time>
      </trkpt>
      <trkpt lat="50.31823" lon="4.87774">
        <ele>75.2</ele>
        <time>2025-04-05T12:02:02Z</time>
      </trkpt>
      <trkpt lat="50.31829" lon="4.87774">
        <ele>75.2</ele>
        <time>2025-04-05T12:02:03Z</time>
      </trkpt>
      <trkpt lat="50.31835" lon="4.87773">
        <ele>75.2</ele>
        <time>2025-04-05T12:02:04Z</time>
      </trkpt>
      <trkpt lat="50.31841" lon="4.87772">
        <ele>75.4</ele>
        <time>2025-04-05T12:02:05Z</time>
      </trkpt>
      <trkpt lat="50.31846" lon="4.87772">
        <ele>75.6</ele>
        <time>2025-04-05T12:02:06Z</time>
      </trkpt>
      <trkpt lat="50.31852" lon="4.87771">
        <ele>75.8</ele>
        <time>2025-04-05T12:02:07Z</time>
      </trkpt>
      <trkpt lat="50.31856" lon="4.8777">
        <ele>76</ele>
        <time>2025-04-05T12:02:08Z</time>
      </trkpt>
      <trkpt lat="50.31861" lon="4.8777">
        <ele>76.2</ele>
        <time>2025-04-05T12:02:09Z</time>
      </trkpt>
      <trkpt lat="50.31867" lon="4.87769">
        <ele>76.4</ele>
        <time>2025-04-05T12:02:10Z</time>
      </trkpt>
      <trkpt lat="50.31873" lon="4.87769">
        <ele>76.8</ele>
        <time>2025-04-05T12:02:11Z</time>
      </trkpt>
      <trkpt lat="50.31878" lon="4.87768">
        <ele>77</ele>
        <time>2025-04-05T12:02:12Z</time>
      </trkpt>
      <trkpt lat="50.31884" lon="4.87768">
        <ele>77.4</ele>
        <time>2025-04-05T12:02:13Z</time>
      </trkpt>
      <trkpt lat="50.31889" lon="4.87768">
        <ele>77.6</ele>
        <time>2025-04-05T12:02:14Z</time>
      </trkpt>
      <trkpt lat="50.31893" lon="4.87767">
        <ele>77.8</ele>
        <time>2025-04-05T12:02:15Z</time>
      </trkpt>
      <trkpt lat="50.31898" lon="4.87767">
        <ele>78</ele>
        <time>2025-04-05T12:02:16Z</time>
      </trkpt>
      <trkpt lat="50.31902" lon="4.87766">
        <ele>78.4</ele>
        <time>2025-04-05T12:02:17Z</time>
      </trkpt>
      <trkpt lat="50.31906" lon="4.87766">
        <ele>78.6</ele>
        <time>2025-04-05T12:02:18Z</time>
      </trkpt>
      <trkpt lat="50.31911" lon="4.87765">
        <ele>78.8</ele>
        <time>2025-04-05T12:02:19Z</time>
      </trkpt>
      <trkpt lat="50.31916" lon="4.87765">
        <ele>79</ele>
        <time>2025-04-05T12:02:20Z</time>
      </trkpt>
      <trkpt lat="50.3192" lon="4.87764">
        <ele>79.2</ele>
        <time>2025-04-05T12:02:21Z</time>
      </trkpt>
      <trkpt lat="50.31924" lon="4.87763">
        <ele>79.4</ele>
        <time>2025-04-05T12:02:22Z</time>
      </trkpt>
      <trkpt lat="50.31929" lon="4.87763">
        <ele>79.4</ele>
        <time>2025-04-05T12:02:23Z</time>
      </trkpt>
      <trkpt lat="50.31934" lon="4.87762">
        <ele>79.6</ele>
        <time>2025-04-05T12:02:24Z</time>
      </trkpt>
      <trkpt lat="50.31938" lon="4.87761">
        <ele>79.8</ele>
        <time>2025-04-05T12:02:25Z</time>
      </trkpt>
      <trkpt lat="50.31943" lon="4.87761">
        <ele>79.8</ele>
        <time>2025-04-05T12:02:26Z</time>
      </trkpt>
      <trkpt lat="50.31948" lon="4.8776">
        <ele>80</ele>
        <time>2025-04-05T12:02:27Z</time>
      </trkpt>
      <trkpt lat="50.31953" lon="4.8776">
        <ele>79.8</ele>
        <time>2025-04-05T12:02:28Z</time>
      </trkpt>
      <trkpt lat="50.31959" lon="4.87759">
        <ele>79.6</ele>
        <time>2025-04-05T12:02:29Z</time>
      </trkpt>
      <trkpt lat="50.31964" lon="4.87759">
        <ele>79.6</ele>
        <time>2025-04-05T12:02:30Z</time>
      </trkpt>
      <trkpt lat="50.31969" lon="4.87759">
        <ele>79.4</ele>
        <time>2025-04-05T12:02:31Z</time>
      </trkpt>
      <trkpt lat="50.31974" lon="4.87758">
        <ele>79.2</ele>
        <time>2025-04-05T12:02:32Z</time>
      </trkpt>
      <trkpt lat="50.31979" lon="4.87758">
        <ele>79</ele>
        <time>2025-04-05T12:02:33Z</time>
      </trkpt>
      <trkpt lat="50.31985" lon="4.87758">
        <ele>78.6</ele>
        <time>2025-04-05T12:02:34Z</time>
      </trkpt>
      <trkpt lat="50.3199" lon="4.87758">
        <ele>78.6</ele>
        <time>2025-04-05T12:02:35Z</time>
      </trkpt>
      <trkpt lat="50.31996" lon="4.87757">
        <ele>78.4</ele>
        <time>2025-04-05T12:02:36Z</time>
      </trkpt>
      <trkpt lat="50.32003" lon="4.87757">
        <ele>78.2</ele>
        <time>2025-04-05T12:02:37Z</time>
      </trkpt>
      <trkpt lat="50.3201" lon="4.87758">
        <ele>77.8</ele>
        <time>2025-04-05T12:02:38Z</time>
      </trkpt>
      <trkpt lat="50.32016" lon="4.87759">
        <ele>77.2</ele>
        <time>2025-04-05T12:02:39Z</time>
      </trkpt>
      <trkpt lat="50.32023" lon="4.87761">
        <ele>76.8</ele>
        <time>2025-04-05T12:02:40Z</time>
      </trkpt>
      <trkpt lat="50.3203" lon="4.87762">
        <ele>76.2</ele>
        <time>2025-04-05T12:02:41Z</time>
      </trkpt>
      <trkpt lat="50.32036" lon="4.87764">
        <ele>75.8</ele>
        <time>2025-04-05T12:02:42Z</time>
      </trkpt>
      <trkpt lat="50.32044" lon="4.87765">
        <ele>75.4</ele>
        <time>2025-04-05T12:02:43Z</time>
      </trkpt>
      <trkpt lat="50.3205" lon="4.87767">
        <ele>75.2</ele>
        <time>2025-04-05T12:02:44Z</time>
      </trkpt>
      <trkpt lat="50.32057" lon="4.8777">
        <ele>74.8</ele>
        <time>2025-04-05T12:02:45Z</time>
      </trkpt>
      <trkpt lat="50.32063" lon="4.87772">
        <ele>74.8</ele>
        <time>2025-04-05T12:02:46Z</time>
      </trkpt>
      <trkpt lat="50.32069" lon="4.87775">
        <ele>74.8</ele>
        <time>2025-04-05T12:02:47Z</time>
      </trkpt>
      <trkpt lat="50.32076" lon="4.87779">
        <ele>75</ele>
        <time>2025-04-05T12:02:48Z</time>
      </trkpt>
      <trkpt lat="50.32082" lon="4.87783">
        <ele>75.2</ele>
        <time>2025-04-05T12:02:49Z</time>
      </trkpt>
      <trkpt lat="50.32088" lon="4.87786">
        <ele>75.2</ele>
        <time>2025-04-05T12:02:50Z</time>
      </trkpt>
      <trkpt lat="50.32094" lon="4.87789">
        <ele>75.4</ele>
        <time>2025-04-05T12:02:51Z</time>
      </trkpt>
      <trkpt lat="50.321" lon="4.87792">
        <ele>75.4</ele>
        <time>2025-04-05T12:02:52Z</time>
      </trkpt>
      <trkpt lat="50.32106" lon="4.87794">
        <ele>75.4</ele>
        <time>2025-04-05T12:02:53Z</time>
      </trkpt>
      <trkpt lat="50.32112" lon="4.87797">
        <ele>75.4</ele>
        <time>2025-04-05T12:02:54Z</time>
      </trkpt>
      <trkpt lat="50.32118" lon="4.878">
        <ele>75.4</ele>
        <time>2025-04-05T12:02:55Z</time>
      </trkpt>
      <trkpt lat="50.32124" lon="4.87803">
        <ele>75</ele>
        <time>2025-04-05T12:02:56Z</time>
      </trkpt>
      <trkpt lat="50.3213" lon="4.87805">
        <ele>75</ele>
        <time>2025-04-05T12:02:57Z</time>
      </trkpt>
      <trkpt lat="50.32137" lon="4.87808">
        <ele>75</ele>
        <time>2025-04-05T12:02:58Z</time>
      </trkpt>
      <trkpt lat="50.32143" lon="4.87811">
        <ele>75</ele>
        <time>2025-04-05T12:02:59Z</time>
      </trkpt>
      <trkpt lat="50.32149" lon="4.87813">
        <ele>75</ele>
        <time>2025-04-05T12:03:00Z</time>
      </trkpt>
      <trkpt lat="50.32155" lon="4.87816">
        <ele>75.2</ele>
        <time>2025-04-05T12:03:01Z</time>
      </trkpt>
      <trkpt lat="50.32161" lon="4.87818">
        <ele>75.4</ele>
        <time>2025-04-05T12:03:02Z</time>
      </trkpt>
      <trkpt lat="50.32167" lon="4.8782">
        <ele>75.6</ele>
        <time>2025-04-05T12:03:03Z</time>
      </trkpt>
      <trkpt lat="50.32173" lon="4.87821">
        <ele>75.6</ele>
        <time>2025-04-05T12:03:04Z</time>
      </trkpt>
      <trkpt lat="50.32178" lon="4.87821">
        <ele>75.8</ele>
        <time>2025-04-05T12:03:05Z</time>
      </trkpt>
      <trkpt lat="50.32184" lon="4.8782">
        <ele>75.6</ele>
        <time>2025-04-05T12:03:06Z</time>
      </trkpt>
      <trkpt lat="50.32189" lon="4.87818">
        <ele>75.6</ele>
        <time>2025-04-05T12:03:07Z</time>
      </trkpt>
      <trkpt lat="50.32195" lon="4.87817">
        <ele>75.6</ele>
        <time>2025-04-05T12:03:08Z</time>
      </trkpt>
      <trkpt lat="50.32201" lon="4.87815">
        <ele>75.6</ele>
        <time>2025-04-05T12:03:09Z</time>
      </trkpt>
      <trkpt lat="50.32208" lon="4.87814">
        <ele>75.4</ele>
        <time>2025-04-05T12:03:10Z</time>
      </trkpt>
      <trkpt lat="50.32213" lon="4.87811">
        <ele>75.4</ele>
        <time>2025-04-05T12:03:11Z</time>
      </trkpt>
      <trkpt lat="50.32219" lon="4.87809">
        <ele>75.6</ele>
        <time>2025-04-05T12:03:12Z</time>
      </trkpt>
      <trkpt lat="50.32226" lon="4.87806">
        <ele>75.8</ele>
        <time>2025-04-05T12:03:13Z</time>
      </trkpt>
      <trkpt lat="50.32232" lon="4.87804">
        <ele>76</ele>
        <time>2025-04-05T12:03:14Z</time>
      </trkpt>
      <trkpt lat="50.32237" lon="4.87802">
        <ele>76</ele>
        <time>2025-04-05T12:03:15Z</time>
      </trkpt>
      <trkpt lat="50.32242" lon="4.87801">
        <ele>76.2</ele>
        <time>2025-04-05T12:03:16Z</time>
      </trkpt>
      <trkpt lat="50.32247" lon="4.87799">
        <ele>76.2</ele>
        <time>2025-04-05T12:03:17Z</time>
      </trkpt>
      <trkpt lat="50.32252" lon="4.87798">
        <ele>76.4</ele>
        <time>2025-04-05T12:03:18Z</time>
      </trkpt>
      <trkpt lat="50.32258" lon="4.87796">
        <ele>76.4</ele>
        <time>2025-04-05T12:03:19Z</time>
      </trkpt>
      <trkpt lat="50.32262" lon="4.87794">
        <ele>76.4</ele>
        <time>2025-04-05T12:03:20Z</time>
      </trkpt>
      <trkpt lat="50.32267" lon="4.87792">
        <ele>76.6</ele>
        <time>2025-04-05T12:03:21Z</time>
      </trkpt>
      <trkpt lat="50.32271" lon="4.87791">
        <ele>76.6</ele>
        <time>2025-04-05T12:03:22Z</time>
      </trkpt>
      <trkpt lat="50.32276" lon="4.87789">
        <ele>76.8</ele>
        <time>2025-04-05T12:03:23Z</time>
      </trkpt>
      <trkpt lat="50.32281" lon="4.87787">
        <ele>76.8</ele>
        <time>2025-04-05T12:03:24Z</time>
      </trkpt>
      <trkpt lat="50.32285" lon="4.87786">
        <ele>76.8</ele>
        <time>2025-04-05T12:03:25Z</time>
      </trkpt>
      <trkpt lat="50.3229" lon="4.87784">
        <ele>76.8</ele>
        <time>2025-04-05T12:03:26Z</time>
      </trkpt>
      <trkpt lat="50.32295" lon="4.87782">
        <ele>76.8</ele>
        <time>2025-04-05T12:03:27Z</time>
      </trkpt>
      <trkpt lat="50.323" lon="4.8778">
        <ele>76.8</ele>
        <time>2025-04-05T12:03:28Z</time>
      </trkpt>
      <trkpt lat="50.32305" lon="4.87779">
        <ele>77</ele>
        <time>2025-04-05T12:03:29Z</time>
      </trkpt>
      <trkpt lat="50.32309" lon="4.87777">
        <ele>77</ele>
        <time>2025-04-05T12:03:30Z</time>
      </trkpt>
      <trkpt lat="50.32314" lon="4.87775">
        <ele>77</ele>
        <time>2025-04-05T12:03:31Z</time>
      </trkpt>
      <trkpt lat="50.32319" lon="4.87773">
        <ele>77</ele>
        <time>2025-04-05T12:03:32Z</time>
      </trkpt>
      <trkpt lat="50.32324" lon="4.8777">
        <ele>77</ele>
        <time>2025-04-05T12:03:33Z</time>
      </trkpt>
      <trkpt lat="50.32328" lon="4.87768">
        <ele>77</ele>
        <time>2025-04-05T12:03:34Z</time>
      </trkpt>
      <trkpt lat="50.32333" lon="4.87766">
        <ele>77</ele>
        <time>2025-04-05T12:03:35Z</time>
      </trkpt>
      <trkpt lat="50.32339" lon="4.87764">
        <ele>77.2</ele>
        <time>2025-04-05T12:03:36Z</time>
      </trkpt>
      <trkpt lat="50.32344" lon="4.87761">
        <ele>77.2</ele>
        <time>2025-04-05T12:03:37Z</time>
      </trkpt>
      <trkpt lat="50.32349" lon="4.87759">
        <ele>77.2</ele>
        <time>2025-04-05T12:03:38Z</time>
      </trkpt>
      <trkpt lat="50.32354" lon="4.87756">
        <ele>77</ele>
        <time>2025-04-05T12:03:39Z</time>
      </trkpt>
      <trkpt lat="50.32359" lon="4.87753">
        <ele>77.2</ele>
        <time>2025-04-05T12:03:40Z</time>
      </trkpt>
      <trkpt lat="50.32364" lon="4.87749">
        <ele>77.6</ele>
        <time>2025-04-05T12:03:41Z</time>
      </trkpt>
      <trkpt lat="50.32369" lon="4.87746">
        <ele>77.8</ele>
        <time>2025-04-05T12:03:42Z</time>
      </trkpt>
      <trkpt lat="50.32373" lon="4.87742">
        <ele>77.8</ele>
        <time>2025-04-05T12:03:43Z</time>
      </trkpt>
      <trkpt lat="50.32377" lon="4.87738">
        <ele>78</ele>
        <time>2025-04-05T12:03:44Z</time>
      </trkpt>
      <trkpt lat="50.32381" lon="4.87734">
        <ele>78</ele>
        <time>2025-04-05T12:03:45Z</time>
      </trkpt>
      <trkpt lat="50.32385" lon="4.8773">
        <ele>78</ele>
        <time>2025-04-05T12:03:46Z</time>
      </trkpt>
      <trkpt lat="50.32389" lon="4.87726">
        <ele>78</ele>
        <time>2025-04-05T12:03:47Z</time>
      </trkpt>
      <trkpt lat="50.32393" lon="4.87721">
        <ele>78</ele>
        <time>2025-04-05T12:03:48Z</time>
      </trkpt>
      <trkpt lat="50.32397" lon="4.87716">
        <ele>78</ele>
        <time>2025-04-05T12:03:49Z</time>
      </trkpt>
      <trkpt lat="50.32401" lon="4.87711">
        <ele>77.8</ele>
        <time>2025-04-05T12:03:50Z</time>
      </trkpt>
      <trkpt lat="50.32406" lon="4.87705">
        <ele>77.8</ele>
        <time>2025-04-05T12:03:51Z</time>
      </trkpt>
      <trkpt lat="50.3241" lon="4.877">
        <ele>77.8</ele>
        <time>2025-04-05T12:03:52Z</time>
      </trkpt>
      <trkpt lat="50.32414" lon="4.87694">
        <ele>77.6</ele>
        <time>2025-04-05T12:03:53Z</time>
      </trkpt>
      <trkpt lat="50.32418" lon="4.87688">
        <ele>77.6</ele>
        <time>2025-04-05T12:03:54Z</time>
      </trkpt>
      <trkpt lat="50.32422" lon="4.87682">
        <ele>77.6</ele>
        <time>2025-04-05T12:03:55Z</time>
      </trkpt>
      <trkpt lat="50.32425" lon="4.87676">
        <ele>77.6</ele>
        <time>2025-04-05T12:03:56Z</time>
      </trkpt>
      <trkpt lat="50.3243" lon="4.8767">
        <ele>77.6</ele>
        <time>2025-04-05T12:03:57Z</time>
      </trkpt>
      <trkpt lat="50.32434" lon="4.87664">
        <ele>77.4</ele>
        <time>2025-04-05T12:03:58Z</time>
      </trkpt>
      <trkpt lat="50.32438" lon="4.87658">
        <ele>77.4</ele>
        <time>2025-04-05T12:03:59Z</time>
      </trkpt>
      <trkpt lat="50.32443" lon="4.87651">
        <ele>77.4</ele>
        <time>2025-04-05T12:04:00Z</time>
      </trkpt>
      <trkpt lat="50.32447" lon="4.87646">
        <ele>77.4</ele>
        <time>2025-04-05T12:04:01Z</time>
      </trkpt>
      <trkpt lat="50.32451" lon="4.8764">
        <ele>77.4</ele>
        <time>2025-04-05T12:04:02Z</time>
      </trkpt>
      <trkpt lat="50.32455" lon="4.87635">
        <ele>77.4</ele>
        <time>2025-04-05T12:04:03Z</time>
      </trkpt>
      <trkpt lat="50.32459" lon="4.87629">
        <ele>77.4</ele>
        <time>2025-04-05T12:04:04Z</time>
      </trkpt>
      <trkpt lat="50.32463" lon="4.87623">
        <ele>77.4</ele>
        <time>2025-04-05T12:04:05Z</time>
      </trkpt>
      <trkpt lat="50.32468" lon="4.87617">
        <ele>77.4</ele>
        <time>2025-04-05T12:04:06Z</time>
      </trkpt>
      <trkpt lat="50.32472" lon="4.87611">
        <ele>77.4</ele>
        <time>2025-04-05T12:04:07Z</time>
      </trkpt>
      <trkpt lat="50.32476" lon="4.87605">
        <ele>77.4</ele>
        <time>2025-04-05T12:04:08Z</time>
      </trkpt>
      <trkpt lat="50.3248" lon="4.87599">
        <ele>77.4</ele>
        <time>2025-04-05T12:04:09Z</time>
      </trkpt>
      <trkpt lat="50.32484" lon="4.87593">
        <ele>77.4</ele>
        <time>2025-04-05T12:04:10Z</time>
      </trkpt>
      <trkpt lat="50.32489" lon="4.87587">
        <ele>77.4</ele>
        <time>2025-04-05T12:04:11Z</time>
      </trkpt>
      <trkpt lat="50.32493" lon="4.87581">
        <ele>77.2</ele>
        <time>2025-04-05T12:04:12Z</time>
      </trkpt>
      <trkpt lat="50.32497" lon="4.87574">
        <ele>77.2</ele>
        <time>2025-04-05T12:04:13Z</time>
      </trkpt>
      <trkpt lat="50.32501" lon="4.87568">
        <ele>77.2</ele>
        <time>2025-04-05T12:04:14Z</time>
      </trkpt>
      <trkpt lat="50.32506" lon="4.87562">
        <ele>77.2</ele>
        <time>2025-04-05T12:04:15Z</time>
      </trkpt>
      <trkpt lat="50.3251" lon="4.87556">
        <ele>77</ele>
        <time>2025-04-05T12:04:16Z</time>
      </trkpt>
      <trkpt lat="50.32515" lon="4.87549">
        <ele>76.8</ele>
        <time>2025-04-05T12:04:17Z</time>
      </trkpt>
      <trkpt lat="50.3252" lon="4.87543">
        <ele>76.6</ele>
        <time>2025-04-05T12:04:18Z</time>
      </trkpt>
      <trkpt lat="50.32524" lon="4.87536">
        <ele>76.4</ele>
        <time>2025-04-05T12:04:19Z</time>
      </trkpt>
      <trkpt lat="50.32528" lon="4.8753">
        <ele>76.4</ele>
        <time>2025-04-05T12:04:20Z</time>
      </trkpt>
      <trkpt lat="50.32533" lon="4.87524">
        <ele>76.2</ele>
        <time>2025-04-05T12:04:21Z</time>
      </trkpt>
      <trkpt lat="50.32538" lon="4.87518">
        <ele>76.2</ele>
        <time>2025-04-05T12:04:22Z</time>
      </trkpt>
      <trkpt lat="50.32542" lon="4.87512">
        <ele>76</ele>
        <time>2025-04-05T12:04:23Z</time>
      </trkpt>
      <trkpt lat="50.32547" lon="4.87507">
        <ele>76</ele>
        <time>2025-04-05T12:04:24Z</time>
      </trkpt>
      <trkpt lat="50.32552" lon="4.87501">
        <ele>76</ele>
        <time>2025-04-05T12:04:25Z</time>
      </trkpt>
      <trkpt lat="50.32557" lon="4.87495">
        <ele>76</ele>
        <time>2025-04-05T12:04:26Z</time>
      </trkpt>
      <trkpt lat="50.32561" lon="4.8749">
        <ele>76</ele>
        <time>2025-04-05T12:04:27Z</time>
      </trkpt>
      <trkpt lat="50.32566" lon="4.87485">
        <ele>76</ele>
        <time>2025-04-05T12:04:28Z</time>
      </trkpt>
      <trkpt lat="50.32571" lon="4.87479">
        <ele>75.8</ele>
        <time>2025-04-05T12:04:29Z</time>
      </trkpt>
      <trkpt lat="50.32576" lon="4.87474">
        <ele>75.8</ele>
        <time>2025-04-05T12:04:30Z</time>
      </trkpt>
      <trkpt lat="50.32582" lon="4.87468">
        <ele>76</ele>
        <time>2025-04-05T12:04:31Z</time>
      </trkpt>
      <trkpt lat="50.32587" lon="4.87463">
        <ele>76</ele>
        <time>2025-04-05T12:04:32Z</time>
      </trkpt>
      <trkpt lat="50.32591" lon="4.87458">
        <ele>76</ele>
        <time>2025-04-05T12:04:33Z</time>
      </trkpt>
      <trkpt lat="50.32597" lon="4.87453">
        <ele>76</ele>
        <time>2025-04-05T12:04:34Z</time>
      </trkpt>
      <trkpt lat="50.32602" lon="4.87448">
        <ele>76</ele>
        <time>2025-04-05T12:04:35Z</time>
      </trkpt>
      <trkpt lat="50.32607" lon="4.87444">
        <ele>76</ele>
        <time>2025-04-05T12:04:36Z</time>
      </trkpt>
      <trkpt lat="50.32612" lon="4.87439">
        <ele>76</ele>
        <time>2025-04-05T12:04:37Z</time>
      </trkpt>
      <trkpt lat="50.32616" lon="4.87434">
        <ele>76</ele>
        <time>2025-04-05T12:04:38Z</time>
      </trkpt>
      <trkpt lat="50.32621" lon="4.8743">
        <ele>75.8</ele>
        <time>2025-04-05T12:04:39Z</time>
      </trkpt>
      <trkpt lat="50.32626" lon="4.87426">
        <ele>75.8</ele>
        <time>2025-04-05T12:04:40Z</time>
      </trkpt>
      <trkpt lat="50.32631" lon="4.87421">
        <ele>75.8</ele>
        <time>2025-04-05T12:04:41Z</time>
      </trkpt>
      <trkpt lat="50.32636" lon="4.87418">
        <ele>75.6</ele>
        <time>2025-04-05T12:04:42Z</time>
      </trkpt>
      <trkpt lat="50.32642" lon="4.87415">
        <ele>75.6</ele>
        <time>2025-04-05T12:04:43Z</time>
      </trkpt>
      <trkpt lat="50.32647" lon="4.87411">
        <ele>75.6</ele>
        <time>2025-04-05T12:04:44Z</time>
      </trkpt>
      <trkpt lat="50.32653" lon="4.87408">
        <ele>75.6</ele>
        <time>2025-04-05T12:04:45Z</time>
      </trkpt>
      <trkpt lat="50.32658" lon="4.87404">
        <ele>75.6</ele>
        <time>2025-04-05T12:04:46Z</time>
      </trkpt>
      <trkpt lat="50.32664" lon="4.87401">
        <ele>75.6</ele>
        <time>2025-04-05T12:04:47Z</time>
      </trkpt>
      <trkpt lat="50.32669" lon="4.87397">
        <ele>75.6</ele>
        <time>2025-04-05T12:04:48Z</time>
      </trkpt>
      <trkpt lat="50.32674" lon="4.87394">
        <ele>75.6</ele>
        <time>2025-04-05T12:04:49Z</time>
      </trkpt>
      <trkpt lat="50.3268" lon="4.87391">
        <ele>75.4</ele>
        <time>2025-04-05T12:04:50Z</time>
      </trkpt>
      <trkpt lat="50.32685" lon="4.87388">
        <ele>75.2</ele>
        <time>2025-04-05T12:04:51Z</time>
      </trkpt>
      <trkpt lat="50.3269" lon="4.87385">
        <ele>75.2</ele>
        <time>2025-04-05T12:04:52Z</time>
      </trkpt>
      <trkpt lat="50.32696" lon="4.87382">
        <ele>75.2</ele>
        <time>2025-04-05T12:04:53Z</time>
      </trkpt>
      <trkpt lat="50.32701" lon="4.87379">
        <ele>75</ele>
        <time>2025-04-05T12:04:54Z</time>
      </trkpt>
      <trkpt lat="50.32706" lon="4.87376">
        <ele>75</ele>
        <time>2025-04-05T12:04:55Z</time>
      </trkpt>
      <trkpt lat="50.32712" lon="4.87373">
        <ele>74.8</ele>
        <time>2025-04-05T12:04:56Z</time>
      </trkpt>
      <trkpt lat="50.32718" lon="4.87371">
        <ele>74.8</ele>
        <time>2025-04-05T12:04:57Z</time>
      </trkpt>
      <trkpt lat="50.32724" lon="4.87368">
        <ele>74.6</ele>
        <time>2025-04-05T12:04:58Z</time>
      </trkpt>
      <trkpt lat="50.32729" lon="4.87365">
        <ele>74.6</ele>
        <time>2025-04-05T12:04:59Z</time>
      </trkpt>
      <trkpt lat="50.32735" lon="4.87362">
        <ele>74.6</ele>
        <time>2025-04-05T12:05:00Z</time>
      </trkpt>
      <trkpt lat="50.32741" lon="4.87358">
        <ele>74.4</ele>
        <time>2025-04-05T12:05:01Z</time>
      </trkpt>
      <trkpt lat="50.32747" lon="4.87356">
        <ele>74.4</ele>
        <time>2025-04-05T12:05:02Z</time>
      </trkpt>
      <trkpt lat="50.32752" lon="4.87353">
        <ele>74.4</ele>
        <time>2025-04-05T12:05:03Z</time>
      </trkpt>
      <trkpt lat="50.32758" lon="4.87351">
        <ele>74.2</ele>
        <time>2025-04-05T12:05:04Z</time>
      </trkpt>
      <trkpt lat="50.32764" lon="4.87349">
        <ele>74.2</ele>
        <time>2025-04-05T12:05:05Z</time>
      </trkpt>
      <trkpt lat="50.32769" lon="4.87347">
        <ele>74.4</ele>
        <time>2025-04-05T12:05:06Z</time>
      </trkpt>
      <trkpt lat="50.32775" lon="4.87345">
        <ele>74.4</ele>
        <time>2025-04-05T12:05:07Z</time>
      </trkpt>
      <trkpt lat="50.32781" lon="4.87342">
        <ele>74.2</ele>
        <time>2025-04-05T12:05:08Z</time>
      </trkpt>
      <trkpt lat="50.32787" lon="4.87341">
        <ele>74.2</ele>
        <time>2025-04-05T12:05:09Z</time>
      </trkpt>
      <trkpt lat="50.32793" lon="4.87339">
        <ele>74</ele>
        <time>2025-04-05T12:05:10Z</time>
      </trkpt>
      <trkpt lat="50.32799" lon="4.87337">
        <ele>74</ele>
        <time>2025-04-05T12:05:11Z</time>
      </trkpt>
      <trkpt lat="50.32805" lon="4.87336">
        <ele>74.2</ele>
        <time>2025-04-05T12:05:12Z</time>
      </trkpt>
      <trkpt lat="50.32811" lon="4.87335">
        <ele>74.4</ele>
        <time>2025-04-05T12:05:13Z</time>
      </trkpt>
      <trkpt lat="50.32818" lon="4.87334">
        <ele>74.2</ele>
        <time>2025-04-05T12:05:14Z</time>
      </trkpt>
      <trkpt lat="50.32824" lon="4.87333">
        <ele>74.2</ele>
        <time>2025-04-05T12:05:15Z</time>
      </trkpt>
      <trkpt lat="50.3283" lon="4.87332">
        <ele>74.2</ele>
        <time>2025-04-05T12:05:16Z</time>
      </trkpt>
      <trkpt lat="50.32836" lon="4.87332">
        <ele>74</ele>
        <time>2025-04-05T12:05:17Z</time>
      </trkpt>
      <trkpt lat="50.32842" lon="4.87331">
        <ele>74</ele>
        <time>2025-04-05T12:05:18Z</time>
      </trkpt>
      <trkpt lat="50.32848" lon="4.8733">
        <ele>74.2</ele>
        <time>2025-04-05T12:05:19Z</time>
      </trkpt>
      <trkpt lat="50.32854" lon="4.8733">
        <ele>74.2</ele>
        <time>2025-04-05T12:05:20Z</time>
      </trkpt>
      <trkpt lat="50.3286" lon="4.8733">
        <ele>74.2</ele>
        <time>2025-04-05T12:05:21Z</time>
      </trkpt>
      <trkpt lat="50.32866" lon="4.8733">
        <ele>74</ele>
        <time>2025-04-05T12:05:22Z</time>
      </trkpt>
      <trkpt lat="50.32872" lon="4.8733">
        <ele>74</ele>
        <time>2025-04-05T12:05:23Z</time>
      </trkpt>
      <trkpt lat="50.32879" lon="4.8733">
        <ele>74</ele>
        <time>2025-04-05T12:05:24Z</time>
      </trkpt>
      <trkpt lat="50.32885" lon="4.8733">
        <ele>74</ele>
        <time>2025-04-05T12:05:25Z</time>
      </trkpt>
      <trkpt lat="50.32891" lon="4.8733">
        <ele>74</ele>
        <time>2025-04-05T12:05:26Z</time>
      </trkpt>
      <trkpt lat="50.32897" lon="4.8733">
        <ele>74</ele>
        <time>2025-04-05T12:05:27Z</time>
      </trkpt>
      <trkpt lat="50.32903" lon="4.8733">
        <ele>74</ele>
        <time>2025-04-05T12:05:28Z</time>
      </trkpt>
      <trkpt lat="50.32909" lon="4.8733">
        <ele>74</ele>
        <time>2025-04-05T12:05:29Z</time>
      </trkpt>
      <trkpt lat="50.32915" lon="4.87331">
        <ele>74</ele>
        <time>2025-04-05T12:05:30Z</time>
      </trkpt>
      <trkpt lat="50.32921" lon="4.87331">
        <ele>74.2</ele>
        <time>2025-04-05T12:05:31Z</time>
      </trkpt>
      <trkpt lat="50.32927" lon="4.87332">
        <ele>74.2</ele>
        <time>2025-04-05T12:05:32Z</time>
      </trkpt>
      <trkpt lat="50.32932" lon="4.87333">
        <ele>74.2</ele>
        <time>2025-04-05T12:05:33Z</time>
      </trkpt>
      <trkpt lat="50.32937" lon="4.87333">
        <ele>74</ele>
        <time>2025-04-05T12:05:34Z</time>
      </trkpt>
      <trkpt lat="50.32943" lon="4.87334">
        <ele>73.8</ele>
        <time>2025-04-05T12:05:35Z</time>
      </trkpt>
      <trkpt lat="50.32949" lon="4.87335">
        <ele>73.8</ele>
        <time>2025-04-05T12:05:36Z</time>
      </trkpt>
      <trkpt lat="50.32954" lon="4.87336">
        <ele>73.8</ele>
        <time>2025-04-05T12:05:37Z</time>
      </trkpt>
      <trkpt lat="50.3296" lon="4.87337">
        <ele>73.8</ele>
        <time>2025-04-05T12:05:38Z</time>
      </trkpt>
      <trkpt lat="50.32966" lon="4.87338">
        <ele>73.8</ele>
        <time>2025-04-05T12:05:39Z</time>
      </trkpt>
      <trkpt lat="50.32971" lon="4.87339">
        <ele>73.8</ele>
        <time>2025-04-05T12:05:40Z</time>
      </trkpt>
      <trkpt lat="50.32977" lon="4.8734">
        <ele>73.6</ele>
        <time>2025-04-05T12:05:41Z</time>
      </trkpt>
      <trkpt lat="50.32983" lon="4.87342">
        <ele>73.6</ele>
        <time>2025-04-05T12:05:42Z</time>
      </trkpt>
      <trkpt lat="50.32989" lon="4.87344">
        <ele>73.8</ele>
        <time>2025-04-05T12:05:43Z</time>
      </trkpt>
      <trkpt lat="50.32995" lon="4.87346">
        <ele>73.8</ele>
        <time>2025-04-05T12:05:44Z</time>
      </trkpt>
      <trkpt lat="50.33001" lon="4.87348">
        <ele>73.8</ele>
        <time>2025-04-05T12:05:45Z</time>
      </trkpt>
      <trkpt lat="50.33006" lon="4.8735">
        <ele>73.8</ele>
        <time>2025-04-05T12:05:46Z</time>
      </trkpt>
      <trkpt lat="50.33012" lon="4.87352">
        <ele>73.8</ele>
        <time>2025-04-05T12:05:47Z</time>
      </trkpt>
      <trkpt lat="50.33018" lon="4.87354">
        <ele>73.6</ele>
        <time>2025-04-05T12:05:48Z</time>
      </trkpt>
      <trkpt lat="50.33024" lon="4.87355">
        <ele>73.4</ele>
        <time>2025-04-05T12:05:49Z</time>
      </trkpt>
      <trkpt lat="50.33029" lon="4.87357">
        <ele>73.4</ele>
        <time>2025-04-05T12:05:50Z</time>
      </trkpt>
      <trkpt lat="50.33034" lon="4.87358">
        <ele>73.4</ele>
        <time>2025-04-05T12:05:51Z</time>
      </trkpt>
      <trkpt lat="50.33039" lon="4.8736">
        <ele>73.4</ele>
        <time>2025-04-05T12:05:52Z</time>
      </trkpt>
      <trkpt lat="50.33044" lon="4.87362">
        <ele>73.6</ele>
        <time>2025-04-05T12:05:53Z</time>
      </trkpt>
      <trkpt lat="50.33049" lon="4.87364">
        <ele>73.6</ele>
        <time>2025-04-05T12:05:54Z</time>
      </trkpt>
      <trkpt lat="50.33055" lon="4.87365">
        <ele>73.6</ele>
        <time>2025-04-05T12:05:55Z</time>
      </trkpt>
      <trkpt lat="50.33061" lon="4.87367">
        <ele>73.8</ele>
        <time>2025-04-05T12:05:56Z</time>
      </trkpt>
      <trkpt lat="50.33066" lon="4.87369">
        <ele>73.6</ele>
        <time>2025-04-05T12:05:57Z</time>
      </trkpt>
      <trkpt lat="50.33072" lon="4.8737">
        <ele>73.6</ele>
        <time>2025-04-05T12:05:58Z</time>
      </trkpt>
      <trkpt lat="50.33077" lon="4.87372">
        <ele>73.6</ele>
        <time>2025-04-05T12:05:59Z</time>
      </trkpt>
      <trkpt lat="50.33081" lon="4.87373">
        <ele>73.6</ele>
        <time>2025-04-05T12:06:00Z</time>
      </trkpt>
      <trkpt lat="50.33085" lon="4.87374">
        <ele>73.6</ele>
        <time>2025-04-05T12:06:01Z</time>
      </trkpt>
      <trkpt lat="50.33091" lon="4.87376">
        <ele>73.6</ele>
        <time>2025-04-05T12:06:02Z</time>
      </trkpt>
      <trkpt lat="50.33101" lon="4.87378">
        <ele>73.6</ele>
        <time>2025-04-05T12:06:03Z</time>
      </trkpt>
      <trkpt lat="50.33106" lon="4.8738">
        <ele>73.6</ele>
        <time>2025-04-05T12:06:04Z</time>
      </trkpt>
      <trkpt lat="50.33112" lon="4.87381">
        <ele>73.8</ele>
        <time>2025-04-05T12:06:05Z</time>
      </trkpt>
      <trkpt lat="50.33118" lon="4.87383">
        <ele>73.8</ele>
        <time>2025-04-05T12:06:06Z</time>
      </trkpt>
      <trkpt lat="50.33124" lon="4.87384">
        <ele>73.8</ele>
        <time>2025-04-05T12:06:07Z</time>
      </trkpt>
      <trkpt lat="50.33129" lon="4.87385">
        <ele>73.8</ele>
        <time>2025-04-05T12:06:08Z</time>
      </trkpt>
      <trkpt lat="50.33135" lon="4.87385">
        <ele>73.8</ele>
        <time>2025-04-05T12:06:09Z</time>
      </trkpt>
      <trkpt lat="50.3314" lon="4.87386">
        <ele>73.6</ele>
        <time>2025-04-05T12:06:10Z</time>
      </trkpt>
      <trkpt lat="50.33145" lon="4.87387">
        <ele>73.6</ele>
        <time>2025-04-05T12:06:11Z</time>
      </trkpt>
      <trkpt lat="50.33151" lon="4.87387">
        <ele>73.6</ele>
        <time>2025-04-05T12:06:12Z</time>
      </trkpt>
      <trkpt lat="50.33157" lon="4.87388">
        <ele>73.6</ele>
        <time>2025-04-05T12:06:13Z</time>
      </trkpt>
      <trkpt lat="50.33162" lon="4.87389">
        <ele>73.6</ele>
        <time>2025-04-05T12:06:14Z</time>
      </trkpt>
      <trkpt lat="50.33167" lon="4.8739">
        <ele>73.6</ele>
        <time>2025-04-05T12:06:15Z</time>
      </trkpt>
      <trkpt lat="50.33173" lon="4.87391">
        <ele>73.6</ele>
        <time>2025-04-05T12:06:16Z</time>
      </trkpt>
      <trkpt lat="50.3318" lon="4.87391">
        <ele>73.6</ele>
        <time>2025-04-05T12:06:17Z</time>
      </trkpt>
      <trkpt lat="50.33185" lon="4.87392">
        <ele>73.6</ele>
        <time>2025-04-05T12:06:18Z</time>
      </trkpt>
      <trkpt lat="50.3319" lon="4.87393">
        <ele>73.6</ele>
        <time>2025-04-05T12:06:19Z</time>
      </trkpt>
      <trkpt lat="50.33196" lon="4.87393">
        <ele>73.6</ele>
        <time>2025-04-05T12:06:20Z</time>
      </trkpt>
      <trkpt lat="50.33202" lon="4.87394">
        <ele>73.8</ele>
        <time>2025-04-05T12:06:21Z</time>
      </trkpt>
      <trkpt lat="50.33209" lon="4.87395">
        <ele>73.8</ele>
        <time>2025-04-05T12:06:22Z</time>
      </trkpt>
      <trkpt lat="50.33214" lon="4.87395">
        <ele>73.6</ele>
        <time>2025-04-05T12:06:23Z</time>
      </trkpt>
      <trkpt lat="50.3322" lon="4.87395">
        <ele>73.6</ele>
        <time>2025-04-05T12:06:24Z</time>
      </trkpt>
      <trkpt lat="50.33226" lon="4.87396">
        <ele>73.6</ele>
        <time>2025-04-05T12:06:25Z</time>
      </trkpt>
      <trkpt lat="50.33232" lon="4.87396">
        <ele>73.6</ele>
        <time>2025-04-05T12:06:26Z</time>
      </trkpt>
      <trkpt lat="50.33238" lon="4.87396">
        <ele>73.6</ele>
        <time>2025-04-05T12:06:27Z</time>
      </trkpt>
      <trkpt lat="50.33244" lon="4.87396">
        <ele>73.6</ele>
        <time>2025-04-05T12:06:28Z</time>
      </trkpt>
      <trkpt lat="50.33251" lon="4.87396">
        <ele>73.6</ele>
        <time>2025-04-05T12:06:29Z</time>
      </trkpt>
      <trkpt lat="50.33256" lon="4.87397">
        <ele>73.6</ele>
        <time>2025-04-05T12:06:30Z</time>
      </trkpt>
      <trkpt lat="50.33262" lon="4.87397">
        <ele>73.6</ele>
        <time>2025-04-05T12:06:31Z</time>
      </trkpt>
      <trkpt lat="50.33268" lon="4.87397">
        <ele>73.4</ele>
        <time>2025-04-05T12:06:32Z</time>
      </trkpt>
      <trkpt lat="50.33275" lon="4.87397">
        <ele>73.4</ele>
        <time>2025-04-05T12:06:33Z</time>
      </trkpt>
      <trkpt lat="50.33281" lon="4.87397">
        <ele>73.4</ele>
        <time>2025-04-05T12:06:34Z</time>
      </trkpt>
      <trkpt lat="50.33285" lon="4.87398">
        <ele>73.4</ele>
        <time>2025-04-05T12:06:35Z</time>
      </trkpt>
      <trkpt lat="50.33291" lon="4.87398">
        <ele>73.4</ele>
        <time>2025-04-05T12:06:36Z</time>
      </trkpt>
      <trkpt lat="50.33297" lon="4.87399">
        <ele>73.4</ele>
        <time>2025-04-05T12:06:37Z</time>
      </trkpt>
      <trkpt lat="50.33304" lon="4.87399">
        <ele>73.4</ele>
        <time>2025-04-05T12:06:38Z</time>
      </trkpt>
      <trkpt lat="50.33309" lon="4.87399">
        <ele>73.4</ele>
        <time>2025-04-05T12:06:39Z</time>
      </trkpt>
      <trkpt lat="50.33314" lon="4.87399">
        <ele>73.4</ele>
        <time>2025-04-05T12:06:40Z</time>
      </trkpt>
      <trkpt lat="50.33321" lon="4.874">
        <ele>73.4</ele>
        <time>2025-04-05T12:06:41Z</time>
      </trkpt>
      <trkpt lat="50.33328" lon="4.87401">
        <ele>73.4</ele>
        <time>2025-04-05T12:06:42Z</time>
      </trkpt>
      <trkpt lat="50.33333" lon="4.87402">
        <ele>73.4</ele>
        <time>2025-04-05T12:06:43Z</time>
      </trkpt>
      <trkpt lat="50.33339" lon="4.87402">
        <ele>73.2</ele>
        <time>2025-04-05T12:06:44Z</time>
      </trkpt>
      <trkpt lat="50.33345" lon="4.87402">
        <ele>73.2</ele>
        <time>2025-04-05T12:06:45Z</time>
      </trkpt>
      <trkpt lat="50.33352" lon="4.87402">
        <ele>73</ele>
        <time>2025-04-05T12:06:46Z</time>
      </trkpt>
      <trkpt lat="50.33358" lon="4.87402">
        <ele>73</ele>
        <time>2025-04-05T12:06:47Z</time>
      </trkpt>
      <trkpt lat="50.33363" lon="4.87402">
        <ele>73</ele>
        <time>2025-04-05T12:06:48Z</time>
      </trkpt>
      <trkpt lat="50.33369" lon="4.87402">
        <ele>73</ele>
        <time>2025-04-05T12:06:49Z</time>
      </trkpt>
      <trkpt lat="50.33375" lon="4.87402">
        <ele>73</ele>
        <time>2025-04-05T12:06:50Z</time>
      </trkpt>
      <trkpt lat="50.33381" lon="4.87402">
        <ele>73</ele>
        <time>2025-04-05T12:06:51Z</time>
      </trkpt>
      <trkpt lat="50.33387" lon="4.87402">
        <ele>73</ele>
        <time>2025-04-05T12:06:52Z</time>
      </trkpt>
      <trkpt lat="50.33393" lon="4.87401">
        <ele>73</ele>
        <time>2025-04-05T12:06:53Z</time>
      </trkpt>
      <trkpt lat="50.33399" lon="4.87401">
        <ele>73</ele>
        <time>2025-04-05T12:06:54Z</time>
      </trkpt>
      <trkpt lat="50.33405" lon="4.874">
        <ele>73</ele>
        <time>2025-04-05T12:06:55Z</time>
      </trkpt>
      <trkpt lat="50.33411" lon="4.87399">
        <ele>73.2</ele>
        <time>2025-04-05T12:06:56Z</time>
      </trkpt>
      <trkpt lat="50.33416" lon="4.87398">
        <ele>73.2</ele>
        <time>2025-04-05T12:06:57Z</time>
      </trkpt>
      <trkpt lat="50.33422" lon="4.87398">
        <ele>73.2</ele>
        <time>2025-04-05T12:06:58Z</time>
      </trkpt>
      <trkpt lat="50.33428" lon="4.87398">
        <ele>73.2</ele>
        <time>2025-04-05T12:06:59Z</time>
      </trkpt>
      <trkpt lat="50.33434" lon="4.87397">
        <ele>73</ele>
        <time>2025-04-05T12:07:00Z</time>
      </trkpt>
      <trkpt lat="50.33439" lon="4.87396">
        <ele>73</ele>
        <time>2025-04-05T12:07:01Z</time>
      </trkpt>
      <trkpt lat="50.33444" lon="4.87396">
        <ele>73</ele>
        <time>2025-04-05T12:07:02Z</time>
      </trkpt>
      <trkpt lat="50.3345" lon="4.87396">
        <ele>73</ele>
        <time>2025-04-05T12:07:03Z</time>
      </trkpt>
      <trkpt lat="50.33455" lon="4.87396">
        <ele>73</ele>
        <time>2025-04-05T12:07:04Z</time>
      </trkpt>
      <trkpt lat="50.33461" lon="4.87396">
        <ele>73.2</ele>
        <time>2025-04-05T12:07:05Z</time>
      </trkpt>
      <trkpt lat="50.33467" lon="4.87395">
        <ele>73.2</ele>
        <time>2025-04-05T12:07:06Z</time>
      </trkpt>
      <trkpt lat="50.33472" lon="4.87395">
        <ele>73.4</ele>
        <time>2025-04-05T12:07:07Z</time>
      </trkpt>
      <trkpt lat="50.33479" lon="4.87394">
        <ele>73.4</ele>
        <time>2025-04-05T12:07:08Z</time>
      </trkpt>
      <trkpt lat="50.33485" lon="4.87394">
        <ele>73.4</ele>
        <time>2025-04-05T12:07:09Z</time>
      </trkpt>
      <trkpt lat="50.33491" lon="4.87393">
        <ele>73.6</ele>
        <time>2025-04-05T12:07:10Z</time>
      </trkpt>
      <trkpt lat="50.33497" lon="4.87392">
        <ele>73.4</ele>
        <time>2025-04-05T12:07:11Z</time>
      </trkpt>
      <trkpt lat="50.33503" lon="4.87391">
        <ele>73.4</ele>
        <time>2025-04-05T12:07:12Z</time>
      </trkpt>
      <trkpt lat="50.33508" lon="4.8739">
        <ele>73.4</ele>
        <time>2025-04-05T12:07:13Z</time>
      </trkpt>
      <trkpt lat="50.33514" lon="4.87389">
        <ele>73.4</ele>
        <time>2025-04-05T12:07:14Z</time>
      </trkpt>
      <trkpt lat="50.33519" lon="4.87388">
        <ele>73.4</ele>
        <time>2025-04-05T12:07:15Z</time>
      </trkpt>
      <trkpt lat="50.33524" lon="4.87386">
        <ele>73.2</ele>
        <time>2025-04-05T12:07:16Z</time>
      </trkpt>
      <trkpt lat="50.3353" lon="4.87385">
        <ele>73.4</ele>
        <time>2025-04-05T12:07:17Z</time>
      </trkpt>
      <trkpt lat="50.33536" lon="4.87383">
        <ele>73.2</ele>
        <time>2025-04-05T12:07:18Z</time>
      </trkpt>
      <trkpt lat="50.33542" lon="4.87381">
        <ele>73</ele>
        <time>2025-04-05T12:07:19Z</time>
      </trkpt>
      <trkpt lat="50.33546" lon="4.87378">
        <ele>73</ele>
        <time>2025-04-05T12:07:20Z</time>
      </trkpt>
      <trkpt lat="50.33552" lon="4.87376">
        <ele>73</ele>
        <time>2025-04-05T12:07:21Z</time>
      </trkpt>
      <trkpt lat="50.33558" lon="4.87374">
        <ele>73</ele>
        <time>2025-04-05T12:07:22Z</time>
      </trkpt>
      <trkpt lat="50.33563" lon="4.87372">
        <ele>73</ele>
        <time>2025-04-05T12:07:23Z</time>
      </trkpt>
      <trkpt lat="50.33568" lon="4.8737">
        <ele>73</ele>
        <time>2025-04-05T12:07:24Z</time>
      </trkpt>
      <trkpt lat="50.33574" lon="4.87368">
        <ele>73</ele>
        <time>2025-04-05T12:07:25Z</time>
      </trkpt>
      <trkpt lat="50.33581" lon="4.87365">
        <ele>73</ele>
        <time>2025-04-05T12:07:26Z</time>
      </trkpt>
      <trkpt lat="50.33587" lon="4.87363">
        <ele>73</ele>
        <time>2025-04-05T12:07:27Z</time>
      </trkpt>
      <trkpt lat="50.33593" lon="4.8736">
        <ele>73</ele>
        <time>2025-04-05T12:07:28Z</time>
      </trkpt>
      <trkpt lat="50.33599" lon="4.87358">
        <ele>73</ele>
        <time>2025-04-05T12:07:29Z</time>
      </trkpt>
      <trkpt lat="50.33604" lon="4.87355">
        <ele>73</ele>
        <time>2025-04-05T12:07:30Z</time>
      </trkpt>
      <trkpt lat="50.33609" lon="4.87353">
        <ele>73</ele>
        <time>2025-04-05T12:07:31Z</time>
      </trkpt>
      <trkpt lat="50.33614" lon="4.87351">
        <ele>73</ele>
        <time>2025-04-05T12:07:32Z</time>
      </trkpt>
      <trkpt lat="50.33621" lon="4.87349">
        <ele>72.8</ele>
        <time>2025-04-05T12:07:33Z</time>
      </trkpt>
      <trkpt lat="50.33626" lon="4.87346">
        <ele>72.8</ele>
        <time>2025-04-05T12:07:34Z</time>
      </trkpt>
      <trkpt lat="50.33631" lon="4.87342">
        <ele>73</ele>
        <time>2025-04-05T12:07:35Z</time>
      </trkpt>
      <trkpt lat="50.33636" lon="4.87338">
        <ele>72.8</ele>
        <time>2025-04-05T12:07:36Z</time>
      </trkpt>
      <trkpt lat="50.33642" lon="4.87334">
        <ele>73</ele>
        <time>2025-04-05T12:07:37Z</time>
      </trkpt>
      <trkpt lat="50.33648" lon="4.8733">
        <ele>73</ele>
        <time>2025-04-05T12:07:38Z</time>
      </trkpt>
      <trkpt lat="50.33653" lon="4.87327">
        <ele>73</ele>
        <time>2025-04-05T12:07:39Z</time>
      </trkpt>
      <trkpt lat="50.33657" lon="4.87323">
        <ele>73</ele>
        <time>2025-04-05T12:07:40Z</time>
      </trkpt>
      <trkpt lat="50.33662" lon="4.87318">
        <ele>72.8</ele>
        <time>2025-04-05T12:07:41Z</time>
      </trkpt>
      <trkpt lat="50.33667" lon="4.87313">
        <ele>72.8</ele>
        <time>2025-04-05T12:07:42Z</time>
      </trkpt>
      <trkpt lat="50.33673" lon="4.87308">
        <ele>72.8</ele>
        <time>2025-04-05T12:07:43Z</time>
      </trkpt>
      <trkpt lat="50.33678" lon="4.87302">
        <ele>72.8</ele>
        <time>2025-04-05T12:07:44Z</time>
      </trkpt>
      <trkpt lat="50.33682" lon="4.87298">
        <ele>73</ele>
        <time>2025-04-05T12:07:45Z</time>
      </trkpt>
      <trkpt lat="50.33687" lon="4.87292">
        <ele>73</ele>
        <time>2025-04-05T12:07:46Z</time>
      </trkpt>
      <trkpt lat="50.33692" lon="4.87287">
        <ele>73</ele>
        <time>2025-04-05T12:07:47Z</time>
      </trkpt>
      <trkpt lat="50.33697" lon="4.87281">
        <ele>73</ele>
        <time>2025-04-05T12:07:48Z</time>
      </trkpt>
      <trkpt lat="50.337" lon="4.87277">
        <ele>73.2</ele>
        <time>2025-04-05T12:07:49Z</time>
      </trkpt>
      <trkpt lat="50.33704" lon="4.87271">
        <ele>73.2</ele>
        <time>2025-04-05T12:07:50Z</time>
      </trkpt>
      <trkpt lat="50.33709" lon="4.87265">
        <ele>73.2</ele>
        <time>2025-04-05T12:07:51Z</time>
      </trkpt>
      <trkpt lat="50.33712" lon="4.87259">
        <ele>73.2</ele>
        <time>2025-04-05T12:07:52Z</time>
      </trkpt>
      <trkpt lat="50.33716" lon="4.87254">
        <ele>73.2</ele>
        <time>2025-04-05T12:07:53Z</time>
      </trkpt>
      <trkpt lat="50.3372" lon="4.87248">
        <ele>73.2</ele>
        <time>2025-04-05T12:07:54Z</time>
      </trkpt>
      <trkpt lat="50.33724" lon="4.87242">
        <ele>73.2</ele>
        <time>2025-04-05T12:07:55Z</time>
      </trkpt>
      <trkpt lat="50.33727" lon="4.87235">
        <ele>73.4</ele>
        <time>2025-04-05T12:07:56Z</time>
      </trkpt>
      <trkpt lat="50.33731" lon="4.87228">
        <ele>73.6</ele>
        <time>2025-04-05T12:07:57Z</time>
      </trkpt>
      <trkpt lat="50.33735" lon="4.87221">
        <ele>73.6</ele>
        <time>2025-04-05T12:07:58Z</time>
      </trkpt>
      <trkpt lat="50.33738" lon="4.87214">
        <ele>73.8</ele>
        <time>2025-04-05T12:07:59Z</time>
      </trkpt>
      <trkpt lat="50.33741" lon="4.87209">
        <ele>73.8</ele>
        <time>2025-04-05T12:08:00Z</time>
      </trkpt>
      <trkpt lat="50.33742" lon="4.87207">
        <ele>73.8</ele>
        <time>2025-04-05T12:08:01Z</time>
      </trkpt>
      <trkpt lat="50.33743" lon="4.87204">
        <ele>73.8</ele>
        <time>2025-04-05T12:08:02Z</time>
      </trkpt>
      <trkpt lat="50.33749" lon="4.87192">
        <ele>73.8</ele>
        <time>2025-04-05T12:08:03Z</time>
      </trkpt>
      <trkpt lat="50.33755" lon="4.8718">
        <ele>73.8</ele>
        <time>2025-04-05T12:08:04Z</time>
      </trkpt>
      <trkpt lat="50.33758" lon="4.87172">
        <ele>73.8</ele>
        <time>2025-04-05T12:08:05Z</time>
      </trkpt>
      <trkpt lat="50.33762" lon="4.87165">
        <ele>73.8</ele>
        <time>2025-04-05T12:08:06Z</time>
      </trkpt>
      <trkpt lat="50.33765" lon="4.87157">
        <ele>73.8</ele>
        <time>2025-04-05T12:08:07Z</time>
      </trkpt>
      <trkpt lat="50.33769" lon="4.87148">
        <ele>73.8</ele>
        <time>2025-04-05T12:08:08Z</time>
      </trkpt>
      <trkpt lat="50.33772" lon="4.87141">
        <ele>73.6</ele>
        <time>2025-04-05T12:08:09Z</time>
      </trkpt>
      <trkpt lat="50.33775" lon="4.87133">
        <ele>73.6</ele>
        <time>2025-04-05T12:08:10Z</time>
      </trkpt>
      <trkpt lat="50.33778" lon="4.87124">
        <ele>73.6</ele>
        <time>2025-04-05T12:08:11Z</time>
      </trkpt>
      <trkpt lat="50.33781" lon="4.87116">
        <ele>73.6</ele>
        <time>2025-04-05T12:08:12Z</time>
      </trkpt>
      <trkpt lat="50.33784" lon="4.87108">
        <ele>73.6</ele>
        <time>2025-04-05T12:08:13Z</time>
      </trkpt>
      <trkpt lat="50.33787" lon="4.87099">
        <ele>73.6</ele>
        <time>2025-04-05T12:08:14Z</time>
      </trkpt>
      <trkpt lat="50.33789" lon="4.87091">
        <ele>73.8</ele>
        <time>2025-04-05T12:08:15Z</time>
      </trkpt>
      <trkpt lat="50.33791" lon="4.87084">
        <ele>73.8</ele>
        <time>2025-04-05T12:08:16Z</time>
      </trkpt>
      <trkpt lat="50.33794" lon="4.87076">
        <ele>74</ele>
        <time>2025-04-05T12:08:17Z</time>
      </trkpt>
      <trkpt lat="50.33796" lon="4.87068">
        <ele>74</ele>
        <time>2025-04-05T12:08:18Z</time>
      </trkpt>
      <trkpt lat="50.33798" lon="4.8706">
        <ele>73.8</ele>
        <time>2025-04-05T12:08:19Z</time>
      </trkpt>
      <trkpt lat="50.33801" lon="4.87051">
        <ele>73.6</ele>
        <time>2025-04-05T12:08:20Z</time>
      </trkpt>
      <trkpt lat="50.33803" lon="4.87043">
        <ele>73.4</ele>
        <time>2025-04-05T12:08:21Z</time>
      </trkpt>
      <trkpt lat="50.33805" lon="4.87035">
        <ele>73.4</ele>
        <time>2025-04-05T12:08:22Z</time>
      </trkpt>
      <trkpt lat="50.33807" lon="4.87026">
        <ele>73.4</ele>
        <time>2025-04-05T12:08:23Z</time>
      </trkpt>
      <trkpt lat="50.33809" lon="4.87017">
        <ele>73.2</ele>
        <time>2025-04-05T12:08:24Z</time>
      </trkpt>
      <trkpt lat="50.33811" lon="4.87009">
        <ele>73</ele>
        <time>2025-04-05T12:08:25Z</time>
      </trkpt>
      <trkpt lat="50.33813" lon="4.87001">
        <ele>72.8</ele>
        <time>2025-04-05T12:08:26Z</time>
      </trkpt>
      <trkpt lat="50.33815" lon="4.86992">
        <ele>72.6</ele>
        <time>2025-04-05T12:08:27Z</time>
      </trkpt>
      <trkpt lat="50.33816" lon="4.86984">
        <ele>72.8</ele>
        <time>2025-04-05T12:08:28Z</time>
      </trkpt>
      <trkpt lat="50.33817" lon="4.86975">
        <ele>72.8</ele>
        <time>2025-04-05T12:08:29Z</time>
      </trkpt>
      <trkpt lat="50.33818" lon="4.86967">
        <ele>72.8</ele>
        <time>2025-04-05T12:08:30Z</time>
      </trkpt>
      <trkpt lat="50.3382" lon="4.86958">
        <ele>72.8</ele>
        <time>2025-04-05T12:08:31Z</time>
      </trkpt>
      <trkpt lat="50.33821" lon="4.86949">
        <ele>72.8</ele>
        <time>2025-04-05T12:08:32Z</time>
      </trkpt>
      <trkpt lat="50.33822" lon="4.8694">
        <ele>72.8</ele>
        <time>2025-04-05T12:08:33Z</time>
      </trkpt>
      <trkpt lat="50.33823" lon="4.86932">
        <ele>72.6</ele>
        <time>2025-04-05T12:08:34Z</time>
      </trkpt>
      <trkpt lat="50.33823" lon="4.86922">
        <ele>72.8</ele>
        <time>2025-04-05T12:08:35Z</time>
      </trkpt>
      <trkpt lat="50.33824" lon="4.86914">
        <ele>72.8</ele>
        <time>2025-04-05T12:08:36Z</time>
      </trkpt>
      <trkpt lat="50.33825" lon="4.86906">
        <ele>72.8</ele>
        <time>2025-04-05T12:08:37Z</time>
      </trkpt>
      <trkpt lat="50.33826" lon="4.86897">
        <ele>72.8</ele>
        <time>2025-04-05T12:08:38Z</time>
      </trkpt>
      <trkpt lat="50.33826" lon="4.86888">
        <ele>72.8</ele>
        <time>2025-04-05T12:08:39Z</time>
      </trkpt>
      <trkpt lat="50.33827" lon="4.86878">
        <ele>72.8</ele>
        <time>2025-04-05T12:08:40Z</time>
      </trkpt>
      <trkpt lat="50.33827" lon="4.8687">
        <ele>72.8</ele>
        <time>2025-04-05T12:08:41Z</time>
      </trkpt>
      <trkpt lat="50.33828" lon="4.8686">
        <ele>72.8</ele>
        <time>2025-04-05T12:08:42Z</time>
      </trkpt>
      <trkpt lat="50.33828" lon="4.8685">
        <ele>72.8</ele>
        <time>2025-04-05T12:08:43Z</time>
      </trkpt>
      <trkpt lat="50.33827" lon="4.86842">
        <ele>72.6</ele>
        <time>2025-04-05T12:08:44Z</time>
      </trkpt>
      <trkpt lat="50.33827" lon="4.86834">
        <ele>72.6</ele>
        <time>2025-04-05T12:08:45Z</time>
      </trkpt>
      <trkpt lat="50.33827" lon="4.86826">
        <ele>72.6</ele>
        <time>2025-04-05T12:08:46Z</time>
      </trkpt>
      <trkpt lat="50.33827" lon="4.86818">
        <ele>72.4</ele>
        <time>2025-04-05T12:08:47Z</time>
      </trkpt>
      <trkpt lat="50.33827" lon="4.86811">
        <ele>72.4</ele>
        <time>2025-04-05T12:08:48Z</time>
      </trkpt>
      <trkpt lat="50.33827" lon="4.86803">
        <ele>72.2</ele>
        <time>2025-04-05T12:08:49Z</time>
      </trkpt>
      <trkpt lat="50.33826" lon="4.86795">
        <ele>72</ele>
        <time>2025-04-05T12:08:50Z</time>
      </trkpt>
      <trkpt lat="50.33826" lon="4.86786">
        <ele>72</ele>
        <time>2025-04-05T12:08:51Z</time>
      </trkpt>
      <trkpt lat="50.33826" lon="4.86777">
        <ele>72</ele>
        <time>2025-04-05T12:08:52Z</time>
      </trkpt>
      <trkpt lat="50.33827" lon="4.86768">
        <ele>71.8</ele>
        <time>2025-04-05T12:08:53Z</time>
      </trkpt>
      <trkpt lat="50.33829" lon="4.8676">
        <ele>71.8</ele>
        <time>2025-04-05T12:08:54Z</time>
      </trkpt>
      <trkpt lat="50.33831" lon="4.86754">
        <ele>71.8</ele>
        <time>2025-04-05T12:08:55Z</time>
      </trkpt>
      <trkpt lat="50.33834" lon="4.86748">
        <ele>72</ele>
        <time>2025-04-05T12:08:56Z</time>
      </trkpt>
      <trkpt lat="50.33838" lon="4.86741">
        <ele>71.8</ele>
        <time>2025-04-05T12:08:57Z</time>
      </trkpt>
      <trkpt lat="50.33842" lon="4.86733">
        <ele>71.8</ele>
        <time>2025-04-05T12:08:58Z</time>
      </trkpt>
      <trkpt lat="50.33845" lon="4.86726">
        <ele>71.8</ele>
        <time>2025-04-05T12:08:59Z</time>
      </trkpt>
      <trkpt lat="50.33848" lon="4.86719">
        <ele>71.8</ele>
        <time>2025-04-05T12:09:00Z</time>
      </trkpt>
      <trkpt lat="50.33852" lon="4.86712">
        <ele>71.8</ele>
        <time>2025-04-05T12:09:01Z</time>
      </trkpt>
      <trkpt lat="50.33854" lon="4.86705">
        <ele>71.8</ele>
        <time>2025-04-05T12:09:02Z</time>
      </trkpt>
      <trkpt lat="50.33858" lon="4.86699">
        <ele>71.8</ele>
        <time>2025-04-05T12:09:03Z</time>
      </trkpt>
      <trkpt lat="50.33861" lon="4.86692">
        <ele>72</ele>
        <time>2025-04-05T12:09:04Z</time>
      </trkpt>
      <trkpt lat="50.33865" lon="4.86685">
        <ele>72</ele>
        <time>2025-04-05T12:09:05Z</time>
      </trkpt>
      <trkpt lat="50.33869" lon="4.86677">
        <ele>72</ele>
        <time>2025-04-05T12:09:06Z</time>
      </trkpt>
      <trkpt lat="50.33872" lon="4.86669">
        <ele>72.2</ele>
        <time>2025-04-05T12:09:07Z</time>
      </trkpt>
      <trkpt lat="50.33875" lon="4.86662">
        <ele>72.2</ele>
        <time>2025-04-05T12:09:08Z</time>
      </trkpt>
      <trkpt lat="50.33878" lon="4.86654">
        <ele>72.2</ele>
        <time>2025-04-05T12:09:09Z</time>
      </trkpt>
      <trkpt lat="50.3388" lon="4.86646">
        <ele>72.4</ele>
        <time>2025-04-05T12:09:10Z</time>
      </trkpt>
      <trkpt lat="50.33883" lon="4.86638">
        <ele>72.4</ele>
        <time>2025-04-05T12:09:11Z</time>
      </trkpt>
      <trkpt lat="50.33887" lon="4.86629">
        <ele>72.2</ele>
        <time>2025-04-05T12:09:12Z</time>
      </trkpt>
      <trkpt lat="50.33889" lon="4.86621">
        <ele>72.2</ele>
        <time>2025-04-05T12:09:13Z</time>
      </trkpt>
      <trkpt lat="50.33892" lon="4.86614">
        <ele>72</ele>
        <time>2025-04-05T12:09:14Z</time>
      </trkpt>
      <trkpt lat="50.33895" lon="4.86605">
        <ele>72</ele>
        <time>2025-04-05T12:09:15Z</time>
      </trkpt>
      <trkpt lat="50.33898" lon="4.86595">
        <ele>71.8</ele>
        <time>2025-04-05T12:09:16Z</time>
      </trkpt>
      <trkpt lat="50.33901" lon="4.86587">
        <ele>71.8</ele>
        <time>2025-04-05T12:09:17Z</time>
      </trkpt>
      <trkpt lat="50.33903" lon="4.86578">
        <ele>71.8</ele>
        <time>2025-04-05T12:09:18Z</time>
      </trkpt>
      <trkpt lat="50.33906" lon="4.8657">
        <ele>71.8</ele>
        <time>2025-04-05T12:09:19Z</time>
      </trkpt>
      <trkpt lat="50.33909" lon="4.86562">
        <ele>71.8</ele>
        <time>2025-04-05T12:09:20Z</time>
      </trkpt>
      <trkpt lat="50.33911" lon="4.86554">
        <ele>71.8</ele>
        <time>2025-04-05T12:09:21Z</time>
      </trkpt>
      <trkpt lat="50.33913" lon="4.86546">
        <ele>71.8</ele>
        <time>2025-04-05T12:09:22Z</time>
      </trkpt>
      <trkpt lat="50.33916" lon="4.86538">
        <ele>71.6</ele>
        <time>2025-04-05T12:09:23Z</time>
      </trkpt>
      <trkpt lat="50.33918" lon="4.86531">
        <ele>71.6</ele>
        <time>2025-04-05T12:09:24Z</time>
      </trkpt>
      <trkpt lat="50.33921" lon="4.86523">
        <ele>71.8</ele>
        <time>2025-04-05T12:09:25Z</time>
      </trkpt>
      <trkpt lat="50.33925" lon="4.86514">
        <ele>71.6</ele>
        <time>2025-04-05T12:09:26Z</time>
      </trkpt>
      <trkpt lat="50.33927" lon="4.86506">
        <ele>71.6</ele>
        <time>2025-04-05T12:09:27Z</time>
      </trkpt>
      <trkpt lat="50.3393" lon="4.86498">
        <ele>71.6</ele>
        <time>2025-04-05T12:09:28Z</time>
      </trkpt>
      <trkpt lat="50.33932" lon="4.8649">
        <ele>71.6</ele>
        <time>2025-04-05T12:09:29Z</time>
      </trkpt>
      <trkpt lat="50.33935" lon="4.86483">
        <ele>71.6</ele>
        <time>2025-04-05T12:09:30Z</time>
      </trkpt>
      <trkpt lat="50.33938" lon="4.86476">
        <ele>71.6</ele>
        <time>2025-04-05T12:09:31Z</time>
      </trkpt>
      <trkpt lat="50.33942" lon="4.86469">
        <ele>71.6</ele>
        <time>2025-04-05T12:09:32Z</time>
      </trkpt>
      <trkpt lat="50.33945" lon="4.8646">
        <ele>71.4</ele>
        <time>2025-04-05T12:09:33Z</time>
      </trkpt>
      <trkpt lat="50.33948" lon="4.86452">
        <ele>71.4</ele>
        <time>2025-04-05T12:09:34Z</time>
      </trkpt>
      <trkpt lat="50.33951" lon="4.86445">
        <ele>71.4</ele>
        <time>2025-04-05T12:09:35Z</time>
      </trkpt>
      <trkpt lat="50.33954" lon="4.86438">
        <ele>71.4</ele>
        <time>2025-04-05T12:09:36Z</time>
      </trkpt>
      <trkpt lat="50.33957" lon="4.8643">
        <ele>71.2</ele>
        <time>2025-04-05T12:09:37Z</time>
      </trkpt>
      <trkpt lat="50.33961" lon="4.86421">
        <ele>71.2</ele>
        <time>2025-04-05T12:09:38Z</time>
      </trkpt>
      <trkpt lat="50.33965" lon="4.86414">
        <ele>71</ele>
        <time>2025-04-05T12:09:39Z</time>
      </trkpt>
      <trkpt lat="50.33968" lon="4.86407">
        <ele>71</ele>
        <time>2025-04-05T12:09:40Z</time>
      </trkpt>
      <trkpt lat="50.33972" lon="4.864">
        <ele>71</ele>
        <time>2025-04-05T12:09:41Z</time>
      </trkpt>
      <trkpt lat="50.33975" lon="4.86394">
        <ele>71</ele>
        <time>2025-04-05T12:09:42Z</time>
      </trkpt>
      <trkpt lat="50.3398" lon="4.86386">
        <ele>71</ele>
        <time>2025-04-05T12:09:43Z</time>
      </trkpt>
      <trkpt lat="50.33984" lon="4.8638">
        <ele>71</ele>
        <time>2025-04-05T12:09:44Z</time>
      </trkpt>
      <trkpt lat="50.33988" lon="4.86373">
        <ele>71</ele>
        <time>2025-04-05T12:09:45Z</time>
      </trkpt>
      <trkpt lat="50.33992" lon="4.86366">
        <ele>71.2</ele>
        <time>2025-04-05T12:09:46Z</time>
      </trkpt>
      <trkpt lat="50.33995" lon="4.8636">
        <ele>71.2</ele>
        <time>2025-04-05T12:09:47Z</time>
      </trkpt>
      <trkpt lat="50.33997" lon="4.86353">
        <ele>71.2</ele>
        <time>2025-04-05T12:09:48Z</time>
      </trkpt>
      <trkpt lat="50.34" lon="4.86346">
        <ele>71.2</ele>
        <time>2025-04-05T12:09:49Z</time>
      </trkpt>
      <trkpt lat="50.34004" lon="4.86339">
        <ele>71</ele>
        <time>2025-04-05T12:09:50Z</time>
      </trkpt>
      <trkpt lat="50.34008" lon="4.86332">
        <ele>71</ele>
        <time>2025-04-05T12:09:51Z</time>
      </trkpt>
      <trkpt lat="50.34013" lon="4.86326">
        <ele>71</ele>
        <time>2025-04-05T12:09:52Z</time>
      </trkpt>
      <trkpt lat="50.34017" lon="4.86319">
        <ele>71</ele>
        <time>2025-04-05T12:09:53Z</time>
      </trkpt>
      <trkpt lat="50.34021" lon="4.86313">
        <ele>70.8</ele>
        <time>2025-04-05T12:09:54Z</time>
      </trkpt>
      <trkpt lat="50.34025" lon="4.86305">
        <ele>71</ele>
        <time>2025-04-05T12:09:55Z</time>
      </trkpt>
      <trkpt lat="50.34029" lon="4.86298">
        <ele>70.8</ele>
        <time>2025-04-05T12:09:56Z</time>
      </trkpt>
      <trkpt lat="50.34033" lon="4.86293">
        <ele>70.8</ele>
        <time>2025-04-05T12:09:57Z</time>
      </trkpt>
      <trkpt lat="50.34037" lon="4.86287">
        <ele>71</ele>
        <time>2025-04-05T12:09:58Z</time>
      </trkpt>
      <trkpt lat="50.34041" lon="4.86281">
        <ele>71</ele>
        <time>2025-04-05T12:09:59Z</time>
      </trkpt>
      <trkpt lat="50.34045" lon="4.86276">
        <ele>71</ele>
        <time>2025-04-05T12:10:00Z</time>
      </trkpt>
      <trkpt lat="50.34049" lon="4.8627">
        <ele>71</ele>
        <time>2025-04-05T12:10:01Z</time>
      </trkpt>
      <trkpt lat="50.34054" lon="4.86264">
        <ele>71</ele>
        <time>2025-04-05T12:10:02Z</time>
      </trkpt>
      <trkpt lat="50.34057" lon="4.8626">
        <ele>71</ele>
        <time>2025-04-05T12:10:03Z</time>
      </trkpt>
      <trkpt lat="50.34062" lon="4.86254">
        <ele>71</ele>
        <time>2025-04-05T12:10:04Z</time>
      </trkpt>
      <trkpt lat="50.34066" lon="4.86249">
        <ele>71</ele>
        <time>2025-04-05T12:10:05Z</time>
      </trkpt>
      <trkpt lat="50.34071" lon="4.86244">
        <ele>71.2</ele>
        <time>2025-04-05T12:10:06Z</time>
      </trkpt>
      <trkpt lat="50.34076" lon="4.86238">
        <ele>71.2</ele>
        <time>2025-04-05T12:10:07Z</time>
      </trkpt>
      <trkpt lat="50.34081" lon="4.86232">
        <ele>71.2</ele>
        <time>2025-04-05T12:10:08Z</time>
      </trkpt>
      <trkpt lat="50.34085" lon="4.86227">
        <ele>71.2</ele>
        <time>2025-04-05T12:10:09Z</time>
      </trkpt>
      <trkpt lat="50.34089" lon="4.86223">
        <ele>71.2</ele>
        <time>2025-04-05T12:10:10Z</time>
      </trkpt>
      <trkpt lat="50.34093" lon="4.86218">
        <ele>71.2</ele>
        <time>2025-04-05T12:10:11Z</time>
      </trkpt>
      <trkpt lat="50.34098" lon="4.86213">
        <ele>71.2</ele>
        <time>2025-04-05T12:10:12Z</time>
      </trkpt>
      <trkpt lat="50.34102" lon="4.86208">
        <ele>71.4</ele>
        <time>2025-04-05T12:10:13Z</time>
      </trkpt>
      <trkpt lat="50.34107" lon="4.86203">
        <ele>71.4</ele>
        <time>2025-04-05T12:10:14Z</time>
      </trkpt>
      <trkpt lat="50.34112" lon="4.86199">
        <ele>71.6</ele>
        <time>2025-04-05T12:10:15Z</time>
      </trkpt>
      <trkpt lat="50.34116" lon="4.86195">
        <ele>71.6</ele>
        <time>2025-04-05T12:10:16Z</time>
      </trkpt>
      <trkpt lat="50.3412" lon="4.86191">
        <ele>71.8</ele>
        <time>2025-04-05T12:10:17Z</time>
      </trkpt>
      <trkpt lat="50.34125" lon="4.86187">
        <ele>71.8</ele>
        <time>2025-04-05T12:10:18Z</time>
      </trkpt>
      <trkpt lat="50.34129" lon="4.86183">
        <ele>72</ele>
        <time>2025-04-05T12:10:19Z</time>
      </trkpt>
      <trkpt lat="50.34134" lon="4.86179">
        <ele>72</ele>
        <time>2025-04-05T12:10:20Z</time>
      </trkpt>
      <trkpt lat="50.34139" lon="4.86176">
        <ele>72.2</ele>
        <time>2025-04-05T12:10:21Z</time>
      </trkpt>
      <trkpt lat="50.34144" lon="4.86172">
        <ele>72.2</ele>
        <time>2025-04-05T12:10:22Z</time>
      </trkpt>
      <trkpt lat="50.34149" lon="4.86168">
        <ele>72.2</ele>
        <time>2025-04-05T12:10:23Z</time>
      </trkpt>
      <trkpt lat="50.34153" lon="4.86164">
        <ele>72.2</ele>
        <time>2025-04-05T12:10:24Z</time>
      </trkpt>
      <trkpt lat="50.34159" lon="4.8616">
        <ele>72.2</ele>
        <time>2025-04-05T12:10:25Z</time>
      </trkpt>
      <trkpt lat="50.34164" lon="4.86157">
        <ele>72.2</ele>
        <time>2025-04-05T12:10:26Z</time>
      </trkpt>
      <trkpt lat="50.34169" lon="4.86153">
        <ele>72.4</ele>
        <time>2025-04-05T12:10:27Z</time>
      </trkpt>
      <trkpt lat="50.34174" lon="4.8615">
        <ele>72.4</ele>
        <time>2025-04-05T12:10:28Z</time>
      </trkpt>
      <trkpt lat="50.34179" lon="4.86148">
        <ele>72.4</ele>
        <time>2025-04-05T12:10:29Z</time>
      </trkpt>
      <trkpt lat="50.34184" lon="4.86145">
        <ele>72.4</ele>
        <time>2025-04-05T12:10:30Z</time>
      </trkpt>
      <trkpt lat="50.34189" lon="4.86141">
        <ele>72.4</ele>
        <time>2025-04-05T12:10:31Z</time>
      </trkpt>
      <trkpt lat="50.34193" lon="4.86138">
        <ele>72.4</ele>
        <time>2025-04-05T12:10:32Z</time>
      </trkpt>
      <trkpt lat="50.34198" lon="4.86135">
        <ele>72.4</ele>
        <time>2025-04-05T12:10:33Z</time>
      </trkpt>
      <trkpt lat="50.34204" lon="4.86132">
        <ele>72.4</ele>
        <time>2025-04-05T12:10:34Z</time>
      </trkpt>
      <trkpt lat="50.34209" lon="4.86129">
        <ele>72.4</ele>
        <time>2025-04-05T12:10:35Z</time>
      </trkpt>
      <trkpt lat="50.34214" lon="4.86126">
        <ele>72.4</ele>
        <time>2025-04-05T12:10:36Z</time>
      </trkpt>
      <trkpt lat="50.34219" lon="4.86123">
        <ele>72.4</ele>
        <time>2025-04-05T12:10:37Z</time>
      </trkpt>
      <trkpt lat="50.34224" lon="4.86121">
        <ele>72.4</ele>
        <time>2025-04-05T12:10:38Z</time>
      </trkpt>
      <trkpt lat="50.34229" lon="4.86118">
        <ele>72.4</ele>
        <time>2025-04-05T12:10:39Z</time>
      </trkpt>
      <trkpt lat="50.34233" lon="4.86115">
        <ele>72.4</ele>
        <time>2025-04-05T12:10:40Z</time>
      </trkpt>
      <trkpt lat="50.34237" lon="4.86112">
        <ele>72.6</ele>
        <time>2025-04-05T12:10:41Z</time>
      </trkpt>
      <trkpt lat="50.34242" lon="4.8611">
        <ele>72.8</ele>
        <time>2025-04-05T12:10:42Z</time>
      </trkpt>
      <trkpt lat="50.34248" lon="4.86108">
        <ele>72.8</ele>
        <time>2025-04-05T12:10:43Z</time>
      </trkpt>
      <trkpt lat="50.34253" lon="4.86106">
        <ele>73</ele>
        <time>2025-04-05T12:10:44Z</time>
      </trkpt>
      <trkpt lat="50.34258" lon="4.86104">
        <ele>73</ele>
        <time>2025-04-05T12:10:45Z</time>
      </trkpt>
      <trkpt lat="50.34262" lon="4.86102">
        <ele>73</ele>
        <time>2025-04-05T12:10:46Z</time>
      </trkpt>
      <trkpt lat="50.34267" lon="4.86099">
        <ele>73.2</ele>
        <time>2025-04-05T12:10:47Z</time>
      </trkpt>
      <trkpt lat="50.34272" lon="4.86097">
        <ele>73</ele>
        <time>2025-04-05T12:10:48Z</time>
      </trkpt>
      <trkpt lat="50.34277" lon="4.86095">
        <ele>73.2</ele>
        <time>2025-04-05T12:10:49Z</time>
      </trkpt>
      <trkpt lat="50.34282" lon="4.86093">
        <ele>73.2</ele>
        <time>2025-04-05T12:10:50Z</time>
      </trkpt>
      <trkpt lat="50.34287" lon="4.86091">
        <ele>73.4</ele>
        <time>2025-04-05T12:10:51Z</time>
      </trkpt>
      <trkpt lat="50.34291" lon="4.86089">
        <ele>73.2</ele>
        <time>2025-04-05T12:10:52Z</time>
      </trkpt>
      <trkpt lat="50.34296" lon="4.86088">
        <ele>73.4</ele>
        <time>2025-04-05T12:10:53Z</time>
      </trkpt>
      <trkpt lat="50.343" lon="4.86087">
        <ele>73.4</ele>
        <time>2025-04-05T12:10:54Z</time>
      </trkpt>
      <trkpt lat="50.34305" lon="4.86085">
        <ele>73.6</ele>
        <time>2025-04-05T12:10:55Z</time>
      </trkpt>
      <trkpt lat="50.3431" lon="4.86084">
        <ele>73.6</ele>
        <time>2025-04-05T12:10:56Z</time>
      </trkpt>
      <trkpt lat="50.34314" lon="4.86083">
        <ele>73.6</ele>
        <time>2025-04-05T12:10:57Z</time>
      </trkpt>
      <trkpt lat="50.3432" lon="4.86082">
        <ele>73.6</ele>
        <time>2025-04-05T12:10:58Z</time>
      </trkpt>
      <trkpt lat="50.34325" lon="4.86081">
        <ele>73.6</ele>
        <time>2025-04-05T12:10:59Z</time>
      </trkpt>
      <trkpt lat="50.3433" lon="4.8608">
        <ele>73.8</ele>
        <time>2025-04-05T12:11:00Z</time>
      </trkpt>
      <trkpt lat="50.34336" lon="4.86079">
        <ele>74</ele>
        <time>2025-04-05T12:11:01Z</time>
      </trkpt>
      <trkpt lat="50.34341" lon="4.86079">
        <ele>74</ele>
        <time>2025-04-05T12:11:02Z</time>
      </trkpt>
      <trkpt lat="50.34346" lon="4.86078">
        <ele>74</ele>
        <time>2025-04-05T12:11:03Z</time>
      </trkpt>
      <trkpt lat="50.34351" lon="4.86078">
        <ele>74</ele>
        <time>2025-04-05T12:11:04Z</time>
      </trkpt>
      <trkpt lat="50.34356" lon="4.86077">
        <ele>74.2</ele>
        <time>2025-04-05T12:11:05Z</time>
      </trkpt>
      <trkpt lat="50.34361" lon="4.86077">
        <ele>74.2</ele>
        <time>2025-04-05T12:11:06Z</time>
      </trkpt>
      <trkpt lat="50.34366" lon="4.86076">
        <ele>74.2</ele>
        <time>2025-04-05T12:11:07Z</time>
      </trkpt>
      <trkpt lat="50.34372" lon="4.86076">
        <ele>74.4</ele>
        <time>2025-04-05T12:11:08Z</time>
      </trkpt>
      <trkpt lat="50.34377" lon="4.86076">
        <ele>74.4</ele>
        <time>2025-04-05T12:11:09Z</time>
      </trkpt>
      <trkpt lat="50.34381" lon="4.86076">
        <ele>74.6</ele>
        <time>2025-04-05T12:11:10Z</time>
      </trkpt>
      <trkpt lat="50.34386" lon="4.86076">
        <ele>74.6</ele>
        <time>2025-04-05T12:11:11Z</time>
      </trkpt>
      <trkpt lat="50.34391" lon="4.86076">
        <ele>74.6</ele>
        <time>2025-04-05T12:11:12Z</time>
      </trkpt>
      <trkpt lat="50.34396" lon="4.86076">
        <ele>74.6</ele>
        <time>2025-04-05T12:11:13Z</time>
      </trkpt>
      <trkpt lat="50.34401" lon="4.86075">
        <ele>74.6</ele>
        <time>2025-04-05T12:11:14Z</time>
      </trkpt>
      <trkpt lat="50.34404" lon="4.86075">
        <ele>74.6</ele>
        <time>2025-04-05T12:11:15Z</time>
      </trkpt>
      <trkpt lat="50.34408" lon="4.86075">
        <ele>74.8</ele>
        <time>2025-04-05T12:11:16Z</time>
      </trkpt>
      <trkpt lat="50.34412" lon="4.86076">
        <ele>74.8</ele>
        <time>2025-04-05T12:11:17Z</time>
      </trkpt>
      <trkpt lat="50.34415" lon="4.86076">
        <ele>74.8</ele>
        <time>2025-04-05T12:11:18Z</time>
      </trkpt>
      <trkpt lat="50.34419" lon="4.86077">
        <ele>75</ele>
        <time>2025-04-05T12:11:19Z</time>
      </trkpt>
      <trkpt lat="50.34422" lon="4.86077">
        <ele>75</ele>
        <time>2025-04-05T12:11:20Z</time>
      </trkpt>
      <trkpt lat="50.34425" lon="4.86077">
        <ele>75.2</ele>
        <time>2025-04-05T12:11:21Z</time>
      </trkpt>
      <trkpt lat="50.34427" lon="4.86078">
        <ele>75.2</ele>
        <time>2025-04-05T12:11:22Z</time>
      </trkpt>
      <trkpt lat="50.34428" lon="4.86078">
        <ele>75.2</ele>
        <time>2025-04-05T12:11:23Z</time>
      </trkpt>
      <trkpt lat="50.3443" lon="4.86078">
        <ele>75.2</ele>
        <time>2025-04-05T12:11:24Z</time>
      </trkpt>
      <trkpt lat="50.34432" lon="4.86078">
        <ele>75.2</ele>
        <time>2025-04-05T12:11:25Z</time>
      </trkpt>
      <trkpt lat="50.34433" lon="4.86078">
        <ele>75.4</ele>
        <time>2025-04-05T12:11:26Z</time>
      </trkpt>
      <trkpt lat="50.34434" lon="4.86079">
        <ele>75.4</ele>
        <time>2025-04-05T12:11:27Z</time>
      </trkpt>
      <trkpt lat="50.34436" lon="4.86079">
        <ele>75</ele>
        <time>2025-04-05T12:11:51Z</time>
      </trkpt>
      <trkpt lat="50.34437" lon="4.86079">
        <ele>75</ele>
        <time>2025-04-05T12:11:52Z</time>
      </trkpt>
      <trkpt lat="50.34438" lon="4.86079">
        <ele>75</ele>
        <time>2025-04-05T12:11:53Z</time>
      </trkpt>
      <trkpt lat="50.3444" lon="4.86079">
        <ele>75</ele>
        <time>2025-04-05T12:11:54Z</time>
      </trkpt>
      <trkpt lat="50.34441" lon="4.86078">
        <ele>74.8</ele>
        <time>2025-04-05T12:11:55Z</time>
      </trkpt>
      <trkpt lat="50.34443" lon="4.86078">
        <ele>74.8</ele>
        <time>2025-04-05T12:11:56Z</time>
      </trkpt>
      <trkpt lat="50.34444" lon="4.86078">
        <ele>74.8</ele>
        <time>2025-04-05T12:11:57Z</time>
      </trkpt>
      <trkpt lat="50.34445" lon="4.86078">
        <ele>74.8</ele>
        <time>2025-04-05T12:11:58Z</time>
      </trkpt>
      <trkpt lat="50.34447" lon="4.86079">
        <ele>74.8</ele>
        <time>2025-04-05T12:11:59Z</time>
      </trkpt>
      <trkpt lat="50.34449" lon="4.8608">
        <ele>74.8</ele>
        <time>2025-04-05T12:12:00Z</time>
      </trkpt>
      <trkpt lat="50.34452" lon="4.86081">
        <ele>74.8</ele>
        <time>2025-04-05T12:12:01Z</time>
      </trkpt>
      <trkpt lat="50.34455" lon="4.86081">
        <ele>74.6</ele>
        <time>2025-04-05T12:12:02Z</time>
      </trkpt>
      <trkpt lat="50.34459" lon="4.86081">
        <ele>74.6</ele>
        <time>2025-04-05T12:12:03Z</time>
      </trkpt>
      <trkpt lat="50.34462" lon="4.86081">
        <ele>74.6</ele>
        <time>2025-04-05T12:12:04Z</time>
      </trkpt>
      <trkpt lat="50.34466" lon="4.86081">
        <ele>74.6</ele>
        <time>2025-04-05T12:12:05Z</time>
      </trkpt>
      <trkpt lat="50.3447" lon="4.86082">
        <ele>74.8</ele>
        <time>2025-04-05T12:12:06Z</time>
      </trkpt>
      <trkpt lat="50.34474" lon="4.86083">
        <ele>74.8</ele>
        <time>2025-04-05T12:12:07Z</time>
      </trkpt>
      <trkpt lat="50.34478" lon="4.86084">
        <ele>74.8</ele>
        <time>2025-04-05T12:12:08Z</time>
      </trkpt>
      <trkpt lat="50.34482" lon="4.86085">
        <ele>74.8</ele>
        <time>2025-04-05T12:12:09Z</time>
      </trkpt>
      <trkpt lat="50.34486" lon="4.86087">
        <ele>75</ele>
        <time>2025-04-05T12:12:10Z</time>
      </trkpt>
      <trkpt lat="50.3449" lon="4.86088">
        <ele>75</ele>
        <time>2025-04-05T12:12:11Z</time>
      </trkpt>
      <trkpt lat="50.34495" lon="4.86089">
        <ele>75.2</ele>
        <time>2025-04-05T12:12:12Z</time>
      </trkpt>
      <trkpt lat="50.34499" lon="4.8609">
        <ele>75.4</ele>
        <time>2025-04-05T12:12:13Z</time>
      </trkpt>
      <trkpt lat="50.34503" lon="4.86092">
        <ele>75.4</ele>
        <time>2025-04-05T12:12:14Z</time>
      </trkpt>
      <trkpt lat="50.34507" lon="4.86094">
        <ele>75.6</ele>
        <time>2025-04-05T12:12:15Z</time>
      </trkpt>
      <trkpt lat="50.34512" lon="4.86096">
        <ele>75.8</ele>
        <time>2025-04-05T12:12:16Z</time>
      </trkpt>
      <trkpt lat="50.34516" lon="4.86097">
        <ele>75.8</ele>
        <time>2025-04-05T12:12:17Z</time>
      </trkpt>
      <trkpt lat="50.3452" lon="4.86099">
        <ele>75.8</ele>
        <time>2025-04-05T12:12:18Z</time>
      </trkpt>
      <trkpt lat="50.34525" lon="4.86101">
        <ele>75.8</ele>
        <time>2025-04-05T12:12:19Z</time>
      </trkpt>
      <trkpt lat="50.34529" lon="4.86102">
        <ele>75.8</ele>
        <time>2025-04-05T12:12:20Z</time>
      </trkpt>
      <trkpt lat="50.34533" lon="4.86104">
        <ele>76</ele>
        <time>2025-04-05T12:12:21Z</time>
      </trkpt>
      <trkpt lat="50.34538" lon="4.86105">
        <ele>76.2</ele>
        <time>2025-04-05T12:12:22Z</time>
      </trkpt>
      <trkpt lat="50.34542" lon="4.86107">
        <ele>76.2</ele>
        <time>2025-04-05T12:12:23Z</time>
      </trkpt>
      <trkpt lat="50.34546" lon="4.86109">
        <ele>76.4</ele>
        <time>2025-04-05T12:12:24Z</time>
      </trkpt>
      <trkpt lat="50.3455" lon="4.8611">
        <ele>76.6</ele>
        <time>2025-04-05T12:12:25Z</time>
      </trkpt>
      <trkpt lat="50.34554" lon="4.86112">
        <ele>76.6</ele>
        <time>2025-04-05T12:12:26Z</time>
      </trkpt>
      <trkpt lat="50.34558" lon="4.86114">
        <ele>76.8</ele>
        <time>2025-04-05T12:12:27Z</time>
      </trkpt>
      <trkpt lat="50.34562" lon="4.86115">
        <ele>77</ele>
        <time>2025-04-05T12:12:28Z</time>
      </trkpt>
      <trkpt lat="50.34566" lon="4.86117">
        <ele>77</ele>
        <time>2025-04-05T12:12:29Z</time>
      </trkpt>
      <trkpt lat="50.3457" lon="4.86118">
        <ele>77.2</ele>
        <time>2025-04-05T12:12:30Z</time>
      </trkpt>
      <trkpt lat="50.34575" lon="4.8612">
        <ele>77.4</ele>
        <time>2025-04-05T12:12:31Z</time>
      </trkpt>
      <trkpt lat="50.34579" lon="4.86122">
        <ele>77.6</ele>
        <time>2025-04-05T12:12:32Z</time>
      </trkpt>
      <trkpt lat="50.34583" lon="4.86124">
        <ele>77.8</ele>
        <time>2025-04-05T12:12:33Z</time>
      </trkpt>
      <trkpt lat="50.34588" lon="4.86126">
        <ele>78</ele>
        <time>2025-04-05T12:12:34Z</time>
      </trkpt>
      <trkpt lat="50.34591" lon="4.86128">
        <ele>78.2</ele>
        <time>2025-04-05T12:12:35Z</time>
      </trkpt>
      <trkpt lat="50.34595" lon="4.8613">
        <ele>78.4</ele>
        <time>2025-04-05T12:12:36Z</time>
      </trkpt>
      <trkpt lat="50.34599" lon="4.86133">
        <ele>78.4</ele>
        <time>2025-04-05T12:12:37Z</time>
      </trkpt>
      <trkpt lat="50.34602" lon="4.86135">
        <ele>78.6</ele>
        <time>2025-04-05T12:12:38Z</time>
      </trkpt>
      <trkpt lat="50.34606" lon="4.86136">
        <ele>78.4</ele>
        <time>2025-04-05T12:12:39Z</time>
      </trkpt>
      <trkpt lat="50.3461" lon="4.86139">
        <ele>78.6</ele>
        <time>2025-04-05T12:12:40Z</time>
      </trkpt>
      <trkpt lat="50.34614" lon="4.86141">
        <ele>79</ele>
        <time>2025-04-05T12:12:41Z</time>
      </trkpt>
      <trkpt lat="50.34617" lon="4.86144">
        <ele>79.2</ele>
        <time>2025-04-05T12:12:42Z</time>
      </trkpt>
      <trkpt lat="50.34621" lon="4.86146">
        <ele>79.6</ele>
        <time>2025-04-05T12:12:43Z</time>
      </trkpt>
      <trkpt lat="50.34625" lon="4.86149">
        <ele>79.6</ele>
        <time>2025-04-05T12:12:44Z</time>
      </trkpt>
      <trkpt lat="50.34629" lon="4.86152">
        <ele>79.6</ele>
        <time>2025-04-05T12:12:45Z</time>
      </trkpt>
      <trkpt lat="50.34632" lon="4.86154">
        <ele>79.8</ele>
        <time>2025-04-05T12:12:46Z</time>
      </trkpt>
      <trkpt lat="50.34635" lon="4.86157">
        <ele>80</ele>
        <time>2025-04-05T12:12:47Z</time>
      </trkpt>
      <trkpt lat="50.34638" lon="4.8616">
        <ele>80</ele>
        <time>2025-04-05T12:12:48Z</time>
      </trkpt>
      <trkpt lat="50.34642" lon="4.86163">
        <ele>80.4</ele>
        <time>2025-04-05T12:12:49Z</time>
      </trkpt>
      <trkpt lat="50.34646" lon="4.86166">
        <ele>80.6</ele>
        <time>2025-04-05T12:12:50Z</time>
      </trkpt>
      <trkpt lat="50.34649" lon="4.8617">
        <ele>80.8</ele>
        <time>2025-04-05T12:12:51Z</time>
      </trkpt>
      <trkpt lat="50.34652" lon="4.86172">
        <ele>81</ele>
        <time>2025-04-05T12:12:52Z</time>
      </trkpt>
      <trkpt lat="50.34655" lon="4.86175">
        <ele>81.4</ele>
        <time>2025-04-05T12:12:53Z</time>
      </trkpt>
      <trkpt lat="50.34658" lon="4.86179">
        <ele>81.6</ele>
        <time>2025-04-05T12:12:54Z</time>
      </trkpt>
      <trkpt lat="50.34661" lon="4.86182">
        <ele>81.8</ele>
        <time>2025-04-05T12:12:55Z</time>
      </trkpt>
      <trkpt lat="50.34664" lon="4.86185">
        <ele>82</ele>
        <time>2025-04-05T12:12:56Z</time>
      </trkpt>
      <trkpt lat="50.34668" lon="4.86189">
        <ele>82</ele>
        <time>2025-04-05T12:12:57Z</time>
      </trkpt>
      <trkpt lat="50.34671" lon="4.86192">
        <ele>82.4</ele>
        <time>2025-04-05T12:12:58Z</time>
      </trkpt>
      <trkpt lat="50.34674" lon="4.86196">
        <ele>82.4</ele>
        <time>2025-04-05T12:12:59Z</time>
      </trkpt>
      <trkpt lat="50.34677" lon="4.86199">
        <ele>82.6</ele>
        <time>2025-04-05T12:13:00Z</time>
      </trkpt>
      <trkpt lat="50.3468" lon="4.86202">
        <ele>82.8</ele>
        <time>2025-04-05T12:13:01Z</time>
      </trkpt>
      <trkpt lat="50.34684" lon="4.86206">
        <ele>83</ele>
        <time>2025-04-05T12:13:02Z</time>
      </trkpt>
      <trkpt lat="50.34686" lon="4.86209">
        <ele>83</ele>
        <time>2025-04-05T12:13:03Z</time>
      </trkpt>
      <trkpt lat="50.34689" lon="4.86213">
        <ele>83</ele>
        <time>2025-04-05T12:13:04Z</time>
      </trkpt>
      <trkpt lat="50.34692" lon="4.86217">
        <ele>83</ele>
        <time>2025-04-05T12:13:05Z</time>
      </trkpt>
      <trkpt lat="50.34695" lon="4.86222">
        <ele>82.8</ele>
        <time>2025-04-05T12:13:06Z</time>
      </trkpt>
      <trkpt lat="50.34699" lon="4.86226">
        <ele>82.8</ele>
        <time>2025-04-05T12:13:07Z</time>
      </trkpt>
      <trkpt lat="50.34702" lon="4.8623">
        <ele>83</ele>
        <time>2025-04-05T12:13:08Z</time>
      </trkpt>
      <trkpt lat="50.34705" lon="4.86235">
        <ele>83.4</ele>
        <time>2025-04-05T12:13:09Z</time>
      </trkpt>
      <trkpt lat="50.34708" lon="4.86239">
        <ele>83.4</ele>
        <time>2025-04-05T12:13:10Z</time>
      </trkpt>
      <trkpt lat="50.34711" lon="4.86243">
        <ele>83.2</ele>
        <time>2025-04-05T12:13:11Z</time>
      </trkpt>
      <trkpt lat="50.34714" lon="4.86247">
        <ele>83.2</ele>
        <time>2025-04-05T12:13:12Z</time>
      </trkpt>
      <trkpt lat="50.34716" lon="4.86251">
        <ele>83.4</ele>
        <time>2025-04-05T12:13:13Z</time>
      </trkpt>
      <trkpt lat="50.34719" lon="4.86256">
        <ele>83.6</ele>
        <time>2025-04-05T12:13:14Z</time>
      </trkpt>
      <trkpt lat="50.34722" lon="4.86261">
        <ele>83.8</ele>
        <time>2025-04-05T12:13:15Z</time>
      </trkpt>
      <trkpt lat="50.34725" lon="4.86266">
        <ele>83.8</ele>
        <time>2025-04-05T12:13:16Z</time>
      </trkpt>
      <trkpt lat="50.34728" lon="4.8627">
        <ele>83.8</ele>
        <time>2025-04-05T12:13:17Z</time>
      </trkpt>
      <trkpt lat="50.3473" lon="4.86275">
        <ele>84</ele>
        <time>2025-04-05T12:13:18Z</time>
      </trkpt>
      <trkpt lat="50.34732" lon="4.86279">
        <ele>84</ele>
        <time>2025-04-05T12:13:19Z</time>
      </trkpt>
      <trkpt lat="50.34735" lon="4.86282">
        <ele>84</ele>
        <time>2025-04-05T12:13:20Z</time>
      </trkpt>
      <trkpt lat="50.34738" lon="4.86287">
        <ele>84</ele>
        <time>2025-04-05T12:13:21Z</time>
      </trkpt>
      <trkpt lat="50.34739" lon="4.86289">
        <ele>84</ele>
        <time>2025-04-05T12:13:22Z</time>
      </trkpt>
      <trkpt lat="50.34741" lon="4.86292">
        <ele>84</ele>
        <time>2025-04-05T12:13:23Z</time>
      </trkpt>
      <trkpt lat="50.34743" lon="4.86295">
        <ele>84.2</ele>
        <time>2025-04-05T12:13:24Z</time>
      </trkpt>
      <trkpt lat="50.34744" lon="4.86297">
        <ele>84.2</ele>
        <time>2025-04-05T12:13:25Z</time>
      </trkpt>
      <trkpt lat="50.34745" lon="4.86299">
        <ele>84.2</ele>
        <time>2025-04-05T12:13:26Z</time>
      </trkpt>
      <trkpt lat="50.34746" lon="4.863">
        <ele>84.2</ele>
        <time>2025-04-05T12:13:27Z</time>
      </trkpt>
      <trkpt lat="50.34747" lon="4.86301">
        <ele>84.2</ele>
        <time>2025-04-05T12:13:28Z</time>
      </trkpt>
      <trkpt lat="50.34747" lon="4.86301">
        <ele>84.2</ele>
        <time>2025-04-05T12:13:29Z</time>
      </trkpt>
      <trkpt lat="50.3475" lon="4.86303">
        <ele>84.4</ele>
        <time>2025-04-05T12:13:33Z</time>
      </trkpt>
      <trkpt lat="50.34752" lon="4.86301">
        <ele>84.4</ele>
        <time>2025-04-05T12:13:34Z</time>
      </trkpt>
      <trkpt lat="50.34755" lon="4.86298">
        <ele>84.4</ele>
        <time>2025-04-05T12:13:35Z</time>
      </trkpt>
      <trkpt lat="50.34757" lon="4.86295">
        <ele>84.4</ele>
        <time>2025-04-05T12:13:36Z</time>
      </trkpt>
      <trkpt lat="50.34759" lon="4.8629">
        <ele>84.4</ele>
        <time>2025-04-05T12:13:37Z</time>
      </trkpt>
      <trkpt lat="50.34761" lon="4.86285">
        <ele>84.4</ele>
        <time>2025-04-05T12:13:38Z</time>
      </trkpt>
      <trkpt lat="50.34763" lon="4.8628">
        <ele>84.4</ele>
        <time>2025-04-05T12:13:39Z</time>
      </trkpt>
      <trkpt lat="50.34766" lon="4.86276">
        <ele>84.2</ele>
        <time>2025-04-05T12:13:40Z</time>
      </trkpt>
      <trkpt lat="50.34768" lon="4.86271">
        <ele>84</ele>
        <time>2025-04-05T12:13:41Z</time>
      </trkpt>
      <trkpt lat="50.34771" lon="4.86267">
        <ele>83.8</ele>
        <time>2025-04-05T12:13:42Z</time>
      </trkpt>
      <trkpt lat="50.34775" lon="4.86263">
        <ele>83.6</ele>
        <time>2025-04-05T12:13:43Z</time>
      </trkpt>
      <trkpt lat="50.34779" lon="4.86258">
        <ele>83</ele>
        <time>2025-04-05T12:13:44Z</time>
      </trkpt>
      <trkpt lat="50.34784" lon="4.86252">
        <ele>82.6</ele>
        <time>2025-04-05T12:13:45Z</time>
      </trkpt>
      <trkpt lat="50.34788" lon="4.86246">
        <ele>82.2</ele>
        <time>2025-04-05T12:13:46Z</time>
      </trkpt>
      <trkpt lat="50.34793" lon="4.8624">
        <ele>81.8</ele>
        <time>2025-04-05T12:13:47Z</time>
      </trkpt>
      <trkpt lat="50.34798" lon="4.86236">
        <ele>81.2</ele>
        <time>2025-04-05T12:13:48Z</time>
      </trkpt>
      <trkpt lat="50.34803" lon="4.86232">
        <ele>80.8</ele>
        <time>2025-04-05T12:13:49Z</time>
      </trkpt>
      <trkpt lat="50.3481" lon="4.86227">
        <ele>80.4</ele>
        <time>2025-04-05T12:13:50Z</time>
      </trkpt>
      <trkpt lat="50.34816" lon="4.86223">
        <ele>79.8</ele>
        <time>2025-04-05T12:13:51Z</time>
      </trkpt>
      <trkpt lat="50.34822" lon="4.86221">
        <ele>79.4</ele>
        <time>2025-04-05T12:13:52Z</time>
      </trkpt>
      <trkpt lat="50.34828" lon="4.8622">
        <ele>78.8</ele>
        <time>2025-04-05T12:13:53Z</time>
      </trkpt>
      <trkpt lat="50.34834" lon="4.86218">
        <ele>78.2</ele>
        <time>2025-04-05T12:13:54Z</time>
      </trkpt>
      <trkpt lat="50.34841" lon="4.86217">
        <ele>77.6</ele>
        <time>2025-04-05T12:13:55Z</time>
      </trkpt>
      <trkpt lat="50.34848" lon="4.86216">
        <ele>77</ele>
        <time>2025-04-05T12:13:56Z</time>
      </trkpt>
      <trkpt lat="50.34856" lon="4.86215">
        <ele>76.4</ele>
        <time>2025-04-05T12:13:57Z</time>
      </trkpt>
      <trkpt lat="50.34863" lon="4.86214">
        <ele>75.8</ele>
        <time>2025-04-05T12:13:58Z</time>
      </trkpt>
      <trkpt lat="50.3487" lon="4.86214">
        <ele>75.2</ele>
        <time>2025-04-05T12:13:59Z</time>
      </trkpt>
      <trkpt lat="50.34876" lon="4.86213">
        <ele>74.6</ele>
        <time>2025-04-05T12:14:00Z</time>
      </trkpt>
      <trkpt lat="50.34883" lon="4.86212">
        <ele>74.2</ele>
        <time>2025-04-05T12:14:01Z</time>
      </trkpt>
      <trkpt lat="50.3489" lon="4.86211">
        <ele>74</ele>
        <time>2025-04-05T12:14:02Z</time>
      </trkpt>
      <trkpt lat="50.34895" lon="4.86208">
        <ele>73.8</ele>
        <time>2025-04-05T12:14:03Z</time>
      </trkpt>
      <trkpt lat="50.34898" lon="4.86203">
        <ele>73.8</ele>
        <time>2025-04-05T12:14:04Z</time>
      </trkpt>
      <trkpt lat="50.349" lon="4.86196">
        <ele>73.6</ele>
        <time>2025-04-05T12:14:05Z</time>
      </trkpt>
      <trkpt lat="50.349" lon="4.86188">
        <ele>73.6</ele>
        <time>2025-04-05T12:14:06Z</time>
      </trkpt>
      <trkpt lat="50.34899" lon="4.8618">
        <ele>73.4</ele>
        <time>2025-04-05T12:14:07Z</time>
      </trkpt>
      <trkpt lat="50.34899" lon="4.86171">
        <ele>73.2</ele>
        <time>2025-04-05T12:14:08Z</time>
      </trkpt>
      <trkpt lat="50.34898" lon="4.8616">
        <ele>73.2</ele>
        <time>2025-04-05T12:14:09Z</time>
      </trkpt>
      <trkpt lat="50.34897" lon="4.8615">
        <ele>73.2</ele>
        <time>2025-04-05T12:14:10Z</time>
      </trkpt>
      <trkpt lat="50.34897" lon="4.86141">
        <ele>73.2</ele>
        <time>2025-04-05T12:14:11Z</time>
      </trkpt>
      <trkpt lat="50.34896" lon="4.86134">
        <ele>73.2</ele>
        <time>2025-04-05T12:14:12Z</time>
      </trkpt>
      <trkpt lat="50.34897" lon="4.86125">
        <ele>73</ele>
        <time>2025-04-05T12:14:13Z</time>
      </trkpt>
      <trkpt lat="50.34897" lon="4.86117">
        <ele>73</ele>
        <time>2025-04-05T12:14:14Z</time>
      </trkpt>
      <trkpt lat="50.34897" lon="4.86107">
        <ele>72.8</ele>
        <time>2025-04-05T12:14:15Z</time>
      </trkpt>
      <trkpt lat="50.34897" lon="4.86098">
        <ele>72.8</ele>
        <time>2025-04-05T12:14:16Z</time>
      </trkpt>
      <trkpt lat="50.34896" lon="4.86089">
        <ele>72.6</ele>
        <time>2025-04-05T12:14:17Z</time>
      </trkpt>
      <trkpt lat="50.34895" lon="4.86079">
        <ele>72.6</ele>
        <time>2025-04-05T12:14:18Z</time>
      </trkpt>
      <trkpt lat="50.34895" lon="4.86069">
        <ele>72.6</ele>
        <time>2025-04-05T12:14:19Z</time>
      </trkpt>
      <trkpt lat="50.34895" lon="4.8606">
        <ele>72.6</ele>
        <time>2025-04-05T12:14:20Z</time>
      </trkpt>
      <trkpt lat="50.34894" lon="4.86052">
        <ele>72.6</ele>
        <time>2025-04-05T12:14:21Z</time>
      </trkpt>
      <trkpt lat="50.34894" lon="4.86043">
        <ele>72.6</ele>
        <time>2025-04-05T12:14:22Z</time>
      </trkpt>
      <trkpt lat="50.34894" lon="4.86035">
        <ele>72.6</ele>
        <time>2025-04-05T12:14:23Z</time>
      </trkpt>
      <trkpt lat="50.34893" lon="4.86026">
        <ele>72.6</ele>
        <time>2025-04-05T12:14:24Z</time>
      </trkpt>
      <trkpt lat="50.34893" lon="4.86017">
        <ele>72.6</ele>
        <time>2025-04-05T12:14:25Z</time>
      </trkpt>
      <trkpt lat="50.34893" lon="4.86007">
        <ele>72.6</ele>
        <time>2025-04-05T12:14:26Z</time>
      </trkpt>
      <trkpt lat="50.34893" lon="4.85998">
        <ele>72.6</ele>
        <time>2025-04-05T12:14:27Z</time>
      </trkpt>
      <trkpt lat="50.34892" lon="4.85989">
        <ele>72.6</ele>
        <time>2025-04-05T12:14:28Z</time>
      </trkpt>
      <trkpt lat="50.34892" lon="4.85978">
        <ele>72.4</ele>
        <time>2025-04-05T12:14:29Z</time>
      </trkpt>
      <trkpt lat="50.34891" lon="4.85968">
        <ele>72.4</ele>
        <time>2025-04-05T12:14:30Z</time>
      </trkpt>
      <trkpt lat="50.34891" lon="4.85958">
        <ele>72.4</ele>
        <time>2025-04-05T12:14:31Z</time>
      </trkpt>
      <trkpt lat="50.34891" lon="4.85948">
        <ele>72.4</ele>
        <time>2025-04-05T12:14:32Z</time>
      </trkpt>
      <trkpt lat="50.34892" lon="4.85939">
        <ele>72.2</ele>
        <time>2025-04-05T12:14:33Z</time>
      </trkpt>
      <trkpt lat="50.34891" lon="4.8593">
        <ele>72</ele>
        <time>2025-04-05T12:14:34Z</time>
      </trkpt>
      <trkpt lat="50.34891" lon="4.85921">
        <ele>71.8</ele>
        <time>2025-04-05T12:14:35Z</time>
      </trkpt>
      <trkpt lat="50.3489" lon="4.85911">
        <ele>71.8</ele>
        <time>2025-04-05T12:14:36Z</time>
      </trkpt>
      <trkpt lat="50.3489" lon="4.85901">
        <ele>71.6</ele>
        <time>2025-04-05T12:14:37Z</time>
      </trkpt>
      <trkpt lat="50.34889" lon="4.85891">
        <ele>71.6</ele>
        <time>2025-04-05T12:14:38Z</time>
      </trkpt>
      <trkpt lat="50.34889" lon="4.85882">
        <ele>71.6</ele>
        <time>2025-04-05T12:14:39Z</time>
      </trkpt>
      <trkpt lat="50.34888" lon="4.85873">
        <ele>71.6</ele>
        <time>2025-04-05T12:14:40Z</time>
      </trkpt>
      <trkpt lat="50.34887" lon="4.85864">
        <ele>71.6</ele>
        <time>2025-04-05T12:14:41Z</time>
      </trkpt>
      <trkpt lat="50.34887" lon="4.85855">
        <ele>71.6</ele>
        <time>2025-04-05T12:14:42Z</time>
      </trkpt>
      <trkpt lat="50.34886" lon="4.85846">
        <ele>71.6</ele>
        <time>2025-04-05T12:14:43Z</time>
      </trkpt>
      <trkpt lat="50.34885" lon="4.85837">
        <ele>71.6</ele>
        <time>2025-04-05T12:14:44Z</time>
      </trkpt>
      <trkpt lat="50.34885" lon="4.85827">
        <ele>71.6</ele>
        <time>2025-04-05T12:14:45Z</time>
      </trkpt>
      <trkpt lat="50.34885" lon="4.85818">
        <ele>71.8</ele>
        <time>2025-04-05T12:14:46Z</time>
      </trkpt>
      <trkpt lat="50.34885" lon="4.85809">
        <ele>71.8</ele>
        <time>2025-04-05T12:14:47Z</time>
      </trkpt>
      <trkpt lat="50.34885" lon="4.85799">
        <ele>71.8</ele>
        <time>2025-04-05T12:14:48Z</time>
      </trkpt>
      <trkpt lat="50.34885" lon="4.85789">
        <ele>71.6</ele>
        <time>2025-04-05T12:14:49Z</time>
      </trkpt>
      <trkpt lat="50.34885" lon="4.8578">
        <ele>71.6</ele>
        <time>2025-04-05T12:14:50Z</time>
      </trkpt>
      <trkpt lat="50.34884" lon="4.8577">
        <ele>71.6</ele>
        <time>2025-04-05T12:14:51Z</time>
      </trkpt>
      <trkpt lat="50.34884" lon="4.85759">
        <ele>71.6</ele>
        <time>2025-04-05T12:14:52Z</time>
      </trkpt>
      <trkpt lat="50.34883" lon="4.85749">
        <ele>71.6</ele>
        <time>2025-04-05T12:14:53Z</time>
      </trkpt>
      <trkpt lat="50.34882" lon="4.85738">
        <ele>71.6</ele>
        <time>2025-04-05T12:14:54Z</time>
      </trkpt>
      <trkpt lat="50.34882" lon="4.85728">
        <ele>71.4</ele>
        <time>2025-04-05T12:14:55Z</time>
      </trkpt>
      <trkpt lat="50.34883" lon="4.85718">
        <ele>71.6</ele>
        <time>2025-04-05T12:14:56Z</time>
      </trkpt>
      <trkpt lat="50.34882" lon="4.85708">
        <ele>71.8</ele>
        <time>2025-04-05T12:14:57Z</time>
      </trkpt>
      <trkpt lat="50.34882" lon="4.85698">
        <ele>72</ele>
        <time>2025-04-05T12:14:58Z</time>
      </trkpt>
      <trkpt lat="50.34882" lon="4.85689">
        <ele>72.2</ele>
        <time>2025-04-05T12:14:59Z</time>
      </trkpt>
      <trkpt lat="50.34881" lon="4.85679">
        <ele>72.4</ele>
        <time>2025-04-05T12:15:00Z</time>
      </trkpt>
      <trkpt lat="50.34881" lon="4.85671">
        <ele>72.4</ele>
        <time>2025-04-05T12:15:01Z</time>
      </trkpt>
      <trkpt lat="50.34881" lon="4.85662">
        <ele>72.6</ele>
        <time>2025-04-05T12:15:02Z</time>
      </trkpt>
      <trkpt lat="50.34881" lon="4.85652">
        <ele>72.6</ele>
        <time>2025-04-05T12:15:03Z</time>
      </trkpt>
      <trkpt lat="50.3488" lon="4.85643">
        <ele>72.8</ele>
        <time>2025-04-05T12:15:04Z</time>
      </trkpt>
      <trkpt lat="50.3488" lon="4.85634">
        <ele>73</ele>
        <time>2025-04-05T12:15:05Z</time>
      </trkpt>
      <trkpt lat="50.34879" lon="4.85624">
        <ele>73.2</ele>
        <time>2025-04-05T12:15:06Z</time>
      </trkpt>
      <trkpt lat="50.34879" lon="4.85615">
        <ele>73.2</ele>
        <time>2025-04-05T12:15:07Z</time>
      </trkpt>
      <trkpt lat="50.34879" lon="4.85606">
        <ele>73.4</ele>
        <time>2025-04-05T12:15:08Z</time>
      </trkpt>
      <trkpt lat="50.34879" lon="4.85597">
        <ele>73.6</ele>
        <time>2025-04-05T12:15:09Z</time>
      </trkpt>
      <trkpt lat="50.34878" lon="4.85589">
        <ele>73.8</ele>
        <time>2025-04-05T12:15:10Z</time>
      </trkpt>
      <trkpt lat="50.34878" lon="4.85581">
        <ele>74</ele>
        <time>2025-04-05T12:15:11Z</time>
      </trkpt>
      <trkpt lat="50.34878" lon="4.85575">
        <ele>74.2</ele>
        <time>2025-04-05T12:15:12Z</time>
      </trkpt>
      <trkpt lat="50.34879" lon="4.85569">
        <ele>74.2</ele>
        <time>2025-04-05T12:15:13Z</time>
      </trkpt>
      <trkpt lat="50.34879" lon="4.85563">
        <ele>74.4</ele>
        <time>2025-04-05T12:15:14Z</time>
      </trkpt>
      <trkpt lat="50.34878" lon="4.85558">
        <ele>74.6</ele>
        <time>2025-04-05T12:15:15Z</time>
      </trkpt>
      <trkpt lat="50.34878" lon="4.85553">
        <ele>74.6</ele>
        <time>2025-04-05T12:15:16Z</time>
      </trkpt>
      <trkpt lat="50.34878" lon="4.85549">
        <ele>74.8</ele>
        <time>2025-04-05T12:15:17Z</time>
      </trkpt>
      <trkpt lat="50.34877" lon="4.85546">
        <ele>75</ele>
        <time>2025-04-05T12:15:18Z</time>
      </trkpt>
      <trkpt lat="50.34877" lon="4.85544">
        <ele>75</ele>
        <time>2025-04-05T12:15:19Z</time>
      </trkpt>
      <trkpt lat="50.34877" lon="4.85542">
        <ele>75.2</ele>
        <time>2025-04-05T12:15:20Z</time>
      </trkpt>
      <trkpt lat="50.34877" lon="4.85541">
        <ele>75.2</ele>
        <time>2025-04-05T12:15:24Z</time>
      </trkpt>
      <trkpt lat="50.34877" lon="4.85539">
        <ele>75.2</ele>
        <time>2025-04-05T12:15:25Z</time>
      </trkpt>
      <trkpt lat="50.34877" lon="4.85537">
        <ele>75.4</ele>
        <time>2025-04-05T12:15:26Z</time>
      </trkpt>
      <trkpt lat="50.34877" lon="4.85534">
        <ele>75.4</ele>
        <time>2025-04-05T12:15:27Z</time>
      </trkpt>
      <trkpt lat="50.34878" lon="4.85531">
        <ele>75.6</ele>
        <time>2025-04-05T12:15:28Z</time>
      </trkpt>
      <trkpt lat="50.34878" lon="4.85526">
        <ele>75.6</ele>
        <time>2025-04-05T12:15:29Z</time>
      </trkpt>
      <trkpt lat="50.34878" lon="4.85521">
        <ele>75.6</ele>
        <time>2025-04-05T12:15:30Z</time>
      </trkpt>
      <trkpt lat="50.34879" lon="4.85516">
        <ele>75.8</ele>
        <time>2025-04-05T12:15:31Z</time>
      </trkpt>
      <trkpt lat="50.34879" lon="4.8551">
        <ele>75.8</ele>
        <time>2025-04-05T12:15:32Z</time>
      </trkpt>
      <trkpt lat="50.34879" lon="4.85503">
        <ele>76</ele>
        <time>2025-04-05T12:15:33Z</time>
      </trkpt>
      <trkpt lat="50.34879" lon="4.85496">
        <ele>76</ele>
        <time>2025-04-05T12:15:34Z</time>
      </trkpt>
      <trkpt lat="50.34878" lon="4.85489">
        <ele>76.2</ele>
        <time>2025-04-05T12:15:35Z</time>
      </trkpt>
      <trkpt lat="50.34878" lon="4.85481">
        <ele>76.2</ele>
        <time>2025-04-05T12:15:36Z</time>
      </trkpt>
      <trkpt lat="50.34878" lon="4.85473">
        <ele>76.4</ele>
        <time>2025-04-05T12:15:37Z</time>
      </trkpt>
      <trkpt lat="50.34877" lon="4.85465">
        <ele>76.4</ele>
        <time>2025-04-05T12:15:38Z</time>
      </trkpt>
      <trkpt lat="50.34876" lon="4.85457">
        <ele>76.6</ele>
        <time>2025-04-05T12:15:39Z</time>
      </trkpt>
      <trkpt lat="50.34876" lon="4.8545">
        <ele>76.6</ele>
        <time>2025-04-05T12:15:40Z</time>
      </trkpt>
      <trkpt lat="50.34876" lon="4.85442">
        <ele>76.8</ele>
        <time>2025-04-05T12:15:41Z</time>
      </trkpt>
      <trkpt lat="50.34876" lon="4.85434">
        <ele>76.8</ele>
        <time>2025-04-05T12:15:42Z</time>
      </trkpt>
      <trkpt lat="50.34875" lon="4.85426">
        <ele>77</ele>
        <time>2025-04-05T12:15:43Z</time>
      </trkpt>
      <trkpt lat="50.34875" lon="4.85419">
        <ele>77.2</ele>
        <time>2025-04-05T12:15:44Z</time>
      </trkpt>
      <trkpt lat="50.34874" lon="4.85412">
        <ele>77.4</ele>
        <time>2025-04-05T12:15:45Z</time>
      </trkpt>
      <trkpt lat="50.34874" lon="4.85404">
        <ele>77.4</ele>
        <time>2025-04-05T12:15:46Z</time>
      </trkpt>
      <trkpt lat="50.34873" lon="4.85396">
        <ele>77.6</ele>
        <time>2025-04-05T12:15:47Z</time>
      </trkpt>
      <trkpt lat="50.34873" lon="4.85389">
        <ele>77.6</ele>
        <time>2025-04-05T12:15:48Z</time>
      </trkpt>
      <trkpt lat="50.34872" lon="4.85381">
        <ele>77.6</ele>
        <time>2025-04-05T12:15:49Z</time>
      </trkpt>
      <trkpt lat="50.34872" lon="4.85375">
        <ele>77.8</ele>
        <time>2025-04-05T12:15:50Z</time>
      </trkpt>
      <trkpt lat="50.34872" lon="4.85369">
        <ele>77.8</ele>
        <time>2025-04-05T12:15:51Z</time>
      </trkpt>
      <trkpt lat="50.34872" lon="4.85363">
        <ele>78</ele>
        <time>2025-04-05T12:15:52Z</time>
      </trkpt>
      <trkpt lat="50.34871" lon="4.85355">
        <ele>78</ele>
        <time>2025-04-05T12:15:53Z</time>
      </trkpt>
      <trkpt lat="50.34871" lon="4.85347">
        <ele>78</ele>
        <time>2025-04-05T12:15:54Z</time>
      </trkpt>
      <trkpt lat="50.34871" lon="4.8534">
        <ele>77.8</ele>
        <time>2025-04-05T12:15:55Z</time>
      </trkpt>
      <trkpt lat="50.3487" lon="4.85333">
        <ele>77.6</ele>
        <time>2025-04-05T12:15:56Z</time>
      </trkpt>
      <trkpt lat="50.3487" lon="4.85325">
        <ele>77.6</ele>
        <time>2025-04-05T12:15:57Z</time>
      </trkpt>
      <trkpt lat="50.34869" lon="4.85317">
        <ele>77.4</ele>
        <time>2025-04-05T12:15:58Z</time>
      </trkpt>
      <trkpt lat="50.34869" lon="4.85309">
        <ele>77.4</ele>
        <time>2025-04-05T12:15:59Z</time>
      </trkpt>
      <trkpt lat="50.34868" lon="4.85301">
        <ele>77.4</ele>
        <time>2025-04-05T12:16:00Z</time>
      </trkpt>
      <trkpt lat="50.34868" lon="4.85292">
        <ele>77.4</ele>
        <time>2025-04-05T12:16:01Z</time>
      </trkpt>
      <trkpt lat="50.34868" lon="4.85283">
        <ele>77.2</ele>
        <time>2025-04-05T12:16:02Z</time>
      </trkpt>
      <trkpt lat="50.34868" lon="4.85274">
        <ele>77</ele>
        <time>2025-04-05T12:16:03Z</time>
      </trkpt>
      <trkpt lat="50.34868" lon="4.85266">
        <ele>76.6</ele>
        <time>2025-04-05T12:16:04Z</time>
      </trkpt>
      <trkpt lat="50.34868" lon="4.85258">
        <ele>76.6</ele>
        <time>2025-04-05T12:16:05Z</time>
      </trkpt>
      <trkpt lat="50.34867" lon="4.8525">
        <ele>76.4</ele>
        <time>2025-04-05T12:16:06Z</time>
      </trkpt>
      <trkpt lat="50.34867" lon="4.85242">
        <ele>76.2</ele>
        <time>2025-04-05T12:16:07Z</time>
      </trkpt>
      <trkpt lat="50.34867" lon="4.85234">
        <ele>76</ele>
        <time>2025-04-05T12:16:08Z</time>
      </trkpt>
      <trkpt lat="50.34867" lon="4.85227">
        <ele>75.8</ele>
        <time>2025-04-05T12:16:09Z</time>
      </trkpt>
      <trkpt lat="50.34868" lon="4.8522">
        <ele>75.4</ele>
        <time>2025-04-05T12:16:10Z</time>
      </trkpt>
      <trkpt lat="50.34869" lon="4.85214">
        <ele>75.2</ele>
        <time>2025-04-05T12:16:11Z</time>
      </trkpt>
      <trkpt lat="50.3487" lon="4.85208">
        <ele>75</ele>
        <time>2025-04-05T12:16:12Z</time>
      </trkpt>
      <trkpt lat="50.34872" lon="4.85203">
        <ele>74.8</ele>
        <time>2025-04-05T12:16:13Z</time>
      </trkpt>
      <trkpt lat="50.34874" lon="4.85198">
        <ele>74.6</ele>
        <time>2025-04-05T12:16:14Z</time>
      </trkpt>
      <trkpt lat="50.34878" lon="4.85193">
        <ele>74.6</ele>
        <time>2025-04-05T12:16:15Z</time>
      </trkpt>
      <trkpt lat="50.34881" lon="4.85189">
        <ele>74.4</ele>
        <time>2025-04-05T12:16:16Z</time>
      </trkpt>
      <trkpt lat="50.34885" lon="4.85185">
        <ele>74.4</ele>
        <time>2025-04-05T12:16:17Z</time>
      </trkpt>
      <trkpt lat="50.34888" lon="4.8518">
        <ele>74.4</ele>
        <time>2025-04-05T12:16:18Z</time>
      </trkpt>
      <trkpt lat="50.3489" lon="4.85174">
        <ele>74.2</ele>
        <time>2025-04-05T12:16:19Z</time>
      </trkpt>
      <trkpt lat="50.34894" lon="4.85168">
        <ele>74.2</ele>
        <time>2025-04-05T12:16:20Z</time>
      </trkpt>
      <trkpt lat="50.34899" lon="4.85164">
        <ele>74.2</ele>
        <time>2025-04-05T12:16:21Z</time>
      </trkpt>
      <trkpt lat="50.34904" lon="4.85162">
        <ele>74.2</ele>
        <time>2025-04-05T12:16:22Z</time>
      </trkpt>
      <trkpt lat="50.34909" lon="4.85161">
        <ele>74.2</ele>
        <time>2025-04-05T12:16:23Z</time>
      </trkpt>
      <trkpt lat="50.34914" lon="4.85162">
        <ele>74.2</ele>
        <time>2025-04-05T12:16:24Z</time>
      </trkpt>
      <trkpt lat="50.3492" lon="4.85163">
        <ele>74.2</ele>
        <time>2025-04-05T12:16:25Z</time>
      </trkpt>
      <trkpt lat="50.34926" lon="4.85165">
        <ele>74.2</ele>
        <time>2025-04-05T12:16:26Z</time>
      </trkpt>
      <trkpt lat="50.34932" lon="4.85167">
        <ele>74.2</ele>
        <time>2025-04-05T12:16:27Z</time>
      </trkpt>
      <trkpt lat="50.34937" lon="4.85169">
        <ele>74.2</ele>
        <time>2025-04-05T12:16:28Z</time>
      </trkpt>
      <trkpt lat="50.34943" lon="4.85172">
        <ele>74.2</ele>
        <time>2025-04-05T12:16:29Z</time>
      </trkpt>
      <trkpt lat="50.34949" lon="4.85175">
        <ele>74</ele>
        <time>2025-04-05T12:16:30Z</time>
      </trkpt>
      <trkpt lat="50.34954" lon="4.85178">
        <ele>74</ele>
        <time>2025-04-05T12:16:31Z</time>
      </trkpt>
      <trkpt lat="50.3496" lon="4.85182">
        <ele>74</ele>
        <time>2025-04-05T12:16:32Z</time>
      </trkpt>
      <trkpt lat="50.34966" lon="4.85186">
        <ele>74</ele>
        <time>2025-04-05T12:16:33Z</time>
      </trkpt>
      <trkpt lat="50.34971" lon="4.85191">
        <ele>74</ele>
        <time>2025-04-05T12:16:34Z</time>
      </trkpt>
      <trkpt lat="50.34976" lon="4.85196">
        <ele>74</ele>
        <time>2025-04-05T12:16:35Z</time>
      </trkpt>
      <trkpt lat="50.34981" lon="4.85201">
        <ele>73.8</ele>
        <time>2025-04-05T12:16:36Z</time>
      </trkpt>
      <trkpt lat="50.34986" lon="4.85207">
        <ele>73.8</ele>
        <time>2025-04-05T12:16:37Z</time>
      </trkpt>
      <trkpt lat="50.34991" lon="4.85212">
        <ele>73.8</ele>
        <time>2025-04-05T12:16:38Z</time>
      </trkpt>
      <trkpt lat="50.34995" lon="4.85217">
        <ele>73.8</ele>
        <time>2025-04-05T12:16:39Z</time>
      </trkpt>
      <trkpt lat="50.35" lon="4.85223">
        <ele>73.8</ele>
        <time>2025-04-05T12:16:40Z</time>
      </trkpt>
      <trkpt lat="50.35004" lon="4.85229">
        <ele>73.6</ele>
        <time>2025-04-05T12:16:41Z</time>
      </trkpt>
      <trkpt lat="50.35008" lon="4.85234">
        <ele>73.8</ele>
        <time>2025-04-05T12:16:42Z</time>
      </trkpt>
      <trkpt lat="50.35012" lon="4.8524">
        <ele>73.8</ele>
        <time>2025-04-05T12:16:43Z</time>
      </trkpt>
      <trkpt lat="50.35017" lon="4.85245">
        <ele>73.8</ele>
        <time>2025-04-05T12:16:44Z</time>
      </trkpt>
      <trkpt lat="50.35021" lon="4.85251">
        <ele>73.8</ele>
        <time>2025-04-05T12:16:45Z</time>
      </trkpt>
      <trkpt lat="50.35025" lon="4.85257">
        <ele>73.8</ele>
        <time>2025-04-05T12:16:46Z</time>
      </trkpt>
      <trkpt lat="50.3503" lon="4.85263">
        <ele>74</ele>
        <time>2025-04-05T12:16:47Z</time>
      </trkpt>
      <trkpt lat="50.35034" lon="4.85268">
        <ele>74</ele>
        <time>2025-04-05T12:16:48Z</time>
      </trkpt>
      <trkpt lat="50.35039" lon="4.85275">
        <ele>74</ele>
        <time>2025-04-05T12:16:49Z</time>
      </trkpt>
      <trkpt lat="50.35045" lon="4.85281">
        <ele>73.8</ele>
        <time>2025-04-05T12:16:50Z</time>
      </trkpt>
      <trkpt lat="50.3505" lon="4.85288">
        <ele>74</ele>
        <time>2025-04-05T12:16:51Z</time>
      </trkpt>
      <trkpt lat="50.35055" lon="4.85295">
        <ele>74</ele>
        <time>2025-04-05T12:16:52Z</time>
      </trkpt>
      <trkpt lat="50.35059" lon="4.85302">
        <ele>74</ele>
        <time>2025-04-05T12:16:53Z</time>
      </trkpt>
      <trkpt lat="50.35064" lon="4.85308">
        <ele>74</ele>
        <time>2025-04-05T12:16:54Z</time>
      </trkpt>
      <trkpt lat="50.35069" lon="4.85315">
        <ele>74</ele>
        <time>2025-04-05T12:16:55Z</time>
      </trkpt>
      <trkpt lat="50.35073" lon="4.85322">
        <ele>74.2</ele>
        <time>2025-04-05T12:16:56Z</time>
      </trkpt>
      <trkpt lat="50.35077" lon="4.8533">
        <ele>74.2</ele>
        <time>2025-04-05T12:16:57Z</time>
      </trkpt>
      <trkpt lat="50.35081" lon="4.85337">
        <ele>74.4</ele>
        <time>2025-04-05T12:16:58Z</time>
      </trkpt>
      <trkpt lat="50.35085" lon="4.85345">
        <ele>74.4</ele>
        <time>2025-04-05T12:16:59Z</time>
      </trkpt>
      <trkpt lat="50.35089" lon="4.85352">
        <ele>74.4</ele>
        <time>2025-04-05T12:17:00Z</time>
      </trkpt>
      <trkpt lat="50.35093" lon="4.8536">
        <ele>74.4</ele>
        <time>2025-04-05T12:17:01Z</time>
      </trkpt>
      <trkpt lat="50.35096" lon="4.85368">
        <ele>74.6</ele>
        <time>2025-04-05T12:17:02Z</time>
      </trkpt>
      <trkpt lat="50.35099" lon="4.85375">
        <ele>74.6</ele>
        <time>2025-04-05T12:17:03Z</time>
      </trkpt>
      <trkpt lat="50.35103" lon="4.85383">
        <ele>74.6</ele>
        <time>2025-04-05T12:17:04Z</time>
      </trkpt>
      <trkpt lat="50.35106" lon="4.85391">
        <ele>74.8</ele>
        <time>2025-04-05T12:17:05Z</time>
      </trkpt>
      <trkpt lat="50.35109" lon="4.85399">
        <ele>74.8</ele>
        <time>2025-04-05T12:17:06Z</time>
      </trkpt>
      <trkpt lat="50.35111" lon="4.85408">
        <ele>74.8</ele>
        <time>2025-04-05T12:17:07Z</time>
      </trkpt>
      <trkpt lat="50.35115" lon="4.85417">
        <ele>75</ele>
        <time>2025-04-05T12:17:08Z</time>
      </trkpt>
      <trkpt lat="50.35117" lon="4.85425">
        <ele>75</ele>
        <time>2025-04-05T12:17:09Z</time>
      </trkpt>
      <trkpt lat="50.35119" lon="4.85433">
        <ele>75</ele>
        <time>2025-04-05T12:17:10Z</time>
      </trkpt>
      <trkpt lat="50.35122" lon="4.85442">
        <ele>75</ele>
        <time>2025-04-05T12:17:11Z</time>
      </trkpt>
      <trkpt lat="50.35123" lon="4.85451">
        <ele>75.2</ele>
        <time>2025-04-05T12:17:12Z</time>
      </trkpt>
      <trkpt lat="50.35126" lon="4.85461">
        <ele>75.2</ele>
        <time>2025-04-05T12:17:13Z</time>
      </trkpt>
      <trkpt lat="50.35128" lon="4.8547">
        <ele>75.4</ele>
        <time>2025-04-05T12:17:14Z</time>
      </trkpt>
      <trkpt lat="50.35131" lon="4.8548">
        <ele>75.4</ele>
        <time>2025-04-05T12:17:15Z</time>
      </trkpt>
      <trkpt lat="50.35133" lon="4.85489">
        <ele>75.6</ele>
        <time>2025-04-05T12:17:16Z</time>
      </trkpt>
      <trkpt lat="50.35135" lon="4.85498">
        <ele>75.6</ele>
        <time>2025-04-05T12:17:17Z</time>
      </trkpt>
      <trkpt lat="50.35138" lon="4.85507">
        <ele>75.6</ele>
        <time>2025-04-05T12:17:18Z</time>
      </trkpt>
      <trkpt lat="50.3514" lon="4.85517">
        <ele>75.6</ele>
        <time>2025-04-05T12:17:19Z</time>
      </trkpt>
      <trkpt lat="50.35142" lon="4.85526">
        <ele>75.6</ele>
        <time>2025-04-05T12:17:20Z</time>
      </trkpt>
      <trkpt lat="50.35144" lon="4.85536">
        <ele>75.6</ele>
        <time>2025-04-05T12:17:21Z</time>
      </trkpt>
      <trkpt lat="50.35145" lon="4.85545">
        <ele>75.6</ele>
        <time>2025-04-05T12:17:22Z</time>
      </trkpt>
      <trkpt lat="50.35147" lon="4.85555">
        <ele>75.4</ele>
        <time>2025-04-05T12:17:23Z</time>
      </trkpt>
      <trkpt lat="50.35148" lon="4.85565">
        <ele>75.4</ele>
        <time>2025-04-05T12:17:24Z</time>
      </trkpt>
      <trkpt lat="50.3515" lon="4.85574">
        <ele>75.6</ele>
        <time>2025-04-05T12:17:25Z</time>
      </trkpt>
      <trkpt lat="50.35151" lon="4.85584">
        <ele>75.6</ele>
        <time>2025-04-05T12:17:26Z</time>
      </trkpt>
      <trkpt lat="50.35153" lon="4.85593">
        <ele>75.4</ele>
        <time>2025-04-05T12:17:27Z</time>
      </trkpt>
      <trkpt lat="50.35154" lon="4.85602">
        <ele>75.6</ele>
        <time>2025-04-05T12:17:28Z</time>
      </trkpt>
      <trkpt lat="50.35155" lon="4.85612">
        <ele>75.6</ele>
        <time>2025-04-05T12:17:29Z</time>
      </trkpt>
      <trkpt lat="50.35157" lon="4.85621">
        <ele>75.6</ele>
        <time>2025-04-05T12:17:30Z</time>
      </trkpt>
      <trkpt lat="50.35158" lon="4.85631">
        <ele>75.6</ele>
        <time>2025-04-05T12:17:31Z</time>
      </trkpt>
      <trkpt lat="50.35159" lon="4.85641">
        <ele>75.6</ele>
        <time>2025-04-05T12:17:32Z</time>
      </trkpt>
      <trkpt lat="50.35161" lon="4.8565">
        <ele>75.6</ele>
        <time>2025-04-05T12:17:33Z</time>
      </trkpt>
      <trkpt lat="50.35162" lon="4.8566">
        <ele>75.6</ele>
        <time>2025-04-05T12:17:34Z</time>
      </trkpt>
      <trkpt lat="50.35163" lon="4.85669">
        <ele>75.6</ele>
        <time>2025-04-05T12:17:35Z</time>
      </trkpt>
      <trkpt lat="50.35164" lon="4.85678">
        <ele>75.8</ele>
        <time>2025-04-05T12:17:36Z</time>
      </trkpt>
      <trkpt lat="50.35166" lon="4.85687">
        <ele>75.8</ele>
        <time>2025-04-05T12:17:37Z</time>
      </trkpt>
      <trkpt lat="50.35167" lon="4.85695">
        <ele>75.8</ele>
        <time>2025-04-05T12:17:38Z</time>
      </trkpt>
      <trkpt lat="50.35168" lon="4.85704">
        <ele>75.6</ele>
        <time>2025-04-05T12:17:39Z</time>
      </trkpt>
      <trkpt lat="50.35169" lon="4.85714">
        <ele>75.6</ele>
        <time>2025-04-05T12:17:40Z</time>
      </trkpt>
      <trkpt lat="50.3517" lon="4.85723">
        <ele>75.8</ele>
        <time>2025-04-05T12:17:41Z</time>
      </trkpt>
      <trkpt lat="50.35172" lon="4.85733">
        <ele>75.8</ele>
        <time>2025-04-05T12:17:42Z</time>
      </trkpt>
      <trkpt lat="50.35173" lon="4.85742">
        <ele>75.8</ele>
        <time>2025-04-05T12:17:43Z</time>
      </trkpt>
      <trkpt lat="50.35174" lon="4.85752">
        <ele>76</ele>
        <time>2025-04-05T12:17:44Z</time>
      </trkpt>
      <trkpt lat="50.35176" lon="4.85761">
        <ele>76</ele>
        <time>2025-04-05T12:17:45Z</time>
      </trkpt>
      <trkpt lat="50.35177" lon="4.85771">
        <ele>76</ele>
        <time>2025-04-05T12:17:46Z</time>
      </trkpt>
      <trkpt lat="50.35178" lon="4.85781">
        <ele>76.2</ele>
        <time>2025-04-05T12:17:47Z</time>
      </trkpt>
      <trkpt lat="50.35179" lon="4.85791">
        <ele>76.2</ele>
        <time>2025-04-05T12:17:48Z</time>
      </trkpt>
      <trkpt lat="50.35181" lon="4.85801">
        <ele>76.2</ele>
        <time>2025-04-05T12:17:49Z</time>
      </trkpt>
      <trkpt lat="50.35182" lon="4.85811">
        <ele>76.2</ele>
        <time>2025-04-05T12:17:50Z</time>
      </trkpt>
      <trkpt lat="50.35182" lon="4.85822">
        <ele>76.4</ele>
        <time>2025-04-05T12:17:51Z</time>
      </trkpt>
      <trkpt lat="50.35183" lon="4.85832">
        <ele>76.4</ele>
        <time>2025-04-05T12:17:52Z</time>
      </trkpt>
      <trkpt lat="50.35183" lon="4.85843">
        <ele>76.4</ele>
        <time>2025-04-05T12:17:53Z</time>
      </trkpt>
      <trkpt lat="50.35184" lon="4.85853">
        <ele>76.4</ele>
        <time>2025-04-05T12:17:54Z</time>
      </trkpt>
      <trkpt lat="50.35184" lon="4.85863">
        <ele>76.4</ele>
        <time>2025-04-05T12:17:55Z</time>
      </trkpt>
      <trkpt lat="50.35185" lon="4.85873">
        <ele>76.4</ele>
        <time>2025-04-05T12:17:56Z</time>
      </trkpt>
      <trkpt lat="50.35185" lon="4.85883">
        <ele>76.4</ele>
        <time>2025-04-05T12:17:57Z</time>
      </trkpt>
      <trkpt lat="50.35185" lon="4.85893">
        <ele>76.4</ele>
        <time>2025-04-05T12:17:58Z</time>
      </trkpt>
      <trkpt lat="50.35186" lon="4.85902">
        <ele>76.6</ele>
        <time>2025-04-05T12:17:59Z</time>
      </trkpt>
      <trkpt lat="50.35186" lon="4.85911">
        <ele>76.6</ele>
        <time>2025-04-05T12:18:00Z</time>
      </trkpt>
      <trkpt lat="50.35187" lon="4.8592">
        <ele>76.8</ele>
        <time>2025-04-05T12:18:01Z</time>
      </trkpt>
      <trkpt lat="50.35187" lon="4.85929">
        <ele>76.8</ele>
        <time>2025-04-05T12:18:02Z</time>
      </trkpt>
      <trkpt lat="50.35188" lon="4.85938">
        <ele>76.6</ele>
        <time>2025-04-05T12:18:03Z</time>
      </trkpt>
      <trkpt lat="50.35188" lon="4.85948">
        <ele>76.6</ele>
        <time>2025-04-05T12:18:04Z</time>
      </trkpt>
      <trkpt lat="50.35188" lon="4.85959">
        <ele>76.6</ele>
        <time>2025-04-05T12:18:05Z</time>
      </trkpt>
      <trkpt lat="50.35189" lon="4.85969">
        <ele>76.6</ele>
        <time>2025-04-05T12:18:06Z</time>
      </trkpt>
      <trkpt lat="50.35189" lon="4.85979">
        <ele>76.6</ele>
        <time>2025-04-05T12:18:07Z</time>
      </trkpt>
      <trkpt lat="50.3519" lon="4.85988">
        <ele>76.6</ele>
        <time>2025-04-05T12:18:08Z</time>
      </trkpt>
      <trkpt lat="50.3519" lon="4.85998">
        <ele>76.4</ele>
        <time>2025-04-05T12:18:09Z</time>
      </trkpt>
      <trkpt lat="50.35191" lon="4.86008">
        <ele>76.4</ele>
        <time>2025-04-05T12:18:10Z</time>
      </trkpt>
      <trkpt lat="50.35191" lon="4.86019">
        <ele>76.2</ele>
        <time>2025-04-05T12:18:11Z</time>
      </trkpt>
      <trkpt lat="50.35191" lon="4.86029">
        <ele>76.2</ele>
        <time>2025-04-05T12:18:12Z</time>
      </trkpt>
      <trkpt lat="50.35191" lon="4.86039">
        <ele>76.2</ele>
        <time>2025-04-05T12:18:13Z</time>
      </trkpt>
      <trkpt lat="50.3519" lon="4.86048">
        <ele>76.2</ele>
        <time>2025-04-05T12:18:14Z</time>
      </trkpt>
      <trkpt lat="50.3519" lon="4.86058">
        <ele>76.4</ele>
        <time>2025-04-05T12:18:15Z</time>
      </trkpt>
      <trkpt lat="50.3519" lon="4.86068">
        <ele>76.4</ele>
        <time>2025-04-05T12:18:16Z</time>
      </trkpt>
      <trkpt lat="50.35189" lon="4.86077">
        <ele>76.2</ele>
        <time>2025-04-05T12:18:17Z</time>
      </trkpt>
      <trkpt lat="50.35189" lon="4.86087">
        <ele>76.2</ele>
        <time>2025-04-05T12:18:18Z</time>
      </trkpt>
      <trkpt lat="50.35188" lon="4.86097">
        <ele>76</ele>
        <time>2025-04-05T12:18:19Z</time>
      </trkpt>
      <trkpt lat="50.35187" lon="4.86107">
        <ele>76</ele>
        <time>2025-04-05T12:18:20Z</time>
      </trkpt>
      <trkpt lat="50.35186" lon="4.86116">
        <ele>76.2</ele>
        <time>2025-04-05T12:18:21Z</time>
      </trkpt>
      <trkpt lat="50.35186" lon="4.86126">
        <ele>76.2</ele>
        <time>2025-04-05T12:18:22Z</time>
      </trkpt>
      <trkpt lat="50.35185" lon="4.86136">
        <ele>76.4</ele>
        <time>2025-04-05T12:18:23Z</time>
      </trkpt>
      <trkpt lat="50.35185" lon="4.86146">
        <ele>76.4</ele>
        <time>2025-04-05T12:18:24Z</time>
      </trkpt>
      <trkpt lat="50.35184" lon="4.86156">
        <ele>76.4</ele>
        <time>2025-04-05T12:18:25Z</time>
      </trkpt>
      <trkpt lat="50.35183" lon="4.86167">
        <ele>76.4</ele>
        <time>2025-04-05T12:18:26Z</time>
      </trkpt>
      <trkpt lat="50.35182" lon="4.86177">
        <ele>76.6</ele>
        <time>2025-04-05T12:18:27Z</time>
      </trkpt>
      <trkpt lat="50.35182" lon="4.86187">
        <ele>76.6</ele>
        <time>2025-04-05T12:18:28Z</time>
      </trkpt>
      <trkpt lat="50.35181" lon="4.86197">
        <ele>76.6</ele>
        <time>2025-04-05T12:18:29Z</time>
      </trkpt>
      <trkpt lat="50.35181" lon="4.86207">
        <ele>76.6</ele>
        <time>2025-04-05T12:18:30Z</time>
      </trkpt>
      <trkpt lat="50.35181" lon="4.86217">
        <ele>76.8</ele>
        <time>2025-04-05T12:18:31Z</time>
      </trkpt>
      <trkpt lat="50.3518" lon="4.86226">
        <ele>77</ele>
        <time>2025-04-05T12:18:32Z</time>
      </trkpt>
      <trkpt lat="50.3518" lon="4.86235">
        <ele>76.8</ele>
        <time>2025-04-05T12:18:33Z</time>
      </trkpt>
      <trkpt lat="50.3518" lon="4.86244">
        <ele>76.8</ele>
        <time>2025-04-05T12:18:34Z</time>
      </trkpt>
      <trkpt lat="50.3518" lon="4.86255">
        <ele>76.8</ele>
        <time>2025-04-05T12:18:35Z</time>
      </trkpt>
      <trkpt lat="50.3518" lon="4.86265">
        <ele>77</ele>
        <time>2025-04-05T12:18:36Z</time>
      </trkpt>
      <trkpt lat="50.3518" lon="4.86275">
        <ele>77</ele>
        <time>2025-04-05T12:18:37Z</time>
      </trkpt>
      <trkpt lat="50.3518" lon="4.86285">
        <ele>77.2</ele>
        <time>2025-04-05T12:18:38Z</time>
      </trkpt>
      <trkpt lat="50.3518" lon="4.86295">
        <ele>77.4</ele>
        <time>2025-04-05T12:18:39Z</time>
      </trkpt>
      <trkpt lat="50.35181" lon="4.86304">
        <ele>77.6</ele>
        <time>2025-04-05T12:18:40Z</time>
      </trkpt>
      <trkpt lat="50.35181" lon="4.86313">
        <ele>77.6</ele>
        <time>2025-04-05T12:18:41Z</time>
      </trkpt>
      <trkpt lat="50.35181" lon="4.86322">
        <ele>77.6</ele>
        <time>2025-04-05T12:18:42Z</time>
      </trkpt>
      <trkpt lat="50.35181" lon="4.86331">
        <ele>77.6</ele>
        <time>2025-04-05T12:18:43Z</time>
      </trkpt>
      <trkpt lat="50.35181" lon="4.8634">
        <ele>77.6</ele>
        <time>2025-04-05T12:18:44Z</time>
      </trkpt>
      <trkpt lat="50.35181" lon="4.86349">
        <ele>77.6</ele>
        <time>2025-04-05T12:18:45Z</time>
      </trkpt>
      <trkpt lat="50.35181" lon="4.86357">
        <ele>77.4</ele>
        <time>2025-04-05T12:18:46Z</time>
      </trkpt>
      <trkpt lat="50.35181" lon="4.86365">
        <ele>77.2</ele>
        <time>2025-04-05T12:18:47Z</time>
      </trkpt>
      <trkpt lat="50.35181" lon="4.86374">
        <ele>77</ele>
        <time>2025-04-05T12:18:48Z</time>
      </trkpt>
      <trkpt lat="50.35181" lon="4.86383">
        <ele>77.2</ele>
        <time>2025-04-05T12:18:49Z</time>
      </trkpt>
      <trkpt lat="50.35182" lon="4.86391">
        <ele>77.2</ele>
        <time>2025-04-05T12:18:50Z</time>
      </trkpt>
      <trkpt lat="50.35183" lon="4.86399">
        <ele>77.2</ele>
        <time>2025-04-05T12:18:51Z</time>
      </trkpt>
      <trkpt lat="50.35183" lon="4.86408">
        <ele>77.2</ele>
        <time>2025-04-05T12:18:52Z</time>
      </trkpt>
      <trkpt lat="50.35184" lon="4.86416">
        <ele>77.2</ele>
        <time>2025-04-05T12:18:53Z</time>
      </trkpt>
      <trkpt lat="50.35184" lon="4.86425">
        <ele>77.2</ele>
        <time>2025-04-05T12:18:54Z</time>
      </trkpt>
      <trkpt lat="50.35185" lon="4.86434">
        <ele>77.2</ele>
        <time>2025-04-05T12:18:55Z</time>
      </trkpt>
      <trkpt lat="50.35185" lon="4.86444">
        <ele>77.2</ele>
        <time>2025-04-05T12:18:56Z</time>
      </trkpt>
      <trkpt lat="50.35185" lon="4.86454">
        <ele>77.2</ele>
        <time>2025-04-05T12:18:57Z</time>
      </trkpt>
      <trkpt lat="50.35186" lon="4.86464">
        <ele>77.2</ele>
        <time>2025-04-05T12:18:58Z</time>
      </trkpt>
      <trkpt lat="50.35186" lon="4.86474">
        <ele>77.6</ele>
        <time>2025-04-05T12:18:59Z</time>
      </trkpt>
      <trkpt lat="50.35186" lon="4.86483">
        <ele>78</ele>
        <time>2025-04-05T12:19:00Z</time>
      </trkpt>
      <trkpt lat="50.35187" lon="4.86493">
        <ele>78</ele>
        <time>2025-04-05T12:19:01Z</time>
      </trkpt>
      <trkpt lat="50.35188" lon="4.86503">
        <ele>78</ele>
        <time>2025-04-05T12:19:02Z</time>
      </trkpt>
      <trkpt lat="50.35188" lon="4.86513">
        <ele>77.8</ele>
        <time>2025-04-05T12:19:03Z</time>
      </trkpt>
      <trkpt lat="50.35189" lon="4.86522">
        <ele>77.6</ele>
        <time>2025-04-05T12:19:04Z</time>
      </trkpt>
      <trkpt lat="50.35189" lon="4.86531">
        <ele>77.4</ele>
        <time>2025-04-05T12:19:05Z</time>
      </trkpt>
      <trkpt lat="50.35189" lon="4.8654">
        <ele>77.2</ele>
        <time>2025-04-05T12:19:06Z</time>
      </trkpt>
      <trkpt lat="50.3519" lon="4.86549">
        <ele>77</ele>
        <time>2025-04-05T12:19:07Z</time>
      </trkpt>
      <trkpt lat="50.35191" lon="4.86559">
        <ele>76.8</ele>
        <time>2025-04-05T12:19:08Z</time>
      </trkpt>
      <trkpt lat="50.35191" lon="4.86569">
        <ele>76.6</ele>
        <time>2025-04-05T12:19:09Z</time>
      </trkpt>
      <trkpt lat="50.35192" lon="4.86578">
        <ele>76.4</ele>
        <time>2025-04-05T12:19:10Z</time>
      </trkpt>
      <trkpt lat="50.35193" lon="4.86588">
        <ele>76.2</ele>
        <time>2025-04-05T12:19:11Z</time>
      </trkpt>
      <trkpt lat="50.35193" lon="4.86599">
        <ele>76.2</ele>
        <time>2025-04-05T12:19:12Z</time>
      </trkpt>
      <trkpt lat="50.35194" lon="4.8661">
        <ele>76.2</ele>
        <time>2025-04-05T12:19:13Z</time>
      </trkpt>
      <trkpt lat="50.35195" lon="4.86621">
        <ele>76.2</ele>
        <time>2025-04-05T12:19:14Z</time>
      </trkpt>
      <trkpt lat="50.35196" lon="4.86632">
        <ele>76.2</ele>
        <time>2025-04-05T12:19:15Z</time>
      </trkpt>
      <trkpt lat="50.35197" lon="4.86643">
        <ele>76.2</ele>
        <time>2025-04-05T12:19:16Z</time>
      </trkpt>
      <trkpt lat="50.35199" lon="4.86655">
        <ele>76</ele>
        <time>2025-04-05T12:19:17Z</time>
      </trkpt>
      <trkpt lat="50.352" lon="4.86666">
        <ele>75.8</ele>
        <time>2025-04-05T12:19:18Z</time>
      </trkpt>
      <trkpt lat="50.35202" lon="4.86677">
        <ele>75.6</ele>
        <time>2025-04-05T12:19:19Z</time>
      </trkpt>
      <trkpt lat="50.35204" lon="4.86687">
        <ele>75.6</ele>
        <time>2025-04-05T12:19:20Z</time>
      </trkpt>
      <trkpt lat="50.35206" lon="4.86697">
        <ele>75.6</ele>
        <time>2025-04-05T12:19:21Z</time>
      </trkpt>
      <trkpt lat="50.35207" lon="4.86707">
        <ele>75.4</ele>
        <time>2025-04-05T12:19:22Z</time>
      </trkpt>
      <trkpt lat="50.35209" lon="4.86718">
        <ele>75.4</ele>
        <time>2025-04-05T12:19:23Z</time>
      </trkpt>
      <trkpt lat="50.35212" lon="4.86729">
        <ele>75.2</ele>
        <time>2025-04-05T12:19:24Z</time>
      </trkpt>
      <trkpt lat="50.35214" lon="4.8674">
        <ele>75</ele>
        <time>2025-04-05T12:19:25Z</time>
      </trkpt>
      <trkpt lat="50.35216" lon="4.86749">
        <ele>74.8</ele>
        <time>2025-04-05T12:19:26Z</time>
      </trkpt>
      <trkpt lat="50.35218" lon="4.86759">
        <ele>74.8</ele>
        <time>2025-04-05T12:19:27Z</time>
      </trkpt>
      <trkpt lat="50.35221" lon="4.8677">
        <ele>74.8</ele>
        <time>2025-04-05T12:19:28Z</time>
      </trkpt>
      <trkpt lat="50.35223" lon="4.8678">
        <ele>74.6</ele>
        <time>2025-04-05T12:19:29Z</time>
      </trkpt>
      <trkpt lat="50.35226" lon="4.86791">
        <ele>74.6</ele>
        <time>2025-04-05T12:19:30Z</time>
      </trkpt>
      <trkpt lat="50.35228" lon="4.86801">
        <ele>74.6</ele>
        <time>2025-04-05T12:19:31Z</time>
      </trkpt>
      <trkpt lat="50.3523" lon="4.86811">
        <ele>74.4</ele>
        <time>2025-04-05T12:19:32Z</time>
      </trkpt>
      <trkpt lat="50.35233" lon="4.86822">
        <ele>74.4</ele>
        <time>2025-04-05T12:19:33Z</time>
      </trkpt>
      <trkpt lat="50.35235" lon="4.86832">
        <ele>74.2</ele>
        <time>2025-04-05T12:19:34Z</time>
      </trkpt>
      <trkpt lat="50.35238" lon="4.86843">
        <ele>74</ele>
        <time>2025-04-05T12:19:35Z</time>
      </trkpt>
      <trkpt lat="50.3524" lon="4.86855">
        <ele>74</ele>
        <time>2025-04-05T12:19:36Z</time>
      </trkpt>
      <trkpt lat="50.35243" lon="4.86866">
        <ele>73.8</ele>
        <time>2025-04-05T12:19:37Z</time>
      </trkpt>
      <trkpt lat="50.35246" lon="4.86877">
        <ele>73.8</ele>
        <time>2025-04-05T12:19:38Z</time>
      </trkpt>
      <trkpt lat="50.35247" lon="4.86887">
        <ele>73.6</ele>
        <time>2025-04-05T12:19:39Z</time>
      </trkpt>
      <trkpt lat="50.35249" lon="4.86897">
        <ele>73.6</ele>
        <time>2025-04-05T12:19:40Z</time>
      </trkpt>
      <trkpt lat="50.35252" lon="4.86907">
        <ele>73.6</ele>
        <time>2025-04-05T12:19:41Z</time>
      </trkpt>
      <trkpt lat="50.35254" lon="4.86918">
        <ele>73.4</ele>
        <time>2025-04-05T12:19:42Z</time>
      </trkpt>
      <trkpt lat="50.35256" lon="4.86929">
        <ele>73.4</ele>
        <time>2025-04-05T12:19:43Z</time>
      </trkpt>
      <trkpt lat="50.35258" lon="4.86939">
        <ele>73.2</ele>
        <time>2025-04-05T12:19:44Z</time>
      </trkpt>
      <trkpt lat="50.3526" lon="4.86949">
        <ele>73.2</ele>
        <time>2025-04-05T12:19:45Z</time>
      </trkpt>
      <trkpt lat="50.35262" lon="4.86959">
        <ele>73.2</ele>
        <time>2025-04-05T12:19:46Z</time>
      </trkpt>
      <trkpt lat="50.35263" lon="4.86969">
        <ele>73</ele>
        <time>2025-04-05T12:19:47Z</time>
      </trkpt>
      <trkpt lat="50.35265" lon="4.86978">
        <ele>73</ele>
        <time>2025-04-05T12:19:48Z</time>
      </trkpt>
      <trkpt lat="50.35267" lon="4.86987">
        <ele>73</ele>
        <time>2025-04-05T12:19:49Z</time>
      </trkpt>
      <trkpt lat="50.35269" lon="4.86999">
        <ele>73.2</ele>
        <time>2025-04-05T12:19:50Z</time>
      </trkpt>
      <trkpt lat="50.35271" lon="4.8701">
        <ele>73.2</ele>
        <time>2025-04-05T12:19:51Z</time>
      </trkpt>
      <trkpt lat="50.35273" lon="4.8702">
        <ele>73.2</ele>
        <time>2025-04-05T12:19:52Z</time>
      </trkpt>
      <trkpt lat="50.35275" lon="4.87031">
        <ele>73.2</ele>
        <time>2025-04-05T12:19:53Z</time>
      </trkpt>
      <trkpt lat="50.35278" lon="4.87042">
        <ele>73.2</ele>
        <time>2025-04-05T12:19:54Z</time>
      </trkpt>
      <trkpt lat="50.3528" lon="4.87053">
        <ele>73.4</ele>
        <time>2025-04-05T12:19:55Z</time>
      </trkpt>
      <trkpt lat="50.35281" lon="4.87063">
        <ele>73.4</ele>
        <time>2025-04-05T12:19:56Z</time>
      </trkpt>
      <trkpt lat="50.35284" lon="4.87073">
        <ele>73.4</ele>
        <time>2025-04-05T12:19:57Z</time>
      </trkpt>
      <trkpt lat="50.35286" lon="4.87083">
        <ele>73.4</ele>
        <time>2025-04-05T12:19:58Z</time>
      </trkpt>
      <trkpt lat="50.35288" lon="4.87094">
        <ele>73.4</ele>
        <time>2025-04-05T12:19:59Z</time>
      </trkpt>
      <trkpt lat="50.35289" lon="4.87104">
        <ele>73.4</ele>
        <time>2025-04-05T12:20:00Z</time>
      </trkpt>
      <trkpt lat="50.35291" lon="4.87114">
        <ele>73.6</ele>
        <time>2025-04-05T12:20:01Z</time>
      </trkpt>
      <trkpt lat="50.35294" lon="4.87124">
        <ele>73.6</ele>
        <time>2025-04-05T12:20:02Z</time>
      </trkpt>
      <trkpt lat="50.35296" lon="4.87133">
        <ele>73.8</ele>
        <time>2025-04-05T12:20:03Z</time>
      </trkpt>
      <trkpt lat="50.35298" lon="4.87143">
        <ele>73.8</ele>
        <time>2025-04-05T12:20:04Z</time>
      </trkpt>
      <trkpt lat="50.353" lon="4.87152">
        <ele>73.8</ele>
        <time>2025-04-05T12:20:05Z</time>
      </trkpt>
      <trkpt lat="50.35302" lon="4.87161">
        <ele>73.8</ele>
        <time>2025-04-05T12:20:06Z</time>
      </trkpt>
      <trkpt lat="50.35304" lon="4.87171">
        <ele>73.8</ele>
        <time>2025-04-05T12:20:07Z</time>
      </trkpt>
      <trkpt lat="50.35305" lon="4.8718">
        <ele>73.8</ele>
        <time>2025-04-05T12:20:08Z</time>
      </trkpt>
      <trkpt lat="50.35307" lon="4.87189">
        <ele>73.8</ele>
        <time>2025-04-05T12:20:09Z</time>
      </trkpt>
      <trkpt lat="50.35309" lon="4.87198">
        <ele>73.6</ele>
        <time>2025-04-05T12:20:10Z</time>
      </trkpt>
      <trkpt lat="50.35311" lon="4.87206">
        <ele>73.8</ele>
        <time>2025-04-05T12:20:11Z</time>
      </trkpt>
      <trkpt lat="50.35312" lon="4.87215">
        <ele>73.8</ele>
        <time>2025-04-05T12:20:12Z</time>
      </trkpt>
      <trkpt lat="50.35314" lon="4.87224">
        <ele>73.8</ele>
        <time>2025-04-05T12:20:13Z</time>
      </trkpt>
      <trkpt lat="50.35316" lon="4.87233">
        <ele>73.6</ele>
        <time>2025-04-05T12:20:14Z</time>
      </trkpt>
      <trkpt lat="50.35318" lon="4.87242">
        <ele>73.6</ele>
        <time>2025-04-05T12:20:15Z</time>
      </trkpt>
      <trkpt lat="50.3532" lon="4.87252">
        <ele>73.6</ele>
        <time>2025-04-05T12:20:16Z</time>
      </trkpt>
      <trkpt lat="50.35321" lon="4.87262">
        <ele>73.6</ele>
        <time>2025-04-05T12:20:17Z</time>
      </trkpt>
      <trkpt lat="50.35323" lon="4.87271">
        <ele>73.8</ele>
        <time>2025-04-05T12:20:18Z</time>
      </trkpt>
      <trkpt lat="50.35326" lon="4.87282">
        <ele>73.8</ele>
        <time>2025-04-05T12:20:19Z</time>
      </trkpt>
      <trkpt lat="50.35328" lon="4.87292">
        <ele>73.8</ele>
        <time>2025-04-05T12:20:20Z</time>
      </trkpt>
      <trkpt lat="50.3533" lon="4.87302">
        <ele>73.8</ele>
        <time>2025-04-05T12:20:21Z</time>
      </trkpt>
      <trkpt lat="50.35331" lon="4.87312">
        <ele>73.8</ele>
        <time>2025-04-05T12:20:22Z</time>
      </trkpt>
      <trkpt lat="50.35333" lon="4.87322">
        <ele>73.6</ele>
        <time>2025-04-05T12:20:23Z</time>
      </trkpt>
      <trkpt lat="50.35336" lon="4.87331">
        <ele>73.8</ele>
        <time>2025-04-05T12:20:24Z</time>
      </trkpt>
      <trkpt lat="50.35337" lon="4.87341">
        <ele>73.8</ele>
        <time>2025-04-05T12:20:25Z</time>
      </trkpt>
      <trkpt lat="50.3534" lon="4.8735">
        <ele>73.8</ele>
        <time>2025-04-05T12:20:26Z</time>
      </trkpt>
      <trkpt lat="50.35342" lon="4.87359">
        <ele>73.8</ele>
        <time>2025-04-05T12:20:27Z</time>
      </trkpt>
      <trkpt lat="50.35344" lon="4.87367">
        <ele>74</ele>
        <time>2025-04-05T12:20:28Z</time>
      </trkpt>
      <trkpt lat="50.35346" lon="4.87376">
        <ele>73.8</ele>
        <time>2025-04-05T12:20:29Z</time>
      </trkpt>
      <trkpt lat="50.35347" lon="4.87385">
        <ele>73.8</ele>
        <time>2025-04-05T12:20:30Z</time>
      </trkpt>
      <trkpt lat="50.35349" lon="4.87394">
        <ele>73.8</ele>
        <time>2025-04-05T12:20:31Z</time>
      </trkpt>
      <trkpt lat="50.35351" lon="4.87403">
        <ele>73.8</ele>
        <time>2025-04-05T12:20:32Z</time>
      </trkpt>
      <trkpt lat="50.35353" lon="4.87411">
        <ele>73.6</ele>
        <time>2025-04-05T12:20:33Z</time>
      </trkpt>
      <trkpt lat="50.35355" lon="4.87421">
        <ele>73.4</ele>
        <time>2025-04-05T12:20:34Z</time>
      </trkpt>
      <trkpt lat="50.35357" lon="4.87431">
        <ele>73.4</ele>
        <time>2025-04-05T12:20:35Z</time>
      </trkpt>
      <trkpt lat="50.35359" lon="4.8744">
        <ele>73.6</ele>
        <time>2025-04-05T12:20:36Z</time>
      </trkpt>
      <trkpt lat="50.35361" lon="4.8745">
        <ele>73.2</ele>
        <time>2025-04-05T12:20:37Z</time>
      </trkpt>
      <trkpt lat="50.35363" lon="4.87459">
        <ele>73</ele>
        <time>2025-04-05T12:20:38Z</time>
      </trkpt>
      <trkpt lat="50.35365" lon="4.87468">
        <ele>73.2</ele>
        <time>2025-04-05T12:20:39Z</time>
      </trkpt>
      <trkpt lat="50.35367" lon="4.87477">
        <ele>73.2</ele>
        <time>2025-04-05T12:20:40Z</time>
      </trkpt>
      <trkpt lat="50.35369" lon="4.87486">
        <ele>73.2</ele>
        <time>2025-04-05T12:20:41Z</time>
      </trkpt>
      <trkpt lat="50.35371" lon="4.87494">
        <ele>73</ele>
        <time>2025-04-05T12:20:42Z</time>
      </trkpt>
      <trkpt lat="50.35373" lon="4.87503">
        <ele>73</ele>
        <time>2025-04-05T12:20:43Z</time>
      </trkpt>
      <trkpt lat="50.35375" lon="4.87511">
        <ele>73.2</ele>
        <time>2025-04-05T12:20:44Z</time>
      </trkpt>
      <trkpt lat="50.35378" lon="4.8752">
        <ele>73.4</ele>
        <time>2025-04-05T12:20:45Z</time>
      </trkpt>
      <trkpt lat="50.3538" lon="4.87529">
        <ele>73.2</ele>
        <time>2025-04-05T12:20:46Z</time>
      </trkpt>
      <trkpt lat="50.35383" lon="4.87537">
        <ele>73.4</ele>
        <time>2025-04-05T12:20:47Z</time>
      </trkpt>
      <trkpt lat="50.35386" lon="4.87544">
        <ele>73.6</ele>
        <time>2025-04-05T12:20:48Z</time>
      </trkpt>
      <trkpt lat="50.35389" lon="4.87552">
        <ele>73.6</ele>
        <time>2025-04-05T12:20:49Z</time>
      </trkpt>
      <trkpt lat="50.35393" lon="4.87559">
        <ele>73.8</ele>
        <time>2025-04-05T12:20:50Z</time>
      </trkpt>
      <trkpt lat="50.35397" lon="4.87566">
        <ele>73.8</ele>
        <time>2025-04-05T12:20:51Z</time>
      </trkpt>
      <trkpt lat="50.35401" lon="4.87574">
        <ele>73.8</ele>
        <time>2025-04-05T12:20:52Z</time>
      </trkpt>
      <trkpt lat="50.35405" lon="4.87581">
        <ele>74</ele>
        <time>2025-04-05T12:20:53Z</time>
      </trkpt>
      <trkpt lat="50.3541" lon="4.87588">
        <ele>74</ele>
        <time>2025-04-05T12:20:54Z</time>
      </trkpt>
      <trkpt lat="50.35415" lon="4.87595">
        <ele>74</ele>
        <time>2025-04-05T12:20:55Z</time>
      </trkpt>
      <trkpt lat="50.35419" lon="4.87601">
        <ele>74.2</ele>
        <time>2025-04-05T12:20:56Z</time>
      </trkpt>
      <trkpt lat="50.35424" lon="4.87606">
        <ele>74.2</ele>
        <time>2025-04-05T12:20:57Z</time>
      </trkpt>
      <trkpt lat="50.35428" lon="4.8761">
        <ele>74.2</ele>
        <time>2025-04-05T12:20:58Z</time>
      </trkpt>
      <trkpt lat="50.35434" lon="4.87616">
        <ele>74.2</ele>
        <time>2025-04-05T12:20:59Z</time>
      </trkpt>
      <trkpt lat="50.35441" lon="4.87621">
        <ele>74.2</ele>
        <time>2025-04-05T12:21:00Z</time>
      </trkpt>
      <trkpt lat="50.35447" lon="4.87625">
        <ele>74.2</ele>
        <time>2025-04-05T12:21:01Z</time>
      </trkpt>
      <trkpt lat="50.35452" lon="4.87629">
        <ele>74.4</ele>
        <time>2025-04-05T12:21:02Z</time>
      </trkpt>
      <trkpt lat="50.35457" lon="4.87632">
        <ele>74.4</ele>
        <time>2025-04-05T12:21:03Z</time>
      </trkpt>
      <trkpt lat="50.35463" lon="4.87634">
        <ele>74.4</ele>
        <time>2025-04-05T12:21:04Z</time>
      </trkpt>
      <trkpt lat="50.35469" lon="4.87636">
        <ele>74.6</ele>
        <time>2025-04-05T12:21:05Z</time>
      </trkpt>
      <trkpt lat="50.35475" lon="4.87638">
        <ele>74.6</ele>
        <time>2025-04-05T12:21:06Z</time>
      </trkpt>
      <trkpt lat="50.35481" lon="4.8764">
        <ele>74.6</ele>
        <time>2025-04-05T12:21:07Z</time>
      </trkpt>
      <trkpt lat="50.35487" lon="4.87641">
        <ele>74.4</ele>
        <time>2025-04-05T12:21:08Z</time>
      </trkpt>
      <trkpt lat="50.35493" lon="4.87642">
        <ele>74.4</ele>
        <time>2025-04-05T12:21:09Z</time>
      </trkpt>
      <trkpt lat="50.35499" lon="4.87642">
        <ele>74.4</ele>
        <time>2025-04-05T12:21:10Z</time>
      </trkpt>
      <trkpt lat="50.35505" lon="4.87642">
        <ele>74.6</ele>
        <time>2025-04-05T12:21:11Z</time>
      </trkpt>
      <trkpt lat="50.35511" lon="4.87641">
        <ele>74.6</ele>
        <time>2025-04-05T12:21:12Z</time>
      </trkpt>
      <trkpt lat="50.35517" lon="4.8764">
        <ele>74.6</ele>
        <time>2025-04-05T12:21:13Z</time>
      </trkpt>
      <trkpt lat="50.35524" lon="4.87639">
        <ele>74.6</ele>
        <time>2025-04-05T12:21:14Z</time>
      </trkpt>
      <trkpt lat="50.3553" lon="4.87638">
        <ele>74.4</ele>
        <time>2025-04-05T12:21:15Z</time>
      </trkpt>
      <trkpt lat="50.35537" lon="4.87636">
        <ele>74.2</ele>
        <time>2025-04-05T12:21:16Z</time>
      </trkpt>
      <trkpt lat="50.35544" lon="4.87634">
        <ele>74</ele>
        <time>2025-04-05T12:21:17Z</time>
      </trkpt>
      <trkpt lat="50.3555" lon="4.87631">
        <ele>74.2</ele>
        <time>2025-04-05T12:21:18Z</time>
      </trkpt>
      <trkpt lat="50.35555" lon="4.87629">
        <ele>74.2</ele>
        <time>2025-04-05T12:21:19Z</time>
      </trkpt>
      <trkpt lat="50.35561" lon="4.87625">
        <ele>74.2</ele>
        <time>2025-04-05T12:21:20Z</time>
      </trkpt>
      <trkpt lat="50.35567" lon="4.87621">
        <ele>74</ele>
        <time>2025-04-05T12:21:21Z</time>
      </trkpt>
      <trkpt lat="50.35574" lon="4.87616">
        <ele>74.2</ele>
        <time>2025-04-05T12:21:22Z</time>
      </trkpt>
      <trkpt lat="50.35578" lon="4.87612">
        <ele>74.4</ele>
        <time>2025-04-05T12:21:23Z</time>
      </trkpt>
      <trkpt lat="50.35583" lon="4.87607">
        <ele>74.4</ele>
        <time>2025-04-05T12:21:24Z</time>
      </trkpt>
      <trkpt lat="50.35588" lon="4.87602">
        <ele>74.2</ele>
        <time>2025-04-05T12:21:25Z</time>
      </trkpt>
      <trkpt lat="50.35593" lon="4.87596">
        <ele>74.2</ele>
        <time>2025-04-05T12:21:26Z</time>
      </trkpt>
      <trkpt lat="50.35598" lon="4.87591">
        <ele>74</ele>
        <time>2025-04-05T12:21:27Z</time>
      </trkpt>
      <trkpt lat="50.35602" lon="4.87585">
        <ele>74</ele>
        <time>2025-04-05T12:21:28Z</time>
      </trkpt>
      <trkpt lat="50.35607" lon="4.87578">
        <ele>73.8</ele>
        <time>2025-04-05T12:21:29Z</time>
      </trkpt>
      <trkpt lat="50.35611" lon="4.87571">
        <ele>73.8</ele>
        <time>2025-04-05T12:21:30Z</time>
      </trkpt>
      <trkpt lat="50.35615" lon="4.87564">
        <ele>73.8</ele>
        <time>2025-04-05T12:21:31Z</time>
      </trkpt>
      <trkpt lat="50.35619" lon="4.87557">
        <ele>73.8</ele>
        <time>2025-04-05T12:21:32Z</time>
      </trkpt>
      <trkpt lat="50.35622" lon="4.87549">
        <ele>73.8</ele>
        <time>2025-04-05T12:21:33Z</time>
      </trkpt>
      <trkpt lat="50.35626" lon="4.87541">
        <ele>73.6</ele>
        <time>2025-04-05T12:21:34Z</time>
      </trkpt>
      <trkpt lat="50.35629" lon="4.87533">
        <ele>73.6</ele>
        <time>2025-04-05T12:21:35Z</time>
      </trkpt>
      <trkpt lat="50.35632" lon="4.87525">
        <ele>73.8</ele>
        <time>2025-04-05T12:21:36Z</time>
      </trkpt>
      <trkpt lat="50.35635" lon="4.87516">
        <ele>73.8</ele>
        <time>2025-04-05T12:21:37Z</time>
      </trkpt>
      <trkpt lat="50.35638" lon="4.87508">
        <ele>73.8</ele>
        <time>2025-04-05T12:21:38Z</time>
      </trkpt>
      <trkpt lat="50.35642" lon="4.875">
        <ele>73.6</ele>
        <time>2025-04-05T12:21:39Z</time>
      </trkpt>
      <trkpt lat="50.35645" lon="4.87492">
        <ele>73.6</ele>
        <time>2025-04-05T12:21:40Z</time>
      </trkpt>
      <trkpt lat="50.35648" lon="4.87484">
        <ele>73.6</ele>
        <time>2025-04-05T12:21:41Z</time>
      </trkpt>
      <trkpt lat="50.35652" lon="4.87475">
        <ele>73.6</ele>
        <time>2025-04-05T12:21:42Z</time>
      </trkpt>
      <trkpt lat="50.35656" lon="4.87467">
        <ele>73.6</ele>
        <time>2025-04-05T12:21:43Z</time>
      </trkpt>
      <trkpt lat="50.35659" lon="4.87458">
        <ele>73.6</ele>
        <time>2025-04-05T12:21:44Z</time>
      </trkpt>
      <trkpt lat="50.35662" lon="4.8745">
        <ele>73.6</ele>
        <time>2025-04-05T12:21:45Z</time>
      </trkpt>
      <trkpt lat="50.35665" lon="4.87441">
        <ele>73.6</ele>
        <time>2025-04-05T12:21:46Z</time>
      </trkpt>
      <trkpt lat="50.35669" lon="4.87432">
        <ele>73.6</ele>
        <time>2025-04-05T12:21:47Z</time>
      </trkpt>
      <trkpt lat="50.35672" lon="4.87422">
        <ele>73.6</ele>
        <time>2025-04-05T12:21:48Z</time>
      </trkpt>
      <trkpt lat="50.35676" lon="4.87415">
        <ele>73.6</ele>
        <time>2025-04-05T12:21:49Z</time>
      </trkpt>
      <trkpt lat="50.35679" lon="4.87408">
        <ele>73.6</ele>
        <time>2025-04-05T12:21:50Z</time>
      </trkpt>
      <trkpt lat="50.35682" lon="4.87401">
        <ele>73.8</ele>
        <time>2025-04-05T12:21:51Z</time>
      </trkpt>
      <trkpt lat="50.35686" lon="4.87396">
        <ele>74</ele>
        <time>2025-04-05T12:21:52Z</time>
      </trkpt>
      <trkpt lat="50.3569" lon="4.87389">
        <ele>74</ele>
        <time>2025-04-05T12:21:53Z</time>
      </trkpt>
      <trkpt lat="50.35694" lon="4.87383">
        <ele>74</ele>
        <time>2025-04-05T12:21:54Z</time>
      </trkpt>
      <trkpt lat="50.35697" lon="4.87378">
        <ele>74</ele>
        <time>2025-04-05T12:21:55Z</time>
      </trkpt>
      <trkpt lat="50.35702" lon="4.87371">
        <ele>74.2</ele>
        <time>2025-04-05T12:21:56Z</time>
      </trkpt>
      <trkpt lat="50.35706" lon="4.87365">
        <ele>74.2</ele>
        <time>2025-04-05T12:21:57Z</time>
      </trkpt>
      <trkpt lat="50.35711" lon="4.87359">
        <ele>74.4</ele>
        <time>2025-04-05T12:21:58Z</time>
      </trkpt>
      <trkpt lat="50.35715" lon="4.87353">
        <ele>74.4</ele>
        <time>2025-04-05T12:21:59Z</time>
      </trkpt>
      <trkpt lat="50.3572" lon="4.87347">
        <ele>74.4</ele>
        <time>2025-04-05T12:22:00Z</time>
      </trkpt>
      <trkpt lat="50.35724" lon="4.87341">
        <ele>74.4</ele>
        <time>2025-04-05T12:22:01Z</time>
      </trkpt>
      <trkpt lat="50.35728" lon="4.87335">
        <ele>74.6</ele>
        <time>2025-04-05T12:22:02Z</time>
      </trkpt>
      <trkpt lat="50.35732" lon="4.8733">
        <ele>74.6</ele>
        <time>2025-04-05T12:22:03Z</time>
      </trkpt>
      <trkpt lat="50.35737" lon="4.87323">
        <ele>74.6</ele>
        <time>2025-04-05T12:22:04Z</time>
      </trkpt>
      <trkpt lat="50.35741" lon="4.87316">
        <ele>74.8</ele>
        <time>2025-04-05T12:22:05Z</time>
      </trkpt>
      <trkpt lat="50.35746" lon="4.8731">
        <ele>74.6</ele>
        <time>2025-04-05T12:22:06Z</time>
      </trkpt>
      <trkpt lat="50.35751" lon="4.87304">
        <ele>74.6</ele>
        <time>2025-04-05T12:22:07Z</time>
      </trkpt>
      <trkpt lat="50.35755" lon="4.87298">
        <ele>74.6</ele>
        <time>2025-04-05T12:22:08Z</time>
      </trkpt>
      <trkpt lat="50.35759" lon="4.87292">
        <ele>74.6</ele>
        <time>2025-04-05T12:22:09Z</time>
      </trkpt>
      <trkpt lat="50.35764" lon="4.87287">
        <ele>74.6</ele>
        <time>2025-04-05T12:22:10Z</time>
      </trkpt>
      <trkpt lat="50.35768" lon="4.87281">
        <ele>74.6</ele>
        <time>2025-04-05T12:22:11Z</time>
      </trkpt>
      <trkpt lat="50.35772" lon="4.87277">
        <ele>74.8</ele>
        <time>2025-04-05T12:22:12Z</time>
      </trkpt>
      <trkpt lat="50.35776" lon="4.87271">
        <ele>74.8</ele>
        <time>2025-04-05T12:22:13Z</time>
      </trkpt>
      <trkpt lat="50.35781" lon="4.87265">
        <ele>75</ele>
        <time>2025-04-05T12:22:14Z</time>
      </trkpt>
      <trkpt lat="50.35785" lon="4.8726">
        <ele>75</ele>
        <time>2025-04-05T12:22:15Z</time>
      </trkpt>
      <trkpt lat="50.35788" lon="4.87254">
        <ele>75</ele>
        <time>2025-04-05T12:22:16Z</time>
      </trkpt>
      <trkpt lat="50.35792" lon="4.87249">
        <ele>75.2</ele>
        <time>2025-04-05T12:22:17Z</time>
      </trkpt>
      <trkpt lat="50.35797" lon="4.87243">
        <ele>75.2</ele>
        <time>2025-04-05T12:22:18Z</time>
      </trkpt>
      <trkpt lat="50.35802" lon="4.87237">
        <ele>75.4</ele>
        <time>2025-04-05T12:22:19Z</time>
      </trkpt>
      <trkpt lat="50.35807" lon="4.87233">
        <ele>75.4</ele>
        <time>2025-04-05T12:22:20Z</time>
      </trkpt>
      <trkpt lat="50.35813" lon="4.87228">
        <ele>75.4</ele>
        <time>2025-04-05T12:22:21Z</time>
      </trkpt>
      <trkpt lat="50.35819" lon="4.87224">
        <ele>75.6</ele>
        <time>2025-04-05T12:22:22Z</time>
      </trkpt>
      <trkpt lat="50.35824" lon="4.87221">
        <ele>75.6</ele>
        <time>2025-04-05T12:22:23Z</time>
      </trkpt>
      <trkpt lat="50.35829" lon="4.87218">
        <ele>75.6</ele>
        <time>2025-04-05T12:22:24Z</time>
      </trkpt>
      <trkpt lat="50.35835" lon="4.87215">
        <ele>75.6</ele>
        <time>2025-04-05T12:22:25Z</time>
      </trkpt>
      <trkpt lat="50.35841" lon="4.87211">
        <ele>75.8</ele>
        <time>2025-04-05T12:22:26Z</time>
      </trkpt>
      <trkpt lat="50.35847" lon="4.87208">
        <ele>75.8</ele>
        <time>2025-04-05T12:22:27Z</time>
      </trkpt>
      <trkpt lat="50.35854" lon="4.87204">
        <ele>75.8</ele>
        <time>2025-04-05T12:22:28Z</time>
      </trkpt>
      <trkpt lat="50.35859" lon="4.87201">
        <ele>75.6</ele>
        <time>2025-04-05T12:22:29Z</time>
      </trkpt>
      <trkpt lat="50.35864" lon="4.87197">
        <ele>75.6</ele>
        <time>2025-04-05T12:22:30Z</time>
      </trkpt>
      <trkpt lat="50.35871" lon="4.87193">
        <ele>75.6</ele>
        <time>2025-04-05T12:22:31Z</time>
      </trkpt>
      <trkpt lat="50.35878" lon="4.8719">
        <ele>75.6</ele>
        <time>2025-04-05T12:22:32Z</time>
      </trkpt>
      <trkpt lat="50.35884" lon="4.87186">
        <ele>75.6</ele>
        <time>2025-04-05T12:22:33Z</time>
      </trkpt>
      <trkpt lat="50.35891" lon="4.87181">
        <ele>75.4</ele>
        <time>2025-04-05T12:22:34Z</time>
      </trkpt>
      <trkpt lat="50.35897" lon="4.87177">
        <ele>75.4</ele>
        <time>2025-04-05T12:22:35Z</time>
      </trkpt>
      <trkpt lat="50.35904" lon="4.87173">
        <ele>75.4</ele>
        <time>2025-04-05T12:22:36Z</time>
      </trkpt>
      <trkpt lat="50.3591" lon="4.87168">
        <ele>75.2</ele>
        <time>2025-04-05T12:22:37Z</time>
      </trkpt>
      <trkpt lat="50.35916" lon="4.87164">
        <ele>75.2</ele>
        <time>2025-04-05T12:22:38Z</time>
      </trkpt>
      <trkpt lat="50.35922" lon="4.8716">
        <ele>75</ele>
        <time>2025-04-05T12:22:39Z</time>
      </trkpt>
      <trkpt lat="50.35928" lon="4.87155">
        <ele>74.8</ele>
        <time>2025-04-05T12:22:40Z</time>
      </trkpt>
      <trkpt lat="50.35934" lon="4.87151">
        <ele>74.8</ele>
        <time>2025-04-05T12:22:41Z</time>
      </trkpt>
      <trkpt lat="50.3594" lon="4.87146">
        <ele>74.8</ele>
        <time>2025-04-05T12:22:42Z</time>
      </trkpt>
      <trkpt lat="50.35946" lon="4.87141">
        <ele>74.6</ele>
        <time>2025-04-05T12:22:43Z</time>
      </trkpt>
      <trkpt lat="50.35952" lon="4.87136">
        <ele>74.2</ele>
        <time>2025-04-05T12:22:44Z</time>
      </trkpt>
      <trkpt lat="50.35958" lon="4.87132">
        <ele>74</ele>
        <time>2025-04-05T12:22:45Z</time>
      </trkpt>
      <trkpt lat="50.35963" lon="4.87128">
        <ele>73.8</ele>
        <time>2025-04-05T12:22:46Z</time>
      </trkpt>
      <trkpt lat="50.3597" lon="4.87123">
        <ele>73.4</ele>
        <time>2025-04-05T12:22:47Z</time>
      </trkpt>
      <trkpt lat="50.35976" lon="4.87118">
        <ele>73.4</ele>
        <time>2025-04-05T12:22:48Z</time>
      </trkpt>
      <trkpt lat="50.35982" lon="4.87112">
        <ele>73</ele>
        <time>2025-04-05T12:22:49Z</time>
      </trkpt>
      <trkpt lat="50.35989" lon="4.87107">
        <ele>72.8</ele>
        <time>2025-04-05T12:22:50Z</time>
      </trkpt>
      <trkpt lat="50.35995" lon="4.87103">
        <ele>72.6</ele>
        <time>2025-04-05T12:22:51Z</time>
      </trkpt>
      <trkpt lat="50.36" lon="4.87098">
        <ele>72.4</ele>
        <time>2025-04-05T12:22:52Z</time>
      </trkpt>
      <trkpt lat="50.36007" lon="4.87092">
        <ele>72</ele>
        <time>2025-04-05T12:22:53Z</time>
      </trkpt>
      <trkpt lat="50.36013" lon="4.87087">
        <ele>71.8</ele>
        <time>2025-04-05T12:22:54Z</time>
      </trkpt>
      <trkpt lat="50.36018" lon="4.87082">
        <ele>71.4</ele>
        <time>2025-04-05T12:22:55Z</time>
      </trkpt>
      <trkpt lat="50.36025" lon="4.87076">
        <ele>71.2</ele>
        <time>2025-04-05T12:22:56Z</time>
      </trkpt>
      <trkpt lat="50.3603" lon="4.87071">
        <ele>70.8</ele>
        <time>2025-04-05T12:22:57Z</time>
      </trkpt>
      <trkpt lat="50.36037" lon="4.87065">
        <ele>70.6</ele>
        <time>2025-04-05T12:22:58Z</time>
      </trkpt>
      <trkpt lat="50.36043" lon="4.87059">
        <ele>70.4</ele>
        <time>2025-04-05T12:22:59Z</time>
      </trkpt>
      <trkpt lat="50.36048" lon="4.87054">
        <ele>70.2</ele>
        <time>2025-04-05T12:23:00Z</time>
      </trkpt>
      <trkpt lat="50.36052" lon="4.8705">
        <ele>70</ele>
        <time>2025-04-05T12:23:01Z</time>
      </trkpt>
      <trkpt lat="50.36056" lon="4.87047">
        <ele>70</ele>
        <time>2025-04-05T12:23:02Z</time>
      </trkpt>
      <trkpt lat="50.36061" lon="4.87043">
        <ele>69.8</ele>
        <time>2025-04-05T12:23:03Z</time>
      </trkpt>
      <trkpt lat="50.36065" lon="4.8704">
        <ele>69.8</ele>
        <time>2025-04-05T12:23:04Z</time>
      </trkpt>
      <trkpt lat="50.3607" lon="4.87038">
        <ele>69.8</ele>
        <time>2025-04-05T12:23:05Z</time>
      </trkpt>
      <trkpt lat="50.36074" lon="4.87034">
        <ele>69.8</ele>
        <time>2025-04-05T12:23:06Z</time>
      </trkpt>
      <trkpt lat="50.36079" lon="4.87032">
        <ele>69.8</ele>
        <time>2025-04-05T12:23:07Z</time>
      </trkpt>
      <trkpt lat="50.36084" lon="4.87029">
        <ele>69.8</ele>
        <time>2025-04-05T12:23:08Z</time>
      </trkpt>
      <trkpt lat="50.36091" lon="4.87025">
        <ele>69.8</ele>
        <time>2025-04-05T12:23:09Z</time>
      </trkpt>
      <trkpt lat="50.36097" lon="4.87022">
        <ele>69.8</ele>
        <time>2025-04-05T12:23:10Z</time>
      </trkpt>
      <trkpt lat="50.36103" lon="4.87019">
        <ele>70</ele>
        <time>2025-04-05T12:23:11Z</time>
      </trkpt>
      <trkpt lat="50.36109" lon="4.87017">
        <ele>70</ele>
        <time>2025-04-05T12:23:12Z</time>
      </trkpt>
      <trkpt lat="50.36115" lon="4.87016">
        <ele>70</ele>
        <time>2025-04-05T12:23:13Z</time>
      </trkpt>
      <trkpt lat="50.36122" lon="4.87016">
        <ele>70</ele>
        <time>2025-04-05T12:23:14Z</time>
      </trkpt>
      <trkpt lat="50.36128" lon="4.87018">
        <ele>70.2</ele>
        <time>2025-04-05T12:23:15Z</time>
      </trkpt>
      <trkpt lat="50.36135" lon="4.87021">
        <ele>70.4</ele>
        <time>2025-04-05T12:23:16Z</time>
      </trkpt>
      <trkpt lat="50.36142" lon="4.87023">
        <ele>70.6</ele>
        <time>2025-04-05T12:23:17Z</time>
      </trkpt>
      <trkpt lat="50.36147" lon="4.87025">
        <ele>70.8</ele>
        <time>2025-04-05T12:23:18Z</time>
      </trkpt>
      <trkpt lat="50.36153" lon="4.87027">
        <ele>71</ele>
        <time>2025-04-05T12:23:19Z</time>
      </trkpt>
      <trkpt lat="50.3616" lon="4.8703">
        <ele>71</ele>
        <time>2025-04-05T12:23:20Z</time>
      </trkpt>
      <trkpt lat="50.36166" lon="4.87032">
        <ele>71</ele>
        <time>2025-04-05T12:23:21Z</time>
      </trkpt>
      <trkpt lat="50.36171" lon="4.87034">
        <ele>71.2</ele>
        <time>2025-04-05T12:23:22Z</time>
      </trkpt>
      <trkpt lat="50.36178" lon="4.87036">
        <ele>71.2</ele>
        <time>2025-04-05T12:23:23Z</time>
      </trkpt>
      <trkpt lat="50.36184" lon="4.87038">
        <ele>71.2</ele>
        <time>2025-04-05T12:23:24Z</time>
      </trkpt>
      <trkpt lat="50.3619" lon="4.8704">
        <ele>71.2</ele>
        <time>2025-04-05T12:23:25Z</time>
      </trkpt>
      <trkpt lat="50.36196" lon="4.87042">
        <ele>71</ele>
        <time>2025-04-05T12:23:26Z</time>
      </trkpt>
      <trkpt lat="50.36202" lon="4.87044">
        <ele>70.8</ele>
        <time>2025-04-05T12:23:27Z</time>
      </trkpt>
      <trkpt lat="50.36208" lon="4.87045">
        <ele>70.6</ele>
        <time>2025-04-05T12:23:28Z</time>
      </trkpt>
      <trkpt lat="50.36214" lon="4.87047">
        <ele>70.4</ele>
        <time>2025-04-05T12:23:29Z</time>
      </trkpt>
      <trkpt lat="50.36221" lon="4.87049">
        <ele>70.2</ele>
        <time>2025-04-05T12:23:30Z</time>
      </trkpt>
      <trkpt lat="50.36228" lon="4.87051">
        <ele>70.2</ele>
        <time>2025-04-05T12:23:31Z</time>
      </trkpt>
      <trkpt lat="50.36235" lon="4.87053">
        <ele>70</ele>
        <time>2025-04-05T12:23:32Z</time>
      </trkpt>
      <trkpt lat="50.36244" lon="4.87053">
        <ele>70</ele>
        <time>2025-04-05T12:23:33Z</time>
      </trkpt>
      <trkpt lat="50.36251" lon="4.87053">
        <ele>69.8</ele>
        <time>2025-04-05T12:23:34Z</time>
      </trkpt>
      <trkpt lat="50.36258" lon="4.87052">
        <ele>69.8</ele>
        <time>2025-04-05T12:23:35Z</time>
      </trkpt>
      <trkpt lat="50.36264" lon="4.87051">
        <ele>69.6</ele>
        <time>2025-04-05T12:23:36Z</time>
      </trkpt>
      <trkpt lat="50.36271" lon="4.87049">
        <ele>69.6</ele>
        <time>2025-04-05T12:23:37Z</time>
      </trkpt>
      <trkpt lat="50.36277" lon="4.87048">
        <ele>69.6</ele>
        <time>2025-04-05T12:23:38Z</time>
      </trkpt>
      <trkpt lat="50.36283" lon="4.87047">
        <ele>69.6</ele>
        <time>2025-04-05T12:23:39Z</time>
      </trkpt>
      <trkpt lat="50.36289" lon="4.87046">
        <ele>69.6</ele>
        <time>2025-04-05T12:23:40Z</time>
      </trkpt>
      <trkpt lat="50.36296" lon="4.87046">
        <ele>69.6</ele>
        <time>2025-04-05T12:23:41Z</time>
      </trkpt>
      <trkpt lat="50.36303" lon="4.87046">
        <ele>69.6</ele>
        <time>2025-04-05T12:23:42Z</time>
      </trkpt>
      <trkpt lat="50.36309" lon="4.87046">
        <ele>69.6</ele>
        <time>2025-04-05T12:23:43Z</time>
      </trkpt>
      <trkpt lat="50.36315" lon="4.87046">
        <ele>69.6</ele>
        <time>2025-04-05T12:23:44Z</time>
      </trkpt>
      <trkpt lat="50.36321" lon="4.87046">
        <ele>69.8</ele>
        <time>2025-04-05T12:23:45Z</time>
      </trkpt>
      <trkpt lat="50.36327" lon="4.87046">
        <ele>69.8</ele>
        <time>2025-04-05T12:23:46Z</time>
      </trkpt>
      <trkpt lat="50.36333" lon="4.87047">
        <ele>69.8</ele>
        <time>2025-04-05T12:23:47Z</time>
      </trkpt>
      <trkpt lat="50.36339" lon="4.87048">
        <ele>70</ele>
        <time>2025-04-05T12:23:48Z</time>
      </trkpt>
      <trkpt lat="50.36343" lon="4.87049">
        <ele>70</ele>
        <time>2025-04-05T12:23:49Z</time>
      </trkpt>
      <trkpt lat="50.36349" lon="4.87049">
        <ele>70</ele>
        <time>2025-04-05T12:23:50Z</time>
      </trkpt>
      <trkpt lat="50.36355" lon="4.87051">
        <ele>70</ele>
        <time>2025-04-05T12:23:51Z</time>
      </trkpt>
      <trkpt lat="50.36361" lon="4.87052">
        <ele>69.8</ele>
        <time>2025-04-05T12:23:52Z</time>
      </trkpt>
      <trkpt lat="50.36365" lon="4.87053">
        <ele>69.8</ele>
        <time>2025-04-05T12:23:53Z</time>
      </trkpt>
      <trkpt lat="50.36371" lon="4.87055">
        <ele>69.8</ele>
        <time>2025-04-05T12:23:54Z</time>
      </trkpt>
      <trkpt lat="50.36376" lon="4.87058">
        <ele>69.8</ele>
        <time>2025-04-05T12:23:55Z</time>
      </trkpt>
      <trkpt lat="50.36382" lon="4.8706">
        <ele>69.8</ele>
        <time>2025-04-05T12:23:56Z</time>
      </trkpt>
      <trkpt lat="50.36387" lon="4.87062">
        <ele>69.8</ele>
        <time>2025-04-05T12:23:57Z</time>
      </trkpt>
      <trkpt lat="50.36391" lon="4.87064">
        <ele>69.8</ele>
        <time>2025-04-05T12:23:58Z</time>
      </trkpt>
      <trkpt lat="50.36396" lon="4.87065">
        <ele>69.6</ele>
        <time>2025-04-05T12:23:59Z</time>
      </trkpt>
      <trkpt lat="50.364" lon="4.87067">
        <ele>69.6</ele>
        <time>2025-04-05T12:24:00Z</time>
      </trkpt>
      <trkpt lat="50.36404" lon="4.87068">
        <ele>69.6</ele>
        <time>2025-04-05T12:24:01Z</time>
      </trkpt>
      <trkpt lat="50.36408" lon="4.8707">
        <ele>69.6</ele>
        <time>2025-04-05T12:24:02Z</time>
      </trkpt>
      <trkpt lat="50.36412" lon="4.87073">
        <ele>69.6</ele>
        <time>2025-04-05T12:24:03Z</time>
      </trkpt>
      <trkpt lat="50.36416" lon="4.87076">
        <ele>69.6</ele>
        <time>2025-04-05T12:24:04Z</time>
      </trkpt>
      <trkpt lat="50.36419" lon="4.8708">
        <ele>69.6</ele>
        <time>2025-04-05T12:24:05Z</time>
      </trkpt>
      <trkpt lat="50.36422" lon="4.87084">
        <ele>69.6</ele>
        <time>2025-04-05T12:24:06Z</time>
      </trkpt>
      <trkpt lat="50.36425" lon="4.87087">
        <ele>69.6</ele>
        <time>2025-04-05T12:24:07Z</time>
      </trkpt>
      <trkpt lat="50.36428" lon="4.8709">
        <ele>69.6</ele>
        <time>2025-04-05T12:24:08Z</time>
      </trkpt>
      <trkpt lat="50.3643" lon="4.87093">
        <ele>69.6</ele>
        <time>2025-04-05T12:24:09Z</time>
      </trkpt>
      <trkpt lat="50.36432" lon="4.87096">
        <ele>69.6</ele>
        <time>2025-04-05T12:24:10Z</time>
      </trkpt>
      <trkpt lat="50.36435" lon="4.87098">
        <ele>69.6</ele>
        <time>2025-04-05T12:24:11Z</time>
      </trkpt>
      <trkpt lat="50.36438" lon="4.87101">
        <ele>69.6</ele>
        <time>2025-04-05T12:24:12Z</time>
      </trkpt>
      <trkpt lat="50.3644" lon="4.87103">
        <ele>69.6</ele>
        <time>2025-04-05T12:24:13Z</time>
      </trkpt>
      <trkpt lat="50.36443" lon="4.87104">
        <ele>69.6</ele>
        <time>2025-04-05T12:24:14Z</time>
      </trkpt>
      <trkpt lat="50.36445" lon="4.87106">
        <ele>69.6</ele>
        <time>2025-04-05T12:24:15Z</time>
      </trkpt>
      <trkpt lat="50.36448" lon="4.87108">
        <ele>69.6</ele>
        <time>2025-04-05T12:24:16Z</time>
      </trkpt>
      <trkpt lat="50.3645" lon="4.8711">
        <ele>69.6</ele>
        <time>2025-04-05T12:24:17Z</time>
      </trkpt>
      <trkpt lat="50.36453" lon="4.87111">
        <ele>69.6</ele>
        <time>2025-04-05T12:24:18Z</time>
      </trkpt>
      <trkpt lat="50.36455" lon="4.87113">
        <ele>69.6</ele>
        <time>2025-04-05T12:24:19Z</time>
      </trkpt>
      <trkpt lat="50.36458" lon="4.87115">
        <ele>69.6</ele>
        <time>2025-04-05T12:24:20Z</time>
      </trkpt>
      <trkpt lat="50.36461" lon="4.87117">
        <ele>69.6</ele>
        <time>2025-04-05T12:24:21Z</time>
      </trkpt>
      <trkpt lat="50.36464" lon="4.8712">
        <ele>69.4</ele>
        <time>2025-04-05T12:24:22Z</time>
      </trkpt>
      <trkpt lat="50.36468" lon="4.87123">
        <ele>69.4</ele>
        <time>2025-04-05T12:24:23Z</time>
      </trkpt>
      <trkpt lat="50.36473" lon="4.87127">
        <ele>69.2</ele>
        <time>2025-04-05T12:24:24Z</time>
      </trkpt>
      <trkpt lat="50.36477" lon="4.87129">
        <ele>69</ele>
        <time>2025-04-05T12:24:25Z</time>
      </trkpt>
      <trkpt lat="50.36482" lon="4.87132">
        <ele>69</ele>
        <time>2025-04-05T12:24:26Z</time>
      </trkpt>
      <trkpt lat="50.36486" lon="4.87135">
        <ele>68.8</ele>
        <time>2025-04-05T12:24:27Z</time>
      </trkpt>
      <trkpt lat="50.36491" lon="4.87138">
        <ele>68.4</ele>
        <time>2025-04-05T12:24:28Z</time>
      </trkpt>
      <trkpt lat="50.36496" lon="4.87141">
        <ele>68.2</ele>
        <time>2025-04-05T12:24:29Z</time>
      </trkpt>
      <trkpt lat="50.365" lon="4.87144">
        <ele>68</ele>
        <time>2025-04-05T12:24:30Z</time>
      </trkpt>
      <trkpt lat="50.36505" lon="4.87147">
        <ele>67.6</ele>
        <time>2025-04-05T12:24:31Z</time>
      </trkpt>
      <trkpt lat="50.36509" lon="4.87151">
        <ele>67.6</ele>
        <time>2025-04-05T12:24:32Z</time>
      </trkpt>
      <trkpt lat="50.36514" lon="4.87155">
        <ele>67.4</ele>
        <time>2025-04-05T12:24:33Z</time>
      </trkpt>
      <trkpt lat="50.36519" lon="4.87158">
        <ele>67.4</ele>
        <time>2025-04-05T12:24:34Z</time>
      </trkpt>
      <trkpt lat="50.36523" lon="4.87162">
        <ele>67.4</ele>
        <time>2025-04-05T12:24:35Z</time>
      </trkpt>
      <trkpt lat="50.36527" lon="4.87165">
        <ele>67.4</ele>
        <time>2025-04-05T12:24:36Z</time>
      </trkpt>
      <trkpt lat="50.36531" lon="4.87167">
        <ele>67.2</ele>
        <time>2025-04-05T12:24:37Z</time>
      </trkpt>
      <trkpt lat="50.36535" lon="4.8717">
        <ele>67.2</ele>
        <time>2025-04-05T12:24:38Z</time>
      </trkpt>
      <trkpt lat="50.36538" lon="4.87174">
        <ele>67</ele>
        <time>2025-04-05T12:24:39Z</time>
      </trkpt>
      <trkpt lat="50.36542" lon="4.87178">
        <ele>67</ele>
        <time>2025-04-05T12:24:40Z</time>
      </trkpt>
      <trkpt lat="50.36546" lon="4.8718">
        <ele>67</ele>
        <time>2025-04-05T12:24:41Z</time>
      </trkpt>
      <trkpt lat="50.36549" lon="4.87183">
        <ele>67</ele>
        <time>2025-04-05T12:24:42Z</time>
      </trkpt>
      <trkpt lat="50.36554" lon="4.87187">
        <ele>67</ele>
        <time>2025-04-05T12:24:43Z</time>
      </trkpt>
      <trkpt lat="50.36558" lon="4.8719">
        <ele>67.2</ele>
        <time>2025-04-05T12:24:44Z</time>
      </trkpt>
      <trkpt lat="50.36562" lon="4.87193">
        <ele>67.2</ele>
        <time>2025-04-05T12:24:45Z</time>
      </trkpt>
      <trkpt lat="50.36567" lon="4.87196">
        <ele>67.4</ele>
        <time>2025-04-05T12:24:46Z</time>
      </trkpt>
      <trkpt lat="50.36571" lon="4.872">
        <ele>67.4</ele>
        <time>2025-04-05T12:24:47Z</time>
      </trkpt>
      <trkpt lat="50.36576" lon="4.87203">
        <ele>67.6</ele>
        <time>2025-04-05T12:24:48Z</time>
      </trkpt>
      <trkpt lat="50.3658" lon="4.87206">
        <ele>67.8</ele>
        <time>2025-04-05T12:24:49Z</time>
      </trkpt>
      <trkpt lat="50.36585" lon="4.87209">
        <ele>68</ele>
        <time>2025-04-05T12:24:50Z</time>
      </trkpt>
      <trkpt lat="50.36589" lon="4.87212">
        <ele>68.2</ele>
        <time>2025-04-05T12:24:51Z</time>
      </trkpt>
      <trkpt lat="50.36592" lon="4.87214">
        <ele>68.6</ele>
        <time>2025-04-05T12:24:52Z</time>
      </trkpt>
      <trkpt lat="50.36594" lon="4.87217">
        <ele>68.6</ele>
        <time>2025-04-05T12:24:53Z</time>
      </trkpt>
      <trkpt lat="50.36597" lon="4.87218">
        <ele>68.6</ele>
        <time>2025-04-05T12:24:54Z</time>
      </trkpt>
      <trkpt lat="50.36599" lon="4.8722">
        <ele>68.8</ele>
        <time>2025-04-05T12:24:55Z</time>
      </trkpt>
      <trkpt lat="50.366" lon="4.8722">
        <ele>69.2</ele>
        <time>2025-04-05T12:24:56Z</time>
      </trkpt>
      <trkpt lat="50.36602" lon="4.87221">
        <ele>69.4</ele>
        <time>2025-04-05T12:24:57Z</time>
      </trkpt>
      <trkpt lat="50.36604" lon="4.8722">
        <ele>69.4</ele>
        <time>2025-04-05T12:24:58Z</time>
      </trkpt>
      <trkpt lat="50.36606" lon="4.8722">
        <ele>69.6</ele>
        <time>2025-04-05T12:24:59Z</time>
      </trkpt>
      <trkpt lat="50.36607" lon="4.8722">
        <ele>69.6</ele>
        <time>2025-04-05T12:25:00Z</time>
      </trkpt>
      <trkpt lat="50.3661" lon="4.87221">
        <ele>69.8</ele>
        <time>2025-04-05T12:25:01Z</time>
      </trkpt>
      <trkpt lat="50.36612" lon="4.87224">
        <ele>69.8</ele>
        <time>2025-04-05T12:25:02Z</time>
      </trkpt>
      <trkpt lat="50.36615" lon="4.87226">
        <ele>69.8</ele>
        <time>2025-04-05T12:25:03Z</time>
      </trkpt>
      <trkpt lat="50.36619" lon="4.87229">
        <ele>69.8</ele>
        <time>2025-04-05T12:25:04Z</time>
      </trkpt>
      <trkpt lat="50.36622" lon="4.87231">
        <ele>69.8</ele>
        <time>2025-04-05T12:25:05Z</time>
      </trkpt>
      <trkpt lat="50.36626" lon="4.87234">
        <ele>69.8</ele>
        <time>2025-04-05T12:25:06Z</time>
      </trkpt>
      <trkpt lat="50.36631" lon="4.87237">
        <ele>69.8</ele>
        <time>2025-04-05T12:25:07Z</time>
      </trkpt>
      <trkpt lat="50.36635" lon="4.8724">
        <ele>69.8</ele>
        <time>2025-04-05T12:25:08Z</time>
      </trkpt>
      <trkpt lat="50.3664" lon="4.87243">
        <ele>69.6</ele>
        <time>2025-04-05T12:25:09Z</time>
      </trkpt>
      <trkpt lat="50.36646" lon="4.87246">
        <ele>69.4</ele>
        <time>2025-04-05T12:25:10Z</time>
      </trkpt>
      <trkpt lat="50.36651" lon="4.87249">
        <ele>69.4</ele>
        <time>2025-04-05T12:25:11Z</time>
      </trkpt>
      <trkpt lat="50.36656" lon="4.87252">
        <ele>69.2</ele>
        <time>2025-04-05T12:25:12Z</time>
      </trkpt>
      <trkpt lat="50.36662" lon="4.87255">
        <ele>69</ele>
        <time>2025-04-05T12:25:13Z</time>
      </trkpt>
      <trkpt lat="50.36667" lon="4.87258">
        <ele>69</ele>
        <time>2025-04-05T12:25:14Z</time>
      </trkpt>
      <trkpt lat="50.36672" lon="4.87261">
        <ele>69</ele>
        <time>2025-04-05T12:25:15Z</time>
      </trkpt>
      <trkpt lat="50.36678" lon="4.87264">
        <ele>68.8</ele>
        <time>2025-04-05T12:25:16Z</time>
      </trkpt>
      <trkpt lat="50.36683" lon="4.87267">
        <ele>68.8</ele>
        <time>2025-04-05T12:25:17Z</time>
      </trkpt>
      <trkpt lat="50.36688" lon="4.8727">
        <ele>68.8</ele>
        <time>2025-04-05T12:25:18Z</time>
      </trkpt>
      <trkpt lat="50.36693" lon="4.87272">
        <ele>68.8</ele>
        <time>2025-04-05T12:25:19Z</time>
      </trkpt>
      <trkpt lat="50.36699" lon="4.87275">
        <ele>68.8</ele>
        <time>2025-04-05T12:25:20Z</time>
      </trkpt>
      <trkpt lat="50.36704" lon="4.87278">
        <ele>68.8</ele>
        <time>2025-04-05T12:25:21Z</time>
      </trkpt>
      <trkpt lat="50.36709" lon="4.87281">
        <ele>69</ele>
        <time>2025-04-05T12:25:22Z</time>
      </trkpt>
      <trkpt lat="50.36715" lon="4.87284">
        <ele>69</ele>
        <time>2025-04-05T12:25:23Z</time>
      </trkpt>
      <trkpt lat="50.36719" lon="4.87287">
        <ele>68.8</ele>
        <time>2025-04-05T12:25:24Z</time>
      </trkpt>
      <trkpt lat="50.36724" lon="4.87289">
        <ele>68.8</ele>
        <time>2025-04-05T12:25:25Z</time>
      </trkpt>
      <trkpt lat="50.36729" lon="4.87292">
        <ele>68.8</ele>
        <time>2025-04-05T12:25:26Z</time>
      </trkpt>
      <trkpt lat="50.36735" lon="4.87295">
        <ele>69</ele>
        <time>2025-04-05T12:25:27Z</time>
      </trkpt>
      <trkpt lat="50.3674" lon="4.87298">
        <ele>69</ele>
        <time>2025-04-05T12:25:28Z</time>
      </trkpt>
      <trkpt lat="50.36746" lon="4.87301">
        <ele>69</ele>
        <time>2025-04-05T12:25:29Z</time>
      </trkpt>
      <trkpt lat="50.3675" lon="4.87304">
        <ele>69</ele>
        <time>2025-04-05T12:25:30Z</time>
      </trkpt>
      <trkpt lat="50.36757" lon="4.87307">
        <ele>69</ele>
        <time>2025-04-05T12:25:31Z</time>
      </trkpt>
      <trkpt lat="50.36762" lon="4.87311">
        <ele>69</ele>
        <time>2025-04-05T12:25:32Z</time>
      </trkpt>
      <trkpt lat="50.36767" lon="4.87314">
        <ele>68.8</ele>
        <time>2025-04-05T12:25:33Z</time>
      </trkpt>
      <trkpt lat="50.36773" lon="4.87318">
        <ele>68.8</ele>
        <time>2025-04-05T12:25:34Z</time>
      </trkpt>
      <trkpt lat="50.36778" lon="4.87321">
        <ele>69</ele>
        <time>2025-04-05T12:25:35Z</time>
      </trkpt>
      <trkpt lat="50.36784" lon="4.87324">
        <ele>69.2</ele>
        <time>2025-04-05T12:25:36Z</time>
      </trkpt>
      <trkpt lat="50.36789" lon="4.87328">
        <ele>69.2</ele>
        <time>2025-04-05T12:25:37Z</time>
      </trkpt>
      <trkpt lat="50.36794" lon="4.87332">
        <ele>69.2</ele>
        <time>2025-04-05T12:25:38Z</time>
      </trkpt>
      <trkpt lat="50.36799" lon="4.87335">
        <ele>69.2</ele>
        <time>2025-04-05T12:25:39Z</time>
      </trkpt>
      <trkpt lat="50.36805" lon="4.87338">
        <ele>69.2</ele>
        <time>2025-04-05T12:25:40Z</time>
      </trkpt>
      <trkpt lat="50.3681" lon="4.87341">
        <ele>69.2</ele>
        <time>2025-04-05T12:25:41Z</time>
      </trkpt>
      <trkpt lat="50.36816" lon="4.87344">
        <ele>69.2</ele>
        <time>2025-04-05T12:25:42Z</time>
      </trkpt>
      <trkpt lat="50.36821" lon="4.87347">
        <ele>69.2</ele>
        <time>2025-04-05T12:25:43Z</time>
      </trkpt>
      <trkpt lat="50.36827" lon="4.87349">
        <ele>69.2</ele>
        <time>2025-04-05T12:25:44Z</time>
      </trkpt>
      <trkpt lat="50.36833" lon="4.87353">
        <ele>69.2</ele>
        <time>2025-04-05T12:25:45Z</time>
      </trkpt>
      <trkpt lat="50.36838" lon="4.87356">
        <ele>69.4</ele>
        <time>2025-04-05T12:25:46Z</time>
      </trkpt>
      <trkpt lat="50.36844" lon="4.87359">
        <ele>69.4</ele>
        <time>2025-04-05T12:25:47Z</time>
      </trkpt>
      <trkpt lat="50.3685" lon="4.87362">
        <ele>69.4</ele>
        <time>2025-04-05T12:25:48Z</time>
      </trkpt>
      <trkpt lat="50.36855" lon="4.87365">
        <ele>69.4</ele>
        <time>2025-04-05T12:25:49Z</time>
      </trkpt>
      <trkpt lat="50.3686" lon="4.87368">
        <ele>69.4</ele>
        <time>2025-04-05T12:25:50Z</time>
      </trkpt>
      <trkpt lat="50.36865" lon="4.87371">
        <ele>69.4</ele>
        <time>2025-04-05T12:25:51Z</time>
      </trkpt>
      <trkpt lat="50.36871" lon="4.87375">
        <ele>69.4</ele>
        <time>2025-04-05T12:25:52Z</time>
      </trkpt>
      <trkpt lat="50.36876" lon="4.87378">
        <ele>69.4</ele>
        <time>2025-04-05T12:25:53Z</time>
      </trkpt>
      <trkpt lat="50.36881" lon="4.87382">
        <ele>69.4</ele>
        <time>2025-04-05T12:25:54Z</time>
      </trkpt>
      <trkpt lat="50.36887" lon="4.87385">
        <ele>69.4</ele>
        <time>2025-04-05T12:25:55Z</time>
      </trkpt>
      <trkpt lat="50.36892" lon="4.87388">
        <ele>69.4</ele>
        <time>2025-04-05T12:25:56Z</time>
      </trkpt>
      <trkpt lat="50.36898" lon="4.87391">
        <ele>69.4</ele>
        <time>2025-04-05T12:25:57Z</time>
      </trkpt>
      <trkpt lat="50.36903" lon="4.87394">
        <ele>69.2</ele>
        <time>2025-04-05T12:25:58Z</time>
      </trkpt>
      <trkpt lat="50.36909" lon="4.87397">
        <ele>69.2</ele>
        <time>2025-04-05T12:25:59Z</time>
      </trkpt>
      <trkpt lat="50.36914" lon="4.874">
        <ele>69.2</ele>
        <time>2025-04-05T12:26:00Z</time>
      </trkpt>
      <trkpt lat="50.36919" lon="4.87403">
        <ele>69.2</ele>
        <time>2025-04-05T12:26:01Z</time>
      </trkpt>
      <trkpt lat="50.36925" lon="4.87406">
        <ele>69.2</ele>
        <time>2025-04-05T12:26:02Z</time>
      </trkpt>
      <trkpt lat="50.36931" lon="4.87409">
        <ele>69.2</ele>
        <time>2025-04-05T12:26:03Z</time>
      </trkpt>
      <trkpt lat="50.36936" lon="4.87413">
        <ele>69.2</ele>
        <time>2025-04-05T12:26:04Z</time>
      </trkpt>
      <trkpt lat="50.36941" lon="4.87416">
        <ele>69.2</ele>
        <time>2025-04-05T12:26:05Z</time>
      </trkpt>
      <trkpt lat="50.36946" lon="4.87419">
        <ele>69.4</ele>
        <time>2025-04-05T12:26:06Z</time>
      </trkpt>
      <trkpt lat="50.36951" lon="4.87422">
        <ele>69.2</ele>
        <time>2025-04-05T12:26:07Z</time>
      </trkpt>
      <trkpt lat="50.36957" lon="4.87425">
        <ele>69.2</ele>
        <time>2025-04-05T12:26:08Z</time>
      </trkpt>
      <trkpt lat="50.36962" lon="4.87429">
        <ele>69.2</ele>
        <time>2025-04-05T12:26:09Z</time>
      </trkpt>
      <trkpt lat="50.36968" lon="4.87433">
        <ele>69.2</ele>
        <time>2025-04-05T12:26:10Z</time>
      </trkpt>
      <trkpt lat="50.36973" lon="4.87436">
        <ele>69.4</ele>
        <time>2025-04-05T12:26:11Z</time>
      </trkpt>
      <trkpt lat="50.36979" lon="4.8744">
        <ele>69.4</ele>
        <time>2025-04-05T12:26:12Z</time>
      </trkpt>
      <trkpt lat="50.36984" lon="4.87443">
        <ele>69.4</ele>
        <time>2025-04-05T12:26:13Z</time>
      </trkpt>
      <trkpt lat="50.36988" lon="4.87446">
        <ele>69.4</ele>
        <time>2025-04-05T12:26:14Z</time>
      </trkpt>
      <trkpt lat="50.36994" lon="4.8745">
        <ele>69.2</ele>
        <time>2025-04-05T12:26:15Z</time>
      </trkpt>
      <trkpt lat="50.36999" lon="4.87452">
        <ele>69.2</ele>
        <time>2025-04-05T12:26:16Z</time>
      </trkpt>
      <trkpt lat="50.37004" lon="4.87455">
        <ele>69.2</ele>
        <time>2025-04-05T12:26:17Z</time>
      </trkpt>
      <trkpt lat="50.37009" lon="4.87458">
        <ele>69.2</ele>
        <time>2025-04-05T12:26:18Z</time>
      </trkpt>
      <trkpt lat="50.37015" lon="4.87461">
        <ele>69.2</ele>
        <time>2025-04-05T12:26:19Z</time>
      </trkpt>
      <trkpt lat="50.3702" lon="4.87464">
        <ele>69.2</ele>
        <time>2025-04-05T12:26:20Z</time>
      </trkpt>
      <trkpt lat="50.37025" lon="4.87467">
        <ele>69.2</ele>
        <time>2025-04-05T12:26:21Z</time>
      </trkpt>
      <trkpt lat="50.37029" lon="4.8747">
        <ele>69.2</ele>
        <time>2025-04-05T12:26:22Z</time>
      </trkpt>
      <trkpt lat="50.37034" lon="4.87473">
        <ele>69.4</ele>
        <time>2025-04-05T12:26:23Z</time>
      </trkpt>
      <trkpt lat="50.37038" lon="4.87477">
        <ele>69.4</ele>
        <time>2025-04-05T12:26:24Z</time>
      </trkpt>
      <trkpt lat="50.37042" lon="4.8748">
        <ele>69.4</ele>
        <time>2025-04-05T12:26:25Z</time>
      </trkpt>
      <trkpt lat="50.37047" lon="4.87483">
        <ele>69.4</ele>
        <time>2025-04-05T12:26:26Z</time>
      </trkpt>
      <trkpt lat="50.37052" lon="4.87486">
        <ele>69.4</ele>
        <time>2025-04-05T12:26:27Z</time>
      </trkpt>
      <trkpt lat="50.37057" lon="4.87489">
        <ele>69.4</ele>
        <time>2025-04-05T12:26:28Z</time>
      </trkpt>
      <trkpt lat="50.37062" lon="4.87491">
        <ele>69.4</ele>
        <time>2025-04-05T12:26:29Z</time>
      </trkpt>
      <trkpt lat="50.37066" lon="4.87494">
        <ele>69.4</ele>
        <time>2025-04-05T12:26:30Z</time>
      </trkpt>
      <trkpt lat="50.37071" lon="4.87498">
        <ele>69.6</ele>
        <time>2025-04-05T12:26:31Z</time>
      </trkpt>
      <trkpt lat="50.37075" lon="4.87501">
        <ele>69.6</ele>
        <time>2025-04-05T12:26:32Z</time>
      </trkpt>
      <trkpt lat="50.3708" lon="4.87503">
        <ele>69.8</ele>
        <time>2025-04-05T12:26:33Z</time>
      </trkpt>
      <trkpt lat="50.37084" lon="4.87505">
        <ele>69.8</ele>
        <time>2025-04-05T12:26:34Z</time>
      </trkpt>
      <trkpt lat="50.37089" lon="4.87508">
        <ele>69.8</ele>
        <time>2025-04-05T12:26:35Z</time>
      </trkpt>
      <trkpt lat="50.37094" lon="4.87511">
        <ele>69.8</ele>
        <time>2025-04-05T12:26:36Z</time>
      </trkpt>
      <trkpt lat="50.37098" lon="4.87514">
        <ele>70</ele>
        <time>2025-04-05T12:26:37Z</time>
      </trkpt>
      <trkpt lat="50.37103" lon="4.87516">
        <ele>70</ele>
        <time>2025-04-05T12:26:38Z</time>
      </trkpt>
      <trkpt lat="50.37107" lon="4.87519">
        <ele>70</ele>
        <time>2025-04-05T12:26:39Z</time>
      </trkpt>
      <trkpt lat="50.37112" lon="4.87521">
        <ele>70.2</ele>
        <time>2025-04-05T12:26:40Z</time>
      </trkpt>
      <trkpt lat="50.37117" lon="4.87523">
        <ele>70.2</ele>
        <time>2025-04-05T12:26:41Z</time>
      </trkpt>
      <trkpt lat="50.37122" lon="4.87526">
        <ele>70.2</ele>
        <time>2025-04-05T12:26:42Z</time>
      </trkpt>
      <trkpt lat="50.37126" lon="4.87528">
        <ele>70.2</ele>
        <time>2025-04-05T12:26:43Z</time>
      </trkpt>
      <trkpt lat="50.3713" lon="4.87531">
        <ele>70.2</ele>
        <time>2025-04-05T12:26:44Z</time>
      </trkpt>
      <trkpt lat="50.37135" lon="4.87533">
        <ele>70.2</ele>
        <time>2025-04-05T12:26:45Z</time>
      </trkpt>
      <trkpt lat="50.37139" lon="4.87536">
        <ele>70.2</ele>
        <time>2025-04-05T12:26:46Z</time>
      </trkpt>
      <trkpt lat="50.37144" lon="4.87538">
        <ele>70.2</ele>
        <time>2025-04-05T12:26:47Z</time>
      </trkpt>
      <trkpt lat="50.37148" lon="4.87541">
        <ele>70.2</ele>
        <time>2025-04-05T12:26:48Z</time>
      </trkpt>
      <trkpt lat="50.37152" lon="4.87543">
        <ele>70.2</ele>
        <time>2025-04-05T12:26:49Z</time>
      </trkpt>
      <trkpt lat="50.37156" lon="4.87545">
        <ele>70.2</ele>
        <time>2025-04-05T12:26:50Z</time>
      </trkpt>
      <trkpt lat="50.37161" lon="4.87547">
        <ele>70.2</ele>
        <time>2025-04-05T12:26:51Z</time>
      </trkpt>
      <trkpt lat="50.37165" lon="4.8755">
        <ele>70.2</ele>
        <time>2025-04-05T12:26:52Z</time>
      </trkpt>
      <trkpt lat="50.3717" lon="4.87552">
        <ele>70.2</ele>
        <time>2025-04-05T12:26:53Z</time>
      </trkpt>
      <trkpt lat="50.37174" lon="4.87555">
        <ele>70</ele>
        <time>2025-04-05T12:26:54Z</time>
      </trkpt>
      <trkpt lat="50.37179" lon="4.87557">
        <ele>70</ele>
        <time>2025-04-05T12:26:55Z</time>
      </trkpt>
      <trkpt lat="50.37184" lon="4.8756">
        <ele>70</ele>
        <time>2025-04-05T12:26:56Z</time>
      </trkpt>
      <trkpt lat="50.37188" lon="4.87562">
        <ele>70</ele>
        <time>2025-04-05T12:26:57Z</time>
      </trkpt>
      <trkpt lat="50.37193" lon="4.87564">
        <ele>70</ele>
        <time>2025-04-05T12:26:58Z</time>
      </trkpt>
      <trkpt lat="50.37198" lon="4.87566">
        <ele>70</ele>
        <time>2025-04-05T12:26:59Z</time>
      </trkpt>
      <trkpt lat="50.37204" lon="4.8757">
        <ele>70</ele>
        <time>2025-04-05T12:27:00Z</time>
      </trkpt>
      <trkpt lat="50.37209" lon="4.87572">
        <ele>70</ele>
        <time>2025-04-05T12:27:01Z</time>
      </trkpt>
      <trkpt lat="50.37214" lon="4.87575">
        <ele>69.8</ele>
        <time>2025-04-05T12:27:02Z</time>
      </trkpt>
      <trkpt lat="50.37219" lon="4.87578">
        <ele>69.8</ele>
        <time>2025-04-05T12:27:03Z</time>
      </trkpt>
      <trkpt lat="50.37225" lon="4.87582">
        <ele>69.8</ele>
        <time>2025-04-05T12:27:04Z</time>
      </trkpt>
      <trkpt lat="50.37229" lon="4.87585">
        <ele>69.6</ele>
        <time>2025-04-05T12:27:05Z</time>
      </trkpt>
      <trkpt lat="50.37233" lon="4.87589">
        <ele>69.6</ele>
        <time>2025-04-05T12:27:06Z</time>
      </trkpt>
      <trkpt lat="50.37239" lon="4.87592">
        <ele>69.6</ele>
        <time>2025-04-05T12:27:07Z</time>
      </trkpt>
      <trkpt lat="50.37244" lon="4.87595">
        <ele>69.4</ele>
        <time>2025-04-05T12:27:08Z</time>
      </trkpt>
      <trkpt lat="50.37248" lon="4.87597">
        <ele>69.4</ele>
        <time>2025-04-05T12:27:09Z</time>
      </trkpt>
      <trkpt lat="50.37253" lon="4.87601">
        <ele>69.4</ele>
        <time>2025-04-05T12:27:10Z</time>
      </trkpt>
      <trkpt lat="50.37258" lon="4.87605">
        <ele>69.4</ele>
        <time>2025-04-05T12:27:11Z</time>
      </trkpt>
      <trkpt lat="50.37262" lon="4.87608">
        <ele>69.2</ele>
        <time>2025-04-05T12:27:12Z</time>
      </trkpt>
      <trkpt lat="50.37267" lon="4.87612">
        <ele>69.2</ele>
        <time>2025-04-05T12:27:13Z</time>
      </trkpt>
      <trkpt lat="50.37272" lon="4.87616">
        <ele>69.2</ele>
        <time>2025-04-05T12:27:14Z</time>
      </trkpt>
      <trkpt lat="50.37277" lon="4.8762">
        <ele>69.2</ele>
        <time>2025-04-05T12:27:15Z</time>
      </trkpt>
      <trkpt lat="50.37283" lon="4.87624">
        <ele>69.2</ele>
        <time>2025-04-05T12:27:16Z</time>
      </trkpt>
      <trkpt lat="50.37288" lon="4.87628">
        <ele>69.2</ele>
        <time>2025-04-05T12:27:17Z</time>
      </trkpt>
      <trkpt lat="50.37293" lon="4.87632">
        <ele>69.2</ele>
        <time>2025-04-05T12:27:18Z</time>
      </trkpt>
      <trkpt lat="50.37298" lon="4.87635">
        <ele>69.2</ele>
        <time>2025-04-05T12:27:19Z</time>
      </trkpt>
      <trkpt lat="50.37304" lon="4.87638">
        <ele>69</ele>
        <time>2025-04-05T12:27:20Z</time>
      </trkpt>
      <trkpt lat="50.37309" lon="4.8764">
        <ele>69.2</ele>
        <time>2025-04-05T12:27:21Z</time>
      </trkpt>
      <trkpt lat="50.37314" lon="4.87642">
        <ele>69.2</ele>
        <time>2025-04-05T12:27:22Z</time>
      </trkpt>
      <trkpt lat="50.37319" lon="4.87643">
        <ele>69.4</ele>
        <time>2025-04-05T12:27:23Z</time>
      </trkpt>
      <trkpt lat="50.37324" lon="4.87645">
        <ele>69.6</ele>
        <time>2025-04-05T12:27:24Z</time>
      </trkpt>
      <trkpt lat="50.37329" lon="4.87647">
        <ele>69.8</ele>
        <time>2025-04-05T12:27:25Z</time>
      </trkpt>
      <trkpt lat="50.37334" lon="4.87649">
        <ele>70</ele>
        <time>2025-04-05T12:27:26Z</time>
      </trkpt>
      <trkpt lat="50.3734" lon="4.8765">
        <ele>70.2</ele>
        <time>2025-04-05T12:27:27Z</time>
      </trkpt>
      <trkpt lat="50.37345" lon="4.87649">
        <ele>70.4</ele>
        <time>2025-04-05T12:27:28Z</time>
      </trkpt>
      <trkpt lat="50.37351" lon="4.87649">
        <ele>70.6</ele>
        <time>2025-04-05T12:27:29Z</time>
      </trkpt>
      <trkpt lat="50.37356" lon="4.87649">
        <ele>70.8</ele>
        <time>2025-04-05T12:27:30Z</time>
      </trkpt>
      <trkpt lat="50.37361" lon="4.87649">
        <ele>71</ele>
        <time>2025-04-05T12:27:31Z</time>
      </trkpt>
      <trkpt lat="50.37366" lon="4.87649">
        <ele>71.4</ele>
        <time>2025-04-05T12:27:32Z</time>
      </trkpt>
      <trkpt lat="50.3737" lon="4.87648">
        <ele>71.6</ele>
        <time>2025-04-05T12:27:33Z</time>
      </trkpt>
      <trkpt lat="50.37374" lon="4.87648">
        <ele>71.8</ele>
        <time>2025-04-05T12:27:34Z</time>
      </trkpt>
      <trkpt lat="50.37379" lon="4.87647">
        <ele>71.8</ele>
        <time>2025-04-05T12:27:35Z</time>
      </trkpt>
      <trkpt lat="50.37384" lon="4.87646">
        <ele>72</ele>
        <time>2025-04-05T12:27:36Z</time>
      </trkpt>
      <trkpt lat="50.37388" lon="4.87645">
        <ele>72.4</ele>
        <time>2025-04-05T12:27:37Z</time>
      </trkpt>
      <trkpt lat="50.37392" lon="4.87643">
        <ele>72.6</ele>
        <time>2025-04-05T12:27:38Z</time>
      </trkpt>
      <trkpt lat="50.37396" lon="4.87642">
        <ele>72.8</ele>
        <time>2025-04-05T12:27:39Z</time>
      </trkpt>
      <trkpt lat="50.374" lon="4.8764">
        <ele>73.2</ele>
        <time>2025-04-05T12:27:40Z</time>
      </trkpt>
      <trkpt lat="50.37403" lon="4.87639">
        <ele>73.4</ele>
        <time>2025-04-05T12:27:41Z</time>
      </trkpt>
      <trkpt lat="50.37407" lon="4.87637">
        <ele>73.6</ele>
        <time>2025-04-05T12:27:42Z</time>
      </trkpt>
      <trkpt lat="50.37411" lon="4.87635">
        <ele>74</ele>
        <time>2025-04-05T12:27:43Z</time>
      </trkpt>
      <trkpt lat="50.37415" lon="4.87634">
        <ele>74.2</ele>
        <time>2025-04-05T12:27:44Z</time>
      </trkpt>
      <trkpt lat="50.37418" lon="4.87632">
        <ele>74.6</ele>
        <time>2025-04-05T12:27:45Z</time>
      </trkpt>
      <trkpt lat="50.37422" lon="4.8763">
        <ele>74.8</ele>
        <time>2025-04-05T12:27:46Z</time>
      </trkpt>
      <trkpt lat="50.37426" lon="4.87628">
        <ele>75</ele>
        <time>2025-04-05T12:27:47Z</time>
      </trkpt>
      <trkpt lat="50.3743" lon="4.87625">
        <ele>75.2</ele>
        <time>2025-04-05T12:27:48Z</time>
      </trkpt>
      <trkpt lat="50.37433" lon="4.87622">
        <ele>75.4</ele>
        <time>2025-04-05T12:27:49Z</time>
      </trkpt>
      <trkpt lat="50.37437" lon="4.87619">
        <ele>75.6</ele>
        <time>2025-04-05T12:27:50Z</time>
      </trkpt>
      <trkpt lat="50.3744" lon="4.87616">
        <ele>75.8</ele>
        <time>2025-04-05T12:27:51Z</time>
      </trkpt>
      <trkpt lat="50.37443" lon="4.87613">
        <ele>76</ele>
        <time>2025-04-05T12:27:52Z</time>
      </trkpt>
      <trkpt lat="50.37446" lon="4.8761">
        <ele>76.2</ele>
        <time>2025-04-05T12:27:53Z</time>
      </trkpt>
      <trkpt lat="50.3745" lon="4.87607">
        <ele>76.4</ele>
        <time>2025-04-05T12:27:54Z</time>
      </trkpt>
      <trkpt lat="50.37453" lon="4.87604">
        <ele>76.8</ele>
        <time>2025-04-05T12:27:55Z</time>
      </trkpt>
      <trkpt lat="50.37456" lon="4.87601">
        <ele>77</ele>
        <time>2025-04-05T12:27:56Z</time>
      </trkpt>
      <trkpt lat="50.37459" lon="4.87596">
        <ele>77.2</ele>
        <time>2025-04-05T12:27:57Z</time>
      </trkpt>
      <trkpt lat="50.37462" lon="4.87592">
        <ele>77.4</ele>
        <time>2025-04-05T12:27:58Z</time>
      </trkpt>
      <trkpt lat="50.37465" lon="4.87588">
        <ele>77.8</ele>
        <time>2025-04-05T12:27:59Z</time>
      </trkpt>
      <trkpt lat="50.37468" lon="4.87584">
        <ele>78</ele>
        <time>2025-04-05T12:28:00Z</time>
      </trkpt>
      <trkpt lat="50.3747" lon="4.8758">
        <ele>78.2</ele>
        <time>2025-04-05T12:28:01Z</time>
      </trkpt>
      <trkpt lat="50.37473" lon="4.87576">
        <ele>78.4</ele>
        <time>2025-04-05T12:28:02Z</time>
      </trkpt>
      <trkpt lat="50.37475" lon="4.87572">
        <ele>78.4</ele>
        <time>2025-04-05T12:28:03Z</time>
      </trkpt>
      <trkpt lat="50.37478" lon="4.87568">
        <ele>78.6</ele>
        <time>2025-04-05T12:28:04Z</time>
      </trkpt>
      <trkpt lat="50.3748" lon="4.87564">
        <ele>78.6</ele>
        <time>2025-04-05T12:28:05Z</time>
      </trkpt>
      <trkpt lat="50.37482" lon="4.8756">
        <ele>78.8</ele>
        <time>2025-04-05T12:28:06Z</time>
      </trkpt>
      <trkpt lat="50.37484" lon="4.87555">
        <ele>79</ele>
        <time>2025-04-05T12:28:07Z</time>
      </trkpt>
      <trkpt lat="50.37486" lon="4.8755">
        <ele>79.2</ele>
        <time>2025-04-05T12:28:08Z</time>
      </trkpt>
      <trkpt lat="50.37488" lon="4.87544">
        <ele>79.4</ele>
        <time>2025-04-05T12:28:09Z</time>
      </trkpt>
      <trkpt lat="50.37491" lon="4.87538">
        <ele>79.6</ele>
        <time>2025-04-05T12:28:10Z</time>
      </trkpt>
      <trkpt lat="50.37492" lon="4.87533">
        <ele>79.8</ele>
        <time>2025-04-05T12:28:11Z</time>
      </trkpt>
      <trkpt lat="50.37494" lon="4.87527">
        <ele>80</ele>
        <time>2025-04-05T12:28:12Z</time>
      </trkpt>
      <trkpt lat="50.37497" lon="4.87521">
        <ele>80</ele>
        <time>2025-04-05T12:28:13Z</time>
      </trkpt>
      <trkpt lat="50.37499" lon="4.87516">
        <ele>80.2</ele>
        <time>2025-04-05T12:28:14Z</time>
      </trkpt>
      <trkpt lat="50.37501" lon="4.87509">
        <ele>80.4</ele>
        <time>2025-04-05T12:28:15Z</time>
      </trkpt>
      <trkpt lat="50.37503" lon="4.87503">
        <ele>80.6</ele>
        <time>2025-04-05T12:28:16Z</time>
      </trkpt>
      <trkpt lat="50.37505" lon="4.87498">
        <ele>80.8</ele>
        <time>2025-04-05T12:28:17Z</time>
      </trkpt>
      <trkpt lat="50.37507" lon="4.87492">
        <ele>81</ele>
        <time>2025-04-05T12:28:18Z</time>
      </trkpt>
      <trkpt lat="50.3751" lon="4.87485">
        <ele>81.2</ele>
        <time>2025-04-05T12:28:19Z</time>
      </trkpt>
      <trkpt lat="50.37511" lon="4.87479">
        <ele>81.2</ele>
        <time>2025-04-05T12:28:20Z</time>
      </trkpt>
      <trkpt lat="50.37513" lon="4.87473">
        <ele>81.4</ele>
        <time>2025-04-05T12:28:21Z</time>
      </trkpt>
      <trkpt lat="50.37516" lon="4.87467">
        <ele>81.6</ele>
        <time>2025-04-05T12:28:22Z</time>
      </trkpt>
      <trkpt lat="50.37519" lon="4.8746">
        <ele>81.6</ele>
        <time>2025-04-05T12:28:23Z</time>
      </trkpt>
      <trkpt lat="50.37521" lon="4.87454">
        <ele>81.8</ele>
        <time>2025-04-05T12:28:24Z</time>
      </trkpt>
      <trkpt lat="50.37523" lon="4.87448">
        <ele>82</ele>
        <time>2025-04-05T12:28:25Z</time>
      </trkpt>
      <trkpt lat="50.37525" lon="4.87442">
        <ele>82</ele>
        <time>2025-04-05T12:28:26Z</time>
      </trkpt>
      <trkpt lat="50.37527" lon="4.87437">
        <ele>82</ele>
        <time>2025-04-05T12:28:27Z</time>
      </trkpt>
      <trkpt lat="50.37529" lon="4.87431">
        <ele>82.2</ele>
        <time>2025-04-05T12:28:28Z</time>
      </trkpt>
      <trkpt lat="50.37531" lon="4.87425">
        <ele>82.2</ele>
        <time>2025-04-05T12:28:29Z</time>
      </trkpt>
      <trkpt lat="50.37534" lon="4.87418">
        <ele>82.2</ele>
        <time>2025-04-05T12:28:30Z</time>
      </trkpt>
      <trkpt lat="50.37536" lon="4.87412">
        <ele>82.2</ele>
        <time>2025-04-05T12:28:31Z</time>
      </trkpt>
      <trkpt lat="50.37538" lon="4.87405">
        <ele>82.2</ele>
        <time>2025-04-05T12:28:32Z</time>
      </trkpt>
      <trkpt lat="50.3754" lon="4.87399">
        <ele>82</ele>
        <time>2025-04-05T12:28:33Z</time>
      </trkpt>
      <trkpt lat="50.37543" lon="4.87392">
        <ele>82</ele>
        <time>2025-04-05T12:28:34Z</time>
      </trkpt>
      <trkpt lat="50.37545" lon="4.87386">
        <ele>82</ele>
        <time>2025-04-05T12:28:35Z</time>
      </trkpt>
      <trkpt lat="50.37547" lon="4.8738">
        <ele>82</ele>
        <time>2025-04-05T12:28:36Z</time>
      </trkpt>
      <trkpt lat="50.37549" lon="4.87373">
        <ele>82</ele>
        <time>2025-04-05T12:28:37Z</time>
      </trkpt>
      <trkpt lat="50.37552" lon="4.87366">
        <ele>82</ele>
        <time>2025-04-05T12:28:38Z</time>
      </trkpt>
      <trkpt lat="50.37554" lon="4.8736">
        <ele>82</ele>
        <time>2025-04-05T12:28:39Z</time>
      </trkpt>
      <trkpt lat="50.37557" lon="4.87353">
        <ele>81.8</ele>
        <time>2025-04-05T12:28:40Z</time>
      </trkpt>
      <trkpt lat="50.37559" lon="4.87347">
        <ele>81.8</ele>
        <time>2025-04-05T12:28:41Z</time>
      </trkpt>
      <trkpt lat="50.37561" lon="4.8734">
        <ele>81.8</ele>
        <time>2025-04-05T12:28:42Z</time>
      </trkpt>
      <trkpt lat="50.37564" lon="4.87332">
        <ele>82</ele>
        <time>2025-04-05T12:28:43Z</time>
      </trkpt>
      <trkpt lat="50.37566" lon="4.87326">
        <ele>82</ele>
        <time>2025-04-05T12:28:44Z</time>
      </trkpt>
      <trkpt lat="50.37569" lon="4.87318">
        <ele>81.8</ele>
        <time>2025-04-05T12:28:45Z</time>
      </trkpt>
      <trkpt lat="50.37572" lon="4.8731">
        <ele>82</ele>
        <time>2025-04-05T12:28:46Z</time>
      </trkpt>
      <trkpt lat="50.37574" lon="4.87303">
        <ele>82</ele>
        <time>2025-04-05T12:28:47Z</time>
      </trkpt>
      <trkpt lat="50.37577" lon="4.87296">
        <ele>82</ele>
        <time>2025-04-05T12:28:48Z</time>
      </trkpt>
      <trkpt lat="50.37579" lon="4.8729">
        <ele>81.8</ele>
        <time>2025-04-05T12:28:49Z</time>
      </trkpt>
      <trkpt lat="50.37581" lon="4.87283">
        <ele>81.8</ele>
        <time>2025-04-05T12:28:50Z</time>
      </trkpt>
      <trkpt lat="50.37583" lon="4.87276">
        <ele>81.6</ele>
        <time>2025-04-05T12:28:51Z</time>
      </trkpt>
      <trkpt lat="50.37585" lon="4.8727">
        <ele>81.4</ele>
        <time>2025-04-05T12:28:52Z</time>
      </trkpt>
      <trkpt lat="50.37588" lon="4.87264">
        <ele>81.2</ele>
        <time>2025-04-05T12:28:53Z</time>
      </trkpt>
      <trkpt lat="50.3759" lon="4.87256">
        <ele>81</ele>
        <time>2025-04-05T12:28:54Z</time>
      </trkpt>
      <trkpt lat="50.37594" lon="4.87249">
        <ele>81</ele>
        <time>2025-04-05T12:28:55Z</time>
      </trkpt>
      <trkpt lat="50.37597" lon="4.8724">
        <ele>81</ele>
        <time>2025-04-05T12:28:56Z</time>
      </trkpt>
      <trkpt lat="50.37599" lon="4.87233">
        <ele>80.8</ele>
        <time>2025-04-05T12:28:57Z</time>
      </trkpt>
      <trkpt lat="50.37602" lon="4.87226">
        <ele>80.6</ele>
        <time>2025-04-05T12:28:58Z</time>
      </trkpt>
      <trkpt lat="50.37604" lon="4.87219">
        <ele>80.6</ele>
        <time>2025-04-05T12:28:59Z</time>
      </trkpt>
      <trkpt lat="50.37606" lon="4.87212">
        <ele>80.6</ele>
        <time>2025-04-05T12:29:00Z</time>
      </trkpt>
      <trkpt lat="50.3761" lon="4.87205">
        <ele>80.6</ele>
        <time>2025-04-05T12:29:01Z</time>
      </trkpt>
      <trkpt lat="50.37612" lon="4.87197">
        <ele>80.6</ele>
        <time>2025-04-05T12:29:02Z</time>
      </trkpt>
      <trkpt lat="50.37614" lon="4.8719">
        <ele>80.4</ele>
        <time>2025-04-05T12:29:03Z</time>
      </trkpt>
      <trkpt lat="50.37618" lon="4.87182">
        <ele>80.4</ele>
        <time>2025-04-05T12:29:04Z</time>
      </trkpt>
      <trkpt lat="50.37621" lon="4.87174">
        <ele>80.2</ele>
        <time>2025-04-05T12:29:05Z</time>
      </trkpt>
      <trkpt lat="50.37624" lon="4.87167">
        <ele>80</ele>
        <time>2025-04-05T12:29:06Z</time>
      </trkpt>
      <trkpt lat="50.37626" lon="4.87159">
        <ele>79.6</ele>
        <time>2025-04-05T12:29:07Z</time>
      </trkpt>
      <trkpt lat="50.37629" lon="4.8715">
        <ele>79.4</ele>
        <time>2025-04-05T12:29:08Z</time>
      </trkpt>
      <trkpt lat="50.37632" lon="4.87141">
        <ele>79.2</ele>
        <time>2025-04-05T12:29:09Z</time>
      </trkpt>
      <trkpt lat="50.37635" lon="4.87132">
        <ele>78.8</ele>
        <time>2025-04-05T12:29:10Z</time>
      </trkpt>
      <trkpt lat="50.37639" lon="4.87123">
        <ele>78.6</ele>
        <time>2025-04-05T12:29:11Z</time>
      </trkpt>
      <trkpt lat="50.37642" lon="4.87114">
        <ele>78.4</ele>
        <time>2025-04-05T12:29:12Z</time>
      </trkpt>
      <trkpt lat="50.37645" lon="4.87105">
        <ele>78</ele>
        <time>2025-04-05T12:29:13Z</time>
      </trkpt>
      <trkpt lat="50.37648" lon="4.87096">
        <ele>77.8</ele>
        <time>2025-04-05T12:29:14Z</time>
      </trkpt>
      <trkpt lat="50.37651" lon="4.87086">
        <ele>77.6</ele>
        <time>2025-04-05T12:29:15Z</time>
      </trkpt>
      <trkpt lat="50.37655" lon="4.87076">
        <ele>77.6</ele>
        <time>2025-04-05T12:29:16Z</time>
      </trkpt>
      <trkpt lat="50.37658" lon="4.87066">
        <ele>77.2</ele>
        <time>2025-04-05T12:29:17Z</time>
      </trkpt>
      <trkpt lat="50.37661" lon="4.87056">
        <ele>76.8</ele>
        <time>2025-04-05T12:29:18Z</time>
      </trkpt>
      <trkpt lat="50.37665" lon="4.87045">
        <ele>76.2</ele>
        <time>2025-04-05T12:29:19Z</time>
      </trkpt>
      <trkpt lat="50.37668" lon="4.87036">
        <ele>76</ele>
        <time>2025-04-05T12:29:20Z</time>
      </trkpt>
      <trkpt lat="50.37672" lon="4.87026">
        <ele>75.8</ele>
        <time>2025-04-05T12:29:21Z</time>
      </trkpt>
      <trkpt lat="50.37676" lon="4.87015">
        <ele>75.6</ele>
        <time>2025-04-05T12:29:22Z</time>
      </trkpt>
      <trkpt lat="50.37679" lon="4.87005">
        <ele>75.2</ele>
        <time>2025-04-05T12:29:23Z</time>
      </trkpt>
      <trkpt lat="50.37682" lon="4.86993">
        <ele>75</ele>
        <time>2025-04-05T12:29:24Z</time>
      </trkpt>
      <trkpt lat="50.37687" lon="4.86983">
        <ele>74.6</ele>
        <time>2025-04-05T12:29:25Z</time>
      </trkpt>
      <trkpt lat="50.3769" lon="4.86972">
        <ele>74.4</ele>
        <time>2025-04-05T12:29:26Z</time>
      </trkpt>
      <trkpt lat="50.37695" lon="4.86961">
        <ele>74.2</ele>
        <time>2025-04-05T12:29:27Z</time>
      </trkpt>
      <trkpt lat="50.377" lon="4.86951">
        <ele>74</ele>
        <time>2025-04-05T12:29:28Z</time>
      </trkpt>
      <trkpt lat="50.37703" lon="4.86943">
        <ele>73.6</ele>
        <time>2025-04-05T12:29:29Z</time>
      </trkpt>
      <trkpt lat="50.37708" lon="4.86933">
        <ele>73.4</ele>
        <time>2025-04-05T12:29:30Z</time>
      </trkpt>
      <trkpt lat="50.37712" lon="4.86924">
        <ele>73.2</ele>
        <time>2025-04-05T12:29:31Z</time>
      </trkpt>
      <trkpt lat="50.37717" lon="4.86915">
        <ele>73</ele>
        <time>2025-04-05T12:29:32Z</time>
      </trkpt>
      <trkpt lat="50.37722" lon="4.86907">
        <ele>72.8</ele>
        <time>2025-04-05T12:29:33Z</time>
      </trkpt>
      <trkpt lat="50.37727" lon="4.86899">
        <ele>72.6</ele>
        <time>2025-04-05T12:29:34Z</time>
      </trkpt>
      <trkpt lat="50.37732" lon="4.86892">
        <ele>72.4</ele>
        <time>2025-04-05T12:29:35Z</time>
      </trkpt>
      <trkpt lat="50.37736" lon="4.86885">
        <ele>72.2</ele>
        <time>2025-04-05T12:29:36Z</time>
      </trkpt>
      <trkpt lat="50.37741" lon="4.86879">
        <ele>72</ele>
        <time>2025-04-05T12:29:37Z</time>
      </trkpt>
      <trkpt lat="50.37746" lon="4.86875">
        <ele>71.8</ele>
        <time>2025-04-05T12:29:38Z</time>
      </trkpt>
      <trkpt lat="50.37752" lon="4.86871">
        <ele>71.8</ele>
        <time>2025-04-05T12:29:39Z</time>
      </trkpt>
      <trkpt lat="50.37758" lon="4.86868">
        <ele>71.6</ele>
        <time>2025-04-05T12:29:40Z</time>
      </trkpt>
      <trkpt lat="50.37764" lon="4.86864">
        <ele>71.4</ele>
        <time>2025-04-05T12:29:41Z</time>
      </trkpt>
      <trkpt lat="50.3777" lon="4.86859">
        <ele>71.2</ele>
        <time>2025-04-05T12:29:42Z</time>
      </trkpt>
      <trkpt lat="50.37775" lon="4.86852">
        <ele>71.2</ele>
        <time>2025-04-05T12:29:43Z</time>
      </trkpt>
      <trkpt lat="50.37777" lon="4.86846">
        <ele>71</ele>
        <time>2025-04-05T12:29:44Z</time>
      </trkpt>
      <trkpt lat="50.37781" lon="4.86838">
        <ele>71</ele>
        <time>2025-04-05T12:29:45Z</time>
      </trkpt>
      <trkpt lat="50.37785" lon="4.86831">
        <ele>71</ele>
        <time>2025-04-05T12:29:46Z</time>
      </trkpt>
      <trkpt lat="50.37789" lon="4.86826">
        <ele>70.8</ele>
        <time>2025-04-05T12:29:47Z</time>
      </trkpt>
      <trkpt lat="50.37795" lon="4.86821">
        <ele>70.6</ele>
        <time>2025-04-05T12:29:48Z</time>
      </trkpt>
      <trkpt lat="50.378" lon="4.86815">
        <ele>70.4</ele>
        <time>2025-04-05T12:29:49Z</time>
      </trkpt>
      <trkpt lat="50.37805" lon="4.86809">
        <ele>70.4</ele>
        <time>2025-04-05T12:29:50Z</time>
      </trkpt>
      <trkpt lat="50.37811" lon="4.86804">
        <ele>70.2</ele>
        <time>2025-04-05T12:29:51Z</time>
      </trkpt>
      <trkpt lat="50.37817" lon="4.86799">
        <ele>70.2</ele>
        <time>2025-04-05T12:29:52Z</time>
      </trkpt>
      <trkpt lat="50.37822" lon="4.86794">
        <ele>70</ele>
        <time>2025-04-05T12:29:53Z</time>
      </trkpt>
      <trkpt lat="50.37827" lon="4.86789">
        <ele>70</ele>
        <time>2025-04-05T12:29:54Z</time>
      </trkpt>
      <trkpt lat="50.37833" lon="4.86783">
        <ele>69.8</ele>
        <time>2025-04-05T12:29:55Z</time>
      </trkpt>
      <trkpt lat="50.37838" lon="4.86778">
        <ele>69.8</ele>
        <time>2025-04-05T12:29:56Z</time>
      </trkpt>
      <trkpt lat="50.37843" lon="4.86773">
        <ele>69.6</ele>
        <time>2025-04-05T12:29:57Z</time>
      </trkpt>
      <trkpt lat="50.37848" lon="4.86768">
        <ele>69.6</ele>
        <time>2025-04-05T12:29:58Z</time>
      </trkpt>
      <trkpt lat="50.37853" lon="4.86764">
        <ele>69.4</ele>
        <time>2025-04-05T12:29:59Z</time>
      </trkpt>
      <trkpt lat="50.37858" lon="4.86758">
        <ele>69.4</ele>
        <time>2025-04-05T12:30:00Z</time>
      </trkpt>
      <trkpt lat="50.37863" lon="4.86753">
        <ele>69.4</ele>
        <time>2025-04-05T12:30:01Z</time>
      </trkpt>
      <trkpt lat="50.37868" lon="4.86747">
        <ele>69.2</ele>
        <time>2025-04-05T12:30:02Z</time>
      </trkpt>
      <trkpt lat="50.37874" lon="4.86742">
        <ele>69</ele>
        <time>2025-04-05T12:30:03Z</time>
      </trkpt>
      <trkpt lat="50.3788" lon="4.86736">
        <ele>68.8</ele>
        <time>2025-04-05T12:30:04Z</time>
      </trkpt>
      <trkpt lat="50.37886" lon="4.86731">
        <ele>68.8</ele>
        <time>2025-04-05T12:30:05Z</time>
      </trkpt>
      <trkpt lat="50.37891" lon="4.86726">
        <ele>68.6</ele>
        <time>2025-04-05T12:30:06Z</time>
      </trkpt>
      <trkpt lat="50.37895" lon="4.86722">
        <ele>68.6</ele>
        <time>2025-04-05T12:30:07Z</time>
      </trkpt>
      <trkpt lat="50.379" lon="4.86717">
        <ele>68.6</ele>
        <time>2025-04-05T12:30:08Z</time>
      </trkpt>
      <trkpt lat="50.37906" lon="4.86711">
        <ele>68.6</ele>
        <time>2025-04-05T12:30:09Z</time>
      </trkpt>
      <trkpt lat="50.37912" lon="4.86706">
        <ele>68.4</ele>
        <time>2025-04-05T12:30:10Z</time>
      </trkpt>
      <trkpt lat="50.37917" lon="4.86702">
        <ele>68.4</ele>
        <time>2025-04-05T12:30:11Z</time>
      </trkpt>
      <trkpt lat="50.37923" lon="4.86697">
        <ele>68.2</ele>
        <time>2025-04-05T12:30:12Z</time>
      </trkpt>
      <trkpt lat="50.37931" lon="4.86691">
        <ele>68</ele>
        <time>2025-04-05T12:30:13Z</time>
      </trkpt>
      <trkpt lat="50.37937" lon="4.86687">
        <ele>68</ele>
        <time>2025-04-05T12:30:14Z</time>
      </trkpt>
      <trkpt lat="50.37943" lon="4.86683">
        <ele>68</ele>
        <time>2025-04-05T12:30:15Z</time>
      </trkpt>
      <trkpt lat="50.37949" lon="4.8668">
        <ele>67.8</ele>
        <time>2025-04-05T12:30:16Z</time>
      </trkpt>
      <trkpt lat="50.37957" lon="4.86676">
        <ele>67.8</ele>
        <time>2025-04-05T12:30:17Z</time>
      </trkpt>
      <trkpt lat="50.37963" lon="4.86672">
        <ele>67.6</ele>
        <time>2025-04-05T12:30:18Z</time>
      </trkpt>
      <trkpt lat="50.37969" lon="4.86669">
        <ele>67.6</ele>
        <time>2025-04-05T12:30:19Z</time>
      </trkpt>
      <trkpt lat="50.37975" lon="4.86666">
        <ele>67.6</ele>
        <time>2025-04-05T12:30:20Z</time>
      </trkpt>
      <trkpt lat="50.37981" lon="4.86664">
        <ele>67.6</ele>
        <time>2025-04-05T12:30:21Z</time>
      </trkpt>
      <trkpt lat="50.37988" lon="4.86661">
        <ele>67.4</ele>
        <time>2025-04-05T12:30:22Z</time>
      </trkpt>
      <trkpt lat="50.37994" lon="4.86658">
        <ele>67.4</ele>
        <time>2025-04-05T12:30:23Z</time>
      </trkpt>
      <trkpt lat="50.38" lon="4.86656">
        <ele>67.4</ele>
        <time>2025-04-05T12:30:24Z</time>
      </trkpt>
      <trkpt lat="50.38006" lon="4.86654">
        <ele>67.4</ele>
        <time>2025-04-05T12:30:25Z</time>
      </trkpt>
      <trkpt lat="50.38012" lon="4.86652">
        <ele>67.4</ele>
        <time>2025-04-05T12:30:26Z</time>
      </trkpt>
      <trkpt lat="50.3802" lon="4.8665">
        <ele>67.6</ele>
        <time>2025-04-05T12:30:27Z</time>
      </trkpt>
      <trkpt lat="50.38025" lon="4.86649">
        <ele>67.6</ele>
        <time>2025-04-05T12:30:28Z</time>
      </trkpt>
      <trkpt lat="50.38031" lon="4.86648">
        <ele>67.6</ele>
        <time>2025-04-05T12:30:29Z</time>
      </trkpt>
      <trkpt lat="50.38038" lon="4.86647">
        <ele>67.6</ele>
        <time>2025-04-05T12:30:30Z</time>
      </trkpt>
      <trkpt lat="50.38044" lon="4.86646">
        <ele>67.6</ele>
        <time>2025-04-05T12:30:31Z</time>
      </trkpt>
      <trkpt lat="50.3805" lon="4.86645">
        <ele>67.6</ele>
        <time>2025-04-05T12:30:32Z</time>
      </trkpt>
      <trkpt lat="50.38056" lon="4.86644">
        <ele>67.4</ele>
        <time>2025-04-05T12:30:33Z</time>
      </trkpt>
      <trkpt lat="50.38062" lon="4.86644">
        <ele>67.4</ele>
        <time>2025-04-05T12:30:34Z</time>
      </trkpt>
      <trkpt lat="50.38068" lon="4.86644">
        <ele>67.2</ele>
        <time>2025-04-05T12:30:35Z</time>
      </trkpt>
      <trkpt lat="50.38074" lon="4.86645">
        <ele>67.2</ele>
        <time>2025-04-05T12:30:36Z</time>
      </trkpt>
      <trkpt lat="50.3808" lon="4.86645">
        <ele>67.2</ele>
        <time>2025-04-05T12:30:37Z</time>
      </trkpt>
      <trkpt lat="50.38086" lon="4.86645">
        <ele>67.4</ele>
        <time>2025-04-05T12:30:38Z</time>
      </trkpt>
      <trkpt lat="50.38092" lon="4.86646">
        <ele>67.4</ele>
        <time>2025-04-05T12:30:39Z</time>
      </trkpt>
      <trkpt lat="50.38099" lon="4.86646">
        <ele>67.4</ele>
        <time>2025-04-05T12:30:40Z</time>
      </trkpt>
      <trkpt lat="50.38105" lon="4.86647">
        <ele>67.4</ele>
        <time>2025-04-05T12:30:41Z</time>
      </trkpt>
      <trkpt lat="50.38112" lon="4.86649">
        <ele>67.4</ele>
        <time>2025-04-05T12:30:42Z</time>
      </trkpt>
      <trkpt lat="50.38118" lon="4.86651">
        <ele>67.4</ele>
        <time>2025-04-05T12:30:43Z</time>
      </trkpt>
      <trkpt lat="50.38125" lon="4.86652">
        <ele>67.4</ele>
        <time>2025-04-05T12:30:44Z</time>
      </trkpt>
      <trkpt lat="50.3813" lon="4.86654">
        <ele>67.4</ele>
        <time>2025-04-05T12:30:45Z</time>
      </trkpt>
      <trkpt lat="50.38135" lon="4.86656">
        <ele>67.6</ele>
        <time>2025-04-05T12:30:46Z</time>
      </trkpt>
      <trkpt lat="50.38139" lon="4.86657">
        <ele>67.6</ele>
        <time>2025-04-05T12:30:47Z</time>
      </trkpt>
      <trkpt lat="50.38144" lon="4.86659">
        <ele>67.6</ele>
        <time>2025-04-05T12:30:48Z</time>
      </trkpt>
      <trkpt lat="50.38149" lon="4.86661">
        <ele>67.6</ele>
        <time>2025-04-05T12:30:49Z</time>
      </trkpt>
      <trkpt lat="50.38154" lon="4.86663">
        <ele>67.6</ele>
        <time>2025-04-05T12:30:50Z</time>
      </trkpt>
      <trkpt lat="50.3816" lon="4.86665">
        <ele>67.6</ele>
        <time>2025-04-05T12:30:51Z</time>
      </trkpt>
      <trkpt lat="50.38166" lon="4.86668">
        <ele>67.8</ele>
        <time>2025-04-05T12:30:52Z</time>
      </trkpt>
      <trkpt lat="50.38172" lon="4.86671">
        <ele>67.8</ele>
        <time>2025-04-05T12:30:53Z</time>
      </trkpt>
      <trkpt lat="50.38178" lon="4.86674">
        <ele>67.6</ele>
        <time>2025-04-05T12:30:54Z</time>
      </trkpt>
      <trkpt lat="50.38184" lon="4.86678">
        <ele>67.6</ele>
        <time>2025-04-05T12:30:55Z</time>
      </trkpt>
      <trkpt lat="50.3819" lon="4.86681">
        <ele>67.4</ele>
        <time>2025-04-05T12:30:56Z</time>
      </trkpt>
      <trkpt lat="50.38196" lon="4.86684">
        <ele>67.4</ele>
        <time>2025-04-05T12:30:57Z</time>
      </trkpt>
      <trkpt lat="50.38202" lon="4.86687">
        <ele>67.4</ele>
        <time>2025-04-05T12:30:58Z</time>
      </trkpt>
      <trkpt lat="50.38208" lon="4.86691">
        <ele>67.4</ele>
        <time>2025-04-05T12:30:59Z</time>
      </trkpt>
      <trkpt lat="50.38215" lon="4.86695">
        <ele>67.4</ele>
        <time>2025-04-05T12:31:00Z</time>
      </trkpt>
      <trkpt lat="50.38221" lon="4.86698">
        <ele>67.4</ele>
        <time>2025-04-05T12:31:01Z</time>
      </trkpt>
      <trkpt lat="50.38227" lon="4.86702">
        <ele>67.2</ele>
        <time>2025-04-05T12:31:02Z</time>
      </trkpt>
      <trkpt lat="50.38233" lon="4.86706">
        <ele>67</ele>
        <time>2025-04-05T12:31:03Z</time>
      </trkpt>
      <trkpt lat="50.3824" lon="4.86709">
        <ele>67.2</ele>
        <time>2025-04-05T12:31:04Z</time>
      </trkpt>
      <trkpt lat="50.38246" lon="4.86713">
        <ele>67.2</ele>
        <time>2025-04-05T12:31:05Z</time>
      </trkpt>
      <trkpt lat="50.38252" lon="4.86716">
        <ele>67.2</ele>
        <time>2025-04-05T12:31:06Z</time>
      </trkpt>
      <trkpt lat="50.38258" lon="4.86719">
        <ele>67.2</ele>
        <time>2025-04-05T12:31:07Z</time>
      </trkpt>
      <trkpt lat="50.38264" lon="4.86723">
        <ele>67.2</ele>
        <time>2025-04-05T12:31:08Z</time>
      </trkpt>
      <trkpt lat="50.3827" lon="4.86727">
        <ele>67.2</ele>
        <time>2025-04-05T12:31:09Z</time>
      </trkpt>
      <trkpt lat="50.38277" lon="4.86731">
        <ele>67.2</ele>
        <time>2025-04-05T12:31:10Z</time>
      </trkpt>
      <trkpt lat="50.38283" lon="4.86736">
        <ele>67.2</ele>
        <time>2025-04-05T12:31:11Z</time>
      </trkpt>
      <trkpt lat="50.38288" lon="4.86741">
        <ele>67.2</ele>
        <time>2025-04-05T12:31:12Z</time>
      </trkpt>
      <trkpt lat="50.38294" lon="4.86747">
        <ele>67.4</ele>
        <time>2025-04-05T12:31:13Z</time>
      </trkpt>
      <trkpt lat="50.38299" lon="4.86752">
        <ele>67.4</ele>
        <time>2025-04-05T12:31:14Z</time>
      </trkpt>
      <trkpt lat="50.38303" lon="4.86759">
        <ele>67.4</ele>
        <time>2025-04-05T12:31:15Z</time>
      </trkpt>
      <trkpt lat="50.38308" lon="4.86765">
        <ele>67.6</ele>
        <time>2025-04-05T12:31:16Z</time>
      </trkpt>
      <trkpt lat="50.38312" lon="4.86772">
        <ele>67.6</ele>
        <time>2025-04-05T12:31:17Z</time>
      </trkpt>
      <trkpt lat="50.38316" lon="4.8678">
        <ele>67.8</ele>
        <time>2025-04-05T12:31:18Z</time>
      </trkpt>
      <trkpt lat="50.3832" lon="4.86788">
        <ele>67.8</ele>
        <time>2025-04-05T12:31:19Z</time>
      </trkpt>
      <trkpt lat="50.38324" lon="4.86796">
        <ele>68</ele>
        <time>2025-04-05T12:31:20Z</time>
      </trkpt>
      <trkpt lat="50.38327" lon="4.86804">
        <ele>68</ele>
        <time>2025-04-05T12:31:21Z</time>
      </trkpt>
      <trkpt lat="50.38331" lon="4.86813">
        <ele>68</ele>
        <time>2025-04-05T12:31:22Z</time>
      </trkpt>
      <trkpt lat="50.38333" lon="4.86821">
        <ele>68.2</ele>
        <time>2025-04-05T12:31:23Z</time>
      </trkpt>
      <trkpt lat="50.38336" lon="4.8683">
        <ele>68.4</ele>
        <time>2025-04-05T12:31:24Z</time>
      </trkpt>
      <trkpt lat="50.38338" lon="4.86838">
        <ele>68.6</ele>
        <time>2025-04-05T12:31:25Z</time>
      </trkpt>
      <trkpt lat="50.3834" lon="4.86847">
        <ele>68.8</ele>
        <time>2025-04-05T12:31:26Z</time>
      </trkpt>
      <trkpt lat="50.38342" lon="4.86856">
        <ele>68.8</ele>
        <time>2025-04-05T12:31:27Z</time>
      </trkpt>
      <trkpt lat="50.38343" lon="4.86865">
        <ele>69</ele>
        <time>2025-04-05T12:31:28Z</time>
      </trkpt>
      <trkpt lat="50.38345" lon="4.86874">
        <ele>69.2</ele>
        <time>2025-04-05T12:31:29Z</time>
      </trkpt>
      <trkpt lat="50.38346" lon="4.86883">
        <ele>69.4</ele>
        <time>2025-04-05T12:31:30Z</time>
      </trkpt>
      <trkpt lat="50.38348" lon="4.86891">
        <ele>69.4</ele>
        <time>2025-04-05T12:31:31Z</time>
      </trkpt>
      <trkpt lat="50.38349" lon="4.869">
        <ele>69.6</ele>
        <time>2025-04-05T12:31:32Z</time>
      </trkpt>
      <trkpt lat="50.3835" lon="4.86909">
        <ele>69.6</ele>
        <time>2025-04-05T12:31:33Z</time>
      </trkpt>
      <trkpt lat="50.3835" lon="4.86918">
        <ele>69.6</ele>
        <time>2025-04-05T12:31:34Z</time>
      </trkpt>
      <trkpt lat="50.38351" lon="4.86927">
        <ele>69.6</ele>
        <time>2025-04-05T12:31:35Z</time>
      </trkpt>
      <trkpt lat="50.38351" lon="4.86936">
        <ele>69.6</ele>
        <time>2025-04-05T12:31:36Z</time>
      </trkpt>
      <trkpt lat="50.3835" lon="4.86945">
        <ele>69.6</ele>
        <time>2025-04-05T12:31:37Z</time>
      </trkpt>
      <trkpt lat="50.3835" lon="4.86954">
        <ele>69.6</ele>
        <time>2025-04-05T12:31:38Z</time>
      </trkpt>
      <trkpt lat="50.3835" lon="4.86964">
        <ele>69.6</ele>
        <time>2025-04-05T12:31:39Z</time>
      </trkpt>
      <trkpt lat="50.3835" lon="4.86973">
        <ele>69.8</ele>
        <time>2025-04-05T12:31:40Z</time>
      </trkpt>
      <trkpt lat="50.3835" lon="4.86983">
        <ele>69.6</ele>
        <time>2025-04-05T12:31:41Z</time>
      </trkpt>
      <trkpt lat="50.3835" lon="4.86992">
        <ele>69.6</ele>
        <time>2025-04-05T12:31:42Z</time>
      </trkpt>
      <trkpt lat="50.3835" lon="4.87002">
        <ele>69.6</ele>
        <time>2025-04-05T12:31:43Z</time>
      </trkpt>
      <trkpt lat="50.38351" lon="4.87011">
        <ele>69.4</ele>
        <time>2025-04-05T12:31:44Z</time>
      </trkpt>
      <trkpt lat="50.38351" lon="4.8702">
        <ele>69.2</ele>
        <time>2025-04-05T12:31:45Z</time>
      </trkpt>
      <trkpt lat="50.38352" lon="4.87031">
        <ele>69</ele>
        <time>2025-04-05T12:31:46Z</time>
      </trkpt>
      <trkpt lat="50.38354" lon="4.87041">
        <ele>68.8</ele>
        <time>2025-04-05T12:31:47Z</time>
      </trkpt>
      <trkpt lat="50.38355" lon="4.8705">
        <ele>68.8</ele>
        <time>2025-04-05T12:31:48Z</time>
      </trkpt>
      <trkpt lat="50.38356" lon="4.87058">
        <ele>68.8</ele>
        <time>2025-04-05T12:31:49Z</time>
      </trkpt>
      <trkpt lat="50.38358" lon="4.87065">
        <ele>68.8</ele>
        <time>2025-04-05T12:31:50Z</time>
      </trkpt>
      <trkpt lat="50.38361" lon="4.87073">
        <ele>68.8</ele>
        <time>2025-04-05T12:31:51Z</time>
      </trkpt>
      <trkpt lat="50.38363" lon="4.87082">
        <ele>68.8</ele>
        <time>2025-04-05T12:31:52Z</time>
      </trkpt>
      <trkpt lat="50.38364" lon="4.87091">
        <ele>68.8</ele>
        <time>2025-04-05T12:31:53Z</time>
      </trkpt>
      <trkpt lat="50.38366" lon="4.87099">
        <ele>69</ele>
        <time>2025-04-05T12:31:54Z</time>
      </trkpt>
      <trkpt lat="50.38368" lon="4.87108">
        <ele>69.2</ele>
        <time>2025-04-05T12:31:55Z</time>
      </trkpt>
      <trkpt lat="50.38369" lon="4.87116">
        <ele>69.2</ele>
        <time>2025-04-05T12:31:56Z</time>
      </trkpt>
      <trkpt lat="50.38371" lon="4.87125">
        <ele>69.2</ele>
        <time>2025-04-05T12:31:57Z</time>
      </trkpt>
      <trkpt lat="50.38373" lon="4.87133">
        <ele>69</ele>
        <time>2025-04-05T12:31:58Z</time>
      </trkpt>
      <trkpt lat="50.38375" lon="4.87141">
        <ele>69</ele>
        <time>2025-04-05T12:31:59Z</time>
      </trkpt>
      <trkpt lat="50.38377" lon="4.87149">
        <ele>69</ele>
        <time>2025-04-05T12:32:00Z</time>
      </trkpt>
      <trkpt lat="50.38379" lon="4.87157">
        <ele>69</ele>
        <time>2025-04-05T12:32:01Z</time>
      </trkpt>
      <trkpt lat="50.3838" lon="4.87165">
        <ele>69.2</ele>
        <time>2025-04-05T12:32:02Z</time>
      </trkpt>
      <trkpt lat="50.38382" lon="4.87172">
        <ele>69.2</ele>
        <time>2025-04-05T12:32:03Z</time>
      </trkpt>
      <trkpt lat="50.38384" lon="4.87181">
        <ele>69.2</ele>
        <time>2025-04-05T12:32:04Z</time>
      </trkpt>
      <trkpt lat="50.38386" lon="4.87191">
        <ele>69.2</ele>
        <time>2025-04-05T12:32:05Z</time>
      </trkpt>
      <trkpt lat="50.38388" lon="4.87199">
        <ele>69.4</ele>
        <time>2025-04-05T12:32:06Z</time>
      </trkpt>
      <trkpt lat="50.3839" lon="4.87206">
        <ele>69.4</ele>
        <time>2025-04-05T12:32:07Z</time>
      </trkpt>
      <trkpt lat="50.38391" lon="4.87214">
        <ele>69.2</ele>
        <time>2025-04-05T12:32:08Z</time>
      </trkpt>
      <trkpt lat="50.38393" lon="4.87222">
        <ele>69.4</ele>
        <time>2025-04-05T12:32:09Z</time>
      </trkpt>
      <trkpt lat="50.38395" lon="4.8723">
        <ele>69.6</ele>
        <time>2025-04-05T12:32:10Z</time>
      </trkpt>
      <trkpt lat="50.38397" lon="4.87238">
        <ele>69.6</ele>
        <time>2025-04-05T12:32:11Z</time>
      </trkpt>
      <trkpt lat="50.38398" lon="4.87246">
        <ele>69.8</ele>
        <time>2025-04-05T12:32:12Z</time>
      </trkpt>
      <trkpt lat="50.384" lon="4.87253">
        <ele>69.6</ele>
        <time>2025-04-05T12:32:13Z</time>
      </trkpt>
      <trkpt lat="50.38401" lon="4.87261">
        <ele>69.6</ele>
        <time>2025-04-05T12:32:14Z</time>
      </trkpt>
      <trkpt lat="50.38403" lon="4.87269">
        <ele>69.6</ele>
        <time>2025-04-05T12:32:15Z</time>
      </trkpt>
      <trkpt lat="50.38405" lon="4.87277">
        <ele>69.6</ele>
        <time>2025-04-05T12:32:16Z</time>
      </trkpt>
      <trkpt lat="50.38406" lon="4.87285">
        <ele>69.4</ele>
        <time>2025-04-05T12:32:17Z</time>
      </trkpt>
      <trkpt lat="50.38408" lon="4.87293">
        <ele>69.4</ele>
        <time>2025-04-05T12:32:18Z</time>
      </trkpt>
      <trkpt lat="50.3841" lon="4.87301">
        <ele>69.4</ele>
        <time>2025-04-05T12:32:19Z</time>
      </trkpt>
      <trkpt lat="50.38412" lon="4.87309">
        <ele>69.4</ele>
        <time>2025-04-05T12:32:20Z</time>
      </trkpt>
      <trkpt lat="50.38414" lon="4.87318">
        <ele>69.4</ele>
        <time>2025-04-05T12:32:21Z</time>
      </trkpt>
      <trkpt lat="50.38416" lon="4.87326">
        <ele>69.4</ele>
        <time>2025-04-05T12:32:22Z</time>
      </trkpt>
      <trkpt lat="50.38419" lon="4.87334">
        <ele>69.4</ele>
        <time>2025-04-05T12:32:23Z</time>
      </trkpt>
      <trkpt lat="50.38421" lon="4.87342">
        <ele>69.4</ele>
        <time>2025-04-05T12:32:24Z</time>
      </trkpt>
      <trkpt lat="50.38422" lon="4.8735">
        <ele>69.6</ele>
        <time>2025-04-05T12:32:25Z</time>
      </trkpt>
      <trkpt lat="50.38425" lon="4.87359">
        <ele>69.6</ele>
        <time>2025-04-05T12:32:26Z</time>
      </trkpt>
      <trkpt lat="50.38427" lon="4.87367">
        <ele>69.6</ele>
        <time>2025-04-05T12:32:27Z</time>
      </trkpt>
      <trkpt lat="50.3843" lon="4.87375">
        <ele>69.6</ele>
        <time>2025-04-05T12:32:28Z</time>
      </trkpt>
      <trkpt lat="50.38432" lon="4.87383">
        <ele>69.6</ele>
        <time>2025-04-05T12:32:29Z</time>
      </trkpt>
      <trkpt lat="50.38435" lon="4.87391">
        <ele>69.4</ele>
        <time>2025-04-05T12:32:30Z</time>
      </trkpt>
      <trkpt lat="50.38438" lon="4.87399">
        <ele>69.4</ele>
        <time>2025-04-05T12:32:31Z</time>
      </trkpt>
      <trkpt lat="50.3844" lon="4.87406">
        <ele>69.4</ele>
        <time>2025-04-05T12:32:32Z</time>
      </trkpt>
      <trkpt lat="50.38443" lon="4.87414">
        <ele>69.4</ele>
        <time>2025-04-05T12:32:33Z</time>
      </trkpt>
      <trkpt lat="50.38445" lon="4.87421">
        <ele>69.2</ele>
        <time>2025-04-05T12:32:34Z</time>
      </trkpt>
      <trkpt lat="50.38447" lon="4.87429">
        <ele>69.2</ele>
        <time>2025-04-05T12:32:35Z</time>
      </trkpt>
      <trkpt lat="50.3845" lon="4.87438">
        <ele>69</ele>
        <time>2025-04-05T12:32:36Z</time>
      </trkpt>
      <trkpt lat="50.38452" lon="4.87446">
        <ele>68.8</ele>
        <time>2025-04-05T12:32:37Z</time>
      </trkpt>
      <trkpt lat="50.38454" lon="4.87455">
        <ele>68.6</ele>
        <time>2025-04-05T12:32:38Z</time>
      </trkpt>
      <trkpt lat="50.38457" lon="4.87464">
        <ele>68.6</ele>
        <time>2025-04-05T12:32:39Z</time>
      </trkpt>
      <trkpt lat="50.38459" lon="4.87473">
        <ele>68.6</ele>
        <time>2025-04-05T12:32:40Z</time>
      </trkpt>
      <trkpt lat="50.38462" lon="4.87482">
        <ele>68.6</ele>
        <time>2025-04-05T12:32:41Z</time>
      </trkpt>
      <trkpt lat="50.38465" lon="4.87491">
        <ele>68.6</ele>
        <time>2025-04-05T12:32:42Z</time>
      </trkpt>
      <trkpt lat="50.38467" lon="4.875">
        <ele>68.4</ele>
        <time>2025-04-05T12:32:43Z</time>
      </trkpt>
      <trkpt lat="50.38469" lon="4.87509">
        <ele>68.4</ele>
        <time>2025-04-05T12:32:44Z</time>
      </trkpt>
      <trkpt lat="50.38472" lon="4.87517">
        <ele>68.4</ele>
        <time>2025-04-05T12:32:45Z</time>
      </trkpt>
      <trkpt lat="50.38474" lon="4.87526">
        <ele>68.4</ele>
        <time>2025-04-05T12:32:46Z</time>
      </trkpt>
      <trkpt lat="50.38476" lon="4.87535">
        <ele>68.4</ele>
        <time>2025-04-05T12:32:47Z</time>
      </trkpt>
      <trkpt lat="50.38479" lon="4.87544">
        <ele>68.4</ele>
        <time>2025-04-05T12:32:48Z</time>
      </trkpt>
      <trkpt lat="50.3848" lon="4.87552">
        <ele>68.4</ele>
        <time>2025-04-05T12:32:49Z</time>
      </trkpt>
      <trkpt lat="50.38482" lon="4.8756">
        <ele>68.4</ele>
        <time>2025-04-05T12:32:50Z</time>
      </trkpt>
      <trkpt lat="50.38484" lon="4.87568">
        <ele>68.4</ele>
        <time>2025-04-05T12:32:51Z</time>
      </trkpt>
      <trkpt lat="50.38487" lon="4.87576">
        <ele>68.2</ele>
        <time>2025-04-05T12:32:52Z</time>
      </trkpt>
      <trkpt lat="50.3849" lon="4.87584">
        <ele>68.2</ele>
        <time>2025-04-05T12:32:53Z</time>
      </trkpt>
      <trkpt lat="50.38492" lon="4.87593">
        <ele>68.2</ele>
        <time>2025-04-05T12:32:54Z</time>
      </trkpt>
      <trkpt lat="50.38495" lon="4.87601">
        <ele>68.2</ele>
        <time>2025-04-05T12:32:55Z</time>
      </trkpt>
      <trkpt lat="50.38497" lon="4.8761">
        <ele>68</ele>
        <time>2025-04-05T12:32:56Z</time>
      </trkpt>
      <trkpt lat="50.385" lon="4.87618">
        <ele>68</ele>
        <time>2025-04-05T12:32:57Z</time>
      </trkpt>
      <trkpt lat="50.38503" lon="4.87627">
        <ele>67.8</ele>
        <time>2025-04-05T12:32:58Z</time>
      </trkpt>
      <trkpt lat="50.38506" lon="4.87635">
        <ele>67.8</ele>
        <time>2025-04-05T12:32:59Z</time>
      </trkpt>
      <trkpt lat="50.38509" lon="4.87643">
        <ele>67.8</ele>
        <time>2025-04-05T12:33:00Z</time>
      </trkpt>
      <trkpt lat="50.38513" lon="4.87651">
        <ele>67.8</ele>
        <time>2025-04-05T12:33:01Z</time>
      </trkpt>
      <trkpt lat="50.38517" lon="4.87658">
        <ele>67.8</ele>
        <time>2025-04-05T12:33:02Z</time>
      </trkpt>
      <trkpt lat="50.38521" lon="4.87665">
        <ele>68</ele>
        <time>2025-04-05T12:33:03Z</time>
      </trkpt>
      <trkpt lat="50.38525" lon="4.87672">
        <ele>68</ele>
        <time>2025-04-05T12:33:04Z</time>
      </trkpt>
      <trkpt lat="50.3853" lon="4.8768">
        <ele>68</ele>
        <time>2025-04-05T12:33:05Z</time>
      </trkpt>
      <trkpt lat="50.38535" lon="4.87686">
        <ele>68</ele>
        <time>2025-04-05T12:33:06Z</time>
      </trkpt>
      <trkpt lat="50.38539" lon="4.87693">
        <ele>68.2</ele>
        <time>2025-04-05T12:33:07Z</time>
      </trkpt>
      <trkpt lat="50.38543" lon="4.87699">
        <ele>68.2</ele>
        <time>2025-04-05T12:33:08Z</time>
      </trkpt>
      <trkpt lat="50.38548" lon="4.87704">
        <ele>68.4</ele>
        <time>2025-04-05T12:33:09Z</time>
      </trkpt>
      <trkpt lat="50.38553" lon="4.8771">
        <ele>68.4</ele>
        <time>2025-04-05T12:33:10Z</time>
      </trkpt>
      <trkpt lat="50.38557" lon="4.87715">
        <ele>68.4</ele>
        <time>2025-04-05T12:33:11Z</time>
      </trkpt>
      <trkpt lat="50.38562" lon="4.87719">
        <ele>68.6</ele>
        <time>2025-04-05T12:33:12Z</time>
      </trkpt>
      <trkpt lat="50.38567" lon="4.87723">
        <ele>68.6</ele>
        <time>2025-04-05T12:33:13Z</time>
      </trkpt>
      <trkpt lat="50.38572" lon="4.87726">
        <ele>68.8</ele>
        <time>2025-04-05T12:33:14Z</time>
      </trkpt>
      <trkpt lat="50.38577" lon="4.8773">
        <ele>69</ele>
        <time>2025-04-05T12:33:15Z</time>
      </trkpt>
      <trkpt lat="50.38583" lon="4.87733">
        <ele>69</ele>
        <time>2025-04-05T12:33:16Z</time>
      </trkpt>
      <trkpt lat="50.38588" lon="4.87735">
        <ele>69.2</ele>
        <time>2025-04-05T12:33:17Z</time>
      </trkpt>
      <trkpt lat="50.38593" lon="4.87738">
        <ele>69.2</ele>
        <time>2025-04-05T12:33:18Z</time>
      </trkpt>
      <trkpt lat="50.38598" lon="4.8774">
        <ele>69.2</ele>
        <time>2025-04-05T12:33:19Z</time>
      </trkpt>
      <trkpt lat="50.38603" lon="4.87743">
        <ele>69.2</ele>
        <time>2025-04-05T12:33:20Z</time>
      </trkpt>
      <trkpt lat="50.38608" lon="4.87746">
        <ele>69.4</ele>
        <time>2025-04-05T12:33:21Z</time>
      </trkpt>
      <trkpt lat="50.38613" lon="4.87748">
        <ele>69.4</ele>
        <time>2025-04-05T12:33:22Z</time>
      </trkpt>
      <trkpt lat="50.38619" lon="4.87751">
        <ele>69.6</ele>
        <time>2025-04-05T12:33:23Z</time>
      </trkpt>
      <trkpt lat="50.38624" lon="4.87754">
        <ele>69.6</ele>
        <time>2025-04-05T12:33:24Z</time>
      </trkpt>
      <trkpt lat="50.3863" lon="4.87757">
        <ele>69.6</ele>
        <time>2025-04-05T12:33:25Z</time>
      </trkpt>
      <trkpt lat="50.38635" lon="4.8776">
        <ele>69.8</ele>
        <time>2025-04-05T12:33:26Z</time>
      </trkpt>
      <trkpt lat="50.38639" lon="4.87763">
        <ele>69.8</ele>
        <time>2025-04-05T12:33:27Z</time>
      </trkpt>
      <trkpt lat="50.38644" lon="4.87766">
        <ele>69.8</ele>
        <time>2025-04-05T12:33:28Z</time>
      </trkpt>
      <trkpt lat="50.38649" lon="4.87769">
        <ele>69.8</ele>
        <time>2025-04-05T12:33:29Z</time>
      </trkpt>
      <trkpt lat="50.38654" lon="4.87772">
        <ele>69.8</ele>
        <time>2025-04-05T12:33:30Z</time>
      </trkpt>
      <trkpt lat="50.38659" lon="4.87775">
        <ele>69.8</ele>
        <time>2025-04-05T12:33:31Z</time>
      </trkpt>
      <trkpt lat="50.38664" lon="4.87777">
        <ele>69.8</ele>
        <time>2025-04-05T12:33:32Z</time>
      </trkpt>
      <trkpt lat="50.38668" lon="4.8778">
        <ele>69.8</ele>
        <time>2025-04-05T12:33:33Z</time>
      </trkpt>
      <trkpt lat="50.38673" lon="4.87782">
        <ele>69.8</ele>
        <time>2025-04-05T12:33:34Z</time>
      </trkpt>
      <trkpt lat="50.38678" lon="4.87785">
        <ele>69.8</ele>
        <time>2025-04-05T12:33:35Z</time>
      </trkpt>
      <trkpt lat="50.38683" lon="4.87786">
        <ele>70</ele>
        <time>2025-04-05T12:33:36Z</time>
      </trkpt>
      <trkpt lat="50.38688" lon="4.87789">
        <ele>70.2</ele>
        <time>2025-04-05T12:33:37Z</time>
      </trkpt>
      <trkpt lat="50.38693" lon="4.8779">
        <ele>70.2</ele>
        <time>2025-04-05T12:33:38Z</time>
      </trkpt>
      <trkpt lat="50.38698" lon="4.87791">
        <ele>70.2</ele>
        <time>2025-04-05T12:33:39Z</time>
      </trkpt>
      <trkpt lat="50.38702" lon="4.87792">
        <ele>70.2</ele>
        <time>2025-04-05T12:33:40Z</time>
      </trkpt>
      <trkpt lat="50.38707" lon="4.87792">
        <ele>70.2</ele>
        <time>2025-04-05T12:33:41Z</time>
      </trkpt>
      <trkpt lat="50.38712" lon="4.87792">
        <ele>70.2</ele>
        <time>2025-04-05T12:33:42Z</time>
      </trkpt>
      <trkpt lat="50.38716" lon="4.87793">
        <ele>70.4</ele>
        <time>2025-04-05T12:33:43Z</time>
      </trkpt>
      <trkpt lat="50.38721" lon="4.87793">
        <ele>70.8</ele>
        <time>2025-04-05T12:33:44Z</time>
      </trkpt>
      <trkpt lat="50.38726" lon="4.87793">
        <ele>71</ele>
        <time>2025-04-05T12:33:45Z</time>
      </trkpt>
      <trkpt lat="50.3873" lon="4.87793">
        <ele>71</ele>
        <time>2025-04-05T12:33:46Z</time>
      </trkpt>
      <trkpt lat="50.38736" lon="4.87793">
        <ele>71.2</ele>
        <time>2025-04-05T12:33:47Z</time>
      </trkpt>
      <trkpt lat="50.38741" lon="4.87792">
        <ele>71.2</ele>
        <time>2025-04-05T12:33:48Z</time>
      </trkpt>
      <trkpt lat="50.38746" lon="4.87792">
        <ele>71.4</ele>
        <time>2025-04-05T12:33:49Z</time>
      </trkpt>
      <trkpt lat="50.3875" lon="4.87792">
        <ele>71.2</ele>
        <time>2025-04-05T12:33:50Z</time>
      </trkpt>
      <trkpt lat="50.38755" lon="4.87792">
        <ele>71</ele>
        <time>2025-04-05T12:33:51Z</time>
      </trkpt>
      <trkpt lat="50.3876" lon="4.87792">
        <ele>70.8</ele>
        <time>2025-04-05T12:33:52Z</time>
      </trkpt>
      <trkpt lat="50.38765" lon="4.87792">
        <ele>70.8</ele>
        <time>2025-04-05T12:33:53Z</time>
      </trkpt>
      <trkpt lat="50.3877" lon="4.87791">
        <ele>70.8</ele>
        <time>2025-04-05T12:33:54Z</time>
      </trkpt>
      <trkpt lat="50.38775" lon="4.87791">
        <ele>70.6</ele>
        <time>2025-04-05T12:33:55Z</time>
      </trkpt>
      <trkpt lat="50.3878" lon="4.87791">
        <ele>70.6</ele>
        <time>2025-04-05T12:33:56Z</time>
      </trkpt>
      <trkpt lat="50.38786" lon="4.87791">
        <ele>70.6</ele>
        <time>2025-04-05T12:33:57Z</time>
      </trkpt>
      <trkpt lat="50.38791" lon="4.87791">
        <ele>70.6</ele>
        <time>2025-04-05T12:33:58Z</time>
      </trkpt>
      <trkpt lat="50.38795" lon="4.87791">
        <ele>70.6</ele>
        <time>2025-04-05T12:33:59Z</time>
      </trkpt>
      <trkpt lat="50.388" lon="4.8779">
        <ele>70.6</ele>
        <time>2025-04-05T12:34:00Z</time>
      </trkpt>
      <trkpt lat="50.38807" lon="4.8779">
        <ele>70.6</ele>
        <time>2025-04-05T12:34:01Z</time>
      </trkpt>
      <trkpt lat="50.38812" lon="4.8779">
        <ele>70.4</ele>
        <time>2025-04-05T12:34:02Z</time>
      </trkpt>
      <trkpt lat="50.38817" lon="4.87789">
        <ele>70.2</ele>
        <time>2025-04-05T12:34:03Z</time>
      </trkpt>
      <trkpt lat="50.38822" lon="4.87789">
        <ele>70</ele>
        <time>2025-04-05T12:34:04Z</time>
      </trkpt>
      <trkpt lat="50.38828" lon="4.87789">
        <ele>70</ele>
        <time>2025-04-05T12:34:05Z</time>
      </trkpt>
      <trkpt lat="50.38833" lon="4.87789">
        <ele>69.8</ele>
        <time>2025-04-05T12:34:06Z</time>
      </trkpt>
      <trkpt lat="50.38839" lon="4.87789">
        <ele>69.8</ele>
        <time>2025-04-05T12:34:07Z</time>
      </trkpt>
      <trkpt lat="50.38845" lon="4.87789">
        <ele>69.8</ele>
        <time>2025-04-05T12:34:08Z</time>
      </trkpt>
      <trkpt lat="50.38851" lon="4.87788">
        <ele>69.6</ele>
        <time>2025-04-05T12:34:09Z</time>
      </trkpt>
      <trkpt lat="50.38857" lon="4.87788">
        <ele>69.6</ele>
        <time>2025-04-05T12:34:10Z</time>
      </trkpt>
      <trkpt lat="50.38863" lon="4.87788">
        <ele>69.4</ele>
        <time>2025-04-05T12:34:11Z</time>
      </trkpt>
      <trkpt lat="50.38868" lon="4.87787">
        <ele>69.2</ele>
        <time>2025-04-05T12:34:12Z</time>
      </trkpt>
      <trkpt lat="50.38874" lon="4.87787">
        <ele>69.2</ele>
        <time>2025-04-05T12:34:13Z</time>
      </trkpt>
      <trkpt lat="50.38879" lon="4.87787">
        <ele>69.4</ele>
        <time>2025-04-05T12:34:14Z</time>
      </trkpt>
      <trkpt lat="50.38884" lon="4.87787">
        <ele>69.4</ele>
        <time>2025-04-05T12:34:15Z</time>
      </trkpt>
      <trkpt lat="50.3889" lon="4.87787">
        <ele>69.4</ele>
        <time>2025-04-05T12:34:16Z</time>
      </trkpt>
      <trkpt lat="50.38896" lon="4.87786">
        <ele>69.4</ele>
        <time>2025-04-05T12:34:17Z</time>
      </trkpt>
      <trkpt lat="50.38902" lon="4.87786">
        <ele>69.6</ele>
        <time>2025-04-05T12:34:18Z</time>
      </trkpt>
      <trkpt lat="50.38907" lon="4.87786">
        <ele>69.6</ele>
        <time>2025-04-05T12:34:19Z</time>
      </trkpt>
      <trkpt lat="50.38913" lon="4.87786">
        <ele>69.6</ele>
        <time>2025-04-05T12:34:20Z</time>
      </trkpt>
      <trkpt lat="50.38919" lon="4.87786">
        <ele>69.8</ele>
        <time>2025-04-05T12:34:21Z</time>
      </trkpt>
      <trkpt lat="50.38924" lon="4.87786">
        <ele>69.8</ele>
        <time>2025-04-05T12:34:22Z</time>
      </trkpt>
      <trkpt lat="50.38929" lon="4.87786">
        <ele>70</ele>
        <time>2025-04-05T12:34:23Z</time>
      </trkpt>
      <trkpt lat="50.38934" lon="4.87786">
        <ele>70.2</ele>
        <time>2025-04-05T12:34:24Z</time>
      </trkpt>
      <trkpt lat="50.38939" lon="4.87785">
        <ele>70.4</ele>
        <time>2025-04-05T12:34:25Z</time>
      </trkpt>
      <trkpt lat="50.38944" lon="4.87785">
        <ele>70.6</ele>
        <time>2025-04-05T12:34:26Z</time>
      </trkpt>
      <trkpt lat="50.38949" lon="4.87785">
        <ele>70.8</ele>
        <time>2025-04-05T12:34:27Z</time>
      </trkpt>
      <trkpt lat="50.38954" lon="4.87785">
        <ele>71</ele>
        <time>2025-04-05T12:34:28Z</time>
      </trkpt>
      <trkpt lat="50.38959" lon="4.87784">
        <ele>71.4</ele>
        <time>2025-04-05T12:34:29Z</time>
      </trkpt>
      <trkpt lat="50.38964" lon="4.87784">
        <ele>71.6</ele>
        <time>2025-04-05T12:34:30Z</time>
      </trkpt>
      <trkpt lat="50.38969" lon="4.87784">
        <ele>71.8</ele>
        <time>2025-04-05T12:34:31Z</time>
      </trkpt>
      <trkpt lat="50.38974" lon="4.87784">
        <ele>71.8</ele>
        <time>2025-04-05T12:34:32Z</time>
      </trkpt>
      <trkpt lat="50.3898" lon="4.87784">
        <ele>72</ele>
        <time>2025-04-05T12:34:33Z</time>
      </trkpt>
      <trkpt lat="50.38985" lon="4.87784">
        <ele>72</ele>
        <time>2025-04-05T12:34:34Z</time>
      </trkpt>
      <trkpt lat="50.3899" lon="4.87783">
        <ele>72</ele>
        <time>2025-04-05T12:34:35Z</time>
      </trkpt>
      <trkpt lat="50.38996" lon="4.87783">
        <ele>72</ele>
        <time>2025-04-05T12:34:36Z</time>
      </trkpt>
      <trkpt lat="50.39001" lon="4.87783">
        <ele>72.2</ele>
        <time>2025-04-05T12:34:37Z</time>
      </trkpt>
      <trkpt lat="50.39006" lon="4.87783">
        <ele>72.4</ele>
        <time>2025-04-05T12:34:38Z</time>
      </trkpt>
      <trkpt lat="50.39011" lon="4.87782">
        <ele>72.4</ele>
        <time>2025-04-05T12:34:39Z</time>
      </trkpt>
      <trkpt lat="50.39016" lon="4.87782">
        <ele>72.4</ele>
        <time>2025-04-05T12:34:40Z</time>
      </trkpt>
      <trkpt lat="50.39022" lon="4.87781">
        <ele>72.6</ele>
        <time>2025-04-05T12:34:41Z</time>
      </trkpt>
      <trkpt lat="50.39028" lon="4.87781">
        <ele>72.6</ele>
        <time>2025-04-05T12:34:42Z</time>
      </trkpt>
      <trkpt lat="50.39033" lon="4.87781">
        <ele>72.8</ele>
        <time>2025-04-05T12:34:43Z</time>
      </trkpt>
      <trkpt lat="50.39039" lon="4.8778">
        <ele>73</ele>
        <time>2025-04-05T12:34:44Z</time>
      </trkpt>
      <trkpt lat="50.39045" lon="4.8778">
        <ele>73</ele>
        <time>2025-04-05T12:34:45Z</time>
      </trkpt>
      <trkpt lat="50.3905" lon="4.8778">
        <ele>73</ele>
        <time>2025-04-05T12:34:46Z</time>
      </trkpt>
      <trkpt lat="50.39056" lon="4.8778">
        <ele>73.2</ele>
        <time>2025-04-05T12:34:47Z</time>
      </trkpt>
      <trkpt lat="50.39061" lon="4.87781">
        <ele>73.4</ele>
        <time>2025-04-05T12:34:48Z</time>
      </trkpt>
      <trkpt lat="50.39066" lon="4.87781">
        <ele>73.4</ele>
        <time>2025-04-05T12:34:49Z</time>
      </trkpt>
      <trkpt lat="50.39072" lon="4.87782">
        <ele>73.6</ele>
        <time>2025-04-05T12:34:50Z</time>
      </trkpt>
      <trkpt lat="50.39077" lon="4.87781">
        <ele>73.8</ele>
        <time>2025-04-05T12:34:51Z</time>
      </trkpt>
      <trkpt lat="50.39082" lon="4.87782">
        <ele>74</ele>
        <time>2025-04-05T12:34:52Z</time>
      </trkpt>
      <trkpt lat="50.39088" lon="4.87783">
        <ele>74.2</ele>
        <time>2025-04-05T12:34:53Z</time>
      </trkpt>
      <trkpt lat="50.39093" lon="4.87783">
        <ele>74.4</ele>
        <time>2025-04-05T12:34:54Z</time>
      </trkpt>
      <trkpt lat="50.39098" lon="4.87783">
        <ele>74.4</ele>
        <time>2025-04-05T12:34:55Z</time>
      </trkpt>
      <trkpt lat="50.39103" lon="4.87784">
        <ele>74.6</ele>
        <time>2025-04-05T12:34:56Z</time>
      </trkpt>
      <trkpt lat="50.39108" lon="4.87784">
        <ele>74.6</ele>
        <time>2025-04-05T12:34:57Z</time>
      </trkpt>
      <trkpt lat="50.39113" lon="4.87785">
        <ele>74.6</ele>
        <time>2025-04-05T12:34:58Z</time>
      </trkpt>
      <trkpt lat="50.39119" lon="4.87785">
        <ele>74.8</ele>
        <time>2025-04-05T12:34:59Z</time>
      </trkpt>
      <trkpt lat="50.39124" lon="4.87785">
        <ele>75</ele>
        <time>2025-04-05T12:35:00Z</time>
      </trkpt>
      <trkpt lat="50.39129" lon="4.87786">
        <ele>75.2</ele>
        <time>2025-04-05T12:35:01Z</time>
      </trkpt>
      <trkpt lat="50.39134" lon="4.87786">
        <ele>75.2</ele>
        <time>2025-04-05T12:35:02Z</time>
      </trkpt>
      <trkpt lat="50.39139" lon="4.87787">
        <ele>75.4</ele>
        <time>2025-04-05T12:35:03Z</time>
      </trkpt>
      <trkpt lat="50.39144" lon="4.87787">
        <ele>75.4</ele>
        <time>2025-04-05T12:35:04Z</time>
      </trkpt>
      <trkpt lat="50.3915" lon="4.87788">
        <ele>75.6</ele>
        <time>2025-04-05T12:35:05Z</time>
      </trkpt>
      <trkpt lat="50.39155" lon="4.87789">
        <ele>75.8</ele>
        <time>2025-04-05T12:35:06Z</time>
      </trkpt>
      <trkpt lat="50.3916" lon="4.8779">
        <ele>76</ele>
        <time>2025-04-05T12:35:07Z</time>
      </trkpt>
      <trkpt lat="50.39164" lon="4.87791">
        <ele>76</ele>
        <time>2025-04-05T12:35:08Z</time>
      </trkpt>
      <trkpt lat="50.39169" lon="4.87792">
        <ele>76.2</ele>
        <time>2025-04-05T12:35:09Z</time>
      </trkpt>
      <trkpt lat="50.39175" lon="4.87793">
        <ele>76.4</ele>
        <time>2025-04-05T12:35:10Z</time>
      </trkpt>
      <trkpt lat="50.39179" lon="4.87794">
        <ele>76.4</ele>
        <time>2025-04-05T12:35:11Z</time>
      </trkpt>
      <trkpt lat="50.39184" lon="4.87795">
        <ele>76.6</ele>
        <time>2025-04-05T12:35:12Z</time>
      </trkpt>
      <trkpt lat="50.39189" lon="4.87796">
        <ele>76.8</ele>
        <time>2025-04-05T12:35:13Z</time>
      </trkpt>
      <trkpt lat="50.39194" lon="4.87796">
        <ele>76.8</ele>
        <time>2025-04-05T12:35:14Z</time>
      </trkpt>
      <trkpt lat="50.39198" lon="4.87797">
        <ele>77</ele>
        <time>2025-04-05T12:35:15Z</time>
      </trkpt>
      <trkpt lat="50.39202" lon="4.87797">
        <ele>77.2</ele>
        <time>2025-04-05T12:35:16Z</time>
      </trkpt>
      <trkpt lat="50.39206" lon="4.87797">
        <ele>77.2</ele>
        <time>2025-04-05T12:35:17Z</time>
      </trkpt>
      <trkpt lat="50.39211" lon="4.87798">
        <ele>77.2</ele>
        <time>2025-04-05T12:35:18Z</time>
      </trkpt>
      <trkpt lat="50.39216" lon="4.87799">
        <ele>77.2</ele>
        <time>2025-04-05T12:35:19Z</time>
      </trkpt>
      <trkpt lat="50.39222" lon="4.87801">
        <ele>77.4</ele>
        <time>2025-04-05T12:35:20Z</time>
      </trkpt>
      <trkpt lat="50.39227" lon="4.87802">
        <ele>77.4</ele>
        <time>2025-04-05T12:35:21Z</time>
      </trkpt>
      <trkpt lat="50.39232" lon="4.87803">
        <ele>77.4</ele>
        <time>2025-04-05T12:35:22Z</time>
      </trkpt>
      <trkpt lat="50.39237" lon="4.87804">
        <ele>77.4</ele>
        <time>2025-04-05T12:35:23Z</time>
      </trkpt>
      <trkpt lat="50.39242" lon="4.87805">
        <ele>77.4</ele>
        <time>2025-04-05T12:35:24Z</time>
      </trkpt>
      <trkpt lat="50.39247" lon="4.87806">
        <ele>77.4</ele>
        <time>2025-04-05T12:35:25Z</time>
      </trkpt>
      <trkpt lat="50.39252" lon="4.87807">
        <ele>77.4</ele>
        <time>2025-04-05T12:35:26Z</time>
      </trkpt>
      <trkpt lat="50.39257" lon="4.87808">
        <ele>77.4</ele>
        <time>2025-04-05T12:35:27Z</time>
      </trkpt>
      <trkpt lat="50.39261" lon="4.87809">
        <ele>77.6</ele>
        <time>2025-04-05T12:35:28Z</time>
      </trkpt>
      <trkpt lat="50.39266" lon="4.8781">
        <ele>77.6</ele>
        <time>2025-04-05T12:35:29Z</time>
      </trkpt>
      <trkpt lat="50.3927" lon="4.87809">
        <ele>77.6</ele>
        <time>2025-04-05T12:35:30Z</time>
      </trkpt>
      <trkpt lat="50.39275" lon="4.8781">
        <ele>77.8</ele>
        <time>2025-04-05T12:35:31Z</time>
      </trkpt>
      <trkpt lat="50.39281" lon="4.87811">
        <ele>77.8</ele>
        <time>2025-04-05T12:35:32Z</time>
      </trkpt>
      <trkpt lat="50.39286" lon="4.87811">
        <ele>78</ele>
        <time>2025-04-05T12:35:33Z</time>
      </trkpt>
      <trkpt lat="50.39292" lon="4.87812">
        <ele>78</ele>
        <time>2025-04-05T12:35:34Z</time>
      </trkpt>
      <trkpt lat="50.39298" lon="4.87815">
        <ele>78.2</ele>
        <time>2025-04-05T12:35:35Z</time>
      </trkpt>
      <trkpt lat="50.39303" lon="4.87817">
        <ele>78.2</ele>
        <time>2025-04-05T12:35:36Z</time>
      </trkpt>
      <trkpt lat="50.39309" lon="4.87818">
        <ele>78.2</ele>
        <time>2025-04-05T12:35:37Z</time>
      </trkpt>
      <trkpt lat="50.39314" lon="4.87818">
        <ele>78</ele>
        <time>2025-04-05T12:35:38Z</time>
      </trkpt>
      <trkpt lat="50.3932" lon="4.8782">
        <ele>78</ele>
        <time>2025-04-05T12:35:39Z</time>
      </trkpt>
      <trkpt lat="50.39326" lon="4.87822">
        <ele>77.8</ele>
        <time>2025-04-05T12:35:40Z</time>
      </trkpt>
      <trkpt lat="50.39331" lon="4.87823">
        <ele>77.8</ele>
        <time>2025-04-05T12:35:41Z</time>
      </trkpt>
      <trkpt lat="50.39337" lon="4.87824">
        <ele>77.6</ele>
        <time>2025-04-05T12:35:42Z</time>
      </trkpt>
      <trkpt lat="50.39341" lon="4.87824">
        <ele>77.6</ele>
        <time>2025-04-05T12:35:43Z</time>
      </trkpt>
      <trkpt lat="50.39345" lon="4.87827">
        <ele>77.4</ele>
        <time>2025-04-05T12:35:44Z</time>
      </trkpt>
      <trkpt lat="50.39351" lon="4.87828">
        <ele>77.2</ele>
        <time>2025-04-05T12:35:45Z</time>
      </trkpt>
      <trkpt lat="50.39357" lon="4.8783">
        <ele>77.2</ele>
        <time>2025-04-05T12:35:46Z</time>
      </trkpt>
      <trkpt lat="50.39365" lon="4.87835">
        <ele>77</ele>
        <time>2025-04-05T12:35:47Z</time>
      </trkpt>
      <trkpt lat="50.39372" lon="4.8784">
        <ele>77</ele>
        <time>2025-04-05T12:35:48Z</time>
      </trkpt>
      <trkpt lat="50.39379" lon="4.87844">
        <ele>77</ele>
        <time>2025-04-05T12:35:49Z</time>
      </trkpt>
      <trkpt lat="50.39385" lon="4.87847">
        <ele>76.8</ele>
        <time>2025-04-05T12:35:50Z</time>
      </trkpt>
      <trkpt lat="50.39391" lon="4.8785">
        <ele>76.6</ele>
        <time>2025-04-05T12:35:51Z</time>
      </trkpt>
      <trkpt lat="50.39397" lon="4.87854">
        <ele>76.4</ele>
        <time>2025-04-05T12:35:52Z</time>
      </trkpt>
      <trkpt lat="50.39403" lon="4.87858">
        <ele>76.4</ele>
        <time>2025-04-05T12:35:53Z</time>
      </trkpt>
      <trkpt lat="50.39409" lon="4.87861">
        <ele>76.2</ele>
        <time>2025-04-05T12:35:54Z</time>
      </trkpt>
      <trkpt lat="50.39413" lon="4.87864">
        <ele>76</ele>
        <time>2025-04-05T12:35:55Z</time>
      </trkpt>
      <trkpt lat="50.39417" lon="4.87869">
        <ele>75.8</ele>
        <time>2025-04-05T12:35:56Z</time>
      </trkpt>
      <trkpt lat="50.39423" lon="4.87873">
        <ele>75.6</ele>
        <time>2025-04-05T12:35:57Z</time>
      </trkpt>
      <trkpt lat="50.39429" lon="4.87877">
        <ele>75.4</ele>
        <time>2025-04-05T12:35:58Z</time>
      </trkpt>
      <trkpt lat="50.39434" lon="4.87881">
        <ele>75.2</ele>
        <time>2025-04-05T12:35:59Z</time>
      </trkpt>
      <trkpt lat="50.39439" lon="4.87885">
        <ele>75</ele>
        <time>2025-04-05T12:36:00Z</time>
      </trkpt>
      <trkpt lat="50.39445" lon="4.8789">
        <ele>74.6</ele>
        <time>2025-04-05T12:36:01Z</time>
      </trkpt>
      <trkpt lat="50.39451" lon="4.87895">
        <ele>74.4</ele>
        <time>2025-04-05T12:36:02Z</time>
      </trkpt>
      <trkpt lat="50.39456" lon="4.87899">
        <ele>74.2</ele>
        <time>2025-04-05T12:36:03Z</time>
      </trkpt>
      <trkpt lat="50.39462" lon="4.87904">
        <ele>74</ele>
        <time>2025-04-05T12:36:04Z</time>
      </trkpt>
      <trkpt lat="50.39467" lon="4.87908">
        <ele>74</ele>
        <time>2025-04-05T12:36:05Z</time>
      </trkpt>
      <trkpt lat="50.39473" lon="4.87913">
        <ele>73.8</ele>
        <time>2025-04-05T12:36:06Z</time>
      </trkpt>
      <trkpt lat="50.39479" lon="4.87917">
        <ele>73.4</ele>
        <time>2025-04-05T12:36:07Z</time>
      </trkpt>
      <trkpt lat="50.39486" lon="4.87922">
        <ele>73.2</ele>
        <time>2025-04-05T12:36:08Z</time>
      </trkpt>
      <trkpt lat="50.39492" lon="4.87927">
        <ele>73</ele>
        <time>2025-04-05T12:36:09Z</time>
      </trkpt>
      <trkpt lat="50.39498" lon="4.87932">
        <ele>72.8</ele>
        <time>2025-04-05T12:36:10Z</time>
      </trkpt>
      <trkpt lat="50.39504" lon="4.87937">
        <ele>72.6</ele>
        <time>2025-04-05T12:36:11Z</time>
      </trkpt>
      <trkpt lat="50.39511" lon="4.87942">
        <ele>72.4</ele>
        <time>2025-04-05T12:36:12Z</time>
      </trkpt>
      <trkpt lat="50.39517" lon="4.87947">
        <ele>72.2</ele>
        <time>2025-04-05T12:36:13Z</time>
      </trkpt>
      <trkpt lat="50.39525" lon="4.87952">
        <ele>72</ele>
        <time>2025-04-05T12:36:14Z</time>
      </trkpt>
      <trkpt lat="50.39532" lon="4.87957">
        <ele>71.8</ele>
        <time>2025-04-05T12:36:15Z</time>
      </trkpt>
      <trkpt lat="50.39539" lon="4.87961">
        <ele>71.4</ele>
        <time>2025-04-05T12:36:16Z</time>
      </trkpt>
      <trkpt lat="50.39547" lon="4.87965">
        <ele>71.2</ele>
        <time>2025-04-05T12:36:17Z</time>
      </trkpt>
      <trkpt lat="50.39554" lon="4.87969">
        <ele>70.8</ele>
        <time>2025-04-05T12:36:18Z</time>
      </trkpt>
      <trkpt lat="50.39562" lon="4.87973">
        <ele>70.4</ele>
        <time>2025-04-05T12:36:19Z</time>
      </trkpt>
      <trkpt lat="50.39572" lon="4.87977">
        <ele>70.2</ele>
        <time>2025-04-05T12:36:20Z</time>
      </trkpt>
      <trkpt lat="50.39581" lon="4.8798">
        <ele>69.8</ele>
        <time>2025-04-05T12:36:21Z</time>
      </trkpt>
      <trkpt lat="50.3959" lon="4.87982">
        <ele>69.4</ele>
        <time>2025-04-05T12:36:22Z</time>
      </trkpt>
      <trkpt lat="50.39598" lon="4.87983">
        <ele>69.2</ele>
        <time>2025-04-05T12:36:23Z</time>
      </trkpt>
      <trkpt lat="50.39607" lon="4.87984">
        <ele>68.8</ele>
        <time>2025-04-05T12:36:24Z</time>
      </trkpt>
      <trkpt lat="50.39616" lon="4.87984">
        <ele>68.6</ele>
        <time>2025-04-05T12:36:25Z</time>
      </trkpt>
      <trkpt lat="50.39624" lon="4.87984">
        <ele>68.4</ele>
        <time>2025-04-05T12:36:26Z</time>
      </trkpt>
      <trkpt lat="50.39632" lon="4.87984">
        <ele>68.2</ele>
        <time>2025-04-05T12:36:27Z</time>
      </trkpt>
      <trkpt lat="50.3964" lon="4.87983">
        <ele>68.2</ele>
        <time>2025-04-05T12:36:28Z</time>
      </trkpt>
      <trkpt lat="50.39648" lon="4.87981">
        <ele>68</ele>
        <time>2025-04-05T12:36:29Z</time>
      </trkpt>
      <trkpt lat="50.39655" lon="4.87979">
        <ele>68</ele>
        <time>2025-04-05T12:36:30Z</time>
      </trkpt>
      <trkpt lat="50.39661" lon="4.87977">
        <ele>67.8</ele>
        <time>2025-04-05T12:36:31Z</time>
      </trkpt>
      <trkpt lat="50.39668" lon="4.87975">
        <ele>67.8</ele>
        <time>2025-04-05T12:36:32Z</time>
      </trkpt>
      <trkpt lat="50.39675" lon="4.87972">
        <ele>67.8</ele>
        <time>2025-04-05T12:36:33Z</time>
      </trkpt>
      <trkpt lat="50.39682" lon="4.87969">
        <ele>67.8</ele>
        <time>2025-04-05T12:36:34Z</time>
      </trkpt>
      <trkpt lat="50.39687" lon="4.87966">
        <ele>68</ele>
        <time>2025-04-05T12:36:35Z</time>
      </trkpt>
      <trkpt lat="50.39693" lon="4.87963">
        <ele>68.2</ele>
        <time>2025-04-05T12:36:36Z</time>
      </trkpt>
      <trkpt lat="50.397" lon="4.8796">
        <ele>68.2</ele>
        <time>2025-04-05T12:36:37Z</time>
      </trkpt>
      <trkpt lat="50.39706" lon="4.87957">
        <ele>68.4</ele>
        <time>2025-04-05T12:36:38Z</time>
      </trkpt>
      <trkpt lat="50.39711" lon="4.87954">
        <ele>68.6</ele>
        <time>2025-04-05T12:36:39Z</time>
      </trkpt>
      <trkpt lat="50.39716" lon="4.8795">
        <ele>68.8</ele>
        <time>2025-04-05T12:36:40Z</time>
      </trkpt>
      <trkpt lat="50.39722" lon="4.87947">
        <ele>69</ele>
        <time>2025-04-05T12:36:41Z</time>
      </trkpt>
      <trkpt lat="50.39727" lon="4.87943">
        <ele>69.2</ele>
        <time>2025-04-05T12:36:42Z</time>
      </trkpt>
      <trkpt lat="50.39732" lon="4.87941">
        <ele>69.4</ele>
        <time>2025-04-05T12:36:43Z</time>
      </trkpt>
      <trkpt lat="50.39737" lon="4.87938">
        <ele>69.6</ele>
        <time>2025-04-05T12:36:44Z</time>
      </trkpt>
      <trkpt lat="50.39741" lon="4.87936">
        <ele>70</ele>
        <time>2025-04-05T12:36:45Z</time>
      </trkpt>
      <trkpt lat="50.39745" lon="4.87933">
        <ele>70.2</ele>
        <time>2025-04-05T12:36:46Z</time>
      </trkpt>
      <trkpt lat="50.39751" lon="4.8793">
        <ele>70.6</ele>
        <time>2025-04-05T12:36:47Z</time>
      </trkpt>
      <trkpt lat="50.39756" lon="4.87927">
        <ele>70.8</ele>
        <time>2025-04-05T12:36:48Z</time>
      </trkpt>
      <trkpt lat="50.3976" lon="4.87924">
        <ele>71.2</ele>
        <time>2025-04-05T12:36:49Z</time>
      </trkpt>
      <trkpt lat="50.39765" lon="4.87921">
        <ele>71.4</ele>
        <time>2025-04-05T12:36:50Z</time>
      </trkpt>
      <trkpt lat="50.39771" lon="4.87918">
        <ele>71.6</ele>
        <time>2025-04-05T12:36:51Z</time>
      </trkpt>
      <trkpt lat="50.39776" lon="4.87915">
        <ele>71.6</ele>
        <time>2025-04-05T12:36:52Z</time>
      </trkpt>
      <trkpt lat="50.3978" lon="4.87912">
        <ele>71.8</ele>
        <time>2025-04-05T12:36:53Z</time>
      </trkpt>
      <trkpt lat="50.39785" lon="4.87909">
        <ele>72.2</ele>
        <time>2025-04-05T12:36:54Z</time>
      </trkpt>
      <trkpt lat="50.3979" lon="4.87906">
        <ele>72.2</ele>
        <time>2025-04-05T12:36:55Z</time>
      </trkpt>
      <trkpt lat="50.39795" lon="4.87903">
        <ele>72.4</ele>
        <time>2025-04-05T12:36:56Z</time>
      </trkpt>
      <trkpt lat="50.398" lon="4.879">
        <ele>72.6</ele>
        <time>2025-04-05T12:36:57Z</time>
      </trkpt>
      <trkpt lat="50.39804" lon="4.87897">
        <ele>72.8</ele>
        <time>2025-04-05T12:36:58Z</time>
      </trkpt>
      <trkpt lat="50.39809" lon="4.87895">
        <ele>73</ele>
        <time>2025-04-05T12:36:59Z</time>
      </trkpt>
      <trkpt lat="50.39814" lon="4.87892">
        <ele>73.2</ele>
        <time>2025-04-05T12:37:00Z</time>
      </trkpt>
      <trkpt lat="50.39819" lon="4.8789">
        <ele>73.4</ele>
        <time>2025-04-05T12:37:01Z</time>
      </trkpt>
      <trkpt lat="50.39825" lon="4.87888">
        <ele>73.6</ele>
        <time>2025-04-05T12:37:02Z</time>
      </trkpt>
      <trkpt lat="50.3983" lon="4.87886">
        <ele>73.8</ele>
        <time>2025-04-05T12:37:03Z</time>
      </trkpt>
      <trkpt lat="50.39834" lon="4.87883">
        <ele>73.8</ele>
        <time>2025-04-05T12:37:04Z</time>
      </trkpt>
      <trkpt lat="50.39839" lon="4.87881">
        <ele>74</ele>
        <time>2025-04-05T12:37:05Z</time>
      </trkpt>
      <trkpt lat="50.39843" lon="4.87878">
        <ele>74.2</ele>
        <time>2025-04-05T12:37:06Z</time>
      </trkpt>
      <trkpt lat="50.39848" lon="4.87875">
        <ele>74.6</ele>
        <time>2025-04-05T12:37:07Z</time>
      </trkpt>
      <trkpt lat="50.39853" lon="4.87873">
        <ele>74.8</ele>
        <time>2025-04-05T12:37:08Z</time>
      </trkpt>
      <trkpt lat="50.39858" lon="4.87871">
        <ele>74.8</ele>
        <time>2025-04-05T12:37:09Z</time>
      </trkpt>
      <trkpt lat="50.39863" lon="4.87869">
        <ele>75</ele>
        <time>2025-04-05T12:37:10Z</time>
      </trkpt>
      <trkpt lat="50.39868" lon="4.87867">
        <ele>75</ele>
        <time>2025-04-05T12:37:11Z</time>
      </trkpt>
      <trkpt lat="50.39872" lon="4.87865">
        <ele>75</ele>
        <time>2025-04-05T12:37:12Z</time>
      </trkpt>
      <trkpt lat="50.39878" lon="4.87863">
        <ele>75</ele>
        <time>2025-04-05T12:37:13Z</time>
      </trkpt>
      <trkpt lat="50.39883" lon="4.87862">
        <ele>75</ele>
        <time>2025-04-05T12:37:14Z</time>
      </trkpt>
      <trkpt lat="50.39888" lon="4.8786">
        <ele>75.2</ele>
        <time>2025-04-05T12:37:15Z</time>
      </trkpt>
      <trkpt lat="50.39893" lon="4.87858">
        <ele>75.4</ele>
        <time>2025-04-05T12:37:16Z</time>
      </trkpt>
      <trkpt lat="50.39898" lon="4.87857">
        <ele>75.4</ele>
        <time>2025-04-05T12:37:17Z</time>
      </trkpt>
      <trkpt lat="50.39903" lon="4.87857">
        <ele>75.4</ele>
        <time>2025-04-05T12:37:18Z</time>
      </trkpt>
      <trkpt lat="50.39908" lon="4.87858">
        <ele>75.4</ele>
        <time>2025-04-05T12:37:19Z</time>
      </trkpt>
      <trkpt lat="50.39913" lon="4.87858">
        <ele>75.4</ele>
        <time>2025-04-05T12:37:20Z</time>
      </trkpt>
      <trkpt lat="50.39919" lon="4.87859">
        <ele>75.4</ele>
        <time>2025-04-05T12:37:21Z</time>
      </trkpt>
      <trkpt lat="50.39924" lon="4.8786">
        <ele>75.2</ele>
        <time>2025-04-05T12:37:22Z</time>
      </trkpt>
      <trkpt lat="50.3993" lon="4.87861">
        <ele>75</ele>
        <time>2025-04-05T12:37:23Z</time>
      </trkpt>
      <trkpt lat="50.39935" lon="4.87862">
        <ele>74.8</ele>
        <time>2025-04-05T12:37:24Z</time>
      </trkpt>
      <trkpt lat="50.3994" lon="4.87863">
        <ele>74.8</ele>
        <time>2025-04-05T12:37:25Z</time>
      </trkpt>
      <trkpt lat="50.39945" lon="4.87864">
        <ele>74.6</ele>
        <time>2025-04-05T12:37:26Z</time>
      </trkpt>
      <trkpt lat="50.3995" lon="4.87865">
        <ele>74.2</ele>
        <time>2025-04-05T12:37:27Z</time>
      </trkpt>
      <trkpt lat="50.39955" lon="4.87866">
        <ele>74</ele>
        <time>2025-04-05T12:37:28Z</time>
      </trkpt>
      <trkpt lat="50.39961" lon="4.87867">
        <ele>73.8</ele>
        <time>2025-04-05T12:37:29Z</time>
      </trkpt>
      <trkpt lat="50.39966" lon="4.87868">
        <ele>73.8</ele>
        <time>2025-04-05T12:37:30Z</time>
      </trkpt>
      <trkpt lat="50.39971" lon="4.87868">
        <ele>73.4</ele>
        <time>2025-04-05T12:37:31Z</time>
      </trkpt>
      <trkpt lat="50.39976" lon="4.8787">
        <ele>73.2</ele>
        <time>2025-04-05T12:37:32Z</time>
      </trkpt>
      <trkpt lat="50.39982" lon="4.87871">
        <ele>73.2</ele>
        <time>2025-04-05T12:37:33Z</time>
      </trkpt>
      <trkpt lat="50.39987" lon="4.87872">
        <ele>73</ele>
        <time>2025-04-05T12:37:34Z</time>
      </trkpt>
      <trkpt lat="50.39993" lon="4.87873">
        <ele>72.8</ele>
        <time>2025-04-05T12:37:35Z</time>
      </trkpt>
      <trkpt lat="50.39999" lon="4.87875">
        <ele>72.6</ele>
        <time>2025-04-05T12:37:36Z</time>
      </trkpt>
      <trkpt lat="50.40006" lon="4.87878">
        <ele>72.6</ele>
        <time>2025-04-05T12:37:37Z</time>
      </trkpt>
      <trkpt lat="50.40013" lon="4.87881">
        <ele>72.4</ele>
        <time>2025-04-05T12:37:38Z</time>
      </trkpt>
      <trkpt lat="50.40021" lon="4.87885">
        <ele>72.4</ele>
        <time>2025-04-05T12:37:39Z</time>
      </trkpt>
      <trkpt lat="50.40027" lon="4.87887">
        <ele>72.2</ele>
        <time>2025-04-05T12:37:40Z</time>
      </trkpt>
      <trkpt lat="50.40033" lon="4.87889">
        <ele>72</ele>
        <time>2025-04-05T12:37:41Z</time>
      </trkpt>
      <trkpt lat="50.40039" lon="4.8789">
        <ele>71.6</ele>
        <time>2025-04-05T12:37:42Z</time>
      </trkpt>
      <trkpt lat="50.40045" lon="4.87892">
        <ele>71.4</ele>
        <time>2025-04-05T12:37:43Z</time>
      </trkpt>
      <trkpt lat="50.40051" lon="4.87893">
        <ele>71.2</ele>
        <time>2025-04-05T12:37:44Z</time>
      </trkpt>
      <trkpt lat="50.40057" lon="4.87895">
        <ele>71.2</ele>
        <time>2025-04-05T12:37:45Z</time>
      </trkpt>
      <trkpt lat="50.40063" lon="4.87897">
        <ele>71</ele>
        <time>2025-04-05T12:37:46Z</time>
      </trkpt>
      <trkpt lat="50.40069" lon="4.87898">
        <ele>70.8</ele>
        <time>2025-04-05T12:37:47Z</time>
      </trkpt>
      <trkpt lat="50.40075" lon="4.879">
        <ele>70.6</ele>
        <time>2025-04-05T12:37:48Z</time>
      </trkpt>
      <trkpt lat="50.4008" lon="4.87902">
        <ele>70.4</ele>
        <time>2025-04-05T12:37:49Z</time>
      </trkpt>
      <trkpt lat="50.40087" lon="4.87905">
        <ele>70.4</ele>
        <time>2025-04-05T12:37:50Z</time>
      </trkpt>
      <trkpt lat="50.40094" lon="4.87908">
        <ele>70</ele>
        <time>2025-04-05T12:37:51Z</time>
      </trkpt>
      <trkpt lat="50.40099" lon="4.87909">
        <ele>69.8</ele>
        <time>2025-04-05T12:37:52Z</time>
      </trkpt>
      <trkpt lat="50.40104" lon="4.87911">
        <ele>69.8</ele>
        <time>2025-04-05T12:37:53Z</time>
      </trkpt>
      <trkpt lat="50.4011" lon="4.87913">
        <ele>69.6</ele>
        <time>2025-04-05T12:37:54Z</time>
      </trkpt>
      <trkpt lat="50.40117" lon="4.87915">
        <ele>69.4</ele>
        <time>2025-04-05T12:37:55Z</time>
      </trkpt>
      <trkpt lat="50.40123" lon="4.87917">
        <ele>69.4</ele>
        <time>2025-04-05T12:37:56Z</time>
      </trkpt>
      <trkpt lat="50.4013" lon="4.87919">
        <ele>69.4</ele>
        <time>2025-04-05T12:37:57Z</time>
      </trkpt>
      <trkpt lat="50.40136" lon="4.87921">
        <ele>69.4</ele>
        <time>2025-04-05T12:37:58Z</time>
      </trkpt>
      <trkpt lat="50.40142" lon="4.87924">
        <ele>69.4</ele>
        <time>2025-04-05T12:37:59Z</time>
      </trkpt>
      <trkpt lat="50.40148" lon="4.87926">
        <ele>69.4</ele>
        <time>2025-04-05T12:38:00Z</time>
      </trkpt>
      <trkpt lat="50.40154" lon="4.87928">
        <ele>69.2</ele>
        <time>2025-04-05T12:38:01Z</time>
      </trkpt>
      <trkpt lat="50.4016" lon="4.8793">
        <ele>69.2</ele>
        <time>2025-04-05T12:38:02Z</time>
      </trkpt>
      <trkpt lat="50.40166" lon="4.87933">
        <ele>69.2</ele>
        <time>2025-04-05T12:38:03Z</time>
      </trkpt>
      <trkpt lat="50.40172" lon="4.87935">
        <ele>69.2</ele>
        <time>2025-04-05T12:38:04Z</time>
      </trkpt>
      <trkpt lat="50.40178" lon="4.87937">
        <ele>69.2</ele>
        <time>2025-04-05T12:38:05Z</time>
      </trkpt>
      <trkpt lat="50.40184" lon="4.87939">
        <ele>69</ele>
        <time>2025-04-05T12:38:06Z</time>
      </trkpt>
      <trkpt lat="50.4019" lon="4.87941">
        <ele>69</ele>
        <time>2025-04-05T12:38:07Z</time>
      </trkpt>
      <trkpt lat="50.40196" lon="4.87944">
        <ele>68.8</ele>
        <time>2025-04-05T12:38:08Z</time>
      </trkpt>
      <trkpt lat="50.40203" lon="4.87946">
        <ele>68.8</ele>
        <time>2025-04-05T12:38:09Z</time>
      </trkpt>
      <trkpt lat="50.40209" lon="4.87948">
        <ele>68.8</ele>
        <time>2025-04-05T12:38:10Z</time>
      </trkpt>
      <trkpt lat="50.40215" lon="4.8795">
        <ele>69</ele>
        <time>2025-04-05T12:38:11Z</time>
      </trkpt>
      <trkpt lat="50.4022" lon="4.87952">
        <ele>69</ele>
        <time>2025-04-05T12:38:12Z</time>
      </trkpt>
      <trkpt lat="50.40227" lon="4.87955">
        <ele>69</ele>
        <time>2025-04-05T12:38:13Z</time>
      </trkpt>
      <trkpt lat="50.40234" lon="4.87957">
        <ele>68.8</ele>
        <time>2025-04-05T12:38:14Z</time>
      </trkpt>
      <trkpt lat="50.4024" lon="4.87959">
        <ele>68.8</ele>
        <time>2025-04-05T12:38:15Z</time>
      </trkpt>
      <trkpt lat="50.40245" lon="4.87962">
        <ele>68.8</ele>
        <time>2025-04-05T12:38:16Z</time>
      </trkpt>
      <trkpt lat="50.40252" lon="4.87964">
        <ele>68.6</ele>
        <time>2025-04-05T12:38:17Z</time>
      </trkpt>
      <trkpt lat="50.40258" lon="4.87967">
        <ele>68.6</ele>
        <time>2025-04-05T12:38:18Z</time>
      </trkpt>
      <trkpt lat="50.40264" lon="4.87969">
        <ele>68.6</ele>
        <time>2025-04-05T12:38:19Z</time>
      </trkpt>
      <trkpt lat="50.4027" lon="4.87971">
        <ele>68.6</ele>
        <time>2025-04-05T12:38:20Z</time>
      </trkpt>
      <trkpt lat="50.40276" lon="4.87974">
        <ele>68.8</ele>
        <time>2025-04-05T12:38:21Z</time>
      </trkpt>
      <trkpt lat="50.40282" lon="4.87976">
        <ele>68.8</ele>
        <time>2025-04-05T12:38:22Z</time>
      </trkpt>
      <trkpt lat="50.40289" lon="4.87979">
        <ele>68.6</ele>
        <time>2025-04-05T12:38:23Z</time>
      </trkpt>
      <trkpt lat="50.40294" lon="4.87981">
        <ele>68.6</ele>
        <time>2025-04-05T12:38:24Z</time>
      </trkpt>
      <trkpt lat="50.403" lon="4.87983">
        <ele>68.6</ele>
        <time>2025-04-05T12:38:25Z</time>
      </trkpt>
      <trkpt lat="50.40307" lon="4.87986">
        <ele>68.6</ele>
        <time>2025-04-05T12:38:26Z</time>
      </trkpt>
      <trkpt lat="50.40312" lon="4.87988">
        <ele>68.4</ele>
        <time>2025-04-05T12:38:27Z</time>
      </trkpt>
      <trkpt lat="50.40318" lon="4.8799">
        <ele>68.4</ele>
        <time>2025-04-05T12:38:28Z</time>
      </trkpt>
      <trkpt lat="50.40324" lon="4.87993">
        <ele>68.6</ele>
        <time>2025-04-05T12:38:29Z</time>
      </trkpt>
      <trkpt lat="50.4033" lon="4.87995">
        <ele>68.6</ele>
        <time>2025-04-05T12:38:30Z</time>
      </trkpt>
      <trkpt lat="50.40336" lon="4.87997">
        <ele>68.6</ele>
        <time>2025-04-05T12:38:31Z</time>
      </trkpt>
      <trkpt lat="50.40342" lon="4.87999">
        <ele>68.6</ele>
        <time>2025-04-05T12:38:32Z</time>
      </trkpt>
      <trkpt lat="50.40348" lon="4.88002">
        <ele>68.8</ele>
        <time>2025-04-05T12:38:33Z</time>
      </trkpt>
      <trkpt lat="50.40355" lon="4.88004">
        <ele>68.8</ele>
        <time>2025-04-05T12:38:34Z</time>
      </trkpt>
      <trkpt lat="50.4036" lon="4.88006">
        <ele>68.8</ele>
        <time>2025-04-05T12:38:35Z</time>
      </trkpt>
      <trkpt lat="50.40365" lon="4.88008">
        <ele>68.8</ele>
        <time>2025-04-05T12:38:36Z</time>
      </trkpt>
      <trkpt lat="50.40371" lon="4.8801">
        <ele>69</ele>
        <time>2025-04-05T12:38:37Z</time>
      </trkpt>
      <trkpt lat="50.40376" lon="4.88012">
        <ele>69</ele>
        <time>2025-04-05T12:38:38Z</time>
      </trkpt>
      <trkpt lat="50.40382" lon="4.88013">
        <ele>69</ele>
        <time>2025-04-05T12:38:39Z</time>
      </trkpt>
      <trkpt lat="50.40389" lon="4.88015">
        <ele>69</ele>
        <time>2025-04-05T12:38:40Z</time>
      </trkpt>
      <trkpt lat="50.40394" lon="4.88016">
        <ele>69</ele>
        <time>2025-04-05T12:38:41Z</time>
      </trkpt>
      <trkpt lat="50.404" lon="4.88018">
        <ele>69.2</ele>
        <time>2025-04-05T12:38:42Z</time>
      </trkpt>
      <trkpt lat="50.40406" lon="4.88019">
        <ele>69.2</ele>
        <time>2025-04-05T12:38:43Z</time>
      </trkpt>
      <trkpt lat="50.40411" lon="4.8802">
        <ele>69.2</ele>
        <time>2025-04-05T12:38:44Z</time>
      </trkpt>
      <trkpt lat="50.40418" lon="4.8802">
        <ele>69</ele>
        <time>2025-04-05T12:38:45Z</time>
      </trkpt>
      <trkpt lat="50.40424" lon="4.88021">
        <ele>69</ele>
        <time>2025-04-05T12:38:46Z</time>
      </trkpt>
      <trkpt lat="50.4043" lon="4.88022">
        <ele>69.2</ele>
        <time>2025-04-05T12:38:47Z</time>
      </trkpt>
      <trkpt lat="50.40436" lon="4.88022">
        <ele>69.2</ele>
        <time>2025-04-05T12:38:48Z</time>
      </trkpt>
      <trkpt lat="50.40442" lon="4.88022">
        <ele>69.2</ele>
        <time>2025-04-05T12:38:49Z</time>
      </trkpt>
      <trkpt lat="50.40448" lon="4.88022">
        <ele>69.2</ele>
        <time>2025-04-05T12:38:50Z</time>
      </trkpt>
      <trkpt lat="50.40454" lon="4.88022">
        <ele>69.2</ele>
        <time>2025-04-05T12:38:51Z</time>
      </trkpt>
      <trkpt lat="50.40461" lon="4.88022">
        <ele>69.2</ele>
        <time>2025-04-05T12:38:52Z</time>
      </trkpt>
      <trkpt lat="50.40467" lon="4.88021">
        <ele>69</ele>
        <time>2025-04-05T12:38:53Z</time>
      </trkpt>
      <trkpt lat="50.40474" lon="4.88021">
        <ele>69</ele>
        <time>2025-04-05T12:38:54Z</time>
      </trkpt>
      <trkpt lat="50.4048" lon="4.88021">
        <ele>69</ele>
        <time>2025-04-05T12:38:55Z</time>
      </trkpt>
      <trkpt lat="50.40486" lon="4.88021">
        <ele>68.8</ele>
        <time>2025-04-05T12:38:56Z</time>
      </trkpt>
      <trkpt lat="50.40494" lon="4.8802">
        <ele>68.8</ele>
        <time>2025-04-05T12:38:57Z</time>
      </trkpt>
      <trkpt lat="50.405" lon="4.88019">
        <ele>68.8</ele>
        <time>2025-04-05T12:38:58Z</time>
      </trkpt>
      <trkpt lat="50.40507" lon="4.88019">
        <ele>68.8</ele>
        <time>2025-04-05T12:38:59Z</time>
      </trkpt>
      <trkpt lat="50.40513" lon="4.88019">
        <ele>68.8</ele>
        <time>2025-04-05T12:39:00Z</time>
      </trkpt>
      <trkpt lat="50.40519" lon="4.88019">
        <ele>68.8</ele>
        <time>2025-04-05T12:39:01Z</time>
      </trkpt>
      <trkpt lat="50.40524" lon="4.88018">
        <ele>69</ele>
        <time>2025-04-05T12:39:02Z</time>
      </trkpt>
      <trkpt lat="50.4053" lon="4.88018">
        <ele>69</ele>
        <time>2025-04-05T12:39:03Z</time>
      </trkpt>
      <trkpt lat="50.40536" lon="4.88018">
        <ele>69</ele>
        <time>2025-04-05T12:39:04Z</time>
      </trkpt>
      <trkpt lat="50.40542" lon="4.88018">
        <ele>69</ele>
        <time>2025-04-05T12:39:05Z</time>
      </trkpt>
      <trkpt lat="50.40548" lon="4.88018">
        <ele>69.2</ele>
        <time>2025-04-05T12:39:06Z</time>
      </trkpt>
      <trkpt lat="50.40554" lon="4.88018">
        <ele>69.2</ele>
        <time>2025-04-05T12:39:07Z</time>
      </trkpt>
      <trkpt lat="50.40559" lon="4.88017">
        <ele>69.2</ele>
        <time>2025-04-05T12:39:08Z</time>
      </trkpt>
      <trkpt lat="50.40567" lon="4.88017">
        <ele>69.2</ele>
        <time>2025-04-05T12:39:09Z</time>
      </trkpt>
      <trkpt lat="50.40573" lon="4.88016">
        <ele>69</ele>
        <time>2025-04-05T12:39:10Z</time>
      </trkpt>
      <trkpt lat="50.40579" lon="4.88016">
        <ele>69</ele>
        <time>2025-04-05T12:39:11Z</time>
      </trkpt>
      <trkpt lat="50.40584" lon="4.88016">
        <ele>69</ele>
        <time>2025-04-05T12:39:12Z</time>
      </trkpt>
      <trkpt lat="50.4059" lon="4.88016">
        <ele>69</ele>
        <time>2025-04-05T12:39:13Z</time>
      </trkpt>
      <trkpt lat="50.40596" lon="4.88016">
        <ele>69</ele>
        <time>2025-04-05T12:39:14Z</time>
      </trkpt>
      <trkpt lat="50.40603" lon="4.88015">
        <ele>69</ele>
        <time>2025-04-05T12:39:15Z</time>
      </trkpt>
      <trkpt lat="50.40609" lon="4.88015">
        <ele>68.8</ele>
        <time>2025-04-05T12:39:16Z</time>
      </trkpt>
      <trkpt lat="50.40616" lon="4.88015">
        <ele>68.6</ele>
        <time>2025-04-05T12:39:17Z</time>
      </trkpt>
      <trkpt lat="50.40623" lon="4.88014">
        <ele>68.2</ele>
        <time>2025-04-05T12:39:18Z</time>
      </trkpt>
      <trkpt lat="50.40629" lon="4.88014">
        <ele>68.2</ele>
        <time>2025-04-05T12:39:19Z</time>
      </trkpt>
      <trkpt lat="50.40635" lon="4.88014">
        <ele>68.2</ele>
        <time>2025-04-05T12:39:20Z</time>
      </trkpt>
      <trkpt lat="50.40641" lon="4.88014">
        <ele>68</ele>
        <time>2025-04-05T12:39:21Z</time>
      </trkpt>
      <trkpt lat="50.40647" lon="4.88014">
        <ele>68.2</ele>
        <time>2025-04-05T12:39:22Z</time>
      </trkpt>
      <trkpt lat="50.40654" lon="4.88014">
        <ele>68</ele>
        <time>2025-04-05T12:39:23Z</time>
      </trkpt>
      <trkpt lat="50.40661" lon="4.88014">
        <ele>68</ele>
        <time>2025-04-05T12:39:24Z</time>
      </trkpt>
      <trkpt lat="50.40667" lon="4.88014">
        <ele>68.2</ele>
        <time>2025-04-05T12:39:25Z</time>
      </trkpt>
      <trkpt lat="50.40673" lon="4.88014">
        <ele>68.2</ele>
        <time>2025-04-05T12:39:26Z</time>
      </trkpt>
      <trkpt lat="50.4068" lon="4.88014">
        <ele>68.4</ele>
        <time>2025-04-05T12:39:27Z</time>
      </trkpt>
      <trkpt lat="50.40686" lon="4.88014">
        <ele>68.4</ele>
        <time>2025-04-05T12:39:28Z</time>
      </trkpt>
      <trkpt lat="50.40692" lon="4.88014">
        <ele>68.4</ele>
        <time>2025-04-05T12:39:29Z</time>
      </trkpt>
      <trkpt lat="50.40699" lon="4.88014">
        <ele>68.2</ele>
        <time>2025-04-05T12:39:30Z</time>
      </trkpt>
      <trkpt lat="50.40706" lon="4.88013">
        <ele>68.2</ele>
        <time>2025-04-05T12:39:31Z</time>
      </trkpt>
      <trkpt lat="50.40712" lon="4.88013">
        <ele>68.2</ele>
        <time>2025-04-05T12:39:32Z</time>
      </trkpt>
      <trkpt lat="50.40718" lon="4.88013">
        <ele>68.2</ele>
        <time>2025-04-05T12:39:33Z</time>
      </trkpt>
      <trkpt lat="50.40723" lon="4.88013">
        <ele>68.2</ele>
        <time>2025-04-05T12:39:34Z</time>
      </trkpt>
      <trkpt lat="50.4073" lon="4.88014">
        <ele>68.2</ele>
        <time>2025-04-05T12:39:35Z</time>
      </trkpt>
      <trkpt lat="50.40736" lon="4.88014">
        <ele>68.2</ele>
        <time>2025-04-05T12:39:36Z</time>
      </trkpt>
      <trkpt lat="50.40743" lon="4.88015">
        <ele>68.2</ele>
        <time>2025-04-05T12:39:37Z</time>
      </trkpt>
      <trkpt lat="50.40749" lon="4.88016">
        <ele>68</ele>
        <time>2025-04-05T12:39:38Z</time>
      </trkpt>
      <trkpt lat="50.40755" lon="4.88017">
        <ele>68</ele>
        <time>2025-04-05T12:39:39Z</time>
      </trkpt>
      <trkpt lat="50.40761" lon="4.88017">
        <ele>68</ele>
        <time>2025-04-05T12:39:40Z</time>
      </trkpt>
      <trkpt lat="50.40767" lon="4.88018">
        <ele>67.8</ele>
        <time>2025-04-05T12:39:41Z</time>
      </trkpt>
      <trkpt lat="50.40773" lon="4.8802">
        <ele>67.6</ele>
        <time>2025-04-05T12:39:42Z</time>
      </trkpt>
      <trkpt lat="50.40779" lon="4.88021">
        <ele>67.6</ele>
        <time>2025-04-05T12:39:43Z</time>
      </trkpt>
      <trkpt lat="50.40786" lon="4.88023">
        <ele>67.4</ele>
        <time>2025-04-05T12:39:44Z</time>
      </trkpt>
      <trkpt lat="50.40792" lon="4.88025">
        <ele>67.4</ele>
        <time>2025-04-05T12:39:45Z</time>
      </trkpt>
      <trkpt lat="50.40798" lon="4.88026">
        <ele>67.2</ele>
        <time>2025-04-05T12:39:46Z</time>
      </trkpt>
      <trkpt lat="50.40804" lon="4.88028">
        <ele>67.4</ele>
        <time>2025-04-05T12:39:47Z</time>
      </trkpt>
      <trkpt lat="50.4081" lon="4.8803">
        <ele>67.4</ele>
        <time>2025-04-05T12:39:48Z</time>
      </trkpt>
      <trkpt lat="50.40817" lon="4.88032">
        <ele>67.6</ele>
        <time>2025-04-05T12:39:49Z</time>
      </trkpt>
      <trkpt lat="50.40823" lon="4.88033">
        <ele>67.6</ele>
        <time>2025-04-05T12:39:50Z</time>
      </trkpt>
      <trkpt lat="50.4083" lon="4.88035">
        <ele>67.6</ele>
        <time>2025-04-05T12:39:51Z</time>
      </trkpt>
      <trkpt lat="50.40836" lon="4.88037">
        <ele>67.4</ele>
        <time>2025-04-05T12:39:52Z</time>
      </trkpt>
      <trkpt lat="50.40843" lon="4.88039">
        <ele>67.4</ele>
        <time>2025-04-05T12:39:53Z</time>
      </trkpt>
      <trkpt lat="50.40849" lon="4.88041">
        <ele>67.6</ele>
        <time>2025-04-05T12:39:54Z</time>
      </trkpt>
      <trkpt lat="50.40855" lon="4.88043">
        <ele>67.6</ele>
        <time>2025-04-05T12:39:55Z</time>
      </trkpt>
      <trkpt lat="50.40861" lon="4.88044">
        <ele>67.6</ele>
        <time>2025-04-05T12:39:56Z</time>
      </trkpt>
      <trkpt lat="50.40868" lon="4.88046">
        <ele>67.6</ele>
        <time>2025-04-05T12:39:57Z</time>
      </trkpt>
      <trkpt lat="50.40874" lon="4.88048">
        <ele>67.8</ele>
        <time>2025-04-05T12:39:58Z</time>
      </trkpt>
      <trkpt lat="50.4088" lon="4.8805">
        <ele>67.6</ele>
        <time>2025-04-05T12:39:59Z</time>
      </trkpt>
      <trkpt lat="50.40886" lon="4.88052">
        <ele>67.6</ele>
        <time>2025-04-05T12:40:00Z</time>
      </trkpt>
      <trkpt lat="50.40892" lon="4.88054">
        <ele>67.8</ele>
        <time>2025-04-05T12:40:01Z</time>
      </trkpt>
      <trkpt lat="50.40898" lon="4.88056">
        <ele>67.6</ele>
        <time>2025-04-05T12:40:02Z</time>
      </trkpt>
      <trkpt lat="50.40905" lon="4.88058">
        <ele>67.6</ele>
        <time>2025-04-05T12:40:03Z</time>
      </trkpt>
      <trkpt lat="50.4091" lon="4.88059">
        <ele>67.8</ele>
        <time>2025-04-05T12:40:04Z</time>
      </trkpt>
      <trkpt lat="50.40916" lon="4.88061">
        <ele>67.8</ele>
        <time>2025-04-05T12:40:05Z</time>
      </trkpt>
      <trkpt lat="50.40923" lon="4.88062">
        <ele>68</ele>
        <time>2025-04-05T12:40:06Z</time>
      </trkpt>
      <trkpt lat="50.40929" lon="4.88064">
        <ele>67.8</ele>
        <time>2025-04-05T12:40:07Z</time>
      </trkpt>
      <trkpt lat="50.40934" lon="4.88065">
        <ele>67.6</ele>
        <time>2025-04-05T12:40:08Z</time>
      </trkpt>
      <trkpt lat="50.4094" lon="4.88066">
        <ele>67.6</ele>
        <time>2025-04-05T12:40:09Z</time>
      </trkpt>
      <trkpt lat="50.40947" lon="4.88068">
        <ele>67.8</ele>
        <time>2025-04-05T12:40:10Z</time>
      </trkpt>
      <trkpt lat="50.40952" lon="4.88069">
        <ele>68</ele>
        <time>2025-04-05T12:40:11Z</time>
      </trkpt>
      <trkpt lat="50.40958" lon="4.88069">
        <ele>68.2</ele>
        <time>2025-04-05T12:40:12Z</time>
      </trkpt>
      <trkpt lat="50.40963" lon="4.8807">
        <ele>68</ele>
        <time>2025-04-05T12:40:13Z</time>
      </trkpt>
      <trkpt lat="50.4097" lon="4.8807">
        <ele>68</ele>
        <time>2025-04-05T12:40:14Z</time>
      </trkpt>
      <trkpt lat="50.40978" lon="4.88071">
        <ele>68</ele>
        <time>2025-04-05T12:40:15Z</time>
      </trkpt>
      <trkpt lat="50.40984" lon="4.88071">
        <ele>68</ele>
        <time>2025-04-05T12:40:16Z</time>
      </trkpt>
      <trkpt lat="50.40989" lon="4.88072">
        <ele>68.2</ele>
        <time>2025-04-05T12:40:17Z</time>
      </trkpt>
      <trkpt lat="50.40995" lon="4.88072">
        <ele>68.2</ele>
        <time>2025-04-05T12:40:18Z</time>
      </trkpt>
      <trkpt lat="50.41001" lon="4.88072">
        <ele>68.4</ele>
        <time>2025-04-05T12:40:19Z</time>
      </trkpt>
      <trkpt lat="50.41007" lon="4.88072">
        <ele>68.6</ele>
        <time>2025-04-05T12:40:20Z</time>
      </trkpt>
      <trkpt lat="50.41011" lon="4.88072">
        <ele>68.6</ele>
        <time>2025-04-05T12:40:21Z</time>
      </trkpt>
      <trkpt lat="50.41015" lon="4.88073">
        <ele>68.6</ele>
        <time>2025-04-05T12:40:22Z</time>
      </trkpt>
      <trkpt lat="50.41019" lon="4.88074">
        <ele>68.6</ele>
        <time>2025-04-05T12:40:23Z</time>
      </trkpt>
      <trkpt lat="50.41023" lon="4.88076">
        <ele>68.6</ele>
        <time>2025-04-05T12:40:24Z</time>
      </trkpt>
      <trkpt lat="50.41027" lon="4.88078">
        <ele>68.6</ele>
        <time>2025-04-05T12:40:25Z</time>
      </trkpt>
      <trkpt lat="50.41031" lon="4.88081">
        <ele>68.4</ele>
        <time>2025-04-05T12:40:26Z</time>
      </trkpt>
      <trkpt lat="50.41036" lon="4.88082">
        <ele>68.4</ele>
        <time>2025-04-05T12:40:27Z</time>
      </trkpt>
      <trkpt lat="50.41041" lon="4.88081">
        <ele>68.4</ele>
        <time>2025-04-05T12:40:28Z</time>
      </trkpt>
      <trkpt lat="50.41047" lon="4.8808">
        <ele>68.2</ele>
        <time>2025-04-05T12:40:29Z</time>
      </trkpt>
      <trkpt lat="50.41053" lon="4.88078">
        <ele>68.2</ele>
        <time>2025-04-05T12:40:30Z</time>
      </trkpt>
      <trkpt lat="50.41058" lon="4.88078">
        <ele>68</ele>
        <time>2025-04-05T12:40:31Z</time>
      </trkpt>
      <trkpt lat="50.41064" lon="4.88077">
        <ele>68</ele>
        <time>2025-04-05T12:40:32Z</time>
      </trkpt>
      <trkpt lat="50.4107" lon="4.88076">
        <ele>68</ele>
        <time>2025-04-05T12:40:33Z</time>
      </trkpt>
      <trkpt lat="50.41076" lon="4.88075">
        <ele>67.8</ele>
        <time>2025-04-05T12:40:34Z</time>
      </trkpt>
      <trkpt lat="50.41082" lon="4.88075">
        <ele>67.8</ele>
        <time>2025-04-05T12:40:35Z</time>
      </trkpt>
      <trkpt lat="50.41088" lon="4.88074">
        <ele>67.8</ele>
        <time>2025-04-05T12:40:36Z</time>
      </trkpt>
      <trkpt lat="50.41093" lon="4.88073">
        <ele>67.8</ele>
        <time>2025-04-05T12:40:37Z</time>
      </trkpt>
      <trkpt lat="50.41098" lon="4.88073">
        <ele>67.8</ele>
        <time>2025-04-05T12:40:38Z</time>
      </trkpt>
      <trkpt lat="50.41104" lon="4.88073">
        <ele>68</ele>
        <time>2025-04-05T12:40:39Z</time>
      </trkpt>
      <trkpt lat="50.4111" lon="4.88072">
        <ele>68</ele>
        <time>2025-04-05T12:40:40Z</time>
      </trkpt>
      <trkpt lat="50.41117" lon="4.88072">
        <ele>68</ele>
        <time>2025-04-05T12:40:41Z</time>
      </trkpt>
      <trkpt lat="50.41123" lon="4.88071">
        <ele>68</ele>
        <time>2025-04-05T12:40:42Z</time>
      </trkpt>
      <trkpt lat="50.41129" lon="4.88071">
        <ele>68</ele>
        <time>2025-04-05T12:40:43Z</time>
      </trkpt>
      <trkpt lat="50.41136" lon="4.88071">
        <ele>68</ele>
        <time>2025-04-05T12:40:44Z</time>
      </trkpt>
      <trkpt lat="50.41142" lon="4.88071">
        <ele>68</ele>
        <time>2025-04-05T12:40:45Z</time>
      </trkpt>
      <trkpt lat="50.41149" lon="4.88071">
        <ele>68</ele>
        <time>2025-04-05T12:40:46Z</time>
      </trkpt>
      <trkpt lat="50.41155" lon="4.8807">
        <ele>68</ele>
        <time>2025-04-05T12:40:47Z</time>
      </trkpt>
      <trkpt lat="50.41162" lon="4.88069">
        <ele>68</ele>
        <time>2025-04-05T12:40:48Z</time>
      </trkpt>
      <trkpt lat="50.41168" lon="4.88067">
        <ele>68</ele>
        <time>2025-04-05T12:40:49Z</time>
      </trkpt>
      <trkpt lat="50.41175" lon="4.88065">
        <ele>68</ele>
        <time>2025-04-05T12:40:50Z</time>
      </trkpt>
      <trkpt lat="50.41181" lon="4.88062">
        <ele>68</ele>
        <time>2025-04-05T12:40:51Z</time>
      </trkpt>
      <trkpt lat="50.41187" lon="4.8806">
        <ele>67.8</ele>
        <time>2025-04-05T12:40:52Z</time>
      </trkpt>
      <trkpt lat="50.41193" lon="4.88058">
        <ele>67.8</ele>
        <time>2025-04-05T12:40:53Z</time>
      </trkpt>
      <trkpt lat="50.412" lon="4.88057">
        <ele>67.8</ele>
        <time>2025-04-05T12:40:54Z</time>
      </trkpt>
      <trkpt lat="50.41205" lon="4.88056">
        <ele>67.8</ele>
        <time>2025-04-05T12:40:55Z</time>
      </trkpt>
      <trkpt lat="50.41212" lon="4.88054">
        <ele>67.8</ele>
        <time>2025-04-05T12:40:56Z</time>
      </trkpt>
      <trkpt lat="50.41219" lon="4.88054">
        <ele>67.8</ele>
        <time>2025-04-05T12:40:57Z</time>
      </trkpt>
      <trkpt lat="50.41225" lon="4.88053">
        <ele>67.8</ele>
        <time>2025-04-05T12:40:58Z</time>
      </trkpt>
      <trkpt lat="50.41231" lon="4.88052">
        <ele>67.8</ele>
        <time>2025-04-05T12:40:59Z</time>
      </trkpt>
      <trkpt lat="50.41237" lon="4.88052">
        <ele>67.8</ele>
        <time>2025-04-05T12:41:00Z</time>
      </trkpt>
      <trkpt lat="50.41243" lon="4.88052">
        <ele>67.8</ele>
        <time>2025-04-05T12:41:01Z</time>
      </trkpt>
      <trkpt lat="50.41249" lon="4.88051">
        <ele>67.8</ele>
        <time>2025-04-05T12:41:02Z</time>
      </trkpt>
      <trkpt lat="50.41256" lon="4.88051">
        <ele>67.8</ele>
        <time>2025-04-05T12:41:03Z</time>
      </trkpt>
      <trkpt lat="50.41262" lon="4.8805">
        <ele>67.8</ele>
        <time>2025-04-05T12:41:04Z</time>
      </trkpt>
      <trkpt lat="50.41269" lon="4.88049">
        <ele>67.8</ele>
        <time>2025-04-05T12:41:05Z</time>
      </trkpt>
      <trkpt lat="50.41276" lon="4.88048">
        <ele>67.8</ele>
        <time>2025-04-05T12:41:06Z</time>
      </trkpt>
      <trkpt lat="50.41283" lon="4.88047">
        <ele>67.8</ele>
        <time>2025-04-05T12:41:07Z</time>
      </trkpt>
      <trkpt lat="50.4129" lon="4.88047">
        <ele>67.8</ele>
        <time>2025-04-05T12:41:08Z</time>
      </trkpt>
      <trkpt lat="50.41296" lon="4.88046">
        <ele>67.8</ele>
        <time>2025-04-05T12:41:09Z</time>
      </trkpt>
      <trkpt lat="50.41303" lon="4.88045">
        <ele>67.8</ele>
        <time>2025-04-05T12:41:10Z</time>
      </trkpt>
      <trkpt lat="50.4131" lon="4.88045">
        <ele>67.8</ele>
        <time>2025-04-05T12:41:11Z</time>
      </trkpt>
      <trkpt lat="50.41316" lon="4.88044">
        <ele>67.8</ele>
        <time>2025-04-05T12:41:12Z</time>
      </trkpt>
      <trkpt lat="50.41322" lon="4.88044">
        <ele>67.8</ele>
        <time>2025-04-05T12:41:13Z</time>
      </trkpt>
      <trkpt lat="50.4133" lon="4.88044">
        <ele>67.6</ele>
        <time>2025-04-05T12:41:14Z</time>
      </trkpt>
      <trkpt lat="50.41336" lon="4.88044">
        <ele>67.6</ele>
        <time>2025-04-05T12:41:15Z</time>
      </trkpt>
      <trkpt lat="50.41343" lon="4.88044">
        <ele>67.6</ele>
        <time>2025-04-05T12:41:16Z</time>
      </trkpt>
      <trkpt lat="50.41349" lon="4.88045">
        <ele>67.6</ele>
        <time>2025-04-05T12:41:17Z</time>
      </trkpt>
      <trkpt lat="50.41356" lon="4.88045">
        <ele>67.6</ele>
        <time>2025-04-05T12:41:18Z</time>
      </trkpt>
      <trkpt lat="50.41362" lon="4.88046">
        <ele>67.6</ele>
        <time>2025-04-05T12:41:19Z</time>
      </trkpt>
      <trkpt lat="50.41368" lon="4.88046">
        <ele>67.6</ele>
        <time>2025-04-05T12:41:20Z</time>
      </trkpt>
      <trkpt lat="50.41373" lon="4.88046">
        <ele>67.8</ele>
        <time>2025-04-05T12:41:21Z</time>
      </trkpt>
      <trkpt lat="50.4138" lon="4.88047">
        <ele>67.8</ele>
        <time>2025-04-05T12:41:22Z</time>
      </trkpt>
      <trkpt lat="50.41386" lon="4.88047">
        <ele>67.6</ele>
        <time>2025-04-05T12:41:23Z</time>
      </trkpt>
      <trkpt lat="50.41393" lon="4.88047">
        <ele>67.6</ele>
        <time>2025-04-05T12:41:24Z</time>
      </trkpt>
      <trkpt lat="50.41399" lon="4.88048">
        <ele>67.6</ele>
        <time>2025-04-05T12:41:25Z</time>
      </trkpt>
      <trkpt lat="50.41405" lon="4.88049">
        <ele>67.6</ele>
        <time>2025-04-05T12:41:26Z</time>
      </trkpt>
      <trkpt lat="50.4141" lon="4.88049">
        <ele>67.4</ele>
        <time>2025-04-05T12:41:27Z</time>
      </trkpt>
      <trkpt lat="50.41416" lon="4.88049">
        <ele>67.4</ele>
        <time>2025-04-05T12:41:28Z</time>
      </trkpt>
      <trkpt lat="50.41421" lon="4.8805">
        <ele>67.4</ele>
        <time>2025-04-05T12:41:29Z</time>
      </trkpt>
      <trkpt lat="50.41426" lon="4.88051">
        <ele>67.2</ele>
        <time>2025-04-05T12:41:30Z</time>
      </trkpt>
      <trkpt lat="50.41433" lon="4.88052">
        <ele>67</ele>
        <time>2025-04-05T12:41:31Z</time>
      </trkpt>
      <trkpt lat="50.41439" lon="4.88053">
        <ele>66.8</ele>
        <time>2025-04-05T12:41:32Z</time>
      </trkpt>
      <trkpt lat="50.41445" lon="4.88054">
        <ele>66.6</ele>
        <time>2025-04-05T12:41:33Z</time>
      </trkpt>
      <trkpt lat="50.41451" lon="4.88056">
        <ele>66.6</ele>
        <time>2025-04-05T12:41:34Z</time>
      </trkpt>
      <trkpt lat="50.41457" lon="4.88057">
        <ele>66.4</ele>
        <time>2025-04-05T12:41:35Z</time>
      </trkpt>
      <trkpt lat="50.41464" lon="4.88057">
        <ele>66.2</ele>
        <time>2025-04-05T12:41:36Z</time>
      </trkpt>
      <trkpt lat="50.4147" lon="4.88057">
        <ele>66.2</ele>
        <time>2025-04-05T12:41:37Z</time>
      </trkpt>
      <trkpt lat="50.41476" lon="4.88057">
        <ele>66.2</ele>
        <time>2025-04-05T12:41:38Z</time>
      </trkpt>
      <trkpt lat="50.41482" lon="4.88056">
        <ele>66</ele>
        <time>2025-04-05T12:41:39Z</time>
      </trkpt>
      <trkpt lat="50.41489" lon="4.88054">
        <ele>66</ele>
        <time>2025-04-05T12:41:40Z</time>
      </trkpt>
      <trkpt lat="50.41496" lon="4.88052">
        <ele>66</ele>
        <time>2025-04-05T12:41:41Z</time>
      </trkpt>
      <trkpt lat="50.41502" lon="4.8805">
        <ele>65.8</ele>
        <time>2025-04-05T12:41:42Z</time>
      </trkpt>
      <trkpt lat="50.41508" lon="4.88048">
        <ele>65.8</ele>
        <time>2025-04-05T12:41:43Z</time>
      </trkpt>
      <trkpt lat="50.41514" lon="4.88044">
        <ele>65.8</ele>
        <time>2025-04-05T12:41:44Z</time>
      </trkpt>
      <trkpt lat="50.4152" lon="4.88039">
        <ele>65.8</ele>
        <time>2025-04-05T12:41:45Z</time>
      </trkpt>
      <trkpt lat="50.41526" lon="4.88034">
        <ele>65.8</ele>
        <time>2025-04-05T12:41:46Z</time>
      </trkpt>
      <trkpt lat="50.41531" lon="4.8803">
        <ele>65.8</ele>
        <time>2025-04-05T12:41:47Z</time>
      </trkpt>
      <trkpt lat="50.41538" lon="4.88025">
        <ele>65.8</ele>
        <time>2025-04-05T12:41:48Z</time>
      </trkpt>
      <trkpt lat="50.41543" lon="4.8802">
        <ele>65.8</ele>
        <time>2025-04-05T12:41:49Z</time>
      </trkpt>
      <trkpt lat="50.41548" lon="4.88015">
        <ele>65.8</ele>
        <time>2025-04-05T12:41:50Z</time>
      </trkpt>
      <trkpt lat="50.41554" lon="4.8801">
        <ele>65.8</ele>
        <time>2025-04-05T12:41:51Z</time>
      </trkpt>
      <trkpt lat="50.41559" lon="4.88004">
        <ele>65.8</ele>
        <time>2025-04-05T12:41:52Z</time>
      </trkpt>
      <trkpt lat="50.41565" lon="4.87999">
        <ele>65.8</ele>
        <time>2025-04-05T12:41:53Z</time>
      </trkpt>
      <trkpt lat="50.4157" lon="4.87994">
        <ele>65.6</ele>
        <time>2025-04-05T12:41:54Z</time>
      </trkpt>
      <trkpt lat="50.41575" lon="4.8799">
        <ele>65.6</ele>
        <time>2025-04-05T12:41:55Z</time>
      </trkpt>
      <trkpt lat="50.4158" lon="4.87984">
        <ele>65.6</ele>
        <time>2025-04-05T12:41:56Z</time>
      </trkpt>
      <trkpt lat="50.41586" lon="4.87978">
        <ele>65.6</ele>
        <time>2025-04-05T12:41:57Z</time>
      </trkpt>
      <trkpt lat="50.41591" lon="4.87972">
        <ele>65.6</ele>
        <time>2025-04-05T12:41:58Z</time>
      </trkpt>
      <trkpt lat="50.41596" lon="4.87966">
        <ele>65.6</ele>
        <time>2025-04-05T12:41:59Z</time>
      </trkpt>
      <trkpt lat="50.41602" lon="4.8796">
        <ele>65.6</ele>
        <time>2025-04-05T12:42:00Z</time>
      </trkpt>
      <trkpt lat="50.41607" lon="4.87955">
        <ele>65.6</ele>
        <time>2025-04-05T12:42:01Z</time>
      </trkpt>
      <trkpt lat="50.41613" lon="4.87949">
        <ele>65.6</ele>
        <time>2025-04-05T12:42:02Z</time>
      </trkpt>
      <trkpt lat="50.41618" lon="4.87944">
        <ele>65.6</ele>
        <time>2025-04-05T12:42:03Z</time>
      </trkpt>
      <trkpt lat="50.41623" lon="4.87939">
        <ele>65.6</ele>
        <time>2025-04-05T12:42:04Z</time>
      </trkpt>
      <trkpt lat="50.41628" lon="4.87934">
        <ele>65.4</ele>
        <time>2025-04-05T12:42:05Z</time>
      </trkpt>
      <trkpt lat="50.41633" lon="4.87929">
        <ele>65.4</ele>
        <time>2025-04-05T12:42:06Z</time>
      </trkpt>
      <trkpt lat="50.41639" lon="4.87925">
        <ele>65.6</ele>
        <time>2025-04-05T12:42:07Z</time>
      </trkpt>
      <trkpt lat="50.41644" lon="4.8792">
        <ele>65.6</ele>
        <time>2025-04-05T12:42:08Z</time>
      </trkpt>
      <trkpt lat="50.4165" lon="4.87916">
        <ele>65.6</ele>
        <time>2025-04-05T12:42:09Z</time>
      </trkpt>
      <trkpt lat="50.41656" lon="4.87912">
        <ele>65.4</ele>
        <time>2025-04-05T12:42:10Z</time>
      </trkpt>
      <trkpt lat="50.41661" lon="4.87908">
        <ele>65.6</ele>
        <time>2025-04-05T12:42:11Z</time>
      </trkpt>
      <trkpt lat="50.41667" lon="4.87904">
        <ele>65.6</ele>
        <time>2025-04-05T12:42:12Z</time>
      </trkpt>
      <trkpt lat="50.41674" lon="4.879">
        <ele>65.6</ele>
        <time>2025-04-05T12:42:13Z</time>
      </trkpt>
      <trkpt lat="50.4168" lon="4.87897">
        <ele>65.8</ele>
        <time>2025-04-05T12:42:14Z</time>
      </trkpt>
      <trkpt lat="50.41686" lon="4.87894">
        <ele>65.8</ele>
        <time>2025-04-05T12:42:15Z</time>
      </trkpt>
      <trkpt lat="50.41692" lon="4.8789">
        <ele>65.8</ele>
        <time>2025-04-05T12:42:16Z</time>
      </trkpt>
      <trkpt lat="50.41698" lon="4.87888">
        <ele>65.8</ele>
        <time>2025-04-05T12:42:17Z</time>
      </trkpt>
      <trkpt lat="50.41703" lon="4.87885">
        <ele>65.8</ele>
        <time>2025-04-05T12:42:18Z</time>
      </trkpt>
      <trkpt lat="50.41709" lon="4.87883">
        <ele>66</ele>
        <time>2025-04-05T12:42:19Z</time>
      </trkpt>
      <trkpt lat="50.41714" lon="4.87881">
        <ele>66</ele>
        <time>2025-04-05T12:42:20Z</time>
      </trkpt>
      <trkpt lat="50.41721" lon="4.87878">
        <ele>66</ele>
        <time>2025-04-05T12:42:21Z</time>
      </trkpt>
      <trkpt lat="50.41726" lon="4.87876">
        <ele>66.2</ele>
        <time>2025-04-05T12:42:22Z</time>
      </trkpt>
      <trkpt lat="50.41731" lon="4.87874">
        <ele>66.2</ele>
        <time>2025-04-05T12:42:23Z</time>
      </trkpt>
      <trkpt lat="50.41737" lon="4.87872">
        <ele>66</ele>
        <time>2025-04-05T12:42:24Z</time>
      </trkpt>
      <trkpt lat="50.41742" lon="4.8787">
        <ele>66</ele>
        <time>2025-04-05T12:42:25Z</time>
      </trkpt>
      <trkpt lat="50.41748" lon="4.87868">
        <ele>66</ele>
        <time>2025-04-05T12:42:26Z</time>
      </trkpt>
      <trkpt lat="50.41753" lon="4.87865">
        <ele>66</ele>
        <time>2025-04-05T12:42:27Z</time>
      </trkpt>
      <trkpt lat="50.41758" lon="4.87863">
        <ele>66.2</ele>
        <time>2025-04-05T12:42:28Z</time>
      </trkpt>
      <trkpt lat="50.41763" lon="4.87861">
        <ele>66.2</ele>
        <time>2025-04-05T12:42:29Z</time>
      </trkpt>
      <trkpt lat="50.41769" lon="4.87859">
        <ele>66.2</ele>
        <time>2025-04-05T12:42:30Z</time>
      </trkpt>
      <trkpt lat="50.41774" lon="4.87857">
        <ele>66.2</ele>
        <time>2025-04-05T12:42:31Z</time>
      </trkpt>
      <trkpt lat="50.4178" lon="4.87854">
        <ele>66.2</ele>
        <time>2025-04-05T12:42:32Z</time>
      </trkpt>
      <trkpt lat="50.41786" lon="4.87852">
        <ele>66.2</ele>
        <time>2025-04-05T12:42:33Z</time>
      </trkpt>
      <trkpt lat="50.41792" lon="4.87849">
        <ele>66.2</ele>
        <time>2025-04-05T12:42:34Z</time>
      </trkpt>
      <trkpt lat="50.41798" lon="4.87847">
        <ele>66</ele>
        <time>2025-04-05T12:42:35Z</time>
      </trkpt>
      <trkpt lat="50.41804" lon="4.87845">
        <ele>66.2</ele>
        <time>2025-04-05T12:42:36Z</time>
      </trkpt>
      <trkpt lat="50.41811" lon="4.87842">
        <ele>66.2</ele>
        <time>2025-04-05T12:42:37Z</time>
      </trkpt>
      <trkpt lat="50.41816" lon="4.87841">
        <ele>66</ele>
        <time>2025-04-05T12:42:38Z</time>
      </trkpt>
      <trkpt lat="50.41822" lon="4.87839">
        <ele>66</ele>
        <time>2025-04-05T12:42:39Z</time>
      </trkpt>
      <trkpt lat="50.41829" lon="4.87836">
        <ele>66</ele>
        <time>2025-04-05T12:42:40Z</time>
      </trkpt>
      <trkpt lat="50.41835" lon="4.87833">
        <ele>66</ele>
        <time>2025-04-05T12:42:41Z</time>
      </trkpt>
      <trkpt lat="50.41841" lon="4.87831">
        <ele>66</ele>
        <time>2025-04-05T12:42:42Z</time>
      </trkpt>
      <trkpt lat="50.41847" lon="4.87828">
        <ele>66</ele>
        <time>2025-04-05T12:42:43Z</time>
      </trkpt>
      <trkpt lat="50.41852" lon="4.87826">
        <ele>65.8</ele>
        <time>2025-04-05T12:42:44Z</time>
      </trkpt>
      <trkpt lat="50.41857" lon="4.87824">
        <ele>65.8</ele>
        <time>2025-04-05T12:42:45Z</time>
      </trkpt>
      <trkpt lat="50.41863" lon="4.87822">
        <ele>65.8</ele>
        <time>2025-04-05T12:42:46Z</time>
      </trkpt>
      <trkpt lat="50.41868" lon="4.8782">
        <ele>65.8</ele>
        <time>2025-04-05T12:42:47Z</time>
      </trkpt>
      <trkpt lat="50.41874" lon="4.87817">
        <ele>65.8</ele>
        <time>2025-04-05T12:42:48Z</time>
      </trkpt>
      <trkpt lat="50.41879" lon="4.87816">
        <ele>65.8</ele>
        <time>2025-04-05T12:42:49Z</time>
      </trkpt>
      <trkpt lat="50.41886" lon="4.87813">
        <ele>65.8</ele>
        <time>2025-04-05T12:42:50Z</time>
      </trkpt>
      <trkpt lat="50.41892" lon="4.8781">
        <ele>65.6</ele>
        <time>2025-04-05T12:42:51Z</time>
      </trkpt>
      <trkpt lat="50.41897" lon="4.87808">
        <ele>65.6</ele>
        <time>2025-04-05T12:42:52Z</time>
      </trkpt>
      <trkpt lat="50.41903" lon="4.87806">
        <ele>65.6</ele>
        <time>2025-04-05T12:42:53Z</time>
      </trkpt>
      <trkpt lat="50.41908" lon="4.87804">
        <ele>65.6</ele>
        <time>2025-04-05T12:42:54Z</time>
      </trkpt>
      <trkpt lat="50.41913" lon="4.87802">
        <ele>65.8</ele>
        <time>2025-04-05T12:42:55Z</time>
      </trkpt>
      <trkpt lat="50.41918" lon="4.878">
        <ele>65.8</ele>
        <time>2025-04-05T12:42:56Z</time>
      </trkpt>
      <trkpt lat="50.41924" lon="4.87798">
        <ele>66</ele>
        <time>2025-04-05T12:42:57Z</time>
      </trkpt>
      <trkpt lat="50.41929" lon="4.87796">
        <ele>66</ele>
        <time>2025-04-05T12:42:58Z</time>
      </trkpt>
      <trkpt lat="50.41935" lon="4.87794">
        <ele>66</ele>
        <time>2025-04-05T12:42:59Z</time>
      </trkpt>
      <trkpt lat="50.4194" lon="4.87792">
        <ele>66</ele>
        <time>2025-04-05T12:43:00Z</time>
      </trkpt>
      <trkpt lat="50.41945" lon="4.8779">
        <ele>66.2</ele>
        <time>2025-04-05T12:43:01Z</time>
      </trkpt>
      <trkpt lat="50.4195" lon="4.87787">
        <ele>66.2</ele>
        <time>2025-04-05T12:43:02Z</time>
      </trkpt>
      <trkpt lat="50.41956" lon="4.87785">
        <ele>66.2</ele>
        <time>2025-04-05T12:43:03Z</time>
      </trkpt>
      <trkpt lat="50.41961" lon="4.87782">
        <ele>66.2</ele>
        <time>2025-04-05T12:43:04Z</time>
      </trkpt>
      <trkpt lat="50.41966" lon="4.8778">
        <ele>66.2</ele>
        <time>2025-04-05T12:43:05Z</time>
      </trkpt>
      <trkpt lat="50.41972" lon="4.87778">
        <ele>66.2</ele>
        <time>2025-04-05T12:43:06Z</time>
      </trkpt>
      <trkpt lat="50.41977" lon="4.87776">
        <ele>66</ele>
        <time>2025-04-05T12:43:07Z</time>
      </trkpt>
      <trkpt lat="50.41983" lon="4.87774">
        <ele>66.2</ele>
        <time>2025-04-05T12:43:08Z</time>
      </trkpt>
      <trkpt lat="50.41988" lon="4.87773">
        <ele>66.2</ele>
        <time>2025-04-05T12:43:09Z</time>
      </trkpt>
      <trkpt lat="50.41993" lon="4.87771">
        <ele>66.2</ele>
        <time>2025-04-05T12:43:10Z</time>
      </trkpt>
      <trkpt lat="50.41999" lon="4.87769">
        <ele>66.2</ele>
        <time>2025-04-05T12:43:11Z</time>
      </trkpt>
      <trkpt lat="50.42004" lon="4.87766">
        <ele>66.2</ele>
        <time>2025-04-05T12:43:12Z</time>
      </trkpt>
      <trkpt lat="50.42009" lon="4.87765">
        <ele>66.2</ele>
        <time>2025-04-05T12:43:13Z</time>
      </trkpt>
      <trkpt lat="50.42015" lon="4.87763">
        <ele>66.2</ele>
        <time>2025-04-05T12:43:14Z</time>
      </trkpt>
      <trkpt lat="50.42021" lon="4.8776">
        <ele>66.2</ele>
        <time>2025-04-05T12:43:15Z</time>
      </trkpt>
      <trkpt lat="50.42027" lon="4.87758">
        <ele>66.2</ele>
        <time>2025-04-05T12:43:16Z</time>
      </trkpt>
      <trkpt lat="50.42032" lon="4.87756">
        <ele>66.2</ele>
        <time>2025-04-05T12:43:17Z</time>
      </trkpt>
      <trkpt lat="50.42038" lon="4.87754">
        <ele>66.2</ele>
        <time>2025-04-05T12:43:18Z</time>
      </trkpt>
      <trkpt lat="50.42043" lon="4.87752">
        <ele>66.2</ele>
        <time>2025-04-05T12:43:19Z</time>
      </trkpt>
      <trkpt lat="50.42049" lon="4.8775">
        <ele>66.2</ele>
        <time>2025-04-05T12:43:20Z</time>
      </trkpt>
      <trkpt lat="50.42054" lon="4.87747">
        <ele>66.2</ele>
        <time>2025-04-05T12:43:21Z</time>
      </trkpt>
      <trkpt lat="50.42059" lon="4.87745">
        <ele>66.2</ele>
        <time>2025-04-05T12:43:22Z</time>
      </trkpt>
      <trkpt lat="50.42065" lon="4.87742">
        <ele>66</ele>
        <time>2025-04-05T12:43:23Z</time>
      </trkpt>
      <trkpt lat="50.4207" lon="4.87739">
        <ele>66</ele>
        <time>2025-04-05T12:43:24Z</time>
      </trkpt>
      <trkpt lat="50.42076" lon="4.87736">
        <ele>66</ele>
        <time>2025-04-05T12:43:25Z</time>
      </trkpt>
      <trkpt lat="50.42081" lon="4.87732">
        <ele>65.8</ele>
        <time>2025-04-05T12:43:26Z</time>
      </trkpt>
      <trkpt lat="50.42086" lon="4.87729">
        <ele>65.8</ele>
        <time>2025-04-05T12:43:27Z</time>
      </trkpt>
      <trkpt lat="50.42092" lon="4.87725">
        <ele>65.8</ele>
        <time>2025-04-05T12:43:28Z</time>
      </trkpt>
      <trkpt lat="50.42098" lon="4.87721">
        <ele>65.8</ele>
        <time>2025-04-05T12:43:29Z</time>
      </trkpt>
      <trkpt lat="50.42103" lon="4.87717">
        <ele>66</ele>
        <time>2025-04-05T12:43:30Z</time>
      </trkpt>
      <trkpt lat="50.42109" lon="4.87712">
        <ele>66.2</ele>
        <time>2025-04-05T12:43:31Z</time>
      </trkpt>
      <trkpt lat="50.42114" lon="4.87707">
        <ele>66.2</ele>
        <time>2025-04-05T12:43:32Z</time>
      </trkpt>
      <trkpt lat="50.4212" lon="4.87702">
        <ele>66.4</ele>
        <time>2025-04-05T12:43:33Z</time>
      </trkpt>
      <trkpt lat="50.42125" lon="4.87697">
        <ele>66.4</ele>
        <time>2025-04-05T12:43:34Z</time>
      </trkpt>
      <trkpt lat="50.42131" lon="4.87692">
        <ele>66.4</ele>
        <time>2025-04-05T12:43:35Z</time>
      </trkpt>
      <trkpt lat="50.42136" lon="4.87687">
        <ele>66.4</ele>
        <time>2025-04-05T12:43:36Z</time>
      </trkpt>
      <trkpt lat="50.42141" lon="4.87682">
        <ele>66.4</ele>
        <time>2025-04-05T12:43:37Z</time>
      </trkpt>
      <trkpt lat="50.42146" lon="4.87677">
        <ele>66.6</ele>
        <time>2025-04-05T12:43:38Z</time>
      </trkpt>
      <trkpt lat="50.42151" lon="4.87672">
        <ele>66.6</ele>
        <time>2025-04-05T12:43:39Z</time>
      </trkpt>
      <trkpt lat="50.42157" lon="4.87667">
        <ele>66.6</ele>
        <time>2025-04-05T12:43:40Z</time>
      </trkpt>
      <trkpt lat="50.42162" lon="4.87662">
        <ele>66.6</ele>
        <time>2025-04-05T12:43:41Z</time>
      </trkpt>
      <trkpt lat="50.42167" lon="4.87657">
        <ele>66.6</ele>
        <time>2025-04-05T12:43:42Z</time>
      </trkpt>
      <trkpt lat="50.42173" lon="4.87651">
        <ele>66.6</ele>
        <time>2025-04-05T12:43:43Z</time>
      </trkpt>
      <trkpt lat="50.42178" lon="4.87646">
        <ele>66.6</ele>
        <time>2025-04-05T12:43:44Z</time>
      </trkpt>
      <trkpt lat="50.42183" lon="4.8764">
        <ele>66.6</ele>
        <time>2025-04-05T12:43:45Z</time>
      </trkpt>
      <trkpt lat="50.42188" lon="4.87634">
        <ele>66.6</ele>
        <time>2025-04-05T12:43:46Z</time>
      </trkpt>
      <trkpt lat="50.42193" lon="4.87628">
        <ele>66.6</ele>
        <time>2025-04-05T12:43:47Z</time>
      </trkpt>
      <trkpt lat="50.42198" lon="4.87622">
        <ele>66.6</ele>
        <time>2025-04-05T12:43:48Z</time>
      </trkpt>
      <trkpt lat="50.42202" lon="4.87615">
        <ele>66.8</ele>
        <time>2025-04-05T12:43:49Z</time>
      </trkpt>
      <trkpt lat="50.42207" lon="4.87608">
        <ele>66.8</ele>
        <time>2025-04-05T12:43:50Z</time>
      </trkpt>
      <trkpt lat="50.42212" lon="4.87602">
        <ele>67</ele>
        <time>2025-04-05T12:43:51Z</time>
      </trkpt>
      <trkpt lat="50.42217" lon="4.87596">
        <ele>67</ele>
        <time>2025-04-05T12:43:52Z</time>
      </trkpt>
      <trkpt lat="50.42222" lon="4.87589">
        <ele>67</ele>
        <time>2025-04-05T12:43:53Z</time>
      </trkpt>
      <trkpt lat="50.42226" lon="4.87583">
        <ele>67</ele>
        <time>2025-04-05T12:43:54Z</time>
      </trkpt>
      <trkpt lat="50.42231" lon="4.87577">
        <ele>67</ele>
        <time>2025-04-05T12:43:55Z</time>
      </trkpt>
      <trkpt lat="50.42235" lon="4.87571">
        <ele>67</ele>
        <time>2025-04-05T12:43:56Z</time>
      </trkpt>
      <trkpt lat="50.4224" lon="4.87563">
        <ele>67</ele>
        <time>2025-04-05T12:43:57Z</time>
      </trkpt>
      <trkpt lat="50.42245" lon="4.87556">
        <ele>67</ele>
        <time>2025-04-05T12:43:58Z</time>
      </trkpt>
      <trkpt lat="50.4225" lon="4.87548">
        <ele>67</ele>
        <time>2025-04-05T12:43:59Z</time>
      </trkpt>
      <trkpt lat="50.42254" lon="4.87541">
        <ele>67</ele>
        <time>2025-04-05T12:44:00Z</time>
      </trkpt>
      <trkpt lat="50.42259" lon="4.87534">
        <ele>67.2</ele>
        <time>2025-04-05T12:44:01Z</time>
      </trkpt>
      <trkpt lat="50.42263" lon="4.87528">
        <ele>67.2</ele>
        <time>2025-04-05T12:44:02Z</time>
      </trkpt>
      <trkpt lat="50.42268" lon="4.87522">
        <ele>67.4</ele>
        <time>2025-04-05T12:44:03Z</time>
      </trkpt>
      <trkpt lat="50.42272" lon="4.87515">
        <ele>67.4</ele>
        <time>2025-04-05T12:44:04Z</time>
      </trkpt>
      <trkpt lat="50.42276" lon="4.87509">
        <ele>67.2</ele>
        <time>2025-04-05T12:44:05Z</time>
      </trkpt>
      <trkpt lat="50.42281" lon="4.87502">
        <ele>67.2</ele>
        <time>2025-04-05T12:44:06Z</time>
      </trkpt>
      <trkpt lat="50.42285" lon="4.87495">
        <ele>67.2</ele>
        <time>2025-04-05T12:44:07Z</time>
      </trkpt>
      <trkpt lat="50.42289" lon="4.87488">
        <ele>67.2</ele>
        <time>2025-04-05T12:44:08Z</time>
      </trkpt>
      <trkpt lat="50.42294" lon="4.87481">
        <ele>67.2</ele>
        <time>2025-04-05T12:44:09Z</time>
      </trkpt>
      <trkpt lat="50.42298" lon="4.87474">
        <ele>67.2</ele>
        <time>2025-04-05T12:44:10Z</time>
      </trkpt>
      <trkpt lat="50.42303" lon="4.87466">
        <ele>67.2</ele>
        <time>2025-04-05T12:44:11Z</time>
      </trkpt>
      <trkpt lat="50.42307" lon="4.87459">
        <ele>67.2</ele>
        <time>2025-04-05T12:44:12Z</time>
      </trkpt>
      <trkpt lat="50.42312" lon="4.87452">
        <ele>67.2</ele>
        <time>2025-04-05T12:44:13Z</time>
      </trkpt>
      <trkpt lat="50.42316" lon="4.87445">
        <ele>67.2</ele>
        <time>2025-04-05T12:44:14Z</time>
      </trkpt>
      <trkpt lat="50.42321" lon="4.87438">
        <ele>67.2</ele>
        <time>2025-04-05T12:44:15Z</time>
      </trkpt>
      <trkpt lat="50.42325" lon="4.87431">
        <ele>67.2</ele>
        <time>2025-04-05T12:44:16Z</time>
      </trkpt>
      <trkpt lat="50.42329" lon="4.87425">
        <ele>67</ele>
        <time>2025-04-05T12:44:17Z</time>
      </trkpt>
      <trkpt lat="50.42333" lon="4.87418">
        <ele>67</ele>
        <time>2025-04-05T12:44:18Z</time>
      </trkpt>
      <trkpt lat="50.42337" lon="4.87412">
        <ele>67</ele>
        <time>2025-04-05T12:44:19Z</time>
      </trkpt>
      <trkpt lat="50.42341" lon="4.87405">
        <ele>67</ele>
        <time>2025-04-05T12:44:20Z</time>
      </trkpt>
      <trkpt lat="50.42345" lon="4.87398">
        <ele>66.8</ele>
        <time>2025-04-05T12:44:21Z</time>
      </trkpt>
      <trkpt lat="50.42349" lon="4.87392">
        <ele>66.6</ele>
        <time>2025-04-05T12:44:22Z</time>
      </trkpt>
      <trkpt lat="50.42353" lon="4.87385">
        <ele>66.4</ele>
        <time>2025-04-05T12:44:23Z</time>
      </trkpt>
      <trkpt lat="50.42358" lon="4.87379">
        <ele>66.4</ele>
        <time>2025-04-05T12:44:24Z</time>
      </trkpt>
      <trkpt lat="50.42362" lon="4.87373">
        <ele>66.6</ele>
        <time>2025-04-05T12:44:25Z</time>
      </trkpt>
      <trkpt lat="50.42366" lon="4.87366">
        <ele>66.6</ele>
        <time>2025-04-05T12:44:26Z</time>
      </trkpt>
      <trkpt lat="50.4237" lon="4.8736">
        <ele>66.4</ele>
        <time>2025-04-05T12:44:27Z</time>
      </trkpt>
      <trkpt lat="50.42373" lon="4.87355">
        <ele>66.4</ele>
        <time>2025-04-05T12:44:28Z</time>
      </trkpt>
      <trkpt lat="50.42376" lon="4.8735">
        <ele>66.4</ele>
        <time>2025-04-05T12:44:29Z</time>
      </trkpt>
      <trkpt lat="50.42379" lon="4.87345">
        <ele>66.4</ele>
        <time>2025-04-05T12:44:30Z</time>
      </trkpt>
      <trkpt lat="50.42382" lon="4.8734">
        <ele>66.4</ele>
        <time>2025-04-05T12:44:31Z</time>
      </trkpt>
      <trkpt lat="50.42386" lon="4.87334">
        <ele>66.4</ele>
        <time>2025-04-05T12:44:32Z</time>
      </trkpt>
      <trkpt lat="50.4239" lon="4.87329">
        <ele>66.2</ele>
        <time>2025-04-05T12:44:33Z</time>
      </trkpt>
      <trkpt lat="50.42393" lon="4.87323">
        <ele>66</ele>
        <time>2025-04-05T12:44:34Z</time>
      </trkpt>
      <trkpt lat="50.42397" lon="4.87317">
        <ele>66</ele>
        <time>2025-04-05T12:44:35Z</time>
      </trkpt>
      <trkpt lat="50.42401" lon="4.87311">
        <ele>66.2</ele>
        <time>2025-04-05T12:44:36Z</time>
      </trkpt>
      <trkpt lat="50.42405" lon="4.87304">
        <ele>66.4</ele>
        <time>2025-04-05T12:44:37Z</time>
      </trkpt>
      <trkpt lat="50.42409" lon="4.87298">
        <ele>66.2</ele>
        <time>2025-04-05T12:44:38Z</time>
      </trkpt>
      <trkpt lat="50.42413" lon="4.87292">
        <ele>66</ele>
        <time>2025-04-05T12:44:39Z</time>
      </trkpt>
      <trkpt lat="50.42418" lon="4.87285">
        <ele>65.6</ele>
        <time>2025-04-05T12:44:40Z</time>
      </trkpt>
      <trkpt lat="50.42423" lon="4.87276">
        <ele>65.4</ele>
        <time>2025-04-05T12:44:41Z</time>
      </trkpt>
      <trkpt lat="50.42426" lon="4.87269">
        <ele>65.2</ele>
        <time>2025-04-05T12:44:42Z</time>
      </trkpt>
      <trkpt lat="50.4243" lon="4.87262">
        <ele>64.8</ele>
        <time>2025-04-05T12:44:43Z</time>
      </trkpt>
      <trkpt lat="50.42434" lon="4.87255">
        <ele>64.8</ele>
        <time>2025-04-05T12:44:44Z</time>
      </trkpt>
      <trkpt lat="50.42437" lon="4.87248">
        <ele>64.8</ele>
        <time>2025-04-05T12:44:45Z</time>
      </trkpt>
      <trkpt lat="50.42441" lon="4.87241">
        <ele>65</ele>
        <time>2025-04-05T12:44:46Z</time>
      </trkpt>
      <trkpt lat="50.42445" lon="4.87235">
        <ele>65</ele>
        <time>2025-04-05T12:44:47Z</time>
      </trkpt>
      <trkpt lat="50.42448" lon="4.87229">
        <ele>65.2</ele>
        <time>2025-04-05T12:44:48Z</time>
      </trkpt>
      <trkpt lat="50.42453" lon="4.87221">
        <ele>65.4</ele>
        <time>2025-04-05T12:44:49Z</time>
      </trkpt>
      <trkpt lat="50.42456" lon="4.87214">
        <ele>65.4</ele>
        <time>2025-04-05T12:44:50Z</time>
      </trkpt>
      <trkpt lat="50.4246" lon="4.87208">
        <ele>65.6</ele>
        <time>2025-04-05T12:44:51Z</time>
      </trkpt>
      <trkpt lat="50.42464" lon="4.87201">
        <ele>65.6</ele>
        <time>2025-04-05T12:44:52Z</time>
      </trkpt>
      <trkpt lat="50.42468" lon="4.87194">
        <ele>65.6</ele>
        <time>2025-04-05T12:44:53Z</time>
      </trkpt>
      <trkpt lat="50.42471" lon="4.87188">
        <ele>65.8</ele>
        <time>2025-04-05T12:44:54Z</time>
      </trkpt>
      <trkpt lat="50.42476" lon="4.87182">
        <ele>65.8</ele>
        <time>2025-04-05T12:44:55Z</time>
      </trkpt>
      <trkpt lat="50.4248" lon="4.87176">
        <ele>65.8</ele>
        <time>2025-04-05T12:44:56Z</time>
      </trkpt>
      <trkpt lat="50.42484" lon="4.8717">
        <ele>65.8</ele>
        <time>2025-04-05T12:44:57Z</time>
      </trkpt>
      <trkpt lat="50.42488" lon="4.87164">
        <ele>65.8</ele>
        <time>2025-04-05T12:44:58Z</time>
      </trkpt>
      <trkpt lat="50.42492" lon="4.87159">
        <ele>65.8</ele>
        <time>2025-04-05T12:44:59Z</time>
      </trkpt>
      <trkpt lat="50.42495" lon="4.87153">
        <ele>66</ele>
        <time>2025-04-05T12:45:00Z</time>
      </trkpt>
      <trkpt lat="50.42499" lon="4.87147">
        <ele>65.8</ele>
        <time>2025-04-05T12:45:01Z</time>
      </trkpt>
      <trkpt lat="50.42503" lon="4.87141">
        <ele>65.8</ele>
        <time>2025-04-05T12:45:02Z</time>
      </trkpt>
      <trkpt lat="50.42507" lon="4.87136">
        <ele>66</ele>
        <time>2025-04-05T12:45:03Z</time>
      </trkpt>
      <trkpt lat="50.42511" lon="4.8713">
        <ele>66</ele>
        <time>2025-04-05T12:45:04Z</time>
      </trkpt>
      <trkpt lat="50.42515" lon="4.87124">
        <ele>66.2</ele>
        <time>2025-04-05T12:45:05Z</time>
      </trkpt>
      <trkpt lat="50.42519" lon="4.87118">
        <ele>66.2</ele>
        <time>2025-04-05T12:45:06Z</time>
      </trkpt>
      <trkpt lat="50.42523" lon="4.87112">
        <ele>66.2</ele>
        <time>2025-04-05T12:45:07Z</time>
      </trkpt>
      <trkpt lat="50.42527" lon="4.87106">
        <ele>66</ele>
        <time>2025-04-05T12:45:08Z</time>
      </trkpt>
      <trkpt lat="50.42531" lon="4.87099">
        <ele>66</ele>
        <time>2025-04-05T12:45:09Z</time>
      </trkpt>
      <trkpt lat="50.42535" lon="4.87093">
        <ele>66</ele>
        <time>2025-04-05T12:45:10Z</time>
      </trkpt>
      <trkpt lat="50.4254" lon="4.87088">
        <ele>65.8</ele>
        <time>2025-04-05T12:45:11Z</time>
      </trkpt>
      <trkpt lat="50.42544" lon="4.87082">
        <ele>65.8</ele>
        <time>2025-04-05T12:45:12Z</time>
      </trkpt>
      <trkpt lat="50.42549" lon="4.87076">
        <ele>65.8</ele>
        <time>2025-04-05T12:45:13Z</time>
      </trkpt>
      <trkpt lat="50.42553" lon="4.8707">
        <ele>65.8</ele>
        <time>2025-04-05T12:45:14Z</time>
      </trkpt>
      <trkpt lat="50.42558" lon="4.87063">
        <ele>65.6</ele>
        <time>2025-04-05T12:45:15Z</time>
      </trkpt>
      <trkpt lat="50.42563" lon="4.87056">
        <ele>65.8</ele>
        <time>2025-04-05T12:45:16Z</time>
      </trkpt>
      <trkpt lat="50.42568" lon="4.8705">
        <ele>65.8</ele>
        <time>2025-04-05T12:45:17Z</time>
      </trkpt>
      <trkpt lat="50.42572" lon="4.87043">
        <ele>65.6</ele>
        <time>2025-04-05T12:45:18Z</time>
      </trkpt>
      <trkpt lat="50.42577" lon="4.87037">
        <ele>65.4</ele>
        <time>2025-04-05T12:45:19Z</time>
      </trkpt>
      <trkpt lat="50.42581" lon="4.87032">
        <ele>65.2</ele>
        <time>2025-04-05T12:45:20Z</time>
      </trkpt>
      <trkpt lat="50.42585" lon="4.87027">
        <ele>65</ele>
        <time>2025-04-05T12:45:21Z</time>
      </trkpt>
      <trkpt lat="50.42589" lon="4.87021">
        <ele>64.8</ele>
        <time>2025-04-05T12:45:22Z</time>
      </trkpt>
      <trkpt lat="50.42595" lon="4.87014">
        <ele>64.8</ele>
        <time>2025-04-05T12:45:23Z</time>
      </trkpt>
      <trkpt lat="50.426" lon="4.87008">
        <ele>64.8</ele>
        <time>2025-04-05T12:45:24Z</time>
      </trkpt>
      <trkpt lat="50.42604" lon="4.87002">
        <ele>64.8</ele>
        <time>2025-04-05T12:45:25Z</time>
      </trkpt>
      <trkpt lat="50.42609" lon="4.86996">
        <ele>64.8</ele>
        <time>2025-04-05T12:45:26Z</time>
      </trkpt>
      <trkpt lat="50.42614" lon="4.86991">
        <ele>64.6</ele>
        <time>2025-04-05T12:45:27Z</time>
      </trkpt>
      <trkpt lat="50.42619" lon="4.86986">
        <ele>64.6</ele>
        <time>2025-04-05T12:45:28Z</time>
      </trkpt>
      <trkpt lat="50.42624" lon="4.86981">
        <ele>64.6</ele>
        <time>2025-04-05T12:45:29Z</time>
      </trkpt>
      <trkpt lat="50.42629" lon="4.86976">
        <ele>64.8</ele>
        <time>2025-04-05T12:45:30Z</time>
      </trkpt>
      <trkpt lat="50.42634" lon="4.8697">
        <ele>64.8</ele>
        <time>2025-04-05T12:45:31Z</time>
      </trkpt>
      <trkpt lat="50.42639" lon="4.86965">
        <ele>64.8</ele>
        <time>2025-04-05T12:45:32Z</time>
      </trkpt>
      <trkpt lat="50.42644" lon="4.86959">
        <ele>64.8</ele>
        <time>2025-04-05T12:45:33Z</time>
      </trkpt>
      <trkpt lat="50.42649" lon="4.86953">
        <ele>64.8</ele>
        <time>2025-04-05T12:45:34Z</time>
      </trkpt>
      <trkpt lat="50.42654" lon="4.86947">
        <ele>64.8</ele>
        <time>2025-04-05T12:45:35Z</time>
      </trkpt>
      <trkpt lat="50.42659" lon="4.8694">
        <ele>65</ele>
        <time>2025-04-05T12:45:36Z</time>
      </trkpt>
      <trkpt lat="50.42664" lon="4.86934">
        <ele>65</ele>
        <time>2025-04-05T12:45:37Z</time>
      </trkpt>
      <trkpt lat="50.42668" lon="4.86928">
        <ele>65.2</ele>
        <time>2025-04-05T12:45:38Z</time>
      </trkpt>
      <trkpt lat="50.42673" lon="4.86922">
        <ele>65.4</ele>
        <time>2025-04-05T12:45:39Z</time>
      </trkpt>
      <trkpt lat="50.42677" lon="4.86916">
        <ele>65.4</ele>
        <time>2025-04-05T12:45:40Z</time>
      </trkpt>
      <trkpt lat="50.42682" lon="4.8691">
        <ele>65.4</ele>
        <time>2025-04-05T12:45:41Z</time>
      </trkpt>
      <trkpt lat="50.42687" lon="4.86904">
        <ele>65.4</ele>
        <time>2025-04-05T12:45:42Z</time>
      </trkpt>
      <trkpt lat="50.42691" lon="4.86898">
        <ele>65.4</ele>
        <time>2025-04-05T12:45:43Z</time>
      </trkpt>
      <trkpt lat="50.42695" lon="4.86892">
        <ele>65.4</ele>
        <time>2025-04-05T12:45:44Z</time>
      </trkpt>
      <trkpt lat="50.42699" lon="4.86886">
        <ele>65.4</ele>
        <time>2025-04-05T12:45:45Z</time>
      </trkpt>
      <trkpt lat="50.42704" lon="4.86879">
        <ele>65.4</ele>
        <time>2025-04-05T12:45:46Z</time>
      </trkpt>
      <trkpt lat="50.42708" lon="4.86873">
        <ele>65.4</ele>
        <time>2025-04-05T12:45:47Z</time>
      </trkpt>
      <trkpt lat="50.42713" lon="4.86867">
        <ele>65.4</ele>
        <time>2025-04-05T12:45:48Z</time>
      </trkpt>
      <trkpt lat="50.42718" lon="4.86861">
        <ele>65.4</ele>
        <time>2025-04-05T12:45:49Z</time>
      </trkpt>
      <trkpt lat="50.42722" lon="4.86855">
        <ele>65.4</ele>
        <time>2025-04-05T12:45:50Z</time>
      </trkpt>
      <trkpt lat="50.42727" lon="4.86849">
        <ele>65.4</ele>
        <time>2025-04-05T12:45:51Z</time>
      </trkpt>
      <trkpt lat="50.42732" lon="4.86842">
        <ele>65.4</ele>
        <time>2025-04-05T12:45:52Z</time>
      </trkpt>
      <trkpt lat="50.42736" lon="4.86835">
        <ele>65.4</ele>
        <time>2025-04-05T12:45:53Z</time>
      </trkpt>
      <trkpt lat="50.42741" lon="4.86829">
        <ele>65.4</ele>
        <time>2025-04-05T12:45:54Z</time>
      </trkpt>
      <trkpt lat="50.42746" lon="4.86822">
        <ele>65.4</ele>
        <time>2025-04-05T12:45:55Z</time>
      </trkpt>
      <trkpt lat="50.4275" lon="4.86815">
        <ele>65.4</ele>
        <time>2025-04-05T12:45:56Z</time>
      </trkpt>
      <trkpt lat="50.42755" lon="4.86808">
        <ele>65.4</ele>
        <time>2025-04-05T12:45:57Z</time>
      </trkpt>
      <trkpt lat="50.42759" lon="4.86801">
        <ele>65.4</ele>
        <time>2025-04-05T12:45:58Z</time>
      </trkpt>
      <trkpt lat="50.42764" lon="4.86795">
        <ele>65.4</ele>
        <time>2025-04-05T12:45:59Z</time>
      </trkpt>
      <trkpt lat="50.42768" lon="4.86788">
        <ele>65.4</ele>
        <time>2025-04-05T12:46:00Z</time>
      </trkpt>
      <trkpt lat="50.42773" lon="4.86781">
        <ele>65.2</ele>
        <time>2025-04-05T12:46:01Z</time>
      </trkpt>
      <trkpt lat="50.42778" lon="4.86774">
        <ele>65.2</ele>
        <time>2025-04-05T12:46:02Z</time>
      </trkpt>
      <trkpt lat="50.42783" lon="4.86767">
        <ele>65</ele>
        <time>2025-04-05T12:46:03Z</time>
      </trkpt>
      <trkpt lat="50.42788" lon="4.86761">
        <ele>65</ele>
        <time>2025-04-05T12:46:04Z</time>
      </trkpt>
      <trkpt lat="50.42793" lon="4.86755">
        <ele>65.2</ele>
        <time>2025-04-05T12:46:05Z</time>
      </trkpt>
      <trkpt lat="50.42799" lon="4.86747">
        <ele>65.2</ele>
        <time>2025-04-05T12:46:06Z</time>
      </trkpt>
      <trkpt lat="50.42804" lon="4.86741">
        <ele>65.2</ele>
        <time>2025-04-05T12:46:07Z</time>
      </trkpt>
      <trkpt lat="50.42809" lon="4.86735">
        <ele>65.4</ele>
        <time>2025-04-05T12:46:08Z</time>
      </trkpt>
      <trkpt lat="50.42812" lon="4.8673">
        <ele>65.4</ele>
        <time>2025-04-05T12:46:09Z</time>
      </trkpt>
      <trkpt lat="50.42818" lon="4.86724">
        <ele>65.6</ele>
        <time>2025-04-05T12:46:10Z</time>
      </trkpt>
      <trkpt lat="50.42823" lon="4.86717">
        <ele>65.6</ele>
        <time>2025-04-05T12:46:11Z</time>
      </trkpt>
      <trkpt lat="50.42828" lon="4.8671">
        <ele>65.6</ele>
        <time>2025-04-05T12:46:12Z</time>
      </trkpt>
      <trkpt lat="50.42833" lon="4.86704">
        <ele>65.6</ele>
        <time>2025-04-05T12:46:13Z</time>
      </trkpt>
      <trkpt lat="50.42838" lon="4.86698">
        <ele>65.6</ele>
        <time>2025-04-05T12:46:14Z</time>
      </trkpt>
      <trkpt lat="50.42843" lon="4.86692">
        <ele>65.6</ele>
        <time>2025-04-05T12:46:15Z</time>
      </trkpt>
      <trkpt lat="50.42848" lon="4.86687">
        <ele>65.8</ele>
        <time>2025-04-05T12:46:16Z</time>
      </trkpt>
      <trkpt lat="50.42853" lon="4.86682">
        <ele>66</ele>
        <time>2025-04-05T12:46:17Z</time>
      </trkpt>
      <trkpt lat="50.42857" lon="4.86678">
        <ele>66</ele>
        <time>2025-04-05T12:46:18Z</time>
      </trkpt>
      <trkpt lat="50.42861" lon="4.86673">
        <ele>66</ele>
        <time>2025-04-05T12:46:19Z</time>
      </trkpt>
      <trkpt lat="50.42866" lon="4.86666">
        <ele>66.2</ele>
        <time>2025-04-05T12:46:20Z</time>
      </trkpt>
      <trkpt lat="50.42871" lon="4.86661">
        <ele>66.4</ele>
        <time>2025-04-05T12:46:21Z</time>
      </trkpt>
      <trkpt lat="50.42875" lon="4.86656">
        <ele>66.2</ele>
        <time>2025-04-05T12:46:22Z</time>
      </trkpt>
      <trkpt lat="50.4288" lon="4.86652">
        <ele>66.2</ele>
        <time>2025-04-05T12:46:23Z</time>
      </trkpt>
      <trkpt lat="50.42885" lon="4.86648">
        <ele>66.2</ele>
        <time>2025-04-05T12:46:24Z</time>
      </trkpt>
      <trkpt lat="50.4289" lon="4.86644">
        <ele>66.2</ele>
        <time>2025-04-05T12:46:25Z</time>
      </trkpt>
      <trkpt lat="50.42895" lon="4.8664">
        <ele>66.2</ele>
        <time>2025-04-05T12:46:26Z</time>
      </trkpt>
      <trkpt lat="50.429" lon="4.86636">
        <ele>66.4</ele>
        <time>2025-04-05T12:46:27Z</time>
      </trkpt>
      <trkpt lat="50.42905" lon="4.86632">
        <ele>66.4</ele>
        <time>2025-04-05T12:46:28Z</time>
      </trkpt>
      <trkpt lat="50.4291" lon="4.86628">
        <ele>66.6</ele>
        <time>2025-04-05T12:46:29Z</time>
      </trkpt>
      <trkpt lat="50.42915" lon="4.86623">
        <ele>66.6</ele>
        <time>2025-04-05T12:46:30Z</time>
      </trkpt>
      <trkpt lat="50.4292" lon="4.86619">
        <ele>66.6</ele>
        <time>2025-04-05T12:46:31Z</time>
      </trkpt>
      <trkpt lat="50.42925" lon="4.86615">
        <ele>66.4</ele>
        <time>2025-04-05T12:46:32Z</time>
      </trkpt>
      <trkpt lat="50.42931" lon="4.86611">
        <ele>66.4</ele>
        <time>2025-04-05T12:46:33Z</time>
      </trkpt>
      <trkpt lat="50.42936" lon="4.86607">
        <ele>66.4</ele>
        <time>2025-04-05T12:46:34Z</time>
      </trkpt>
      <trkpt lat="50.42941" lon="4.86603">
        <ele>66.2</ele>
        <time>2025-04-05T12:46:35Z</time>
      </trkpt>
      <trkpt lat="50.42947" lon="4.86599">
        <ele>66</ele>
        <time>2025-04-05T12:46:36Z</time>
      </trkpt>
      <trkpt lat="50.42952" lon="4.86595">
        <ele>65.8</ele>
        <time>2025-04-05T12:46:37Z</time>
      </trkpt>
      <trkpt lat="50.42958" lon="4.86591">
        <ele>65.8</ele>
        <time>2025-04-05T12:46:38Z</time>
      </trkpt>
      <trkpt lat="50.42963" lon="4.86588">
        <ele>66</ele>
        <time>2025-04-05T12:46:39Z</time>
      </trkpt>
      <trkpt lat="50.42968" lon="4.86584">
        <ele>66</ele>
        <time>2025-04-05T12:46:40Z</time>
      </trkpt>
      <trkpt lat="50.42973" lon="4.86581">
        <ele>66</ele>
        <time>2025-04-05T12:46:41Z</time>
      </trkpt>
      <trkpt lat="50.42978" lon="4.86577">
        <ele>66</ele>
        <time>2025-04-05T12:46:42Z</time>
      </trkpt>
      <trkpt lat="50.42984" lon="4.86572">
        <ele>66</ele>
        <time>2025-04-05T12:46:43Z</time>
      </trkpt>
      <trkpt lat="50.42989" lon="4.86568">
        <ele>66</ele>
        <time>2025-04-05T12:46:44Z</time>
      </trkpt>
      <trkpt lat="50.42995" lon="4.86563">
        <ele>65.8</ele>
        <time>2025-04-05T12:46:45Z</time>
      </trkpt>
      <trkpt lat="50.43001" lon="4.86559">
        <ele>65.8</ele>
        <time>2025-04-05T12:46:46Z</time>
      </trkpt>
      <trkpt lat="50.43007" lon="4.86554">
        <ele>65.8</ele>
        <time>2025-04-05T12:46:47Z</time>
      </trkpt>
      <trkpt lat="50.43012" lon="4.86551">
        <ele>65.8</ele>
        <time>2025-04-05T12:46:48Z</time>
      </trkpt>
      <trkpt lat="50.43018" lon="4.86546">
        <ele>65.6</ele>
        <time>2025-04-05T12:46:49Z</time>
      </trkpt>
      <trkpt lat="50.43024" lon="4.86541">
        <ele>65.4</ele>
        <time>2025-04-05T12:46:50Z</time>
      </trkpt>
      <trkpt lat="50.4303" lon="4.86536">
        <ele>65.4</ele>
        <time>2025-04-05T12:46:51Z</time>
      </trkpt>
      <trkpt lat="50.43036" lon="4.86532">
        <ele>65.4</ele>
        <time>2025-04-05T12:46:52Z</time>
      </trkpt>
      <trkpt lat="50.43041" lon="4.86528">
        <ele>65.4</ele>
        <time>2025-04-05T12:46:53Z</time>
      </trkpt>
      <trkpt lat="50.43047" lon="4.86524">
        <ele>65.4</ele>
        <time>2025-04-05T12:46:54Z</time>
      </trkpt>
      <trkpt lat="50.43052" lon="4.8652">
        <ele>65.4</ele>
        <time>2025-04-05T12:46:55Z</time>
      </trkpt>
      <trkpt lat="50.43057" lon="4.86516">
        <ele>65.2</ele>
        <time>2025-04-05T12:46:56Z</time>
      </trkpt>
      <trkpt lat="50.43062" lon="4.86512">
        <ele>65.2</ele>
        <time>2025-04-05T12:46:57Z</time>
      </trkpt>
      <trkpt lat="50.43068" lon="4.86508">
        <ele>65</ele>
        <time>2025-04-05T12:46:58Z</time>
      </trkpt>
      <trkpt lat="50.43073" lon="4.86505">
        <ele>64.8</ele>
        <time>2025-04-05T12:46:59Z</time>
      </trkpt>
      <trkpt lat="50.43078" lon="4.865">
        <ele>64.8</ele>
        <time>2025-04-05T12:47:00Z</time>
      </trkpt>
      <trkpt lat="50.43083" lon="4.86497">
        <ele>64.6</ele>
        <time>2025-04-05T12:47:01Z</time>
      </trkpt>
      <trkpt lat="50.43089" lon="4.86492">
        <ele>64.6</ele>
        <time>2025-04-05T12:47:02Z</time>
      </trkpt>
      <trkpt lat="50.43094" lon="4.86488">
        <ele>64.4</ele>
        <time>2025-04-05T12:47:03Z</time>
      </trkpt>
      <trkpt lat="50.431" lon="4.86484">
        <ele>64.4</ele>
        <time>2025-04-05T12:47:04Z</time>
      </trkpt>
      <trkpt lat="50.43105" lon="4.8648">
        <ele>64.6</ele>
        <time>2025-04-05T12:47:05Z</time>
      </trkpt>
      <trkpt lat="50.4311" lon="4.86475">
        <ele>64.6</ele>
        <time>2025-04-05T12:47:06Z</time>
      </trkpt>
      <trkpt lat="50.43115" lon="4.86471">
        <ele>64.8</ele>
        <time>2025-04-05T12:47:07Z</time>
      </trkpt>
      <trkpt lat="50.43121" lon="4.86467">
        <ele>64.8</ele>
        <time>2025-04-05T12:47:08Z</time>
      </trkpt>
      <trkpt lat="50.43126" lon="4.86463">
        <ele>65</ele>
        <time>2025-04-05T12:47:09Z</time>
      </trkpt>
      <trkpt lat="50.43132" lon="4.86459">
        <ele>65</ele>
        <time>2025-04-05T12:47:10Z</time>
      </trkpt>
      <trkpt lat="50.43137" lon="4.86455">
        <ele>64.8</ele>
        <time>2025-04-05T12:47:11Z</time>
      </trkpt>
      <trkpt lat="50.43143" lon="4.8645">
        <ele>64.8</ele>
        <time>2025-04-05T12:47:12Z</time>
      </trkpt>
      <trkpt lat="50.43148" lon="4.86446">
        <ele>64.8</ele>
        <time>2025-04-05T12:47:13Z</time>
      </trkpt>
      <trkpt lat="50.43153" lon="4.86441">
        <ele>64.8</ele>
        <time>2025-04-05T12:47:14Z</time>
      </trkpt>
      <trkpt lat="50.43159" lon="4.86436">
        <ele>64.8</ele>
        <time>2025-04-05T12:47:15Z</time>
      </trkpt>
      <trkpt lat="50.43164" lon="4.86432">
        <ele>64.6</ele>
        <time>2025-04-05T12:47:16Z</time>
      </trkpt>
      <trkpt lat="50.43169" lon="4.86428">
        <ele>64.6</ele>
        <time>2025-04-05T12:47:17Z</time>
      </trkpt>
      <trkpt lat="50.43174" lon="4.86425">
        <ele>64.6</ele>
        <time>2025-04-05T12:47:18Z</time>
      </trkpt>
      <trkpt lat="50.4318" lon="4.8642">
        <ele>64.6</ele>
        <time>2025-04-05T12:47:19Z</time>
      </trkpt>
      <trkpt lat="50.43186" lon="4.86416">
        <ele>64.6</ele>
        <time>2025-04-05T12:47:20Z</time>
      </trkpt>
      <trkpt lat="50.43192" lon="4.86412">
        <ele>64.6</ele>
        <time>2025-04-05T12:47:21Z</time>
      </trkpt>
      <trkpt lat="50.43197" lon="4.86408">
        <ele>64.6</ele>
        <time>2025-04-05T12:47:22Z</time>
      </trkpt>
      <trkpt lat="50.43203" lon="4.86404">
        <ele>64.6</ele>
        <time>2025-04-05T12:47:23Z</time>
      </trkpt>
      <trkpt lat="50.43208" lon="4.86399">
        <ele>64.8</ele>
        <time>2025-04-05T12:47:24Z</time>
      </trkpt>
      <trkpt lat="50.43213" lon="4.86394">
        <ele>64.8</ele>
        <time>2025-04-05T12:47:25Z</time>
      </trkpt>
      <trkpt lat="50.43218" lon="4.8639">
        <ele>65</ele>
        <time>2025-04-05T12:47:26Z</time>
      </trkpt>
      <trkpt lat="50.43223" lon="4.86384">
        <ele>65</ele>
        <time>2025-04-05T12:47:27Z</time>
      </trkpt>
      <trkpt lat="50.43228" lon="4.86379">
        <ele>65.2</ele>
        <time>2025-04-05T12:47:28Z</time>
      </trkpt>
      <trkpt lat="50.43233" lon="4.86375">
        <ele>65</ele>
        <time>2025-04-05T12:47:29Z</time>
      </trkpt>
      <trkpt lat="50.43238" lon="4.8637">
        <ele>65</ele>
        <time>2025-04-05T12:47:30Z</time>
      </trkpt>
      <trkpt lat="50.43243" lon="4.86366">
        <ele>65</ele>
        <time>2025-04-05T12:47:31Z</time>
      </trkpt>
      <trkpt lat="50.43248" lon="4.86362">
        <ele>65</ele>
        <time>2025-04-05T12:47:32Z</time>
      </trkpt>
      <trkpt lat="50.43253" lon="4.86358">
        <ele>65</ele>
        <time>2025-04-05T12:47:33Z</time>
      </trkpt>
      <trkpt lat="50.43257" lon="4.86354">
        <ele>64.8</ele>
        <time>2025-04-05T12:47:34Z</time>
      </trkpt>
      <trkpt lat="50.43263" lon="4.8635">
        <ele>64.8</ele>
        <time>2025-04-05T12:47:35Z</time>
      </trkpt>
      <trkpt lat="50.43268" lon="4.86345">
        <ele>65</ele>
        <time>2025-04-05T12:47:36Z</time>
      </trkpt>
      <trkpt lat="50.43274" lon="4.86342">
        <ele>65.2</ele>
        <time>2025-04-05T12:47:37Z</time>
      </trkpt>
      <trkpt lat="50.43279" lon="4.86338">
        <ele>65</ele>
        <time>2025-04-05T12:47:38Z</time>
      </trkpt>
      <trkpt lat="50.43284" lon="4.86334">
        <ele>65</ele>
        <time>2025-04-05T12:47:39Z</time>
      </trkpt>
      <trkpt lat="50.43289" lon="4.8633">
        <ele>65</ele>
        <time>2025-04-05T12:47:40Z</time>
      </trkpt>
      <trkpt lat="50.43294" lon="4.86327">
        <ele>65</ele>
        <time>2025-04-05T12:47:41Z</time>
      </trkpt>
      <trkpt lat="50.43299" lon="4.86323">
        <ele>65</ele>
        <time>2025-04-05T12:47:42Z</time>
      </trkpt>
      <trkpt lat="50.43304" lon="4.8632">
        <ele>64.8</ele>
        <time>2025-04-05T12:47:43Z</time>
      </trkpt>
      <trkpt lat="50.43309" lon="4.86317">
        <ele>64.8</ele>
        <time>2025-04-05T12:47:44Z</time>
      </trkpt>
      <trkpt lat="50.43314" lon="4.86315">
        <ele>64.8</ele>
        <time>2025-04-05T12:47:45Z</time>
      </trkpt>
      <trkpt lat="50.4332" lon="4.86312">
        <ele>64.8</ele>
        <time>2025-04-05T12:47:46Z</time>
      </trkpt>
      <trkpt lat="50.43325" lon="4.86309">
        <ele>64.8</ele>
        <time>2025-04-05T12:47:47Z</time>
      </trkpt>
      <trkpt lat="50.4333" lon="4.86307">
        <ele>64.8</ele>
        <time>2025-04-05T12:47:48Z</time>
      </trkpt>
      <trkpt lat="50.43336" lon="4.86305">
        <ele>64.8</ele>
        <time>2025-04-05T12:47:49Z</time>
      </trkpt>
      <trkpt lat="50.43341" lon="4.86303">
        <ele>64.8</ele>
        <time>2025-04-05T12:47:50Z</time>
      </trkpt>
      <trkpt lat="50.43347" lon="4.86301">
        <ele>65</ele>
        <time>2025-04-05T12:47:51Z</time>
      </trkpt>
      <trkpt lat="50.43352" lon="4.863">
        <ele>65</ele>
        <time>2025-04-05T12:47:52Z</time>
      </trkpt>
      <trkpt lat="50.43358" lon="4.86298">
        <ele>65</ele>
        <time>2025-04-05T12:47:53Z</time>
      </trkpt>
      <trkpt lat="50.43363" lon="4.86297">
        <ele>65</ele>
        <time>2025-04-05T12:47:54Z</time>
      </trkpt>
      <trkpt lat="50.43369" lon="4.86296">
        <ele>65.2</ele>
        <time>2025-04-05T12:47:55Z</time>
      </trkpt>
      <trkpt lat="50.43374" lon="4.86294">
        <ele>65.2</ele>
        <time>2025-04-05T12:47:56Z</time>
      </trkpt>
      <trkpt lat="50.43379" lon="4.86293">
        <ele>65</ele>
        <time>2025-04-05T12:47:57Z</time>
      </trkpt>
      <trkpt lat="50.43385" lon="4.86292">
        <ele>65</ele>
        <time>2025-04-05T12:47:58Z</time>
      </trkpt>
      <trkpt lat="50.43391" lon="4.86291">
        <ele>65</ele>
        <time>2025-04-05T12:47:59Z</time>
      </trkpt>
      <trkpt lat="50.43396" lon="4.86289">
        <ele>65</ele>
        <time>2025-04-05T12:48:00Z</time>
      </trkpt>
      <trkpt lat="50.43402" lon="4.86288">
        <ele>65</ele>
        <time>2025-04-05T12:48:01Z</time>
      </trkpt>
      <trkpt lat="50.43407" lon="4.86287">
        <ele>65</ele>
        <time>2025-04-05T12:48:02Z</time>
      </trkpt>
      <trkpt lat="50.43413" lon="4.86286">
        <ele>65.2</ele>
        <time>2025-04-05T12:48:03Z</time>
      </trkpt>
      <trkpt lat="50.43419" lon="4.86284">
        <ele>65.4</ele>
        <time>2025-04-05T12:48:04Z</time>
      </trkpt>
      <trkpt lat="50.43425" lon="4.86283">
        <ele>65.4</ele>
        <time>2025-04-05T12:48:05Z</time>
      </trkpt>
      <trkpt lat="50.43431" lon="4.86282">
        <ele>65.4</ele>
        <time>2025-04-05T12:48:06Z</time>
      </trkpt>
      <trkpt lat="50.43436" lon="4.86281">
        <ele>65.4</ele>
        <time>2025-04-05T12:48:07Z</time>
      </trkpt>
      <trkpt lat="50.43441" lon="4.86279">
        <ele>65.4</ele>
        <time>2025-04-05T12:48:08Z</time>
      </trkpt>
      <trkpt lat="50.43446" lon="4.86278">
        <ele>65.4</ele>
        <time>2025-04-05T12:48:09Z</time>
      </trkpt>
      <trkpt lat="50.43451" lon="4.86277">
        <ele>65.4</ele>
        <time>2025-04-05T12:48:10Z</time>
      </trkpt>
      <trkpt lat="50.43456" lon="4.86276">
        <ele>65.6</ele>
        <time>2025-04-05T12:48:11Z</time>
      </trkpt>
      <trkpt lat="50.43461" lon="4.86275">
        <ele>65.6</ele>
        <time>2025-04-05T12:48:12Z</time>
      </trkpt>
      <trkpt lat="50.43465" lon="4.86274">
        <ele>65.6</ele>
        <time>2025-04-05T12:48:13Z</time>
      </trkpt>
      <trkpt lat="50.43471" lon="4.86273">
        <ele>65.6</ele>
        <time>2025-04-05T12:48:14Z</time>
      </trkpt>
      <trkpt lat="50.43477" lon="4.86272">
        <ele>65.6</ele>
        <time>2025-04-05T12:48:15Z</time>
      </trkpt>
      <trkpt lat="50.43482" lon="4.86271">
        <ele>65.6</ele>
        <time>2025-04-05T12:48:16Z</time>
      </trkpt>
      <trkpt lat="50.43487" lon="4.8627">
        <ele>65.6</ele>
        <time>2025-04-05T12:48:17Z</time>
      </trkpt>
      <trkpt lat="50.43491" lon="4.86269">
        <ele>65.6</ele>
        <time>2025-04-05T12:48:18Z</time>
      </trkpt>
      <trkpt lat="50.43496" lon="4.86267">
        <ele>65.4</ele>
        <time>2025-04-05T12:48:19Z</time>
      </trkpt>
      <trkpt lat="50.43502" lon="4.86265">
        <ele>65.4</ele>
        <time>2025-04-05T12:48:20Z</time>
      </trkpt>
      <trkpt lat="50.43508" lon="4.86263">
        <ele>65.2</ele>
        <time>2025-04-05T12:48:21Z</time>
      </trkpt>
      <trkpt lat="50.43513" lon="4.86261">
        <ele>65.2</ele>
        <time>2025-04-05T12:48:22Z</time>
      </trkpt>
      <trkpt lat="50.43518" lon="4.86259">
        <ele>65.2</ele>
        <time>2025-04-05T12:48:23Z</time>
      </trkpt>
      <trkpt lat="50.43523" lon="4.86257">
        <ele>65.2</ele>
        <time>2025-04-05T12:48:24Z</time>
      </trkpt>
      <trkpt lat="50.43528" lon="4.86255">
        <ele>65.4</ele>
        <time>2025-04-05T12:48:25Z</time>
      </trkpt>
      <trkpt lat="50.43533" lon="4.86253">
        <ele>65.4</ele>
        <time>2025-04-05T12:48:26Z</time>
      </trkpt>
      <trkpt lat="50.43538" lon="4.86252">
        <ele>65.4</ele>
        <time>2025-04-05T12:48:27Z</time>
      </trkpt>
      <trkpt lat="50.43542" lon="4.8625">
        <ele>65.4</ele>
        <time>2025-04-05T12:48:28Z</time>
      </trkpt>
      <trkpt lat="50.43546" lon="4.86249">
        <ele>65.6</ele>
        <time>2025-04-05T12:48:29Z</time>
      </trkpt>
      <trkpt lat="50.43549" lon="4.86248">
        <ele>65.6</ele>
        <time>2025-04-05T12:48:30Z</time>
      </trkpt>
      <trkpt lat="50.43552" lon="4.86247">
        <ele>65.8</ele>
        <time>2025-04-05T12:48:31Z</time>
      </trkpt>
      <trkpt lat="50.43556" lon="4.86246">
        <ele>66</ele>
        <time>2025-04-05T12:48:32Z</time>
      </trkpt>
      <trkpt lat="50.4356" lon="4.86245">
        <ele>66</ele>
        <time>2025-04-05T12:48:33Z</time>
      </trkpt>
      <trkpt lat="50.43563" lon="4.86244">
        <ele>66</ele>
        <time>2025-04-05T12:48:34Z</time>
      </trkpt>
      <trkpt lat="50.43567" lon="4.86242">
        <ele>65.8</ele>
        <time>2025-04-05T12:48:35Z</time>
      </trkpt>
      <trkpt lat="50.4357" lon="4.86241">
        <ele>65.8</ele>
        <time>2025-04-05T12:48:36Z</time>
      </trkpt>
      <trkpt lat="50.43574" lon="4.86239">
        <ele>65.8</ele>
        <time>2025-04-05T12:48:37Z</time>
      </trkpt>
      <trkpt lat="50.43578" lon="4.86237">
        <ele>66</ele>
        <time>2025-04-05T12:48:38Z</time>
      </trkpt>
      <trkpt lat="50.43581" lon="4.86235">
        <ele>66</ele>
        <time>2025-04-05T12:48:39Z</time>
      </trkpt>
      <trkpt lat="50.43585" lon="4.86231">
        <ele>66</ele>
        <time>2025-04-05T12:48:40Z</time>
      </trkpt>
      <trkpt lat="50.43587" lon="4.86226">
        <ele>66</ele>
        <time>2025-04-05T12:48:41Z</time>
      </trkpt>
      <trkpt lat="50.43587" lon="4.86221">
        <ele>66</ele>
        <time>2025-04-05T12:48:42Z</time>
      </trkpt>
      <trkpt lat="50.43586" lon="4.86217">
        <ele>66.2</ele>
        <time>2025-04-05T12:48:43Z</time>
      </trkpt>
      <trkpt lat="50.43583" lon="4.86213">
        <ele>66.2</ele>
        <time>2025-04-05T12:48:44Z</time>
      </trkpt>
      <trkpt lat="50.43581" lon="4.86212">
        <ele>66.2</ele>
        <time>2025-04-05T12:48:45Z</time>
      </trkpt>
      <trkpt lat="50.43576" lon="4.86213">
        <ele>66.2</ele>
        <time>2025-04-05T12:48:46Z</time>
      </trkpt>
      <trkpt lat="50.43572" lon="4.86215">
        <ele>66.4</ele>
        <time>2025-04-05T12:48:47Z</time>
      </trkpt>
      <trkpt lat="50.43568" lon="4.86218">
        <ele>66.4</ele>
        <time>2025-04-05T12:48:48Z</time>
      </trkpt>
      <trkpt lat="50.43565" lon="4.8622">
        <ele>66.6</ele>
        <time>2025-04-05T12:48:49Z</time>
      </trkpt>
      <trkpt lat="50.43561" lon="4.86221">
        <ele>66.6</ele>
        <time>2025-04-05T12:48:50Z</time>
      </trkpt>
      <trkpt lat="50.43557" lon="4.86223">
        <ele>66.8</ele>
        <time>2025-04-05T12:48:51Z</time>
      </trkpt>
      <trkpt lat="50.43553" lon="4.86224">
        <ele>67</ele>
        <time>2025-04-05T12:48:52Z</time>
      </trkpt>
      <trkpt lat="50.43549" lon="4.86225">
        <ele>67.2</ele>
        <time>2025-04-05T12:48:53Z</time>
      </trkpt>
      <trkpt lat="50.43546" lon="4.86227">
        <ele>67.4</ele>
        <time>2025-04-05T12:48:54Z</time>
      </trkpt>
      <trkpt lat="50.43542" lon="4.86228">
        <ele>67.8</ele>
        <time>2025-04-05T12:48:55Z</time>
      </trkpt>
      <trkpt lat="50.43538" lon="4.86229">
        <ele>68</ele>
        <time>2025-04-05T12:48:56Z</time>
      </trkpt>
      <trkpt lat="50.43535" lon="4.8623">
        <ele>68.2</ele>
        <time>2025-04-05T12:48:57Z</time>
      </trkpt>
      <trkpt lat="50.43531" lon="4.86231">
        <ele>68.4</ele>
        <time>2025-04-05T12:48:58Z</time>
      </trkpt>
      <trkpt lat="50.43528" lon="4.86231">
        <ele>68.6</ele>
        <time>2025-04-05T12:48:59Z</time>
      </trkpt>
      <trkpt lat="50.43524" lon="4.86232">
        <ele>69</ele>
        <time>2025-04-05T12:49:00Z</time>
      </trkpt>
      <trkpt lat="50.43521" lon="4.86233">
        <ele>69.2</ele>
        <time>2025-04-05T12:49:01Z</time>
      </trkpt>
      <trkpt lat="50.43517" lon="4.86234">
        <ele>69.4</ele>
        <time>2025-04-05T12:49:02Z</time>
      </trkpt>
      <trkpt lat="50.43513" lon="4.86235">
        <ele>69.6</ele>
        <time>2025-04-05T12:49:03Z</time>
      </trkpt>
      <trkpt lat="50.43509" lon="4.86236">
        <ele>69.8</ele>
        <time>2025-04-05T12:49:04Z</time>
      </trkpt>
      <trkpt lat="50.43506" lon="4.86237">
        <ele>70</ele>
        <time>2025-04-05T12:49:05Z</time>
      </trkpt>
      <trkpt lat="50.43502" lon="4.86238">
        <ele>70.2</ele>
        <time>2025-04-05T12:49:06Z</time>
      </trkpt>
      <trkpt lat="50.43499" lon="4.86239">
        <ele>70.6</ele>
        <time>2025-04-05T12:49:07Z</time>
      </trkpt>
      <trkpt lat="50.43496" lon="4.8624">
        <ele>70.8</ele>
        <time>2025-04-05T12:49:08Z</time>
      </trkpt>
      <trkpt lat="50.43492" lon="4.86242">
        <ele>71</ele>
        <time>2025-04-05T12:49:09Z</time>
      </trkpt>
      <trkpt lat="50.43489" lon="4.86243">
        <ele>71.2</ele>
        <time>2025-04-05T12:49:10Z</time>
      </trkpt>
      <trkpt lat="50.43485" lon="4.86244">
        <ele>71.4</ele>
        <time>2025-04-05T12:49:11Z</time>
      </trkpt>
      <trkpt lat="50.43483" lon="4.86243">
        <ele>71.6</ele>
        <time>2025-04-05T12:49:12Z</time>
      </trkpt>
      <trkpt lat="50.43481" lon="4.8624">
        <ele>72</ele>
        <time>2025-04-05T12:49:13Z</time>
      </trkpt>
      <trkpt lat="50.4348" lon="4.86238">
        <ele>72.4</ele>
        <time>2025-04-05T12:49:14Z</time>
      </trkpt>
      <trkpt lat="50.43481" lon="4.86236">
        <ele>72.6</ele>
        <time>2025-04-05T12:49:15Z</time>
      </trkpt>
      <trkpt lat="50.43483" lon="4.86234">
        <ele>72.8</ele>
        <time>2025-04-05T12:49:16Z</time>
      </trkpt>
      <trkpt lat="50.43485" lon="4.86233">
        <ele>73</ele>
        <time>2025-04-05T12:49:17Z</time>
      </trkpt>
      <trkpt lat="50.43488" lon="4.86232">
        <ele>73</ele>
        <time>2025-04-05T12:49:18Z</time>
      </trkpt>
      <trkpt lat="50.43492" lon="4.8623">
        <ele>73.2</ele>
        <time>2025-04-05T12:49:19Z</time>
      </trkpt>
      <trkpt lat="50.43496" lon="4.86228">
        <ele>73.4</ele>
        <time>2025-04-05T12:49:20Z</time>
      </trkpt>
      <trkpt lat="50.43499" lon="4.86226">
        <ele>73.4</ele>
        <time>2025-04-05T12:49:21Z</time>
      </trkpt>
      <trkpt lat="50.43502" lon="4.86224">
        <ele>73.4</ele>
        <time>2025-04-05T12:49:22Z</time>
      </trkpt>
      <trkpt lat="50.43504" lon="4.86223">
        <ele>73.6</ele>
        <time>2025-04-05T12:49:23Z</time>
      </trkpt>
      <trkpt lat="50.43508" lon="4.86221">
        <ele>73.6</ele>
        <time>2025-04-05T12:49:24Z</time>
      </trkpt>
      <trkpt lat="50.43511" lon="4.86219">
        <ele>73.8</ele>
        <time>2025-04-05T12:49:25Z</time>
      </trkpt>
      <trkpt lat="50.43514" lon="4.86218">
        <ele>74</ele>
        <time>2025-04-05T12:49:26Z</time>
      </trkpt>
      <trkpt lat="50.43518" lon="4.86217">
        <ele>74.2</ele>
        <time>2025-04-05T12:49:27Z</time>
      </trkpt>
      <trkpt lat="50.43521" lon="4.86215">
        <ele>74.6</ele>
        <time>2025-04-05T12:49:28Z</time>
      </trkpt>
      <trkpt lat="50.43524" lon="4.86214">
        <ele>74.8</ele>
        <time>2025-04-05T12:49:29Z</time>
      </trkpt>
      <trkpt lat="50.43527" lon="4.86213">
        <ele>75.2</ele>
        <time>2025-04-05T12:49:30Z</time>
      </trkpt>
      <trkpt lat="50.4353" lon="4.86212">
        <ele>75.6</ele>
        <time>2025-04-05T12:49:31Z</time>
      </trkpt>
      <trkpt lat="50.43533" lon="4.86211">
        <ele>75.8</ele>
        <time>2025-04-05T12:49:32Z</time>
      </trkpt>
      <trkpt lat="50.43536" lon="4.8621">
        <ele>76.2</ele>
        <time>2025-04-05T12:49:33Z</time>
      </trkpt>
      <trkpt lat="50.43539" lon="4.86208">
        <ele>76.4</ele>
        <time>2025-04-05T12:49:34Z</time>
      </trkpt>
      <trkpt lat="50.43542" lon="4.86207">
        <ele>76.8</ele>
        <time>2025-04-05T12:49:35Z</time>
      </trkpt>
      <trkpt lat="50.43544" lon="4.86206">
        <ele>77</ele>
        <time>2025-04-05T12:49:36Z</time>
      </trkpt>
      <trkpt lat="50.43547" lon="4.86205">
        <ele>77.4</ele>
        <time>2025-04-05T12:49:37Z</time>
      </trkpt>
      <trkpt lat="50.4355" lon="4.86204">
        <ele>77.6</ele>
        <time>2025-04-05T12:49:38Z</time>
      </trkpt>
      <trkpt lat="50.43553" lon="4.86203">
        <ele>77.8</ele>
        <time>2025-04-05T12:49:39Z</time>
      </trkpt>
      <trkpt lat="50.43556" lon="4.86201">
        <ele>78</ele>
        <time>2025-04-05T12:49:40Z</time>
      </trkpt>
      <trkpt lat="50.43558" lon="4.862">
        <ele>78.2</ele>
        <time>2025-04-05T12:49:41Z</time>
      </trkpt>
      <trkpt lat="50.43561" lon="4.86198">
        <ele>78.4</ele>
        <time>2025-04-05T12:49:42Z</time>
      </trkpt>
      <trkpt lat="50.43563" lon="4.86197">
        <ele>78.6</ele>
        <time>2025-04-05T12:49:43Z</time>
      </trkpt>
      <trkpt lat="50.43566" lon="4.86196">
        <ele>78.8</ele>
        <time>2025-04-05T12:49:44Z</time>
      </trkpt>
      <trkpt lat="50.43568" lon="4.86195">
        <ele>78.8</ele>
        <time>2025-04-05T12:49:45Z</time>
      </trkpt>
      <trkpt lat="50.43571" lon="4.86193">
        <ele>79</ele>
        <time>2025-04-05T12:49:46Z</time>
      </trkpt>
      <trkpt lat="50.43574" lon="4.86192">
        <ele>79.2</ele>
        <time>2025-04-05T12:49:47Z</time>
      </trkpt>
      <trkpt lat="50.43576" lon="4.8619">
        <ele>79.4</ele>
        <time>2025-04-05T12:49:48Z</time>
      </trkpt>
      <trkpt lat="50.43579" lon="4.86188">
        <ele>79.6</ele>
        <time>2025-04-05T12:49:49Z</time>
      </trkpt>
      <trkpt lat="50.43581" lon="4.86186">
        <ele>79.8</ele>
        <time>2025-04-05T12:49:50Z</time>
      </trkpt>
      <trkpt lat="50.43584" lon="4.86184">
        <ele>80</ele>
        <time>2025-04-05T12:49:51Z</time>
      </trkpt>
      <trkpt lat="50.43586" lon="4.86181">
        <ele>80.2</ele>
        <time>2025-04-05T12:49:52Z</time>
      </trkpt>
      <trkpt lat="50.43588" lon="4.86177">
        <ele>80.4</ele>
        <time>2025-04-05T12:49:53Z</time>
      </trkpt>
      <trkpt lat="50.4359" lon="4.86174">
        <ele>80.6</ele>
        <time>2025-04-05T12:49:54Z</time>
      </trkpt>
      <trkpt lat="50.43591" lon="4.8617">
        <ele>80.8</ele>
        <time>2025-04-05T12:49:55Z</time>
      </trkpt>
      <trkpt lat="50.43592" lon="4.86167">
        <ele>81</ele>
        <time>2025-04-05T12:49:56Z</time>
      </trkpt>
      <trkpt lat="50.43593" lon="4.86163">
        <ele>81.2</ele>
        <time>2025-04-05T12:49:57Z</time>
      </trkpt>
      <trkpt lat="50.43593" lon="4.86158">
        <ele>81.4</ele>
        <time>2025-04-05T12:49:58Z</time>
      </trkpt>
      <trkpt lat="50.43593" lon="4.86154">
        <ele>81.6</ele>
        <time>2025-04-05T12:49:59Z</time>
      </trkpt>
      <trkpt lat="50.43593" lon="4.8615">
        <ele>82</ele>
        <time>2025-04-05T12:50:00Z</time>
      </trkpt>
      <trkpt lat="50.43593" lon="4.86147">
        <ele>82.2</ele>
        <time>2025-04-05T12:50:01Z</time>
      </trkpt>
      <trkpt lat="50.43592" lon="4.86142">
        <ele>82.4</ele>
        <time>2025-04-05T12:50:02Z</time>
      </trkpt>
      <trkpt lat="50.43592" lon="4.86137">
        <ele>82.6</ele>
        <time>2025-04-05T12:50:03Z</time>
      </trkpt>
      <trkpt lat="50.43591" lon="4.86133">
        <ele>82.8</ele>
        <time>2025-04-05T12:50:04Z</time>
      </trkpt>
      <trkpt lat="50.4359" lon="4.86128">
        <ele>83</ele>
        <time>2025-04-05T12:50:05Z</time>
      </trkpt>
      <trkpt lat="50.4359" lon="4.86124">
        <ele>83.2</ele>
        <time>2025-04-05T12:50:06Z</time>
      </trkpt>
      <trkpt lat="50.43589" lon="4.86119">
        <ele>83.4</ele>
        <time>2025-04-05T12:50:07Z</time>
      </trkpt>
      <trkpt lat="50.43589" lon="4.86115">
        <ele>83.6</ele>
        <time>2025-04-05T12:50:08Z</time>
      </trkpt>
      <trkpt lat="50.43588" lon="4.86111">
        <ele>83.8</ele>
        <time>2025-04-05T12:50:09Z</time>
      </trkpt>
      <trkpt lat="50.43588" lon="4.86107">
        <ele>84</ele>
        <time>2025-04-05T12:50:10Z</time>
      </trkpt>
      <trkpt lat="50.43588" lon="4.86103">
        <ele>84.2</ele>
        <time>2025-04-05T12:50:11Z</time>
      </trkpt>
      <trkpt lat="50.43588" lon="4.86099">
        <ele>84.4</ele>
        <time>2025-04-05T12:50:12Z</time>
      </trkpt>
      <trkpt lat="50.43588" lon="4.86095">
        <ele>84.8</ele>
        <time>2025-04-05T12:50:13Z</time>
      </trkpt>
      <trkpt lat="50.43588" lon="4.86091">
        <ele>85</ele>
        <time>2025-04-05T12:50:14Z</time>
      </trkpt>
      <trkpt lat="50.43588" lon="4.86088">
        <ele>85.2</ele>
        <time>2025-04-05T12:50:15Z</time>
      </trkpt>
      <trkpt lat="50.43588" lon="4.86084">
        <ele>85.6</ele>
        <time>2025-04-05T12:50:16Z</time>
      </trkpt>
      <trkpt lat="50.43589" lon="4.8608">
        <ele>85.8</ele>
        <time>2025-04-05T12:50:17Z</time>
      </trkpt>
      <trkpt lat="50.43589" lon="4.86076">
        <ele>86</ele>
        <time>2025-04-05T12:50:18Z</time>
      </trkpt>
      <trkpt lat="50.4359" lon="4.86072">
        <ele>86.4</ele>
        <time>2025-04-05T12:50:19Z</time>
      </trkpt>
      <trkpt lat="50.43591" lon="4.86067">
        <ele>86.6</ele>
        <time>2025-04-05T12:50:20Z</time>
      </trkpt>
      <trkpt lat="50.43591" lon="4.86063">
        <ele>86.8</ele>
        <time>2025-04-05T12:50:21Z</time>
      </trkpt>
      <trkpt lat="50.43592" lon="4.86059">
        <ele>87</ele>
        <time>2025-04-05T12:50:22Z</time>
      </trkpt>
      <trkpt lat="50.43593" lon="4.86055">
        <ele>87.2</ele>
        <time>2025-04-05T12:50:23Z</time>
      </trkpt>
      <trkpt lat="50.43594" lon="4.86051">
        <ele>87.6</ele>
        <time>2025-04-05T12:50:24Z</time>
      </trkpt>
      <trkpt lat="50.43595" lon="4.86047">
        <ele>87.8</ele>
        <time>2025-04-05T12:50:25Z</time>
      </trkpt>
      <trkpt lat="50.43596" lon="4.86043">
        <ele>88</ele>
        <time>2025-04-05T12:50:26Z</time>
      </trkpt>
      <trkpt lat="50.43597" lon="4.86038">
        <ele>88.2</ele>
        <time>2025-04-05T12:50:27Z</time>
      </trkpt>
      <trkpt lat="50.43599" lon="4.86034">
        <ele>88.4</ele>
        <time>2025-04-05T12:50:28Z</time>
      </trkpt>
      <trkpt lat="50.436" lon="4.86029">
        <ele>88.8</ele>
        <time>2025-04-05T12:50:29Z</time>
      </trkpt>
      <trkpt lat="50.43602" lon="4.86025">
        <ele>89</ele>
        <time>2025-04-05T12:50:30Z</time>
      </trkpt>
      <trkpt lat="50.43603" lon="4.86021">
        <ele>89.2</ele>
        <time>2025-04-05T12:50:31Z</time>
      </trkpt>
      <trkpt lat="50.43605" lon="4.86016">
        <ele>89.4</ele>
        <time>2025-04-05T12:50:32Z</time>
      </trkpt>
      <trkpt lat="50.43607" lon="4.86012">
        <ele>89.6</ele>
        <time>2025-04-05T12:50:33Z</time>
      </trkpt>
      <trkpt lat="50.43608" lon="4.86009">
        <ele>90</ele>
        <time>2025-04-05T12:50:34Z</time>
      </trkpt>
      <trkpt lat="50.4361" lon="4.86005">
        <ele>90.2</ele>
        <time>2025-04-05T12:50:35Z</time>
      </trkpt>
      <trkpt lat="50.43612" lon="4.86001">
        <ele>90.4</ele>
        <time>2025-04-05T12:50:36Z</time>
      </trkpt>
      <trkpt lat="50.43613" lon="4.85997">
        <ele>90.6</ele>
        <time>2025-04-05T12:50:37Z</time>
      </trkpt>
      <trkpt lat="50.43615" lon="4.85993">
        <ele>90.8</ele>
        <time>2025-04-05T12:50:38Z</time>
      </trkpt>
      <trkpt lat="50.43616" lon="4.85989">
        <ele>91</ele>
        <time>2025-04-05T12:50:39Z</time>
      </trkpt>
      <trkpt lat="50.43617" lon="4.85986">
        <ele>91.4</ele>
        <time>2025-04-05T12:50:40Z</time>
      </trkpt>
      <trkpt lat="50.43618" lon="4.85982">
        <ele>91.6</ele>
        <time>2025-04-05T12:50:41Z</time>
      </trkpt>
      <trkpt lat="50.43619" lon="4.85978">
        <ele>91.8</ele>
        <time>2025-04-05T12:50:42Z</time>
      </trkpt>
      <trkpt lat="50.4362" lon="4.85974">
        <ele>92</ele>
        <time>2025-04-05T12:50:43Z</time>
      </trkpt>
      <trkpt lat="50.43621" lon="4.8597">
        <ele>92.2</ele>
        <time>2025-04-05T12:50:44Z</time>
      </trkpt>
      <trkpt lat="50.43623" lon="4.85965">
        <ele>92.4</ele>
        <time>2025-04-05T12:50:45Z</time>
      </trkpt>
      <trkpt lat="50.43624" lon="4.8596">
        <ele>92.6</ele>
        <time>2025-04-05T12:50:46Z</time>
      </trkpt>
      <trkpt lat="50.43625" lon="4.85955">
        <ele>92.8</ele>
        <time>2025-04-05T12:50:47Z</time>
      </trkpt>
      <trkpt lat="50.43627" lon="4.85951">
        <ele>93</ele>
        <time>2025-04-05T12:50:48Z</time>
      </trkpt>
      <trkpt lat="50.43629" lon="4.85946">
        <ele>93.2</ele>
        <time>2025-04-05T12:50:49Z</time>
      </trkpt>
      <trkpt lat="50.4363" lon="4.85942">
        <ele>93.4</ele>
        <time>2025-04-05T12:50:50Z</time>
      </trkpt>
      <trkpt lat="50.43631" lon="4.85937">
        <ele>93.6</ele>
        <time>2025-04-05T12:50:51Z</time>
      </trkpt>
      <trkpt lat="50.43633" lon="4.85932">
        <ele>93.8</ele>
        <time>2025-04-05T12:50:52Z</time>
      </trkpt>
      <trkpt lat="50.43634" lon="4.85928">
        <ele>94.2</ele>
        <time>2025-04-05T12:50:53Z</time>
      </trkpt>
      <trkpt lat="50.43635" lon="4.85924">
        <ele>94.4</ele>
        <time>2025-04-05T12:50:54Z</time>
      </trkpt>
      <trkpt lat="50.43636" lon="4.85921">
        <ele>94.6</ele>
        <time>2025-04-05T12:50:55Z</time>
      </trkpt>
      <trkpt lat="50.43637" lon="4.85917">
        <ele>94.8</ele>
        <time>2025-04-05T12:50:56Z</time>
      </trkpt>
      <trkpt lat="50.43638" lon="4.85912">
        <ele>95</ele>
        <time>2025-04-05T12:50:57Z</time>
      </trkpt>
      <trkpt lat="50.43639" lon="4.85908">
        <ele>95.2</ele>
        <time>2025-04-05T12:50:58Z</time>
      </trkpt>
      <trkpt lat="50.4364" lon="4.85904">
        <ele>95.4</ele>
        <time>2025-04-05T12:50:59Z</time>
      </trkpt>
      <trkpt lat="50.43641" lon="4.85901">
        <ele>95.6</ele>
        <time>2025-04-05T12:51:00Z</time>
      </trkpt>
      <trkpt lat="50.43642" lon="4.85897">
        <ele>95.8</ele>
        <time>2025-04-05T12:51:01Z</time>
      </trkpt>
      <trkpt lat="50.43644" lon="4.85893">
        <ele>96</ele>
        <time>2025-04-05T12:51:02Z</time>
      </trkpt>
      <trkpt lat="50.43645" lon="4.8589">
        <ele>96.2</ele>
        <time>2025-04-05T12:51:03Z</time>
      </trkpt>
      <trkpt lat="50.43646" lon="4.85886">
        <ele>96.4</ele>
        <time>2025-04-05T12:51:04Z</time>
      </trkpt>
      <trkpt lat="50.43647" lon="4.85883">
        <ele>96.6</ele>
        <time>2025-04-05T12:51:05Z</time>
      </trkpt>
      <trkpt lat="50.43648" lon="4.85879">
        <ele>96.8</ele>
        <time>2025-04-05T12:51:06Z</time>
      </trkpt>
      <trkpt lat="50.43649" lon="4.85876">
        <ele>97.2</ele>
        <time>2025-04-05T12:51:07Z</time>
      </trkpt>
      <trkpt lat="50.4365" lon="4.85873">
        <ele>97.2</ele>
        <time>2025-04-05T12:51:08Z</time>
      </trkpt>
      <trkpt lat="50.4365" lon="4.85869">
        <ele>97.4</ele>
        <time>2025-04-05T12:51:09Z</time>
      </trkpt>
      <trkpt lat="50.43651" lon="4.85866">
        <ele>97.6</ele>
        <time>2025-04-05T12:51:10Z</time>
      </trkpt>
      <trkpt lat="50.43652" lon="4.85862">
        <ele>97.8</ele>
        <time>2025-04-05T12:51:11Z</time>
      </trkpt>
      <trkpt lat="50.43652" lon="4.85859">
        <ele>98</ele>
        <time>2025-04-05T12:51:12Z</time>
      </trkpt>
      <trkpt lat="50.43653" lon="4.85855">
        <ele>98.2</ele>
        <time>2025-04-05T12:51:13Z</time>
      </trkpt>
      <trkpt lat="50.43654" lon="4.85851">
        <ele>98.4</ele>
        <time>2025-04-05T12:51:14Z</time>
      </trkpt>
      <trkpt lat="50.43654" lon="4.85847">
        <ele>98.6</ele>
        <time>2025-04-05T12:51:15Z</time>
      </trkpt>
      <trkpt lat="50.43654" lon="4.85842">
        <ele>98.8</ele>
        <time>2025-04-05T12:51:16Z</time>
      </trkpt>
      <trkpt lat="50.43655" lon="4.85838">
        <ele>99</ele>
        <time>2025-04-05T12:51:17Z</time>
      </trkpt>
      <trkpt lat="50.43655" lon="4.85834">
        <ele>99.2</ele>
        <time>2025-04-05T12:51:18Z</time>
      </trkpt>
      <trkpt lat="50.43655" lon="4.85829">
        <ele>99.2</ele>
        <time>2025-04-05T12:51:19Z</time>
      </trkpt>
      <trkpt lat="50.43654" lon="4.85825">
        <ele>99.4</ele>
        <time>2025-04-05T12:51:20Z</time>
      </trkpt>
      <trkpt lat="50.43654" lon="4.8582">
        <ele>99.6</ele>
        <time>2025-04-05T12:51:21Z</time>
      </trkpt>
      <trkpt lat="50.43654" lon="4.85816">
        <ele>99.8</ele>
        <time>2025-04-05T12:51:22Z</time>
      </trkpt>
      <trkpt lat="50.43653" lon="4.85812">
        <ele>100</ele>
        <time>2025-04-05T12:51:23Z</time>
      </trkpt>
      <trkpt lat="50.43653" lon="4.85808">
        <ele>100.2</ele>
        <time>2025-04-05T12:51:24Z</time>
      </trkpt>
      <trkpt lat="50.43653" lon="4.85804">
        <ele>100.4</ele>
        <time>2025-04-05T12:51:25Z</time>
      </trkpt>
      <trkpt lat="50.43653" lon="4.85801">
        <ele>100.6</ele>
        <time>2025-04-05T12:51:26Z</time>
      </trkpt>
      <trkpt lat="50.43652" lon="4.85797">
        <ele>100.8</ele>
        <time>2025-04-05T12:51:27Z</time>
      </trkpt>
      <trkpt lat="50.43652" lon="4.85793">
        <ele>101</ele>
        <time>2025-04-05T12:51:28Z</time>
      </trkpt>
      <trkpt lat="50.43652" lon="4.85788">
        <ele>101.2</ele>
        <time>2025-04-05T12:51:29Z</time>
      </trkpt>
      <trkpt lat="50.43652" lon="4.85783">
        <ele>101.4</ele>
        <time>2025-04-05T12:51:30Z</time>
      </trkpt>
      <trkpt lat="50.43652" lon="4.85779">
        <ele>101.6</ele>
        <time>2025-04-05T12:51:31Z</time>
      </trkpt>
      <trkpt lat="50.43651" lon="4.85775">
        <ele>101.8</ele>
        <time>2025-04-05T12:51:32Z</time>
      </trkpt>
      <trkpt lat="50.43651" lon="4.85771">
        <ele>102</ele>
        <time>2025-04-05T12:51:33Z</time>
      </trkpt>
      <trkpt lat="50.43651" lon="4.85767">
        <ele>102.2</ele>
        <time>2025-04-05T12:51:34Z</time>
      </trkpt>
      <trkpt lat="50.43651" lon="4.85762">
        <ele>102.4</ele>
        <time>2025-04-05T12:51:35Z</time>
      </trkpt>
      <trkpt lat="50.4365" lon="4.85756">
        <ele>102.6</ele>
        <time>2025-04-05T12:51:36Z</time>
      </trkpt>
      <trkpt lat="50.4365" lon="4.8575">
        <ele>102.8</ele>
        <time>2025-04-05T12:51:37Z</time>
      </trkpt>
      <trkpt lat="50.43649" lon="4.85744">
        <ele>103</ele>
        <time>2025-04-05T12:51:38Z</time>
      </trkpt>
      <trkpt lat="50.43649" lon="4.85739">
        <ele>103.2</ele>
        <time>2025-04-05T12:51:39Z</time>
      </trkpt>
      <trkpt lat="50.43649" lon="4.85733">
        <ele>103.2</ele>
        <time>2025-04-05T12:51:40Z</time>
      </trkpt>
      <trkpt lat="50.4365" lon="4.85727">
        <ele>103.4</ele>
        <time>2025-04-05T12:51:41Z</time>
      </trkpt>
      <trkpt lat="50.4365" lon="4.8572">
        <ele>103.6</ele>
        <time>2025-04-05T12:51:42Z</time>
      </trkpt>
      <trkpt lat="50.4365" lon="4.85714">
        <ele>103.8</ele>
        <time>2025-04-05T12:51:43Z</time>
      </trkpt>
      <trkpt lat="50.4365" lon="4.85709">
        <ele>104</ele>
        <time>2025-04-05T12:51:44Z</time>
      </trkpt>
      <trkpt lat="50.4365" lon="4.85703">
        <ele>104.2</ele>
        <time>2025-04-05T12:51:45Z</time>
      </trkpt>
      <trkpt lat="50.4365" lon="4.85697">
        <ele>104.4</ele>
        <time>2025-04-05T12:51:46Z</time>
      </trkpt>
      <trkpt lat="50.4365" lon="4.85692">
        <ele>104.6</ele>
        <time>2025-04-05T12:51:47Z</time>
      </trkpt>
      <trkpt lat="50.4365" lon="4.85686">
        <ele>104.6</ele>
        <time>2025-04-05T12:51:48Z</time>
      </trkpt>
      <trkpt lat="50.43649" lon="4.85681">
        <ele>104.8</ele>
        <time>2025-04-05T12:51:49Z</time>
      </trkpt>
      <trkpt lat="50.43649" lon="4.85676">
        <ele>105</ele>
        <time>2025-04-05T12:51:50Z</time>
      </trkpt>
      <trkpt lat="50.43649" lon="4.85672">
        <ele>105.2</ele>
        <time>2025-04-05T12:51:51Z</time>
      </trkpt>
      <trkpt lat="50.43649" lon="4.85667">
        <ele>105.4</ele>
        <time>2025-04-05T12:51:52Z</time>
      </trkpt>
      <trkpt lat="50.43649" lon="4.85663">
        <ele>105.6</ele>
        <time>2025-04-05T12:51:53Z</time>
      </trkpt>
      <trkpt lat="50.43649" lon="4.85657">
        <ele>105.8</ele>
        <time>2025-04-05T12:51:54Z</time>
      </trkpt>
      <trkpt lat="50.43649" lon="4.85653">
        <ele>106</ele>
        <time>2025-04-05T12:51:55Z</time>
      </trkpt>
      <trkpt lat="50.43649" lon="4.85648">
        <ele>106.2</ele>
        <time>2025-04-05T12:51:56Z</time>
      </trkpt>
      <trkpt lat="50.4365" lon="4.85644">
        <ele>106.4</ele>
        <time>2025-04-05T12:51:57Z</time>
      </trkpt>
      <trkpt lat="50.4365" lon="4.8564">
        <ele>106.4</ele>
        <time>2025-04-05T12:51:58Z</time>
      </trkpt>
      <trkpt lat="50.43651" lon="4.85636">
        <ele>106.6</ele>
        <time>2025-04-05T12:51:59Z</time>
      </trkpt>
      <trkpt lat="50.43651" lon="4.85631">
        <ele>106.8</ele>
        <time>2025-04-05T12:52:00Z</time>
      </trkpt>
      <trkpt lat="50.4365" lon="4.85627">
        <ele>107</ele>
        <time>2025-04-05T12:52:01Z</time>
      </trkpt>
      <trkpt lat="50.4365" lon="4.85622">
        <ele>107.2</ele>
        <time>2025-04-05T12:52:02Z</time>
      </trkpt>
      <trkpt lat="50.4365" lon="4.85618">
        <ele>107.4</ele>
        <time>2025-04-05T12:52:03Z</time>
      </trkpt>
      <trkpt lat="50.43651" lon="4.85614">
        <ele>107.6</ele>
        <time>2025-04-05T12:52:04Z</time>
      </trkpt>
      <trkpt lat="50.43651" lon="4.8561">
        <ele>107.8</ele>
        <time>2025-04-05T12:52:05Z</time>
      </trkpt>
      <trkpt lat="50.43651" lon="4.85606">
        <ele>108</ele>
        <time>2025-04-05T12:52:06Z</time>
      </trkpt>
      <trkpt lat="50.4365" lon="4.85602">
        <ele>108.2</ele>
        <time>2025-04-05T12:52:07Z</time>
      </trkpt>
      <trkpt lat="50.4365" lon="4.85598">
        <ele>108.4</ele>
        <time>2025-04-05T12:52:08Z</time>
      </trkpt>
      <trkpt lat="50.4365" lon="4.85594">
        <ele>108.6</ele>
        <time>2025-04-05T12:52:09Z</time>
      </trkpt>
      <trkpt lat="50.4365" lon="4.8559">
        <ele>108.8</ele>
        <time>2025-04-05T12:52:10Z</time>
      </trkpt>
      <trkpt lat="50.43649" lon="4.85585">
        <ele>108.8</ele>
        <time>2025-04-05T12:52:11Z</time>
      </trkpt>
      <trkpt lat="50.43648" lon="4.85581">
        <ele>109</ele>
        <time>2025-04-05T12:52:12Z</time>
      </trkpt>
      <trkpt lat="50.43647" lon="4.85576">
        <ele>109.2</ele>
        <time>2025-04-05T12:52:13Z</time>
      </trkpt>
      <trkpt lat="50.43646" lon="4.85571">
        <ele>109.2</ele>
        <time>2025-04-05T12:52:14Z</time>
      </trkpt>
      <trkpt lat="50.43645" lon="4.85566">
        <ele>109.4</ele>
        <time>2025-04-05T12:52:15Z</time>
      </trkpt>
      <trkpt lat="50.43644" lon="4.85562">
        <ele>109.6</ele>
        <time>2025-04-05T12:52:16Z</time>
      </trkpt>
      <trkpt lat="50.43642" lon="4.85557">
        <ele>109.6</ele>
        <time>2025-04-05T12:52:17Z</time>
      </trkpt>
      <trkpt lat="50.43641" lon="4.85552">
        <ele>109.8</ele>
        <time>2025-04-05T12:52:18Z</time>
      </trkpt>
      <trkpt lat="50.4364" lon="4.85546">
        <ele>110</ele>
        <time>2025-04-05T12:52:19Z</time>
      </trkpt>
      <trkpt lat="50.43638" lon="4.85541">
        <ele>110</ele>
        <time>2025-04-05T12:52:20Z</time>
      </trkpt>
      <trkpt lat="50.43636" lon="4.85536">
        <ele>110.2</ele>
        <time>2025-04-05T12:52:21Z</time>
      </trkpt>
      <trkpt lat="50.43634" lon="4.85531">
        <ele>110.2</ele>
        <time>2025-04-05T12:52:22Z</time>
      </trkpt>
      <trkpt lat="50.43632" lon="4.85525">
        <ele>110.4</ele>
        <time>2025-04-05T12:52:23Z</time>
      </trkpt>
      <trkpt lat="50.4363" lon="4.8552">
        <ele>110.4</ele>
        <time>2025-04-05T12:52:24Z</time>
      </trkpt>
      <trkpt lat="50.43628" lon="4.85515">
        <ele>110.6</ele>
        <time>2025-04-05T12:52:25Z</time>
      </trkpt>
      <trkpt lat="50.43627" lon="4.8551">
        <ele>110.6</ele>
        <time>2025-04-05T12:52:26Z</time>
      </trkpt>
      <trkpt lat="50.43625" lon="4.85506">
        <ele>110.8</ele>
        <time>2025-04-05T12:52:27Z</time>
      </trkpt>
      <trkpt lat="50.43624" lon="4.85501">
        <ele>110.8</ele>
        <time>2025-04-05T12:52:28Z</time>
      </trkpt>
      <trkpt lat="50.43623" lon="4.85497">
        <ele>111</ele>
        <time>2025-04-05T12:52:29Z</time>
      </trkpt>
      <trkpt lat="50.43621" lon="4.85492">
        <ele>111</ele>
        <time>2025-04-05T12:52:30Z</time>
      </trkpt>
      <trkpt lat="50.43619" lon="4.85488">
        <ele>111.2</ele>
        <time>2025-04-05T12:52:31Z</time>
      </trkpt>
      <trkpt lat="50.43617" lon="4.85483">
        <ele>111.2</ele>
        <time>2025-04-05T12:52:32Z</time>
      </trkpt>
      <trkpt lat="50.43615" lon="4.85478">
        <ele>111.4</ele>
        <time>2025-04-05T12:52:33Z</time>
      </trkpt>
      <trkpt lat="50.43613" lon="4.85474">
        <ele>111.6</ele>
        <time>2025-04-05T12:52:34Z</time>
      </trkpt>
      <trkpt lat="50.43612" lon="4.8547">
        <ele>111.6</ele>
        <time>2025-04-05T12:52:35Z</time>
      </trkpt>
      <trkpt lat="50.4361" lon="4.85467">
        <ele>111.8</ele>
        <time>2025-04-05T12:52:36Z</time>
      </trkpt>
      <trkpt lat="50.43609" lon="4.85462">
        <ele>112</ele>
        <time>2025-04-05T12:52:37Z</time>
      </trkpt>
      <trkpt lat="50.43607" lon="4.85458">
        <ele>112</ele>
        <time>2025-04-05T12:52:38Z</time>
      </trkpt>
      <trkpt lat="50.43605" lon="4.85453">
        <ele>112.2</ele>
        <time>2025-04-05T12:52:39Z</time>
      </trkpt>
      <trkpt lat="50.43603" lon="4.85448">
        <ele>112.4</ele>
        <time>2025-04-05T12:52:40Z</time>
      </trkpt>
      <trkpt lat="50.43602" lon="4.85444">
        <ele>112.4</ele>
        <time>2025-04-05T12:52:41Z</time>
      </trkpt>
      <trkpt lat="50.436" lon="4.85439">
        <ele>112.6</ele>
        <time>2025-04-05T12:52:42Z</time>
      </trkpt>
      <trkpt lat="50.43598" lon="4.85434">
        <ele>112.8</ele>
        <time>2025-04-05T12:52:43Z</time>
      </trkpt>
      <trkpt lat="50.43596" lon="4.85429">
        <ele>112.8</ele>
        <time>2025-04-05T12:52:44Z</time>
      </trkpt>
      <trkpt lat="50.43594" lon="4.85424">
        <ele>113</ele>
        <time>2025-04-05T12:52:45Z</time>
      </trkpt>
      <trkpt lat="50.43592" lon="4.85419">
        <ele>113.2</ele>
        <time>2025-04-05T12:52:46Z</time>
      </trkpt>
      <trkpt lat="50.43591" lon="4.85414">
        <ele>113.4</ele>
        <time>2025-04-05T12:52:47Z</time>
      </trkpt>
      <trkpt lat="50.4359" lon="4.85409">
        <ele>113.6</ele>
        <time>2025-04-05T12:52:48Z</time>
      </trkpt>
      <trkpt lat="50.43588" lon="4.85404">
        <ele>113.8</ele>
        <time>2025-04-05T12:52:49Z</time>
      </trkpt>
      <trkpt lat="50.43586" lon="4.85399">
        <ele>113.8</ele>
        <time>2025-04-05T12:52:50Z</time>
      </trkpt>
      <trkpt lat="50.43584" lon="4.85394">
        <ele>114</ele>
        <time>2025-04-05T12:52:51Z</time>
      </trkpt>
      <trkpt lat="50.43582" lon="4.85389">
        <ele>114.2</ele>
        <time>2025-04-05T12:52:52Z</time>
      </trkpt>
      <trkpt lat="50.43581" lon="4.85384">
        <ele>114.4</ele>
        <time>2025-04-05T12:52:53Z</time>
      </trkpt>
      <trkpt lat="50.4358" lon="4.8538">
        <ele>114.6</ele>
        <time>2025-04-05T12:52:54Z</time>
      </trkpt>
      <trkpt lat="50.43578" lon="4.85375">
        <ele>114.6</ele>
        <time>2025-04-05T12:52:55Z</time>
      </trkpt>
      <trkpt lat="50.43576" lon="4.85371">
        <ele>114.8</ele>
        <time>2025-04-05T12:52:56Z</time>
      </trkpt>
      <trkpt lat="50.43575" lon="4.85367">
        <ele>115</ele>
        <time>2025-04-05T12:52:57Z</time>
      </trkpt>
      <trkpt lat="50.43574" lon="4.85363">
        <ele>115.2</ele>
        <time>2025-04-05T12:52:58Z</time>
      </trkpt>
      <trkpt lat="50.43572" lon="4.85359">
        <ele>115.4</ele>
        <time>2025-04-05T12:52:59Z</time>
      </trkpt>
      <trkpt lat="50.43571" lon="4.85354">
        <ele>115.4</ele>
        <time>2025-04-05T12:53:00Z</time>
      </trkpt>
      <trkpt lat="50.43568" lon="4.8535">
        <ele>115.6</ele>
        <time>2025-04-05T12:53:01Z</time>
      </trkpt>
      <trkpt lat="50.43567" lon="4.85345">
        <ele>115.8</ele>
        <time>2025-04-05T12:53:02Z</time>
      </trkpt>
      <trkpt lat="50.43565" lon="4.85341">
        <ele>116</ele>
        <time>2025-04-05T12:53:03Z</time>
      </trkpt>
      <trkpt lat="50.43564" lon="4.85336">
        <ele>116</ele>
        <time>2025-04-05T12:53:04Z</time>
      </trkpt>
      <trkpt lat="50.43563" lon="4.85331">
        <ele>116.2</ele>
        <time>2025-04-05T12:53:05Z</time>
      </trkpt>
      <trkpt lat="50.43562" lon="4.85326">
        <ele>116.2</ele>
        <time>2025-04-05T12:53:06Z</time>
      </trkpt>
      <trkpt lat="50.4356" lon="4.85322">
        <ele>116.4</ele>
        <time>2025-04-05T12:53:07Z</time>
      </trkpt>
      <trkpt lat="50.43559" lon="4.85317">
        <ele>116.6</ele>
        <time>2025-04-05T12:53:08Z</time>
      </trkpt>
      <trkpt lat="50.43558" lon="4.85313">
        <ele>116.8</ele>
        <time>2025-04-05T12:53:09Z</time>
      </trkpt>
      <trkpt lat="50.43557" lon="4.85308">
        <ele>116.8</ele>
        <time>2025-04-05T12:53:10Z</time>
      </trkpt>
      <trkpt lat="50.43556" lon="4.85303">
        <ele>117</ele>
        <time>2025-04-05T12:53:11Z</time>
      </trkpt>
      <trkpt lat="50.43555" lon="4.85298">
        <ele>117.2</ele>
        <time>2025-04-05T12:53:12Z</time>
      </trkpt>
      <trkpt lat="50.43554" lon="4.85293">
        <ele>117.4</ele>
        <time>2025-04-05T12:53:13Z</time>
      </trkpt>
      <trkpt lat="50.43553" lon="4.85289">
        <ele>117.6</ele>
        <time>2025-04-05T12:53:14Z</time>
      </trkpt>
      <trkpt lat="50.43552" lon="4.85284">
        <ele>117.8</ele>
        <time>2025-04-05T12:53:15Z</time>
      </trkpt>
      <trkpt lat="50.43551" lon="4.85279">
        <ele>118</ele>
        <time>2025-04-05T12:53:16Z</time>
      </trkpt>
      <trkpt lat="50.4355" lon="4.85275">
        <ele>118.2</ele>
        <time>2025-04-05T12:53:17Z</time>
      </trkpt>
      <trkpt lat="50.43549" lon="4.85271">
        <ele>118.4</ele>
        <time>2025-04-05T12:53:18Z</time>
      </trkpt>
      <trkpt lat="50.43548" lon="4.85266">
        <ele>118.4</ele>
        <time>2025-04-05T12:53:19Z</time>
      </trkpt>
      <trkpt lat="50.43547" lon="4.85262">
        <ele>118.6</ele>
        <time>2025-04-05T12:53:20Z</time>
      </trkpt>
      <trkpt lat="50.43546" lon="4.85258">
        <ele>118.8</ele>
        <time>2025-04-05T12:53:21Z</time>
      </trkpt>
      <trkpt lat="50.43546" lon="4.85253">
        <ele>119</ele>
        <time>2025-04-05T12:53:22Z</time>
      </trkpt>
      <trkpt lat="50.43545" lon="4.8525">
        <ele>119.2</ele>
        <time>2025-04-05T12:53:23Z</time>
      </trkpt>
      <trkpt lat="50.43544" lon="4.85245">
        <ele>119.4</ele>
        <time>2025-04-05T12:53:24Z</time>
      </trkpt>
      <trkpt lat="50.43543" lon="4.8524">
        <ele>119.6</ele>
        <time>2025-04-05T12:53:25Z</time>
      </trkpt>
      <trkpt lat="50.43541" lon="4.85235">
        <ele>119.8</ele>
        <time>2025-04-05T12:53:26Z</time>
      </trkpt>
      <trkpt lat="50.4354" lon="4.85231">
        <ele>120</ele>
        <time>2025-04-05T12:53:27Z</time>
      </trkpt>
      <trkpt lat="50.43539" lon="4.85226">
        <ele>120.2</ele>
        <time>2025-04-05T12:53:28Z</time>
      </trkpt>
      <trkpt lat="50.43538" lon="4.85223">
        <ele>120.4</ele>
        <time>2025-04-05T12:53:29Z</time>
      </trkpt>
      <trkpt lat="50.43536" lon="4.85218">
        <ele>120.6</ele>
        <time>2025-04-05T12:53:30Z</time>
      </trkpt>
      <trkpt lat="50.43536" lon="4.85214">
        <ele>120.8</ele>
        <time>2025-04-05T12:53:31Z</time>
      </trkpt>
      <trkpt lat="50.43535" lon="4.85209">
        <ele>121</ele>
        <time>2025-04-05T12:53:32Z</time>
      </trkpt>
      <trkpt lat="50.43535" lon="4.85204">
        <ele>121.2</ele>
        <time>2025-04-05T12:53:33Z</time>
      </trkpt>
      <trkpt lat="50.43535" lon="4.85201">
        <ele>121.4</ele>
        <time>2025-04-05T12:53:34Z</time>
      </trkpt>
      <trkpt lat="50.43533" lon="4.85197">
        <ele>121.6</ele>
        <time>2025-04-05T12:53:35Z</time>
      </trkpt>
      <trkpt lat="50.43533" lon="4.85193">
        <ele>121.6</ele>
        <time>2025-04-05T12:53:36Z</time>
      </trkpt>
      <trkpt lat="50.43532" lon="4.85187">
        <ele>121.8</ele>
        <time>2025-04-05T12:53:37Z</time>
      </trkpt>
      <trkpt lat="50.43531" lon="4.85182">
        <ele>121.8</ele>
        <time>2025-04-05T12:53:38Z</time>
      </trkpt>
      <trkpt lat="50.43531" lon="4.85177">
        <ele>122</ele>
        <time>2025-04-05T12:53:39Z</time>
      </trkpt>
      <trkpt lat="50.4353" lon="4.85172">
        <ele>122.2</ele>
        <time>2025-04-05T12:53:40Z</time>
      </trkpt>
      <trkpt lat="50.43529" lon="4.85166">
        <ele>122.2</ele>
        <time>2025-04-05T12:53:41Z</time>
      </trkpt>
      <trkpt lat="50.43529" lon="4.85161">
        <ele>122.4</ele>
        <time>2025-04-05T12:53:42Z</time>
      </trkpt>
      <trkpt lat="50.43528" lon="4.85156">
        <ele>122.4</ele>
        <time>2025-04-05T12:53:43Z</time>
      </trkpt>
      <trkpt lat="50.43528" lon="4.85151">
        <ele>122.6</ele>
        <time>2025-04-05T12:53:44Z</time>
      </trkpt>
      <trkpt lat="50.43529" lon="4.85145">
        <ele>122.6</ele>
        <time>2025-04-05T12:53:45Z</time>
      </trkpt>
      <trkpt lat="50.4353" lon="4.85141">
        <ele>122.8</ele>
        <time>2025-04-05T12:53:46Z</time>
      </trkpt>
      <trkpt lat="50.4353" lon="4.85136">
        <ele>123</ele>
        <time>2025-04-05T12:53:47Z</time>
      </trkpt>
      <trkpt lat="50.43531" lon="4.85131">
        <ele>123</ele>
        <time>2025-04-05T12:53:48Z</time>
      </trkpt>
      <trkpt lat="50.43532" lon="4.85126">
        <ele>123.2</ele>
        <time>2025-04-05T12:53:49Z</time>
      </trkpt>
      <trkpt lat="50.43533" lon="4.8512">
        <ele>123.2</ele>
        <time>2025-04-05T12:53:50Z</time>
      </trkpt>
      <trkpt lat="50.43535" lon="4.85114">
        <ele>123.4</ele>
        <time>2025-04-05T12:53:51Z</time>
      </trkpt>
      <trkpt lat="50.43536" lon="4.85108">
        <ele>123.4</ele>
        <time>2025-04-05T12:53:52Z</time>
      </trkpt>
      <trkpt lat="50.43537" lon="4.85102">
        <ele>123.6</ele>
        <time>2025-04-05T12:53:53Z</time>
      </trkpt>
      <trkpt lat="50.43539" lon="4.85097">
        <ele>123.6</ele>
        <time>2025-04-05T12:53:54Z</time>
      </trkpt>
      <trkpt lat="50.43541" lon="4.85091">
        <ele>123.8</ele>
        <time>2025-04-05T12:53:55Z</time>
      </trkpt>
      <trkpt lat="50.43543" lon="4.85087">
        <ele>123.8</ele>
        <time>2025-04-05T12:53:56Z</time>
      </trkpt>
      <trkpt lat="50.43546" lon="4.85082">
        <ele>124</ele>
        <time>2025-04-05T12:53:57Z</time>
      </trkpt>
      <trkpt lat="50.43548" lon="4.85077">
        <ele>124</ele>
        <time>2025-04-05T12:53:58Z</time>
      </trkpt>
      <trkpt lat="50.43551" lon="4.85073">
        <ele>124.2</ele>
        <time>2025-04-05T12:53:59Z</time>
      </trkpt>
      <trkpt lat="50.43553" lon="4.85068">
        <ele>124.4</ele>
        <time>2025-04-05T12:54:00Z</time>
      </trkpt>
      <trkpt lat="50.43555" lon="4.85063">
        <ele>124.6</ele>
        <time>2025-04-05T12:54:01Z</time>
      </trkpt>
      <trkpt lat="50.43557" lon="4.85057">
        <ele>124.6</ele>
        <time>2025-04-05T12:54:02Z</time>
      </trkpt>
      <trkpt lat="50.43559" lon="4.85052">
        <ele>124.8</ele>
        <time>2025-04-05T12:54:03Z</time>
      </trkpt>
      <trkpt lat="50.4356" lon="4.85047">
        <ele>125</ele>
        <time>2025-04-05T12:54:04Z</time>
      </trkpt>
      <trkpt lat="50.43562" lon="4.85042">
        <ele>125.2</ele>
        <time>2025-04-05T12:54:05Z</time>
      </trkpt>
      <trkpt lat="50.43564" lon="4.85037">
        <ele>125.2</ele>
        <time>2025-04-05T12:54:06Z</time>
      </trkpt>
      <trkpt lat="50.43567" lon="4.85033">
        <ele>125.4</ele>
        <time>2025-04-05T12:54:07Z</time>
      </trkpt>
      <trkpt lat="50.43569" lon="4.85027">
        <ele>125.6</ele>
        <time>2025-04-05T12:54:08Z</time>
      </trkpt>
      <trkpt lat="50.43571" lon="4.85022">
        <ele>125.6</ele>
        <time>2025-04-05T12:54:09Z</time>
      </trkpt>
      <trkpt lat="50.43574" lon="4.85017">
        <ele>125.8</ele>
        <time>2025-04-05T12:54:10Z</time>
      </trkpt>
      <trkpt lat="50.43577" lon="4.85012">
        <ele>125.8</ele>
        <time>2025-04-05T12:54:11Z</time>
      </trkpt>
      <trkpt lat="50.43579" lon="4.85007">
        <ele>126</ele>
        <time>2025-04-05T12:54:12Z</time>
      </trkpt>
      <trkpt lat="50.43581" lon="4.85001">
        <ele>126</ele>
        <time>2025-04-05T12:54:13Z</time>
      </trkpt>
      <trkpt lat="50.43583" lon="4.84997">
        <ele>126.2</ele>
        <time>2025-04-05T12:54:14Z</time>
      </trkpt>
      <trkpt lat="50.43585" lon="4.84993">
        <ele>126.4</ele>
        <time>2025-04-05T12:54:15Z</time>
      </trkpt>
      <trkpt lat="50.43587" lon="4.84988">
        <ele>126.4</ele>
        <time>2025-04-05T12:54:16Z</time>
      </trkpt>
      <trkpt lat="50.43589" lon="4.84984">
        <ele>126.6</ele>
        <time>2025-04-05T12:54:17Z</time>
      </trkpt>
      <trkpt lat="50.43591" lon="4.8498">
        <ele>126.8</ele>
        <time>2025-04-05T12:54:18Z</time>
      </trkpt>
      <trkpt lat="50.43593" lon="4.84975">
        <ele>126.8</ele>
        <time>2025-04-05T12:54:19Z</time>
      </trkpt>
      <trkpt lat="50.43595" lon="4.84971">
        <ele>127</ele>
        <time>2025-04-05T12:54:20Z</time>
      </trkpt>
      <trkpt lat="50.43597" lon="4.84967">
        <ele>127</ele>
        <time>2025-04-05T12:54:21Z</time>
      </trkpt>
      <trkpt lat="50.43599" lon="4.84962">
        <ele>127.2</ele>
        <time>2025-04-05T12:54:22Z</time>
      </trkpt>
      <trkpt lat="50.43601" lon="4.84958">
        <ele>127.2</ele>
        <time>2025-04-05T12:54:23Z</time>
      </trkpt>
      <trkpt lat="50.43602" lon="4.84952">
        <ele>127.4</ele>
        <time>2025-04-05T12:54:24Z</time>
      </trkpt>
      <trkpt lat="50.43604" lon="4.84947">
        <ele>127.4</ele>
        <time>2025-04-05T12:54:25Z</time>
      </trkpt>
      <trkpt lat="50.43605" lon="4.84942">
        <ele>127.6</ele>
        <time>2025-04-05T12:54:26Z</time>
      </trkpt>
      <trkpt lat="50.43607" lon="4.84937">
        <ele>127.8</ele>
        <time>2025-04-05T12:54:27Z</time>
      </trkpt>
      <trkpt lat="50.43608" lon="4.84933">
        <ele>128</ele>
        <time>2025-04-05T12:54:28Z</time>
      </trkpt>
      <trkpt lat="50.43609" lon="4.84927">
        <ele>128</ele>
        <time>2025-04-05T12:54:29Z</time>
      </trkpt>
      <trkpt lat="50.43611" lon="4.84922">
        <ele>128</ele>
        <time>2025-04-05T12:54:30Z</time>
      </trkpt>
      <trkpt lat="50.43612" lon="4.84916">
        <ele>128</ele>
        <time>2025-04-05T12:54:31Z</time>
      </trkpt>
      <trkpt lat="50.43614" lon="4.84911">
        <ele>128</ele>
        <time>2025-04-05T12:54:32Z</time>
      </trkpt>
      <trkpt lat="50.43615" lon="4.84906">
        <ele>127.8</ele>
        <time>2025-04-05T12:54:33Z</time>
      </trkpt>
      <trkpt lat="50.43617" lon="4.849">
        <ele>127.8</ele>
        <time>2025-04-05T12:54:34Z</time>
      </trkpt>
      <trkpt lat="50.43618" lon="4.84895">
        <ele>128</ele>
        <time>2025-04-05T12:54:35Z</time>
      </trkpt>
      <trkpt lat="50.4362" lon="4.84889">
        <ele>128</ele>
        <time>2025-04-05T12:54:36Z</time>
      </trkpt>
      <trkpt lat="50.43621" lon="4.84884">
        <ele>128</ele>
        <time>2025-04-05T12:54:37Z</time>
      </trkpt>
      <trkpt lat="50.43622" lon="4.84878">
        <ele>128</ele>
        <time>2025-04-05T12:54:38Z</time>
      </trkpt>
      <trkpt lat="50.43623" lon="4.84873">
        <ele>128</ele>
        <time>2025-04-05T12:54:39Z</time>
      </trkpt>
      <trkpt lat="50.43624" lon="4.84867">
        <ele>128.2</ele>
        <time>2025-04-05T12:54:40Z</time>
      </trkpt>
      <trkpt lat="50.43625" lon="4.84862">
        <ele>128.2</ele>
        <time>2025-04-05T12:54:41Z</time>
      </trkpt>
      <trkpt lat="50.43626" lon="4.84855">
        <ele>128.2</ele>
        <time>2025-04-05T12:54:42Z</time>
      </trkpt>
      <trkpt lat="50.43627" lon="4.84849">
        <ele>128.4</ele>
        <time>2025-04-05T12:54:43Z</time>
      </trkpt>
      <trkpt lat="50.43628" lon="4.84843">
        <ele>128.4</ele>
        <time>2025-04-05T12:54:44Z</time>
      </trkpt>
      <trkpt lat="50.43629" lon="4.84838">
        <ele>128.6</ele>
        <time>2025-04-05T12:54:45Z</time>
      </trkpt>
      <trkpt lat="50.4363" lon="4.84833">
        <ele>128.6</ele>
        <time>2025-04-05T12:54:46Z</time>
      </trkpt>
      <trkpt lat="50.43631" lon="4.84826">
        <ele>128.8</ele>
        <time>2025-04-05T12:54:47Z</time>
      </trkpt>
      <trkpt lat="50.43633" lon="4.84821">
        <ele>128.8</ele>
        <time>2025-04-05T12:54:48Z</time>
      </trkpt>
      <trkpt lat="50.43634" lon="4.84815">
        <ele>129</ele>
        <time>2025-04-05T12:54:49Z</time>
      </trkpt>
      <trkpt lat="50.43635" lon="4.84809">
        <ele>129.2</ele>
        <time>2025-04-05T12:54:50Z</time>
      </trkpt>
      <trkpt lat="50.43636" lon="4.84803">
        <ele>129.2</ele>
        <time>2025-04-05T12:54:51Z</time>
      </trkpt>
      <trkpt lat="50.43637" lon="4.84797">
        <ele>129.4</ele>
        <time>2025-04-05T12:54:52Z</time>
      </trkpt>
      <trkpt lat="50.43638" lon="4.84792">
        <ele>129.6</ele>
        <time>2025-04-05T12:54:53Z</time>
      </trkpt>
      <trkpt lat="50.4364" lon="4.84787">
        <ele>129.8</ele>
        <time>2025-04-05T12:54:54Z</time>
      </trkpt>
      <trkpt lat="50.43641" lon="4.84782">
        <ele>130</ele>
        <time>2025-04-05T12:54:55Z</time>
      </trkpt>
      <trkpt lat="50.43642" lon="4.84777">
        <ele>130.2</ele>
        <time>2025-04-05T12:54:56Z</time>
      </trkpt>
      <trkpt lat="50.43644" lon="4.84772">
        <ele>130.2</ele>
        <time>2025-04-05T12:54:57Z</time>
      </trkpt>
      <trkpt lat="50.43646" lon="4.84768">
        <ele>130.4</ele>
        <time>2025-04-05T12:54:58Z</time>
      </trkpt>
      <trkpt lat="50.43647" lon="4.84762">
        <ele>130.6</ele>
        <time>2025-04-05T12:54:59Z</time>
      </trkpt>
      <trkpt lat="50.43649" lon="4.84757">
        <ele>130.8</ele>
        <time>2025-04-05T12:55:00Z</time>
      </trkpt>
      <trkpt lat="50.43651" lon="4.84752">
        <ele>130.8</ele>
        <time>2025-04-05T12:55:01Z</time>
      </trkpt>
      <trkpt lat="50.43653" lon="4.84747">
        <ele>131</ele>
        <time>2025-04-05T12:55:02Z</time>
      </trkpt>
      <trkpt lat="50.43655" lon="4.84743">
        <ele>131</ele>
        <time>2025-04-05T12:55:03Z</time>
      </trkpt>
      <trkpt lat="50.43657" lon="4.84738">
        <ele>131.2</ele>
        <time>2025-04-05T12:55:04Z</time>
      </trkpt>
      <trkpt lat="50.43658" lon="4.84734">
        <ele>131.2</ele>
        <time>2025-04-05T12:55:05Z</time>
      </trkpt>
      <trkpt lat="50.4366" lon="4.84729">
        <ele>131.4</ele>
        <time>2025-04-05T12:55:06Z</time>
      </trkpt>
      <trkpt lat="50.43663" lon="4.84724">
        <ele>131.4</ele>
        <time>2025-04-05T12:55:07Z</time>
      </trkpt>
      <trkpt lat="50.43665" lon="4.8472">
        <ele>131.6</ele>
        <time>2025-04-05T12:55:08Z</time>
      </trkpt>
      <trkpt lat="50.43668" lon="4.84716">
        <ele>131.8</ele>
        <time>2025-04-05T12:55:09Z</time>
      </trkpt>
      <trkpt lat="50.4367" lon="4.84711">
        <ele>131.8</ele>
        <time>2025-04-05T12:55:10Z</time>
      </trkpt>
      <trkpt lat="50.43673" lon="4.84707">
        <ele>132</ele>
        <time>2025-04-05T12:55:11Z</time>
      </trkpt>
      <trkpt lat="50.43675" lon="4.84703">
        <ele>132</ele>
        <time>2025-04-05T12:55:12Z</time>
      </trkpt>
      <trkpt lat="50.43678" lon="4.84699">
        <ele>132.2</ele>
        <time>2025-04-05T12:55:13Z</time>
      </trkpt>
      <trkpt lat="50.43681" lon="4.84695">
        <ele>132.2</ele>
        <time>2025-04-05T12:55:14Z</time>
      </trkpt>
      <trkpt lat="50.43683" lon="4.8469">
        <ele>132.2</ele>
        <time>2025-04-05T12:55:15Z</time>
      </trkpt>
      <trkpt lat="50.43685" lon="4.84686">
        <ele>132.4</ele>
        <time>2025-04-05T12:55:16Z</time>
      </trkpt>
      <trkpt lat="50.43687" lon="4.84682">
        <ele>132.4</ele>
        <time>2025-04-05T12:55:17Z</time>
      </trkpt>
      <trkpt lat="50.4369" lon="4.84678">
        <ele>132.6</ele>
        <time>2025-04-05T12:55:18Z</time>
      </trkpt>
      <trkpt lat="50.43693" lon="4.84674">
        <ele>132.6</ele>
        <time>2025-04-05T12:55:19Z</time>
      </trkpt>
      <trkpt lat="50.43695" lon="4.8467">
        <ele>132.8</ele>
        <time>2025-04-05T12:55:20Z</time>
      </trkpt>
      <trkpt lat="50.43698" lon="4.84666">
        <ele>132.8</ele>
        <time>2025-04-05T12:55:21Z</time>
      </trkpt>
      <trkpt lat="50.437" lon="4.84662">
        <ele>133</ele>
        <time>2025-04-05T12:55:22Z</time>
      </trkpt>
      <trkpt lat="50.43703" lon="4.84658">
        <ele>133</ele>
        <time>2025-04-05T12:55:23Z</time>
      </trkpt>
      <trkpt lat="50.43706" lon="4.84652">
        <ele>133</ele>
        <time>2025-04-05T12:55:24Z</time>
      </trkpt>
      <trkpt lat="50.43708" lon="4.84648">
        <ele>133.2</ele>
        <time>2025-04-05T12:55:25Z</time>
      </trkpt>
      <trkpt lat="50.43711" lon="4.84644">
        <ele>133.2</ele>
        <time>2025-04-05T12:55:26Z</time>
      </trkpt>
      <trkpt lat="50.43714" lon="4.8464">
        <ele>133.4</ele>
        <time>2025-04-05T12:55:27Z</time>
      </trkpt>
      <trkpt lat="50.43716" lon="4.84636">
        <ele>133.4</ele>
        <time>2025-04-05T12:55:28Z</time>
      </trkpt>
      <trkpt lat="50.43719" lon="4.84632">
        <ele>133.4</ele>
        <time>2025-04-05T12:55:29Z</time>
      </trkpt>
      <trkpt lat="50.43722" lon="4.84627">
        <ele>133.6</ele>
        <time>2025-04-05T12:55:30Z</time>
      </trkpt>
      <trkpt lat="50.43724" lon="4.84623">
        <ele>133.6</ele>
        <time>2025-04-05T12:55:31Z</time>
      </trkpt>
      <trkpt lat="50.43726" lon="4.84619">
        <ele>133.8</ele>
        <time>2025-04-05T12:55:32Z</time>
      </trkpt>
      <trkpt lat="50.43729" lon="4.84615">
        <ele>134</ele>
        <time>2025-04-05T12:55:33Z</time>
      </trkpt>
      <trkpt lat="50.43731" lon="4.84611">
        <ele>134.2</ele>
        <time>2025-04-05T12:55:34Z</time>
      </trkpt>
      <trkpt lat="50.43734" lon="4.84607">
        <ele>134.4</ele>
        <time>2025-04-05T12:55:35Z</time>
      </trkpt>
      <trkpt lat="50.43736" lon="4.84603">
        <ele>134.6</ele>
        <time>2025-04-05T12:55:36Z</time>
      </trkpt>
      <trkpt lat="50.43739" lon="4.84598">
        <ele>134.8</ele>
        <time>2025-04-05T12:55:37Z</time>
      </trkpt>
      <trkpt lat="50.43741" lon="4.84594">
        <ele>135</ele>
        <time>2025-04-05T12:55:38Z</time>
      </trkpt>
      <trkpt lat="50.43743" lon="4.84589">
        <ele>135.2</ele>
        <time>2025-04-05T12:55:39Z</time>
      </trkpt>
      <trkpt lat="50.43745" lon="4.84585">
        <ele>135.4</ele>
        <time>2025-04-05T12:55:40Z</time>
      </trkpt>
      <trkpt lat="50.43747" lon="4.8458">
        <ele>135.6</ele>
        <time>2025-04-05T12:55:41Z</time>
      </trkpt>
      <trkpt lat="50.4375" lon="4.84575">
        <ele>135.8</ele>
        <time>2025-04-05T12:55:42Z</time>
      </trkpt>
      <trkpt lat="50.43751" lon="4.84569">
        <ele>135.8</ele>
        <time>2025-04-05T12:55:43Z</time>
      </trkpt>
      <trkpt lat="50.43752" lon="4.84564">
        <ele>136</ele>
        <time>2025-04-05T12:55:44Z</time>
      </trkpt>
      <trkpt lat="50.43753" lon="4.84558">
        <ele>136.2</ele>
        <time>2025-04-05T12:55:45Z</time>
      </trkpt>
      <trkpt lat="50.43754" lon="4.84553">
        <ele>136.4</ele>
        <time>2025-04-05T12:55:46Z</time>
      </trkpt>
      <trkpt lat="50.43755" lon="4.84547">
        <ele>136.6</ele>
        <time>2025-04-05T12:55:47Z</time>
      </trkpt>
      <trkpt lat="50.43756" lon="4.84542">
        <ele>136.8</ele>
        <time>2025-04-05T12:55:48Z</time>
      </trkpt>
      <trkpt lat="50.43757" lon="4.84537">
        <ele>137</ele>
        <time>2025-04-05T12:55:49Z</time>
      </trkpt>
      <trkpt lat="50.43758" lon="4.8453">
        <ele>137.2</ele>
        <time>2025-04-05T12:55:50Z</time>
      </trkpt>
      <trkpt lat="50.43759" lon="4.84525">
        <ele>137.4</ele>
        <time>2025-04-05T12:55:51Z</time>
      </trkpt>
      <trkpt lat="50.4376" lon="4.8452">
        <ele>137.6</ele>
        <time>2025-04-05T12:55:52Z</time>
      </trkpt>
      <trkpt lat="50.4376" lon="4.84515">
        <ele>137.8</ele>
        <time>2025-04-05T12:55:53Z</time>
      </trkpt>
      <trkpt lat="50.43761" lon="4.84509">
        <ele>137.8</ele>
        <time>2025-04-05T12:55:54Z</time>
      </trkpt>
      <trkpt lat="50.43762" lon="4.84504">
        <ele>137.8</ele>
        <time>2025-04-05T12:55:55Z</time>
      </trkpt>
      <trkpt lat="50.43763" lon="4.84499">
        <ele>138</ele>
        <time>2025-04-05T12:55:56Z</time>
      </trkpt>
      <trkpt lat="50.43765" lon="4.84493">
        <ele>138</ele>
        <time>2025-04-05T12:55:57Z</time>
      </trkpt>
      <trkpt lat="50.43765" lon="4.84488">
        <ele>138.2</ele>
        <time>2025-04-05T12:55:58Z</time>
      </trkpt>
      <trkpt lat="50.43766" lon="4.84482">
        <ele>138.2</ele>
        <time>2025-04-05T12:55:59Z</time>
      </trkpt>
      <trkpt lat="50.43767" lon="4.84477">
        <ele>138.4</ele>
        <time>2025-04-05T12:56:00Z</time>
      </trkpt>
      <trkpt lat="50.43768" lon="4.84471">
        <ele>138.6</ele>
        <time>2025-04-05T12:56:01Z</time>
      </trkpt>
      <trkpt lat="50.43768" lon="4.84465">
        <ele>138.6</ele>
        <time>2025-04-05T12:56:02Z</time>
      </trkpt>
      <trkpt lat="50.43769" lon="4.84459">
        <ele>138.8</ele>
        <time>2025-04-05T12:56:03Z</time>
      </trkpt>
      <trkpt lat="50.4377" lon="4.84453">
        <ele>139</ele>
        <time>2025-04-05T12:56:04Z</time>
      </trkpt>
      <trkpt lat="50.43771" lon="4.84448">
        <ele>139.2</ele>
        <time>2025-04-05T12:56:05Z</time>
      </trkpt>
      <trkpt lat="50.43772" lon="4.84442">
        <ele>139.2</ele>
        <time>2025-04-05T12:56:06Z</time>
      </trkpt>
      <trkpt lat="50.43773" lon="4.84437">
        <ele>139.4</ele>
        <time>2025-04-05T12:56:07Z</time>
      </trkpt>
      <trkpt lat="50.43774" lon="4.84432">
        <ele>139.6</ele>
        <time>2025-04-05T12:56:08Z</time>
      </trkpt>
      <trkpt lat="50.43775" lon="4.84427">
        <ele>139.8</ele>
        <time>2025-04-05T12:56:09Z</time>
      </trkpt>
      <trkpt lat="50.43776" lon="4.84422">
        <ele>139.8</ele>
        <time>2025-04-05T12:56:10Z</time>
      </trkpt>
      <trkpt lat="50.43778" lon="4.84416">
        <ele>140</ele>
        <time>2025-04-05T12:56:11Z</time>
      </trkpt>
      <trkpt lat="50.4378" lon="4.84412">
        <ele>140</ele>
        <time>2025-04-05T12:56:12Z</time>
      </trkpt>
      <trkpt lat="50.43781" lon="4.84409">
        <ele>140.2</ele>
        <time>2025-04-05T12:56:13Z</time>
      </trkpt>
      <trkpt lat="50.43783" lon="4.84404">
        <ele>140.2</ele>
        <time>2025-04-05T12:56:14Z</time>
      </trkpt>
      <trkpt lat="50.43786" lon="4.844">
        <ele>140.4</ele>
        <time>2025-04-05T12:56:15Z</time>
      </trkpt>
      <trkpt lat="50.43788" lon="4.84396">
        <ele>140.6</ele>
        <time>2025-04-05T12:56:16Z</time>
      </trkpt>
      <trkpt lat="50.4379" lon="4.84392">
        <ele>140.6</ele>
        <time>2025-04-05T12:56:17Z</time>
      </trkpt>
      <trkpt lat="50.43792" lon="4.84388">
        <ele>140.8</ele>
        <time>2025-04-05T12:56:18Z</time>
      </trkpt>
      <trkpt lat="50.43795" lon="4.84384">
        <ele>141</ele>
        <time>2025-04-05T12:56:19Z</time>
      </trkpt>
      <trkpt lat="50.43797" lon="4.84379">
        <ele>141.2</ele>
        <time>2025-04-05T12:56:20Z</time>
      </trkpt>
      <trkpt lat="50.438" lon="4.84375">
        <ele>141.4</ele>
        <time>2025-04-05T12:56:21Z</time>
      </trkpt>
      <trkpt lat="50.43802" lon="4.8437">
        <ele>141.4</ele>
        <time>2025-04-05T12:56:22Z</time>
      </trkpt>
      <trkpt lat="50.43805" lon="4.84366">
        <ele>141.6</ele>
        <time>2025-04-05T12:56:23Z</time>
      </trkpt>
      <trkpt lat="50.43808" lon="4.84361">
        <ele>141.8</ele>
        <time>2025-04-05T12:56:24Z</time>
      </trkpt>
      <trkpt lat="50.4381" lon="4.84358">
        <ele>141.8</ele>
        <time>2025-04-05T12:56:25Z</time>
      </trkpt>
      <trkpt lat="50.43813" lon="4.84354">
        <ele>141.8</ele>
        <time>2025-04-05T12:56:26Z</time>
      </trkpt>
      <trkpt lat="50.43816" lon="4.84351">
        <ele>142</ele>
        <time>2025-04-05T12:56:27Z</time>
      </trkpt>
      <trkpt lat="50.43819" lon="4.84346">
        <ele>142.2</ele>
        <time>2025-04-05T12:56:28Z</time>
      </trkpt>
      <trkpt lat="50.43821" lon="4.84341">
        <ele>142.2</ele>
        <time>2025-04-05T12:56:29Z</time>
      </trkpt>
      <trkpt lat="50.43823" lon="4.84336">
        <ele>142.4</ele>
        <time>2025-04-05T12:56:30Z</time>
      </trkpt>
      <trkpt lat="50.43826" lon="4.84332">
        <ele>142.6</ele>
        <time>2025-04-05T12:56:31Z</time>
      </trkpt>
      <trkpt lat="50.43828" lon="4.84327">
        <ele>142.6</ele>
        <time>2025-04-05T12:56:32Z</time>
      </trkpt>
      <trkpt lat="50.4383" lon="4.84321">
        <ele>142.8</ele>
        <time>2025-04-05T12:56:33Z</time>
      </trkpt>
      <trkpt lat="50.43832" lon="4.84316">
        <ele>143</ele>
        <time>2025-04-05T12:56:34Z</time>
      </trkpt>
      <trkpt lat="50.43834" lon="4.8431">
        <ele>143.2</ele>
        <time>2025-04-05T12:56:35Z</time>
      </trkpt>
      <trkpt lat="50.43835" lon="4.84304">
        <ele>143.4</ele>
        <time>2025-04-05T12:56:36Z</time>
      </trkpt>
      <trkpt lat="50.43836" lon="4.84298">
        <ele>143.6</ele>
        <time>2025-04-05T12:56:37Z</time>
      </trkpt>
      <trkpt lat="50.43838" lon="4.84293">
        <ele>143.6</ele>
        <time>2025-04-05T12:56:38Z</time>
      </trkpt>
      <trkpt lat="50.4384" lon="4.84288">
        <ele>143.8</ele>
        <time>2025-04-05T12:56:39Z</time>
      </trkpt>
      <trkpt lat="50.43842" lon="4.84283">
        <ele>143.8</ele>
        <time>2025-04-05T12:56:40Z</time>
      </trkpt>
      <trkpt lat="50.43843" lon="4.84277">
        <ele>143.8</ele>
        <time>2025-04-05T12:56:41Z</time>
      </trkpt>
      <trkpt lat="50.43844" lon="4.84271">
        <ele>144</ele>
        <time>2025-04-05T12:56:42Z</time>
      </trkpt>
      <trkpt lat="50.43845" lon="4.84266">
        <ele>144</ele>
        <time>2025-04-05T12:56:43Z</time>
      </trkpt>
      <trkpt lat="50.43846" lon="4.84261">
        <ele>144.2</ele>
        <time>2025-04-05T12:56:44Z</time>
      </trkpt>
      <trkpt lat="50.43847" lon="4.84254">
        <ele>144.2</ele>
        <time>2025-04-05T12:56:45Z</time>
      </trkpt>
      <trkpt lat="50.43847" lon="4.84248">
        <ele>144.2</ele>
        <time>2025-04-05T12:56:46Z</time>
      </trkpt>
      <trkpt lat="50.43848" lon="4.84242">
        <ele>144.2</ele>
        <time>2025-04-05T12:56:47Z</time>
      </trkpt>
      <trkpt lat="50.43849" lon="4.84236">
        <ele>144.4</ele>
        <time>2025-04-05T12:56:48Z</time>
      </trkpt>
      <trkpt lat="50.4385" lon="4.84231">
        <ele>144.6</ele>
        <time>2025-04-05T12:56:49Z</time>
      </trkpt>
      <trkpt lat="50.4385" lon="4.84225">
        <ele>144.6</ele>
        <time>2025-04-05T12:56:50Z</time>
      </trkpt>
      <trkpt lat="50.43851" lon="4.84219">
        <ele>144.6</ele>
        <time>2025-04-05T12:56:51Z</time>
      </trkpt>
      <trkpt lat="50.43851" lon="4.84214">
        <ele>144.8</ele>
        <time>2025-04-05T12:56:52Z</time>
      </trkpt>
      <trkpt lat="50.43852" lon="4.84208">
        <ele>144.8</ele>
        <time>2025-04-05T12:56:53Z</time>
      </trkpt>
      <trkpt lat="50.43853" lon="4.84201">
        <ele>145</ele>
        <time>2025-04-05T12:56:54Z</time>
      </trkpt>
      <trkpt lat="50.43854" lon="4.84195">
        <ele>145</ele>
        <time>2025-04-05T12:56:55Z</time>
      </trkpt>
      <trkpt lat="50.43855" lon="4.8419">
        <ele>145.2</ele>
        <time>2025-04-05T12:56:56Z</time>
      </trkpt>
      <trkpt lat="50.43855" lon="4.84185">
        <ele>145.2</ele>
        <time>2025-04-05T12:56:57Z</time>
      </trkpt>
      <trkpt lat="50.43856" lon="4.84179">
        <ele>145.2</ele>
        <time>2025-04-05T12:56:58Z</time>
      </trkpt>
      <trkpt lat="50.43857" lon="4.84173">
        <ele>145.2</ele>
        <time>2025-04-05T12:56:59Z</time>
      </trkpt>
      <trkpt lat="50.43858" lon="4.84168">
        <ele>145.2</ele>
        <time>2025-04-05T12:57:00Z</time>
      </trkpt>
      <trkpt lat="50.43859" lon="4.84162">
        <ele>145.4</ele>
        <time>2025-04-05T12:57:01Z</time>
      </trkpt>
      <trkpt lat="50.4386" lon="4.84156">
        <ele>145.4</ele>
        <time>2025-04-05T12:57:02Z</time>
      </trkpt>
      <trkpt lat="50.43861" lon="4.84151">
        <ele>145.6</ele>
        <time>2025-04-05T12:57:03Z</time>
      </trkpt>
      <trkpt lat="50.43862" lon="4.84145">
        <ele>145.8</ele>
        <time>2025-04-05T12:57:04Z</time>
      </trkpt>
      <trkpt lat="50.43863" lon="4.84139">
        <ele>145.8</ele>
        <time>2025-04-05T12:57:05Z</time>
      </trkpt>
      <trkpt lat="50.43863" lon="4.84134">
        <ele>146</ele>
        <time>2025-04-05T12:57:06Z</time>
      </trkpt>
      <trkpt lat="50.43864" lon="4.84128">
        <ele>146.2</ele>
        <time>2025-04-05T12:57:07Z</time>
      </trkpt>
      <trkpt lat="50.43865" lon="4.84123">
        <ele>146.4</ele>
        <time>2025-04-05T12:57:08Z</time>
      </trkpt>
      <trkpt lat="50.43866" lon="4.84118">
        <ele>146.6</ele>
        <time>2025-04-05T12:57:09Z</time>
      </trkpt>
      <trkpt lat="50.43867" lon="4.84113">
        <ele>146.8</ele>
        <time>2025-04-05T12:57:10Z</time>
      </trkpt>
      <trkpt lat="50.43868" lon="4.84106">
        <ele>147</ele>
        <time>2025-04-05T12:57:11Z</time>
      </trkpt>
      <trkpt lat="50.43868" lon="4.841">
        <ele>147</ele>
        <time>2025-04-05T12:57:12Z</time>
      </trkpt>
      <trkpt lat="50.43869" lon="4.84095">
        <ele>147.2</ele>
        <time>2025-04-05T12:57:13Z</time>
      </trkpt>
      <trkpt lat="50.4387" lon="4.8409">
        <ele>147.4</ele>
        <time>2025-04-05T12:57:14Z</time>
      </trkpt>
      <trkpt lat="50.43871" lon="4.84085">
        <ele>147.6</ele>
        <time>2025-04-05T12:57:15Z</time>
      </trkpt>
      <trkpt lat="50.43871" lon="4.84079">
        <ele>147.8</ele>
        <time>2025-04-05T12:57:16Z</time>
      </trkpt>
      <trkpt lat="50.43872" lon="4.84074">
        <ele>148</ele>
        <time>2025-04-05T12:57:17Z</time>
      </trkpt>
      <trkpt lat="50.43873" lon="4.84069">
        <ele>148.2</ele>
        <time>2025-04-05T12:57:18Z</time>
      </trkpt>
      <trkpt lat="50.43874" lon="4.84063">
        <ele>148.2</ele>
        <time>2025-04-05T12:57:19Z</time>
      </trkpt>
      <trkpt lat="50.43874" lon="4.84058">
        <ele>148.4</ele>
        <time>2025-04-05T12:57:20Z</time>
      </trkpt>
      <trkpt lat="50.43875" lon="4.84052">
        <ele>148.6</ele>
        <time>2025-04-05T12:57:21Z</time>
      </trkpt>
      <trkpt lat="50.43876" lon="4.84047">
        <ele>148.8</ele>
        <time>2025-04-05T12:57:22Z</time>
      </trkpt>
      <trkpt lat="50.43876" lon="4.84042">
        <ele>149</ele>
        <time>2025-04-05T12:57:23Z</time>
      </trkpt>
      <trkpt lat="50.43877" lon="4.84036">
        <ele>149.2</ele>
        <time>2025-04-05T12:57:24Z</time>
      </trkpt>
      <trkpt lat="50.43878" lon="4.84031">
        <ele>149.2</ele>
        <time>2025-04-05T12:57:25Z</time>
      </trkpt>
      <trkpt lat="50.43879" lon="4.84026">
        <ele>149.4</ele>
        <time>2025-04-05T12:57:26Z</time>
      </trkpt>
      <trkpt lat="50.43879" lon="4.84021">
        <ele>149.4</ele>
        <time>2025-04-05T12:57:27Z</time>
      </trkpt>
      <trkpt lat="50.4388" lon="4.84014">
        <ele>149.6</ele>
        <time>2025-04-05T12:57:28Z</time>
      </trkpt>
      <trkpt lat="50.43881" lon="4.84008">
        <ele>149.6</ele>
        <time>2025-04-05T12:57:29Z</time>
      </trkpt>
      <trkpt lat="50.43881" lon="4.84003">
        <ele>149.8</ele>
        <time>2025-04-05T12:57:30Z</time>
      </trkpt>
      <trkpt lat="50.43882" lon="4.83997">
        <ele>149.8</ele>
        <time>2025-04-05T12:57:31Z</time>
      </trkpt>
      <trkpt lat="50.43882" lon="4.83991">
        <ele>150</ele>
        <time>2025-04-05T12:57:32Z</time>
      </trkpt>
      <trkpt lat="50.43883" lon="4.83986">
        <ele>150</ele>
        <time>2025-04-05T12:57:33Z</time>
      </trkpt>
      <trkpt lat="50.43883" lon="4.8398">
        <ele>150.2</ele>
        <time>2025-04-05T12:57:34Z</time>
      </trkpt>
      <trkpt lat="50.43884" lon="4.83975">
        <ele>150.2</ele>
        <time>2025-04-05T12:57:35Z</time>
      </trkpt>
      <trkpt lat="50.43884" lon="4.83969">
        <ele>150.2</ele>
        <time>2025-04-05T12:57:36Z</time>
      </trkpt>
      <trkpt lat="50.43884" lon="4.83963">
        <ele>150.2</ele>
        <time>2025-04-05T12:57:37Z</time>
      </trkpt>
      <trkpt lat="50.43884" lon="4.83957">
        <ele>150.2</ele>
        <time>2025-04-05T12:57:38Z</time>
      </trkpt>
      <trkpt lat="50.43884" lon="4.83952">
        <ele>150.4</ele>
        <time>2025-04-05T12:57:39Z</time>
      </trkpt>
      <trkpt lat="50.43884" lon="4.83947">
        <ele>150.4</ele>
        <time>2025-04-05T12:57:40Z</time>
      </trkpt>
      <trkpt lat="50.43884" lon="4.8394">
        <ele>150.4</ele>
        <time>2025-04-05T12:57:41Z</time>
      </trkpt>
      <trkpt lat="50.43884" lon="4.83933">
        <ele>150.4</ele>
        <time>2025-04-05T12:57:42Z</time>
      </trkpt>
      <trkpt lat="50.43883" lon="4.83927">
        <ele>150.4</ele>
        <time>2025-04-05T12:57:43Z</time>
      </trkpt>
      <trkpt lat="50.43882" lon="4.83921">
        <ele>150.4</ele>
        <time>2025-04-05T12:57:44Z</time>
      </trkpt>
      <trkpt lat="50.43882" lon="4.83915">
        <ele>150.6</ele>
        <time>2025-04-05T12:57:45Z</time>
      </trkpt>
      <trkpt lat="50.43881" lon="4.83909">
        <ele>150.6</ele>
        <time>2025-04-05T12:57:46Z</time>
      </trkpt>
      <trkpt lat="50.4388" lon="4.83903">
        <ele>150.6</ele>
        <time>2025-04-05T12:57:47Z</time>
      </trkpt>
      <trkpt lat="50.43879" lon="4.83898">
        <ele>150.6</ele>
        <time>2025-04-05T12:57:48Z</time>
      </trkpt>
      <trkpt lat="50.43879" lon="4.83892">
        <ele>150.8</ele>
        <time>2025-04-05T12:57:49Z</time>
      </trkpt>
      <trkpt lat="50.43879" lon="4.83886">
        <ele>151</ele>
        <time>2025-04-05T12:57:50Z</time>
      </trkpt>
      <trkpt lat="50.43879" lon="4.8388">
        <ele>151.2</ele>
        <time>2025-04-05T12:57:51Z</time>
      </trkpt>
      <trkpt lat="50.43879" lon="4.83874">
        <ele>151.2</ele>
        <time>2025-04-05T12:57:52Z</time>
      </trkpt>
      <trkpt lat="50.43879" lon="4.83868">
        <ele>151.4</ele>
        <time>2025-04-05T12:57:53Z</time>
      </trkpt>
      <trkpt lat="50.43879" lon="4.83863">
        <ele>151.4</ele>
        <time>2025-04-05T12:57:54Z</time>
      </trkpt>
      <trkpt lat="50.4388" lon="4.83857">
        <ele>151.4</ele>
        <time>2025-04-05T12:57:55Z</time>
      </trkpt>
      <trkpt lat="50.43881" lon="4.83851">
        <ele>151.6</ele>
        <time>2025-04-05T12:57:56Z</time>
      </trkpt>
      <trkpt lat="50.43881" lon="4.83846">
        <ele>151.6</ele>
        <time>2025-04-05T12:57:57Z</time>
      </trkpt>
      <trkpt lat="50.43881" lon="4.83839">
        <ele>151.8</ele>
        <time>2025-04-05T12:57:58Z</time>
      </trkpt>
      <trkpt lat="50.43882" lon="4.83834">
        <ele>152</ele>
        <time>2025-04-05T12:57:59Z</time>
      </trkpt>
      <trkpt lat="50.43882" lon="4.83829">
        <ele>152.2</ele>
        <time>2025-04-05T12:58:00Z</time>
      </trkpt>
      <trkpt lat="50.43883" lon="4.83825">
        <ele>152.4</ele>
        <time>2025-04-05T12:58:01Z</time>
      </trkpt>
      <trkpt lat="50.43884" lon="4.8382">
        <ele>152.6</ele>
        <time>2025-04-05T12:58:02Z</time>
      </trkpt>
      <trkpt lat="50.43885" lon="4.83814">
        <ele>153</ele>
        <time>2025-04-05T12:58:03Z</time>
      </trkpt>
      <trkpt lat="50.43887" lon="4.83809">
        <ele>153.2</ele>
        <time>2025-04-05T12:58:04Z</time>
      </trkpt>
      <trkpt lat="50.43887" lon="4.83804">
        <ele>153.4</ele>
        <time>2025-04-05T12:58:05Z</time>
      </trkpt>
      <trkpt lat="50.43888" lon="4.83799">
        <ele>153.8</ele>
        <time>2025-04-05T12:58:06Z</time>
      </trkpt>
      <trkpt lat="50.43889" lon="4.83792">
        <ele>154</ele>
        <time>2025-04-05T12:58:07Z</time>
      </trkpt>
      <trkpt lat="50.4389" lon="4.83787">
        <ele>154.2</ele>
        <time>2025-04-05T12:58:08Z</time>
      </trkpt>
      <trkpt lat="50.4389" lon="4.83783">
        <ele>154.6</ele>
        <time>2025-04-05T12:58:09Z</time>
      </trkpt>
      <trkpt lat="50.43892" lon="4.83777">
        <ele>154.8</ele>
        <time>2025-04-05T12:58:10Z</time>
      </trkpt>
      <trkpt lat="50.43892" lon="4.83772">
        <ele>155</ele>
        <time>2025-04-05T12:58:11Z</time>
      </trkpt>
      <trkpt lat="50.43893" lon="4.83766">
        <ele>155.2</ele>
        <time>2025-04-05T12:58:12Z</time>
      </trkpt>
      <trkpt lat="50.43894" lon="4.83761">
        <ele>155.6</ele>
        <time>2025-04-05T12:58:13Z</time>
      </trkpt>
      <trkpt lat="50.43895" lon="4.83757">
        <ele>155.8</ele>
        <time>2025-04-05T12:58:14Z</time>
      </trkpt>
      <trkpt lat="50.43895" lon="4.83751">
        <ele>156</ele>
        <time>2025-04-05T12:58:15Z</time>
      </trkpt>
      <trkpt lat="50.43896" lon="4.83746">
        <ele>156.2</ele>
        <time>2025-04-05T12:58:16Z</time>
      </trkpt>
      <trkpt lat="50.43897" lon="4.83741">
        <ele>156.4</ele>
        <time>2025-04-05T12:58:17Z</time>
      </trkpt>
      <trkpt lat="50.43898" lon="4.83735">
        <ele>156.6</ele>
        <time>2025-04-05T12:58:18Z</time>
      </trkpt>
      <trkpt lat="50.43899" lon="4.8373">
        <ele>156.8</ele>
        <time>2025-04-05T12:58:19Z</time>
      </trkpt>
      <trkpt lat="50.439" lon="4.83725">
        <ele>157</ele>
        <time>2025-04-05T12:58:20Z</time>
      </trkpt>
      <trkpt lat="50.43901" lon="4.8372">
        <ele>157</ele>
        <time>2025-04-05T12:58:21Z</time>
      </trkpt>
      <trkpt lat="50.43901" lon="4.83715">
        <ele>157.2</ele>
        <time>2025-04-05T12:58:22Z</time>
      </trkpt>
      <trkpt lat="50.43902" lon="4.8371">
        <ele>157.6</ele>
        <time>2025-04-05T12:58:23Z</time>
      </trkpt>
      <trkpt lat="50.43903" lon="4.83706">
        <ele>157.6</ele>
        <time>2025-04-05T12:58:24Z</time>
      </trkpt>
      <trkpt lat="50.43903" lon="4.83701">
        <ele>157.8</ele>
        <time>2025-04-05T12:58:25Z</time>
      </trkpt>
      <trkpt lat="50.43904" lon="4.83696">
        <ele>158</ele>
        <time>2025-04-05T12:58:26Z</time>
      </trkpt>
      <trkpt lat="50.43904" lon="4.83692">
        <ele>158</ele>
        <time>2025-04-05T12:58:27Z</time>
      </trkpt>
      <trkpt lat="50.43905" lon="4.83687">
        <ele>158.2</ele>
        <time>2025-04-05T12:58:28Z</time>
      </trkpt>
      <trkpt lat="50.43905" lon="4.83683">
        <ele>158.4</ele>
        <time>2025-04-05T12:58:29Z</time>
      </trkpt>
      <trkpt lat="50.43905" lon="4.83678">
        <ele>158.6</ele>
        <time>2025-04-05T12:58:30Z</time>
      </trkpt>
      <trkpt lat="50.43905" lon="4.83673">
        <ele>158.8</ele>
        <time>2025-04-05T12:58:31Z</time>
      </trkpt>
      <trkpt lat="50.43905" lon="4.83668">
        <ele>158.8</ele>
        <time>2025-04-05T12:58:32Z</time>
      </trkpt>
      <trkpt lat="50.43904" lon="4.83664">
        <ele>159</ele>
        <time>2025-04-05T12:58:33Z</time>
      </trkpt>
      <trkpt lat="50.43903" lon="4.8366">
        <ele>159.2</ele>
        <time>2025-04-05T12:58:34Z</time>
      </trkpt>
      <trkpt lat="50.43903" lon="4.83656">
        <ele>159.4</ele>
        <time>2025-04-05T12:58:35Z</time>
      </trkpt>
      <trkpt lat="50.43901" lon="4.83652">
        <ele>159.4</ele>
        <time>2025-04-05T12:58:36Z</time>
      </trkpt>
      <trkpt lat="50.439" lon="4.83647">
        <ele>159.6</ele>
        <time>2025-04-05T12:58:37Z</time>
      </trkpt>
      <trkpt lat="50.43899" lon="4.83643">
        <ele>159.8</ele>
        <time>2025-04-05T12:58:38Z</time>
      </trkpt>
      <trkpt lat="50.43897" lon="4.83639">
        <ele>160</ele>
        <time>2025-04-05T12:58:39Z</time>
      </trkpt>
      <trkpt lat="50.43896" lon="4.83635">
        <ele>160</ele>
        <time>2025-04-05T12:58:40Z</time>
      </trkpt>
      <trkpt lat="50.43895" lon="4.83632">
        <ele>160.2</ele>
        <time>2025-04-05T12:58:41Z</time>
      </trkpt>
      <trkpt lat="50.43893" lon="4.83629">
        <ele>160.4</ele>
        <time>2025-04-05T12:58:42Z</time>
      </trkpt>
      <trkpt lat="50.43891" lon="4.83625">
        <ele>160.6</ele>
        <time>2025-04-05T12:58:43Z</time>
      </trkpt>
      <trkpt lat="50.43889" lon="4.83622">
        <ele>160.8</ele>
        <time>2025-04-05T12:58:44Z</time>
      </trkpt>
      <trkpt lat="50.43886" lon="4.83618">
        <ele>160.8</ele>
        <time>2025-04-05T12:58:45Z</time>
      </trkpt>
      <trkpt lat="50.43883" lon="4.83615">
        <ele>161</ele>
        <time>2025-04-05T12:58:46Z</time>
      </trkpt>
      <trkpt lat="50.4388" lon="4.83612">
        <ele>161.2</ele>
        <time>2025-04-05T12:58:47Z</time>
      </trkpt>
      <trkpt lat="50.43878" lon="4.83609">
        <ele>161.4</ele>
        <time>2025-04-05T12:58:48Z</time>
      </trkpt>
      <trkpt lat="50.43875" lon="4.83607">
        <ele>161.4</ele>
        <time>2025-04-05T12:58:49Z</time>
      </trkpt>
      <trkpt lat="50.43873" lon="4.83603">
        <ele>161.6</ele>
        <time>2025-04-05T12:58:50Z</time>
      </trkpt>
      <trkpt lat="50.4387" lon="4.83599">
        <ele>161.8</ele>
        <time>2025-04-05T12:58:51Z</time>
      </trkpt>
      <trkpt lat="50.43868" lon="4.83595">
        <ele>161.8</ele>
        <time>2025-04-05T12:58:52Z</time>
      </trkpt>
      <trkpt lat="50.43865" lon="4.83592">
        <ele>162</ele>
        <time>2025-04-05T12:58:53Z</time>
      </trkpt>
      <trkpt lat="50.43862" lon="4.83589">
        <ele>162.2</ele>
        <time>2025-04-05T12:58:54Z</time>
      </trkpt>
      <trkpt lat="50.4386" lon="4.83585">
        <ele>162.2</ele>
        <time>2025-04-05T12:58:55Z</time>
      </trkpt>
      <trkpt lat="50.43857" lon="4.83581">
        <ele>162.4</ele>
        <time>2025-04-05T12:58:56Z</time>
      </trkpt>
      <trkpt lat="50.43855" lon="4.83577">
        <ele>162.6</ele>
        <time>2025-04-05T12:58:57Z</time>
      </trkpt>
      <trkpt lat="50.43852" lon="4.83572">
        <ele>162.8</ele>
        <time>2025-04-05T12:58:58Z</time>
      </trkpt>
      <trkpt lat="50.43849" lon="4.83568">
        <ele>163</ele>
        <time>2025-04-05T12:58:59Z</time>
      </trkpt>
      <trkpt lat="50.43847" lon="4.83563">
        <ele>163.2</ele>
        <time>2025-04-05T12:59:00Z</time>
      </trkpt>
      <trkpt lat="50.43845" lon="4.83558">
        <ele>163.4</ele>
        <time>2025-04-05T12:59:01Z</time>
      </trkpt>
      <trkpt lat="50.43844" lon="4.83552">
        <ele>163.6</ele>
        <time>2025-04-05T12:59:02Z</time>
      </trkpt>
      <trkpt lat="50.43844" lon="4.83546">
        <ele>163.8</ele>
        <time>2025-04-05T12:59:03Z</time>
      </trkpt>
      <trkpt lat="50.43842" lon="4.83541">
        <ele>164</ele>
        <time>2025-04-05T12:59:04Z</time>
      </trkpt>
      <trkpt lat="50.43841" lon="4.83537">
        <ele>164.2</ele>
        <time>2025-04-05T12:59:05Z</time>
      </trkpt>
      <trkpt lat="50.4384" lon="4.83531">
        <ele>164.4</ele>
        <time>2025-04-05T12:59:06Z</time>
      </trkpt>
      <trkpt lat="50.4384" lon="4.83525">
        <ele>164.6</ele>
        <time>2025-04-05T12:59:07Z</time>
      </trkpt>
      <trkpt lat="50.4384" lon="4.83519">
        <ele>164.8</ele>
        <time>2025-04-05T12:59:08Z</time>
      </trkpt>
      <trkpt lat="50.4384" lon="4.83515">
        <ele>165</ele>
        <time>2025-04-05T12:59:09Z</time>
      </trkpt>
      <trkpt lat="50.43841" lon="4.8351">
        <ele>165.4</ele>
        <time>2025-04-05T12:59:10Z</time>
      </trkpt>
      <trkpt lat="50.43841" lon="4.83504">
        <ele>165.6</ele>
        <time>2025-04-05T12:59:11Z</time>
      </trkpt>
      <trkpt lat="50.43842" lon="4.83498">
        <ele>165.8</ele>
        <time>2025-04-05T12:59:12Z</time>
      </trkpt>
      <trkpt lat="50.43843" lon="4.83491">
        <ele>166</ele>
        <time>2025-04-05T12:59:13Z</time>
      </trkpt>
      <trkpt lat="50.43844" lon="4.83485">
        <ele>166.2</ele>
        <time>2025-04-05T12:59:14Z</time>
      </trkpt>
      <trkpt lat="50.43845" lon="4.83479">
        <ele>166.4</ele>
        <time>2025-04-05T12:59:15Z</time>
      </trkpt>
      <trkpt lat="50.43845" lon="4.83473">
        <ele>166.6</ele>
        <time>2025-04-05T12:59:16Z</time>
      </trkpt>
      <trkpt lat="50.43847" lon="4.83469">
        <ele>166.8</ele>
        <time>2025-04-05T12:59:17Z</time>
      </trkpt>
      <trkpt lat="50.43848" lon="4.83464">
        <ele>167</ele>
        <time>2025-04-05T12:59:18Z</time>
      </trkpt>
      <trkpt lat="50.43849" lon="4.83459">
        <ele>167.2</ele>
        <time>2025-04-05T12:59:19Z</time>
      </trkpt>
      <trkpt lat="50.4385" lon="4.83454">
        <ele>167.4</ele>
        <time>2025-04-05T12:59:20Z</time>
      </trkpt>
      <trkpt lat="50.43852" lon="4.83448">
        <ele>167.6</ele>
        <time>2025-04-05T12:59:21Z</time>
      </trkpt>
      <trkpt lat="50.43853" lon="4.83443">
        <ele>167.8</ele>
        <time>2025-04-05T12:59:22Z</time>
      </trkpt>
      <trkpt lat="50.43854" lon="4.83438">
        <ele>167.8</ele>
        <time>2025-04-05T12:59:23Z</time>
      </trkpt>
      <trkpt lat="50.43855" lon="4.83434">
        <ele>168</ele>
        <time>2025-04-05T12:59:24Z</time>
      </trkpt>
      <trkpt lat="50.43856" lon="4.83429">
        <ele>168</ele>
        <time>2025-04-05T12:59:25Z</time>
      </trkpt>
      <trkpt lat="50.43857" lon="4.83425">
        <ele>168.2</ele>
        <time>2025-04-05T12:59:26Z</time>
      </trkpt>
      <trkpt lat="50.43858" lon="4.8342">
        <ele>168.2</ele>
        <time>2025-04-05T12:59:27Z</time>
      </trkpt>
      <trkpt lat="50.43859" lon="4.83416">
        <ele>168.4</ele>
        <time>2025-04-05T12:59:28Z</time>
      </trkpt>
      <trkpt lat="50.4386" lon="4.83411">
        <ele>168.6</ele>
        <time>2025-04-05T12:59:29Z</time>
      </trkpt>
      <trkpt lat="50.43861" lon="4.83405">
        <ele>168.6</ele>
        <time>2025-04-05T12:59:30Z</time>
      </trkpt>
      <trkpt lat="50.43863" lon="4.834">
        <ele>168.8</ele>
        <time>2025-04-05T12:59:31Z</time>
      </trkpt>
      <trkpt lat="50.43863" lon="4.83395">
        <ele>169</ele>
        <time>2025-04-05T12:59:32Z</time>
      </trkpt>
      <trkpt lat="50.43864" lon="4.8339">
        <ele>169.2</ele>
        <time>2025-04-05T12:59:33Z</time>
      </trkpt>
      <trkpt lat="50.43866" lon="4.83385">
        <ele>169.2</ele>
        <time>2025-04-05T12:59:34Z</time>
      </trkpt>
      <trkpt lat="50.43867" lon="4.83381">
        <ele>169.4</ele>
        <time>2025-04-05T12:59:35Z</time>
      </trkpt>
      <trkpt lat="50.43868" lon="4.83377">
        <ele>169.6</ele>
        <time>2025-04-05T12:59:36Z</time>
      </trkpt>
      <trkpt lat="50.43869" lon="4.83371">
        <ele>169.8</ele>
        <time>2025-04-05T12:59:37Z</time>
      </trkpt>
      <trkpt lat="50.43871" lon="4.83367">
        <ele>169.8</ele>
        <time>2025-04-05T12:59:38Z</time>
      </trkpt>
      <trkpt lat="50.43872" lon="4.83362">
        <ele>170</ele>
        <time>2025-04-05T12:59:39Z</time>
      </trkpt>
      <trkpt lat="50.43873" lon="4.83357">
        <ele>170.2</ele>
        <time>2025-04-05T12:59:40Z</time>
      </trkpt>
      <trkpt lat="50.43874" lon="4.83352">
        <ele>170.4</ele>
        <time>2025-04-05T12:59:41Z</time>
      </trkpt>
      <trkpt lat="50.43875" lon="4.83346">
        <ele>170.6</ele>
        <time>2025-04-05T12:59:42Z</time>
      </trkpt>
      <trkpt lat="50.43876" lon="4.83341">
        <ele>170.6</ele>
        <time>2025-04-05T12:59:43Z</time>
      </trkpt>
      <trkpt lat="50.43876" lon="4.83336">
        <ele>170.8</ele>
        <time>2025-04-05T12:59:44Z</time>
      </trkpt>
      <trkpt lat="50.43877" lon="4.83331">
        <ele>171</ele>
        <time>2025-04-05T12:59:45Z</time>
      </trkpt>
      <trkpt lat="50.43878" lon="4.83325">
        <ele>171.2</ele>
        <time>2025-04-05T12:59:46Z</time>
      </trkpt>
      <trkpt lat="50.43879" lon="4.8332">
        <ele>171.2</ele>
        <time>2025-04-05T12:59:47Z</time>
      </trkpt>
      <trkpt lat="50.43881" lon="4.83316">
        <ele>171.4</ele>
        <time>2025-04-05T12:59:48Z</time>
      </trkpt>
      <trkpt lat="50.43881" lon="4.83311">
        <ele>171.4</ele>
        <time>2025-04-05T12:59:49Z</time>
      </trkpt>
      <trkpt lat="50.43882" lon="4.83307">
        <ele>171.6</ele>
        <time>2025-04-05T12:59:50Z</time>
      </trkpt>
      <trkpt lat="50.43884" lon="4.83302">
        <ele>171.6</ele>
        <time>2025-04-05T12:59:51Z</time>
      </trkpt>
      <trkpt lat="50.43885" lon="4.83297">
        <ele>171.8</ele>
        <time>2025-04-05T12:59:52Z</time>
      </trkpt>
      <trkpt lat="50.43886" lon="4.83292">
        <ele>172</ele>
        <time>2025-04-05T12:59:53Z</time>
      </trkpt>
      <trkpt lat="50.43887" lon="4.83287">
        <ele>172.2</ele>
        <time>2025-04-05T12:59:54Z</time>
      </trkpt>
      <trkpt lat="50.43888" lon="4.83282">
        <ele>172.4</ele>
        <time>2025-04-05T12:59:55Z</time>
      </trkpt>
      <trkpt lat="50.43889" lon="4.83276">
        <ele>172.4</ele>
        <time>2025-04-05T12:59:56Z</time>
      </trkpt>
      <trkpt lat="50.4389" lon="4.83272">
        <ele>172.6</ele>
        <time>2025-04-05T12:59:57Z</time>
      </trkpt>
      <trkpt lat="50.43891" lon="4.83267">
        <ele>172.6</ele>
        <time>2025-04-05T12:59:58Z</time>
      </trkpt>
      <trkpt lat="50.43892" lon="4.83262">
        <ele>172.8</ele>
        <time>2025-04-05T12:59:59Z</time>
      </trkpt>
      <trkpt lat="50.43893" lon="4.83257">
        <ele>173</ele>
        <time>2025-04-05T13:00:00Z</time>
      </trkpt>
      <trkpt lat="50.43894" lon="4.83253">
        <ele>173.2</ele>
        <time>2025-04-05T13:00:01Z</time>
      </trkpt>
      <trkpt lat="50.43895" lon="4.83248">
        <ele>173.2</ele>
        <time>2025-04-05T13:00:02Z</time>
      </trkpt>
      <trkpt lat="50.43896" lon="4.83242">
        <ele>173.4</ele>
        <time>2025-04-05T13:00:03Z</time>
      </trkpt>
      <trkpt lat="50.43897" lon="4.83237">
        <ele>173.6</ele>
        <time>2025-04-05T13:00:04Z</time>
      </trkpt>
      <trkpt lat="50.43898" lon="4.83233">
        <ele>173.8</ele>
        <time>2025-04-05T13:00:05Z</time>
      </trkpt>
      <trkpt lat="50.43899" lon="4.83228">
        <ele>173.8</ele>
        <time>2025-04-05T13:00:06Z</time>
      </trkpt>
      <trkpt lat="50.439" lon="4.83223">
        <ele>174</ele>
        <time>2025-04-05T13:00:07Z</time>
      </trkpt>
      <trkpt lat="50.43901" lon="4.83218">
        <ele>174.2</ele>
        <time>2025-04-05T13:00:08Z</time>
      </trkpt>
      <trkpt lat="50.43902" lon="4.83214">
        <ele>174.4</ele>
        <time>2025-04-05T13:00:09Z</time>
      </trkpt>
      <trkpt lat="50.43903" lon="4.8321">
        <ele>174.6</ele>
        <time>2025-04-05T13:00:10Z</time>
      </trkpt>
      <trkpt lat="50.43904" lon="4.83205">
        <ele>174.8</ele>
        <time>2025-04-05T13:00:11Z</time>
      </trkpt>
      <trkpt lat="50.43905" lon="4.832">
        <ele>174.8</ele>
        <time>2025-04-05T13:00:12Z</time>
      </trkpt>
      <trkpt lat="50.43906" lon="4.83195">
        <ele>175</ele>
        <time>2025-04-05T13:00:13Z</time>
      </trkpt>
      <trkpt lat="50.43907" lon="4.8319">
        <ele>175.2</ele>
        <time>2025-04-05T13:00:14Z</time>
      </trkpt>
      <trkpt lat="50.43908" lon="4.83185">
        <ele>175.2</ele>
        <time>2025-04-05T13:00:15Z</time>
      </trkpt>
      <trkpt lat="50.43909" lon="4.8318">
        <ele>175.4</ele>
        <time>2025-04-05T13:00:16Z</time>
      </trkpt>
      <trkpt lat="50.4391" lon="4.83176">
        <ele>175.4</ele>
        <time>2025-04-05T13:00:17Z</time>
      </trkpt>
      <trkpt lat="50.43911" lon="4.83172">
        <ele>175.6</ele>
        <time>2025-04-05T13:00:18Z</time>
      </trkpt>
      <trkpt lat="50.43912" lon="4.83167">
        <ele>175.8</ele>
        <time>2025-04-05T13:00:19Z</time>
      </trkpt>
      <trkpt lat="50.43913" lon="4.83162">
        <ele>176</ele>
        <time>2025-04-05T13:00:20Z</time>
      </trkpt>
      <trkpt lat="50.43914" lon="4.83158">
        <ele>176.2</ele>
        <time>2025-04-05T13:00:21Z</time>
      </trkpt>
      <trkpt lat="50.43914" lon="4.83154">
        <ele>176.6</ele>
        <time>2025-04-05T13:00:22Z</time>
      </trkpt>
      <trkpt lat="50.43916" lon="4.8315">
        <ele>176.8</ele>
        <time>2025-04-05T13:00:23Z</time>
      </trkpt>
      <trkpt lat="50.43916" lon="4.83145">
        <ele>176.8</ele>
        <time>2025-04-05T13:00:24Z</time>
      </trkpt>
      <trkpt lat="50.43917" lon="4.83141">
        <ele>177</ele>
        <time>2025-04-05T13:00:25Z</time>
      </trkpt>
      <trkpt lat="50.43918" lon="4.83137">
        <ele>177.2</ele>
        <time>2025-04-05T13:00:26Z</time>
      </trkpt>
      <trkpt lat="50.43919" lon="4.83134">
        <ele>177.4</ele>
        <time>2025-04-05T13:00:27Z</time>
      </trkpt>
      <trkpt lat="50.4392" lon="4.8313">
        <ele>177.4</ele>
        <time>2025-04-05T13:00:28Z</time>
      </trkpt>
      <trkpt lat="50.43921" lon="4.83126">
        <ele>177.6</ele>
        <time>2025-04-05T13:00:29Z</time>
      </trkpt>
      <trkpt lat="50.43922" lon="4.83122">
        <ele>177.8</ele>
        <time>2025-04-05T13:00:30Z</time>
      </trkpt>
      <trkpt lat="50.43923" lon="4.83119">
        <ele>177.8</ele>
        <time>2025-04-05T13:00:31Z</time>
      </trkpt>
      <trkpt lat="50.43924" lon="4.83117">
        <ele>177.8</ele>
        <time>2025-04-05T13:00:32Z</time>
      </trkpt>
      <trkpt lat="50.43926" lon="4.83116">
        <ele>177.6</ele>
        <time>2025-04-05T13:00:33Z</time>
      </trkpt>
      <trkpt lat="50.43929" lon="4.83117">
        <ele>177.6</ele>
        <time>2025-04-05T13:00:34Z</time>
      </trkpt>
      <trkpt lat="50.43931" lon="4.83121">
        <ele>177.6</ele>
        <time>2025-04-05T13:00:35Z</time>
      </trkpt>
      <trkpt lat="50.43933" lon="4.83126">
        <ele>177.4</ele>
        <time>2025-04-05T13:00:36Z</time>
      </trkpt>
      <trkpt lat="50.43935" lon="4.83132">
        <ele>177.4</ele>
        <time>2025-04-05T13:00:37Z</time>
      </trkpt>
      <trkpt lat="50.43938" lon="4.83138">
        <ele>177.2</ele>
        <time>2025-04-05T13:00:38Z</time>
      </trkpt>
      <trkpt lat="50.43939" lon="4.83144">
        <ele>177.2</ele>
        <time>2025-04-05T13:00:39Z</time>
      </trkpt>
      <trkpt lat="50.43941" lon="4.8315">
        <ele>177</ele>
        <time>2025-04-05T13:00:40Z</time>
      </trkpt>
      <trkpt lat="50.43943" lon="4.83157">
        <ele>176.8</ele>
        <time>2025-04-05T13:00:41Z</time>
      </trkpt>
      <trkpt lat="50.43945" lon="4.83163">
        <ele>176.8</ele>
        <time>2025-04-05T13:00:42Z</time>
      </trkpt>
      <trkpt lat="50.43947" lon="4.83171">
        <ele>176.6</ele>
        <time>2025-04-05T13:00:43Z</time>
      </trkpt>
      <trkpt lat="50.43948" lon="4.83177">
        <ele>176.4</ele>
        <time>2025-04-05T13:00:44Z</time>
      </trkpt>
      <trkpt lat="50.4395" lon="4.83182">
        <ele>176.4</ele>
        <time>2025-04-05T13:00:45Z</time>
      </trkpt>
      <trkpt lat="50.43953" lon="4.83189">
        <ele>176.4</ele>
        <time>2025-04-05T13:00:46Z</time>
      </trkpt>
      <trkpt lat="50.43954" lon="4.83195">
        <ele>176.4</ele>
        <time>2025-04-05T13:00:47Z</time>
      </trkpt>
      <trkpt lat="50.43956" lon="4.83202">
        <ele>176.4</ele>
        <time>2025-04-05T13:00:48Z</time>
      </trkpt>
      <trkpt lat="50.43958" lon="4.83207">
        <ele>176.4</ele>
        <time>2025-04-05T13:00:49Z</time>
      </trkpt>
      <trkpt lat="50.43961" lon="4.83213">
        <ele>176.4</ele>
        <time>2025-04-05T13:00:50Z</time>
      </trkpt>
      <trkpt lat="50.43963" lon="4.83219">
        <ele>176.4</ele>
        <time>2025-04-05T13:00:51Z</time>
      </trkpt>
      <trkpt lat="50.43966" lon="4.83225">
        <ele>176.4</ele>
        <time>2025-04-05T13:00:52Z</time>
      </trkpt>
      <trkpt lat="50.43967" lon="4.83231">
        <ele>176.4</ele>
        <time>2025-04-05T13:00:53Z</time>
      </trkpt>
      <trkpt lat="50.4397" lon="4.83239">
        <ele>176.4</ele>
        <time>2025-04-05T13:00:54Z</time>
      </trkpt>
      <trkpt lat="50.43972" lon="4.83246">
        <ele>176.6</ele>
        <time>2025-04-05T13:00:55Z</time>
      </trkpt>
      <trkpt lat="50.43973" lon="4.83251">
        <ele>176.6</ele>
        <time>2025-04-05T13:00:56Z</time>
      </trkpt>
      <trkpt lat="50.43975" lon="4.83258">
        <ele>176.6</ele>
        <time>2025-04-05T13:00:57Z</time>
      </trkpt>
      <trkpt lat="50.43977" lon="4.83264">
        <ele>176.6</ele>
        <time>2025-04-05T13:00:58Z</time>
      </trkpt>
      <trkpt lat="50.4398" lon="4.8327">
        <ele>176.6</ele>
        <time>2025-04-05T13:00:59Z</time>
      </trkpt>
      <trkpt lat="50.43982" lon="4.83278">
        <ele>176.6</ele>
        <time>2025-04-05T13:01:00Z</time>
      </trkpt>
      <trkpt lat="50.43984" lon="4.83284">
        <ele>176.6</ele>
        <time>2025-04-05T13:01:01Z</time>
      </trkpt>
      <trkpt lat="50.43986" lon="4.8329">
        <ele>176.6</ele>
        <time>2025-04-05T13:01:02Z</time>
      </trkpt>
      <trkpt lat="50.43988" lon="4.83298">
        <ele>176.6</ele>
        <time>2025-04-05T13:01:03Z</time>
      </trkpt>
      <trkpt lat="50.4399" lon="4.83305">
        <ele>176.6</ele>
        <time>2025-04-05T13:01:04Z</time>
      </trkpt>
      <trkpt lat="50.43992" lon="4.83312">
        <ele>176.6</ele>
        <time>2025-04-05T13:01:05Z</time>
      </trkpt>
      <trkpt lat="50.43994" lon="4.83318">
        <ele>176.8</ele>
        <time>2025-04-05T13:01:06Z</time>
      </trkpt>
      <trkpt lat="50.43996" lon="4.83324">
        <ele>176.8</ele>
        <time>2025-04-05T13:01:07Z</time>
      </trkpt>
      <trkpt lat="50.43998" lon="4.8333">
        <ele>176.8</ele>
        <time>2025-04-05T13:01:08Z</time>
      </trkpt>
      <trkpt lat="50.44" lon="4.83335">
        <ele>177</ele>
        <time>2025-04-05T13:01:09Z</time>
      </trkpt>
      <trkpt lat="50.44002" lon="4.83341">
        <ele>177</ele>
        <time>2025-04-05T13:01:10Z</time>
      </trkpt>
      <trkpt lat="50.44004" lon="4.83347">
        <ele>177</ele>
        <time>2025-04-05T13:01:11Z</time>
      </trkpt>
      <trkpt lat="50.44006" lon="4.83353">
        <ele>177</ele>
        <time>2025-04-05T13:01:12Z</time>
      </trkpt>
      <trkpt lat="50.44008" lon="4.83359">
        <ele>177</ele>
        <time>2025-04-05T13:01:13Z</time>
      </trkpt>
      <trkpt lat="50.44011" lon="4.83365">
        <ele>177</ele>
        <time>2025-04-05T13:01:14Z</time>
      </trkpt>
      <trkpt lat="50.44012" lon="4.83371">
        <ele>177</ele>
        <time>2025-04-05T13:01:15Z</time>
      </trkpt>
      <trkpt lat="50.44013" lon="4.83377">
        <ele>177</ele>
        <time>2025-04-05T13:01:16Z</time>
      </trkpt>
      <trkpt lat="50.44015" lon="4.83384">
        <ele>177</ele>
        <time>2025-04-05T13:01:17Z</time>
      </trkpt>
      <trkpt lat="50.44017" lon="4.8339">
        <ele>177.2</ele>
        <time>2025-04-05T13:01:18Z</time>
      </trkpt>
      <trkpt lat="50.44019" lon="4.83397">
        <ele>177.2</ele>
        <time>2025-04-05T13:01:19Z</time>
      </trkpt>
      <trkpt lat="50.44021" lon="4.83403">
        <ele>177.4</ele>
        <time>2025-04-05T13:01:20Z</time>
      </trkpt>
      <trkpt lat="50.44022" lon="4.8341">
        <ele>177.6</ele>
        <time>2025-04-05T13:01:21Z</time>
      </trkpt>
      <trkpt lat="50.44024" lon="4.83416">
        <ele>178</ele>
        <time>2025-04-05T13:01:22Z</time>
      </trkpt>
      <trkpt lat="50.44027" lon="4.83423">
        <ele>178.2</ele>
        <time>2025-04-05T13:01:23Z</time>
      </trkpt>
      <trkpt lat="50.44028" lon="4.83428">
        <ele>178.4</ele>
        <time>2025-04-05T13:01:24Z</time>
      </trkpt>
      <trkpt lat="50.4403" lon="4.83435">
        <ele>178.6</ele>
        <time>2025-04-05T13:01:25Z</time>
      </trkpt>
      <trkpt lat="50.44032" lon="4.8344">
        <ele>178.8</ele>
        <time>2025-04-05T13:01:26Z</time>
      </trkpt>
      <trkpt lat="50.44033" lon="4.83444">
        <ele>179</ele>
        <time>2025-04-05T13:01:27Z</time>
      </trkpt>
      <trkpt lat="50.44036" lon="4.8345">
        <ele>179.2</ele>
        <time>2025-04-05T13:01:28Z</time>
      </trkpt>
      <trkpt lat="50.44038" lon="4.83456">
        <ele>179.4</ele>
        <time>2025-04-05T13:01:29Z</time>
      </trkpt>
      <trkpt lat="50.44039" lon="4.83462">
        <ele>179.6</ele>
        <time>2025-04-05T13:01:30Z</time>
      </trkpt>
      <trkpt lat="50.4404" lon="4.83469">
        <ele>179.6</ele>
        <time>2025-04-05T13:01:31Z</time>
      </trkpt>
      <trkpt lat="50.44042" lon="4.83475">
        <ele>179.8</ele>
        <time>2025-04-05T13:01:32Z</time>
      </trkpt>
      <trkpt lat="50.44044" lon="4.83482">
        <ele>180</ele>
        <time>2025-04-05T13:01:33Z</time>
      </trkpt>
      <trkpt lat="50.44045" lon="4.83488">
        <ele>180.2</ele>
        <time>2025-04-05T13:01:34Z</time>
      </trkpt>
      <trkpt lat="50.44047" lon="4.83493">
        <ele>180.2</ele>
        <time>2025-04-05T13:01:35Z</time>
      </trkpt>
      <trkpt lat="50.44049" lon="4.83498">
        <ele>180.4</ele>
        <time>2025-04-05T13:01:36Z</time>
      </trkpt>
      <trkpt lat="50.44051" lon="4.83505">
        <ele>180.4</ele>
        <time>2025-04-05T13:01:37Z</time>
      </trkpt>
      <trkpt lat="50.44052" lon="4.83511">
        <ele>180.6</ele>
        <time>2025-04-05T13:01:38Z</time>
      </trkpt>
      <trkpt lat="50.44053" lon="4.83515">
        <ele>180.8</ele>
        <time>2025-04-05T13:01:39Z</time>
      </trkpt>
      <trkpt lat="50.44055" lon="4.83521">
        <ele>181</ele>
        <time>2025-04-05T13:01:40Z</time>
      </trkpt>
      <trkpt lat="50.44056" lon="4.83527">
        <ele>181.2</ele>
        <time>2025-04-05T13:01:41Z</time>
      </trkpt>
      <trkpt lat="50.44058" lon="4.83532">
        <ele>181.2</ele>
        <time>2025-04-05T13:01:42Z</time>
      </trkpt>
      <trkpt lat="50.4406" lon="4.83537">
        <ele>181.4</ele>
        <time>2025-04-05T13:01:43Z</time>
      </trkpt>
      <trkpt lat="50.44062" lon="4.83541">
        <ele>181.6</ele>
        <time>2025-04-05T13:01:44Z</time>
      </trkpt>
      <trkpt lat="50.44064" lon="4.83547">
        <ele>181.8</ele>
        <time>2025-04-05T13:01:45Z</time>
      </trkpt>
      <trkpt lat="50.44065" lon="4.83553">
        <ele>182</ele>
        <time>2025-04-05T13:01:46Z</time>
      </trkpt>
      <trkpt lat="50.44067" lon="4.83559">
        <ele>182.2</ele>
        <time>2025-04-05T13:01:47Z</time>
      </trkpt>
      <trkpt lat="50.4407" lon="4.83564">
        <ele>182.4</ele>
        <time>2025-04-05T13:01:48Z</time>
      </trkpt>
      <trkpt lat="50.44071" lon="4.83568">
        <ele>182.4</ele>
        <time>2025-04-05T13:01:49Z</time>
      </trkpt>
      <trkpt lat="50.44073" lon="4.83573">
        <ele>182.6</ele>
        <time>2025-04-05T13:01:50Z</time>
      </trkpt>
      <trkpt lat="50.44074" lon="4.83579">
        <ele>182.8</ele>
        <time>2025-04-05T13:01:51Z</time>
      </trkpt>
      <trkpt lat="50.44075" lon="4.83583">
        <ele>182.8</ele>
        <time>2025-04-05T13:01:52Z</time>
      </trkpt>
      <trkpt lat="50.44077" lon="4.83588">
        <ele>183</ele>
        <time>2025-04-05T13:01:53Z</time>
      </trkpt>
      <trkpt lat="50.4408" lon="4.83594">
        <ele>183.2</ele>
        <time>2025-04-05T13:01:54Z</time>
      </trkpt>
      <trkpt lat="50.44082" lon="4.83598">
        <ele>183.4</ele>
        <time>2025-04-05T13:01:55Z</time>
      </trkpt>
      <trkpt lat="50.44084" lon="4.83603">
        <ele>183.4</ele>
        <time>2025-04-05T13:01:56Z</time>
      </trkpt>
      <trkpt lat="50.44086" lon="4.83608">
        <ele>183.6</ele>
        <time>2025-04-05T13:01:57Z</time>
      </trkpt>
      <trkpt lat="50.44088" lon="4.83613">
        <ele>183.6</ele>
        <time>2025-04-05T13:01:58Z</time>
      </trkpt>
      <trkpt lat="50.4409" lon="4.83618">
        <ele>183.8</ele>
        <time>2025-04-05T13:01:59Z</time>
      </trkpt>
      <trkpt lat="50.44092" lon="4.83622">
        <ele>184</ele>
        <time>2025-04-05T13:02:00Z</time>
      </trkpt>
      <trkpt lat="50.44094" lon="4.83626">
        <ele>184</ele>
        <time>2025-04-05T13:02:01Z</time>
      </trkpt>
      <trkpt lat="50.44096" lon="4.83631">
        <ele>184.2</ele>
        <time>2025-04-05T13:02:02Z</time>
      </trkpt>
      <trkpt lat="50.44099" lon="4.83637">
        <ele>184.2</ele>
        <time>2025-04-05T13:02:03Z</time>
      </trkpt>
      <trkpt lat="50.44101" lon="4.83642">
        <ele>184.4</ele>
        <time>2025-04-05T13:02:04Z</time>
      </trkpt>
      <trkpt lat="50.44103" lon="4.83646">
        <ele>184.4</ele>
        <time>2025-04-05T13:02:05Z</time>
      </trkpt>
      <trkpt lat="50.44106" lon="4.83651">
        <ele>184.6</ele>
        <time>2025-04-05T13:02:06Z</time>
      </trkpt>
      <trkpt lat="50.44109" lon="4.83656">
        <ele>184.6</ele>
        <time>2025-04-05T13:02:07Z</time>
      </trkpt>
      <trkpt lat="50.44112" lon="4.83661">
        <ele>184.8</ele>
        <time>2025-04-05T13:02:08Z</time>
      </trkpt>
      <trkpt lat="50.44114" lon="4.83667">
        <ele>184.8</ele>
        <time>2025-04-05T13:02:09Z</time>
      </trkpt>
      <trkpt lat="50.44117" lon="4.83674">
        <ele>185</ele>
        <time>2025-04-05T13:02:10Z</time>
      </trkpt>
      <trkpt lat="50.4412" lon="4.8368">
        <ele>185</ele>
        <time>2025-04-05T13:02:11Z</time>
      </trkpt>
      <trkpt lat="50.44123" lon="4.83686">
        <ele>185</ele>
        <time>2025-04-05T13:02:12Z</time>
      </trkpt>
      <trkpt lat="50.44127" lon="4.83693">
        <ele>185</ele>
        <time>2025-04-05T13:02:13Z</time>
      </trkpt>
      <trkpt lat="50.44129" lon="4.837">
        <ele>184.8</ele>
        <time>2025-04-05T13:02:14Z</time>
      </trkpt>
      <trkpt lat="50.44133" lon="4.83708">
        <ele>184.8</ele>
        <time>2025-04-05T13:02:15Z</time>
      </trkpt>
      <trkpt lat="50.44136" lon="4.83714">
        <ele>185</ele>
        <time>2025-04-05T13:02:16Z</time>
      </trkpt>
      <trkpt lat="50.44139" lon="4.83722">
        <ele>185</ele>
        <time>2025-04-05T13:02:17Z</time>
      </trkpt>
      <trkpt lat="50.44142" lon="4.83729">
        <ele>185.2</ele>
        <time>2025-04-05T13:02:18Z</time>
      </trkpt>
      <trkpt lat="50.44146" lon="4.83736">
        <ele>185.2</ele>
        <time>2025-04-05T13:02:19Z</time>
      </trkpt>
      <trkpt lat="50.44149" lon="4.83743">
        <ele>185.2</ele>
        <time>2025-04-05T13:02:20Z</time>
      </trkpt>
      <trkpt lat="50.44152" lon="4.8375">
        <ele>185.2</ele>
        <time>2025-04-05T13:02:21Z</time>
      </trkpt>
      <trkpt lat="50.44154" lon="4.83756">
        <ele>185.2</ele>
        <time>2025-04-05T13:02:22Z</time>
      </trkpt>
      <trkpt lat="50.44158" lon="4.83762">
        <ele>185.2</ele>
        <time>2025-04-05T13:02:23Z</time>
      </trkpt>
      <trkpt lat="50.44161" lon="4.8377">
        <ele>185</ele>
        <time>2025-04-05T13:02:24Z</time>
      </trkpt>
      <trkpt lat="50.44165" lon="4.83777">
        <ele>185</ele>
        <time>2025-04-05T13:02:25Z</time>
      </trkpt>
      <trkpt lat="50.44168" lon="4.83784">
        <ele>185.2</ele>
        <time>2025-04-05T13:02:26Z</time>
      </trkpt>
      <trkpt lat="50.44171" lon="4.83789">
        <ele>185.2</ele>
        <time>2025-04-05T13:02:27Z</time>
      </trkpt>
      <trkpt lat="50.44175" lon="4.83796">
        <ele>185.4</ele>
        <time>2025-04-05T13:02:28Z</time>
      </trkpt>
      <trkpt lat="50.44179" lon="4.83804">
        <ele>185.4</ele>
        <time>2025-04-05T13:02:29Z</time>
      </trkpt>
      <trkpt lat="50.44182" lon="4.8381">
        <ele>185.4</ele>
        <time>2025-04-05T13:02:30Z</time>
      </trkpt>
      <trkpt lat="50.44186" lon="4.83817">
        <ele>185.2</ele>
        <time>2025-04-05T13:02:31Z</time>
      </trkpt>
      <trkpt lat="50.4419" lon="4.83825">
        <ele>185.2</ele>
        <time>2025-04-05T13:02:32Z</time>
      </trkpt>
      <trkpt lat="50.44193" lon="4.83832">
        <ele>185.2</ele>
        <time>2025-04-05T13:02:33Z</time>
      </trkpt>
      <trkpt lat="50.44196" lon="4.83839">
        <ele>185</ele>
        <time>2025-04-05T13:02:34Z</time>
      </trkpt>
      <trkpt lat="50.44199" lon="4.83845">
        <ele>185</ele>
        <time>2025-04-05T13:02:35Z</time>
      </trkpt>
      <trkpt lat="50.44202" lon="4.83851">
        <ele>185</ele>
        <time>2025-04-05T13:02:36Z</time>
      </trkpt>
      <trkpt lat="50.44206" lon="4.83858">
        <ele>185</ele>
        <time>2025-04-05T13:02:37Z</time>
      </trkpt>
      <trkpt lat="50.44208" lon="4.83864">
        <ele>185</ele>
        <time>2025-04-05T13:02:38Z</time>
      </trkpt>
      <trkpt lat="50.44211" lon="4.8387">
        <ele>185</ele>
        <time>2025-04-05T13:02:39Z</time>
      </trkpt>
      <trkpt lat="50.44215" lon="4.83877">
        <ele>184.8</ele>
        <time>2025-04-05T13:02:40Z</time>
      </trkpt>
      <trkpt lat="50.44218" lon="4.83883">
        <ele>184.8</ele>
        <time>2025-04-05T13:02:41Z</time>
      </trkpt>
      <trkpt lat="50.44222" lon="4.83891">
        <ele>184.6</ele>
        <time>2025-04-05T13:02:42Z</time>
      </trkpt>
      <trkpt lat="50.44225" lon="4.83898">
        <ele>184.2</ele>
        <time>2025-04-05T13:02:43Z</time>
      </trkpt>
      <trkpt lat="50.44228" lon="4.83906">
        <ele>184</ele>
        <time>2025-04-05T13:02:44Z</time>
      </trkpt>
      <trkpt lat="50.44232" lon="4.83914">
        <ele>183.6</ele>
        <time>2025-04-05T13:02:45Z</time>
      </trkpt>
      <trkpt lat="50.44236" lon="4.83922">
        <ele>183.4</ele>
        <time>2025-04-05T13:02:46Z</time>
      </trkpt>
      <trkpt lat="50.44239" lon="4.8393">
        <ele>183.2</ele>
        <time>2025-04-05T13:02:47Z</time>
      </trkpt>
      <trkpt lat="50.44243" lon="4.83938">
        <ele>183</ele>
        <time>2025-04-05T13:02:48Z</time>
      </trkpt>
      <trkpt lat="50.44247" lon="4.83946">
        <ele>182.8</ele>
        <time>2025-04-05T13:02:49Z</time>
      </trkpt>
      <trkpt lat="50.44251" lon="4.83952">
        <ele>182.6</ele>
        <time>2025-04-05T13:02:50Z</time>
      </trkpt>
      <trkpt lat="50.44254" lon="4.83959">
        <ele>182.4</ele>
        <time>2025-04-05T13:02:51Z</time>
      </trkpt>
      <trkpt lat="50.44258" lon="4.83967">
        <ele>182</ele>
        <time>2025-04-05T13:02:52Z</time>
      </trkpt>
      <trkpt lat="50.44261" lon="4.83974">
        <ele>181.8</ele>
        <time>2025-04-05T13:02:53Z</time>
      </trkpt>
      <trkpt lat="50.44266" lon="4.83982">
        <ele>181.8</ele>
        <time>2025-04-05T13:02:54Z</time>
      </trkpt>
      <trkpt lat="50.4427" lon="4.83991">
        <ele>181.8</ele>
        <time>2025-04-05T13:02:55Z</time>
      </trkpt>
      <trkpt lat="50.44275" lon="4.83998">
        <ele>181.8</ele>
        <time>2025-04-05T13:02:56Z</time>
      </trkpt>
      <trkpt lat="50.44278" lon="4.84005">
        <ele>181.8</ele>
        <time>2025-04-05T13:02:57Z</time>
      </trkpt>
      <trkpt lat="50.44283" lon="4.84014">
        <ele>181.8</ele>
        <time>2025-04-05T13:02:58Z</time>
      </trkpt>
      <trkpt lat="50.44286" lon="4.84022">
        <ele>181.8</ele>
        <time>2025-04-05T13:02:59Z</time>
      </trkpt>
      <trkpt lat="50.4429" lon="4.8403">
        <ele>181.6</ele>
        <time>2025-04-05T13:03:00Z</time>
      </trkpt>
      <trkpt lat="50.44293" lon="4.84038">
        <ele>181.6</ele>
        <time>2025-04-05T13:03:01Z</time>
      </trkpt>
      <trkpt lat="50.44297" lon="4.84045">
        <ele>181.6</ele>
        <time>2025-04-05T13:03:02Z</time>
      </trkpt>
      <trkpt lat="50.443" lon="4.84053">
        <ele>181.4</ele>
        <time>2025-04-05T13:03:03Z</time>
      </trkpt>
      <trkpt lat="50.44304" lon="4.8406">
        <ele>181.2</ele>
        <time>2025-04-05T13:03:04Z</time>
      </trkpt>
      <trkpt lat="50.44307" lon="4.84066">
        <ele>181.2</ele>
        <time>2025-04-05T13:03:05Z</time>
      </trkpt>
      <trkpt lat="50.4431" lon="4.84073">
        <ele>181</ele>
        <time>2025-04-05T13:03:06Z</time>
      </trkpt>
      <trkpt lat="50.44313" lon="4.8408">
        <ele>181</ele>
        <time>2025-04-05T13:03:07Z</time>
      </trkpt>
      <trkpt lat="50.44317" lon="4.84087">
        <ele>180.8</ele>
        <time>2025-04-05T13:03:08Z</time>
      </trkpt>
      <trkpt lat="50.44321" lon="4.84095">
        <ele>180.8</ele>
        <time>2025-04-05T13:03:09Z</time>
      </trkpt>
      <trkpt lat="50.44325" lon="4.84104">
        <ele>180.8</ele>
        <time>2025-04-05T13:03:10Z</time>
      </trkpt>
      <trkpt lat="50.44328" lon="4.84112">
        <ele>180.8</ele>
        <time>2025-04-05T13:03:11Z</time>
      </trkpt>
      <trkpt lat="50.44332" lon="4.8412">
        <ele>180.8</ele>
        <time>2025-04-05T13:03:12Z</time>
      </trkpt>
      <trkpt lat="50.44336" lon="4.84128">
        <ele>180.8</ele>
        <time>2025-04-05T13:03:13Z</time>
      </trkpt>
      <trkpt lat="50.4434" lon="4.84134">
        <ele>180.8</ele>
        <time>2025-04-05T13:03:14Z</time>
      </trkpt>
      <trkpt lat="50.44344" lon="4.84144">
        <ele>181</ele>
        <time>2025-04-05T13:03:15Z</time>
      </trkpt>
      <trkpt lat="50.44349" lon="4.84152">
        <ele>181</ele>
        <time>2025-04-05T13:03:16Z</time>
      </trkpt>
      <trkpt lat="50.44352" lon="4.84161">
        <ele>181</ele>
        <time>2025-04-05T13:03:17Z</time>
      </trkpt>
      <trkpt lat="50.44356" lon="4.84169">
        <ele>181</ele>
        <time>2025-04-05T13:03:18Z</time>
      </trkpt>
      <trkpt lat="50.4436" lon="4.84177">
        <ele>181</ele>
        <time>2025-04-05T13:03:19Z</time>
      </trkpt>
      <trkpt lat="50.44363" lon="4.84185">
        <ele>180.8</ele>
        <time>2025-04-05T13:03:20Z</time>
      </trkpt>
      <trkpt lat="50.44367" lon="4.84193">
        <ele>180.8</ele>
        <time>2025-04-05T13:03:21Z</time>
      </trkpt>
      <trkpt lat="50.4437" lon="4.842">
        <ele>180.8</ele>
        <time>2025-04-05T13:03:22Z</time>
      </trkpt>
      <trkpt lat="50.44375" lon="4.84209">
        <ele>180.8</ele>
        <time>2025-04-05T13:03:23Z</time>
      </trkpt>
      <trkpt lat="50.44378" lon="4.84217">
        <ele>181</ele>
        <time>2025-04-05T13:03:24Z</time>
      </trkpt>
      <trkpt lat="50.44381" lon="4.84223">
        <ele>181</ele>
        <time>2025-04-05T13:03:25Z</time>
      </trkpt>
      <trkpt lat="50.44385" lon="4.84231">
        <ele>181.2</ele>
        <time>2025-04-05T13:03:26Z</time>
      </trkpt>
      <trkpt lat="50.44389" lon="4.84239">
        <ele>181.4</ele>
        <time>2025-04-05T13:03:27Z</time>
      </trkpt>
      <trkpt lat="50.44393" lon="4.84247">
        <ele>181.6</ele>
        <time>2025-04-05T13:03:28Z</time>
      </trkpt>
      <trkpt lat="50.44397" lon="4.84255">
        <ele>181.8</ele>
        <time>2025-04-05T13:03:29Z</time>
      </trkpt>
      <trkpt lat="50.444" lon="4.84261">
        <ele>182</ele>
        <time>2025-04-05T13:03:30Z</time>
      </trkpt>
      <trkpt lat="50.44404" lon="4.84268">
        <ele>182</ele>
        <time>2025-04-05T13:03:31Z</time>
      </trkpt>
      <trkpt lat="50.44407" lon="4.84275">
        <ele>182.2</ele>
        <time>2025-04-05T13:03:32Z</time>
      </trkpt>
      <trkpt lat="50.44411" lon="4.84282">
        <ele>182.2</ele>
        <time>2025-04-05T13:03:33Z</time>
      </trkpt>
      <trkpt lat="50.44415" lon="4.8429">
        <ele>182.4</ele>
        <time>2025-04-05T13:03:34Z</time>
      </trkpt>
      <trkpt lat="50.44418" lon="4.84295">
        <ele>182.6</ele>
        <time>2025-04-05T13:03:35Z</time>
      </trkpt>
      <trkpt lat="50.44421" lon="4.84302">
        <ele>183</ele>
        <time>2025-04-05T13:03:36Z</time>
      </trkpt>
      <trkpt lat="50.44425" lon="4.8431">
        <ele>183</ele>
        <time>2025-04-05T13:03:37Z</time>
      </trkpt>
      <trkpt lat="50.44428" lon="4.84317">
        <ele>183.2</ele>
        <time>2025-04-05T13:03:38Z</time>
      </trkpt>
      <trkpt lat="50.44431" lon="4.84324">
        <ele>183.2</ele>
        <time>2025-04-05T13:03:39Z</time>
      </trkpt>
      <trkpt lat="50.44434" lon="4.84331">
        <ele>183.2</ele>
        <time>2025-04-05T13:03:40Z</time>
      </trkpt>
      <trkpt lat="50.44437" lon="4.84337">
        <ele>183.4</ele>
        <time>2025-04-05T13:03:41Z</time>
      </trkpt>
      <trkpt lat="50.44441" lon="4.84343">
        <ele>183.6</ele>
        <time>2025-04-05T13:03:42Z</time>
      </trkpt>
      <trkpt lat="50.44443" lon="4.84349">
        <ele>184</ele>
        <time>2025-04-05T13:03:43Z</time>
      </trkpt>
      <trkpt lat="50.44446" lon="4.84354">
        <ele>184.4</ele>
        <time>2025-04-05T13:03:44Z</time>
      </trkpt>
      <trkpt lat="50.44449" lon="4.84362">
        <ele>184.8</ele>
        <time>2025-04-05T13:03:45Z</time>
      </trkpt>
      <trkpt lat="50.44452" lon="4.84369">
        <ele>185.2</ele>
        <time>2025-04-05T13:03:46Z</time>
      </trkpt>
      <trkpt lat="50.44454" lon="4.84375">
        <ele>185.2</ele>
        <time>2025-04-05T13:03:47Z</time>
      </trkpt>
      <trkpt lat="50.44457" lon="4.84382">
        <ele>185.4</ele>
        <time>2025-04-05T13:03:48Z</time>
      </trkpt>
      <trkpt lat="50.4446" lon="4.84388">
        <ele>185.4</ele>
        <time>2025-04-05T13:03:49Z</time>
      </trkpt>
      <trkpt lat="50.44462" lon="4.84393">
        <ele>185.6</ele>
        <time>2025-04-05T13:03:50Z</time>
      </trkpt>
      <trkpt lat="50.44465" lon="4.84399">
        <ele>185.8</ele>
        <time>2025-04-05T13:03:51Z</time>
      </trkpt>
      <trkpt lat="50.44467" lon="4.84406">
        <ele>186</ele>
        <time>2025-04-05T13:03:52Z</time>
      </trkpt>
      <trkpt lat="50.4447" lon="4.84413">
        <ele>186</ele>
        <time>2025-04-05T13:03:53Z</time>
      </trkpt>
      <trkpt lat="50.44472" lon="4.84418">
        <ele>186.2</ele>
        <time>2025-04-05T13:03:54Z</time>
      </trkpt>
      <trkpt lat="50.44474" lon="4.84424">
        <ele>186.6</ele>
        <time>2025-04-05T13:03:55Z</time>
      </trkpt>
      <trkpt lat="50.44476" lon="4.84429">
        <ele>186.8</ele>
        <time>2025-04-05T13:03:56Z</time>
      </trkpt>
      <trkpt lat="50.44479" lon="4.84436">
        <ele>187</ele>
        <time>2025-04-05T13:03:57Z</time>
      </trkpt>
      <trkpt lat="50.44482" lon="4.84442">
        <ele>187.2</ele>
        <time>2025-04-05T13:03:58Z</time>
      </trkpt>
      <trkpt lat="50.44485" lon="4.84448">
        <ele>187.2</ele>
        <time>2025-04-05T13:03:59Z</time>
      </trkpt>
      <trkpt lat="50.44487" lon="4.84453">
        <ele>187.4</ele>
        <time>2025-04-05T13:04:00Z</time>
      </trkpt>
      <trkpt lat="50.44489" lon="4.84458">
        <ele>187.6</ele>
        <time>2025-04-05T13:04:01Z</time>
      </trkpt>
      <trkpt lat="50.44492" lon="4.84465">
        <ele>187.8</ele>
        <time>2025-04-05T13:04:02Z</time>
      </trkpt>
      <trkpt lat="50.44495" lon="4.84469">
        <ele>187.8</ele>
        <time>2025-04-05T13:04:03Z</time>
      </trkpt>
      <trkpt lat="50.44497" lon="4.84474">
        <ele>188</ele>
        <time>2025-04-05T13:04:04Z</time>
      </trkpt>
      <trkpt lat="50.445" lon="4.84479">
        <ele>188</ele>
        <time>2025-04-05T13:04:05Z</time>
      </trkpt>
      <trkpt lat="50.44502" lon="4.84483">
        <ele>188.4</ele>
        <time>2025-04-05T13:04:06Z</time>
      </trkpt>
      <trkpt lat="50.44505" lon="4.8449">
        <ele>188.6</ele>
        <time>2025-04-05T13:04:07Z</time>
      </trkpt>
      <trkpt lat="50.44507" lon="4.84494">
        <ele>188.8</ele>
        <time>2025-04-05T13:04:08Z</time>
      </trkpt>
      <trkpt lat="50.4451" lon="4.84499">
        <ele>189</ele>
        <time>2025-04-05T13:04:09Z</time>
      </trkpt>
      <trkpt lat="50.44512" lon="4.84504">
        <ele>189.2</ele>
        <time>2025-04-05T13:04:10Z</time>
      </trkpt>
      <trkpt lat="50.44514" lon="4.84508">
        <ele>189.6</ele>
        <time>2025-04-05T13:04:11Z</time>
      </trkpt>
      <trkpt lat="50.44516" lon="4.84513">
        <ele>189.8</ele>
        <time>2025-04-05T13:04:12Z</time>
      </trkpt>
      <trkpt lat="50.44518" lon="4.84518">
        <ele>190.2</ele>
        <time>2025-04-05T13:04:13Z</time>
      </trkpt>
      <trkpt lat="50.44521" lon="4.84523">
        <ele>190.4</ele>
        <time>2025-04-05T13:04:14Z</time>
      </trkpt>
      <trkpt lat="50.44523" lon="4.84528">
        <ele>190.6</ele>
        <time>2025-04-05T13:04:15Z</time>
      </trkpt>
      <trkpt lat="50.44525" lon="4.84533">
        <ele>190.8</ele>
        <time>2025-04-05T13:04:16Z</time>
      </trkpt>
      <trkpt lat="50.44527" lon="4.84538">
        <ele>191</ele>
        <time>2025-04-05T13:04:17Z</time>
      </trkpt>
      <trkpt lat="50.4453" lon="4.84544">
        <ele>191</ele>
        <time>2025-04-05T13:04:18Z</time>
      </trkpt>
      <trkpt lat="50.44532" lon="4.8455">
        <ele>191.2</ele>
        <time>2025-04-05T13:04:19Z</time>
      </trkpt>
      <trkpt lat="50.44535" lon="4.84556">
        <ele>191.4</ele>
        <time>2025-04-05T13:04:20Z</time>
      </trkpt>
      <trkpt lat="50.44538" lon="4.8456">
        <ele>191.4</ele>
        <time>2025-04-05T13:04:21Z</time>
      </trkpt>
      <trkpt lat="50.4454" lon="4.84565">
        <ele>191.4</ele>
        <time>2025-04-05T13:04:22Z</time>
      </trkpt>
      <trkpt lat="50.44542" lon="4.84569">
        <ele>191.6</ele>
        <time>2025-04-05T13:04:23Z</time>
      </trkpt>
      <trkpt lat="50.44544" lon="4.84573">
        <ele>191.6</ele>
        <time>2025-04-05T13:04:24Z</time>
      </trkpt>
      <trkpt lat="50.44546" lon="4.84577">
        <ele>191.8</ele>
        <time>2025-04-05T13:04:25Z</time>
      </trkpt>
      <trkpt lat="50.44547" lon="4.84581">
        <ele>191.8</ele>
        <time>2025-04-05T13:04:26Z</time>
      </trkpt>
      <trkpt lat="50.4455" lon="4.84586">
        <ele>192</ele>
        <time>2025-04-05T13:04:27Z</time>
      </trkpt>
      <trkpt lat="50.44552" lon="4.84591">
        <ele>192.2</ele>
        <time>2025-04-05T13:04:28Z</time>
      </trkpt>
      <trkpt lat="50.44554" lon="4.84594">
        <ele>192.6</ele>
        <time>2025-04-05T13:04:29Z</time>
      </trkpt>
      <trkpt lat="50.44556" lon="4.846">
        <ele>193</ele>
        <time>2025-04-05T13:04:30Z</time>
      </trkpt>
      <trkpt lat="50.44559" lon="4.84605">
        <ele>193.2</ele>
        <time>2025-04-05T13:04:31Z</time>
      </trkpt>
      <trkpt lat="50.44561" lon="4.8461">
        <ele>193.4</ele>
        <time>2025-04-05T13:04:32Z</time>
      </trkpt>
      <trkpt lat="50.44564" lon="4.84614">
        <ele>193.6</ele>
        <time>2025-04-05T13:04:33Z</time>
      </trkpt>
      <trkpt lat="50.44565" lon="4.84618">
        <ele>193.8</ele>
        <time>2025-04-05T13:04:34Z</time>
      </trkpt>
      <trkpt lat="50.44567" lon="4.84622">
        <ele>193.8</ele>
        <time>2025-04-05T13:04:35Z</time>
      </trkpt>
      <trkpt lat="50.4457" lon="4.84628">
        <ele>193.8</ele>
        <time>2025-04-05T13:04:36Z</time>
      </trkpt>
      <trkpt lat="50.44573" lon="4.84632">
        <ele>194</ele>
        <time>2025-04-05T13:04:37Z</time>
      </trkpt>
      <trkpt lat="50.44575" lon="4.84636">
        <ele>194</ele>
        <time>2025-04-05T13:04:38Z</time>
      </trkpt>
      <trkpt lat="50.44577" lon="4.84641">
        <ele>194.2</ele>
        <time>2025-04-05T13:04:39Z</time>
      </trkpt>
      <trkpt lat="50.4458" lon="4.84646">
        <ele>194.6</ele>
        <time>2025-04-05T13:04:40Z</time>
      </trkpt>
      <trkpt lat="50.44582" lon="4.84651">
        <ele>194.8</ele>
        <time>2025-04-05T13:04:41Z</time>
      </trkpt>
      <trkpt lat="50.44585" lon="4.84655">
        <ele>195</ele>
        <time>2025-04-05T13:04:42Z</time>
      </trkpt>
      <trkpt lat="50.44587" lon="4.8466">
        <ele>195.2</ele>
        <time>2025-04-05T13:04:43Z</time>
      </trkpt>
      <trkpt lat="50.44589" lon="4.84666">
        <ele>195.2</ele>
        <time>2025-04-05T13:04:44Z</time>
      </trkpt>
      <trkpt lat="50.44592" lon="4.84671">
        <ele>195.4</ele>
        <time>2025-04-05T13:04:45Z</time>
      </trkpt>
      <trkpt lat="50.44594" lon="4.84676">
        <ele>195.4</ele>
        <time>2025-04-05T13:04:46Z</time>
      </trkpt>
      <trkpt lat="50.44596" lon="4.84681">
        <ele>195.4</ele>
        <time>2025-04-05T13:04:47Z</time>
      </trkpt>
      <trkpt lat="50.44598" lon="4.84685">
        <ele>195.4</ele>
        <time>2025-04-05T13:04:48Z</time>
      </trkpt>
      <trkpt lat="50.44601" lon="4.84691">
        <ele>195.2</ele>
        <time>2025-04-05T13:04:49Z</time>
      </trkpt>
      <trkpt lat="50.44604" lon="4.84696">
        <ele>195.2</ele>
        <time>2025-04-05T13:04:50Z</time>
      </trkpt>
      <trkpt lat="50.44607" lon="4.84702">
        <ele>195.2</ele>
        <time>2025-04-05T13:04:51Z</time>
      </trkpt>
      <trkpt lat="50.4461" lon="4.84709">
        <ele>195.2</ele>
        <time>2025-04-05T13:04:52Z</time>
      </trkpt>
      <trkpt lat="50.44613" lon="4.84716">
        <ele>195.2</ele>
        <time>2025-04-05T13:04:53Z</time>
      </trkpt>
      <trkpt lat="50.44616" lon="4.84724">
        <ele>195.2</ele>
        <time>2025-04-05T13:04:54Z</time>
      </trkpt>
      <trkpt lat="50.44618" lon="4.8473">
        <ele>195.2</ele>
        <time>2025-04-05T13:04:55Z</time>
      </trkpt>
      <trkpt lat="50.44621" lon="4.84737">
        <ele>195.2</ele>
        <time>2025-04-05T13:04:56Z</time>
      </trkpt>
      <trkpt lat="50.44625" lon="4.84744">
        <ele>195.2</ele>
        <time>2025-04-05T13:04:57Z</time>
      </trkpt>
      <trkpt lat="50.44628" lon="4.84752">
        <ele>195.2</ele>
        <time>2025-04-05T13:04:58Z</time>
      </trkpt>
      <trkpt lat="50.4463" lon="4.84758">
        <ele>195.2</ele>
        <time>2025-04-05T13:04:59Z</time>
      </trkpt>
      <trkpt lat="50.44634" lon="4.84765">
        <ele>195.2</ele>
        <time>2025-04-05T13:05:00Z</time>
      </trkpt>
      <trkpt lat="50.44637" lon="4.84773">
        <ele>195</ele>
        <time>2025-04-05T13:05:01Z</time>
      </trkpt>
      <trkpt lat="50.4464" lon="4.8478">
        <ele>194.8</ele>
        <time>2025-04-05T13:05:02Z</time>
      </trkpt>
      <trkpt lat="50.44643" lon="4.84788">
        <ele>194.8</ele>
        <time>2025-04-05T13:05:03Z</time>
      </trkpt>
      <trkpt lat="50.44647" lon="4.84796">
        <ele>194.6</ele>
        <time>2025-04-05T13:05:04Z</time>
      </trkpt>
      <trkpt lat="50.4465" lon="4.84802">
        <ele>194.6</ele>
        <time>2025-04-05T13:05:05Z</time>
      </trkpt>
      <trkpt lat="50.44653" lon="4.8481">
        <ele>194.6</ele>
        <time>2025-04-05T13:05:06Z</time>
      </trkpt>
      <trkpt lat="50.44657" lon="4.84817">
        <ele>194.4</ele>
        <time>2025-04-05T13:05:07Z</time>
      </trkpt>
      <trkpt lat="50.44661" lon="4.84825">
        <ele>194.4</ele>
        <time>2025-04-05T13:05:08Z</time>
      </trkpt>
      <trkpt lat="50.44664" lon="4.84832">
        <ele>194.2</ele>
        <time>2025-04-05T13:05:09Z</time>
      </trkpt>
      <trkpt lat="50.44668" lon="4.84839">
        <ele>194</ele>
        <time>2025-04-05T13:05:10Z</time>
      </trkpt>
      <trkpt lat="50.44672" lon="4.84845">
        <ele>193.8</ele>
        <time>2025-04-05T13:05:11Z</time>
      </trkpt>
      <trkpt lat="50.44675" lon="4.84851">
        <ele>193.6</ele>
        <time>2025-04-05T13:05:12Z</time>
      </trkpt>
      <trkpt lat="50.4468" lon="4.84857">
        <ele>193.2</ele>
        <time>2025-04-05T13:05:13Z</time>
      </trkpt>
      <trkpt lat="50.44685" lon="4.84865">
        <ele>193</ele>
        <time>2025-04-05T13:05:14Z</time>
      </trkpt>
      <trkpt lat="50.44689" lon="4.84872">
        <ele>192.8</ele>
        <time>2025-04-05T13:05:15Z</time>
      </trkpt>
      <trkpt lat="50.44694" lon="4.84878">
        <ele>192.4</ele>
        <time>2025-04-05T13:05:16Z</time>
      </trkpt>
      <trkpt lat="50.44699" lon="4.84884">
        <ele>192.2</ele>
        <time>2025-04-05T13:05:17Z</time>
      </trkpt>
      <trkpt lat="50.44704" lon="4.84892">
        <ele>191.8</ele>
        <time>2025-04-05T13:05:18Z</time>
      </trkpt>
      <trkpt lat="50.4471" lon="4.849">
        <ele>191.6</ele>
        <time>2025-04-05T13:05:19Z</time>
      </trkpt>
      <trkpt lat="50.44714" lon="4.84907">
        <ele>191.4</ele>
        <time>2025-04-05T13:05:20Z</time>
      </trkpt>
      <trkpt lat="50.44719" lon="4.84913">
        <ele>191</ele>
        <time>2025-04-05T13:05:21Z</time>
      </trkpt>
      <trkpt lat="50.44724" lon="4.84921">
        <ele>190.8</ele>
        <time>2025-04-05T13:05:22Z</time>
      </trkpt>
      <trkpt lat="50.4473" lon="4.84929">
        <ele>190.4</ele>
        <time>2025-04-05T13:05:23Z</time>
      </trkpt>
      <trkpt lat="50.44736" lon="4.84938">
        <ele>190</ele>
        <time>2025-04-05T13:05:24Z</time>
      </trkpt>
      <trkpt lat="50.44741" lon="4.84946">
        <ele>189.6</ele>
        <time>2025-04-05T13:05:25Z</time>
      </trkpt>
      <trkpt lat="50.44747" lon="4.84954">
        <ele>189.2</ele>
        <time>2025-04-05T13:05:26Z</time>
      </trkpt>
      <trkpt lat="50.44752" lon="4.84961">
        <ele>188.8</ele>
        <time>2025-04-05T13:05:27Z</time>
      </trkpt>
      <trkpt lat="50.44759" lon="4.84969">
        <ele>188.4</ele>
        <time>2025-04-05T13:05:28Z</time>
      </trkpt>
      <trkpt lat="50.44765" lon="4.84975">
        <ele>188</ele>
        <time>2025-04-05T13:05:29Z</time>
      </trkpt>
      <trkpt lat="50.44771" lon="4.84979">
        <ele>187.8</ele>
        <time>2025-04-05T13:05:30Z</time>
      </trkpt>
      <trkpt lat="50.44779" lon="4.84984">
        <ele>187.4</ele>
        <time>2025-04-05T13:05:31Z</time>
      </trkpt>
      <trkpt lat="50.44787" lon="4.84987">
        <ele>187.2</ele>
        <time>2025-04-05T13:05:32Z</time>
      </trkpt>
      <trkpt lat="50.44795" lon="4.8499">
        <ele>187</ele>
        <time>2025-04-05T13:05:33Z</time>
      </trkpt>
      <trkpt lat="50.44801" lon="4.84992">
        <ele>186.6</ele>
        <time>2025-04-05T13:05:34Z</time>
      </trkpt>
      <trkpt lat="50.44809" lon="4.84995">
        <ele>186.2</ele>
        <time>2025-04-05T13:05:35Z</time>
      </trkpt>
      <trkpt lat="50.44818" lon="4.84998">
        <ele>185.8</ele>
        <time>2025-04-05T13:05:36Z</time>
      </trkpt>
      <trkpt lat="50.44826" lon="4.85">
        <ele>185.6</ele>
        <time>2025-04-05T13:05:37Z</time>
      </trkpt>
      <trkpt lat="50.44832" lon="4.85002">
        <ele>185.6</ele>
        <time>2025-04-05T13:05:38Z</time>
      </trkpt>
      <trkpt lat="50.44839" lon="4.85004">
        <ele>185.4</ele>
        <time>2025-04-05T13:05:39Z</time>
      </trkpt>
      <trkpt lat="50.44846" lon="4.85006">
        <ele>185.4</ele>
        <time>2025-04-05T13:05:40Z</time>
      </trkpt>
      <trkpt lat="50.44852" lon="4.85008">
        <ele>185.4</ele>
        <time>2025-04-05T13:05:41Z</time>
      </trkpt>
      <trkpt lat="50.44859" lon="4.85009">
        <ele>185.6</ele>
        <time>2025-04-05T13:05:42Z</time>
      </trkpt>
      <trkpt lat="50.44865" lon="4.85009">
        <ele>185.8</ele>
        <time>2025-04-05T13:05:43Z</time>
      </trkpt>
      <trkpt lat="50.44871" lon="4.85008">
        <ele>186</ele>
        <time>2025-04-05T13:05:44Z</time>
      </trkpt>
      <trkpt lat="50.44877" lon="4.85005">
        <ele>186</ele>
        <time>2025-04-05T13:05:45Z</time>
      </trkpt>
      <trkpt lat="50.44883" lon="4.85001">
        <ele>186.2</ele>
        <time>2025-04-05T13:05:46Z</time>
      </trkpt>
      <trkpt lat="50.44887" lon="4.84997">
        <ele>186.2</ele>
        <time>2025-04-05T13:05:47Z</time>
      </trkpt>
      <trkpt lat="50.44892" lon="4.84991">
        <ele>186.2</ele>
        <time>2025-04-05T13:05:48Z</time>
      </trkpt>
      <trkpt lat="50.44898" lon="4.84984">
        <ele>186</ele>
        <time>2025-04-05T13:05:49Z</time>
      </trkpt>
      <trkpt lat="50.44902" lon="4.84977">
        <ele>186</ele>
        <time>2025-04-05T13:05:50Z</time>
      </trkpt>
      <trkpt lat="50.44906" lon="4.8497">
        <ele>185.8</ele>
        <time>2025-04-05T13:05:51Z</time>
      </trkpt>
      <trkpt lat="50.44909" lon="4.84964">
        <ele>185.8</ele>
        <time>2025-04-05T13:05:52Z</time>
      </trkpt>
      <trkpt lat="50.44914" lon="4.84955">
        <ele>185.8</ele>
        <time>2025-04-05T13:05:53Z</time>
      </trkpt>
      <trkpt lat="50.44919" lon="4.84948">
        <ele>185.8</ele>
        <time>2025-04-05T13:05:54Z</time>
      </trkpt>
      <trkpt lat="50.44923" lon="4.84941">
        <ele>186</ele>
        <time>2025-04-05T13:05:55Z</time>
      </trkpt>
      <trkpt lat="50.44927" lon="4.84935">
        <ele>186</ele>
        <time>2025-04-05T13:05:56Z</time>
      </trkpt>
      <trkpt lat="50.44932" lon="4.84927">
        <ele>186</ele>
        <time>2025-04-05T13:05:57Z</time>
      </trkpt>
      <trkpt lat="50.44936" lon="4.84919">
        <ele>186</ele>
        <time>2025-04-05T13:05:58Z</time>
      </trkpt>
      <trkpt lat="50.4494" lon="4.84912">
        <ele>186.2</ele>
        <time>2025-04-05T13:05:59Z</time>
      </trkpt>
      <trkpt lat="50.44944" lon="4.84906">
        <ele>186.2</ele>
        <time>2025-04-05T13:06:00Z</time>
      </trkpt>
      <trkpt lat="50.44949" lon="4.84898">
        <ele>186.2</ele>
        <time>2025-04-05T13:06:01Z</time>
      </trkpt>
      <trkpt lat="50.44954" lon="4.84889">
        <ele>186.2</ele>
        <time>2025-04-05T13:06:02Z</time>
      </trkpt>
      <trkpt lat="50.44959" lon="4.84881">
        <ele>186.2</ele>
        <time>2025-04-05T13:06:03Z</time>
      </trkpt>
      <trkpt lat="50.44962" lon="4.84874">
        <ele>186</ele>
        <time>2025-04-05T13:06:04Z</time>
      </trkpt>
      <trkpt lat="50.44967" lon="4.84866">
        <ele>186</ele>
        <time>2025-04-05T13:06:05Z</time>
      </trkpt>
      <trkpt lat="50.44972" lon="4.84858">
        <ele>186</ele>
        <time>2025-04-05T13:06:06Z</time>
      </trkpt>
      <trkpt lat="50.44976" lon="4.84852">
        <ele>186.2</ele>
        <time>2025-04-05T13:06:07Z</time>
      </trkpt>
      <trkpt lat="50.4498" lon="4.84845">
        <ele>186.2</ele>
        <time>2025-04-05T13:06:08Z</time>
      </trkpt>
      <trkpt lat="50.44984" lon="4.8484">
        <ele>186.2</ele>
        <time>2025-04-05T13:06:09Z</time>
      </trkpt>
      <trkpt lat="50.44988" lon="4.84833">
        <ele>186.2</ele>
        <time>2025-04-05T13:06:10Z</time>
      </trkpt>
      <trkpt lat="50.44992" lon="4.84826">
        <ele>186.2</ele>
        <time>2025-04-05T13:06:11Z</time>
      </trkpt>
      <trkpt lat="50.44996" lon="4.8482">
        <ele>186.2</ele>
        <time>2025-04-05T13:06:12Z</time>
      </trkpt>
      <trkpt lat="50.45" lon="4.84812">
        <ele>186</ele>
        <time>2025-04-05T13:06:13Z</time>
      </trkpt>
      <trkpt lat="50.45004" lon="4.84806">
        <ele>186</ele>
        <time>2025-04-05T13:06:14Z</time>
      </trkpt>
      <trkpt lat="50.45008" lon="4.848">
        <ele>186</ele>
        <time>2025-04-05T13:06:15Z</time>
      </trkpt>
      <trkpt lat="50.45012" lon="4.84794">
        <ele>186.2</ele>
        <time>2025-04-05T13:06:16Z</time>
      </trkpt>
      <trkpt lat="50.45016" lon="4.84788">
        <ele>186.2</ele>
        <time>2025-04-05T13:06:17Z</time>
      </trkpt>
      <trkpt lat="50.4502" lon="4.84781">
        <ele>186.4</ele>
        <time>2025-04-05T13:06:18Z</time>
      </trkpt>
      <trkpt lat="50.45023" lon="4.84776">
        <ele>186.4</ele>
        <time>2025-04-05T13:06:19Z</time>
      </trkpt>
      <trkpt lat="50.45026" lon="4.84771">
        <ele>186.6</ele>
        <time>2025-04-05T13:06:20Z</time>
      </trkpt>
      <trkpt lat="50.4503" lon="4.84764">
        <ele>186.6</ele>
        <time>2025-04-05T13:06:21Z</time>
      </trkpt>
      <trkpt lat="50.45033" lon="4.84761">
        <ele>186.8</ele>
        <time>2025-04-05T13:06:22Z</time>
      </trkpt>
      <trkpt lat="50.45036" lon="4.84757">
        <ele>186.8</ele>
        <time>2025-04-05T13:06:23Z</time>
      </trkpt>
      <trkpt lat="50.4504" lon="4.84754">
        <ele>186.8</ele>
        <time>2025-04-05T13:06:24Z</time>
      </trkpt>
      <trkpt lat="50.45044" lon="4.84751">
        <ele>186.8</ele>
        <time>2025-04-05T13:06:25Z</time>
      </trkpt>
      <trkpt lat="50.45048" lon="4.84749">
        <ele>186.8</ele>
        <time>2025-04-05T13:06:26Z</time>
      </trkpt>
      <trkpt lat="50.45053" lon="4.84749">
        <ele>187</ele>
        <time>2025-04-05T13:06:27Z</time>
      </trkpt>
      <trkpt lat="50.45057" lon="4.8475">
        <ele>187</ele>
        <time>2025-04-05T13:06:28Z</time>
      </trkpt>
      <trkpt lat="50.45062" lon="4.84752">
        <ele>187.2</ele>
        <time>2025-04-05T13:06:29Z</time>
      </trkpt>
      <trkpt lat="50.45066" lon="4.84753">
        <ele>187.4</ele>
        <time>2025-04-05T13:06:30Z</time>
      </trkpt>
      <trkpt lat="50.45072" lon="4.84755">
        <ele>187.4</ele>
        <time>2025-04-05T13:06:31Z</time>
      </trkpt>
      <trkpt lat="50.45077" lon="4.84757">
        <ele>187.8</ele>
        <time>2025-04-05T13:06:32Z</time>
      </trkpt>
      <trkpt lat="50.45081" lon="4.84759">
        <ele>188</ele>
        <time>2025-04-05T13:06:33Z</time>
      </trkpt>
      <trkpt lat="50.45085" lon="4.84761">
        <ele>188.4</ele>
        <time>2025-04-05T13:06:34Z</time>
      </trkpt>
      <trkpt lat="50.4509" lon="4.84763">
        <ele>188.6</ele>
        <time>2025-04-05T13:06:35Z</time>
      </trkpt>
      <trkpt lat="50.45095" lon="4.84765">
        <ele>188.8</ele>
        <time>2025-04-05T13:06:36Z</time>
      </trkpt>
      <trkpt lat="50.451" lon="4.84767">
        <ele>189</ele>
        <time>2025-04-05T13:06:37Z</time>
      </trkpt>
      <trkpt lat="50.45104" lon="4.84768">
        <ele>189.2</ele>
        <time>2025-04-05T13:06:38Z</time>
      </trkpt>
      <trkpt lat="50.45109" lon="4.84769">
        <ele>189.4</ele>
        <time>2025-04-05T13:06:39Z</time>
      </trkpt>
      <trkpt lat="50.45113" lon="4.84771">
        <ele>189.8</ele>
        <time>2025-04-05T13:06:40Z</time>
      </trkpt>
      <trkpt lat="50.45118" lon="4.84772">
        <ele>190</ele>
        <time>2025-04-05T13:06:41Z</time>
      </trkpt>
      <trkpt lat="50.45122" lon="4.84774">
        <ele>190</ele>
        <time>2025-04-05T13:06:42Z</time>
      </trkpt>
      <trkpt lat="50.45125" lon="4.84775">
        <ele>190.2</ele>
        <time>2025-04-05T13:06:43Z</time>
      </trkpt>
      <trkpt lat="50.4513" lon="4.84776">
        <ele>190.4</ele>
        <time>2025-04-05T13:06:44Z</time>
      </trkpt>
      <trkpt lat="50.45135" lon="4.84777">
        <ele>190.6</ele>
        <time>2025-04-05T13:06:45Z</time>
      </trkpt>
      <trkpt lat="50.45139" lon="4.84776">
        <ele>190.8</ele>
        <time>2025-04-05T13:06:46Z</time>
      </trkpt>
      <trkpt lat="50.45144" lon="4.84771">
        <ele>190.8</ele>
        <time>2025-04-05T13:06:47Z</time>
      </trkpt>
      <trkpt lat="50.45147" lon="4.84766">
        <ele>190.8</ele>
        <time>2025-04-05T13:06:48Z</time>
      </trkpt>
      <trkpt lat="50.4515" lon="4.84759">
        <ele>190.8</ele>
        <time>2025-04-05T13:06:49Z</time>
      </trkpt>
      <trkpt lat="50.45153" lon="4.84751">
        <ele>190.6</ele>
        <time>2025-04-05T13:06:50Z</time>
      </trkpt>
      <trkpt lat="50.45155" lon="4.84743">
        <ele>190.4</ele>
        <time>2025-04-05T13:06:51Z</time>
      </trkpt>
      <trkpt lat="50.45157" lon="4.84733">
        <ele>190.2</ele>
        <time>2025-04-05T13:06:52Z</time>
      </trkpt>
      <trkpt lat="50.45158" lon="4.84725">
        <ele>190</ele>
        <time>2025-04-05T13:06:53Z</time>
      </trkpt>
      <trkpt lat="50.45159" lon="4.84717">
        <ele>189.6</ele>
        <time>2025-04-05T13:06:54Z</time>
      </trkpt>
      <trkpt lat="50.45161" lon="4.84707">
        <ele>189.2</ele>
        <time>2025-04-05T13:06:55Z</time>
      </trkpt>
      <trkpt lat="50.45163" lon="4.84698">
        <ele>189</ele>
        <time>2025-04-05T13:06:56Z</time>
      </trkpt>
      <trkpt lat="50.45165" lon="4.84688">
        <ele>188.8</ele>
        <time>2025-04-05T13:06:57Z</time>
      </trkpt>
      <trkpt lat="50.45166" lon="4.84679">
        <ele>188.4</ele>
        <time>2025-04-05T13:06:58Z</time>
      </trkpt>
      <trkpt lat="50.45169" lon="4.84671">
        <ele>188</ele>
        <time>2025-04-05T13:06:59Z</time>
      </trkpt>
      <trkpt lat="50.45172" lon="4.84661">
        <ele>187.6</ele>
        <time>2025-04-05T13:07:00Z</time>
      </trkpt>
      <trkpt lat="50.45176" lon="4.84651">
        <ele>187.2</ele>
        <time>2025-04-05T13:07:01Z</time>
      </trkpt>
      <trkpt lat="50.4518" lon="4.84644">
        <ele>186.8</ele>
        <time>2025-04-05T13:07:02Z</time>
      </trkpt>
      <trkpt lat="50.45184" lon="4.84637">
        <ele>186.2</ele>
        <time>2025-04-05T13:07:03Z</time>
      </trkpt>
      <trkpt lat="50.4519" lon="4.84628">
        <ele>185.6</ele>
        <time>2025-04-05T13:07:04Z</time>
      </trkpt>
      <trkpt lat="50.45195" lon="4.84622">
        <ele>185.2</ele>
        <time>2025-04-05T13:07:05Z</time>
      </trkpt>
      <trkpt lat="50.45199" lon="4.84617">
        <ele>184.6</ele>
        <time>2025-04-05T13:07:06Z</time>
      </trkpt>
      <trkpt lat="50.45204" lon="4.84611">
        <ele>184.2</ele>
        <time>2025-04-05T13:07:07Z</time>
      </trkpt>
      <trkpt lat="50.45208" lon="4.84606">
        <ele>183.8</ele>
        <time>2025-04-05T13:07:08Z</time>
      </trkpt>
      <trkpt lat="50.45214" lon="4.846">
        <ele>183.2</ele>
        <time>2025-04-05T13:07:09Z</time>
      </trkpt>
      <trkpt lat="50.45219" lon="4.84595">
        <ele>182.8</ele>
        <time>2025-04-05T13:07:10Z</time>
      </trkpt>
      <trkpt lat="50.45224" lon="4.84589">
        <ele>182.4</ele>
        <time>2025-04-05T13:07:11Z</time>
      </trkpt>
      <trkpt lat="50.45229" lon="4.84583">
        <ele>182</ele>
        <time>2025-04-05T13:07:12Z</time>
      </trkpt>
      <trkpt lat="50.45234" lon="4.84578">
        <ele>181.6</ele>
        <time>2025-04-05T13:07:13Z</time>
      </trkpt>
      <trkpt lat="50.45239" lon="4.84572">
        <ele>181.2</ele>
        <time>2025-04-05T13:07:14Z</time>
      </trkpt>
      <trkpt lat="50.45244" lon="4.84566">
        <ele>180.6</ele>
        <time>2025-04-05T13:07:15Z</time>
      </trkpt>
      <trkpt lat="50.45247" lon="4.84561">
        <ele>180.2</ele>
        <time>2025-04-05T13:07:16Z</time>
      </trkpt>
      <trkpt lat="50.45251" lon="4.84554">
        <ele>179.8</ele>
        <time>2025-04-05T13:07:17Z</time>
      </trkpt>
      <trkpt lat="50.45253" lon="4.84547">
        <ele>179.6</ele>
        <time>2025-04-05T13:07:18Z</time>
      </trkpt>
      <trkpt lat="50.45255" lon="4.8454">
        <ele>179.4</ele>
        <time>2025-04-05T13:07:19Z</time>
      </trkpt>
      <trkpt lat="50.45258" lon="4.8453">
        <ele>179</ele>
        <time>2025-04-05T13:07:20Z</time>
      </trkpt>
      <trkpt lat="50.45259" lon="4.84521">
        <ele>178.4</ele>
        <time>2025-04-05T13:07:21Z</time>
      </trkpt>
      <trkpt lat="50.45261" lon="4.84512">
        <ele>177.8</ele>
        <time>2025-04-05T13:07:22Z</time>
      </trkpt>
      <trkpt lat="50.45262" lon="4.84503">
        <ele>177.4</ele>
        <time>2025-04-05T13:07:23Z</time>
      </trkpt>
      <trkpt lat="50.45263" lon="4.84495">
        <ele>176.8</ele>
        <time>2025-04-05T13:07:24Z</time>
      </trkpt>
      <trkpt lat="50.45264" lon="4.84484">
        <ele>176.2</ele>
        <time>2025-04-05T13:07:25Z</time>
      </trkpt>
      <trkpt lat="50.45265" lon="4.84476">
        <ele>175.6</ele>
        <time>2025-04-05T13:07:26Z</time>
      </trkpt>
      <trkpt lat="50.45266" lon="4.84469">
        <ele>175.2</ele>
        <time>2025-04-05T13:07:27Z</time>
      </trkpt>
      <trkpt lat="50.45268" lon="4.84462">
        <ele>174.6</ele>
        <time>2025-04-05T13:07:28Z</time>
      </trkpt>
      <trkpt lat="50.45269" lon="4.84455">
        <ele>174.2</ele>
        <time>2025-04-05T13:07:29Z</time>
      </trkpt>
      <trkpt lat="50.45271" lon="4.84448">
        <ele>173.6</ele>
        <time>2025-04-05T13:07:30Z</time>
      </trkpt>
      <trkpt lat="50.45273" lon="4.84442">
        <ele>173.2</ele>
        <time>2025-04-05T13:07:31Z</time>
      </trkpt>
      <trkpt lat="50.45275" lon="4.84438">
        <ele>172.8</ele>
        <time>2025-04-05T13:07:32Z</time>
      </trkpt>
      <trkpt lat="50.45276" lon="4.84433">
        <ele>172.4</ele>
        <time>2025-04-05T13:07:33Z</time>
      </trkpt>
      <trkpt lat="50.45277" lon="4.84427">
        <ele>172.2</ele>
        <time>2025-04-05T13:07:34Z</time>
      </trkpt>
      <trkpt lat="50.45277" lon="4.84423">
        <ele>171.8</ele>
        <time>2025-04-05T13:07:35Z</time>
      </trkpt>
      <trkpt lat="50.45276" lon="4.84418">
        <ele>171.6</ele>
        <time>2025-04-05T13:07:36Z</time>
      </trkpt>
      <trkpt lat="50.45274" lon="4.84413">
        <ele>171.4</ele>
        <time>2025-04-05T13:07:37Z</time>
      </trkpt>
      <trkpt lat="50.45271" lon="4.84411">
        <ele>171.4</ele>
        <time>2025-04-05T13:07:38Z</time>
      </trkpt>
      <trkpt lat="50.45268" lon="4.84409">
        <ele>171.4</ele>
        <time>2025-04-05T13:07:39Z</time>
      </trkpt>
      <trkpt lat="50.45264" lon="4.84408">
        <ele>171.6</ele>
        <time>2025-04-05T13:07:40Z</time>
      </trkpt>
      <trkpt lat="50.45261" lon="4.84407">
        <ele>171.6</ele>
        <time>2025-04-05T13:07:41Z</time>
      </trkpt>
      <trkpt lat="50.45257" lon="4.84406">
        <ele>171.8</ele>
        <time>2025-04-05T13:07:42Z</time>
      </trkpt>
      <trkpt lat="50.45254" lon="4.84405">
        <ele>172</ele>
        <time>2025-04-05T13:07:43Z</time>
      </trkpt>
      <trkpt lat="50.4525" lon="4.84405">
        <ele>172.2</ele>
        <time>2025-04-05T13:07:44Z</time>
      </trkpt>
      <trkpt lat="50.45247" lon="4.84404">
        <ele>172.4</ele>
        <time>2025-04-05T13:07:45Z</time>
      </trkpt>
      <trkpt lat="50.45244" lon="4.84403">
        <ele>172.6</ele>
        <time>2025-04-05T13:07:46Z</time>
      </trkpt>
      <trkpt lat="50.45241" lon="4.84403">
        <ele>172.8</ele>
        <time>2025-04-05T13:07:47Z</time>
      </trkpt>
      <trkpt lat="50.45238" lon="4.84402">
        <ele>173.2</ele>
        <time>2025-04-05T13:07:48Z</time>
      </trkpt>
      <trkpt lat="50.45235" lon="4.84401">
        <ele>173.4</ele>
        <time>2025-04-05T13:07:49Z</time>
      </trkpt>
      <trkpt lat="50.45232" lon="4.844">
        <ele>173.8</ele>
        <time>2025-04-05T13:07:50Z</time>
      </trkpt>
      <trkpt lat="50.45229" lon="4.84399">
        <ele>174</ele>
        <time>2025-04-05T13:07:51Z</time>
      </trkpt>
      <trkpt lat="50.45225" lon="4.84398">
        <ele>174.4</ele>
        <time>2025-04-05T13:07:52Z</time>
      </trkpt>
      <trkpt lat="50.45223" lon="4.84397">
        <ele>174.8</ele>
        <time>2025-04-05T13:07:53Z</time>
      </trkpt>
      <trkpt lat="50.4522" lon="4.84397">
        <ele>175</ele>
        <time>2025-04-05T13:07:54Z</time>
      </trkpt>
      <trkpt lat="50.45217" lon="4.84395">
        <ele>175.4</ele>
        <time>2025-04-05T13:07:55Z</time>
      </trkpt>
      <trkpt lat="50.45214" lon="4.84394">
        <ele>175.6</ele>
        <time>2025-04-05T13:07:56Z</time>
      </trkpt>
      <trkpt lat="50.45211" lon="4.84392">
        <ele>176</ele>
        <time>2025-04-05T13:07:57Z</time>
      </trkpt>
      <trkpt lat="50.45209" lon="4.84392">
        <ele>176.2</ele>
        <time>2025-04-05T13:07:58Z</time>
      </trkpt>
      <trkpt lat="50.45206" lon="4.84391">
        <ele>176.6</ele>
        <time>2025-04-05T13:07:59Z</time>
      </trkpt>
      <trkpt lat="50.45203" lon="4.8439">
        <ele>177</ele>
        <time>2025-04-05T13:08:00Z</time>
      </trkpt>
      <trkpt lat="50.45201" lon="4.84388">
        <ele>177.2</ele>
        <time>2025-04-05T13:08:01Z</time>
      </trkpt>
      <trkpt lat="50.45199" lon="4.84387">
        <ele>177.4</ele>
        <time>2025-04-05T13:08:02Z</time>
      </trkpt>
      <trkpt lat="50.45196" lon="4.84387">
        <ele>177.6</ele>
        <time>2025-04-05T13:08:03Z</time>
      </trkpt>
      <trkpt lat="50.45194" lon="4.84386">
        <ele>177.8</ele>
        <time>2025-04-05T13:08:04Z</time>
      </trkpt>
      <trkpt lat="50.45191" lon="4.84384">
        <ele>178</ele>
        <time>2025-04-05T13:08:05Z</time>
      </trkpt>
      <trkpt lat="50.45188" lon="4.84382">
        <ele>178</ele>
        <time>2025-04-05T13:08:06Z</time>
      </trkpt>
      <trkpt lat="50.45186" lon="4.84381">
        <ele>178.2</ele>
        <time>2025-04-05T13:08:07Z</time>
      </trkpt>
      <trkpt lat="50.45184" lon="4.84379">
        <ele>178.2</ele>
        <time>2025-04-05T13:08:08Z</time>
      </trkpt>
      <trkpt lat="50.45181" lon="4.84378">
        <ele>178.2</ele>
        <time>2025-04-05T13:08:09Z</time>
      </trkpt>
      <trkpt lat="50.4518" lon="4.84378">
        <ele>178.4</ele>
        <time>2025-04-05T13:08:10Z</time>
      </trkpt>
      <trkpt lat="50.45179" lon="4.84377">
        <ele>178.4</ele>
        <time>2025-04-05T13:08:11Z</time>
      </trkpt>
      <trkpt lat="50.45179" lon="4.84377">
        <ele>178.4</ele>
        <time>2025-04-05T13:08:12Z</time>
      </trkpt>
    </trkseg>
  </trk>
</gpx>